<?xml version='1.0' encoding='UTF-8'?><gpx version="1.1" creator="JPX - https://github.com/jenetics/jpx" xmlns="http://www.topografix.com/GPX/1/1"><trk><trkseg><trkpt lat="45.6507266" lon="13.7789002"><ele>32.0</ele><time>2026-04-08T06:51:46.4Z</time></trkpt><trkpt lat="45.6482325" lon="13.7833424"><ele>32.0</ele><time>2026-04-08T06:54:45.504Z</time></trkpt><trkpt lat="45.6483699" lon="13.7831197"><ele>32.0</ele><time>2026-04-08T06:54:53.117Z</time></trkpt><trkpt lat="45.6477629" lon="13.7823984"><ele>30.0</ele><time>2026-04-08T06:55:00.823Z</time></trkpt><trkpt lat="45.647657" lon="13.7818859"><ele>28.0</ele><time>2026-04-08T06:55:08.555Z</time></trkpt><trkpt lat="45.647455" lon="13.7814307"><ele>29.0</ele><time>2026-04-08T06:55:16.05Z</time></trkpt><trkpt lat="45.6470298" lon="13.7805976"><ele>21.0</ele><time>2026-04-08T06:55:23.735Z</time></trkpt><trkpt lat="45.6466758" lon="13.7801926"><ele>20.75</ele><time>2026-04-08T06:55:31.31Z</time></trkpt><trkpt lat="45.646743" lon="13.7799543"><ele>20.5</ele><time>2026-04-08T06:55:38.658Z</time></trkpt><trkpt lat="45.6468031" lon="13.7799853"><ele>20.25</ele><time>2026-04-08T06:55:39.672Z</time></trkpt><trkpt lat="45.6468949" lon="13.7799418"><ele>20.0</ele><time>2026-04-08T06:56:01.374Z</time></trkpt><trkpt lat="45.6469744" lon="13.7798077"><ele>21.0</ele><time>2026-04-08T06:56:03.27Z</time></trkpt><trkpt lat="45.6470341" lon="13.7797443"><ele>22.0</ele><time>2026-04-08T06:56:04.259Z</time></trkpt><trkpt lat="45.647088" lon="13.7796786"><ele>23.0</ele><time>2026-04-08T06:56:05.264Z</time></trkpt><trkpt lat="45.6471847" lon="13.7795782"><ele>24.0</ele><time>2026-04-08T06:56:07.418Z</time></trkpt><trkpt lat="45.6471827" lon="13.7794608"><ele>25.0</ele><time>2026-04-08T06:56:09.362Z</time></trkpt><trkpt lat="45.6470597" lon="13.7792858"><ele>25.0</ele><time>2026-04-08T06:56:12.356Z</time></trkpt><trkpt lat="45.6470044" lon="13.7792203"><ele>25.0</ele><time>2026-04-08T06:56:13.355Z</time></trkpt><trkpt lat="45.6469395" lon="13.7791009"><ele>25.0</ele><time>2026-04-08T06:56:15.371Z</time></trkpt><trkpt lat="45.6468875" lon="13.7790276"><ele>25.0</ele><time>2026-04-08T06:56:17.362Z</time></trkpt><trkpt lat="45.6467914" lon="13.7788835"><ele>25.0</ele><time>2026-04-08T06:56:19.357Z</time></trkpt><trkpt lat="45.646733" lon="13.7787695"><ele>24.4</ele><time>2026-04-08T06:56:20.354Z</time></trkpt><trkpt lat="45.6466713" lon="13.7786506"><ele>23.8</ele><time>2026-04-08T06:56:21.364Z</time></trkpt><trkpt lat="45.6466125" lon="13.7785361"><ele>23.200000000000003</ele><time>2026-04-08T06:56:22.376Z</time></trkpt><trkpt lat="45.6465575" lon="13.7784345"><ele>22.6</ele><time>2026-04-08T06:56:23.366Z</time></trkpt><trkpt lat="45.6465022" lon="13.7783333"><ele>22.0</ele><time>2026-04-08T06:56:25.357Z</time></trkpt><trkpt lat="45.6464344" lon="13.7783459"><ele>23.400000000000002</ele><time>2026-04-08T06:56:27.353Z</time></trkpt><trkpt lat="45.6463589" lon="13.7783721"><ele>24.8</ele><time>2026-04-08T06:56:28.362Z</time></trkpt><trkpt lat="45.6462541" lon="13.7784128"><ele>26.2</ele><time>2026-04-08T06:56:29.371Z</time></trkpt><trkpt lat="45.646151" lon="13.7784612"><ele>27.6</ele><time>2026-04-08T06:56:30.358Z</time></trkpt><trkpt lat="45.6460665" lon="13.7785171"><ele>29.0</ele><time>2026-04-08T06:56:31.357Z</time></trkpt><trkpt lat="45.6459961" lon="13.77858"><ele>29.166666666666664</ele><time>2026-04-08T06:56:32.367Z</time></trkpt><trkpt lat="45.6459213" lon="13.7786507"><ele>29.333333333333332</ele><time>2026-04-08T06:56:33.363Z</time></trkpt><trkpt lat="45.6458375" lon="13.7787187"><ele>29.5</ele><time>2026-04-08T06:56:34.356Z</time></trkpt><trkpt lat="45.6457608" lon="13.7788007"><ele>29.666666666666664</ele><time>2026-04-08T06:56:35.364Z</time></trkpt><trkpt lat="45.6457114" lon="13.7788734"><ele>29.833333333333332</ele><time>2026-04-08T06:56:36.368Z</time></trkpt><trkpt lat="45.6457054" lon="13.778991"><ele>30.0</ele><time>2026-04-08T06:56:38.36Z</time></trkpt><trkpt lat="45.6456825" lon="13.7790975"><ele>30.0</ele><time>2026-04-08T06:56:40.353Z</time></trkpt><trkpt lat="45.6456181" lon="13.7792378"><ele>30.0</ele><time>2026-04-08T06:56:42.364Z</time></trkpt><trkpt lat="45.6455726" lon="13.7794023"><ele>30.0</ele><time>2026-04-08T06:56:44.37Z</time></trkpt><trkpt lat="45.6455538" lon="13.7795"><ele>30.0</ele><time>2026-04-08T06:56:45.345Z</time></trkpt><trkpt lat="45.6455471" lon="13.7796116"><ele>30.0</ele><time>2026-04-08T06:56:46.359Z</time></trkpt><trkpt lat="45.6455456" lon="13.7797165"><ele>29.333333333333332</ele><time>2026-04-08T06:56:47.361Z</time></trkpt><trkpt lat="45.6455458" lon="13.7799007"><ele>28.666666666666664</ele><time>2026-04-08T06:56:49.346Z</time></trkpt><trkpt lat="45.6455534" lon="13.7800237"><ele>28.0</ele><time>2026-04-08T06:56:50.353Z</time></trkpt><trkpt lat="45.6455487" lon="13.7801396"><ele>27.333333333333332</ele><time>2026-04-08T06:56:51.376Z</time></trkpt><trkpt lat="45.6455426" lon="13.7802507"><ele>26.666666666666664</ele><time>2026-04-08T06:56:52.356Z</time></trkpt><trkpt lat="45.6455323" lon="13.7803564"><ele>26.0</ele><time>2026-04-08T06:56:53.353Z</time></trkpt><trkpt lat="45.6455276" lon="13.780458"><ele>26.4</ele><time>2026-04-08T06:56:54.371Z</time></trkpt><trkpt lat="45.6454874" lon="13.7806184"><ele>26.8</ele><time>2026-04-08T06:56:56.371Z</time></trkpt><trkpt lat="45.6454184" lon="13.7807122"><ele>27.199999999999996</ele><time>2026-04-08T06:56:58.373Z</time></trkpt><trkpt lat="45.645331" lon="13.7807932"><ele>27.599999999999998</ele><time>2026-04-08T06:57:00.372Z</time></trkpt><trkpt lat="45.6452629" lon="13.780885"><ele>28.0</ele><time>2026-04-08T06:57:01.355Z</time></trkpt><trkpt lat="45.645103" lon="13.7810867"><ele>28.0</ele><time>2026-04-08T06:57:03.359Z</time></trkpt><trkpt lat="45.6450145" lon="13.7811923"><ele>28.0</ele><time>2026-04-08T06:57:04.356Z</time></trkpt><trkpt lat="45.6449276" lon="13.7813059"><ele>28.0</ele><time>2026-04-08T06:57:05.349Z</time></trkpt><trkpt lat="45.644843" lon="13.7814217"><ele>28.0</ele><time>2026-04-08T06:57:06.362Z</time></trkpt><trkpt lat="45.6447561" lon="13.7815222"><ele>28.0</ele><time>2026-04-08T06:57:07.351Z</time></trkpt><trkpt lat="45.6446751" lon="13.7816047"><ele>27.999999999999996</ele><time>2026-04-08T06:57:08.351Z</time></trkpt><trkpt lat="45.6445916" lon="13.7816899"><ele>27.999999999999996</ele><time>2026-04-08T06:57:09.349Z</time></trkpt><trkpt lat="45.6445064" lon="13.781765"><ele>28.0</ele><time>2026-04-08T06:57:10.343Z</time></trkpt><trkpt lat="45.6444189" lon="13.7818277"><ele>28.0</ele><time>2026-04-08T06:57:11.342Z</time></trkpt><trkpt lat="45.6443144" lon="13.7818961"><ele>31.75</ele><time>2026-04-08T06:57:12.351Z</time></trkpt><trkpt lat="45.6441971" lon="13.7819775"><ele>35.5</ele><time>2026-04-08T06:57:13.346Z</time></trkpt><trkpt lat="45.644068" lon="13.7820657"><ele>39.25</ele><time>2026-04-08T06:57:14.404Z</time></trkpt><trkpt lat="45.643931" lon="13.7821606"><ele>43.0</ele><time>2026-04-08T06:57:15.375Z</time></trkpt><trkpt lat="45.6437986" lon="13.7822501"><ele>43.0</ele><time>2026-04-08T06:57:16.369Z</time></trkpt><trkpt lat="45.6436779" lon="13.7823491"><ele>43.0</ele><time>2026-04-08T06:57:17.356Z</time></trkpt><trkpt lat="45.643567" lon="13.7824496"><ele>43.0</ele><time>2026-04-08T06:57:18.375Z</time></trkpt><trkpt lat="45.6434637" lon="13.7825583"><ele>43.0</ele><time>2026-04-08T06:57:19.342Z</time></trkpt><trkpt lat="45.643367" lon="13.7826672"><ele>43.0</ele><time>2026-04-08T06:57:20.341Z</time></trkpt><trkpt lat="45.6431428" lon="13.7828606"><ele>43.0</ele><time>2026-04-08T06:57:23.345Z</time></trkpt><trkpt lat="45.6430791" lon="13.7828572"><ele>43.0</ele><time>2026-04-08T06:57:24.351Z</time></trkpt><trkpt lat="45.6430082" lon="13.7828734"><ele>43.0</ele><time>2026-04-08T06:57:25.371Z</time></trkpt><trkpt lat="45.6429439" lon="13.7829029"><ele>43.0</ele><time>2026-04-08T06:57:26.351Z</time></trkpt><trkpt lat="45.6428482" lon="13.7829343"><ele>43.0</ele><time>2026-04-08T06:57:28.344Z</time></trkpt><trkpt lat="45.6427774" lon="13.7829548"><ele>43.0</ele><time>2026-04-08T06:57:30.353Z</time></trkpt><trkpt lat="45.642666" lon="13.783"><ele>43.0</ele><time>2026-04-08T06:57:32.349Z</time></trkpt><trkpt lat="45.642575" lon="13.7830262"><ele>43.0</ele><time>2026-04-08T06:57:33.347Z</time></trkpt><trkpt lat="45.6424619" lon="13.7830613"><ele>45.66666666666667</ele><time>2026-04-08T06:57:34.34Z</time></trkpt><trkpt lat="45.6423473" lon="13.7831503"><ele>48.333333333333336</ele><time>2026-04-08T06:57:35.349Z</time></trkpt><trkpt lat="45.6422282" lon="13.7832981"><ele>51.0</ele><time>2026-04-08T06:57:36.355Z</time></trkpt><trkpt lat="45.6419615" lon="13.7836112"><ele>51.33333333333333</ele><time>2026-04-08T06:57:38.351Z</time></trkpt><trkpt lat="45.6418219" lon="13.7837815"><ele>51.666666666666664</ele><time>2026-04-08T06:57:39.347Z</time></trkpt><trkpt lat="45.641682" lon="13.7839187"><ele>52.0</ele><time>2026-04-08T06:57:40.354Z</time></trkpt><trkpt lat="45.6415353" lon="13.7840318"><ele>52.0</ele><time>2026-04-08T06:57:41.373Z</time></trkpt><trkpt lat="45.6414021" lon="13.7841288"><ele>52.0</ele><time>2026-04-08T06:57:42.355Z</time></trkpt><trkpt lat="45.6412712" lon="13.7842069"><ele>52.0</ele><time>2026-04-08T06:57:43.446Z</time></trkpt><trkpt lat="45.6411338" lon="13.784261"><ele>52.0</ele><time>2026-04-08T06:57:44.401Z</time></trkpt><trkpt lat="45.6409922" lon="13.7843064"><ele>51.25</ele><time>2026-04-08T06:57:45.474Z</time></trkpt><trkpt lat="45.6408488" lon="13.7843426"><ele>50.5</ele><time>2026-04-08T06:57:46.429Z</time></trkpt><trkpt lat="45.6407163" lon="13.7843712"><ele>49.75</ele><time>2026-04-08T06:57:47.424Z</time></trkpt><trkpt lat="45.6405895" lon="13.7843851"><ele>49.0</ele><time>2026-04-08T06:57:48.396Z</time></trkpt><trkpt lat="45.6404662" lon="13.7843891"><ele>49.0</ele><time>2026-04-08T06:57:49.355Z</time></trkpt><trkpt lat="45.6403495" lon="13.7843929"><ele>49.0</ele><time>2026-04-08T06:57:50.371Z</time></trkpt><trkpt lat="45.640257" lon="13.7844031"><ele>49.0</ele><time>2026-04-08T06:57:51.351Z</time></trkpt><trkpt lat="45.6401909" lon="13.7844097"><ele>49.0</ele><time>2026-04-08T06:57:52.368Z</time></trkpt><trkpt lat="45.6400875" lon="13.7844113"><ele>49.0</ele><time>2026-04-08T06:57:54.341Z</time></trkpt><trkpt lat="45.6399999" lon="13.784461"><ele>51.2</ele><time>2026-04-08T06:58:04.357Z</time></trkpt><trkpt lat="45.6399125" lon="13.7845977"><ele>53.400000000000006</ele><time>2026-04-08T06:58:06.347Z</time></trkpt><trkpt lat="45.6398738" lon="13.7846854"><ele>55.6</ele><time>2026-04-08T06:58:07.355Z</time></trkpt><trkpt lat="45.6398421" lon="13.7847679"><ele>57.8</ele><time>2026-04-08T06:58:08.347Z</time></trkpt><trkpt lat="45.6397977" lon="13.7849154"><ele>60.0</ele><time>2026-04-08T06:58:10.358Z</time></trkpt><trkpt lat="45.6397477" lon="13.7850561"><ele>57.6</ele><time>2026-04-08T06:58:12.347Z</time></trkpt><trkpt lat="45.6396441" lon="13.7852774"><ele>55.2</ele><time>2026-04-08T06:58:15.354Z</time></trkpt><trkpt lat="45.639583" lon="13.7853675"><ele>52.8</ele><time>2026-04-08T06:58:16.337Z</time></trkpt><trkpt lat="45.6395206" lon="13.7854579"><ele>50.4</ele><time>2026-04-08T06:58:17.347Z</time></trkpt><trkpt lat="45.6394617" lon="13.7855468"><ele>48.0</ele><time>2026-04-08T06:58:18.356Z</time></trkpt><trkpt lat="45.6394083" lon="13.7856425"><ele>50.0</ele><time>2026-04-08T06:58:19.335Z</time></trkpt><trkpt lat="45.639366" lon="13.7857348"><ele>52.0</ele><time>2026-04-08T06:58:20.343Z</time></trkpt><trkpt lat="45.6393256" lon="13.7858353"><ele>54.0</ele><time>2026-04-08T06:58:21.344Z</time></trkpt><trkpt lat="45.6392786" lon="13.7859454"><ele>56.0</ele><time>2026-04-08T06:58:22.355Z</time></trkpt><trkpt lat="45.6392325" lon="13.7860515"><ele>58.0</ele><time>2026-04-08T06:58:23.345Z</time></trkpt><trkpt lat="45.639184" lon="13.7861559"><ele>60.0</ele><time>2026-04-08T06:58:24.353Z</time></trkpt><trkpt lat="45.6391384" lon="13.7862705"><ele>60.0</ele><time>2026-04-08T06:58:25.354Z</time></trkpt><trkpt lat="45.6390912" lon="13.7864046"><ele>60.0</ele><time>2026-04-08T06:58:26.349Z</time></trkpt><trkpt lat="45.6390341" lon="13.7865495"><ele>60.0</ele><time>2026-04-08T06:58:27.354Z</time></trkpt><trkpt lat="45.6389772" lon="13.7867015"><ele>60.0</ele><time>2026-04-08T06:58:28.361Z</time></trkpt><trkpt lat="45.6389182" lon="13.7868577"><ele>59.25</ele><time>2026-04-08T06:58:29.351Z</time></trkpt><trkpt lat="45.6388514" lon="13.7870132"><ele>58.5</ele><time>2026-04-08T06:58:30.348Z</time></trkpt><trkpt lat="45.6387845" lon="13.7871693"><ele>57.75</ele><time>2026-04-08T06:58:31.343Z</time></trkpt><trkpt lat="45.6387193" lon="13.7873203"><ele>57.0</ele><time>2026-04-08T06:58:32.361Z</time></trkpt><trkpt lat="45.6386611" lon="13.7874558"><ele>59.6</ele><time>2026-04-08T06:58:33.343Z</time></trkpt><trkpt lat="45.6386097" lon="13.7875763"><ele>62.2</ele><time>2026-04-08T06:58:34.35Z</time></trkpt><trkpt lat="45.6385617" lon="13.7876987"><ele>64.8</ele><time>2026-04-08T06:58:35.34Z</time></trkpt><trkpt lat="45.6385262" lon="13.7878164"><ele>67.4</ele><time>2026-04-08T06:58:36.352Z</time></trkpt><trkpt lat="45.6384985" lon="13.7879319"><ele>70.0</ele><time>2026-04-08T06:58:37.342Z</time></trkpt><trkpt lat="45.6384727" lon="13.7880469"><ele>70.0</ele><time>2026-04-08T06:58:38.352Z</time></trkpt><trkpt lat="45.6384455" lon="13.7881742"><ele>70.0</ele><time>2026-04-08T06:58:39.352Z</time></trkpt><trkpt lat="45.6384156" lon="13.7883153"><ele>70.0</ele><time>2026-04-08T06:58:40.349Z</time></trkpt><trkpt lat="45.6383802" lon="13.7884631"><ele>70.0</ele><time>2026-04-08T06:58:41.347Z</time></trkpt><trkpt lat="45.6383468" lon="13.7885959"><ele>70.0</ele><time>2026-04-08T06:58:42.336Z</time></trkpt><trkpt lat="45.6383219" lon="13.7886996"><ele>68.6</ele><time>2026-04-08T06:58:43.341Z</time></trkpt><trkpt lat="45.638289" lon="13.7888242"><ele>67.2</ele><time>2026-04-08T06:58:45.339Z</time></trkpt><trkpt lat="45.6382623" lon="13.7889837"><ele>65.8</ele><time>2026-04-08T06:58:47.36Z</time></trkpt><trkpt lat="45.6382011" lon="13.7890862"><ele>64.4</ele><time>2026-04-08T06:58:49.343Z</time></trkpt><trkpt lat="45.6381308" lon="13.7890614"><ele>63.0</ele><time>2026-04-08T06:58:50.34Z</time></trkpt><trkpt lat="45.6380451" lon="13.7890122"><ele>63.0</ele><time>2026-04-08T06:58:51.343Z</time></trkpt><trkpt lat="45.6379335" lon="13.7889578"><ele>63.0</ele><time>2026-04-08T06:58:52.337Z</time></trkpt><trkpt lat="45.6378135" lon="13.7888952"><ele>63.0</ele><time>2026-04-08T06:58:53.338Z</time></trkpt><trkpt lat="45.6376942" lon="13.7888223"><ele>63.0</ele><time>2026-04-08T06:58:54.333Z</time></trkpt><trkpt lat="45.637572" lon="13.7887455"><ele>66.6</ele><time>2026-04-08T06:58:55.352Z</time></trkpt><trkpt lat="45.63745" lon="13.7886834"><ele>70.19999999999999</ele><time>2026-04-08T06:58:56.336Z</time></trkpt><trkpt lat="45.6373402" lon="13.7886362"><ele>73.8</ele><time>2026-04-08T06:58:57.335Z</time></trkpt><trkpt lat="45.6372427" lon="13.7885847"><ele>77.39999999999999</ele><time>2026-04-08T06:58:58.328Z</time></trkpt><trkpt lat="45.6371596" lon="13.7885491"><ele>81.0</ele><time>2026-04-08T06:58:59.365Z</time></trkpt><trkpt lat="45.6370902" lon="13.7885201"><ele>81.19999999999999</ele><time>2026-04-08T06:59:00.345Z</time></trkpt><trkpt lat="45.6370205" lon="13.7885052"><ele>81.39999999999999</ele><time>2026-04-08T06:59:02.348Z</time></trkpt><trkpt lat="45.6369445" lon="13.7886087"><ele>81.6</ele><time>2026-04-08T06:59:26.359Z</time></trkpt><trkpt lat="45.6368715" lon="13.7887594"><ele>81.8</ele><time>2026-04-08T06:59:28.353Z</time></trkpt><trkpt lat="45.6368463" lon="13.7888646"><ele>82.0</ele><time>2026-04-08T06:59:29.342Z</time></trkpt><trkpt lat="45.6368339" lon="13.788978"><ele>83.5</ele><time>2026-04-08T06:59:30.331Z</time></trkpt><trkpt lat="45.6368288" lon="13.7891206"><ele>85.0</ele><time>2026-04-08T06:59:31.332Z</time></trkpt><trkpt lat="45.6368231" lon="13.7892778"><ele>86.5</ele><time>2026-04-08T06:59:32.33Z</time></trkpt><trkpt lat="45.63681" lon="13.789438"><ele>88.0</ele><time>2026-04-08T06:59:33.354Z</time></trkpt><trkpt lat="45.6367988" lon="13.7896214"><ele>88.0</ele><time>2026-04-08T06:59:34.327Z</time></trkpt><trkpt lat="45.6367933" lon="13.7898065"><ele>88.0</ele><time>2026-04-08T06:59:35.346Z</time></trkpt><trkpt lat="45.6367908" lon="13.7899911"><ele>88.0</ele><time>2026-04-08T06:59:36.342Z</time></trkpt><trkpt lat="45.6367894" lon="13.7901725"><ele>88.0</ele><time>2026-04-08T06:59:37.346Z</time></trkpt><trkpt lat="45.6367832" lon="13.7903377"><ele>88.4</ele><time>2026-04-08T06:59:38.337Z</time></trkpt><trkpt lat="45.6367754" lon="13.7904925"><ele>88.80000000000001</ele><time>2026-04-08T06:59:39.327Z</time></trkpt><trkpt lat="45.6367687" lon="13.7906476"><ele>89.2</ele><time>2026-04-08T06:59:40.329Z</time></trkpt><trkpt lat="45.636756" lon="13.7907921"><ele>89.6</ele><time>2026-04-08T06:59:41.323Z</time></trkpt><trkpt lat="45.6367477" lon="13.7909406"><ele>90.0</ele><time>2026-04-08T06:59:42.343Z</time></trkpt><trkpt lat="45.6367351" lon="13.7910825"><ele>90.2</ele><time>2026-04-08T06:59:43.35Z</time></trkpt><trkpt lat="45.6367264" lon="13.7912204"><ele>90.4</ele><time>2026-04-08T06:59:44.345Z</time></trkpt><trkpt lat="45.6367239" lon="13.7913625"><ele>90.6</ele><time>2026-04-08T06:59:45.335Z</time></trkpt><trkpt lat="45.636728" lon="13.7915137"><ele>90.8</ele><time>2026-04-08T06:59:46.323Z</time></trkpt><trkpt lat="45.6367428" lon="13.7916889"><ele>91.0</ele><time>2026-04-08T06:59:47.337Z</time></trkpt><trkpt lat="45.6367495" lon="13.7918759"><ele>92.5</ele><time>2026-04-08T06:59:48.362Z</time></trkpt><trkpt lat="45.6367787" lon="13.7920814"><ele>94.0</ele><time>2026-04-08T06:59:49.338Z</time></trkpt><trkpt lat="45.6368081" lon="13.7922827"><ele>95.5</ele><time>2026-04-08T06:59:50.333Z</time></trkpt><trkpt lat="45.6368314" lon="13.7924777"><ele>97.0</ele><time>2026-04-08T06:59:51.336Z</time></trkpt><trkpt lat="45.6368481" lon="13.7926392"><ele>97.83333333333334</ele><time>2026-04-08T06:59:52.339Z</time></trkpt><trkpt lat="45.6368563" lon="13.7927533"><ele>98.66666666666667</ele><time>2026-04-08T06:59:53.343Z</time></trkpt><trkpt lat="45.6368599" lon="13.7928975"><ele>99.5</ele><time>2026-04-08T06:59:55.342Z</time></trkpt><trkpt lat="45.6368821" lon="13.7930266"><ele>100.33333333333334</ele><time>2026-04-08T07:00:50.319Z</time></trkpt><trkpt lat="45.6368936" lon="13.793125"><ele>101.16666666666667</ele><time>2026-04-08T07:00:51.324Z</time></trkpt><trkpt lat="45.6368953" lon="13.7932723"><ele>102.0</ele><time>2026-04-08T07:00:52.324Z</time></trkpt><trkpt lat="45.6368877" lon="13.7934505"><ele>101.75</ele><time>2026-04-08T07:00:53.347Z</time></trkpt><trkpt lat="45.6368925" lon="13.7936493"><ele>101.5</ele><time>2026-04-08T07:00:54.336Z</time></trkpt><trkpt lat="45.6369005" lon="13.7938564"><ele>101.25</ele><time>2026-04-08T07:00:55.362Z</time></trkpt><trkpt lat="45.6369095" lon="13.7940319"><ele>101.0</ele><time>2026-04-08T07:00:56.318Z</time></trkpt><trkpt lat="45.6369176" lon="13.7941792"><ele>101.0</ele><time>2026-04-08T07:00:57.339Z</time></trkpt><trkpt lat="45.636923" lon="13.7943179"><ele>101.0</ele><time>2026-04-08T07:00:58.327Z</time></trkpt><trkpt lat="45.6369355" lon="13.7944664"><ele>101.0</ele><time>2026-04-08T07:00:59.322Z</time></trkpt><trkpt lat="45.6369529" lon="13.7946559"><ele>101.0</ele><time>2026-04-08T07:01:00.332Z</time></trkpt><trkpt lat="45.6369629" lon="13.7948723"><ele>100.66666666666666</ele><time>2026-04-08T07:01:01.32Z</time></trkpt><trkpt lat="45.6369667" lon="13.7951031"><ele>100.33333333333334</ele><time>2026-04-08T07:01:02.32Z</time></trkpt><trkpt lat="45.6369681" lon="13.7953367"><ele>100.0</ele><time>2026-04-08T07:01:03.331Z</time></trkpt><trkpt lat="45.6369663" lon="13.7955568"><ele>98.5</ele><time>2026-04-08T07:01:04.327Z</time></trkpt><trkpt lat="45.6369735" lon="13.7957695"><ele>97.0</ele><time>2026-04-08T07:01:05.32Z</time></trkpt><trkpt lat="45.6369848" lon="13.7959699"><ele>95.5</ele><time>2026-04-08T07:01:06.323Z</time></trkpt><trkpt lat="45.6369951" lon="13.7961673"><ele>94.0</ele><time>2026-04-08T07:01:07.326Z</time></trkpt><trkpt lat="45.637006" lon="13.7963658"><ele>94.0</ele><time>2026-04-08T07:01:08.318Z</time></trkpt><trkpt lat="45.6370162" lon="13.7965687"><ele>94.0</ele><time>2026-04-08T07:01:09.314Z</time></trkpt><trkpt lat="45.6370322" lon="13.7967741"><ele>94.0</ele><time>2026-04-08T07:01:10.319Z</time></trkpt><trkpt lat="45.6370425" lon="13.7969843"><ele>94.0</ele><time>2026-04-08T07:01:11.36Z</time></trkpt><trkpt lat="45.6370595" lon="13.7971994"><ele>95.66666666666666</ele><time>2026-04-08T07:01:12.328Z</time></trkpt><trkpt lat="45.6370884" lon="13.7976325"><ele>97.33333333333333</ele><time>2026-04-08T07:01:14.316Z</time></trkpt><trkpt lat="45.6371036" lon="13.7978263"><ele>99.0</ele><time>2026-04-08T07:01:15.344Z</time></trkpt><trkpt lat="45.6371149" lon="13.7979886"><ele>99.0</ele><time>2026-04-08T07:01:16.317Z</time></trkpt><trkpt lat="45.6371251" lon="13.7981296"><ele>99.0</ele><time>2026-04-08T07:01:17.319Z</time></trkpt><trkpt lat="45.6371451" lon="13.7983981"><ele>99.0</ele><time>2026-04-08T07:01:19.342Z</time></trkpt><trkpt lat="45.6371507" lon="13.7985271"><ele>99.0</ele><time>2026-04-08T07:01:20.316Z</time></trkpt><trkpt lat="45.6371568" lon="13.7986568"><ele>99.0</ele><time>2026-04-08T07:01:21.32Z</time></trkpt><trkpt lat="45.6371615" lon="13.7987812"><ele>99.0</ele><time>2026-04-08T07:01:22.319Z</time></trkpt><trkpt lat="45.6371706" lon="13.7989159"><ele>99.0</ele><time>2026-04-08T07:01:23.322Z</time></trkpt><trkpt lat="45.6371827" lon="13.7990761"><ele>99.0</ele><time>2026-04-08T07:01:24.312Z</time></trkpt><trkpt lat="45.6372059" lon="13.7992541"><ele>99.0</ele><time>2026-04-08T07:01:25.32Z</time></trkpt><trkpt lat="45.6372313" lon="13.7994393"><ele>100.0</ele><time>2026-04-08T07:01:26.311Z</time></trkpt><trkpt lat="45.6372571" lon="13.7996406"><ele>101.0</ele><time>2026-04-08T07:01:27.329Z</time></trkpt><trkpt lat="45.6372826" lon="13.7998478"><ele>102.0</ele><time>2026-04-08T07:01:28.332Z</time></trkpt><trkpt lat="45.6373128" lon="13.8000582"><ele>103.0</ele><time>2026-04-08T07:01:29.324Z</time></trkpt><trkpt lat="45.6373411" lon="13.8002667"><ele>105.0</ele><time>2026-04-08T07:01:30.335Z</time></trkpt><trkpt lat="45.6373719" lon="13.8004743"><ele>107.0</ele><time>2026-04-08T07:01:31.357Z</time></trkpt><trkpt lat="45.6373983" lon="13.8006774"><ele>109.0</ele><time>2026-04-08T07:01:32.308Z</time></trkpt><trkpt lat="45.6374195" lon="13.8008774"><ele>111.0</ele><time>2026-04-08T07:01:33.317Z</time></trkpt><trkpt lat="45.6374374" lon="13.8010716"><ele>111.0</ele><time>2026-04-08T07:01:34.309Z</time></trkpt><trkpt lat="45.6374514" lon="13.8012498"><ele>111.0</ele><time>2026-04-08T07:01:35.346Z</time></trkpt><trkpt lat="45.6374704" lon="13.8014092"><ele>111.0</ele><time>2026-04-08T07:01:36.309Z</time></trkpt><trkpt lat="45.6374942" lon="13.8015584"><ele>111.0</ele><time>2026-04-08T07:01:37.309Z</time></trkpt><trkpt lat="45.6375271" lon="13.8018531"><ele>112.25</ele><time>2026-04-08T07:01:39.306Z</time></trkpt><trkpt lat="45.6375424" lon="13.802021"><ele>113.5</ele><time>2026-04-08T07:01:40.319Z</time></trkpt><trkpt lat="45.6375646" lon="13.8022061"><ele>114.75</ele><time>2026-04-08T07:01:41.315Z</time></trkpt><trkpt lat="45.6375939" lon="13.8023981"><ele>116.0</ele><time>2026-04-08T07:01:42.309Z</time></trkpt><trkpt lat="45.6376286" lon="13.8025874"><ele>117.25</ele><time>2026-04-08T07:01:43.31Z</time></trkpt><trkpt lat="45.6376674" lon="13.8027797"><ele>118.5</ele><time>2026-04-08T07:01:44.313Z</time></trkpt><trkpt lat="45.6377101" lon="13.8029727"><ele>119.75</ele><time>2026-04-08T07:01:45.317Z</time></trkpt><trkpt lat="45.6377596" lon="13.8031697"><ele>121.0</ele><time>2026-04-08T07:01:46.311Z</time></trkpt><trkpt lat="45.6378135" lon="13.8033637"><ele>120.25</ele><time>2026-04-08T07:01:47.317Z</time></trkpt><trkpt lat="45.6378634" lon="13.8035532"><ele>119.5</ele><time>2026-04-08T07:01:48.305Z</time></trkpt><trkpt lat="45.6379094" lon="13.8037429"><ele>118.75</ele><time>2026-04-08T07:01:49.326Z</time></trkpt><trkpt lat="45.6379522" lon="13.8039313"><ele>118.0</ele><time>2026-04-08T07:01:50.303Z</time></trkpt><trkpt lat="45.6379969" lon="13.8041265"><ele>118.0</ele><time>2026-04-08T07:01:51.352Z</time></trkpt><trkpt lat="45.6380369" lon="13.804327"><ele>118.0</ele><time>2026-04-08T07:01:52.307Z</time></trkpt><trkpt lat="45.6380694" lon="13.804518"><ele>118.0</ele><time>2026-04-08T07:01:53.311Z</time></trkpt><trkpt lat="45.6381005" lon="13.8047077"><ele>118.0</ele><time>2026-04-08T07:01:54.308Z</time></trkpt><trkpt lat="45.6381258" lon="13.8048987"><ele>119.5</ele><time>2026-04-08T07:01:55.315Z</time></trkpt><trkpt lat="45.638149" lon="13.8050759"><ele>121.0</ele><time>2026-04-08T07:01:56.32Z</time></trkpt><trkpt lat="45.6381612" lon="13.8052504"><ele>122.5</ele><time>2026-04-08T07:01:57.314Z</time></trkpt><trkpt lat="45.6381703" lon="13.8054349"><ele>124.0</ele><time>2026-04-08T07:01:58.311Z</time></trkpt><trkpt lat="45.6381739" lon="13.8056324"><ele>124.66666666666667</ele><time>2026-04-08T07:01:59.302Z</time></trkpt><trkpt lat="45.6381901" lon="13.8058458"><ele>125.33333333333334</ele><time>2026-04-08T07:02:00.33Z</time></trkpt><trkpt lat="45.6382139" lon="13.8060699"><ele>126.0</ele><time>2026-04-08T07:02:01.311Z</time></trkpt><trkpt lat="45.6382423" lon="13.8063039"><ele>128.66666666666666</ele><time>2026-04-08T07:02:02.322Z</time></trkpt><trkpt lat="45.6382643" lon="13.8065326"><ele>131.33333333333331</ele><time>2026-04-08T07:02:03.328Z</time></trkpt><trkpt lat="45.6382738" lon="13.8067777"><ele>134.0</ele><time>2026-04-08T07:02:04.306Z</time></trkpt><trkpt lat="45.6382731" lon="13.8070274"><ele>136.66666666666666</ele><time>2026-04-08T07:02:05.303Z</time></trkpt><trkpt lat="45.6382596" lon="13.8072813"><ele>139.33333333333334</ele><time>2026-04-08T07:02:06.31Z</time></trkpt><trkpt lat="45.6382403" lon="13.8075408"><ele>142.0</ele><time>2026-04-08T07:02:07.312Z</time></trkpt><trkpt lat="45.6382275" lon="13.8078059"><ele>144.33333333333334</ele><time>2026-04-08T07:02:08.304Z</time></trkpt><trkpt lat="45.6382258" lon="13.8080693"><ele>146.66666666666666</ele><time>2026-04-08T07:02:09.311Z</time></trkpt><trkpt lat="45.6382439" lon="13.8083252"><ele>149.0</ele><time>2026-04-08T07:02:10.306Z</time></trkpt><trkpt lat="45.6382869" lon="13.8085498"><ele>151.0</ele><time>2026-04-08T07:02:11.306Z</time></trkpt><trkpt lat="45.6383244" lon="13.8087552"><ele>153.0</ele><time>2026-04-08T07:02:12.307Z</time></trkpt><trkpt lat="45.6383432" lon="13.8089562"><ele>155.0</ele><time>2026-04-08T07:02:13.327Z</time></trkpt><trkpt lat="45.6383461" lon="13.8091796"><ele>157.0</ele><time>2026-04-08T07:02:14.305Z</time></trkpt><trkpt lat="45.6383471" lon="13.8094099"><ele>158.75</ele><time>2026-04-08T07:02:15.328Z</time></trkpt><trkpt lat="45.6383476" lon="13.8096438"><ele>160.5</ele><time>2026-04-08T07:02:16.316Z</time></trkpt><trkpt lat="45.6383487" lon="13.809859"><ele>162.25</ele><time>2026-04-08T07:02:17.319Z</time></trkpt><trkpt lat="45.638339" lon="13.8100496"><ele>164.0</ele><time>2026-04-08T07:02:18.307Z</time></trkpt><trkpt lat="45.6383347" lon="13.810211"><ele>165.2</ele><time>2026-04-08T07:02:19.312Z</time></trkpt><trkpt lat="45.6383232" lon="13.8103418"><ele>166.39999999999998</ele><time>2026-04-08T07:02:20.303Z</time></trkpt><trkpt lat="45.6383093" lon="13.8104877"><ele>167.6</ele><time>2026-04-08T07:02:22.308Z</time></trkpt><trkpt lat="45.6383528" lon="13.810569"><ele>168.8</ele><time>2026-04-08T07:03:47.298Z</time></trkpt><trkpt lat="45.6383577" lon="13.8107479"><ele>170.0</ele><time>2026-04-08T07:03:49.288Z</time></trkpt><trkpt lat="45.6383457" lon="13.8108969"><ele>170.4</ele><time>2026-04-08T07:03:50.281Z</time></trkpt><trkpt lat="45.6383462" lon="13.8110675"><ele>170.8</ele><time>2026-04-08T07:03:51.306Z</time></trkpt><trkpt lat="45.6383656" lon="13.811239"><ele>171.2</ele><time>2026-04-08T07:03:52.291Z</time></trkpt><trkpt lat="45.6383873" lon="13.8113993"><ele>171.6</ele><time>2026-04-08T07:03:53.285Z</time></trkpt><trkpt lat="45.6383989" lon="13.8115086"><ele>172.0</ele><time>2026-04-08T07:03:54.29Z</time></trkpt><trkpt lat="45.6383771" lon="13.8116612"><ele>172.0</ele><time>2026-04-08T07:03:56.288Z</time></trkpt><trkpt lat="45.6383417" lon="13.8117466"><ele>172.0</ele><time>2026-04-08T07:03:58.285Z</time></trkpt><trkpt lat="45.6382857" lon="13.8119017"><ele>172.0</ele><time>2026-04-08T07:04:02.293Z</time></trkpt><trkpt lat="45.6382443" lon="13.8120341"><ele>172.0</ele><time>2026-04-08T07:04:03.287Z</time></trkpt><trkpt lat="45.6382246" lon="13.8122097"><ele>172.0</ele><time>2026-04-08T07:04:04.287Z</time></trkpt><trkpt lat="45.6382157" lon="13.8124487"><ele>175.0</ele><time>2026-04-08T07:04:05.28Z</time></trkpt><trkpt lat="45.6381911" lon="13.813026"><ele>178.0</ele><time>2026-04-08T07:04:07.3Z</time></trkpt><trkpt lat="45.6381791" lon="13.8133368"><ele>177.5</ele><time>2026-04-08T07:04:08.284Z</time></trkpt><trkpt lat="45.6381436" lon="13.813975"><ele>177.0</ele><time>2026-04-08T07:04:10.301Z</time></trkpt><trkpt lat="45.6381285" lon="13.8142991"><ele>178.5</ele><time>2026-04-08T07:04:11.362Z</time></trkpt><trkpt lat="45.6381111" lon="13.8146255"><ele>180.0</ele><time>2026-04-08T07:04:12.37Z</time></trkpt><trkpt lat="45.6380887" lon="13.8149474"><ele>180.33333333333334</ele><time>2026-04-08T07:04:13.314Z</time></trkpt><trkpt lat="45.6380756" lon="13.815256"><ele>180.66666666666669</ele><time>2026-04-08T07:04:14.311Z</time></trkpt><trkpt lat="45.6380588" lon="13.8155541"><ele>181.0</ele><time>2026-04-08T07:04:15.285Z</time></trkpt><trkpt lat="45.6380465" lon="13.8158446"><ele>181.33333333333334</ele><time>2026-04-08T07:04:16.285Z</time></trkpt><trkpt lat="45.63803" lon="13.8161312"><ele>181.66666666666666</ele><time>2026-04-08T07:04:17.294Z</time></trkpt><trkpt lat="45.6380154" lon="13.8164045"><ele>182.0</ele><time>2026-04-08T07:04:18.288Z</time></trkpt><trkpt lat="45.638004" lon="13.8166681"><ele>182.66666666666666</ele><time>2026-04-08T07:04:19.281Z</time></trkpt><trkpt lat="45.6379909" lon="13.8169229"><ele>183.33333333333334</ele><time>2026-04-08T07:04:20.3Z</time></trkpt><trkpt lat="45.6379707" lon="13.8171787"><ele>184.0</ele><time>2026-04-08T07:04:21.294Z</time></trkpt><trkpt lat="45.6379497" lon="13.817438"><ele>184.33333333333334</ele><time>2026-04-08T07:04:22.282Z</time></trkpt><trkpt lat="45.6379148" lon="13.817697"><ele>184.66666666666666</ele><time>2026-04-08T07:04:23.287Z</time></trkpt><trkpt lat="45.6378734" lon="13.8179568"><ele>185.0</ele><time>2026-04-08T07:04:24.277Z</time></trkpt><trkpt lat="45.6378245" lon="13.8182218"><ele>190.33333333333331</ele><time>2026-04-08T07:04:25.292Z</time></trkpt><trkpt lat="45.6377727" lon="13.8184813"><ele>195.66666666666666</ele><time>2026-04-08T07:04:26.292Z</time></trkpt><trkpt lat="45.6377243" lon="13.8187355"><ele>201.0</ele><time>2026-04-08T07:04:27.28Z</time></trkpt><trkpt lat="45.6376783" lon="13.818986"><ele>201.0</ele><time>2026-04-08T07:04:28.303Z</time></trkpt><trkpt lat="45.6376323" lon="13.8192301"><ele>201.0</ele><time>2026-04-08T07:04:29.288Z</time></trkpt><trkpt lat="45.6375892" lon="13.8194719"><ele>201.0</ele><time>2026-04-08T07:04:30.298Z</time></trkpt><trkpt lat="45.6375506" lon="13.819715"><ele>201.33333333333331</ele><time>2026-04-08T07:04:31.293Z</time></trkpt><trkpt lat="45.6375059" lon="13.8199473"><ele>201.66666666666666</ele><time>2026-04-08T07:04:32.286Z</time></trkpt><trkpt lat="45.637457" lon="13.8201759"><ele>202.0</ele><time>2026-04-08T07:04:33.282Z</time></trkpt><trkpt lat="45.6374101" lon="13.8203943"><ele>203.0</ele><time>2026-04-08T07:04:34.278Z</time></trkpt><trkpt lat="45.6373648" lon="13.8206182"><ele>204.0</ele><time>2026-04-08T07:04:35.29Z</time></trkpt><trkpt lat="45.6373127" lon="13.8208377"><ele>205.0</ele><time>2026-04-08T07:04:36.28Z</time></trkpt><trkpt lat="45.6372582" lon="13.8210533"><ele>205.0</ele><time>2026-04-08T07:04:37.283Z</time></trkpt><trkpt lat="45.6372015" lon="13.8212682"><ele>205.0</ele><time>2026-04-08T07:04:38.28Z</time></trkpt><trkpt lat="45.6371487" lon="13.8214803"><ele>205.0</ele><time>2026-04-08T07:04:39.289Z</time></trkpt><trkpt lat="45.6370963" lon="13.8216965"><ele>203.66666666666666</ele><time>2026-04-08T07:04:40.281Z</time></trkpt><trkpt lat="45.637044" lon="13.8219127"><ele>202.33333333333331</ele><time>2026-04-08T07:04:41.289Z</time></trkpt><trkpt lat="45.6369849" lon="13.82214"><ele>201.0</ele><time>2026-04-08T07:04:42.281Z</time></trkpt><trkpt lat="45.6369277" lon="13.8223787"><ele>206.66666666666669</ele><time>2026-04-08T07:04:43.303Z</time></trkpt><trkpt lat="45.636875" lon="13.8226323"><ele>212.33333333333334</ele><time>2026-04-08T07:04:44.287Z</time></trkpt><trkpt lat="45.6368179" lon="13.8228937"><ele>218.0</ele><time>2026-04-08T07:04:45.282Z</time></trkpt><trkpt lat="45.6367737" lon="13.8231495"><ele>217.0</ele><time>2026-04-08T07:04:46.283Z</time></trkpt><trkpt lat="45.6366904" lon="13.8236325"><ele>216.0</ele><time>2026-04-08T07:04:48.275Z</time></trkpt><trkpt lat="45.6366479" lon="13.8238823"><ele>216.0</ele><time>2026-04-08T07:04:49.281Z</time></trkpt><trkpt lat="45.6366064" lon="13.8241281"><ele>216.0</ele><time>2026-04-08T07:04:50.282Z</time></trkpt><trkpt lat="45.6365641" lon="13.8243655"><ele>216.0</ele><time>2026-04-08T07:04:51.281Z</time></trkpt><trkpt lat="45.636512" lon="13.8245993"><ele>216.0</ele><time>2026-04-08T07:04:52.279Z</time></trkpt><trkpt lat="45.636454" lon="13.8248424"><ele>216.0</ele><time>2026-04-08T07:04:53.293Z</time></trkpt><trkpt lat="45.6363973" lon="13.8251023"><ele>216.0</ele><time>2026-04-08T07:04:54.283Z</time></trkpt><trkpt lat="45.6363367" lon="13.8253588"><ele>216.0</ele><time>2026-04-08T07:04:55.279Z</time></trkpt><trkpt lat="45.6362747" lon="13.8256258"><ele>216.0</ele><time>2026-04-08T07:04:56.285Z</time></trkpt><trkpt lat="45.6362078" lon="13.8258982"><ele>216.0</ele><time>2026-04-08T07:04:57.28Z</time></trkpt><trkpt lat="45.6361473" lon="13.8261645"><ele>222.33333333333331</ele><time>2026-04-08T07:04:58.279Z</time></trkpt><trkpt lat="45.636084" lon="13.8264349"><ele>228.66666666666666</ele><time>2026-04-08T07:04:59.276Z</time></trkpt><trkpt lat="45.6360251" lon="13.8267156"><ele>235.0</ele><time>2026-04-08T07:05:00.277Z</time></trkpt><trkpt lat="45.635956" lon="13.8269833"><ele>235.33333333333331</ele><time>2026-04-08T07:05:01.302Z</time></trkpt><trkpt lat="45.6358979" lon="13.8272471"><ele>235.66666666666669</ele><time>2026-04-08T07:05:02.286Z</time></trkpt><trkpt lat="45.6358377" lon="13.8274957"><ele>236.0</ele><time>2026-04-08T07:05:03.292Z</time></trkpt><trkpt lat="45.6357693" lon="13.8277345"><ele>237.0</ele><time>2026-04-08T07:05:04.28Z</time></trkpt><trkpt lat="45.6357032" lon="13.8279843"><ele>238.0</ele><time>2026-04-08T07:05:05.281Z</time></trkpt><trkpt lat="45.6356476" lon="13.8282334"><ele>239.0</ele><time>2026-04-08T07:05:06.275Z</time></trkpt><trkpt lat="45.6355857" lon="13.8284815"><ele>240.0</ele><time>2026-04-08T07:05:07.28Z</time></trkpt><trkpt lat="45.6355279" lon="13.8287275"><ele>241.0</ele><time>2026-04-08T07:05:08.273Z</time></trkpt><trkpt lat="45.6354655" lon="13.8289824"><ele>242.0</ele><time>2026-04-08T07:05:09.28Z</time></trkpt><trkpt lat="45.6354058" lon="13.8292265"><ele>243.0</ele><time>2026-04-08T07:05:10.276Z</time></trkpt><trkpt lat="45.6353497" lon="13.8294626"><ele>244.0</ele><time>2026-04-08T07:05:11.279Z</time></trkpt><trkpt lat="45.6353026" lon="13.8296851"><ele>245.0</ele><time>2026-04-08T07:05:12.281Z</time></trkpt><trkpt lat="45.635253" lon="13.8298958"><ele>245.75</ele><time>2026-04-08T07:05:13.273Z</time></trkpt><trkpt lat="45.6352016" lon="13.8301103"><ele>246.5</ele><time>2026-04-08T07:05:14.283Z</time></trkpt><trkpt lat="45.6351605" lon="13.8303084"><ele>247.25</ele><time>2026-04-08T07:05:15.271Z</time></trkpt><trkpt lat="45.6351162" lon="13.8305078"><ele>248.0</ele><time>2026-04-08T07:05:16.283Z</time></trkpt><trkpt lat="45.635065" lon="13.8307108"><ele>248.0</ele><time>2026-04-08T07:05:17.272Z</time></trkpt><trkpt lat="45.6350093" lon="13.8309004"><ele>248.0</ele><time>2026-04-08T07:05:18.275Z</time></trkpt><trkpt lat="45.6348699" lon="13.8315605"><ele>249.0</ele><time>2026-04-08T07:05:22.293Z</time></trkpt><trkpt lat="45.6348233" lon="13.8317393"><ele>250.0</ele><time>2026-04-08T07:05:23.273Z</time></trkpt><trkpt lat="45.6347726" lon="13.8319234"><ele>251.0</ele><time>2026-04-08T07:05:24.297Z</time></trkpt><trkpt lat="45.6347023" lon="13.8321008"><ele>252.0</ele><time>2026-04-08T07:05:25.293Z</time></trkpt><trkpt lat="45.6346213" lon="13.8323172"><ele>254.33333333333331</ele><time>2026-04-08T07:05:26.306Z</time></trkpt><trkpt lat="45.6345488" lon="13.8325574"><ele>256.66666666666663</ele><time>2026-04-08T07:05:27.268Z</time></trkpt><trkpt lat="45.6344715" lon="13.8328087"><ele>259.0</ele><time>2026-04-08T07:05:28.288Z</time></trkpt><trkpt lat="45.6344055" lon="13.8330622"><ele>257.25</ele><time>2026-04-08T07:05:29.279Z</time></trkpt><trkpt lat="45.6343586" lon="13.8332865"><ele>255.5</ele><time>2026-04-08T07:05:30.274Z</time></trkpt><trkpt lat="45.6343091" lon="13.833487"><ele>253.75</ele><time>2026-04-08T07:05:31.283Z</time></trkpt><trkpt lat="45.6342742" lon="13.8336672"><ele>252.0</ele><time>2026-04-08T07:05:32.284Z</time></trkpt><trkpt lat="45.6342344" lon="13.8338171"><ele>252.0</ele><time>2026-04-08T07:05:33.271Z</time></trkpt><trkpt lat="45.6341914" lon="13.833959"><ele>252.0</ele><time>2026-04-08T07:05:34.271Z</time></trkpt><trkpt lat="45.6341551" lon="13.8340994"><ele>252.0</ele><time>2026-04-08T07:05:35.281Z</time></trkpt><trkpt lat="45.6341211" lon="13.8342381"><ele>252.0</ele><time>2026-04-08T07:05:36.288Z</time></trkpt><trkpt lat="45.6340841" lon="13.8343835"><ele>252.0</ele><time>2026-04-08T07:05:37.271Z</time></trkpt><trkpt lat="45.6340421" lon="13.8345294"><ele>252.5</ele><time>2026-04-08T07:05:38.283Z</time></trkpt><trkpt lat="45.6340055" lon="13.8346971"><ele>253.0</ele><time>2026-04-08T07:05:39.279Z</time></trkpt><trkpt lat="45.6339592" lon="13.8348846"><ele>253.5</ele><time>2026-04-08T07:05:40.277Z</time></trkpt><trkpt lat="45.6339062" lon="13.8350787"><ele>254.0</ele><time>2026-04-08T07:05:41.277Z</time></trkpt><trkpt lat="45.6338573" lon="13.8352488"><ele>254.0</ele><time>2026-04-08T07:05:42.276Z</time></trkpt><trkpt lat="45.633815" lon="13.8353802"><ele>253.99999999999997</ele><time>2026-04-08T07:05:43.293Z</time></trkpt><trkpt lat="45.6337628" lon="13.8355089"><ele>253.99999999999997</ele><time>2026-04-08T07:05:44.278Z</time></trkpt><trkpt lat="45.6337322" lon="13.8356344"><ele>254.0</ele><time>2026-04-08T07:05:45.275Z</time></trkpt><trkpt lat="45.6337068" lon="13.8357657"><ele>254.0</ele><time>2026-04-08T07:05:46.273Z</time></trkpt><trkpt lat="45.6336894" lon="13.8359144"><ele>253.79999999999998</ele><time>2026-04-08T07:05:47.291Z</time></trkpt><trkpt lat="45.6336716" lon="13.836072"><ele>253.59999999999997</ele><time>2026-04-08T07:05:48.279Z</time></trkpt><trkpt lat="45.6336625" lon="13.8362301"><ele>253.4</ele><time>2026-04-08T07:05:49.285Z</time></trkpt><trkpt lat="45.6336691" lon="13.8363797"><ele>253.2</ele><time>2026-04-08T07:05:50.273Z</time></trkpt><trkpt lat="45.633681" lon="13.8365396"><ele>253.0</ele><time>2026-04-08T07:05:51.268Z</time></trkpt><trkpt lat="45.6336987" lon="13.8367003"><ele>257.0</ele><time>2026-04-08T07:05:52.283Z</time></trkpt><trkpt lat="45.6340546" lon="13.837244"><ele>257.0</ele><time>2026-04-08T07:05:57.267Z</time></trkpt><trkpt lat="45.6340434" lon="13.8373895"><ele>257.0</ele><time>2026-04-08T07:05:58.269Z</time></trkpt><trkpt lat="45.6341045" lon="13.8374933"><ele>257.0</ele><time>2026-04-08T07:05:59.29Z</time></trkpt><trkpt lat="45.634204" lon="13.8375485"><ele>257.0</ele><time>2026-04-08T07:06:00.278Z</time></trkpt><trkpt lat="45.6343009" lon="13.8376114"><ele>257.0</ele><time>2026-04-08T07:06:01.266Z</time></trkpt><trkpt lat="45.6343952" lon="13.8376674"><ele>264.0</ele><time>2026-04-08T07:06:02.274Z</time></trkpt><trkpt lat="45.6344995" lon="13.8377053"><ele>271.0</ele><time>2026-04-08T07:06:03.281Z</time></trkpt><trkpt lat="45.6346109" lon="13.837731"><ele>278.0</ele><time>2026-04-08T07:06:04.274Z</time></trkpt><trkpt lat="45.6347219" lon="13.8377353"><ele>285.0</ele><time>2026-04-08T07:06:05.274Z</time></trkpt><trkpt lat="45.6348347" lon="13.8377176"><ele>292.0</ele><time>2026-04-08T07:06:06.277Z</time></trkpt><trkpt lat="45.6349577" lon="13.8376777"><ele>291.5</ele><time>2026-04-08T07:06:07.273Z</time></trkpt><trkpt lat="45.6351033" lon="13.837602"><ele>291.0</ele><time>2026-04-08T07:06:08.263Z</time></trkpt><trkpt lat="45.6356382" lon="13.837259"><ele>291.0</ele><time>2026-04-08T07:06:11.269Z</time></trkpt><trkpt lat="45.6358444" lon="13.8371208"><ele>291.0</ele><time>2026-04-08T07:06:12.266Z</time></trkpt><trkpt lat="45.6360523" lon="13.8369519"><ele>290.0</ele><time>2026-04-08T07:06:13.285Z</time></trkpt><trkpt lat="45.6362704" lon="13.8367643"><ele>289.0</ele><time>2026-04-08T07:06:14.276Z</time></trkpt><trkpt lat="45.636498" lon="13.8365656"><ele>289.0</ele><time>2026-04-08T07:06:15.288Z</time></trkpt><trkpt lat="45.6367193" lon="13.8363679"><ele>289.0</ele><time>2026-04-08T07:06:16.266Z</time></trkpt><trkpt lat="45.6369341" lon="13.8361782"><ele>288.0</ele><time>2026-04-08T07:06:17.27Z</time></trkpt><trkpt lat="45.6371402" lon="13.8359988"><ele>287.0</ele><time>2026-04-08T07:06:18.272Z</time></trkpt><trkpt lat="45.6375307" lon="13.835678"><ele>287.0</ele><time>2026-04-08T07:06:20.283Z</time></trkpt><trkpt lat="45.6377218" lon="13.8355162"><ele>287.0</ele><time>2026-04-08T07:06:21.266Z</time></trkpt><trkpt lat="45.6379072" lon="13.835358"><ele>287.0</ele><time>2026-04-08T07:06:22.274Z</time></trkpt><trkpt lat="45.6380968" lon="13.8352175"><ele>288.0</ele><time>2026-04-08T07:06:23.275Z</time></trkpt><trkpt lat="45.6383061" lon="13.8351035"><ele>289.0</ele><time>2026-04-08T07:06:24.265Z</time></trkpt><trkpt lat="45.6385206" lon="13.8349923"><ele>297.0</ele><time>2026-04-08T07:06:25.283Z</time></trkpt><trkpt lat="45.638738" lon="13.834902"><ele>305.0</ele><time>2026-04-08T07:06:26.266Z</time></trkpt><trkpt lat="45.6389633" lon="13.8348139"><ele>305.0</ele><time>2026-04-08T07:06:27.273Z</time></trkpt><trkpt lat="45.6391806" lon="13.8347408"><ele>305.0</ele><time>2026-04-08T07:06:28.27Z</time></trkpt><trkpt lat="45.6393819" lon="13.8346524"><ele>305.0</ele><time>2026-04-08T07:06:29.272Z</time></trkpt><trkpt lat="45.639561" lon="13.8345722"><ele>309.75</ele><time>2026-04-08T07:06:30.267Z</time></trkpt><trkpt lat="45.6397045" lon="13.8345134"><ele>314.5</ele><time>2026-04-08T07:06:31.265Z</time></trkpt><trkpt lat="45.6398282" lon="13.8344495"><ele>319.25</ele><time>2026-04-08T07:06:32.281Z</time></trkpt><trkpt lat="45.6399326" lon="13.8344121"><ele>324.0</ele><time>2026-04-08T07:06:33.281Z</time></trkpt><trkpt lat="45.6400453" lon="13.8343453"><ele>320.2</ele><time>2026-04-08T07:06:35.262Z</time></trkpt><trkpt lat="45.6401014" lon="13.8342303"><ele>316.4</ele><time>2026-04-08T07:06:37.267Z</time></trkpt><trkpt lat="45.6400952" lon="13.8341334"><ele>312.6</ele><time>2026-04-08T07:06:38.272Z</time></trkpt><trkpt lat="45.6400377" lon="13.8339889"><ele>308.8</ele><time>2026-04-08T07:06:40.282Z</time></trkpt><trkpt lat="45.6399925" lon="13.8339035"><ele>305.0</ele><time>2026-04-08T07:06:42.255Z</time></trkpt><trkpt lat="45.6398974" lon="13.8339114"><ele>305.0</ele><time>2026-04-08T07:06:54.262Z</time></trkpt><trkpt lat="45.6398379" lon="13.8339718"><ele>305.0</ele><time>2026-04-08T07:06:55.254Z</time></trkpt><trkpt lat="45.6397708" lon="13.8340732"><ele>305.0</ele><time>2026-04-08T07:06:56.267Z</time></trkpt><trkpt lat="45.6393945" lon="13.8347578"><ele>305.0</ele><time>2026-04-08T07:07:00.271Z</time></trkpt><trkpt lat="45.6392746" lon="13.8349396"><ele>305.0</ele><time>2026-04-08T07:07:01.27Z</time></trkpt><trkpt lat="45.6391174" lon="13.8350996"><ele>305.0</ele><time>2026-04-08T07:07:02.253Z</time></trkpt><trkpt lat="45.6389431" lon="13.8352327"><ele>308.5</ele><time>2026-04-08T07:07:03.269Z</time></trkpt><trkpt lat="45.6386004" lon="13.8355093"><ele>312.0</ele><time>2026-04-08T07:07:05.268Z</time></trkpt><trkpt lat="45.638453" lon="13.835637"><ele>312.0</ele><time>2026-04-08T07:07:06.273Z</time></trkpt><trkpt lat="45.6383159" lon="13.8357606"><ele>312.0</ele><time>2026-04-08T07:07:07.258Z</time></trkpt><trkpt lat="45.6381729" lon="13.8358833"><ele>312.0</ele><time>2026-04-08T07:07:08.258Z</time></trkpt><trkpt lat="45.6380424" lon="13.8360377"><ele>311.0</ele><time>2026-04-08T07:07:09.27Z</time></trkpt><trkpt lat="45.637926" lon="13.8362385"><ele>310.0</ele><time>2026-04-08T07:07:10.282Z</time></trkpt><trkpt lat="45.6377905" lon="13.8364888"><ele>309.0</ele><time>2026-04-08T07:07:11.264Z</time></trkpt><trkpt lat="45.6374572" lon="13.837022"><ele>317.0</ele><time>2026-04-08T07:07:13.257Z</time></trkpt><trkpt lat="45.6372771" lon="13.8372718"><ele>325.0</ele><time>2026-04-08T07:07:14.269Z</time></trkpt><trkpt lat="45.6370968" lon="13.8375285"><ele>327.5</ele><time>2026-04-08T07:07:15.283Z</time></trkpt><trkpt lat="45.6369123" lon="13.8377847"><ele>330.0</ele><time>2026-04-08T07:07:16.264Z</time></trkpt><trkpt lat="45.6367341" lon="13.8380385"><ele>330.0</ele><time>2026-04-08T07:07:17.289Z</time></trkpt><trkpt lat="45.6365573" lon="13.8382942"><ele>330.0</ele><time>2026-04-08T07:07:18.261Z</time></trkpt><trkpt lat="45.6363814" lon="13.8385515"><ele>332.5</ele><time>2026-04-08T07:07:19.263Z</time></trkpt><trkpt lat="45.6362171" lon="13.8388147"><ele>335.0</ele><time>2026-04-08T07:07:20.261Z</time></trkpt><trkpt lat="45.6359888" lon="13.8394169"><ele>335.0</ele><time>2026-04-08T07:07:22.254Z</time></trkpt><trkpt lat="45.635922" lon="13.8397402"><ele>335.0</ele><time>2026-04-08T07:07:23.268Z</time></trkpt><trkpt lat="45.6358979" lon="13.8400846"><ele>336.5</ele><time>2026-04-08T07:07:24.276Z</time></trkpt><trkpt lat="45.6359202" lon="13.8404348"><ele>338.0</ele><time>2026-04-08T07:07:25.258Z</time></trkpt><trkpt lat="45.6359488" lon="13.8407925"><ele>340.0</ele><time>2026-04-08T07:07:26.391Z</time></trkpt><trkpt lat="45.6360003" lon="13.8414276"><ele>342.0</ele><time>2026-04-08T07:07:28.254Z</time></trkpt><trkpt lat="45.6359938" lon="13.8417385"><ele>345.0</ele><time>2026-04-08T07:07:29.253Z</time></trkpt><trkpt lat="45.6359675" lon="13.8420606"><ele>348.0</ele><time>2026-04-08T07:07:30.261Z</time></trkpt><trkpt lat="45.6358772" lon="13.842362"><ele>350.6666666666667</ele><time>2026-04-08T07:07:31.259Z</time></trkpt><trkpt lat="45.6357857" lon="13.8426397"><ele>353.33333333333337</ele><time>2026-04-08T07:07:32.369Z</time></trkpt><trkpt lat="45.6356685" lon="13.842859"><ele>356.0</ele><time>2026-04-08T07:07:33.367Z</time></trkpt><trkpt lat="45.6353644" lon="13.8431385"><ele>355.25</ele><time>2026-04-08T07:07:35.284Z</time></trkpt><trkpt lat="45.6352259" lon="13.8432635"><ele>354.5</ele><time>2026-04-08T07:07:36.268Z</time></trkpt><trkpt lat="45.6351307" lon="13.8434013"><ele>353.75</ele><time>2026-04-08T07:07:37.256Z</time></trkpt><trkpt lat="45.6350794" lon="13.8435732"><ele>353.0</ele><time>2026-04-08T07:07:38.355Z</time></trkpt><trkpt lat="45.6350988" lon="13.8437626"><ele>355.0</ele><time>2026-04-08T07:07:39.361Z</time></trkpt><trkpt lat="45.6351792" lon="13.8439026"><ele>357.0</ele><time>2026-04-08T07:07:40.37Z</time></trkpt><trkpt lat="45.6354484" lon="13.8439438"><ele>359.0</ele><time>2026-04-08T07:07:42.272Z</time></trkpt><trkpt lat="45.6356501" lon="13.8439196"><ele>361.0</ele><time>2026-04-08T07:07:43.27Z</time></trkpt><trkpt lat="45.6358738" lon="13.8438892"><ele>363.0</ele><time>2026-04-08T07:07:44.258Z</time></trkpt><trkpt lat="45.6361021" lon="13.8438499"><ele>364.0</ele><time>2026-04-08T07:07:45.361Z</time></trkpt><trkpt lat="45.6363273" lon="13.8438208"><ele>365.0</ele><time>2026-04-08T07:07:46.351Z</time></trkpt><trkpt lat="45.6365332" lon="13.8438184"><ele>366.0</ele><time>2026-04-08T07:07:47.364Z</time></trkpt><trkpt lat="45.6367239" lon="13.8438474"><ele>366.0</ele><time>2026-04-08T07:07:48.265Z</time></trkpt><trkpt lat="45.6369045" lon="13.8439187"><ele>366.0</ele><time>2026-04-08T07:07:49.367Z</time></trkpt><trkpt lat="45.6370596" lon="13.8440424"><ele>366.0</ele><time>2026-04-08T07:07:50.375Z</time></trkpt><trkpt lat="45.6371924" lon="13.8442088"><ele>367.0</ele><time>2026-04-08T07:07:51.373Z</time></trkpt><trkpt lat="45.6372878" lon="13.8443862"><ele>368.0</ele><time>2026-04-08T07:07:52.369Z</time></trkpt><trkpt lat="45.6373712" lon="13.8445706"><ele>369.0</ele><time>2026-04-08T07:07:53.379Z</time></trkpt><trkpt lat="45.6374175" lon="13.84475"><ele>370.0</ele><time>2026-04-08T07:07:54.358Z</time></trkpt><trkpt lat="45.6374501" lon="13.8449174"><ele>370.0</ele><time>2026-04-08T07:07:55.366Z</time></trkpt><trkpt lat="45.6374851" lon="13.8450796"><ele>370.0</ele><time>2026-04-08T07:07:56.356Z</time></trkpt><trkpt lat="45.6375289" lon="13.8452525"><ele>370.0</ele><time>2026-04-08T07:07:57.364Z</time></trkpt><trkpt lat="45.637576" lon="13.8454349"><ele>370.0</ele><time>2026-04-08T07:07:58.349Z</time></trkpt><trkpt lat="45.6376164" lon="13.8456176"><ele>370.0</ele><time>2026-04-08T07:07:59.382Z</time></trkpt><trkpt lat="45.6376624" lon="13.8458033"><ele>370.0</ele><time>2026-04-08T07:08:00.353Z</time></trkpt><trkpt lat="45.637712" lon="13.845996"><ele>370.0</ele><time>2026-04-08T07:08:01.36Z</time></trkpt><trkpt lat="45.6377571" lon="13.8461898"><ele>370.0</ele><time>2026-04-08T07:08:02.367Z</time></trkpt><trkpt lat="45.6378048" lon="13.846386"><ele>371.0</ele><time>2026-04-08T07:08:03.352Z</time></trkpt><trkpt lat="45.6378562" lon="13.8465909"><ele>372.0</ele><time>2026-04-08T07:08:04.35Z</time></trkpt><trkpt lat="45.6379091" lon="13.8468144"><ele>373.0</ele><time>2026-04-08T07:08:05.369Z</time></trkpt><trkpt lat="45.6379701" lon="13.8470473"><ele>373.0</ele><time>2026-04-08T07:08:06.352Z</time></trkpt><trkpt lat="45.6380261" lon="13.8472753"><ele>373.0</ele><time>2026-04-08T07:08:07.396Z</time></trkpt><trkpt lat="45.6380702" lon="13.8474861"><ele>373.0</ele><time>2026-04-08T07:08:08.356Z</time></trkpt><trkpt lat="45.6381168" lon="13.8476887"><ele>372.66666666666663</ele><time>2026-04-08T07:08:09.348Z</time></trkpt><trkpt lat="45.6381661" lon="13.8478973"><ele>372.3333333333333</ele><time>2026-04-08T07:08:10.36Z</time></trkpt><trkpt lat="45.6382168" lon="13.8481229"><ele>372.0</ele><time>2026-04-08T07:08:11.345Z</time></trkpt><trkpt lat="45.6382679" lon="13.8483512"><ele>371.3333333333333</ele><time>2026-04-08T07:08:12.351Z</time></trkpt><trkpt lat="45.6383214" lon="13.8485792"><ele>370.66666666666663</ele><time>2026-04-08T07:08:13.361Z</time></trkpt><trkpt lat="45.6383686" lon="13.8487942"><ele>370.0</ele><time>2026-04-08T07:08:14.368Z</time></trkpt><trkpt lat="45.6384162" lon="13.8490043"><ele>370.0</ele><time>2026-04-08T07:08:15.362Z</time></trkpt><trkpt lat="45.6384652" lon="13.8492335"><ele>370.0</ele><time>2026-04-08T07:08:16.361Z</time></trkpt><trkpt lat="45.6385158" lon="13.8494673"><ele>370.0</ele><time>2026-04-08T07:08:17.355Z</time></trkpt><trkpt lat="45.6385684" lon="13.8497135"><ele>369.66666666666663</ele><time>2026-04-08T07:08:18.362Z</time></trkpt><trkpt lat="45.6386215" lon="13.8499675"><ele>369.3333333333333</ele><time>2026-04-08T07:08:19.346Z</time></trkpt><trkpt lat="45.6386771" lon="13.850214"><ele>369.0</ele><time>2026-04-08T07:08:20.354Z</time></trkpt><trkpt lat="45.6387318" lon="13.8504444"><ele>369.0</ele><time>2026-04-08T07:08:21.364Z</time></trkpt><trkpt lat="45.6387832" lon="13.8506594"><ele>369.0</ele><time>2026-04-08T07:08:22.358Z</time></trkpt><trkpt lat="45.6388291" lon="13.8508688"><ele>369.0</ele><time>2026-04-08T07:08:23.346Z</time></trkpt><trkpt lat="45.6388809" lon="13.8510749"><ele>368.3333333333333</ele><time>2026-04-08T07:08:24.351Z</time></trkpt><trkpt lat="45.6389333" lon="13.8512816"><ele>367.66666666666663</ele><time>2026-04-08T07:08:25.363Z</time></trkpt><trkpt lat="45.6389814" lon="13.8514861"><ele>367.0</ele><time>2026-04-08T07:08:26.353Z</time></trkpt><trkpt lat="45.6390223" lon="13.8516911"><ele>366.25</ele><time>2026-04-08T07:08:27.356Z</time></trkpt><trkpt lat="45.6390643" lon="13.8518853"><ele>365.5</ele><time>2026-04-08T07:08:28.353Z</time></trkpt><trkpt lat="45.6391056" lon="13.8520707"><ele>364.75</ele><time>2026-04-08T07:08:29.361Z</time></trkpt><trkpt lat="45.6391458" lon="13.8522443"><ele>364.0</ele><time>2026-04-08T07:08:30.347Z</time></trkpt><trkpt lat="45.6391833" lon="13.8524177"><ele>364.0</ele><time>2026-04-08T07:08:31.371Z</time></trkpt><trkpt lat="45.6392223" lon="13.8525884"><ele>364.0</ele><time>2026-04-08T07:08:32.355Z</time></trkpt><trkpt lat="45.6392601" lon="13.8527614"><ele>364.0</ele><time>2026-04-08T07:08:33.356Z</time></trkpt><trkpt lat="45.6393011" lon="13.8529367"><ele>364.0</ele><time>2026-04-08T07:08:34.344Z</time></trkpt><trkpt lat="45.6393355" lon="13.8531109"><ele>363.75</ele><time>2026-04-08T07:08:35.378Z</time></trkpt><trkpt lat="45.6393663" lon="13.8532842"><ele>363.5</ele><time>2026-04-08T07:08:36.357Z</time></trkpt><trkpt lat="45.6393951" lon="13.8534479"><ele>363.25</ele><time>2026-04-08T07:08:37.363Z</time></trkpt><trkpt lat="45.6394243" lon="13.8536108"><ele>363.0</ele><time>2026-04-08T07:08:38.36Z</time></trkpt><trkpt lat="45.6394548" lon="13.8537747"><ele>363.0</ele><time>2026-04-08T07:08:39.353Z</time></trkpt><trkpt lat="45.6394924" lon="13.8539515"><ele>363.0</ele><time>2026-04-08T07:08:40.353Z</time></trkpt><trkpt lat="45.6395344" lon="13.8541503"><ele>363.0</ele><time>2026-04-08T07:08:41.365Z</time></trkpt><trkpt lat="45.6395799" lon="13.8543658"><ele>363.0</ele><time>2026-04-08T07:08:42.345Z</time></trkpt><trkpt lat="45.6396292" lon="13.8545885"><ele>363.0</ele><time>2026-04-08T07:08:43.348Z</time></trkpt><trkpt lat="45.6396845" lon="13.8548124"><ele>363.0</ele><time>2026-04-08T07:08:44.342Z</time></trkpt><trkpt lat="45.6397423" lon="13.855053"><ele>363.0</ele><time>2026-04-08T07:08:45.356Z</time></trkpt><trkpt lat="45.6398012" lon="13.8552964"><ele>363.3333333333333</ele><time>2026-04-08T07:08:46.348Z</time></trkpt><trkpt lat="45.6398644" lon="13.8555458"><ele>363.66666666666663</ele><time>2026-04-08T07:08:47.347Z</time></trkpt><trkpt lat="45.6399233" lon="13.85579"><ele>364.0</ele><time>2026-04-08T07:08:48.375Z</time></trkpt><trkpt lat="45.6399779" lon="13.8560303"><ele>364.66666666666663</ele><time>2026-04-08T07:08:49.349Z</time></trkpt><trkpt lat="45.6400295" lon="13.8562665"><ele>365.3333333333333</ele><time>2026-04-08T07:08:50.351Z</time></trkpt><trkpt lat="45.6400824" lon="13.8565038"><ele>366.0</ele><time>2026-04-08T07:08:51.355Z</time></trkpt><trkpt lat="45.6401347" lon="13.856737"><ele>367.3333333333333</ele><time>2026-04-08T07:08:52.361Z</time></trkpt><trkpt lat="45.6401859" lon="13.8569632"><ele>368.66666666666663</ele><time>2026-04-08T07:08:53.359Z</time></trkpt><trkpt lat="45.6402343" lon="13.8571747"><ele>370.0</ele><time>2026-04-08T07:08:54.341Z</time></trkpt><trkpt lat="45.6402819" lon="13.8573852"><ele>370.0</ele><time>2026-04-08T07:08:55.352Z</time></trkpt><trkpt lat="45.6403276" lon="13.8575896"><ele>370.0</ele><time>2026-04-08T07:08:56.338Z</time></trkpt><trkpt lat="45.6403728" lon="13.8577831"><ele>370.0</ele><time>2026-04-08T07:08:57.35Z</time></trkpt><trkpt lat="45.6404105" lon="13.8579533"><ele>370.0</ele><time>2026-04-08T07:08:58.342Z</time></trkpt><trkpt lat="45.640442" lon="13.858101"><ele>370.16666666666663</ele><time>2026-04-08T07:08:59.345Z</time></trkpt><trkpt lat="45.640467" lon="13.8582408"><ele>370.3333333333333</ele><time>2026-04-08T07:09:00.336Z</time></trkpt><trkpt lat="45.6404852" lon="13.8583639"><ele>370.5</ele><time>2026-04-08T07:09:01.348Z</time></trkpt><trkpt lat="45.6404966" lon="13.8584584"><ele>370.6666666666667</ele><time>2026-04-08T07:09:02.361Z</time></trkpt><trkpt lat="45.640502" lon="13.8585755"><ele>370.83333333333337</ele><time>2026-04-08T07:09:04.364Z</time></trkpt><trkpt lat="45.6405263" lon="13.8586821"><ele>371.0</ele><time>2026-04-08T07:09:06.35Z</time></trkpt><trkpt lat="45.6405694" lon="13.8587908"><ele>371.5</ele><time>2026-04-08T07:09:07.342Z</time></trkpt><trkpt lat="45.640616" lon="13.8589332"><ele>372.0</ele><time>2026-04-08T07:09:08.35Z</time></trkpt><trkpt lat="45.6406568" lon="13.8590859"><ele>372.5</ele><time>2026-04-08T07:09:09.349Z</time></trkpt><trkpt lat="45.6406941" lon="13.8592567"><ele>373.0</ele><time>2026-04-08T07:09:10.347Z</time></trkpt><trkpt lat="45.6407367" lon="13.8594325"><ele>373.79999999999995</ele><time>2026-04-08T07:09:11.356Z</time></trkpt><trkpt lat="45.6407789" lon="13.8595945"><ele>374.6</ele><time>2026-04-08T07:09:12.353Z</time></trkpt><trkpt lat="45.6408133" lon="13.8597356"><ele>375.4</ele><time>2026-04-08T07:09:13.356Z</time></trkpt><trkpt lat="45.6408382" lon="13.8598406"><ele>376.20000000000005</ele><time>2026-04-08T07:09:14.341Z</time></trkpt><trkpt lat="45.6408544" lon="13.8599634"><ele>377.0</ele><time>2026-04-08T07:09:16.343Z</time></trkpt><trkpt lat="45.6408796" lon="13.8600798"><ele>377.33333333333337</ele><time>2026-04-08T07:09:19.363Z</time></trkpt><trkpt lat="45.6409053" lon="13.860164"><ele>377.6666666666667</ele><time>2026-04-08T07:09:21.356Z</time></trkpt><trkpt lat="45.6409356" lon="13.8602993"><ele>378.0</ele><time>2026-04-08T07:09:23.339Z</time></trkpt><trkpt lat="45.6409644" lon="13.8604702"><ele>378.3333333333333</ele><time>2026-04-08T07:09:25.358Z</time></trkpt><trkpt lat="45.6409819" lon="13.8605668"><ele>378.66666666666663</ele><time>2026-04-08T07:09:26.346Z</time></trkpt><trkpt lat="45.6409992" lon="13.8606665"><ele>379.0</ele><time>2026-04-08T07:09:27.356Z</time></trkpt><trkpt lat="45.6410214" lon="13.8607647"><ele>379.0</ele><time>2026-04-08T07:09:28.345Z</time></trkpt><trkpt lat="45.6410648" lon="13.8609068"><ele>379.0</ele><time>2026-04-08T07:09:30.34Z</time></trkpt><trkpt lat="45.6411007" lon="13.8610156"><ele>379.0</ele><time>2026-04-08T07:09:34.346Z</time></trkpt><trkpt lat="45.6411415" lon="13.8611353"><ele>379.0</ele><time>2026-04-08T07:09:37.341Z</time></trkpt><trkpt lat="45.6411595" lon="13.8612627"><ele>379.0</ele><time>2026-04-08T07:09:39.344Z</time></trkpt><trkpt lat="45.6411794" lon="13.8613948"><ele>378.8333333333333</ele><time>2026-04-08T07:09:41.331Z</time></trkpt><trkpt lat="45.6412018" lon="13.8614839"><ele>378.66666666666663</ele><time>2026-04-08T07:09:43.341Z</time></trkpt><trkpt lat="45.6412386" lon="13.8616089"><ele>378.5</ele><time>2026-04-08T07:09:49.346Z</time></trkpt><trkpt lat="45.6412574" lon="13.8617028"><ele>378.3333333333333</ele><time>2026-04-08T07:09:51.347Z</time></trkpt><trkpt lat="45.6412682" lon="13.8618165"><ele>378.1666666666667</ele><time>2026-04-08T07:09:53.346Z</time></trkpt><trkpt lat="45.6412801" lon="13.8619162"><ele>378.0</ele><time>2026-04-08T07:09:55.338Z</time></trkpt><trkpt lat="45.6412928" lon="13.8620354"><ele>378.0</ele><time>2026-04-08T07:09:58.336Z</time></trkpt><trkpt lat="45.6413029" lon="13.8621247"><ele>378.0</ele><time>2026-04-08T07:10:04.343Z</time></trkpt><trkpt lat="45.6413141" lon="13.8622428"><ele>378.0</ele><time>2026-04-08T07:10:07.344Z</time></trkpt><trkpt lat="45.6413369" lon="13.8623641"><ele>378.0</ele><time>2026-04-08T07:10:12.33Z</time></trkpt><trkpt lat="45.6413793" lon="13.8624815"><ele>378.0</ele><time>2026-04-08T07:10:14.333Z</time></trkpt><trkpt lat="45.6414138" lon="13.8625569"><ele>378.0</ele><time>2026-04-08T07:10:15.331Z</time></trkpt><trkpt lat="45.6414598" lon="13.8626789"><ele>378.4</ele><time>2026-04-08T07:10:17.335Z</time></trkpt><trkpt lat="45.6415036" lon="13.8627959"><ele>378.79999999999995</ele><time>2026-04-08T07:10:20.325Z</time></trkpt><trkpt lat="45.6415338" lon="13.8629137"><ele>379.2</ele><time>2026-04-08T07:10:22.329Z</time></trkpt><trkpt lat="45.6415738" lon="13.8630713"><ele>379.6</ele><time>2026-04-08T07:10:24.336Z</time></trkpt><trkpt lat="45.6416182" lon="13.8632452"><ele>380.0</ele><time>2026-04-08T07:10:26.33Z</time></trkpt><trkpt lat="45.6416408" lon="13.8633477"><ele>380.2</ele><time>2026-04-08T07:10:27.346Z</time></trkpt><trkpt lat="45.6416644" lon="13.8634695"><ele>380.4</ele><time>2026-04-08T07:10:28.341Z</time></trkpt><trkpt lat="45.6416966" lon="13.8635919"><ele>380.6</ele><time>2026-04-08T07:10:29.346Z</time></trkpt><trkpt lat="45.641724" lon="13.8637148"><ele>380.8</ele><time>2026-04-08T07:10:30.341Z</time></trkpt><trkpt lat="45.6417557" lon="13.8638501"><ele>381.0</ele><time>2026-04-08T07:10:31.359Z</time></trkpt><trkpt lat="45.6417929" lon="13.8639985"><ele>381.0</ele><time>2026-04-08T07:10:32.335Z</time></trkpt><trkpt lat="45.6418305" lon="13.8641426"><ele>381.0</ele><time>2026-04-08T07:10:33.333Z</time></trkpt><trkpt lat="45.6418672" lon="13.864283"><ele>381.0</ele><time>2026-04-08T07:10:34.339Z</time></trkpt><trkpt lat="45.641911" lon="13.8644319"><ele>381.0</ele><time>2026-04-08T07:10:35.335Z</time></trkpt><trkpt lat="45.641959" lon="13.864588"><ele>381.0</ele><time>2026-04-08T07:10:36.331Z</time></trkpt><trkpt lat="45.6420233" lon="13.864746"><ele>381.0</ele><time>2026-04-08T07:10:37.344Z</time></trkpt><trkpt lat="45.6420892" lon="13.8649054"><ele>381.0</ele><time>2026-04-08T07:10:38.328Z</time></trkpt><trkpt lat="45.6421534" lon="13.8650531"><ele>381.0</ele><time>2026-04-08T07:10:39.337Z</time></trkpt><trkpt lat="45.6422215" lon="13.8652001"><ele>381.0</ele><time>2026-04-08T07:10:40.338Z</time></trkpt><trkpt lat="45.6422981" lon="13.8653552"><ele>381.3333333333333</ele><time>2026-04-08T07:10:41.335Z</time></trkpt><trkpt lat="45.6423779" lon="13.8655065"><ele>381.66666666666663</ele><time>2026-04-08T07:10:42.358Z</time></trkpt><trkpt lat="45.6424574" lon="13.8656601"><ele>382.0</ele><time>2026-04-08T07:10:43.367Z</time></trkpt><trkpt lat="45.6426168" lon="13.8659697"><ele>382.25</ele><time>2026-04-08T07:10:45.342Z</time></trkpt><trkpt lat="45.6426986" lon="13.866124"><ele>382.5</ele><time>2026-04-08T07:10:46.327Z</time></trkpt><trkpt lat="45.6427831" lon="13.8662833"><ele>382.75</ele><time>2026-04-08T07:10:47.337Z</time></trkpt><trkpt lat="45.642866" lon="13.8664402"><ele>383.0</ele><time>2026-04-08T07:10:48.321Z</time></trkpt><trkpt lat="45.6429492" lon="13.8665984"><ele>383.0</ele><time>2026-04-08T07:10:49.339Z</time></trkpt><trkpt lat="45.6430332" lon="13.8667568"><ele>383.0</ele><time>2026-04-08T07:10:50.323Z</time></trkpt><trkpt lat="45.6431219" lon="13.8669156"><ele>383.0</ele><time>2026-04-08T07:10:51.356Z</time></trkpt><trkpt lat="45.6432123" lon="13.8670816"><ele>383.0</ele><time>2026-04-08T07:10:52.327Z</time></trkpt><trkpt lat="45.6433008" lon="13.8672509"><ele>383.25</ele><time>2026-04-08T07:10:53.346Z</time></trkpt><trkpt lat="45.6433912" lon="13.8674182"><ele>383.5</ele><time>2026-04-08T07:10:54.321Z</time></trkpt><trkpt lat="45.6434808" lon="13.8675834"><ele>383.75</ele><time>2026-04-08T07:10:55.34Z</time></trkpt><trkpt lat="45.6435701" lon="13.8677495"><ele>384.0</ele><time>2026-04-08T07:10:56.335Z</time></trkpt><trkpt lat="45.6436583" lon="13.8679155"><ele>384.0</ele><time>2026-04-08T07:10:57.348Z</time></trkpt><trkpt lat="45.6437467" lon="13.8680796"><ele>384.0</ele><time>2026-04-08T07:10:58.333Z</time></trkpt><trkpt lat="45.6438328" lon="13.8682439"><ele>384.0</ele><time>2026-04-08T07:10:59.328Z</time></trkpt><trkpt lat="45.6439186" lon="13.868412"><ele>384.0</ele><time>2026-04-08T07:11:00.319Z</time></trkpt><trkpt lat="45.644014" lon="13.8685941"><ele>384.66666666666663</ele><time>2026-04-08T07:11:01.324Z</time></trkpt><trkpt lat="45.6441313" lon="13.8688178"><ele>385.3333333333333</ele><time>2026-04-08T07:11:02.323Z</time></trkpt><trkpt lat="45.6442705" lon="13.8690697"><ele>386.0</ele><time>2026-04-08T07:11:03.342Z</time></trkpt><trkpt lat="45.6444088" lon="13.8693613"><ele>386.0</ele><time>2026-04-08T07:11:04.338Z</time></trkpt><trkpt lat="45.644554" lon="13.8696757"><ele>386.0</ele><time>2026-04-08T07:11:05.334Z</time></trkpt><trkpt lat="45.6447068" lon="13.8699943"><ele>387.5</ele><time>2026-04-08T07:11:06.326Z</time></trkpt><trkpt lat="45.6448743" lon="13.8703228"><ele>389.0</ele><time>2026-04-08T07:11:07.339Z</time></trkpt><trkpt lat="45.6450488" lon="13.8706513"><ele>388.0</ele><time>2026-04-08T07:11:08.338Z</time></trkpt><trkpt lat="45.6452172" lon="13.8709816"><ele>387.0</ele><time>2026-04-08T07:11:09.329Z</time></trkpt><trkpt lat="45.6453895" lon="13.8713041"><ele>386.5</ele><time>2026-04-08T07:11:10.328Z</time></trkpt><trkpt lat="45.6455563" lon="13.8716143"><ele>386.0</ele><time>2026-04-08T07:11:11.329Z</time></trkpt><trkpt lat="45.6457089" lon="13.8719078"><ele>387.5</ele><time>2026-04-08T07:11:12.328Z</time></trkpt><trkpt lat="45.6458513" lon="13.8721808"><ele>389.0</ele><time>2026-04-08T07:11:13.33Z</time></trkpt><trkpt lat="45.6460028" lon="13.8724463"><ele>388.5</ele><time>2026-04-08T07:11:14.327Z</time></trkpt><trkpt lat="45.6461626" lon="13.8726892"><ele>388.0</ele><time>2026-04-08T07:11:15.346Z</time></trkpt><trkpt lat="45.6463399" lon="13.872917"><ele>388.0</ele><time>2026-04-08T07:11:16.336Z</time></trkpt><trkpt lat="45.646534" lon="13.8731295"><ele>388.0</ele><time>2026-04-08T07:11:17.318Z</time></trkpt><trkpt lat="45.6467321" lon="13.8733414"><ele>389.0</ele><time>2026-04-08T07:11:18.383Z</time></trkpt><trkpt lat="45.6469288" lon="13.8735492"><ele>390.0</ele><time>2026-04-08T07:11:19.325Z</time></trkpt><trkpt lat="45.6471146" lon="13.873757"><ele>390.0</ele><time>2026-04-08T07:11:20.394Z</time></trkpt><trkpt lat="45.6472996" lon="13.8739602"><ele>390.0</ele><time>2026-04-08T07:11:21.355Z</time></trkpt><trkpt lat="45.647483" lon="13.874165"><ele>390.5</ele><time>2026-04-08T07:11:22.317Z</time></trkpt><trkpt lat="45.6476692" lon="13.8743724"><ele>391.0</ele><time>2026-04-08T07:11:23.334Z</time></trkpt><trkpt lat="45.64785" lon="13.874575"><ele>391.0</ele><time>2026-04-08T07:11:24.321Z</time></trkpt><trkpt lat="45.6480238" lon="13.8747734"><ele>391.0</ele><time>2026-04-08T07:11:25.35Z</time></trkpt><trkpt lat="45.6481906" lon="13.8749626"><ele>391.0</ele><time>2026-04-08T07:11:26.311Z</time></trkpt><trkpt lat="45.6483578" lon="13.8751532"><ele>391.33333333333337</ele><time>2026-04-08T07:11:27.316Z</time></trkpt><trkpt lat="45.6485254" lon="13.8753339"><ele>391.66666666666663</ele><time>2026-04-08T07:11:28.317Z</time></trkpt><trkpt lat="45.6486882" lon="13.8755158"><ele>392.0</ele><time>2026-04-08T07:11:29.317Z</time></trkpt><trkpt lat="45.6488556" lon="13.8756969"><ele>392.66666666666663</ele><time>2026-04-08T07:11:30.319Z</time></trkpt><trkpt lat="45.6490178" lon="13.8758824"><ele>393.33333333333337</ele><time>2026-04-08T07:11:31.34Z</time></trkpt><trkpt lat="45.6491801" lon="13.8760661"><ele>394.0</ele><time>2026-04-08T07:11:32.325Z</time></trkpt><trkpt lat="45.6493398" lon="13.8762442"><ele>395.0</ele><time>2026-04-08T07:11:33.335Z</time></trkpt><trkpt lat="45.6495012" lon="13.8764261"><ele>396.0</ele><time>2026-04-08T07:11:34.314Z</time></trkpt><trkpt lat="45.6496633" lon="13.8766072"><ele>397.0</ele><time>2026-04-08T07:11:35.321Z</time></trkpt><trkpt lat="45.6498259" lon="13.8767861"><ele>397.33333333333337</ele><time>2026-04-08T07:11:36.318Z</time></trkpt><trkpt lat="45.6499829" lon="13.8769654"><ele>397.66666666666663</ele><time>2026-04-08T07:11:37.317Z</time></trkpt><trkpt lat="45.6501427" lon="13.8771455"><ele>398.0</ele><time>2026-04-08T07:11:38.333Z</time></trkpt><trkpt lat="45.6502941" lon="13.8773151"><ele>398.3333333333333</ele><time>2026-04-08T07:11:39.321Z</time></trkpt><trkpt lat="45.6504345" lon="13.87747"><ele>398.66666666666663</ele><time>2026-04-08T07:11:40.309Z</time></trkpt><trkpt lat="45.6505617" lon="13.8776118"><ele>399.0</ele><time>2026-04-08T07:11:41.314Z</time></trkpt><trkpt lat="45.6506777" lon="13.8777487"><ele>399.75</ele><time>2026-04-08T07:11:42.313Z</time></trkpt><trkpt lat="45.6507878" lon="13.8778815"><ele>400.5</ele><time>2026-04-08T07:11:43.312Z</time></trkpt><trkpt lat="45.6508991" lon="13.8780028"><ele>401.25</ele><time>2026-04-08T07:11:44.339Z</time></trkpt><trkpt lat="45.6510014" lon="13.8781161"><ele>402.0</ele><time>2026-04-08T07:11:45.316Z</time></trkpt><trkpt lat="45.6510841" lon="13.878206"><ele>401.8</ele><time>2026-04-08T07:11:46.318Z</time></trkpt><trkpt lat="45.6511526" lon="13.8782856"><ele>401.6</ele><time>2026-04-08T07:11:47.346Z</time></trkpt><trkpt lat="45.6511978" lon="13.8783804"><ele>401.40000000000003</ele><time>2026-04-08T07:11:48.324Z</time></trkpt><trkpt lat="45.6512246" lon="13.8784954"><ele>401.20000000000005</ele><time>2026-04-08T07:11:49.317Z</time></trkpt><trkpt lat="45.651265" lon="13.8786163"><ele>401.0</ele><time>2026-04-08T07:11:50.332Z</time></trkpt><trkpt lat="45.6513289" lon="13.8787362"><ele>401.6</ele><time>2026-04-08T07:11:51.314Z</time></trkpt><trkpt lat="45.6513996" lon="13.8788641"><ele>402.20000000000005</ele><time>2026-04-08T07:11:52.321Z</time></trkpt><trkpt lat="45.6514783" lon="13.8789849"><ele>402.79999999999995</ele><time>2026-04-08T07:11:53.325Z</time></trkpt><trkpt lat="45.651557" lon="13.8790929"><ele>403.4</ele><time>2026-04-08T07:11:54.333Z</time></trkpt><trkpt lat="45.6516352" lon="13.8791809"><ele>404.0</ele><time>2026-04-08T07:11:55.311Z</time></trkpt><trkpt lat="45.6517016" lon="13.8792485"><ele>404.0</ele><time>2026-04-08T07:11:56.312Z</time></trkpt><trkpt lat="45.6517646" lon="13.8792753"><ele>404.0</ele><time>2026-04-08T07:11:57.31Z</time></trkpt><trkpt lat="45.6518476" lon="13.8791921"><ele>404.0</ele><time>2026-04-08T07:11:59.339Z</time></trkpt><trkpt lat="45.6519606" lon="13.8791703"><ele>404.0</ele><time>2026-04-08T07:12:01.317Z</time></trkpt><trkpt lat="45.6520521" lon="13.8792379"><ele>404.0</ele><time>2026-04-08T07:12:02.387Z</time></trkpt><trkpt lat="45.6521563" lon="13.8793354"><ele>404.75</ele><time>2026-04-08T07:12:03.315Z</time></trkpt><trkpt lat="45.6522722" lon="13.8794272"><ele>405.5</ele><time>2026-04-08T07:12:04.312Z</time></trkpt><trkpt lat="45.6523919" lon="13.8795117"><ele>406.25</ele><time>2026-04-08T07:12:05.312Z</time></trkpt><trkpt lat="45.6524975" lon="13.8795764"><ele>407.0</ele><time>2026-04-08T07:12:06.328Z</time></trkpt><trkpt lat="45.6525845" lon="13.8796458"><ele>407.0</ele><time>2026-04-08T07:12:07.307Z</time></trkpt><trkpt lat="45.6526721" lon="13.8797046"><ele>407.0</ele><time>2026-04-08T07:12:08.321Z</time></trkpt><trkpt lat="45.6527555" lon="13.8797568"><ele>407.0</ele><time>2026-04-08T07:12:09.311Z</time></trkpt><trkpt lat="45.6528425" lon="13.8798183"><ele>407.0</ele><time>2026-04-08T07:12:10.32Z</time></trkpt><trkpt lat="45.652927" lon="13.8798764"><ele>407.0</ele><time>2026-04-08T07:12:11.313Z</time></trkpt><trkpt lat="45.6530093" lon="13.8799363"><ele>407.0</ele><time>2026-04-08T07:12:12.321Z</time></trkpt><trkpt lat="45.6530847" lon="13.8799935"><ele>407.0</ele><time>2026-04-08T07:12:13.328Z</time></trkpt><trkpt lat="45.6531624" lon="13.8800469"><ele>407.0</ele><time>2026-04-08T07:12:14.329Z</time></trkpt><trkpt lat="45.6532427" lon="13.8801051"><ele>407.0</ele><time>2026-04-08T07:12:15.321Z</time></trkpt><trkpt lat="45.653331" lon="13.8801748"><ele>407.0</ele><time>2026-04-08T07:12:16.313Z</time></trkpt><trkpt lat="45.6534229" lon="13.8802437"><ele>407.20000000000005</ele><time>2026-04-08T07:12:17.308Z</time></trkpt><trkpt lat="45.6535149" lon="13.8803134"><ele>407.4</ele><time>2026-04-08T07:12:18.304Z</time></trkpt><trkpt lat="45.653607" lon="13.8803814"><ele>407.6</ele><time>2026-04-08T07:12:19.313Z</time></trkpt><trkpt lat="45.6537001" lon="13.8804477"><ele>407.79999999999995</ele><time>2026-04-08T07:12:20.31Z</time></trkpt><trkpt lat="45.6537967" lon="13.8805198"><ele>408.0</ele><time>2026-04-08T07:12:21.308Z</time></trkpt><trkpt lat="45.6538941" lon="13.880593"><ele>409.33333333333337</ele><time>2026-04-08T07:12:22.304Z</time></trkpt><trkpt lat="45.6540004" lon="13.8806684"><ele>410.6666666666667</ele><time>2026-04-08T07:12:23.318Z</time></trkpt><trkpt lat="45.6541432" lon="13.8807495"><ele>412.0</ele><time>2026-04-08T07:12:24.302Z</time></trkpt><trkpt lat="45.6543064" lon="13.8808601"><ele>412.33333333333337</ele><time>2026-04-08T07:12:25.303Z</time></trkpt><trkpt lat="45.6544772" lon="13.880983"><ele>412.66666666666663</ele><time>2026-04-08T07:12:26.309Z</time></trkpt><trkpt lat="45.6546461" lon="13.8811162"><ele>413.0</ele><time>2026-04-08T07:12:27.324Z</time></trkpt><trkpt lat="45.6548171" lon="13.8812463"><ele>413.0</ele><time>2026-04-08T07:12:28.32Z</time></trkpt><trkpt lat="45.6549713" lon="13.881382"><ele>413.0</ele><time>2026-04-08T07:12:29.318Z</time></trkpt><trkpt lat="45.6551078" lon="13.8815485"><ele>413.0</ele><time>2026-04-08T07:12:30.306Z</time></trkpt><trkpt lat="45.6552339" lon="13.8817547"><ele>412.66666666666663</ele><time>2026-04-08T07:12:31.313Z</time></trkpt><trkpt lat="45.6553508" lon="13.881989"><ele>412.33333333333337</ele><time>2026-04-08T07:12:32.306Z</time></trkpt><trkpt lat="45.6554613" lon="13.882265"><ele>412.0</ele><time>2026-04-08T07:12:33.361Z</time></trkpt><trkpt lat="45.6555574" lon="13.8825678"><ele>412.0</ele><time>2026-04-08T07:12:34.31Z</time></trkpt><trkpt lat="45.6556398" lon="13.8828821"><ele>412.0</ele><time>2026-04-08T07:12:35.316Z</time></trkpt><trkpt lat="45.6557224" lon="13.8831974"><ele>413.0</ele><time>2026-04-08T07:12:36.305Z</time></trkpt><trkpt lat="45.6558019" lon="13.8835166"><ele>414.0</ele><time>2026-04-08T07:12:37.298Z</time></trkpt><trkpt lat="45.655883" lon="13.8838483"><ele>414.0</ele><time>2026-04-08T07:12:38.311Z</time></trkpt><trkpt lat="45.6559703" lon="13.8841767"><ele>414.0</ele><time>2026-04-08T07:12:39.302Z</time></trkpt><trkpt lat="45.6560541" lon="13.8845164"><ele>415.0</ele><time>2026-04-08T07:12:40.302Z</time></trkpt><trkpt lat="45.6561368" lon="13.8848581"><ele>416.0</ele><time>2026-04-08T07:12:41.317Z</time></trkpt><trkpt lat="45.6562235" lon="13.8852016"><ele>416.5</ele><time>2026-04-08T07:12:42.316Z</time></trkpt><trkpt lat="45.6563114" lon="13.8855519"><ele>417.0</ele><time>2026-04-08T07:12:43.316Z</time></trkpt><trkpt lat="45.6564047" lon="13.8859024"><ele>417.0</ele><time>2026-04-08T07:12:44.297Z</time></trkpt><trkpt lat="45.6564963" lon="13.886252"><ele>417.0</ele><time>2026-04-08T07:12:45.303Z</time></trkpt><trkpt lat="45.6565852" lon="13.8866032"><ele>415.5</ele><time>2026-04-08T07:12:46.301Z</time></trkpt><trkpt lat="45.656675" lon="13.8869508"><ele>414.0</ele><time>2026-04-08T07:12:47.307Z</time></trkpt><trkpt lat="45.6567649" lon="13.887297"><ele>414.0</ele><time>2026-04-08T07:12:48.3Z</time></trkpt><trkpt lat="45.6569451" lon="13.8879877"><ele>413.0</ele><time>2026-04-08T07:12:50.304Z</time></trkpt><trkpt lat="45.6570368" lon="13.888327"><ele>412.0</ele><time>2026-04-08T07:12:51.296Z</time></trkpt><trkpt lat="45.6571264" lon="13.8886699"><ele>412.0</ele><time>2026-04-08T07:12:52.324Z</time></trkpt><trkpt lat="45.6572172" lon="13.8890204"><ele>412.0</ele><time>2026-04-08T07:12:53.299Z</time></trkpt><trkpt lat="45.6573079" lon="13.889365"><ele>412.0</ele><time>2026-04-08T07:12:54.3Z</time></trkpt><trkpt lat="45.6573931" lon="13.8896975"><ele>412.0</ele><time>2026-04-08T07:12:55.308Z</time></trkpt><trkpt lat="45.6575464" lon="13.8903261"><ele>416.0</ele><time>2026-04-08T07:12:57.307Z</time></trkpt><trkpt lat="45.6576022" lon="13.8912434"><ele>416.0</ele><time>2026-04-08T07:13:00.296Z</time></trkpt><trkpt lat="45.6575945" lon="13.8915492"><ele>416.0</ele><time>2026-04-08T07:13:01.301Z</time></trkpt><trkpt lat="45.6575865" lon="13.8918665"><ele>416.0</ele><time>2026-04-08T07:13:02.308Z</time></trkpt><trkpt lat="45.657583" lon="13.892177"><ele>415.66666666666663</ele><time>2026-04-08T07:13:03.306Z</time></trkpt><trkpt lat="45.657578" lon="13.8924818"><ele>415.33333333333337</ele><time>2026-04-08T07:13:04.301Z</time></trkpt><trkpt lat="45.6575746" lon="13.8927924"><ele>415.0</ele><time>2026-04-08T07:13:05.293Z</time></trkpt><trkpt lat="45.6575677" lon="13.8931089"><ele>416.0</ele><time>2026-04-08T07:13:06.318Z</time></trkpt><trkpt lat="45.6575575" lon="13.8934254"><ele>417.0</ele><time>2026-04-08T07:13:07.318Z</time></trkpt><trkpt lat="45.6575332" lon="13.8937468"><ele>418.0</ele><time>2026-04-08T07:13:08.355Z</time></trkpt><trkpt lat="45.6575064" lon="13.8940689"><ele>419.0</ele><time>2026-04-08T07:13:09.292Z</time></trkpt><trkpt lat="45.6574798" lon="13.8943959"><ele>420.0</ele><time>2026-04-08T07:13:10.311Z</time></trkpt><trkpt lat="45.6574667" lon="13.8947205"><ele>420.0</ele><time>2026-04-08T07:13:11.31Z</time></trkpt><trkpt lat="45.6574852" lon="13.8950443"><ele>420.0</ele><time>2026-04-08T07:13:12.301Z</time></trkpt><trkpt lat="45.657521" lon="13.8953773"><ele>420.5</ele><time>2026-04-08T07:13:13.298Z</time></trkpt><trkpt lat="45.6575621" lon="13.8957165"><ele>421.0</ele><time>2026-04-08T07:13:14.293Z</time></trkpt><trkpt lat="45.657617" lon="13.8960666"><ele>421.5</ele><time>2026-04-08T07:13:15.293Z</time></trkpt><trkpt lat="45.6576882" lon="13.8964288"><ele>422.0</ele><time>2026-04-08T07:13:16.304Z</time></trkpt><trkpt lat="45.6577696" lon="13.8968036"><ele>421.5</ele><time>2026-04-08T07:13:17.305Z</time></trkpt><trkpt lat="45.6578585" lon="13.8971842"><ele>421.0</ele><time>2026-04-08T07:13:18.29Z</time></trkpt><trkpt lat="45.6579514" lon="13.8975683"><ele>422.5</ele><time>2026-04-08T07:13:19.299Z</time></trkpt><trkpt lat="45.6580495" lon="13.8979606"><ele>424.0</ele><time>2026-04-08T07:13:20.304Z</time></trkpt><trkpt lat="45.6581431" lon="13.8983551"><ele>425.0</ele><time>2026-04-08T07:13:21.299Z</time></trkpt><trkpt lat="45.6582329" lon="13.8987562"><ele>426.0</ele><time>2026-04-08T07:13:22.298Z</time></trkpt><trkpt lat="45.6583152" lon="13.8991579"><ele>426.0</ele><time>2026-04-08T07:13:23.297Z</time></trkpt><trkpt lat="45.6583941" lon="13.8995603"><ele>426.0</ele><time>2026-04-08T07:13:24.294Z</time></trkpt><trkpt lat="45.6584627" lon="13.8999519"><ele>427.0</ele><time>2026-04-08T07:13:25.301Z</time></trkpt><trkpt lat="45.6585248" lon="13.900338"><ele>428.0</ele><time>2026-04-08T07:13:26.294Z</time></trkpt><trkpt lat="45.6585958" lon="13.9007225"><ele>429.5</ele><time>2026-04-08T07:13:27.303Z</time></trkpt><trkpt lat="45.6586761" lon="13.9011002"><ele>431.0</ele><time>2026-04-08T07:13:28.296Z</time></trkpt><trkpt lat="45.6587738" lon="13.9014867"><ele>431.5</ele><time>2026-04-08T07:13:29.3Z</time></trkpt><trkpt lat="45.6588768" lon="13.9018617"><ele>432.0</ele><time>2026-04-08T07:13:30.3Z</time></trkpt><trkpt lat="45.6589882" lon="13.9022412"><ele>432.0</ele><time>2026-04-08T07:13:31.3Z</time></trkpt><trkpt lat="45.6590994" lon="13.902617"><ele>432.0</ele><time>2026-04-08T07:13:32.301Z</time></trkpt><trkpt lat="45.6592157" lon="13.9029926"><ele>432.0</ele><time>2026-04-08T07:13:33.311Z</time></trkpt><trkpt lat="45.6593273" lon="13.9033586"><ele>432.0</ele><time>2026-04-08T07:13:34.288Z</time></trkpt><trkpt lat="45.6594368" lon="13.9037019"><ele>431.5</ele><time>2026-04-08T07:13:35.293Z</time></trkpt><trkpt lat="45.6595664" lon="13.9039957"><ele>431.0</ele><time>2026-04-08T07:13:36.288Z</time></trkpt><trkpt lat="45.6597157" lon="13.9042512"><ele>430.0</ele><time>2026-04-08T07:13:37.296Z</time></trkpt><trkpt lat="45.6599017" lon="13.9044709"><ele>429.0</ele><time>2026-04-08T07:13:38.312Z</time></trkpt><trkpt lat="45.6601162" lon="13.9046801"><ele>429.0</ele><time>2026-04-08T07:13:39.308Z</time></trkpt><trkpt lat="45.6603399" lon="13.9048828"><ele>429.0</ele><time>2026-04-08T07:13:40.291Z</time></trkpt><trkpt lat="45.6605513" lon="13.9050946"><ele>429.0</ele><time>2026-04-08T07:13:41.294Z</time></trkpt><trkpt lat="45.6607367" lon="13.9052977"><ele>429.0</ele><time>2026-04-08T07:13:42.304Z</time></trkpt><trkpt lat="45.6609098" lon="13.9055075"><ele>429.0</ele><time>2026-04-08T07:13:43.293Z</time></trkpt><trkpt lat="45.6610345" lon="13.9057535"><ele>429.0</ele><time>2026-04-08T07:13:44.297Z</time></trkpt><trkpt lat="45.6611239" lon="13.9060458"><ele>429.0</ele><time>2026-04-08T07:13:45.294Z</time></trkpt><trkpt lat="45.6611703" lon="13.9063651"><ele>428.0</ele><time>2026-04-08T07:13:46.292Z</time></trkpt><trkpt lat="45.6611748" lon="13.9066926"><ele>427.0</ele><time>2026-04-08T07:13:47.29Z</time></trkpt><trkpt lat="45.6611462" lon="13.907033"><ele>429.5</ele><time>2026-04-08T07:13:48.291Z</time></trkpt><trkpt lat="45.6611067" lon="13.9073721"><ele>432.0</ele><time>2026-04-08T07:13:49.294Z</time></trkpt><trkpt lat="45.6610691" lon="13.9077207"><ele>433.0</ele><time>2026-04-08T07:13:50.293Z</time></trkpt><trkpt lat="45.6610323" lon="13.9080768"><ele>434.0</ele><time>2026-04-08T07:13:51.31Z</time></trkpt><trkpt lat="45.6609949" lon="13.9084434"><ele>435.5</ele><time>2026-04-08T07:13:52.289Z</time></trkpt><trkpt lat="45.6609478" lon="13.9088227"><ele>437.0</ele><time>2026-04-08T07:13:53.287Z</time></trkpt><trkpt lat="45.6608928" lon="13.9092146"><ele>437.5</ele><time>2026-04-08T07:13:54.283Z</time></trkpt><trkpt lat="45.6608368" lon="13.9096091"><ele>438.0</ele><time>2026-04-08T07:13:55.288Z</time></trkpt><trkpt lat="45.6607797" lon="13.9100031"><ele>438.0</ele><time>2026-04-08T07:13:56.291Z</time></trkpt><trkpt lat="45.6607281" lon="13.9103918"><ele>438.0</ele><time>2026-04-08T07:13:57.292Z</time></trkpt><trkpt lat="45.6606721" lon="13.91078"><ele>437.5</ele><time>2026-04-08T07:13:58.285Z</time></trkpt><trkpt lat="45.6606197" lon="13.9111627"><ele>437.0</ele><time>2026-04-08T07:13:59.297Z</time></trkpt><trkpt lat="45.6605701" lon="13.9115253"><ele>438.0</ele><time>2026-04-08T07:14:00.291Z</time></trkpt><trkpt lat="45.6605254" lon="13.9118607"><ele>439.0</ele><time>2026-04-08T07:14:01.286Z</time></trkpt><trkpt lat="45.6605011" lon="13.9121825"><ele>439.0</ele><time>2026-04-08T07:14:02.283Z</time></trkpt><trkpt lat="45.6605064" lon="13.9125081"><ele>439.0</ele><time>2026-04-08T07:14:03.31Z</time></trkpt><trkpt lat="45.6605415" lon="13.9128486"><ele>439.5</ele><time>2026-04-08T07:14:04.285Z</time></trkpt><trkpt lat="45.6605847" lon="13.913197"><ele>440.0</ele><time>2026-04-08T07:14:05.283Z</time></trkpt><trkpt lat="45.6606362" lon="13.9135488"><ele>440.0</ele><time>2026-04-08T07:14:06.3Z</time></trkpt><trkpt lat="45.6606861" lon="13.9138919"><ele>440.0</ele><time>2026-04-08T07:14:07.291Z</time></trkpt><trkpt lat="45.6607168" lon="13.9142349"><ele>438.5</ele><time>2026-04-08T07:14:08.298Z</time></trkpt><trkpt lat="45.6607168" lon="13.9145953"><ele>437.0</ele><time>2026-04-08T07:14:09.288Z</time></trkpt><trkpt lat="45.6607002" lon="13.9149715"><ele>439.0</ele><time>2026-04-08T07:14:10.287Z</time></trkpt><trkpt lat="45.6606848" lon="13.9153502"><ele>441.0</ele><time>2026-04-08T07:14:11.286Z</time></trkpt><trkpt lat="45.6606627" lon="13.9157325"><ele>442.5</ele><time>2026-04-08T07:14:12.288Z</time></trkpt><trkpt lat="45.660642" lon="13.9161077"><ele>444.0</ele><time>2026-04-08T07:14:13.296Z</time></trkpt><trkpt lat="45.6606284" lon="13.9164588"><ele>444.33333333333337</ele><time>2026-04-08T07:14:14.298Z</time></trkpt><trkpt lat="45.660628" lon="13.916779"><ele>444.6666666666667</ele><time>2026-04-08T07:14:15.292Z</time></trkpt><trkpt lat="45.6606458" lon="13.9170951"><ele>445.0</ele><time>2026-04-08T07:14:16.288Z</time></trkpt><trkpt lat="45.660785" lon="13.9177282"><ele>446.5</ele><time>2026-04-08T07:14:18.281Z</time></trkpt><trkpt lat="45.660876" lon="13.9180468"><ele>448.0</ele><time>2026-04-08T07:14:19.294Z</time></trkpt><trkpt lat="45.6609668" lon="13.9183654"><ele>447.6666666666667</ele><time>2026-04-08T07:14:20.304Z</time></trkpt><trkpt lat="45.6610452" lon="13.9186739"><ele>447.33333333333337</ele><time>2026-04-08T07:14:21.305Z</time></trkpt><trkpt lat="45.6610982" lon="13.9189732"><ele>447.0</ele><time>2026-04-08T07:14:22.289Z</time></trkpt><trkpt lat="45.6611223" lon="13.9192868"><ele>446.0</ele><time>2026-04-08T07:14:23.293Z</time></trkpt><trkpt lat="45.6611191" lon="13.9196137"><ele>445.0</ele><time>2026-04-08T07:14:24.282Z</time></trkpt><trkpt lat="45.6611097" lon="13.9199444"><ele>445.6666666666667</ele><time>2026-04-08T07:14:25.307Z</time></trkpt><trkpt lat="45.6610855" lon="13.9202623"><ele>446.33333333333337</ele><time>2026-04-08T07:14:26.28Z</time></trkpt><trkpt lat="45.6610762" lon="13.9205852"><ele>447.0</ele><time>2026-04-08T07:14:27.294Z</time></trkpt><trkpt lat="45.661073" lon="13.920899"><ele>447.33333333333337</ele><time>2026-04-08T07:14:28.298Z</time></trkpt><trkpt lat="45.6610802" lon="13.9212129"><ele>447.6666666666667</ele><time>2026-04-08T07:14:29.282Z</time></trkpt><trkpt lat="45.6610962" lon="13.9215295"><ele>448.0</ele><time>2026-04-08T07:14:30.291Z</time></trkpt><trkpt lat="45.6611188" lon="13.92184"><ele>446.6666666666667</ele><time>2026-04-08T07:14:31.292Z</time></trkpt><trkpt lat="45.6611491" lon="13.9221371"><ele>445.33333333333337</ele><time>2026-04-08T07:14:32.285Z</time></trkpt><trkpt lat="45.6611838" lon="13.9224085"><ele>444.0</ele><time>2026-04-08T07:14:33.297Z</time></trkpt><trkpt lat="45.6612248" lon="13.9226551"><ele>443.5</ele><time>2026-04-08T07:14:34.284Z</time></trkpt><trkpt lat="45.6612613" lon="13.9228729"><ele>443.0</ele><time>2026-04-08T07:14:35.283Z</time></trkpt><trkpt lat="45.6612819" lon="13.9230789"><ele>442.5</ele><time>2026-04-08T07:14:36.285Z</time></trkpt><trkpt lat="45.6612754" lon="13.9232623"><ele>442.0</ele><time>2026-04-08T07:14:37.285Z</time></trkpt><trkpt lat="45.6612436" lon="13.9234152"><ele>441.5</ele><time>2026-04-08T07:14:38.284Z</time></trkpt><trkpt lat="45.6612077" lon="13.9235489"><ele>441.0</ele><time>2026-04-08T07:14:39.282Z</time></trkpt><trkpt lat="45.6611905" lon="13.923703"><ele>440.5</ele><time>2026-04-08T07:14:40.289Z</time></trkpt><trkpt lat="45.6611946" lon="13.9238876"><ele>440.0</ele><time>2026-04-08T07:14:41.283Z</time></trkpt><trkpt lat="45.661165" lon="13.9240942"><ele>440.66666666666663</ele><time>2026-04-08T07:14:42.308Z</time></trkpt><trkpt lat="45.6611072" lon="13.9242906"><ele>441.33333333333337</ele><time>2026-04-08T07:14:43.284Z</time></trkpt><trkpt lat="45.6610375" lon="13.9244885"><ele>442.0</ele><time>2026-04-08T07:14:44.277Z</time></trkpt><trkpt lat="45.6609766" lon="13.9246995"><ele>442.0</ele><time>2026-04-08T07:14:45.29Z</time></trkpt><trkpt lat="45.6609224" lon="13.9249128"><ele>442.0</ele><time>2026-04-08T07:14:46.291Z</time></trkpt><trkpt lat="45.660865" lon="13.9251223"><ele>442.0</ele><time>2026-04-08T07:14:47.296Z</time></trkpt><trkpt lat="45.6608189" lon="13.925317"><ele>442.0</ele><time>2026-04-08T07:14:48.3Z</time></trkpt><trkpt lat="45.660783" lon="13.9255116"><ele>442.0</ele><time>2026-04-08T07:14:49.283Z</time></trkpt><trkpt lat="45.6607545" lon="13.9257028"><ele>442.0</ele><time>2026-04-08T07:14:50.306Z</time></trkpt><trkpt lat="45.6607559" lon="13.9258899"><ele>442.0</ele><time>2026-04-08T07:14:51.294Z</time></trkpt><trkpt lat="45.6607855" lon="13.9260746"><ele>444.33333333333337</ele><time>2026-04-08T07:14:52.278Z</time></trkpt><trkpt lat="45.6608367" lon="13.9262607"><ele>446.66666666666663</ele><time>2026-04-08T07:14:53.277Z</time></trkpt><trkpt lat="45.6609578" lon="13.9265947"><ele>449.0</ele><time>2026-04-08T07:14:55.288Z</time></trkpt><trkpt lat="45.6610245" lon="13.9267364"><ele>449.4</ele><time>2026-04-08T07:14:56.282Z</time></trkpt><trkpt lat="45.6610937" lon="13.9268714"><ele>449.79999999999995</ele><time>2026-04-08T07:14:57.276Z</time></trkpt><trkpt lat="45.6611569" lon="13.9270128"><ele>450.20000000000005</ele><time>2026-04-08T07:14:58.285Z</time></trkpt><trkpt lat="45.6612147" lon="13.9271449"><ele>450.6</ele><time>2026-04-08T07:14:59.274Z</time></trkpt><trkpt lat="45.6612349" lon="13.9272879"><ele>451.0</ele><time>2026-04-08T07:15:00.28Z</time></trkpt><trkpt lat="45.6612237" lon="13.9274271"><ele>451.0</ele><time>2026-04-08T07:15:01.282Z</time></trkpt><trkpt lat="45.6611771" lon="13.9275535"><ele>451.0</ele><time>2026-04-08T07:15:02.279Z</time></trkpt><trkpt lat="45.6611121" lon="13.927668"><ele>451.0</ele><time>2026-04-08T07:15:03.273Z</time></trkpt><trkpt lat="45.6610447" lon="13.9277959"><ele>451.0</ele><time>2026-04-08T07:15:04.291Z</time></trkpt><trkpt lat="45.6609792" lon="13.9279308"><ele>451.0</ele><time>2026-04-08T07:15:05.286Z</time></trkpt><trkpt lat="45.6609233" lon="13.9280643"><ele>451.5</ele><time>2026-04-08T07:15:06.286Z</time></trkpt><trkpt lat="45.6608878" lon="13.9282117"><ele>452.0</ele><time>2026-04-08T07:15:07.279Z</time></trkpt><trkpt lat="45.6608826" lon="13.9283863"><ele>452.5</ele><time>2026-04-08T07:15:08.275Z</time></trkpt><trkpt lat="45.6608918" lon="13.9285703"><ele>453.0</ele><time>2026-04-08T07:15:09.272Z</time></trkpt><trkpt lat="45.6608929" lon="13.9287577"><ele>453.0</ele><time>2026-04-08T07:15:10.278Z</time></trkpt><trkpt lat="45.6608986" lon="13.9289468"><ele>453.0</ele><time>2026-04-08T07:15:11.29Z</time></trkpt><trkpt lat="45.6609051" lon="13.9291365"><ele>453.0</ele><time>2026-04-08T07:15:12.296Z</time></trkpt><trkpt lat="45.6609093" lon="13.9293241"><ele>453.0</ele><time>2026-04-08T07:15:13.289Z</time></trkpt><trkpt lat="45.6609074" lon="13.9295134"><ele>453.25</ele><time>2026-04-08T07:15:14.285Z</time></trkpt><trkpt lat="45.6609025" lon="13.9297032"><ele>453.5</ele><time>2026-04-08T07:15:15.285Z</time></trkpt><trkpt lat="45.6608906" lon="13.9298975"><ele>453.75</ele><time>2026-04-08T07:15:16.276Z</time></trkpt><trkpt lat="45.6608649" lon="13.9300847"><ele>454.0</ele><time>2026-04-08T07:15:17.296Z</time></trkpt><trkpt lat="45.6608335" lon="13.930259"><ele>454.0</ele><time>2026-04-08T07:15:18.275Z</time></trkpt><trkpt lat="45.6607955" lon="13.9304309"><ele>454.0</ele><time>2026-04-08T07:15:19.28Z</time></trkpt><trkpt lat="45.6607652" lon="13.9306117"><ele>454.0</ele><time>2026-04-08T07:15:20.286Z</time></trkpt><trkpt lat="45.6607409" lon="13.9307963"><ele>454.0</ele><time>2026-04-08T07:15:21.283Z</time></trkpt><trkpt lat="45.660724" lon="13.9309736"><ele>454.25</ele><time>2026-04-08T07:15:22.272Z</time></trkpt><trkpt lat="45.6607099" lon="13.9311391"><ele>454.5</ele><time>2026-04-08T07:15:23.278Z</time></trkpt><trkpt lat="45.6607076" lon="13.931316"><ele>454.75</ele><time>2026-04-08T07:15:24.271Z</time></trkpt><trkpt lat="45.6607099" lon="13.9314916"><ele>455.0</ele><time>2026-04-08T07:15:25.281Z</time></trkpt><trkpt lat="45.6607352" lon="13.9316691"><ele>455.0</ele><time>2026-04-08T07:15:26.287Z</time></trkpt><trkpt lat="45.6607756" lon="13.9318556"><ele>455.0</ele><time>2026-04-08T07:15:27.298Z</time></trkpt><trkpt lat="45.6608221" lon="13.9320453"><ele>455.0</ele><time>2026-04-08T07:15:28.273Z</time></trkpt><trkpt lat="45.6608569" lon="13.9322422"><ele>455.0</ele><time>2026-04-08T07:15:29.284Z</time></trkpt><trkpt lat="45.6608759" lon="13.9324557"><ele>454.75</ele><time>2026-04-08T07:15:30.287Z</time></trkpt><trkpt lat="45.6608717" lon="13.9326577"><ele>454.5</ele><time>2026-04-08T07:15:31.281Z</time></trkpt><trkpt lat="45.6608776" lon="13.9328569"><ele>454.25</ele><time>2026-04-08T07:15:32.274Z</time></trkpt><trkpt lat="45.6609006" lon="13.9330521"><ele>454.0</ele><time>2026-04-08T07:15:33.276Z</time></trkpt><trkpt lat="45.6609466" lon="13.933265"><ele>453.33333333333337</ele><time>2026-04-08T07:15:34.271Z</time></trkpt><trkpt lat="45.6610067" lon="13.9335028"><ele>452.66666666666663</ele><time>2026-04-08T07:15:35.28Z</time></trkpt><trkpt lat="45.6610742" lon="13.9337635"><ele>452.0</ele><time>2026-04-08T07:15:36.287Z</time></trkpt><trkpt lat="45.6611301" lon="13.9340481"><ele>452.66666666666663</ele><time>2026-04-08T07:15:37.276Z</time></trkpt><trkpt lat="45.6611676" lon="13.9343421"><ele>453.33333333333337</ele><time>2026-04-08T07:15:38.283Z</time></trkpt><trkpt lat="45.6612036" lon="13.9346485"><ele>454.0</ele><time>2026-04-08T07:15:39.278Z</time></trkpt><trkpt lat="45.6612397" lon="13.9349629"><ele>456.0</ele><time>2026-04-08T07:15:40.275Z</time></trkpt><trkpt lat="45.6612787" lon="13.9352722"><ele>458.0</ele><time>2026-04-08T07:15:41.27Z</time></trkpt><trkpt lat="45.6613124" lon="13.9355704"><ele>460.0</ele><time>2026-04-08T07:15:42.274Z</time></trkpt><trkpt lat="45.661346" lon="13.9358649"><ele>460.33333333333337</ele><time>2026-04-08T07:15:43.286Z</time></trkpt><trkpt lat="45.6613785" lon="13.9361659"><ele>460.66666666666663</ele><time>2026-04-08T07:15:44.277Z</time></trkpt><trkpt lat="45.6614173" lon="13.9364669"><ele>461.0</ele><time>2026-04-08T07:15:45.283Z</time></trkpt><trkpt lat="45.6614558" lon="13.9367777"><ele>461.0</ele><time>2026-04-08T07:15:46.272Z</time></trkpt><trkpt lat="45.6615045" lon="13.9370835"><ele>461.0</ele><time>2026-04-08T07:15:47.27Z</time></trkpt><trkpt lat="45.661582" lon="13.9373912"><ele>461.0</ele><time>2026-04-08T07:15:48.273Z</time></trkpt><trkpt lat="45.6616824" lon="13.9376965"><ele>463.0</ele><time>2026-04-08T07:15:49.267Z</time></trkpt><trkpt lat="45.6618087" lon="13.9379966"><ele>465.0</ele><time>2026-04-08T07:15:50.272Z</time></trkpt><trkpt lat="45.6619653" lon="13.9382958"><ele>461.5</ele><time>2026-04-08T07:15:51.267Z</time></trkpt><trkpt lat="45.6621557" lon="13.9385701"><ele>458.0</ele><time>2026-04-08T07:15:52.28Z</time></trkpt><trkpt lat="45.6623588" lon="13.9388467"><ele>458.0</ele><time>2026-04-08T07:15:53.279Z</time></trkpt><trkpt lat="45.6625629" lon="13.9391194"><ele>458.0</ele><time>2026-04-08T07:15:54.278Z</time></trkpt><trkpt lat="45.6627719" lon="13.9393868"><ele>459.5</ele><time>2026-04-08T07:15:55.277Z</time></trkpt><trkpt lat="45.6629908" lon="13.939646"><ele>461.0</ele><time>2026-04-08T07:15:56.271Z</time></trkpt><trkpt lat="45.6634687" lon="13.9401365"><ele>455.5</ele><time>2026-04-08T07:15:58.271Z</time></trkpt><trkpt lat="45.6637104" lon="13.9403633"><ele>450.0</ele><time>2026-04-08T07:15:59.274Z</time></trkpt><trkpt lat="45.6641356" lon="13.9408459"><ele>448.5</ele><time>2026-04-08T07:16:01.276Z</time></trkpt><trkpt lat="45.6643282" lon="13.9411189"><ele>447.0</ele><time>2026-04-08T07:16:02.273Z</time></trkpt><trkpt lat="45.664523" lon="13.9414089"><ele>448.0</ele><time>2026-04-08T07:16:03.289Z</time></trkpt><trkpt lat="45.6647178" lon="13.9417055"><ele>449.0</ele><time>2026-04-08T07:16:04.33Z</time></trkpt><trkpt lat="45.6650741" lon="13.9423338"><ele>447.0</ele><time>2026-04-08T07:16:06.27Z</time></trkpt><trkpt lat="45.6652442" lon="13.9426323"><ele>445.0</ele><time>2026-04-08T07:16:07.268Z</time></trkpt><trkpt lat="45.6654091" lon="13.9429166"><ele>446.5</ele><time>2026-04-08T07:16:08.269Z</time></trkpt><trkpt lat="45.6655708" lon="13.9432025"><ele>448.0</ele><time>2026-04-08T07:16:09.268Z</time></trkpt><trkpt lat="45.6657304" lon="13.9434986"><ele>448.0</ele><time>2026-04-08T07:16:10.277Z</time></trkpt><trkpt lat="45.6660603" lon="13.9440687"><ele>448.0</ele><time>2026-04-08T07:16:12.263Z</time></trkpt><trkpt lat="45.6662191" lon="13.9443241"><ele>448.0</ele><time>2026-04-08T07:16:13.264Z</time></trkpt><trkpt lat="45.6664034" lon="13.944547"><ele>448.0</ele><time>2026-04-08T07:16:14.275Z</time></trkpt><trkpt lat="45.6666157" lon="13.9447492"><ele>448.0</ele><time>2026-04-08T07:16:15.284Z</time></trkpt><trkpt lat="45.6668339" lon="13.9449553"><ele>449.5</ele><time>2026-04-08T07:16:16.268Z</time></trkpt><trkpt lat="45.6670616" lon="13.9451596"><ele>451.0</ele><time>2026-04-08T07:16:17.316Z</time></trkpt><trkpt lat="45.6672922" lon="13.9453798"><ele>451.0</ele><time>2026-04-08T07:16:18.269Z</time></trkpt><trkpt lat="45.6675356" lon="13.945592"><ele>451.0</ele><time>2026-04-08T07:16:19.28Z</time></trkpt><trkpt lat="45.6677737" lon="13.9457982"><ele>452.0</ele><time>2026-04-08T07:16:20.274Z</time></trkpt><trkpt lat="45.668015" lon="13.9459958"><ele>453.0</ele><time>2026-04-08T07:16:21.265Z</time></trkpt><trkpt lat="45.6682547" lon="13.9461832"><ele>453.0</ele><time>2026-04-08T07:16:22.269Z</time></trkpt><trkpt lat="45.6684993" lon="13.9463578"><ele>453.0</ele><time>2026-04-08T07:16:23.27Z</time></trkpt><trkpt lat="45.6687502" lon="13.9465312"><ele>455.0</ele><time>2026-04-08T07:16:24.271Z</time></trkpt><trkpt lat="45.6690008" lon="13.9467067"><ele>457.0</ele><time>2026-04-08T07:16:25.264Z</time></trkpt><trkpt lat="45.6692575" lon="13.9468849"><ele>455.0</ele><time>2026-04-08T07:16:26.272Z</time></trkpt><trkpt lat="45.6695137" lon="13.9470602"><ele>453.0</ele><time>2026-04-08T07:16:27.267Z</time></trkpt><trkpt lat="45.6697684" lon="13.9472317"><ele>453.0</ele><time>2026-04-08T07:16:28.264Z</time></trkpt><trkpt lat="45.6700215" lon="13.9474054"><ele>453.0</ele><time>2026-04-08T07:16:29.274Z</time></trkpt><trkpt lat="45.6702811" lon="13.9475772"><ele>452.0</ele><time>2026-04-08T07:16:30.259Z</time></trkpt><trkpt lat="45.6705341" lon="13.9477535"><ele>451.0</ele><time>2026-04-08T07:16:31.26Z</time></trkpt><trkpt lat="45.6707868" lon="13.9479293"><ele>451.0</ele><time>2026-04-08T07:16:32.257Z</time></trkpt><trkpt lat="45.6710373" lon="13.9481083"><ele>451.0</ele><time>2026-04-08T07:16:33.28Z</time></trkpt><trkpt lat="45.6712943" lon="13.9482915"><ele>447.0</ele><time>2026-04-08T07:16:34.281Z</time></trkpt><trkpt lat="45.6715502" lon="13.9484707"><ele>443.0</ele><time>2026-04-08T07:16:35.261Z</time></trkpt><trkpt lat="45.6717908" lon="13.9486425"><ele>442.0</ele><time>2026-04-08T07:16:36.263Z</time></trkpt><trkpt lat="45.6720226" lon="13.9488044"><ele>441.0</ele><time>2026-04-08T07:16:37.26Z</time></trkpt><trkpt lat="45.6722377" lon="13.9489544"><ele>441.0</ele><time>2026-04-08T07:16:38.266Z</time></trkpt><trkpt lat="45.6724512" lon="13.9491118"><ele>441.0</ele><time>2026-04-08T07:16:39.278Z</time></trkpt><trkpt lat="45.6726425" lon="13.949294"><ele>440.0</ele><time>2026-04-08T07:16:40.273Z</time></trkpt><trkpt lat="45.6727963" lon="13.9495471"><ele>439.0</ele><time>2026-04-08T07:16:41.269Z</time></trkpt><trkpt lat="45.6729049" lon="13.9498675"><ele>439.5</ele><time>2026-04-08T07:16:42.263Z</time></trkpt><trkpt lat="45.6730252" lon="13.9502083"><ele>440.0</ele><time>2026-04-08T07:16:43.258Z</time></trkpt><trkpt lat="45.6731258" lon="13.9505463"><ele>440.5</ele><time>2026-04-08T07:16:44.259Z</time></trkpt><trkpt lat="45.6732137" lon="13.9508744"><ele>441.0</ele><time>2026-04-08T07:16:45.265Z</time></trkpt><trkpt lat="45.6733254" lon="13.951187"><ele>441.0</ele><time>2026-04-08T07:16:46.268Z</time></trkpt><trkpt lat="45.6734494" lon="13.9514563"><ele>441.0</ele><time>2026-04-08T07:16:47.262Z</time></trkpt><trkpt lat="45.6735836" lon="13.9517015"><ele>441.0</ele><time>2026-04-08T07:16:48.272Z</time></trkpt><trkpt lat="45.6737481" lon="13.9519217"><ele>440.5</ele><time>2026-04-08T07:16:49.276Z</time></trkpt><trkpt lat="45.6739407" lon="13.9521127"><ele>440.0</ele><time>2026-04-08T07:16:50.253Z</time></trkpt><trkpt lat="45.6741497" lon="13.9522681"><ele>440.0</ele><time>2026-04-08T07:16:51.265Z</time></trkpt><trkpt lat="45.6743879" lon="13.9523956"><ele>440.0</ele><time>2026-04-08T07:16:52.259Z</time></trkpt><trkpt lat="45.6746443" lon="13.9524967"><ele>439.5</ele><time>2026-04-08T07:16:53.259Z</time></trkpt><trkpt lat="45.6749157" lon="13.9525968"><ele>439.0</ele><time>2026-04-08T07:16:54.264Z</time></trkpt><trkpt lat="45.6751801" lon="13.9527169"><ele>439.0</ele><time>2026-04-08T07:16:55.258Z</time></trkpt><trkpt lat="45.6754527" lon="13.9528763"><ele>439.0</ele><time>2026-04-08T07:16:56.264Z</time></trkpt><trkpt lat="45.6757215" lon="13.9530537"><ele>439.0</ele><time>2026-04-08T07:16:57.275Z</time></trkpt><trkpt lat="45.6759908" lon="13.9532406"><ele>439.0</ele><time>2026-04-08T07:16:58.262Z</time></trkpt><trkpt lat="45.6762776" lon="13.9534337"><ele>442.0</ele><time>2026-04-08T07:16:59.257Z</time></trkpt><trkpt lat="45.6768621" lon="13.9538137"><ele>445.5</ele><time>2026-04-08T07:17:01.251Z</time></trkpt><trkpt lat="45.6771507" lon="13.9540063"><ele>449.0</ele><time>2026-04-08T07:17:02.261Z</time></trkpt><trkpt lat="45.6774256" lon="13.9541844"><ele>449.0</ele><time>2026-04-08T07:17:03.289Z</time></trkpt><trkpt lat="45.6776804" lon="13.9543656"><ele>449.0</ele><time>2026-04-08T07:17:04.256Z</time></trkpt><trkpt lat="45.6779298" lon="13.9545314"><ele>449.0</ele><time>2026-04-08T07:17:05.299Z</time></trkpt><trkpt lat="45.6781728" lon="13.9546938"><ele>449.0</ele><time>2026-04-08T07:17:06.25Z</time></trkpt><trkpt lat="45.6784101" lon="13.9548472"><ele>446.0</ele><time>2026-04-08T07:17:07.255Z</time></trkpt><trkpt lat="45.6788203" lon="13.9551791"><ele>446.0</ele><time>2026-04-08T07:17:09.261Z</time></trkpt><trkpt lat="45.6789768" lon="13.9554016"><ele>446.0</ele><time>2026-04-08T07:17:10.257Z</time></trkpt><trkpt lat="45.6791682" lon="13.955956"><ele>444.0</ele><time>2026-04-08T07:17:12.256Z</time></trkpt><trkpt lat="45.6791984" lon="13.9564758"><ele>442.0</ele><time>2026-04-08T07:17:14.26Z</time></trkpt><trkpt lat="45.6791774" lon="13.956708"><ele>442.0</ele><time>2026-04-08T07:17:15.28Z</time></trkpt><trkpt lat="45.6791399" lon="13.9569324"><ele>442.0</ele><time>2026-04-08T07:17:16.258Z</time></trkpt><trkpt lat="45.6790994" lon="13.9571576"><ele>442.0</ele><time>2026-04-08T07:17:17.258Z</time></trkpt><trkpt lat="45.6790577" lon="13.9573884"><ele>442.6666666666667</ele><time>2026-04-08T07:17:18.255Z</time></trkpt><trkpt lat="45.6790095" lon="13.9576369"><ele>443.33333333333337</ele><time>2026-04-08T07:17:19.249Z</time></trkpt><trkpt lat="45.6789595" lon="13.9579057"><ele>444.0</ele><time>2026-04-08T07:17:20.255Z</time></trkpt><trkpt lat="45.6789069" lon="13.9581958"><ele>444.0</ele><time>2026-04-08T07:17:21.258Z</time></trkpt><trkpt lat="45.6788466" lon="13.9585139"><ele>444.0</ele><time>2026-04-08T07:17:22.259Z</time></trkpt><trkpt lat="45.6787839" lon="13.9588492"><ele>444.0</ele><time>2026-04-08T07:17:23.261Z</time></trkpt><trkpt lat="45.6787207" lon="13.9591986"><ele>444.0</ele><time>2026-04-08T07:17:24.272Z</time></trkpt><trkpt lat="45.6786525" lon="13.959553"><ele>442.0</ele><time>2026-04-08T07:17:25.258Z</time></trkpt><trkpt lat="45.6785841" lon="13.959918"><ele>440.0</ele><time>2026-04-08T07:17:26.259Z</time></trkpt><trkpt lat="45.6785168" lon="13.9602854"><ele>440.0</ele><time>2026-04-08T07:17:27.268Z</time></trkpt><trkpt lat="45.6784446" lon="13.9606592"><ele>440.0</ele><time>2026-04-08T07:17:28.258Z</time></trkpt><trkpt lat="45.6783705" lon="13.96103"><ele>439.5</ele><time>2026-04-08T07:17:29.265Z</time></trkpt><trkpt lat="45.6783013" lon="13.9613939"><ele>439.0</ele><time>2026-04-08T07:17:30.255Z</time></trkpt><trkpt lat="45.6782352" lon="13.9617486"><ele>439.0</ele><time>2026-04-08T07:17:31.254Z</time></trkpt><trkpt lat="45.6781178" lon="13.9624406"><ele>438.5</ele><time>2026-04-08T07:17:33.248Z</time></trkpt><trkpt lat="45.6780817" lon="13.9628031"><ele>438.0</ele><time>2026-04-08T07:17:34.257Z</time></trkpt><trkpt lat="45.6780614" lon="13.9631853"><ele>436.5</ele><time>2026-04-08T07:17:35.25Z</time></trkpt><trkpt lat="45.6780722" lon="13.9635705"><ele>435.0</ele><time>2026-04-08T07:17:36.249Z</time></trkpt><trkpt lat="45.6781178" lon="13.9639561"><ele>429.0</ele><time>2026-04-08T07:17:37.247Z</time></trkpt><trkpt lat="45.6782591" lon="13.9647171"><ele>421.0</ele><time>2026-04-08T07:17:39.264Z</time></trkpt><trkpt lat="45.6783366" lon="13.9650995"><ele>413.0</ele><time>2026-04-08T07:17:40.25Z</time></trkpt><trkpt lat="45.6784084" lon="13.9654731"><ele>413.0</ele><time>2026-04-08T07:17:41.247Z</time></trkpt><trkpt lat="45.6784739" lon="13.9658266"><ele>413.0</ele><time>2026-04-08T07:17:42.265Z</time></trkpt><trkpt lat="45.6785351" lon="13.9661558"><ele>421.5</ele><time>2026-04-08T07:17:43.251Z</time></trkpt><trkpt lat="45.6786033" lon="13.966464"><ele>430.0</ele><time>2026-04-08T07:17:44.246Z</time></trkpt><trkpt lat="45.6788186" lon="13.96703"><ele>432.0</ele><time>2026-04-08T07:17:46.256Z</time></trkpt><trkpt lat="45.6789569" lon="13.9672983"><ele>434.0</ele><time>2026-04-08T07:17:47.255Z</time></trkpt><trkpt lat="45.679106" lon="13.967556"><ele>433.66666666666663</ele><time>2026-04-08T07:17:48.251Z</time></trkpt><trkpt lat="45.6792607" lon="13.9677897"><ele>433.33333333333337</ele><time>2026-04-08T07:17:49.25Z</time></trkpt><trkpt lat="45.6794118" lon="13.9680018"><ele>433.0</ele><time>2026-04-08T07:17:50.25Z</time></trkpt><trkpt lat="45.6795368" lon="13.9681984"><ele>435.0</ele><time>2026-04-08T07:17:51.265Z</time></trkpt><trkpt lat="45.6796462" lon="13.9683775"><ele>437.0</ele><time>2026-04-08T07:17:52.259Z</time></trkpt><trkpt lat="45.6797316" lon="13.9685572"><ele>439.0</ele><time>2026-04-08T07:17:53.254Z</time></trkpt><trkpt lat="45.6797974" lon="13.9687398"><ele>439.0</ele><time>2026-04-08T07:17:54.251Z</time></trkpt><trkpt lat="45.6798438" lon="13.9689227"><ele>439.0</ele><time>2026-04-08T07:17:55.353Z</time></trkpt><trkpt lat="45.679878" lon="13.9693163"><ele>439.0</ele><time>2026-04-08T07:17:57.256Z</time></trkpt><trkpt lat="45.679864" lon="13.9695236"><ele>438.75</ele><time>2026-04-08T07:17:58.257Z</time></trkpt><trkpt lat="45.6798313" lon="13.969718"><ele>438.5</ele><time>2026-04-08T07:17:59.25Z</time></trkpt><trkpt lat="45.6797905" lon="13.9699005"><ele>438.25</ele><time>2026-04-08T07:18:00.255Z</time></trkpt><trkpt lat="45.6797332" lon="13.9700532"><ele>438.0</ele><time>2026-04-08T07:18:01.357Z</time></trkpt><trkpt lat="45.6796704" lon="13.9701777"><ele>439.0</ele><time>2026-04-08T07:18:02.362Z</time></trkpt><trkpt lat="45.6795223" lon="13.9703635"><ele>440.0</ele><time>2026-04-08T07:18:04.258Z</time></trkpt><trkpt lat="45.6794606" lon="13.9704698"><ele>441.0</ele><time>2026-04-08T07:18:05.25Z</time></trkpt><trkpt lat="45.6794463" lon="13.9705988"><ele>442.0</ele><time>2026-04-08T07:18:06.357Z</time></trkpt><trkpt lat="45.6794593" lon="13.9707474"><ele>442.0</ele><time>2026-04-08T07:18:07.346Z</time></trkpt><trkpt lat="45.6794536" lon="13.970891"><ele>442.0</ele><time>2026-04-08T07:18:08.352Z</time></trkpt><trkpt lat="45.67941" lon="13.9710249"><ele>442.0</ele><time>2026-04-08T07:18:09.354Z</time></trkpt><trkpt lat="45.6792971" lon="13.9712994"><ele>442.0</ele><time>2026-04-08T07:18:11.262Z</time></trkpt><trkpt lat="45.6792533" lon="13.971399"><ele>442.0</ele><time>2026-04-08T07:18:12.368Z</time></trkpt><trkpt lat="45.679204" lon="13.9715209"><ele>442.00000000000006</ele><time>2026-04-08T07:18:14.352Z</time></trkpt><trkpt lat="45.6792181" lon="13.9716372"><ele>442.00000000000006</ele><time>2026-04-08T07:18:16.353Z</time></trkpt><trkpt lat="45.6792693" lon="13.9717322"><ele>442.0</ele><time>2026-04-08T07:18:17.257Z</time></trkpt><trkpt lat="45.6793632" lon="13.9718154"><ele>442.0</ele><time>2026-04-08T07:18:18.354Z</time></trkpt><trkpt lat="45.679508" lon="13.9718894"><ele>442.0</ele><time>2026-04-08T07:18:19.361Z</time></trkpt><trkpt lat="45.6796866" lon="13.9719594"><ele>442.0</ele><time>2026-04-08T07:18:20.364Z</time></trkpt><trkpt lat="45.6798837" lon="13.9720296"><ele>442.0</ele><time>2026-04-08T07:18:21.349Z</time></trkpt><trkpt lat="45.6801042" lon="13.9720769"><ele>441.0</ele><time>2026-04-08T07:18:22.357Z</time></trkpt><trkpt lat="45.6803438" lon="13.9720923"><ele>440.0</ele><time>2026-04-08T07:18:23.35Z</time></trkpt><trkpt lat="45.680597" lon="13.97208"><ele>440.0</ele><time>2026-04-08T07:18:24.345Z</time></trkpt><trkpt lat="45.6808576" lon="13.9720602"><ele>440.0</ele><time>2026-04-08T07:18:25.357Z</time></trkpt><trkpt lat="45.6811287" lon="13.9720373"><ele>440.0</ele><time>2026-04-08T07:18:26.354Z</time></trkpt><trkpt lat="45.6814063" lon="13.9720075"><ele>440.0</ele><time>2026-04-08T07:18:27.357Z</time></trkpt><trkpt lat="45.6816796" lon="13.971988"><ele>439.5</ele><time>2026-04-08T07:18:28.348Z</time></trkpt><trkpt lat="45.6819511" lon="13.9719921"><ele>439.0</ele><time>2026-04-08T07:18:29.367Z</time></trkpt><trkpt lat="45.6822162" lon="13.9720147"><ele>439.0</ele><time>2026-04-08T07:18:30.35Z</time></trkpt><trkpt lat="45.6824713" lon="13.9720633"><ele>439.0</ele><time>2026-04-08T07:18:31.354Z</time></trkpt><trkpt lat="45.6827136" lon="13.9721296"><ele>439.0</ele><time>2026-04-08T07:18:32.345Z</time></trkpt><trkpt lat="45.6829523" lon="13.9722204"><ele>439.0</ele><time>2026-04-08T07:18:33.341Z</time></trkpt><trkpt lat="45.6831836" lon="13.9723247"><ele>439.0</ele><time>2026-04-08T07:18:34.352Z</time></trkpt><trkpt lat="45.6834085" lon="13.9724629"><ele>439.0</ele><time>2026-04-08T07:18:35.352Z</time></trkpt><trkpt lat="45.6836262" lon="13.9726316"><ele>438.0</ele><time>2026-04-08T07:18:36.346Z</time></trkpt><trkpt lat="45.683836" lon="13.9728148"><ele>437.0</ele><time>2026-04-08T07:18:37.345Z</time></trkpt><trkpt lat="45.6840383" lon="13.9730176"><ele>437.0</ele><time>2026-04-08T07:18:38.347Z</time></trkpt><trkpt lat="45.6842366" lon="13.9732392"><ele>437.0</ele><time>2026-04-08T07:18:39.352Z</time></trkpt><trkpt lat="45.6844348" lon="13.973487"><ele>437.5</ele><time>2026-04-08T07:18:40.341Z</time></trkpt><trkpt lat="45.6846197" lon="13.9737678"><ele>438.0</ele><time>2026-04-08T07:18:41.334Z</time></trkpt><trkpt lat="45.6848047" lon="13.9740754"><ele>439.0</ele><time>2026-04-08T07:18:42.346Z</time></trkpt><trkpt lat="45.6849828" lon="13.9744178"><ele>440.0</ele><time>2026-04-08T07:18:43.337Z</time></trkpt><trkpt lat="45.6851482" lon="13.9747706"><ele>447.5</ele><time>2026-04-08T07:18:44.359Z</time></trkpt><trkpt lat="45.6853096" lon="13.9751267"><ele>455.0</ele><time>2026-04-08T07:18:45.366Z</time></trkpt><trkpt lat="45.6854718" lon="13.9754742"><ele>455.0</ele><time>2026-04-08T07:18:46.343Z</time></trkpt><trkpt lat="45.6856303" lon="13.9758167"><ele>455.0</ele><time>2026-04-08T07:18:47.35Z</time></trkpt><trkpt lat="45.6857952" lon="13.9761549"><ele>455.5</ele><time>2026-04-08T07:18:48.339Z</time></trkpt><trkpt lat="45.685969" lon="13.9764869"><ele>456.0</ele><time>2026-04-08T07:18:49.342Z</time></trkpt><trkpt lat="45.6861417" lon="13.9768126"><ele>455.0</ele><time>2026-04-08T07:18:50.348Z</time></trkpt><trkpt lat="45.6863192" lon="13.977128"><ele>454.0</ele><time>2026-04-08T07:18:51.344Z</time></trkpt><trkpt lat="45.6865026" lon="13.9774307"><ele>459.0</ele><time>2026-04-08T07:18:52.338Z</time></trkpt><trkpt lat="45.6866926" lon="13.9777307"><ele>464.0</ele><time>2026-04-08T07:18:53.348Z</time></trkpt><trkpt lat="45.6868975" lon="13.9780217"><ele>463.0</ele><time>2026-04-08T07:18:54.357Z</time></trkpt><trkpt lat="45.6871085" lon="13.9782994"><ele>462.0</ele><time>2026-04-08T07:18:55.339Z</time></trkpt><trkpt lat="45.6873234" lon="13.9785684"><ele>464.0</ele><time>2026-04-08T07:18:56.336Z</time></trkpt><trkpt lat="45.6875482" lon="13.978837"><ele>466.0</ele><time>2026-04-08T07:18:57.346Z</time></trkpt><trkpt lat="45.6877802" lon="13.9790967"><ele>467.5</ele><time>2026-04-08T07:18:58.365Z</time></trkpt><trkpt lat="45.6880168" lon="13.9793458"><ele>469.0</ele><time>2026-04-08T07:18:59.361Z</time></trkpt><trkpt lat="45.6882661" lon="13.9795814"><ele>469.0</ele><time>2026-04-08T07:19:00.344Z</time></trkpt><trkpt lat="45.6885285" lon="13.9798028"><ele>469.0</ele><time>2026-04-08T07:19:01.347Z</time></trkpt><trkpt lat="45.688794" lon="13.980017"><ele>465.5</ele><time>2026-04-08T07:19:02.339Z</time></trkpt><trkpt lat="45.6890684" lon="13.9802309"><ele>462.0</ele><time>2026-04-08T07:19:03.354Z</time></trkpt><trkpt lat="45.6893364" lon="13.9804392"><ele>458.0</ele><time>2026-04-08T07:19:04.352Z</time></trkpt><trkpt lat="45.6896101" lon="13.9806419"><ele>454.0</ele><time>2026-04-08T07:19:05.338Z</time></trkpt><trkpt lat="45.6898855" lon="13.9808347"><ele>454.5</ele><time>2026-04-08T07:19:06.351Z</time></trkpt><trkpt lat="45.6901637" lon="13.9810229"><ele>455.0</ele><time>2026-04-08T07:19:07.333Z</time></trkpt><trkpt lat="45.690444" lon="13.9812135"><ele>455.0</ele><time>2026-04-08T07:19:08.361Z</time></trkpt><trkpt lat="45.6907184" lon="13.9813963"><ele>455.0</ele><time>2026-04-08T07:19:09.359Z</time></trkpt><trkpt lat="45.6909811" lon="13.9815926"><ele>455.0</ele><time>2026-04-08T07:19:10.346Z</time></trkpt><trkpt lat="45.6912415" lon="13.9817891"><ele>455.0</ele><time>2026-04-08T07:19:11.34Z</time></trkpt><trkpt lat="45.6914927" lon="13.9819925"><ele>455.0</ele><time>2026-04-08T07:19:12.332Z</time></trkpt><trkpt lat="45.6917378" lon="13.982212"><ele>455.0</ele><time>2026-04-08T07:19:13.34Z</time></trkpt><trkpt lat="45.691974" lon="13.9824639"><ele>459.5</ele><time>2026-04-08T07:19:14.341Z</time></trkpt><trkpt lat="45.6922007" lon="13.9827136"><ele>464.0</ele><time>2026-04-08T07:19:15.338Z</time></trkpt><trkpt lat="45.6924244" lon="13.9829748"><ele>464.0</ele><time>2026-04-08T07:19:16.343Z</time></trkpt><trkpt lat="45.6926441" lon="13.9832409"><ele>464.0</ele><time>2026-04-08T07:19:17.337Z</time></trkpt><trkpt lat="45.69286" lon="13.9835177"><ele>466.0</ele><time>2026-04-08T07:19:18.357Z</time></trkpt><trkpt lat="45.6930677" lon="13.9837956"><ele>468.0</ele><time>2026-04-08T07:19:19.345Z</time></trkpt><trkpt lat="45.6932755" lon="13.9840814"><ele>466.0</ele><time>2026-04-08T07:19:20.334Z</time></trkpt><trkpt lat="45.6934835" lon="13.984377"><ele>464.0</ele><time>2026-04-08T07:19:21.355Z</time></trkpt><trkpt lat="45.6936957" lon="13.9846785"><ele>468.5</ele><time>2026-04-08T07:19:22.338Z</time></trkpt><trkpt lat="45.693907" lon="13.9849738"><ele>473.0</ele><time>2026-04-08T07:19:23.351Z</time></trkpt><trkpt lat="45.694119" lon="13.985265"><ele>473.0</ele><time>2026-04-08T07:19:24.344Z</time></trkpt><trkpt lat="45.6943331" lon="13.9855302"><ele>473.0</ele><time>2026-04-08T07:19:25.337Z</time></trkpt><trkpt lat="45.6945742" lon="13.9857489"><ele>475.0</ele><time>2026-04-08T07:19:26.339Z</time></trkpt><trkpt lat="45.694827" lon="13.9859174"><ele>477.0</ele><time>2026-04-08T07:19:27.347Z</time></trkpt><trkpt lat="45.6950877" lon="13.9860401"><ele>480.0</ele><time>2026-04-08T07:19:28.333Z</time></trkpt><trkpt lat="45.6953653" lon="13.9861237"><ele>483.0</ele><time>2026-04-08T07:19:29.336Z</time></trkpt><trkpt lat="45.6956501" lon="13.9861875"><ele>483.0</ele><time>2026-04-08T07:19:30.365Z</time></trkpt><trkpt lat="45.695941" lon="13.9861917"><ele>483.0</ele><time>2026-04-08T07:19:31.347Z</time></trkpt><trkpt lat="45.6962298" lon="13.9861528"><ele>482.5</ele><time>2026-04-08T07:19:32.332Z</time></trkpt><trkpt lat="45.6965208" lon="13.9860735"><ele>482.0</ele><time>2026-04-08T07:19:33.35Z</time></trkpt><trkpt lat="45.6968134" lon="13.9859806"><ele>482.5</ele><time>2026-04-08T07:19:34.346Z</time></trkpt><trkpt lat="45.697093" lon="13.9858938"><ele>483.0</ele><time>2026-04-08T07:19:35.325Z</time></trkpt><trkpt lat="45.6973688" lon="13.9858135"><ele>487.5</ele><time>2026-04-08T07:19:36.336Z</time></trkpt><trkpt lat="45.6976434" lon="13.9857643"><ele>492.0</ele><time>2026-04-08T07:19:37.331Z</time></trkpt><trkpt lat="45.6979219" lon="13.9857648"><ele>492.0</ele><time>2026-04-08T07:19:38.348Z</time></trkpt><trkpt lat="45.6981857" lon="13.9858051"><ele>492.0</ele><time>2026-04-08T07:19:39.341Z</time></trkpt><trkpt lat="45.6984334" lon="13.9858881"><ele>492.0</ele><time>2026-04-08T07:19:40.346Z</time></trkpt><trkpt lat="45.6986769" lon="13.9860034"><ele>492.0</ele><time>2026-04-08T07:19:41.344Z</time></trkpt><trkpt lat="45.6989115" lon="13.9861657"><ele>492.0</ele><time>2026-04-08T07:19:42.335Z</time></trkpt><trkpt lat="45.6991291" lon="13.9863574"><ele>492.0</ele><time>2026-04-08T07:19:43.331Z</time></trkpt><trkpt lat="45.6993342" lon="13.9865866"><ele>499.5</ele><time>2026-04-08T07:19:44.332Z</time></trkpt><trkpt lat="45.6995127" lon="13.9868366"><ele>507.0</ele><time>2026-04-08T07:19:45.333Z</time></trkpt><trkpt lat="45.6996732" lon="13.9871337"><ele>507.0</ele><time>2026-04-08T07:19:46.34Z</time></trkpt><trkpt lat="45.6998027" lon="13.9874508"><ele>507.0</ele><time>2026-04-08T07:19:47.325Z</time></trkpt><trkpt lat="45.6999163" lon="13.9877969"><ele>505.0</ele><time>2026-04-08T07:19:48.335Z</time></trkpt><trkpt lat="45.7000102" lon="13.9881568"><ele>503.0</ele><time>2026-04-08T07:19:49.347Z</time></trkpt><trkpt lat="45.7000844" lon="13.988536"><ele>503.0</ele><time>2026-04-08T07:19:50.337Z</time></trkpt><trkpt lat="45.7001376" lon="13.9889271"><ele>503.0</ele><time>2026-04-08T07:19:51.335Z</time></trkpt><trkpt lat="45.7001749" lon="13.9893241"><ele>504.0</ele><time>2026-04-08T07:19:52.337Z</time></trkpt><trkpt lat="45.7002032" lon="13.9897261"><ele>505.0</ele><time>2026-04-08T07:19:53.331Z</time></trkpt><trkpt lat="45.700233" lon="13.9905426"><ele>510.0</ele><time>2026-04-08T07:19:55.335Z</time></trkpt><trkpt lat="45.7002457" lon="13.9909588"><ele>515.0</ele><time>2026-04-08T07:19:56.333Z</time></trkpt><trkpt lat="45.7002636" lon="13.9913746"><ele>522.0</ele><time>2026-04-08T07:19:57.336Z</time></trkpt><trkpt lat="45.7002839" lon="13.991787"><ele>529.0</ele><time>2026-04-08T07:19:58.328Z</time></trkpt><trkpt lat="45.7003112" lon="13.9921988"><ele>528.0</ele><time>2026-04-08T07:19:59.327Z</time></trkpt><trkpt lat="45.7003473" lon="13.9926077"><ele>527.0</ele><time>2026-04-08T07:20:00.34Z</time></trkpt><trkpt lat="45.7003857" lon="13.993002"><ele>527.5</ele><time>2026-04-08T07:20:01.339Z</time></trkpt><trkpt lat="45.7004339" lon="13.9933822"><ele>528.0</ele><time>2026-04-08T07:20:02.329Z</time></trkpt><trkpt lat="45.7004958" lon="13.9937382"><ele>528.0</ele><time>2026-04-08T07:20:03.342Z</time></trkpt><trkpt lat="45.7005697" lon="13.9940676"><ele>528.0</ele><time>2026-04-08T07:20:04.326Z</time></trkpt><trkpt lat="45.7006535" lon="13.9943962"><ele>528.5</ele><time>2026-04-08T07:20:05.325Z</time></trkpt><trkpt lat="45.7007561" lon="13.9947311"><ele>529.0</ele><time>2026-04-08T07:20:06.339Z</time></trkpt><trkpt lat="45.7008714" lon="13.9950697"><ele>529.0</ele><time>2026-04-08T07:20:07.348Z</time></trkpt><trkpt lat="45.7010014" lon="13.9953998"><ele>529.0</ele><time>2026-04-08T07:20:08.334Z</time></trkpt><trkpt lat="45.701149" lon="13.9957236"><ele>533.0</ele><time>2026-04-08T07:20:09.327Z</time></trkpt><trkpt lat="45.7013127" lon="13.9960447"><ele>537.0</ele><time>2026-04-08T07:20:10.324Z</time></trkpt><trkpt lat="45.7014807" lon="13.9963504"><ele>537.0</ele><time>2026-04-08T07:20:11.329Z</time></trkpt><trkpt lat="45.701648" lon="13.9966421"><ele>537.0</ele><time>2026-04-08T07:20:12.331Z</time></trkpt><trkpt lat="45.7018142" lon="13.9969188"><ele>538.5</ele><time>2026-04-08T07:20:13.329Z</time></trkpt><trkpt lat="45.7019854" lon="13.9971808"><ele>540.0</ele><time>2026-04-08T07:20:14.326Z</time></trkpt><trkpt lat="45.7021652" lon="13.9974343"><ele>540.5</ele><time>2026-04-08T07:20:15.329Z</time></trkpt><trkpt lat="45.7023556" lon="13.9976807"><ele>541.0</ele><time>2026-04-08T07:20:16.334Z</time></trkpt><trkpt lat="45.7025574" lon="13.9979233"><ele>544.0</ele><time>2026-04-08T07:20:17.338Z</time></trkpt><trkpt lat="45.7027637" lon="13.9981573"><ele>547.0</ele><time>2026-04-08T07:20:18.334Z</time></trkpt><trkpt lat="45.7029698" lon="13.9983766"><ele>547.0</ele><time>2026-04-08T07:20:19.324Z</time></trkpt><trkpt lat="45.7031577" lon="13.9985746"><ele>547.0</ele><time>2026-04-08T07:20:20.323Z</time></trkpt><trkpt lat="45.7033359" lon="13.9987563"><ele>547.0</ele><time>2026-04-08T07:20:21.335Z</time></trkpt><trkpt lat="45.7034995" lon="13.9989241"><ele>547.0</ele><time>2026-04-08T07:20:22.331Z</time></trkpt><trkpt lat="45.7036545" lon="13.9990905"><ele>547.0</ele><time>2026-04-08T07:20:23.327Z</time></trkpt><trkpt lat="45.7038108" lon="13.9992785"><ele>548.3333333333334</ele><time>2026-04-08T07:20:24.339Z</time></trkpt><trkpt lat="45.7039464" lon="13.9994946"><ele>549.6666666666666</ele><time>2026-04-08T07:20:25.334Z</time></trkpt><trkpt lat="45.7040758" lon="13.9997086"><ele>551.0</ele><time>2026-04-08T07:20:26.327Z</time></trkpt><trkpt lat="45.7042145" lon="13.9999301"><ele>551.0</ele><time>2026-04-08T07:20:27.323Z</time></trkpt><trkpt lat="45.7043524" lon="14.0001438"><ele>551.0</ele><time>2026-04-08T07:20:28.319Z</time></trkpt><trkpt lat="45.70449" lon="14.0003313"><ele>551.0</ele><time>2026-04-08T07:20:29.335Z</time></trkpt><trkpt lat="45.7046242" lon="14.0004842"><ele>552.0</ele><time>2026-04-08T07:20:30.322Z</time></trkpt><trkpt lat="45.7047438" lon="14.0005931"><ele>553.0</ele><time>2026-04-08T07:20:31.351Z</time></trkpt><trkpt lat="45.7048446" lon="14.0006742"><ele>554.0</ele><time>2026-04-08T07:20:32.327Z</time></trkpt><trkpt lat="45.7049459" lon="14.0007281"><ele>555.0</ele><time>2026-04-08T07:20:33.331Z</time></trkpt><trkpt lat="45.7050742" lon="14.0007671"><ele>555.0</ele><time>2026-04-08T07:20:34.321Z</time></trkpt><trkpt lat="45.7052276" lon="14.0007991"><ele>555.0</ele><time>2026-04-08T07:20:35.343Z</time></trkpt><trkpt lat="45.7053968" lon="14.0008245"><ele>555.0</ele><time>2026-04-08T07:20:36.329Z</time></trkpt><trkpt lat="45.7055811" lon="14.0008084"><ele>554.6666666666666</ele><time>2026-04-08T07:20:37.33Z</time></trkpt><trkpt lat="45.7057503" lon="14.0007621"><ele>554.3333333333333</ele><time>2026-04-08T07:20:38.324Z</time></trkpt><trkpt lat="45.7059075" lon="14.0007038"><ele>554.0</ele><time>2026-04-08T07:20:39.354Z</time></trkpt><trkpt lat="45.706066" lon="14.0006358"><ele>554.6666666666666</ele><time>2026-04-08T07:20:40.319Z</time></trkpt><trkpt lat="45.7062385" lon="14.0005478"><ele>555.3333333333334</ele><time>2026-04-08T07:20:41.321Z</time></trkpt><trkpt lat="45.7064151" lon="14.0004571"><ele>556.0</ele><time>2026-04-08T07:20:42.328Z</time></trkpt><trkpt lat="45.706595" lon="14.0003834"><ele>556.0</ele><time>2026-04-08T07:20:43.419Z</time></trkpt><trkpt lat="45.7067802" lon="14.0003265"><ele>556.0</ele><time>2026-04-08T07:20:44.322Z</time></trkpt><trkpt lat="45.7069687" lon="14.0003053"><ele>556.0</ele><time>2026-04-08T07:20:45.345Z</time></trkpt><trkpt lat="45.7073525" lon="14.0003682"><ele>553.0</ele><time>2026-04-08T07:20:47.329Z</time></trkpt><trkpt lat="45.7075377" lon="14.0004646"><ele>550.0</ele><time>2026-04-08T07:20:48.321Z</time></trkpt><trkpt lat="45.7077227" lon="14.0005863"><ele>547.0</ele><time>2026-04-08T07:20:49.326Z</time></trkpt><trkpt lat="45.707898" lon="14.0007432"><ele>547.6666666666667</ele><time>2026-04-08T07:20:50.322Z</time></trkpt><trkpt lat="45.70807" lon="14.0009009"><ele>548.3333333333334</ele><time>2026-04-08T07:20:51.325Z</time></trkpt><trkpt lat="45.7082481" lon="14.0010544"><ele>549.0</ele><time>2026-04-08T07:20:52.318Z</time></trkpt><trkpt lat="45.7084318" lon="14.0011973"><ele>546.0</ele><time>2026-04-08T07:20:53.324Z</time></trkpt><trkpt lat="45.7086188" lon="14.0013221"><ele>543.0</ele><time>2026-04-08T07:20:54.321Z</time></trkpt><trkpt lat="45.708811" lon="14.0014238"><ele>540.0</ele><time>2026-04-08T07:20:55.345Z</time></trkpt><trkpt lat="45.7090111" lon="14.001492"><ele>540.0</ele><time>2026-04-08T07:20:56.323Z</time></trkpt><trkpt lat="45.7092191" lon="14.0015432"><ele>540.0</ele><time>2026-04-08T07:20:57.314Z</time></trkpt><trkpt lat="45.7096304" lon="14.001605"><ele>543.6666666666666</ele><time>2026-04-08T07:20:59.334Z</time></trkpt><trkpt lat="45.7098459" lon="14.0016258"><ele>547.3333333333333</ele><time>2026-04-08T07:21:00.322Z</time></trkpt><trkpt lat="45.7100698" lon="14.0016474"><ele>551.0</ele><time>2026-04-08T07:21:01.329Z</time></trkpt><trkpt lat="45.7102953" lon="14.0016657"><ele>551.0</ele><time>2026-04-08T07:21:02.331Z</time></trkpt><trkpt lat="45.7105235" lon="14.0016776"><ele>551.0</ele><time>2026-04-08T07:21:03.338Z</time></trkpt><trkpt lat="45.7107591" lon="14.001685"><ele>551.0</ele><time>2026-04-08T07:21:04.312Z</time></trkpt><trkpt lat="45.7109927" lon="14.0016792"><ele>551.0</ele><time>2026-04-08T07:21:05.324Z</time></trkpt><trkpt lat="45.7112294" lon="14.0016669"><ele>543.5</ele><time>2026-04-08T07:21:06.318Z</time></trkpt><trkpt lat="45.7114647" lon="14.001654"><ele>536.0</ele><time>2026-04-08T07:21:07.326Z</time></trkpt><trkpt lat="45.7117046" lon="14.001643"><ele>535.0</ele><time>2026-04-08T07:21:08.331Z</time></trkpt><trkpt lat="45.7119476" lon="14.0016284"><ele>534.0</ele><time>2026-04-08T07:21:09.33Z</time></trkpt><trkpt lat="45.7121929" lon="14.0016179"><ele>534.0</ele><time>2026-04-08T07:21:10.321Z</time></trkpt><trkpt lat="45.7124359" lon="14.0016033"><ele>534.0</ele><time>2026-04-08T07:21:11.35Z</time></trkpt><trkpt lat="45.7126803" lon="14.001601"><ele>536.5</ele><time>2026-04-08T07:21:12.318Z</time></trkpt><trkpt lat="45.7129193" lon="14.0016006"><ele>539.0</ele><time>2026-04-08T07:21:13.336Z</time></trkpt><trkpt lat="45.7131594" lon="14.0016016"><ele>539.0</ele><time>2026-04-08T07:21:14.338Z</time></trkpt><trkpt lat="45.7134043" lon="14.0016082"><ele>539.0</ele><time>2026-04-08T07:21:15.344Z</time></trkpt><trkpt lat="45.7136507" lon="14.0016208"><ele>537.0</ele><time>2026-04-08T07:21:16.35Z</time></trkpt><trkpt lat="45.7138965" lon="14.0016388"><ele>535.0</ele><time>2026-04-08T07:21:17.339Z</time></trkpt><trkpt lat="45.7141477" lon="14.0016637"><ele>540.0</ele><time>2026-04-08T07:21:18.31Z</time></trkpt><trkpt lat="45.7143961" lon="14.0016928"><ele>545.0</ele><time>2026-04-08T07:21:19.309Z</time></trkpt><trkpt lat="45.7148909" lon="14.001745"><ele>545.0</ele><time>2026-04-08T07:21:21.324Z</time></trkpt><trkpt lat="45.7151317" lon="14.0017642"><ele>545.0</ele><time>2026-04-08T07:21:22.315Z</time></trkpt><trkpt lat="45.7153666" lon="14.00175"><ele>545.0</ele><time>2026-04-08T07:21:23.322Z</time></trkpt><trkpt lat="45.7156063" lon="14.0017065"><ele>545.0</ele><time>2026-04-08T07:21:24.316Z</time></trkpt><trkpt lat="45.7158414" lon="14.0016425"><ele>542.5</ele><time>2026-04-08T07:21:25.313Z</time></trkpt><trkpt lat="45.7160735" lon="14.0015502"><ele>540.0</ele><time>2026-04-08T07:21:26.319Z</time></trkpt><trkpt lat="45.7162956" lon="14.0014531"><ele>540.0</ele><time>2026-04-08T07:21:27.327Z</time></trkpt><trkpt lat="45.716507" lon="14.00134"><ele>540.0</ele><time>2026-04-08T07:21:28.307Z</time></trkpt><trkpt lat="45.7167105" lon="14.0012264"><ele>540.0</ele><time>2026-04-08T07:21:29.316Z</time></trkpt><trkpt lat="45.7169063" lon="14.0011084"><ele>543.0</ele><time>2026-04-08T07:21:30.315Z</time></trkpt><trkpt lat="45.7171028" lon="14.0010106"><ele>546.0</ele><time>2026-04-08T07:21:31.338Z</time></trkpt><trkpt lat="45.7173057" lon="14.0009355"><ele>549.0</ele><time>2026-04-08T07:21:32.314Z</time></trkpt><trkpt lat="45.7175112" lon="14.0008905"><ele>549.0</ele><time>2026-04-08T07:21:33.318Z</time></trkpt><trkpt lat="45.717718" lon="14.0008725"><ele>549.0</ele><time>2026-04-08T07:21:34.309Z</time></trkpt><trkpt lat="45.7179167" lon="14.0008999"><ele>549.0</ele><time>2026-04-08T07:21:35.339Z</time></trkpt><trkpt lat="45.718115" lon="14.0009705"><ele>549.3333333333334</ele><time>2026-04-08T07:21:36.333Z</time></trkpt><trkpt lat="45.7183037" lon="14.001078"><ele>549.6666666666667</ele><time>2026-04-08T07:21:37.311Z</time></trkpt><trkpt lat="45.7184834" lon="14.0012057"><ele>550.0</ele><time>2026-04-08T07:21:38.328Z</time></trkpt><trkpt lat="45.7186586" lon="14.0013622"><ele>548.6666666666667</ele><time>2026-04-08T07:21:39.326Z</time></trkpt><trkpt lat="45.7188187" lon="14.0015553"><ele>547.3333333333334</ele><time>2026-04-08T07:21:40.321Z</time></trkpt><trkpt lat="45.7189674" lon="14.0017626"><ele>546.0</ele><time>2026-04-08T07:21:41.335Z</time></trkpt><trkpt lat="45.7191084" lon="14.0019962"><ele>545.6666666666666</ele><time>2026-04-08T07:21:42.317Z</time></trkpt><trkpt lat="45.7192355" lon="14.0022453"><ele>545.3333333333333</ele><time>2026-04-08T07:21:43.315Z</time></trkpt><trkpt lat="45.7193599" lon="14.0024969"><ele>545.0</ele><time>2026-04-08T07:21:44.315Z</time></trkpt><trkpt lat="45.7194858" lon="14.0027483"><ele>543.0</ele><time>2026-04-08T07:21:45.322Z</time></trkpt><trkpt lat="45.7196077" lon="14.0030027"><ele>541.0</ele><time>2026-04-08T07:21:46.318Z</time></trkpt><trkpt lat="45.7197327" lon="14.0032535"><ele>539.0</ele><time>2026-04-08T07:21:47.317Z</time></trkpt><trkpt lat="45.7198552" lon="14.003506"><ele>539.0</ele><time>2026-04-08T07:21:48.316Z</time></trkpt><trkpt lat="45.7199827" lon="14.0037395"><ele>539.0</ele><time>2026-04-08T07:21:49.331Z</time></trkpt><trkpt lat="45.7201168" lon="14.0039629"><ele>539.0</ele><time>2026-04-08T07:21:50.328Z</time></trkpt><trkpt lat="45.7202534" lon="14.004166"><ele>537.6666666666666</ele><time>2026-04-08T07:21:51.33Z</time></trkpt><trkpt lat="45.7203871" lon="14.0043309"><ele>536.3333333333334</ele><time>2026-04-08T07:21:52.312Z</time></trkpt><trkpt lat="45.7205174" lon="14.0044733"><ele>535.0</ele><time>2026-04-08T07:21:53.331Z</time></trkpt><trkpt lat="45.7206342" lon="14.0045871"><ele>535.0</ele><time>2026-04-08T07:21:54.317Z</time></trkpt><trkpt lat="45.7207401" lon="14.0046852"><ele>535.0</ele><time>2026-04-08T07:21:55.318Z</time></trkpt><trkpt lat="45.7208195" lon="14.0047518"><ele>535.0</ele><time>2026-04-08T07:21:56.319Z</time></trkpt><trkpt lat="45.7209066" lon="14.0048204"><ele>535.0</ele><time>2026-04-08T07:21:58.311Z</time></trkpt><trkpt lat="45.7209916" lon="14.0049126"><ele>535.0</ele><time>2026-04-08T07:22:08.313Z</time></trkpt><trkpt lat="45.7210479" lon="14.0049587"><ele>534.2</ele><time>2026-04-08T07:22:09.312Z</time></trkpt><trkpt lat="45.7211279" lon="14.0050043"><ele>533.4</ele><time>2026-04-08T07:22:10.31Z</time></trkpt><trkpt lat="45.721207" lon="14.0050725"><ele>532.6</ele><time>2026-04-08T07:22:11.329Z</time></trkpt><trkpt lat="45.7212759" lon="14.0051703"><ele>531.8</ele><time>2026-04-08T07:22:12.305Z</time></trkpt><trkpt lat="45.7213529" lon="14.0052959"><ele>531.0</ele><time>2026-04-08T07:22:13.319Z</time></trkpt><trkpt lat="45.7214243" lon="14.005445"><ele>531.0</ele><time>2026-04-08T07:22:14.321Z</time></trkpt><trkpt lat="45.7215035" lon="14.0056037"><ele>531.0</ele><time>2026-04-08T07:22:15.32Z</time></trkpt><trkpt lat="45.721581" lon="14.0057791"><ele>531.0</ele><time>2026-04-08T07:22:16.319Z</time></trkpt><trkpt lat="45.7216661" lon="14.0059662"><ele>531.0</ele><time>2026-04-08T07:22:17.328Z</time></trkpt><trkpt lat="45.7217456" lon="14.0061656"><ele>531.6666666666666</ele><time>2026-04-08T07:22:18.306Z</time></trkpt><trkpt lat="45.7218188" lon="14.0063715"><ele>532.3333333333333</ele><time>2026-04-08T07:22:19.312Z</time></trkpt><trkpt lat="45.7218768" lon="14.0065655"><ele>533.0</ele><time>2026-04-08T07:22:20.303Z</time></trkpt><trkpt lat="45.7219221" lon="14.0067642"><ele>533.25</ele><time>2026-04-08T07:22:21.32Z</time></trkpt><trkpt lat="45.7219534" lon="14.0069721"><ele>533.5</ele><time>2026-04-08T07:22:22.31Z</time></trkpt><trkpt lat="45.7219663" lon="14.0071852"><ele>533.75</ele><time>2026-04-08T07:22:23.321Z</time></trkpt><trkpt lat="45.7219669" lon="14.0073862"><ele>534.0</ele><time>2026-04-08T07:22:24.304Z</time></trkpt><trkpt lat="45.7219548" lon="14.007584"><ele>534.25</ele><time>2026-04-08T07:22:25.319Z</time></trkpt><trkpt lat="45.721928" lon="14.0077781"><ele>534.5</ele><time>2026-04-08T07:22:26.307Z</time></trkpt><trkpt lat="45.7218851" lon="14.0079686"><ele>534.75</ele><time>2026-04-08T07:22:27.311Z</time></trkpt><trkpt lat="45.7218278" lon="14.0081563"><ele>535.0</ele><time>2026-04-08T07:22:28.301Z</time></trkpt><trkpt lat="45.721763" lon="14.0083358"><ele>535.5</ele><time>2026-04-08T07:22:29.308Z</time></trkpt><trkpt lat="45.7216877" lon="14.0085085"><ele>536.0</ele><time>2026-04-08T07:22:30.306Z</time></trkpt><trkpt lat="45.7215963" lon="14.0086755"><ele>536.5</ele><time>2026-04-08T07:22:31.305Z</time></trkpt><trkpt lat="45.7214998" lon="14.0088463"><ele>537.0</ele><time>2026-04-08T07:22:32.294Z</time></trkpt><trkpt lat="45.7214053" lon="14.0090154"><ele>537.6666666666666</ele><time>2026-04-08T07:22:33.303Z</time></trkpt><trkpt lat="45.7213139" lon="14.0091965"><ele>538.3333333333333</ele><time>2026-04-08T07:22:34.302Z</time></trkpt><trkpt lat="45.7212377" lon="14.0093867"><ele>539.0</ele><time>2026-04-08T07:22:35.302Z</time></trkpt><trkpt lat="45.7211731" lon="14.0095778"><ele>539.0</ele><time>2026-04-08T07:22:36.31Z</time></trkpt><trkpt lat="45.7211379" lon="14.0097842"><ele>539.0</ele><time>2026-04-08T07:22:37.321Z</time></trkpt><trkpt lat="45.7211332" lon="14.0099976"><ele>539.0</ele><time>2026-04-08T07:22:38.308Z</time></trkpt><trkpt lat="45.7211639" lon="14.0101863"><ele>539.0</ele><time>2026-04-08T07:22:39.318Z</time></trkpt><trkpt lat="45.7212321" lon="14.0103618"><ele>539.0</ele><time>2026-04-08T07:22:40.317Z</time></trkpt><trkpt lat="45.7213147" lon="14.0105283"><ele>539.0</ele><time>2026-04-08T07:22:41.299Z</time></trkpt><trkpt lat="45.7214214" lon="14.0106662"><ele>539.0</ele><time>2026-04-08T07:22:42.307Z</time></trkpt><trkpt lat="45.721673" lon="14.0108567"><ele>539.3333333333333</ele><time>2026-04-08T07:22:44.299Z</time></trkpt><trkpt lat="45.7218123" lon="14.0109013"><ele>539.6666666666666</ele><time>2026-04-08T07:22:45.314Z</time></trkpt><trkpt lat="45.7219614" lon="14.0109299"><ele>540.0</ele><time>2026-04-08T07:22:46.302Z</time></trkpt><trkpt lat="45.7221184" lon="14.0109637"><ele>541.3333333333334</ele><time>2026-04-08T07:22:47.295Z</time></trkpt><trkpt lat="45.7222696" lon="14.011008"><ele>542.6666666666667</ele><time>2026-04-08T07:22:48.3Z</time></trkpt><trkpt lat="45.7224166" lon="14.0110705"><ele>544.0</ele><time>2026-04-08T07:22:49.307Z</time></trkpt><trkpt lat="45.7225586" lon="14.0111667"><ele>544.0</ele><time>2026-04-08T07:22:50.32Z</time></trkpt><trkpt lat="45.7226969" lon="14.0112776"><ele>544.0</ele><time>2026-04-08T07:22:51.325Z</time></trkpt><trkpt lat="45.7229566" lon="14.0115633"><ele>543.3333333333334</ele><time>2026-04-08T07:22:53.317Z</time></trkpt><trkpt lat="45.7230841" lon="14.0117389"><ele>542.6666666666666</ele><time>2026-04-08T07:22:54.296Z</time></trkpt><trkpt lat="45.723214" lon="14.0119221"><ele>542.0</ele><time>2026-04-08T07:22:55.302Z</time></trkpt><trkpt lat="45.7233408" lon="14.0120983"><ele>542.0</ele><time>2026-04-08T07:22:56.326Z</time></trkpt><trkpt lat="45.7234605" lon="14.0122745"><ele>542.0</ele><time>2026-04-08T07:22:57.32Z</time></trkpt><trkpt lat="45.7235779" lon="14.0124506"><ele>542.0</ele><time>2026-04-08T07:22:58.303Z</time></trkpt><trkpt lat="45.7237042" lon="14.0126155"><ele>541.3333333333333</ele><time>2026-04-08T07:22:59.309Z</time></trkpt><trkpt lat="45.7238266" lon="14.0127909"><ele>540.6666666666666</ele><time>2026-04-08T07:23:00.313Z</time></trkpt><trkpt lat="45.7239639" lon="14.0129661"><ele>540.0</ele><time>2026-04-08T07:23:01.315Z</time></trkpt><trkpt lat="45.7241102" lon="14.0131546"><ele>540.3333333333334</ele><time>2026-04-08T07:23:02.298Z</time></trkpt><trkpt lat="45.7242605" lon="14.0133491"><ele>540.6666666666667</ele><time>2026-04-08T07:23:03.319Z</time></trkpt><trkpt lat="45.7244124" lon="14.0135464"><ele>541.0</ele><time>2026-04-08T07:23:04.305Z</time></trkpt><trkpt lat="45.7245665" lon="14.0137363"><ele>541.0</ele><time>2026-04-08T07:23:05.301Z</time></trkpt><trkpt lat="45.7247207" lon="14.0139239"><ele>541.0</ele><time>2026-04-08T07:23:06.302Z</time></trkpt><trkpt lat="45.7248735" lon="14.0141061"><ele>541.0</ele><time>2026-04-08T07:23:07.313Z</time></trkpt><trkpt lat="45.7250262" lon="14.014286"><ele>540.0</ele><time>2026-04-08T07:23:08.295Z</time></trkpt><trkpt lat="45.7251795" lon="14.014463"><ele>539.0</ele><time>2026-04-08T07:23:09.312Z</time></trkpt><trkpt lat="45.7253326" lon="14.0146359"><ele>538.0</ele><time>2026-04-08T07:23:10.31Z</time></trkpt><trkpt lat="45.7254862" lon="14.014802"><ele>538.0</ele><time>2026-04-08T07:23:11.324Z</time></trkpt><trkpt lat="45.7256375" lon="14.0149671"><ele>538.0</ele><time>2026-04-08T07:23:12.301Z</time></trkpt><trkpt lat="45.7257887" lon="14.01513"><ele>538.0</ele><time>2026-04-08T07:23:13.306Z</time></trkpt><trkpt lat="45.7259391" lon="14.0152859"><ele>539.6666666666667</ele><time>2026-04-08T07:23:14.303Z</time></trkpt><trkpt lat="45.7260942" lon="14.0154426"><ele>541.3333333333334</ele><time>2026-04-08T07:23:15.293Z</time></trkpt><trkpt lat="45.7262466" lon="14.015593"><ele>543.0</ele><time>2026-04-08T07:23:16.311Z</time></trkpt><trkpt lat="45.726399" lon="14.0157392"><ele>544.6666666666666</ele><time>2026-04-08T07:23:17.306Z</time></trkpt><trkpt lat="45.7265511" lon="14.0158814"><ele>546.3333333333333</ele><time>2026-04-08T07:23:18.302Z</time></trkpt><trkpt lat="45.7267021" lon="14.0160222"><ele>548.0</ele><time>2026-04-08T07:23:19.303Z</time></trkpt><trkpt lat="45.7268503" lon="14.0161649"><ele>546.3333333333333</ele><time>2026-04-08T07:23:20.308Z</time></trkpt><trkpt lat="45.7270017" lon="14.0162941"><ele>544.6666666666666</ele><time>2026-04-08T07:23:21.292Z</time></trkpt><trkpt lat="45.7271513" lon="14.0164202"><ele>543.0</ele><time>2026-04-08T07:23:22.297Z</time></trkpt><trkpt lat="45.7273005" lon="14.0165453"><ele>545.3333333333334</ele><time>2026-04-08T07:23:23.314Z</time></trkpt><trkpt lat="45.7274509" lon="14.0166698"><ele>547.6666666666667</ele><time>2026-04-08T07:23:24.298Z</time></trkpt><trkpt lat="45.7276035" lon="14.0167886"><ele>550.0</ele><time>2026-04-08T07:23:25.291Z</time></trkpt><trkpt lat="45.727763" lon="14.0169143"><ele>552.0</ele><time>2026-04-08T07:23:26.301Z</time></trkpt><trkpt lat="45.7279296" lon="14.0170408"><ele>554.0</ele><time>2026-04-08T07:23:27.333Z</time></trkpt><trkpt lat="45.7280991" lon="14.017162"><ele>556.0</ele><time>2026-04-08T07:23:28.298Z</time></trkpt><trkpt lat="45.7282728" lon="14.0172814"><ele>556.0</ele><time>2026-04-08T07:23:29.296Z</time></trkpt><trkpt lat="45.7284441" lon="14.0173992"><ele>556.0</ele><time>2026-04-08T07:23:30.303Z</time></trkpt><trkpt lat="45.7286134" lon="14.0175181"><ele>556.0</ele><time>2026-04-08T07:23:31.298Z</time></trkpt><trkpt lat="45.7287896" lon="14.0176375"><ele>557.3333333333334</ele><time>2026-04-08T07:23:32.303Z</time></trkpt><trkpt lat="45.7289648" lon="14.0177549"><ele>558.6666666666666</ele><time>2026-04-08T07:23:33.29Z</time></trkpt><trkpt lat="45.7291433" lon="14.0178718"><ele>560.0</ele><time>2026-04-08T07:23:34.296Z</time></trkpt><trkpt lat="45.7293199" lon="14.0179862"><ele>559.3333333333333</ele><time>2026-04-08T07:23:35.291Z</time></trkpt><trkpt lat="45.7294957" lon="14.0180964"><ele>558.6666666666666</ele><time>2026-04-08T07:23:36.289Z</time></trkpt><trkpt lat="45.7296783" lon="14.0182045"><ele>558.0</ele><time>2026-04-08T07:23:37.291Z</time></trkpt><trkpt lat="45.72986" lon="14.0183099"><ele>559.6666666666666</ele><time>2026-04-08T07:23:38.29Z</time></trkpt><trkpt lat="45.7300425" lon="14.0184168"><ele>561.3333333333333</ele><time>2026-04-08T07:23:39.294Z</time></trkpt><trkpt lat="45.730221" lon="14.018526"><ele>563.0</ele><time>2026-04-08T07:23:40.298Z</time></trkpt><trkpt lat="45.7304024" lon="14.0186363"><ele>563.3333333333333</ele><time>2026-04-08T07:23:41.289Z</time></trkpt><trkpt lat="45.7305849" lon="14.0187426"><ele>563.6666666666666</ele><time>2026-04-08T07:23:42.301Z</time></trkpt><trkpt lat="45.7307648" lon="14.0188488"><ele>564.0</ele><time>2026-04-08T07:23:43.295Z</time></trkpt><trkpt lat="45.7309402" lon="14.0189598"><ele>563.0</ele><time>2026-04-08T07:23:44.294Z</time></trkpt><trkpt lat="45.7311163" lon="14.0190676"><ele>562.0</ele><time>2026-04-08T07:23:45.293Z</time></trkpt><trkpt lat="45.731294" lon="14.0191724"><ele>561.0</ele><time>2026-04-08T07:23:46.288Z</time></trkpt><trkpt lat="45.731469" lon="14.0192758"><ele>564.6666666666666</ele><time>2026-04-08T07:23:47.301Z</time></trkpt><trkpt lat="45.7316432" lon="14.019382"><ele>568.3333333333333</ele><time>2026-04-08T07:23:48.316Z</time></trkpt><trkpt lat="45.7318157" lon="14.0194939"><ele>572.0</ele><time>2026-04-08T07:23:49.303Z</time></trkpt><trkpt lat="45.7319887" lon="14.0196042"><ele>572.6666666666666</ele><time>2026-04-08T07:23:50.294Z</time></trkpt><trkpt lat="45.7321555" lon="14.0197208"><ele>573.3333333333334</ele><time>2026-04-08T07:23:51.314Z</time></trkpt><trkpt lat="45.7323206" lon="14.0198355"><ele>574.0</ele><time>2026-04-08T07:23:52.287Z</time></trkpt><trkpt lat="45.7326511" lon="14.020076"><ele>577.6666666666667</ele><time>2026-04-08T07:23:54.295Z</time></trkpt><trkpt lat="45.7328184" lon="14.0202039"><ele>581.3333333333334</ele><time>2026-04-08T07:23:55.307Z</time></trkpt><trkpt lat="45.7329915" lon="14.0203478"><ele>585.0</ele><time>2026-04-08T07:23:56.29Z</time></trkpt><trkpt lat="45.7331686" lon="14.0204965"><ele>585.0</ele><time>2026-04-08T07:23:57.294Z</time></trkpt><trkpt lat="45.7333432" lon="14.0206502"><ele>585.0</ele><time>2026-04-08T07:23:58.29Z</time></trkpt><trkpt lat="45.7335181" lon="14.0208125"><ele>585.0</ele><time>2026-04-08T07:23:59.288Z</time></trkpt><trkpt lat="45.7336929" lon="14.0209727"><ele>586.6666666666666</ele><time>2026-04-08T07:24:00.293Z</time></trkpt><trkpt lat="45.7338614" lon="14.0211356"><ele>588.3333333333333</ele><time>2026-04-08T07:24:01.305Z</time></trkpt><trkpt lat="45.7340271" lon="14.0213066"><ele>590.0</ele><time>2026-04-08T07:24:02.289Z</time></trkpt><trkpt lat="45.7341962" lon="14.0214791"><ele>591.3333333333333</ele><time>2026-04-08T07:24:03.29Z</time></trkpt><trkpt lat="45.7343612" lon="14.0216516"><ele>592.6666666666666</ele><time>2026-04-08T07:24:04.285Z</time></trkpt><trkpt lat="45.7345219" lon="14.0218276"><ele>594.0</ele><time>2026-04-08T07:24:05.298Z</time></trkpt><trkpt lat="45.7346798" lon="14.022005"><ele>594.0</ele><time>2026-04-08T07:24:06.297Z</time></trkpt><trkpt lat="45.7348361" lon="14.02219"><ele>594.0</ele><time>2026-04-08T07:24:07.297Z</time></trkpt><trkpt lat="45.734986" lon="14.0223721"><ele>594.0</ele><time>2026-04-08T07:24:08.289Z</time></trkpt><trkpt lat="45.7351319" lon="14.0225562"><ele>594.0</ele><time>2026-04-08T07:24:09.299Z</time></trkpt><trkpt lat="45.7352785" lon="14.0227409"><ele>594.0</ele><time>2026-04-08T07:24:10.284Z</time></trkpt><trkpt lat="45.7354169" lon="14.0229241"><ele>594.0</ele><time>2026-04-08T07:24:11.298Z</time></trkpt><trkpt lat="45.7355525" lon="14.0231084"><ele>594.0</ele><time>2026-04-08T07:24:12.297Z</time></trkpt><trkpt lat="45.7356887" lon="14.0232925"><ele>594.0</ele><time>2026-04-08T07:24:13.286Z</time></trkpt><trkpt lat="45.7358236" lon="14.0234857"><ele>594.0</ele><time>2026-04-08T07:24:14.292Z</time></trkpt><trkpt lat="45.7359609" lon="14.0236849"><ele>591.0</ele><time>2026-04-08T07:24:15.288Z</time></trkpt><trkpt lat="45.7360927" lon="14.0238822"><ele>588.0</ele><time>2026-04-08T07:24:16.291Z</time></trkpt><trkpt lat="45.7362212" lon="14.0240847"><ele>585.0</ele><time>2026-04-08T07:24:17.295Z</time></trkpt><trkpt lat="45.7363506" lon="14.0242929"><ele>585.0</ele><time>2026-04-08T07:24:18.289Z</time></trkpt><trkpt lat="45.7364772" lon="14.0245041"><ele>585.0</ele><time>2026-04-08T07:24:19.303Z</time></trkpt><trkpt lat="45.7365991" lon="14.0247182"><ele>585.0</ele><time>2026-04-08T07:24:20.291Z</time></trkpt><trkpt lat="45.7367133" lon="14.0249302"><ele>588.6666666666666</ele><time>2026-04-08T07:24:21.278Z</time></trkpt><trkpt lat="45.7368273" lon="14.0251386"><ele>592.3333333333333</ele><time>2026-04-08T07:24:22.287Z</time></trkpt><trkpt lat="45.7369391" lon="14.0253402"><ele>596.0</ele><time>2026-04-08T07:24:23.282Z</time></trkpt><trkpt lat="45.7370461" lon="14.0255469"><ele>599.0</ele><time>2026-04-08T07:24:24.283Z</time></trkpt><trkpt lat="45.737152" lon="14.0257497"><ele>602.0</ele><time>2026-04-08T07:24:25.281Z</time></trkpt><trkpt lat="45.7372533" lon="14.0259447"><ele>605.0</ele><time>2026-04-08T07:24:26.281Z</time></trkpt><trkpt lat="45.7373477" lon="14.0261285"><ele>607.0</ele><time>2026-04-08T07:24:27.294Z</time></trkpt><trkpt lat="45.7374325" lon="14.0263065"><ele>609.0</ele><time>2026-04-08T07:24:28.284Z</time></trkpt><trkpt lat="45.7375165" lon="14.0264884"><ele>611.0</ele><time>2026-04-08T07:24:29.279Z</time></trkpt><trkpt lat="45.737601" lon="14.0266729"><ele>613.6666666666666</ele><time>2026-04-08T07:24:30.297Z</time></trkpt><trkpt lat="45.7376836" lon="14.0268595"><ele>616.3333333333334</ele><time>2026-04-08T07:24:31.278Z</time></trkpt><trkpt lat="45.737767" lon="14.0270468"><ele>619.0</ele><time>2026-04-08T07:24:32.298Z</time></trkpt><trkpt lat="45.7378546" lon="14.027237"><ele>619.5</ele><time>2026-04-08T07:24:33.275Z</time></trkpt><trkpt lat="45.7379556" lon="14.0274398"><ele>620.0</ele><time>2026-04-08T07:24:34.283Z</time></trkpt><trkpt lat="45.7382865" lon="14.0281678"><ele>619.6666666666666</ele><time>2026-04-08T07:24:37.279Z</time></trkpt><trkpt lat="45.7383921" lon="14.0284334"><ele>619.3333333333334</ele><time>2026-04-08T07:24:38.279Z</time></trkpt><trkpt lat="45.7384955" lon="14.0287096"><ele>619.0</ele><time>2026-04-08T07:24:39.289Z</time></trkpt><trkpt lat="45.7386098" lon="14.0289775"><ele>621.0</ele><time>2026-04-08T07:24:40.296Z</time></trkpt><trkpt lat="45.7387211" lon="14.0292394"><ele>623.0</ele><time>2026-04-08T07:24:41.284Z</time></trkpt><trkpt lat="45.7388304" lon="14.0294963"><ele>625.0</ele><time>2026-04-08T07:24:42.278Z</time></trkpt><trkpt lat="45.7389431" lon="14.0297414"><ele>629.3333333333334</ele><time>2026-04-08T07:24:43.285Z</time></trkpt><trkpt lat="45.7390545" lon="14.029987"><ele>633.6666666666666</ele><time>2026-04-08T07:24:44.286Z</time></trkpt><trkpt lat="45.7391584" lon="14.030224"><ele>638.0</ele><time>2026-04-08T07:24:45.278Z</time></trkpt><trkpt lat="45.7392611" lon="14.0304571"><ele>638.0</ele><time>2026-04-08T07:24:46.284Z</time></trkpt><trkpt lat="45.7393652" lon="14.0306893"><ele>638.0</ele><time>2026-04-08T07:24:47.281Z</time></trkpt><trkpt lat="45.7394665" lon="14.0309234"><ele>638.0</ele><time>2026-04-08T07:24:48.287Z</time></trkpt><trkpt lat="45.739568" lon="14.0311574"><ele>637.3333333333333</ele><time>2026-04-08T07:24:49.279Z</time></trkpt><trkpt lat="45.7396705" lon="14.0313943"><ele>636.6666666666666</ele><time>2026-04-08T07:24:50.274Z</time></trkpt><trkpt lat="45.7397733" lon="14.031633"><ele>636.0</ele><time>2026-04-08T07:24:51.288Z</time></trkpt><trkpt lat="45.7398744" lon="14.0318706"><ele>639.0</ele><time>2026-04-08T07:24:52.282Z</time></trkpt><trkpt lat="45.7399747" lon="14.032108"><ele>642.0</ele><time>2026-04-08T07:24:53.278Z</time></trkpt><trkpt lat="45.7400772" lon="14.0323464"><ele>645.0</ele><time>2026-04-08T07:24:54.276Z</time></trkpt><trkpt lat="45.7401815" lon="14.03258"><ele>642.0</ele><time>2026-04-08T07:24:55.278Z</time></trkpt><trkpt lat="45.7402826" lon="14.0328127"><ele>639.0</ele><time>2026-04-08T07:24:56.276Z</time></trkpt><trkpt lat="45.7404954" lon="14.0332835"><ele>643.3333333333334</ele><time>2026-04-08T07:24:58.28Z</time></trkpt><trkpt lat="45.7406046" lon="14.0335182"><ele>647.6666666666667</ele><time>2026-04-08T07:24:59.278Z</time></trkpt><trkpt lat="45.7407128" lon="14.0337558"><ele>652.0</ele><time>2026-04-08T07:25:00.279Z</time></trkpt><trkpt lat="45.7408233" lon="14.0339953"><ele>653.0</ele><time>2026-04-08T07:25:01.288Z</time></trkpt><trkpt lat="45.7409404" lon="14.0342357"><ele>654.0</ele><time>2026-04-08T07:25:02.277Z</time></trkpt><trkpt lat="45.7410572" lon="14.03447"><ele>655.0</ele><time>2026-04-08T07:25:03.286Z</time></trkpt><trkpt lat="45.7411718" lon="14.0347013"><ele>655.0</ele><time>2026-04-08T07:25:04.289Z</time></trkpt><trkpt lat="45.7412858" lon="14.0349352"><ele>655.0</ele><time>2026-04-08T07:25:05.281Z</time></trkpt><trkpt lat="45.7414013" lon="14.0351629"><ele>655.0</ele><time>2026-04-08T07:25:06.278Z</time></trkpt><trkpt lat="45.7415161" lon="14.0353913"><ele>655.3333333333334</ele><time>2026-04-08T07:25:07.294Z</time></trkpt><trkpt lat="45.7416367" lon="14.0356245"><ele>655.6666666666666</ele><time>2026-04-08T07:25:08.28Z</time></trkpt><trkpt lat="45.74176" lon="14.0358538"><ele>656.0</ele><time>2026-04-08T07:25:09.283Z</time></trkpt><trkpt lat="45.7418796" lon="14.0360823"><ele>657.0</ele><time>2026-04-08T07:25:10.279Z</time></trkpt><trkpt lat="45.7420046" lon="14.0363096"><ele>658.0</ele><time>2026-04-08T07:25:11.276Z</time></trkpt><trkpt lat="45.742128" lon="14.0365359"><ele>659.0</ele><time>2026-04-08T07:25:12.273Z</time></trkpt><trkpt lat="45.742249" lon="14.0367604"><ele>660.3333333333333</ele><time>2026-04-08T07:25:13.281Z</time></trkpt><trkpt lat="45.7423732" lon="14.0369856"><ele>661.6666666666666</ele><time>2026-04-08T07:25:14.276Z</time></trkpt><trkpt lat="45.7425024" lon="14.0372079"><ele>663.0</ele><time>2026-04-08T07:25:15.294Z</time></trkpt><trkpt lat="45.7426334" lon="14.0374313"><ele>668.3333333333334</ele><time>2026-04-08T07:25:16.281Z</time></trkpt><trkpt lat="45.7427683" lon="14.0376537"><ele>673.6666666666667</ele><time>2026-04-08T07:25:17.283Z</time></trkpt><trkpt lat="45.7429028" lon="14.0378697"><ele>679.0</ele><time>2026-04-08T07:25:18.272Z</time></trkpt><trkpt lat="45.7430375" lon="14.0380867"><ele>679.0</ele><time>2026-04-08T07:25:19.28Z</time></trkpt><trkpt lat="45.743173" lon="14.0382999"><ele>679.0</ele><time>2026-04-08T07:25:20.281Z</time></trkpt><trkpt lat="45.7433122" lon="14.0385102"><ele>679.0</ele><time>2026-04-08T07:25:21.302Z</time></trkpt><trkpt lat="45.7434515" lon="14.0387138"><ele>679.6666666666667</ele><time>2026-04-08T07:25:22.276Z</time></trkpt><trkpt lat="45.7435986" lon="14.038915"><ele>680.3333333333334</ele><time>2026-04-08T07:25:23.288Z</time></trkpt><trkpt lat="45.7437499" lon="14.0391143"><ele>681.0</ele><time>2026-04-08T07:25:24.286Z</time></trkpt><trkpt lat="45.7439023" lon="14.0393089"><ele>681.0</ele><time>2026-04-08T07:25:25.292Z</time></trkpt><trkpt lat="45.7440589" lon="14.039496"><ele>681.0</ele><time>2026-04-08T07:25:26.28Z</time></trkpt><trkpt lat="45.7442201" lon="14.0396798"><ele>681.0</ele><time>2026-04-08T07:25:27.271Z</time></trkpt><trkpt lat="45.7443819" lon="14.0398571"><ele>680.6666666666666</ele><time>2026-04-08T07:25:28.287Z</time></trkpt><trkpt lat="45.7445417" lon="14.0400329"><ele>680.3333333333333</ele><time>2026-04-08T07:25:29.27Z</time></trkpt><trkpt lat="45.7447101" lon="14.0401999"><ele>680.0</ele><time>2026-04-08T07:25:30.273Z</time></trkpt><trkpt lat="45.7448819" lon="14.0403731"><ele>680.0</ele><time>2026-04-08T07:25:31.279Z</time></trkpt><trkpt lat="45.7450637" lon="14.0405405"><ele>680.0</ele><time>2026-04-08T07:25:32.271Z</time></trkpt><trkpt lat="45.7452486" lon="14.040707"><ele>680.0</ele><time>2026-04-08T07:25:33.281Z</time></trkpt><trkpt lat="45.7454365" lon="14.0408727"><ele>680.6666666666666</ele><time>2026-04-08T07:25:34.267Z</time></trkpt><trkpt lat="45.7456307" lon="14.0410253"><ele>681.3333333333334</ele><time>2026-04-08T07:25:35.279Z</time></trkpt><trkpt lat="45.7458269" lon="14.0411674"><ele>682.0</ele><time>2026-04-08T07:25:36.297Z</time></trkpt><trkpt lat="45.7460279" lon="14.0413062"><ele>680.6666666666667</ele><time>2026-04-08T07:25:37.295Z</time></trkpt><trkpt lat="45.7462284" lon="14.0414442"><ele>679.3333333333334</ele><time>2026-04-08T07:25:38.276Z</time></trkpt><trkpt lat="45.7464231" lon="14.0415773"><ele>678.0</ele><time>2026-04-08T07:25:39.288Z</time></trkpt><trkpt lat="45.7466248" lon="14.041697"><ele>678.0</ele><time>2026-04-08T07:25:40.272Z</time></trkpt><trkpt lat="45.7468353" lon="14.0418051"><ele>678.0</ele><time>2026-04-08T07:25:41.281Z</time></trkpt><trkpt lat="45.7470465" lon="14.0419106"><ele>678.0</ele><time>2026-04-08T07:25:42.274Z</time></trkpt><trkpt lat="45.7472567" lon="14.0420027"><ele>678.3333333333334</ele><time>2026-04-08T07:25:43.274Z</time></trkpt><trkpt lat="45.7474605" lon="14.0420897"><ele>678.6666666666667</ele><time>2026-04-08T07:25:44.277Z</time></trkpt><trkpt lat="45.7476639" lon="14.0421801"><ele>679.0</ele><time>2026-04-08T07:25:45.289Z</time></trkpt><trkpt lat="45.7478637" lon="14.0422719"><ele>679.0</ele><time>2026-04-08T07:25:46.266Z</time></trkpt><trkpt lat="45.7480638" lon="14.0423602"><ele>679.0</ele><time>2026-04-08T07:25:47.273Z</time></trkpt><trkpt lat="45.7482689" lon="14.0424331"><ele>679.0</ele><time>2026-04-08T07:25:48.274Z</time></trkpt><trkpt lat="45.7484699" lon="14.0425188"><ele>673.5</ele><time>2026-04-08T07:25:49.269Z</time></trkpt><trkpt lat="45.7486766" lon="14.0426066"><ele>668.0</ele><time>2026-04-08T07:25:50.27Z</time></trkpt><trkpt lat="45.7490952" lon="14.0428127"><ele>668.0</ele><time>2026-04-08T07:25:52.27Z</time></trkpt><trkpt lat="45.749305" lon="14.0429168"><ele>668.0</ele><time>2026-04-08T07:25:53.277Z</time></trkpt><trkpt lat="45.74952" lon="14.0430292"><ele>664.0</ele><time>2026-04-08T07:25:54.27Z</time></trkpt><trkpt lat="45.7497347" lon="14.0431572"><ele>660.0</ele><time>2026-04-08T07:25:55.269Z</time></trkpt><trkpt lat="45.7499485" lon="14.043293"><ele>658.5</ele><time>2026-04-08T07:25:56.27Z</time></trkpt><trkpt lat="45.7501642" lon="14.0434462"><ele>657.0</ele><time>2026-04-08T07:25:57.271Z</time></trkpt><trkpt lat="45.7503785" lon="14.043603"><ele>654.5</ele><time>2026-04-08T07:25:58.273Z</time></trkpt><trkpt lat="45.7505927" lon="14.0437708"><ele>652.0</ele><time>2026-04-08T07:25:59.276Z</time></trkpt><trkpt lat="45.7508065" lon="14.043949"><ele>653.0</ele><time>2026-04-08T07:26:00.272Z</time></trkpt><trkpt lat="45.7510141" lon="14.0441336"><ele>654.0</ele><time>2026-04-08T07:26:01.269Z</time></trkpt><trkpt lat="45.7512214" lon="14.0443284"><ele>643.5</ele><time>2026-04-08T07:26:02.266Z</time></trkpt><trkpt lat="45.7514261" lon="14.0445287"><ele>633.0</ele><time>2026-04-08T07:26:03.266Z</time></trkpt><trkpt lat="45.7516265" lon="14.0447392"><ele>633.0</ele><time>2026-04-08T07:26:04.271Z</time></trkpt><trkpt lat="45.7518122" lon="14.0449449"><ele>633.0</ele><time>2026-04-08T07:26:05.267Z</time></trkpt><trkpt lat="45.7519873" lon="14.0451492"><ele>634.0</ele><time>2026-04-08T07:26:06.28Z</time></trkpt><trkpt lat="45.7521578" lon="14.0453539"><ele>635.0</ele><time>2026-04-08T07:26:07.26Z</time></trkpt><trkpt lat="45.752324" lon="14.0455656"><ele>636.0</ele><time>2026-04-08T07:26:08.281Z</time></trkpt><trkpt lat="45.752488" lon="14.0457877"><ele>641.0</ele><time>2026-04-08T07:26:09.269Z</time></trkpt><trkpt lat="45.7526501" lon="14.0460175"><ele>646.0</ele><time>2026-04-08T07:26:10.261Z</time></trkpt><trkpt lat="45.7528029" lon="14.046252"><ele>646.0</ele><time>2026-04-08T07:26:11.264Z</time></trkpt><trkpt lat="45.7529486" lon="14.0464867"><ele>646.0</ele><time>2026-04-08T07:26:12.266Z</time></trkpt><trkpt lat="45.753087" lon="14.0467228"><ele>646.0</ele><time>2026-04-08T07:26:13.26Z</time></trkpt><trkpt lat="45.7532257" lon="14.0469613"><ele>645.3333333333334</ele><time>2026-04-08T07:26:14.259Z</time></trkpt><trkpt lat="45.7533575" lon="14.0472031"><ele>644.6666666666666</ele><time>2026-04-08T07:26:15.271Z</time></trkpt><trkpt lat="45.7534864" lon="14.0474517"><ele>644.0</ele><time>2026-04-08T07:26:16.274Z</time></trkpt><trkpt lat="45.7536108" lon="14.0477007"><ele>637.3333333333333</ele><time>2026-04-08T07:26:17.264Z</time></trkpt><trkpt lat="45.7537343" lon="14.0479496"><ele>630.6666666666666</ele><time>2026-04-08T07:26:18.267Z</time></trkpt><trkpt lat="45.7538583" lon="14.0481923"><ele>624.0</ele><time>2026-04-08T07:26:19.266Z</time></trkpt><trkpt lat="45.753976" lon="14.0484372"><ele>624.3333333333334</ele><time>2026-04-08T07:26:20.264Z</time></trkpt><trkpt lat="45.7540904" lon="14.048691"><ele>624.6666666666667</ele><time>2026-04-08T07:26:21.263Z</time></trkpt><trkpt lat="45.7542039" lon="14.0489465"><ele>625.0</ele><time>2026-04-08T07:26:22.263Z</time></trkpt><trkpt lat="45.7543171" lon="14.0492018"><ele>620.0</ele><time>2026-04-08T07:26:23.271Z</time></trkpt><trkpt lat="45.7544275" lon="14.0494557"><ele>615.0</ele><time>2026-04-08T07:26:24.266Z</time></trkpt><trkpt lat="45.7545416" lon="14.0496941"><ele>610.0</ele><time>2026-04-08T07:26:25.266Z</time></trkpt><trkpt lat="45.7546476" lon="14.0499237"><ele>612.0</ele><time>2026-04-08T07:26:26.262Z</time></trkpt><trkpt lat="45.7547608" lon="14.0501623"><ele>614.0</ele><time>2026-04-08T07:26:27.261Z</time></trkpt><trkpt lat="45.7548861" lon="14.0503981"><ele>616.0</ele><time>2026-04-08T07:26:28.267Z</time></trkpt><trkpt lat="45.7550159" lon="14.0506333"><ele>616.3333333333334</ele><time>2026-04-08T07:26:29.264Z</time></trkpt><trkpt lat="45.7551483" lon="14.0508703"><ele>616.6666666666666</ele><time>2026-04-08T07:26:30.266Z</time></trkpt><trkpt lat="45.7552855" lon="14.0511066"><ele>617.0</ele><time>2026-04-08T07:26:31.284Z</time></trkpt><trkpt lat="45.7554251" lon="14.0513369"><ele>614.0</ele><time>2026-04-08T07:26:32.263Z</time></trkpt><trkpt lat="45.7555763" lon="14.0515604"><ele>611.0</ele><time>2026-04-08T07:26:33.272Z</time></trkpt><trkpt lat="45.7557277" lon="14.0517814"><ele>608.0</ele><time>2026-04-08T07:26:34.273Z</time></trkpt><trkpt lat="45.7558828" lon="14.0520054"><ele>606.3333333333333</ele><time>2026-04-08T07:26:35.273Z</time></trkpt><trkpt lat="45.7560387" lon="14.0522264"><ele>604.6666666666666</ele><time>2026-04-08T07:26:36.257Z</time></trkpt><trkpt lat="45.7561931" lon="14.0524445"><ele>603.0</ele><time>2026-04-08T07:26:37.274Z</time></trkpt><trkpt lat="45.7563482" lon="14.052668"><ele>603.0</ele><time>2026-04-08T07:26:38.268Z</time></trkpt><trkpt lat="45.7564979" lon="14.0528877"><ele>603.0</ele><time>2026-04-08T07:26:39.262Z</time></trkpt><trkpt lat="45.7566486" lon="14.0531052"><ele>603.0</ele><time>2026-04-08T07:26:40.268Z</time></trkpt><trkpt lat="45.7567969" lon="14.0533235"><ele>603.3333333333334</ele><time>2026-04-08T07:26:41.27Z</time></trkpt><trkpt lat="45.7569435" lon="14.0535375"><ele>603.6666666666667</ele><time>2026-04-08T07:26:42.264Z</time></trkpt><trkpt lat="45.7570918" lon="14.0537588"><ele>604.0</ele><time>2026-04-08T07:26:43.27Z</time></trkpt><trkpt lat="45.7572389" lon="14.0539847"><ele>603.3333333333334</ele><time>2026-04-08T07:26:44.263Z</time></trkpt><trkpt lat="45.7573807" lon="14.0542174"><ele>602.6666666666666</ele><time>2026-04-08T07:26:45.259Z</time></trkpt><trkpt lat="45.7575172" lon="14.0544614"><ele>602.0</ele><time>2026-04-08T07:26:46.254Z</time></trkpt><trkpt lat="45.7576485" lon="14.054704"><ele>602.3333333333333</ele><time>2026-04-08T07:26:47.257Z</time></trkpt><trkpt lat="45.7577737" lon="14.0549506"><ele>602.6666666666666</ele><time>2026-04-08T07:26:48.267Z</time></trkpt><trkpt lat="45.7578951" lon="14.0551936"><ele>603.0</ele><time>2026-04-08T07:26:49.266Z</time></trkpt><trkpt lat="45.7580073" lon="14.0554426"><ele>603.0</ele><time>2026-04-08T07:26:50.261Z</time></trkpt><trkpt lat="45.7581175" lon="14.0556869"><ele>603.0</ele><time>2026-04-08T07:26:51.263Z</time></trkpt><trkpt lat="45.7582242" lon="14.0559301"><ele>603.0</ele><time>2026-04-08T07:26:52.255Z</time></trkpt><trkpt lat="45.7583242" lon="14.0561701"><ele>604.0</ele><time>2026-04-08T07:26:53.256Z</time></trkpt><trkpt lat="45.7584117" lon="14.0563935"><ele>605.0</ele><time>2026-04-08T07:26:54.26Z</time></trkpt><trkpt lat="45.7585373" lon="14.0568167"><ele>605.0</ele><time>2026-04-08T07:26:56.259Z</time></trkpt><trkpt lat="45.758563" lon="14.0570142"><ele>605.0</ele><time>2026-04-08T07:26:57.275Z</time></trkpt><trkpt lat="45.758559" lon="14.0572116"><ele>605.0</ele><time>2026-04-08T07:26:58.26Z</time></trkpt><trkpt lat="45.7585127" lon="14.0573988"><ele>605.0</ele><time>2026-04-08T07:26:59.266Z</time></trkpt><trkpt lat="45.7584383" lon="14.0575702"><ele>600.0</ele><time>2026-04-08T07:27:00.261Z</time></trkpt><trkpt lat="45.7583362" lon="14.0577133"><ele>595.0</ele><time>2026-04-08T07:27:01.261Z</time></trkpt><trkpt lat="45.7580527" lon="14.0578081"><ele>590.0</ele><time>2026-04-08T07:27:03.258Z</time></trkpt><trkpt lat="45.757913" lon="14.0577708"><ele>590.0</ele><time>2026-04-08T07:27:04.252Z</time></trkpt><trkpt lat="45.7577857" lon="14.0576707"><ele>590.0</ele><time>2026-04-08T07:27:05.271Z</time></trkpt><trkpt lat="45.7576755" lon="14.0575384"><ele>590.0</ele><time>2026-04-08T07:27:06.272Z</time></trkpt><trkpt lat="45.7575829" lon="14.0573699"><ele>590.0</ele><time>2026-04-08T07:27:07.264Z</time></trkpt><trkpt lat="45.7575154" lon="14.0571628"><ele>589.6666666666666</ele><time>2026-04-08T07:27:08.261Z</time></trkpt><trkpt lat="45.7574652" lon="14.0569221"><ele>589.3333333333334</ele><time>2026-04-08T07:27:09.256Z</time></trkpt><trkpt lat="45.7574247" lon="14.0566527"><ele>589.0</ele><time>2026-04-08T07:27:10.259Z</time></trkpt><trkpt lat="45.7574047" lon="14.056367"><ele>589.0</ele><time>2026-04-08T07:27:11.262Z</time></trkpt><trkpt lat="45.7573891" lon="14.0560726"><ele>589.0</ele><time>2026-04-08T07:27:12.258Z</time></trkpt><trkpt lat="45.7573943" lon="14.0557551"><ele>589.0</ele><time>2026-04-08T07:27:13.259Z</time></trkpt><trkpt lat="45.7574111" lon="14.0554219"><ele>592.0</ele><time>2026-04-08T07:27:14.254Z</time></trkpt><trkpt lat="45.7574303" lon="14.0550932"><ele>595.0</ele><time>2026-04-08T07:27:15.257Z</time></trkpt><trkpt lat="45.7574463" lon="14.0547572"><ele>598.5</ele><time>2026-04-08T07:27:16.258Z</time></trkpt><trkpt lat="45.7574618" lon="14.0544211"><ele>602.0</ele><time>2026-04-08T07:27:17.252Z</time></trkpt><trkpt lat="45.7574779" lon="14.0540868"><ele>603.0</ele><time>2026-04-08T07:27:18.263Z</time></trkpt><trkpt lat="45.757486" lon="14.0537563"><ele>604.0</ele><time>2026-04-08T07:27:19.255Z</time></trkpt><trkpt lat="45.7574775" lon="14.0534242"><ele>604.5</ele><time>2026-04-08T07:27:20.269Z</time></trkpt><trkpt lat="45.7574592" lon="14.0531004"><ele>605.0</ele><time>2026-04-08T07:27:21.263Z</time></trkpt><trkpt lat="45.7574347" lon="14.052774"><ele>605.0</ele><time>2026-04-08T07:27:22.276Z</time></trkpt><trkpt lat="45.7574002" lon="14.0524565"><ele>605.0</ele><time>2026-04-08T07:27:23.254Z</time></trkpt><trkpt lat="45.7573565" lon="14.0521429"><ele>605.0</ele><time>2026-04-08T07:27:24.254Z</time></trkpt><trkpt lat="45.7572236" lon="14.051222"><ele>607.0</ele><time>2026-04-08T07:27:27.256Z</time></trkpt><trkpt lat="45.7571884" lon="14.050901"><ele>609.0</ele><time>2026-04-08T07:27:28.268Z</time></trkpt><trkpt lat="45.7571572" lon="14.0505635"><ele>610.0</ele><time>2026-04-08T07:27:29.258Z</time></trkpt><trkpt lat="45.757136" lon="14.0502271"><ele>611.0</ele><time>2026-04-08T07:27:30.257Z</time></trkpt><trkpt lat="45.7571307" lon="14.0495379"><ele>611.0</ele><time>2026-04-08T07:27:32.262Z</time></trkpt><trkpt lat="45.7571482" lon="14.049196"><ele>611.0</ele><time>2026-04-08T07:27:33.266Z</time></trkpt><trkpt lat="45.7571853" lon="14.0488524"><ele>610.0</ele><time>2026-04-08T07:27:34.27Z</time></trkpt><trkpt lat="45.7572432" lon="14.0485114"><ele>609.0</ele><time>2026-04-08T07:27:35.275Z</time></trkpt><trkpt lat="45.7573184" lon="14.0481674"><ele>606.0</ele><time>2026-04-08T07:27:36.268Z</time></trkpt><trkpt lat="45.7574073" lon="14.0478326"><ele>603.0</ele><time>2026-04-08T07:27:37.253Z</time></trkpt><trkpt lat="45.7575057" lon="14.0475138"><ele>588.0</ele><time>2026-04-08T07:27:38.253Z</time></trkpt><trkpt lat="45.7578848" lon="14.0465835"><ele>588.0</ele><time>2026-04-08T07:27:41.255Z</time></trkpt><trkpt lat="45.7580353" lon="14.0462948"><ele>588.0</ele><time>2026-04-08T07:27:42.251Z</time></trkpt><trkpt lat="45.7583767" lon="14.0457733"><ele>587.0</ele><time>2026-04-08T07:27:44.258Z</time></trkpt><trkpt lat="45.7585664" lon="14.0455392"><ele>586.0</ele><time>2026-04-08T07:27:45.247Z</time></trkpt><trkpt lat="45.7587616" lon="14.0453214"><ele>586.0</ele><time>2026-04-08T07:27:46.254Z</time></trkpt><trkpt lat="45.7589652" lon="14.0451223"><ele>586.0</ele><time>2026-04-08T07:27:47.255Z</time></trkpt><trkpt lat="45.7591741" lon="14.0449428"><ele>585.0</ele><time>2026-04-08T07:27:48.246Z</time></trkpt><trkpt lat="45.7593884" lon="14.0447837"><ele>584.0</ele><time>2026-04-08T07:27:49.251Z</time></trkpt><trkpt lat="45.7596047" lon="14.0446376"><ele>584.0</ele><time>2026-04-08T07:27:50.247Z</time></trkpt><trkpt lat="45.7598243" lon="14.0445087"><ele>584.0</ele><time>2026-04-08T07:27:51.254Z</time></trkpt><trkpt lat="45.7600461" lon="14.0443758"><ele>586.0</ele><time>2026-04-08T07:27:52.253Z</time></trkpt><trkpt lat="45.7602658" lon="14.0442371"><ele>588.0</ele><time>2026-04-08T07:27:53.264Z</time></trkpt><trkpt lat="45.7604796" lon="14.0440829"><ele>581.5</ele><time>2026-04-08T07:27:54.248Z</time></trkpt><trkpt lat="45.7606852" lon="14.043905"><ele>575.0</ele><time>2026-04-08T07:27:55.244Z</time></trkpt><trkpt lat="45.7608884" lon="14.0437064"><ele>577.0</ele><time>2026-04-08T07:27:56.255Z</time></trkpt><trkpt lat="45.7610851" lon="14.0434944"><ele>579.0</ele><time>2026-04-08T07:27:57.268Z</time></trkpt><trkpt lat="45.7612722" lon="14.0432725"><ele>569.0</ele><time>2026-04-08T07:27:58.25Z</time></trkpt><trkpt lat="45.7614535" lon="14.0430359"><ele>559.0</ele><time>2026-04-08T07:27:59.25Z</time></trkpt><trkpt lat="45.7616237" lon="14.0427886"><ele>559.0</ele><time>2026-04-08T07:28:00.247Z</time></trkpt><trkpt lat="45.7617775" lon="14.0425403"><ele>559.0</ele><time>2026-04-08T07:28:01.265Z</time></trkpt><trkpt lat="45.7619185" lon="14.0422797"><ele>561.5</ele><time>2026-04-08T07:28:02.246Z</time></trkpt><trkpt lat="45.7620525" lon="14.0420182"><ele>564.0</ele><time>2026-04-08T07:28:03.252Z</time></trkpt><trkpt lat="45.7621819" lon="14.0417538"><ele>559.5</ele><time>2026-04-08T07:28:04.263Z</time></trkpt><trkpt lat="45.7623106" lon="14.0414795"><ele>555.0</ele><time>2026-04-08T07:28:05.24Z</time></trkpt><trkpt lat="45.7624428" lon="14.0412077"><ele>555.0</ele><time>2026-04-08T07:28:06.24Z</time></trkpt><trkpt lat="45.7625788" lon="14.040938"><ele>555.0</ele><time>2026-04-08T07:28:07.249Z</time></trkpt><trkpt lat="45.762729" lon="14.0406862"><ele>558.5</ele><time>2026-04-08T07:28:08.252Z</time></trkpt><trkpt lat="45.7628956" lon="14.0404473"><ele>562.0</ele><time>2026-04-08T07:28:09.252Z</time></trkpt><trkpt lat="45.7630665" lon="14.0402203"><ele>544.0</ele><time>2026-04-08T07:28:10.239Z</time></trkpt><trkpt lat="45.7634064" lon="14.0397752"><ele>560.0</ele><time>2026-04-08T07:28:12.244Z</time></trkpt><trkpt lat="45.7637293" lon="14.0393173"><ele>555.0</ele><time>2026-04-08T07:28:14.253Z</time></trkpt><trkpt lat="45.7638666" lon="14.0390641"><ele>550.0</ele><time>2026-04-08T07:28:15.247Z</time></trkpt><trkpt lat="45.7639982" lon="14.0387996"><ele>550.0</ele><time>2026-04-08T07:28:16.24Z</time></trkpt><trkpt lat="45.7641251" lon="14.038535"><ele>550.0</ele><time>2026-04-08T07:28:17.238Z</time></trkpt><trkpt lat="45.7642366" lon="14.038249"><ele>546.5</ele><time>2026-04-08T07:28:18.241Z</time></trkpt><trkpt lat="45.7643394" lon="14.0379548"><ele>543.0</ele><time>2026-04-08T07:28:19.236Z</time></trkpt><trkpt lat="45.7644315" lon="14.0376507"><ele>557.0</ele><time>2026-04-08T07:28:20.246Z</time></trkpt><trkpt lat="45.7645822" lon="14.0370312"><ele>557.0</ele><time>2026-04-08T07:28:22.246Z</time></trkpt><trkpt lat="45.7646384" lon="14.0367236"><ele>557.0</ele><time>2026-04-08T07:28:23.342Z</time></trkpt><trkpt lat="45.7647341" lon="14.0360966"><ele>550.3333333333333</ele><time>2026-04-08T07:28:25.259Z</time></trkpt><trkpt lat="45.7647856" lon="14.0357827"><ele>543.6666666666666</ele><time>2026-04-08T07:28:26.241Z</time></trkpt><trkpt lat="45.7648497" lon="14.0354765"><ele>537.0</ele><time>2026-04-08T07:28:27.238Z</time></trkpt><trkpt lat="45.7649214" lon="14.0351735"><ele>539.0</ele><time>2026-04-08T07:28:28.351Z</time></trkpt><trkpt lat="45.765006" lon="14.0348717"><ele>541.0</ele><time>2026-04-08T07:28:29.346Z</time></trkpt><trkpt lat="45.7652068" lon="14.0342965"><ele>538.6666666666667</ele><time>2026-04-08T07:28:31.256Z</time></trkpt><trkpt lat="45.7653215" lon="14.0340243"><ele>536.3333333333334</ele><time>2026-04-08T07:28:32.245Z</time></trkpt><trkpt lat="45.765446" lon="14.0337611"><ele>534.0</ele><time>2026-04-08T07:28:33.24Z</time></trkpt><trkpt lat="45.7655837" lon="14.0335014"><ele>533.0</ele><time>2026-04-08T07:28:34.244Z</time></trkpt><trkpt lat="45.76573" lon="14.0332638"><ele>532.0</ele><time>2026-04-08T07:28:35.341Z</time></trkpt><trkpt lat="45.7658838" lon="14.0330338"><ele>531.0</ele><time>2026-04-08T07:28:36.352Z</time></trkpt><trkpt lat="45.7660464" lon="14.0328175"><ele>514.0</ele><time>2026-04-08T07:28:37.35Z</time></trkpt><trkpt lat="45.766401" lon="14.0324193"><ele>514.0</ele><time>2026-04-08T07:28:39.254Z</time></trkpt><trkpt lat="45.7665922" lon="14.0322423"><ele>514.0</ele><time>2026-04-08T07:28:40.245Z</time></trkpt><trkpt lat="45.7667889" lon="14.0320786"><ele>514.0</ele><time>2026-04-08T07:28:41.344Z</time></trkpt><trkpt lat="45.7669907" lon="14.0319316"><ele>514.0</ele><time>2026-04-08T07:28:42.34Z</time></trkpt><trkpt lat="45.7671954" lon="14.0317978"><ele>514.0</ele><time>2026-04-08T07:28:43.341Z</time></trkpt><trkpt lat="45.7674075" lon="14.0316781"><ele>514.0</ele><time>2026-04-08T07:28:44.341Z</time></trkpt><trkpt lat="45.7676219" lon="14.0315705"><ele>497.0</ele><time>2026-04-08T07:28:45.352Z</time></trkpt><trkpt lat="45.7680569" lon="14.0313756"><ele>497.0</ele><time>2026-04-08T07:28:47.368Z</time></trkpt><trkpt lat="45.7682723" lon="14.0312808"><ele>497.0</ele><time>2026-04-08T07:28:48.339Z</time></trkpt><trkpt lat="45.7684871" lon="14.0311789"><ele>498.66666666666663</ele><time>2026-04-08T07:28:49.333Z</time></trkpt><trkpt lat="45.7686987" lon="14.0310717"><ele>500.33333333333337</ele><time>2026-04-08T07:28:50.334Z</time></trkpt><trkpt lat="45.7689074" lon="14.0309545"><ele>502.0</ele><time>2026-04-08T07:28:51.348Z</time></trkpt><trkpt lat="45.7691145" lon="14.0308282"><ele>503.6666666666667</ele><time>2026-04-08T07:28:52.346Z</time></trkpt><trkpt lat="45.7693191" lon="14.0306934"><ele>505.33333333333337</ele><time>2026-04-08T07:28:53.338Z</time></trkpt><trkpt lat="45.7695163" lon="14.0305535"><ele>507.0</ele><time>2026-04-08T07:28:54.341Z</time></trkpt><trkpt lat="45.7697114" lon="14.0304076"><ele>498.0</ele><time>2026-04-08T07:28:55.332Z</time></trkpt><trkpt lat="45.7708013" lon="14.0292692"><ele>502.0</ele><time>2026-04-08T07:29:01.358Z</time></trkpt><trkpt lat="45.7711167" lon="14.0288988"><ele>506.0</ele><time>2026-04-08T07:29:03.332Z</time></trkpt><trkpt lat="45.7712756" lon="14.0287062"><ele>506.0</ele><time>2026-04-08T07:29:04.35Z</time></trkpt><trkpt lat="45.7714204" lon="14.0284899"><ele>506.0</ele><time>2026-04-08T07:29:05.334Z</time></trkpt><trkpt lat="45.7729727" lon="14.0250311"><ele>494.66666666666663</ele><time>2026-04-08T07:29:19.322Z</time></trkpt><trkpt lat="45.7730634" lon="14.0247584"><ele>483.33333333333337</ele><time>2026-04-08T07:29:20.354Z</time></trkpt><trkpt lat="45.7731732" lon="14.024511"><ele>472.0</ele><time>2026-04-08T07:29:21.325Z</time></trkpt><trkpt lat="45.7732928" lon="14.0242995"><ele>467.33333333333337</ele><time>2026-04-08T07:29:22.351Z</time></trkpt><trkpt lat="45.7734148" lon="14.0240836"><ele>462.66666666666663</ele><time>2026-04-08T07:29:23.344Z</time></trkpt><trkpt lat="45.7735376" lon="14.0238832"><ele>458.0</ele><time>2026-04-08T07:29:24.344Z</time></trkpt><trkpt lat="45.7736579" lon="14.0236844"><ele>458.0</ele><time>2026-04-08T07:29:25.332Z</time></trkpt><trkpt lat="45.7737865" lon="14.0234846"><ele>458.0</ele><time>2026-04-08T07:29:26.344Z</time></trkpt><trkpt lat="45.7739225" lon="14.0232959"><ele>458.0</ele><time>2026-04-08T07:29:27.337Z</time></trkpt><trkpt lat="45.7740651" lon="14.0231039"><ele>453.3333333333333</ele><time>2026-04-08T07:29:28.333Z</time></trkpt><trkpt lat="45.7742115" lon="14.0229144"><ele>448.66666666666663</ele><time>2026-04-08T07:29:29.346Z</time></trkpt><trkpt lat="45.7743646" lon="14.0227261"><ele>444.0</ele><time>2026-04-08T07:29:30.336Z</time></trkpt><trkpt lat="45.7745235" lon="14.0225455"><ele>441.0</ele><time>2026-04-08T07:29:31.329Z</time></trkpt><trkpt lat="45.7746829" lon="14.0223742"><ele>438.0</ele><time>2026-04-08T07:29:32.332Z</time></trkpt><trkpt lat="45.7748448" lon="14.0221991"><ele>435.0</ele><time>2026-04-08T07:29:33.35Z</time></trkpt><trkpt lat="45.7750143" lon="14.0220404"><ele>436.0</ele><time>2026-04-08T07:29:34.335Z</time></trkpt><trkpt lat="45.7751918" lon="14.0218888"><ele>437.0</ele><time>2026-04-08T07:29:35.334Z</time></trkpt><trkpt lat="45.7753728" lon="14.0217337"><ele>438.0</ele><time>2026-04-08T07:29:36.342Z</time></trkpt><trkpt lat="45.7755549" lon="14.0215831"><ele>433.5</ele><time>2026-04-08T07:29:37.343Z</time></trkpt><trkpt lat="45.7759222" lon="14.0212847"><ele>429.0</ele><time>2026-04-08T07:29:39.334Z</time></trkpt><trkpt lat="45.7761051" lon="14.021137"><ele>429.0</ele><time>2026-04-08T07:29:40.342Z</time></trkpt><trkpt lat="45.7762898" lon="14.0209856"><ele>429.0</ele><time>2026-04-08T07:29:41.349Z</time></trkpt><trkpt lat="45.7764738" lon="14.0208232"><ele>429.0</ele><time>2026-04-08T07:29:42.326Z</time></trkpt><trkpt lat="45.7766593" lon="14.0206571"><ele>428.66666666666663</ele><time>2026-04-08T07:29:43.351Z</time></trkpt><trkpt lat="45.7768424" lon="14.020491"><ele>428.3333333333333</ele><time>2026-04-08T07:29:44.327Z</time></trkpt><trkpt lat="45.7770247" lon="14.0203161"><ele>428.0</ele><time>2026-04-08T07:29:45.331Z</time></trkpt><trkpt lat="45.777201" lon="14.0201324"><ele>425.66666666666663</ele><time>2026-04-08T07:29:46.343Z</time></trkpt><trkpt lat="45.7773748" lon="14.0199434"><ele>423.33333333333337</ele><time>2026-04-08T07:29:47.395Z</time></trkpt><trkpt lat="45.7775451" lon="14.0197428"><ele>421.0</ele><time>2026-04-08T07:29:48.331Z</time></trkpt><trkpt lat="45.777871" lon="14.019321"><ele>416.0</ele><time>2026-04-08T07:29:50.332Z</time></trkpt><trkpt lat="45.7780329" lon="14.019106"><ele>411.0</ele><time>2026-04-08T07:29:51.335Z</time></trkpt><trkpt lat="45.7781965" lon="14.0188816"><ele>406.0</ele><time>2026-04-08T07:29:52.337Z</time></trkpt><trkpt lat="45.7785007" lon="14.01841"><ele>410.6666666666667</ele><time>2026-04-08T07:29:54.331Z</time></trkpt><trkpt lat="45.7786369" lon="14.018185"><ele>415.33333333333337</ele><time>2026-04-08T07:29:55.336Z</time></trkpt><trkpt lat="45.778762" lon="14.0179612"><ele>420.0</ele><time>2026-04-08T07:29:56.324Z</time></trkpt><trkpt lat="45.7788754" lon="14.0177395"><ele>420.0</ele><time>2026-04-08T07:29:57.331Z</time></trkpt><trkpt lat="45.7789741" lon="14.0175352"><ele>420.0</ele><time>2026-04-08T07:29:58.331Z</time></trkpt><trkpt lat="45.7790579" lon="14.0173415"><ele>420.0</ele><time>2026-04-08T07:29:59.332Z</time></trkpt><trkpt lat="45.7791338" lon="14.0171636"><ele>416.75</ele><time>2026-04-08T07:30:00.327Z</time></trkpt><trkpt lat="45.7792059" lon="14.0169968"><ele>413.5</ele><time>2026-04-08T07:30:01.34Z</time></trkpt><trkpt lat="45.7792713" lon="14.0168169"><ele>410.25</ele><time>2026-04-08T07:30:02.338Z</time></trkpt><trkpt lat="45.7793368" lon="14.0166311"><ele>407.0</ele><time>2026-04-08T07:30:03.335Z</time></trkpt><trkpt lat="45.7794889" lon="14.0162163"><ele>407.0</ele><time>2026-04-08T07:30:05.351Z</time></trkpt><trkpt lat="45.7795806" lon="14.0159938"><ele>407.0</ele><time>2026-04-08T07:30:06.336Z</time></trkpt><trkpt lat="45.7796822" lon="14.0157452"><ele>407.0</ele><time>2026-04-08T07:30:07.33Z</time></trkpt><trkpt lat="45.7797867" lon="14.015475"><ele>403.66666666666663</ele><time>2026-04-08T07:30:08.335Z</time></trkpt><trkpt lat="45.7798819" lon="14.0152099"><ele>400.33333333333337</ele><time>2026-04-08T07:30:09.335Z</time></trkpt><trkpt lat="45.7799775" lon="14.0149546"><ele>397.0</ele><time>2026-04-08T07:30:10.322Z</time></trkpt><trkpt lat="45.7800708" lon="14.0147164"><ele>396.33333333333337</ele><time>2026-04-08T07:30:11.322Z</time></trkpt><trkpt lat="45.7801721" lon="14.0144779"><ele>395.66666666666663</ele><time>2026-04-08T07:30:12.321Z</time></trkpt><trkpt lat="45.7802767" lon="14.0142391"><ele>395.0</ele><time>2026-04-08T07:30:13.342Z</time></trkpt><trkpt lat="45.7803894" lon="14.0140096"><ele>395.0</ele><time>2026-04-08T07:30:14.322Z</time></trkpt><trkpt lat="45.7805083" lon="14.0137804"><ele>395.0</ele><time>2026-04-08T07:30:15.351Z</time></trkpt><trkpt lat="45.7806309" lon="14.0135581"><ele>395.0</ele><time>2026-04-08T07:30:16.335Z</time></trkpt><trkpt lat="45.7807576" lon="14.0133401"><ele>397.3333333333333</ele><time>2026-04-08T07:30:17.319Z</time></trkpt><trkpt lat="45.7808879" lon="14.0131295"><ele>399.66666666666663</ele><time>2026-04-08T07:30:18.323Z</time></trkpt><trkpt lat="45.7810209" lon="14.0129241"><ele>402.0</ele><time>2026-04-08T07:30:19.352Z</time></trkpt><trkpt lat="45.7811545" lon="14.0127246"><ele>402.0</ele><time>2026-04-08T07:30:20.32Z</time></trkpt><trkpt lat="45.7812962" lon="14.0125279"><ele>402.0</ele><time>2026-04-08T07:30:21.328Z</time></trkpt><trkpt lat="45.7814453" lon="14.0123383"><ele>402.0</ele><time>2026-04-08T07:30:22.322Z</time></trkpt><trkpt lat="45.7815958" lon="14.0121564"><ele>391.0</ele><time>2026-04-08T07:30:23.33Z</time></trkpt><trkpt lat="45.781752" lon="14.0119778"><ele>380.0</ele><time>2026-04-08T07:30:24.342Z</time></trkpt><trkpt lat="45.7820747" lon="14.0116297"><ele>377.33333333333337</ele><time>2026-04-08T07:30:26.345Z</time></trkpt><trkpt lat="45.7822362" lon="14.0114564"><ele>374.6666666666667</ele><time>2026-04-08T07:30:27.329Z</time></trkpt><trkpt lat="45.782405" lon="14.0112871"><ele>372.0</ele><time>2026-04-08T07:30:28.327Z</time></trkpt><trkpt lat="45.7825695" lon="14.0111095"><ele>374.3333333333333</ele><time>2026-04-08T07:30:29.345Z</time></trkpt><trkpt lat="45.7827283" lon="14.0109206"><ele>376.66666666666663</ele><time>2026-04-08T07:30:30.326Z</time></trkpt><trkpt lat="45.782885" lon="14.0107232"><ele>379.0</ele><time>2026-04-08T07:30:31.326Z</time></trkpt><trkpt lat="45.7830363" lon="14.0105143"><ele>379.0</ele><time>2026-04-08T07:30:32.323Z</time></trkpt><trkpt lat="45.7831792" lon="14.0102978"><ele>379.0</ele><time>2026-04-08T07:30:33.344Z</time></trkpt><trkpt lat="45.7833165" lon="14.0100786"><ele>379.0</ele><time>2026-04-08T07:30:34.334Z</time></trkpt><trkpt lat="45.7835593" lon="14.0096063"><ele>378.3333333333333</ele><time>2026-04-08T07:30:36.324Z</time></trkpt><trkpt lat="45.7836744" lon="14.0093609"><ele>377.6666666666667</ele><time>2026-04-08T07:30:37.32Z</time></trkpt><trkpt lat="45.7837812" lon="14.00911"><ele>377.0</ele><time>2026-04-08T07:30:38.321Z</time></trkpt><trkpt lat="45.7839659" lon="14.0085619"><ele>371.0</ele><time>2026-04-08T07:30:40.329Z</time></trkpt><trkpt lat="45.7840472" lon="14.0082874"><ele>365.0</ele><time>2026-04-08T07:30:41.322Z</time></trkpt><trkpt lat="45.7841265" lon="14.0080086"><ele>359.0</ele><time>2026-04-08T07:30:42.315Z</time></trkpt><trkpt lat="45.7842042" lon="14.0077288"><ele>356.33333333333337</ele><time>2026-04-08T07:30:43.334Z</time></trkpt><trkpt lat="45.7842749" lon="14.0074519"><ele>353.6666666666667</ele><time>2026-04-08T07:30:44.316Z</time></trkpt><trkpt lat="45.7843484" lon="14.0071742"><ele>351.0</ele><time>2026-04-08T07:30:45.321Z</time></trkpt><trkpt lat="45.7844187" lon="14.0069072"><ele>355.0</ele><time>2026-04-08T07:30:46.347Z</time></trkpt><trkpt lat="45.7844922" lon="14.0066516"><ele>359.0</ele><time>2026-04-08T07:30:47.331Z</time></trkpt><trkpt lat="45.7845736" lon="14.0063982"><ele>363.0</ele><time>2026-04-08T07:30:48.332Z</time></trkpt><trkpt lat="45.7846523" lon="14.0061598"><ele>363.0</ele><time>2026-04-08T07:30:49.321Z</time></trkpt><trkpt lat="45.7847319" lon="14.0059398"><ele>363.0</ele><time>2026-04-08T07:30:50.321Z</time></trkpt><trkpt lat="45.7848109" lon="14.0057279"><ele>363.0</ele><time>2026-04-08T07:30:51.324Z</time></trkpt><trkpt lat="45.7848955" lon="14.005518"><ele>359.3333333333333</ele><time>2026-04-08T07:30:52.328Z</time></trkpt><trkpt lat="45.7849826" lon="14.0053145"><ele>355.66666666666663</ele><time>2026-04-08T07:30:53.322Z</time></trkpt><trkpt lat="45.785072" lon="14.0051148"><ele>352.0</ele><time>2026-04-08T07:30:54.318Z</time></trkpt><trkpt lat="45.7851641" lon="14.0049221"><ele>352.5</ele><time>2026-04-08T07:30:55.347Z</time></trkpt><trkpt lat="45.7852607" lon="14.0047204"><ele>353.0</ele><time>2026-04-08T07:30:56.33Z</time></trkpt><trkpt lat="45.7854662" lon="14.0043244"><ele>344.5</ele><time>2026-04-08T07:30:58.327Z</time></trkpt><trkpt lat="45.7855728" lon="14.0041346"><ele>336.0</ele><time>2026-04-08T07:30:59.322Z</time></trkpt><trkpt lat="45.7857888" lon="14.003773"><ele>336.0</ele><time>2026-04-08T07:31:01.334Z</time></trkpt><trkpt lat="45.785902" lon="14.003592"><ele>336.0</ele><time>2026-04-08T07:31:02.319Z</time></trkpt><trkpt lat="45.7861367" lon="14.0032476"><ele>330.3333333333333</ele><time>2026-04-08T07:31:04.309Z</time></trkpt><trkpt lat="45.7862656" lon="14.0030782"><ele>324.66666666666663</ele><time>2026-04-08T07:31:05.314Z</time></trkpt><trkpt lat="45.7863999" lon="14.0029112"><ele>319.0</ele><time>2026-04-08T07:31:06.315Z</time></trkpt><trkpt lat="45.7865355" lon="14.0027457"><ele>309.0</ele><time>2026-04-08T07:31:07.33Z</time></trkpt><trkpt lat="45.7868112" lon="14.0024194"><ele>299.0</ele><time>2026-04-08T07:31:09.334Z</time></trkpt><trkpt lat="45.7869481" lon="14.0022619"><ele>299.0</ele><time>2026-04-08T07:31:10.323Z</time></trkpt><trkpt lat="45.7870856" lon="14.0021098"><ele>299.0</ele><time>2026-04-08T07:31:11.326Z</time></trkpt><trkpt lat="45.7872244" lon="14.001959"><ele>299.0</ele><time>2026-04-08T07:31:12.322Z</time></trkpt><trkpt lat="45.7873588" lon="14.0018109"><ele>299.0</ele><time>2026-04-08T07:31:13.339Z</time></trkpt><trkpt lat="45.7874816" lon="14.0016722"><ele>299.0</ele><time>2026-04-08T07:31:14.316Z</time></trkpt><trkpt lat="45.7875984" lon="14.0015346"><ele>299.0</ele><time>2026-04-08T07:31:15.319Z</time></trkpt><trkpt lat="45.7877187" lon="14.001389"><ele>302.5</ele><time>2026-04-08T07:31:16.315Z</time></trkpt><trkpt lat="45.7878406" lon="14.0012466"><ele>306.0</ele><time>2026-04-08T07:31:17.319Z</time></trkpt><trkpt lat="45.7879558" lon="14.0011106"><ele>309.5</ele><time>2026-04-08T07:31:18.329Z</time></trkpt><trkpt lat="45.7880614" lon="14.0009835"><ele>313.0</ele><time>2026-04-08T07:31:19.33Z</time></trkpt><trkpt lat="45.7881663" lon="14.0008576"><ele>310.75</ele><time>2026-04-08T07:31:20.313Z</time></trkpt><trkpt lat="45.7882706" lon="14.0007353"><ele>308.5</ele><time>2026-04-08T07:31:21.342Z</time></trkpt><trkpt lat="45.7883778" lon="14.0005991"><ele>306.25</ele><time>2026-04-08T07:31:22.311Z</time></trkpt><trkpt lat="45.7884867" lon="14.0004525"><ele>304.0</ele><time>2026-04-08T07:31:23.339Z</time></trkpt><trkpt lat="45.7886016" lon="14.0002982"><ele>309.75</ele><time>2026-04-08T07:31:24.318Z</time></trkpt><trkpt lat="45.788714" lon="14.0001522"><ele>315.5</ele><time>2026-04-08T07:31:25.315Z</time></trkpt><trkpt lat="45.7888203" lon="14.0000031"><ele>321.25</ele><time>2026-04-08T07:31:26.318Z</time></trkpt><trkpt lat="45.7889223" lon="13.9998568"><ele>327.0</ele><time>2026-04-08T07:31:27.321Z</time></trkpt><trkpt lat="45.7890276" lon="13.999705"><ele>327.0</ele><time>2026-04-08T07:31:28.314Z</time></trkpt><trkpt lat="45.7892356" lon="13.9993915"><ele>327.0</ele><time>2026-04-08T07:31:30.325Z</time></trkpt><trkpt lat="45.7893417" lon="13.9992336"><ele>330.6666666666667</ele><time>2026-04-08T07:31:31.333Z</time></trkpt><trkpt lat="45.7894534" lon="13.9990629"><ele>334.33333333333337</ele><time>2026-04-08T07:31:32.311Z</time></trkpt><trkpt lat="45.7895661" lon="13.9988824"><ele>338.0</ele><time>2026-04-08T07:31:33.323Z</time></trkpt><trkpt lat="45.7896756" lon="13.9987048"><ele>338.0</ele><time>2026-04-08T07:31:34.315Z</time></trkpt><trkpt lat="45.789783" lon="13.9985227"><ele>338.0</ele><time>2026-04-08T07:31:35.317Z</time></trkpt><trkpt lat="45.7898878" lon="13.9983428"><ele>338.0</ele><time>2026-04-08T07:31:36.31Z</time></trkpt><trkpt lat="45.7899915" lon="13.9981586"><ele>326.0</ele><time>2026-04-08T07:31:37.328Z</time></trkpt><trkpt lat="45.7900956" lon="13.9979697"><ele>314.0</ele><time>2026-04-08T07:31:38.32Z</time></trkpt><trkpt lat="45.7903018" lon="13.9975924"><ele>308.0</ele><time>2026-04-08T07:31:40.311Z</time></trkpt><trkpt lat="45.7903965" lon="13.9973983"><ele>302.0</ele><time>2026-04-08T07:31:41.312Z</time></trkpt><trkpt lat="45.7904892" lon="13.9972046"><ele>296.0</ele><time>2026-04-08T07:31:42.306Z</time></trkpt><trkpt lat="45.7905877" lon="13.9970095"><ele>296.0</ele><time>2026-04-08T07:31:43.322Z</time></trkpt><trkpt lat="45.7906852" lon="13.9968089"><ele>296.0</ele><time>2026-04-08T07:31:44.331Z</time></trkpt><trkpt lat="45.7907829" lon="13.9966054"><ele>296.0</ele><time>2026-04-08T07:31:45.342Z</time></trkpt><trkpt lat="45.7908784" lon="13.9964003"><ele>297.0</ele><time>2026-04-08T07:31:46.315Z</time></trkpt><trkpt lat="45.7909732" lon="13.9961924"><ele>298.0</ele><time>2026-04-08T07:31:47.314Z</time></trkpt><trkpt lat="45.7910679" lon="13.9959821"><ele>299.0</ele><time>2026-04-08T07:31:48.309Z</time></trkpt><trkpt lat="45.7911615" lon="13.9957677"><ele>296.0</ele><time>2026-04-08T07:31:49.313Z</time></trkpt><trkpt lat="45.7912538" lon="13.9955588"><ele>293.0</ele><time>2026-04-08T07:31:50.304Z</time></trkpt><trkpt lat="45.7913493" lon="13.9953488"><ele>290.0</ele><time>2026-04-08T07:31:51.299Z</time></trkpt><trkpt lat="45.7914421" lon="13.9951426"><ele>288.33333333333337</ele><time>2026-04-08T07:31:52.308Z</time></trkpt><trkpt lat="45.7915302" lon="13.9949399"><ele>286.6666666666667</ele><time>2026-04-08T07:31:53.305Z</time></trkpt><trkpt lat="45.7916172" lon="13.9947454"><ele>285.0</ele><time>2026-04-08T07:31:54.303Z</time></trkpt><trkpt lat="45.7917004" lon="13.9945563"><ele>285.0</ele><time>2026-04-08T07:31:55.318Z</time></trkpt><trkpt lat="45.7917824" lon="13.9943758"><ele>285.0</ele><time>2026-04-08T07:31:56.305Z</time></trkpt><trkpt lat="45.791941" lon="13.9940346"><ele>285.0</ele><time>2026-04-08T07:31:58.307Z</time></trkpt><trkpt lat="45.7920264" lon="13.9938727"><ele>285.0</ele><time>2026-04-08T07:31:59.32Z</time></trkpt><trkpt lat="45.7921113" lon="13.9937065"><ele>285.0</ele><time>2026-04-08T07:32:00.309Z</time></trkpt><trkpt lat="45.7922854" lon="13.9933671"><ele>285.0</ele><time>2026-04-08T07:32:02.303Z</time></trkpt><trkpt lat="45.7923727" lon="13.993189"><ele>285.0</ele><time>2026-04-08T07:32:03.315Z</time></trkpt><trkpt lat="45.792456" lon="13.9930064"><ele>285.0</ele><time>2026-04-08T07:32:04.308Z</time></trkpt><trkpt lat="45.7925391" lon="13.9928184"><ele>285.0</ele><time>2026-04-08T07:32:05.301Z</time></trkpt><trkpt lat="45.7926238" lon="13.9926275"><ele>286.6666666666667</ele><time>2026-04-08T07:32:06.303Z</time></trkpt><trkpt lat="45.7927117" lon="13.9924316"><ele>288.33333333333337</ele><time>2026-04-08T07:32:07.314Z</time></trkpt><trkpt lat="45.7928037" lon="13.9922322"><ele>290.0</ele><time>2026-04-08T07:32:08.304Z</time></trkpt><trkpt lat="45.7929031" lon="13.9920231"><ele>290.0</ele><time>2026-04-08T07:32:09.303Z</time></trkpt><trkpt lat="45.793009" lon="13.9917908"><ele>290.0</ele><time>2026-04-08T07:32:10.303Z</time></trkpt><trkpt lat="45.7931266" lon="13.9915478"><ele>290.0</ele><time>2026-04-08T07:32:11.31Z</time></trkpt><trkpt lat="45.7933706" lon="13.9910543"><ele>288.6666666666667</ele><time>2026-04-08T07:32:13.314Z</time></trkpt><trkpt lat="45.79349" lon="13.9908243"><ele>287.3333333333333</ele><time>2026-04-08T07:32:14.298Z</time></trkpt><trkpt lat="45.7936123" lon="13.9906051"><ele>286.0</ele><time>2026-04-08T07:32:15.322Z</time></trkpt><trkpt lat="45.7937369" lon="13.9903928"><ele>286.0</ele><time>2026-04-08T07:32:16.311Z</time></trkpt><trkpt lat="45.7938588" lon="13.9901902"><ele>286.0</ele><time>2026-04-08T07:32:17.306Z</time></trkpt><trkpt lat="45.7939828" lon="13.9899898"><ele>286.0</ele><time>2026-04-08T07:32:18.307Z</time></trkpt><trkpt lat="45.7941114" lon="13.9897882"><ele>259.0</ele><time>2026-04-08T07:32:19.31Z</time></trkpt><trkpt lat="45.7962514" lon="13.9873421"><ele>259.0</ele><time>2026-04-08T07:32:32.298Z</time></trkpt><trkpt lat="45.7963996" lon="13.9871234"><ele>259.0</ele><time>2026-04-08T07:32:33.312Z</time></trkpt><trkpt lat="45.7965751" lon="13.9869527"><ele>259.0</ele><time>2026-04-08T07:32:34.31Z</time></trkpt><trkpt lat="45.7967524" lon="13.9867935"><ele>257.3333333333333</ele><time>2026-04-08T07:32:35.31Z</time></trkpt><trkpt lat="45.7969185" lon="13.9866351"><ele>255.66666666666669</ele><time>2026-04-08T07:32:36.323Z</time></trkpt><trkpt lat="45.7970905" lon="13.9864791"><ele>254.0</ele><time>2026-04-08T07:32:37.319Z</time></trkpt><trkpt lat="45.7972576" lon="13.9863129"><ele>254.0</ele><time>2026-04-08T07:32:38.305Z</time></trkpt><trkpt lat="45.7974218" lon="13.9861267"><ele>254.0</ele><time>2026-04-08T07:32:39.302Z</time></trkpt><trkpt lat="45.7975801" lon="13.9859467"><ele>254.0</ele><time>2026-04-08T07:32:40.303Z</time></trkpt><trkpt lat="45.7977374" lon="13.9857472"><ele>250.33333333333334</ele><time>2026-04-08T07:32:41.319Z</time></trkpt><trkpt lat="45.7978883" lon="13.9855282"><ele>246.66666666666669</ele><time>2026-04-08T07:32:42.315Z</time></trkpt><trkpt lat="45.7980346" lon="13.9853117"><ele>243.0</ele><time>2026-04-08T07:32:43.308Z</time></trkpt><trkpt lat="45.7981724" lon="13.98508"><ele>242.33333333333331</ele><time>2026-04-08T07:32:44.297Z</time></trkpt><trkpt lat="45.7983049" lon="13.9848489"><ele>241.66666666666666</ele><time>2026-04-08T07:32:45.326Z</time></trkpt><trkpt lat="45.7984308" lon="13.9846103"><ele>241.0</ele><time>2026-04-08T07:32:46.309Z</time></trkpt><trkpt lat="45.7985503" lon="13.9843681"><ele>248.5</ele><time>2026-04-08T07:32:47.296Z</time></trkpt><trkpt lat="45.798777" lon="13.9838865"><ele>256.0</ele><time>2026-04-08T07:32:49.308Z</time></trkpt><trkpt lat="45.8027404" lon="13.9787615"><ele>256.0</ele><time>2026-04-08T07:33:13.011Z</time></trkpt><trkpt lat="45.8030017" lon="13.9785939"><ele>256.0</ele><time>2026-04-08T07:33:14.321Z</time></trkpt><trkpt lat="45.8031981" lon="13.9784599"><ele>256.0</ele><time>2026-04-08T07:33:15.301Z</time></trkpt><trkpt lat="45.803407" lon="13.9783695"><ele>256.0</ele><time>2026-04-08T07:33:16.307Z</time></trkpt><trkpt lat="45.8036104" lon="13.9783162"><ele>256.0</ele><time>2026-04-08T07:33:17.296Z</time></trkpt><trkpt lat="45.8038022" lon="13.9782697"><ele>252.66666666666666</ele><time>2026-04-08T07:33:18.294Z</time></trkpt><trkpt lat="45.8039839" lon="13.9782238"><ele>249.33333333333331</ele><time>2026-04-08T07:33:19.325Z</time></trkpt><trkpt lat="45.8041605" lon="13.9781955"><ele>246.0</ele><time>2026-04-08T07:33:20.293Z</time></trkpt><trkpt lat="45.8043268" lon="13.9781814"><ele>243.33333333333331</ele><time>2026-04-08T07:33:21.305Z</time></trkpt><trkpt lat="45.8044889" lon="13.9781736"><ele>240.66666666666666</ele><time>2026-04-08T07:33:22.296Z</time></trkpt><trkpt lat="45.8046515" lon="13.9781705"><ele>238.0</ele><time>2026-04-08T07:33:23.312Z</time></trkpt><trkpt lat="45.8048172" lon="13.9781744"><ele>238.0</ele><time>2026-04-08T07:33:24.305Z</time></trkpt><trkpt lat="45.8051522" lon="13.9781937"><ele>238.0</ele><time>2026-04-08T07:33:26.294Z</time></trkpt><trkpt lat="45.8053192" lon="13.9782117"><ele>226.0</ele><time>2026-04-08T07:33:27.294Z</time></trkpt><trkpt lat="45.8054916" lon="13.9782443"><ele>214.0</ele><time>2026-04-08T07:33:28.296Z</time></trkpt><trkpt lat="45.8058567" lon="13.978299"><ele>210.0</ele><time>2026-04-08T07:33:30.292Z</time></trkpt><trkpt lat="45.8060409" lon="13.9783144"><ele>206.0</ele><time>2026-04-08T07:33:31.297Z</time></trkpt><trkpt lat="45.8062196" lon="13.9783165"><ele>202.0</ele><time>2026-04-08T07:33:32.312Z</time></trkpt><trkpt lat="45.8063985" lon="13.9783196"><ele>202.0</ele><time>2026-04-08T07:33:33.292Z</time></trkpt><trkpt lat="45.8065811" lon="13.9783156"><ele>202.0</ele><time>2026-04-08T07:33:34.291Z</time></trkpt><trkpt lat="45.8067629" lon="13.9783028"><ele>202.0</ele><time>2026-04-08T07:33:35.327Z</time></trkpt><trkpt lat="45.8071181" lon="13.9782618"><ele>203.66666666666666</ele><time>2026-04-08T07:33:37.293Z</time></trkpt><trkpt lat="45.8072815" lon="13.9782359"><ele>205.33333333333331</ele><time>2026-04-08T07:33:38.287Z</time></trkpt><trkpt lat="45.8074441" lon="13.9782045"><ele>207.0</ele><time>2026-04-08T07:33:39.302Z</time></trkpt><trkpt lat="45.8076082" lon="13.9781578"><ele>208.0</ele><time>2026-04-08T07:33:40.297Z</time></trkpt><trkpt lat="45.8077683" lon="13.9781042"><ele>209.0</ele><time>2026-04-08T07:33:41.291Z</time></trkpt><trkpt lat="45.8079281" lon="13.9780505"><ele>210.0</ele><time>2026-04-08T07:33:42.29Z</time></trkpt><trkpt lat="45.8080846" lon="13.9779946"><ele>210.0</ele><time>2026-04-08T07:33:43.297Z</time></trkpt><trkpt lat="45.8082418" lon="13.9779315"><ele>210.0</ele><time>2026-04-08T07:33:44.32Z</time></trkpt><trkpt lat="45.8083969" lon="13.9778609"><ele>210.0</ele><time>2026-04-08T07:33:45.3Z</time></trkpt><trkpt lat="45.8085504" lon="13.9777838"><ele>210.66666666666669</ele><time>2026-04-08T07:33:46.301Z</time></trkpt><trkpt lat="45.8087022" lon="13.977701"><ele>211.33333333333334</ele><time>2026-04-08T07:33:47.294Z</time></trkpt><trkpt lat="45.8088529" lon="13.9776103"><ele>212.0</ele><time>2026-04-08T07:33:48.289Z</time></trkpt><trkpt lat="45.8089967" lon="13.9775241"><ele>209.0</ele><time>2026-04-08T07:33:49.295Z</time></trkpt><trkpt lat="45.8091347" lon="13.9774336"><ele>206.0</ele><time>2026-04-08T07:33:50.286Z</time></trkpt><trkpt lat="45.8092697" lon="13.9773355"><ele>203.0</ele><time>2026-04-08T07:33:51.282Z</time></trkpt><trkpt lat="45.8093957" lon="13.9772384"><ele>200.0</ele><time>2026-04-08T07:33:52.302Z</time></trkpt><trkpt lat="45.8095215" lon="13.9771312"><ele>200.0</ele><time>2026-04-08T07:33:53.291Z</time></trkpt><trkpt lat="45.809776" lon="13.9769174"><ele>200.0</ele><time>2026-04-08T07:33:55.289Z</time></trkpt><trkpt lat="45.8099007" lon="13.9767958"><ele>200.0</ele><time>2026-04-08T07:33:56.287Z</time></trkpt><trkpt lat="45.8100207" lon="13.9766784"><ele>196.66666666666669</ele><time>2026-04-08T07:33:57.3Z</time></trkpt><trkpt lat="45.8101411" lon="13.9765565"><ele>193.33333333333334</ele><time>2026-04-08T07:33:58.289Z</time></trkpt><trkpt lat="45.8103761" lon="13.9762955"><ele>190.0</ele><time>2026-04-08T07:34:00.297Z</time></trkpt><trkpt lat="45.8104913" lon="13.9761612"><ele>190.0</ele><time>2026-04-08T07:34:01.293Z</time></trkpt><trkpt lat="45.8106015" lon="13.9760104"><ele>190.0</ele><time>2026-04-08T07:34:02.285Z</time></trkpt><trkpt lat="45.8107035" lon="13.9758558"><ele>190.0</ele><time>2026-04-08T07:34:03.299Z</time></trkpt><trkpt lat="45.8108019" lon="13.9757071"><ele>190.0</ele><time>2026-04-08T07:34:04.292Z</time></trkpt><trkpt lat="45.8109016" lon="13.9755582"><ele>188.75</ele><time>2026-04-08T07:34:05.297Z</time></trkpt><trkpt lat="45.8110032" lon="13.9754057"><ele>187.5</ele><time>2026-04-08T07:34:06.303Z</time></trkpt><trkpt lat="45.8110995" lon="13.9752492"><ele>186.25</ele><time>2026-04-08T07:34:07.297Z</time></trkpt><trkpt lat="45.8111907" lon="13.9750873"><ele>185.0</ele><time>2026-04-08T07:34:08.283Z</time></trkpt><trkpt lat="45.8112848" lon="13.9749177"><ele>181.5</ele><time>2026-04-08T07:34:09.299Z</time></trkpt><trkpt lat="45.811469" lon="13.9745685"><ele>178.0</ele><time>2026-04-08T07:34:11.29Z</time></trkpt><trkpt lat="45.8115615" lon="13.9743853"><ele>178.0</ele><time>2026-04-08T07:34:12.284Z</time></trkpt><trkpt lat="45.8116518" lon="13.9741969"><ele>178.0</ele><time>2026-04-08T07:34:13.308Z</time></trkpt><trkpt lat="45.81174" lon="13.9739983"><ele>178.0</ele><time>2026-04-08T07:34:14.3Z</time></trkpt><trkpt lat="45.8118189" lon="13.9738087"><ele>178.5</ele><time>2026-04-08T07:34:15.288Z</time></trkpt><trkpt lat="45.8118921" lon="13.9736271"><ele>179.0</ele><time>2026-04-08T07:34:16.291Z</time></trkpt><trkpt lat="45.8119609" lon="13.9734412"><ele>179.5</ele><time>2026-04-08T07:34:17.279Z</time></trkpt><trkpt lat="45.812028" lon="13.9732541"><ele>180.0</ele><time>2026-04-08T07:34:18.296Z</time></trkpt><trkpt lat="45.812087" lon="13.9730663"><ele>178.0</ele><time>2026-04-08T07:34:19.294Z</time></trkpt><trkpt lat="45.8121474" lon="13.9728686"><ele>176.0</ele><time>2026-04-08T07:34:20.292Z</time></trkpt><trkpt lat="45.8122057" lon="13.9726777"><ele>174.0</ele><time>2026-04-08T07:34:21.281Z</time></trkpt><trkpt lat="45.8122573" lon="13.9724863"><ele>172.0</ele><time>2026-04-08T07:34:22.284Z</time></trkpt><trkpt lat="45.8123054" lon="13.9722914"><ele>170.75</ele><time>2026-04-08T07:34:23.295Z</time></trkpt><trkpt lat="45.8123515" lon="13.9720945"><ele>169.5</ele><time>2026-04-08T07:34:24.281Z</time></trkpt><trkpt lat="45.8123954" lon="13.9718977"><ele>168.25</ele><time>2026-04-08T07:34:25.294Z</time></trkpt><trkpt lat="45.8124379" lon="13.9716948"><ele>167.0</ele><time>2026-04-08T07:34:26.282Z</time></trkpt><trkpt lat="45.8124774" lon="13.9714912"><ele>165.5</ele><time>2026-04-08T07:34:27.302Z</time></trkpt><trkpt lat="45.8125097" lon="13.9712834"><ele>164.0</ele><time>2026-04-08T07:34:28.287Z</time></trkpt><trkpt lat="45.8125433" lon="13.9710782"><ele>162.5</ele><time>2026-04-08T07:34:29.3Z</time></trkpt><trkpt lat="45.8125764" lon="13.9708635"><ele>161.0</ele><time>2026-04-08T07:34:30.283Z</time></trkpt><trkpt lat="45.8126368" lon="13.9704442"><ele>162.0</ele><time>2026-04-08T07:34:32.286Z</time></trkpt><trkpt lat="45.8126651" lon="13.9702402"><ele>163.0</ele><time>2026-04-08T07:34:33.274Z</time></trkpt><trkpt lat="45.8126918" lon="13.9700326"><ele>164.0</ele><time>2026-04-08T07:34:34.28Z</time></trkpt><trkpt lat="45.8127231" lon="13.969832"><ele>165.0</ele><time>2026-04-08T07:34:35.311Z</time></trkpt><trkpt lat="45.8127561" lon="13.9696307"><ele>162.0</ele><time>2026-04-08T07:34:36.279Z</time></trkpt><trkpt lat="45.8127921" lon="13.9694268"><ele>159.0</ele><time>2026-04-08T07:34:37.284Z</time></trkpt><trkpt lat="45.8128333" lon="13.969231"><ele>156.0</ele><time>2026-04-08T07:34:38.279Z</time></trkpt><trkpt lat="45.8128694" lon="13.9690372"><ele>153.0</ele><time>2026-04-08T07:34:39.281Z</time></trkpt><trkpt lat="45.812897" lon="13.9688466"><ele>151.0</ele><time>2026-04-08T07:34:40.283Z</time></trkpt><trkpt lat="45.8129599" lon="13.9685043"><ele>149.0</ele><time>2026-04-08T07:34:42.301Z</time></trkpt><trkpt lat="45.8129907" lon="13.9683419"><ele>147.0</ele><time>2026-04-08T07:34:43.289Z</time></trkpt><trkpt lat="45.8130287" lon="13.9681691"><ele>146.25</ele><time>2026-04-08T07:34:44.28Z</time></trkpt><trkpt lat="45.8130736" lon="13.9679906"><ele>145.5</ele><time>2026-04-08T07:34:45.297Z</time></trkpt><trkpt lat="45.8131294" lon="13.9678093"><ele>144.75</ele><time>2026-04-08T07:34:46.288Z</time></trkpt><trkpt lat="45.8131936" lon="13.967625"><ele>144.0</ele><time>2026-04-08T07:34:47.293Z</time></trkpt><trkpt lat="45.8132609" lon="13.9674355"><ele>143.66666666666666</ele><time>2026-04-08T07:34:48.29Z</time></trkpt><trkpt lat="45.8133326" lon="13.9672406"><ele>143.33333333333331</ele><time>2026-04-08T07:34:49.277Z</time></trkpt><trkpt lat="45.8134168" lon="13.9670426"><ele>143.0</ele><time>2026-04-08T07:34:50.271Z</time></trkpt><trkpt lat="45.8134997" lon="13.9668458"><ele>142.33333333333331</ele><time>2026-04-08T07:34:51.285Z</time></trkpt><trkpt lat="45.8135821" lon="13.9666587"><ele>141.66666666666666</ele><time>2026-04-08T07:34:52.279Z</time></trkpt><trkpt lat="45.8136638" lon="13.9664779"><ele>141.0</ele><time>2026-04-08T07:34:53.296Z</time></trkpt><trkpt lat="45.8137505" lon="13.9663044"><ele>141.0</ele><time>2026-04-08T07:34:54.301Z</time></trkpt><trkpt lat="45.8138413" lon="13.9661281"><ele>141.0</ele><time>2026-04-08T07:34:55.315Z</time></trkpt><trkpt lat="45.8139307" lon="13.9659587"><ele>141.0</ele><time>2026-04-08T07:34:56.287Z</time></trkpt><trkpt lat="45.8140266" lon="13.9657926"><ele>140.33333333333334</ele><time>2026-04-08T07:34:57.28Z</time></trkpt><trkpt lat="45.8141246" lon="13.9656314"><ele>139.66666666666669</ele><time>2026-04-08T07:34:58.286Z</time></trkpt><trkpt lat="45.8142239" lon="13.9654697"><ele>139.0</ele><time>2026-04-08T07:34:59.269Z</time></trkpt><trkpt lat="45.8143292" lon="13.965303"><ele>138.66666666666669</ele><time>2026-04-08T07:35:00.275Z</time></trkpt><trkpt lat="45.8144412" lon="13.9651411"><ele>138.33333333333334</ele><time>2026-04-08T07:35:01.292Z</time></trkpt><trkpt lat="45.8145579" lon="13.9649822"><ele>138.0</ele><time>2026-04-08T07:35:02.286Z</time></trkpt><trkpt lat="45.814793" lon="13.9646897"><ele>138.0</ele><time>2026-04-08T07:35:04.276Z</time></trkpt><trkpt lat="45.8149098" lon="13.9645507"><ele>138.0</ele><time>2026-04-08T07:35:05.285Z</time></trkpt><trkpt lat="45.8150294" lon="13.9644157"><ele>138.0</ele><time>2026-04-08T07:35:06.281Z</time></trkpt><trkpt lat="45.8152766" lon="13.9641607"><ele>137.33333333333334</ele><time>2026-04-08T07:35:08.287Z</time></trkpt><trkpt lat="45.8154101" lon="13.9640317"><ele>136.66666666666669</ele><time>2026-04-08T07:35:09.284Z</time></trkpt><trkpt lat="45.8155557" lon="13.9639022"><ele>136.0</ele><time>2026-04-08T07:35:10.277Z</time></trkpt><trkpt lat="45.8157048" lon="13.963772"><ele>136.0</ele><time>2026-04-08T07:35:11.29Z</time></trkpt><trkpt lat="45.8158547" lon="13.9636425"><ele>136.0</ele><time>2026-04-08T07:35:12.286Z</time></trkpt><trkpt lat="45.8160019" lon="13.9635272"><ele>136.0</ele><time>2026-04-08T07:35:13.28Z</time></trkpt><trkpt lat="45.8163064" lon="13.963313"><ele>136.0</ele><time>2026-04-08T07:35:15.284Z</time></trkpt><trkpt lat="45.8164625" lon="13.9632106"><ele>136.0</ele><time>2026-04-08T07:35:16.279Z</time></trkpt><trkpt lat="45.8166214" lon="13.9631132"><ele>136.0</ele><time>2026-04-08T07:35:17.265Z</time></trkpt><trkpt lat="45.8167823" lon="13.9630138"><ele>134.66666666666669</ele><time>2026-04-08T07:35:18.275Z</time></trkpt><trkpt lat="45.8169469" lon="13.9629146"><ele>133.33333333333334</ele><time>2026-04-08T07:35:19.272Z</time></trkpt><trkpt lat="45.8171123" lon="13.9628161"><ele>132.0</ele><time>2026-04-08T07:35:20.291Z</time></trkpt><trkpt lat="45.8172773" lon="13.9627178"><ele>132.0</ele><time>2026-04-08T07:35:21.301Z</time></trkpt><trkpt lat="45.8174466" lon="13.9626252"><ele>132.0</ele><time>2026-04-08T07:35:22.281Z</time></trkpt><trkpt lat="45.8176175" lon="13.9625371"><ele>132.0</ele><time>2026-04-08T07:35:23.296Z</time></trkpt><trkpt lat="45.8177824" lon="13.9624515"><ele>130.33333333333334</ele><time>2026-04-08T07:35:24.275Z</time></trkpt><trkpt lat="45.8179407" lon="13.9623677"><ele>128.66666666666669</ele><time>2026-04-08T07:35:25.281Z</time></trkpt><trkpt lat="45.8180947" lon="13.9622862"><ele>127.0</ele><time>2026-04-08T07:35:26.281Z</time></trkpt><trkpt lat="45.8182517" lon="13.9622093"><ele>127.0</ele><time>2026-04-08T07:35:27.28Z</time></trkpt><trkpt lat="45.8184108" lon="13.9621382"><ele>127.0</ele><time>2026-04-08T07:35:28.268Z</time></trkpt><trkpt lat="45.8185687" lon="13.962071"><ele>127.0</ele><time>2026-04-08T07:35:29.293Z</time></trkpt><trkpt lat="45.8187259" lon="13.9620042"><ele>127.66666666666667</ele><time>2026-04-08T07:35:30.274Z</time></trkpt><trkpt lat="45.8188844" lon="13.96193"><ele>128.33333333333334</ele><time>2026-04-08T07:35:31.271Z</time></trkpt><trkpt lat="45.8190377" lon="13.9618639"><ele>129.0</ele><time>2026-04-08T07:35:32.269Z</time></trkpt><trkpt lat="45.8191942" lon="13.9618019"><ele>128.0</ele><time>2026-04-08T07:35:33.267Z</time></trkpt><trkpt lat="45.8193469" lon="13.9617431"><ele>127.0</ele><time>2026-04-08T07:35:34.271Z</time></trkpt><trkpt lat="45.8196523" lon="13.9616323"><ele>127.0</ele><time>2026-04-08T07:35:36.272Z</time></trkpt><trkpt lat="45.8198038" lon="13.9615794"><ele>127.0</ele><time>2026-04-08T07:35:37.276Z</time></trkpt><trkpt lat="45.8199593" lon="13.9615241"><ele>127.0</ele><time>2026-04-08T07:35:38.298Z</time></trkpt><trkpt lat="45.8201187" lon="13.9614719"><ele>126.0</ele><time>2026-04-08T07:35:39.284Z</time></trkpt><trkpt lat="45.8202818" lon="13.9614269"><ele>125.0</ele><time>2026-04-08T07:35:40.278Z</time></trkpt><trkpt lat="45.8204506" lon="13.9613787"><ele>124.0</ele><time>2026-04-08T07:35:41.265Z</time></trkpt><trkpt lat="45.8206244" lon="13.9613278"><ele>124.0</ele><time>2026-04-08T07:35:42.286Z</time></trkpt><trkpt lat="45.8208006" lon="13.9612836"><ele>124.0</ele><time>2026-04-08T07:35:43.28Z</time></trkpt><trkpt lat="45.8209798" lon="13.9612446"><ele>124.0</ele><time>2026-04-08T07:35:44.274Z</time></trkpt><trkpt lat="45.821157" lon="13.9612002"><ele>122.0</ele><time>2026-04-08T07:35:45.271Z</time></trkpt><trkpt lat="45.8215186" lon="13.9611318"><ele>120.0</ele><time>2026-04-08T07:35:47.276Z</time></trkpt><trkpt lat="45.8217028" lon="13.9610884"><ele>120.66666666666666</ele><time>2026-04-08T07:35:48.28Z</time></trkpt><trkpt lat="45.8218863" lon="13.9610444"><ele>121.33333333333333</ele><time>2026-04-08T07:35:49.274Z</time></trkpt><trkpt lat="45.8220699" lon="13.9610071"><ele>122.0</ele><time>2026-04-08T07:35:50.287Z</time></trkpt><trkpt lat="45.8222494" lon="13.9609671"><ele>122.0</ele><time>2026-04-08T07:35:51.283Z</time></trkpt><trkpt lat="45.8224237" lon="13.9609258"><ele>122.0</ele><time>2026-04-08T07:35:52.271Z</time></trkpt><trkpt lat="45.8225986" lon="13.9608849"><ele>122.0</ele><time>2026-04-08T07:35:53.275Z</time></trkpt><trkpt lat="45.8227786" lon="13.9608395"><ele>120.0</ele><time>2026-04-08T07:35:54.277Z</time></trkpt><trkpt lat="45.8229636" lon="13.9607924"><ele>118.0</ele><time>2026-04-08T07:35:55.29Z</time></trkpt><trkpt lat="45.8233452" lon="13.9606884"><ele>117.66666666666667</ele><time>2026-04-08T07:35:57.269Z</time></trkpt><trkpt lat="45.82354" lon="13.9606292"><ele>117.33333333333334</ele><time>2026-04-08T07:35:58.268Z</time></trkpt><trkpt lat="45.823739" lon="13.9605704"><ele>117.0</ele><time>2026-04-08T07:35:59.272Z</time></trkpt><trkpt lat="45.8239299" lon="13.9605116"><ele>117.0</ele><time>2026-04-08T07:36:00.267Z</time></trkpt><trkpt lat="45.8241179" lon="13.9604511"><ele>117.0</ele><time>2026-04-08T07:36:01.27Z</time></trkpt><trkpt lat="45.8243015" lon="13.9603917"><ele>117.0</ele><time>2026-04-08T07:36:02.288Z</time></trkpt><trkpt lat="45.8244808" lon="13.9603269"><ele>116.66666666666666</ele><time>2026-04-08T07:36:03.271Z</time></trkpt><trkpt lat="45.8246563" lon="13.9602647"><ele>116.33333333333333</ele><time>2026-04-08T07:36:04.265Z</time></trkpt><trkpt lat="45.8248289" lon="13.9602046"><ele>116.0</ele><time>2026-04-08T07:36:05.275Z</time></trkpt><trkpt lat="45.8250021" lon="13.9601379"><ele>116.0</ele><time>2026-04-08T07:36:06.278Z</time></trkpt><trkpt lat="45.8251763" lon="13.9600696"><ele>116.0</ele><time>2026-04-08T07:36:07.267Z</time></trkpt><trkpt lat="45.8253507" lon="13.9600033"><ele>116.0</ele><time>2026-04-08T07:36:08.273Z</time></trkpt><trkpt lat="45.8255117" lon="13.9599359"><ele>115.66666666666666</ele><time>2026-04-08T07:36:09.266Z</time></trkpt><trkpt lat="45.8256604" lon="13.9598868"><ele>115.33333333333334</ele><time>2026-04-08T07:36:10.278Z</time></trkpt><trkpt lat="45.825931" lon="13.9597743"><ele>115.0</ele><time>2026-04-08T07:36:12.268Z</time></trkpt><trkpt lat="45.826063" lon="13.9597154"><ele>115.5</ele><time>2026-04-08T07:36:13.278Z</time></trkpt><trkpt lat="45.8261978" lon="13.9596533"><ele>116.0</ele><time>2026-04-08T07:36:14.267Z</time></trkpt><trkpt lat="45.8263398" lon="13.9595915"><ele>116.5</ele><time>2026-04-08T07:36:15.265Z</time></trkpt><trkpt lat="45.8264872" lon="13.959525"><ele>117.0</ele><time>2026-04-08T07:36:16.268Z</time></trkpt><trkpt lat="45.8267967" lon="13.9593732"><ele>116.33333333333334</ele><time>2026-04-08T07:36:18.263Z</time></trkpt><trkpt lat="45.8269543" lon="13.9592958"><ele>115.66666666666667</ele><time>2026-04-08T07:36:19.267Z</time></trkpt><trkpt lat="45.8271065" lon="13.9592184"><ele>115.0</ele><time>2026-04-08T07:36:20.265Z</time></trkpt><trkpt lat="45.8272504" lon="13.9591456"><ele>114.75</ele><time>2026-04-08T07:36:21.27Z</time></trkpt><trkpt lat="45.827382" lon="13.9590792"><ele>114.5</ele><time>2026-04-08T07:36:22.267Z</time></trkpt><trkpt lat="45.8275062" lon="13.9590153"><ele>114.25</ele><time>2026-04-08T07:36:23.272Z</time></trkpt><trkpt lat="45.8276296" lon="13.958949"><ele>114.0</ele><time>2026-04-08T07:36:24.28Z</time></trkpt><trkpt lat="45.8277577" lon="13.9588853"><ele>113.0</ele><time>2026-04-08T07:36:25.272Z</time></trkpt><trkpt lat="45.8278874" lon="13.9588221"><ele>112.0</ele><time>2026-04-08T07:36:26.273Z</time></trkpt><trkpt lat="45.828126" lon="13.9586802"><ele>111.0</ele><time>2026-04-08T07:36:28.28Z</time></trkpt><trkpt lat="45.8282484" lon="13.9586075"><ele>111.0</ele><time>2026-04-08T07:36:29.287Z</time></trkpt><trkpt lat="45.828375" lon="13.958534"><ele>111.0</ele><time>2026-04-08T07:36:30.259Z</time></trkpt><trkpt lat="45.8285026" lon="13.9584581"><ele>111.0</ele><time>2026-04-08T07:36:31.28Z</time></trkpt><trkpt lat="45.8286254" lon="13.9583797"><ele>111.0</ele><time>2026-04-08T07:36:32.268Z</time></trkpt><trkpt lat="45.8287523" lon="13.9583067"><ele>111.5</ele><time>2026-04-08T07:36:33.275Z</time></trkpt><trkpt lat="45.8288856" lon="13.9582286"><ele>112.0</ele><time>2026-04-08T07:36:34.272Z</time></trkpt><trkpt lat="45.829018" lon="13.9581489"><ele>112.5</ele><time>2026-04-08T07:36:35.279Z</time></trkpt><trkpt lat="45.8291505" lon="13.958066"><ele>113.0</ele><time>2026-04-08T07:36:36.283Z</time></trkpt><trkpt lat="45.8294143" lon="13.9579006"><ele>112.0</ele><time>2026-04-08T07:36:38.255Z</time></trkpt><trkpt lat="45.8295456" lon="13.9578136"><ele>111.0</ele><time>2026-04-08T07:36:39.263Z</time></trkpt><trkpt lat="45.8296761" lon="13.9577278"><ele>110.0</ele><time>2026-04-08T07:36:40.289Z</time></trkpt><trkpt lat="45.8298069" lon="13.9576416"><ele>109.0</ele><time>2026-04-08T07:36:41.278Z</time></trkpt><trkpt lat="45.8299327" lon="13.9575547"><ele>109.25</ele><time>2026-04-08T07:36:42.287Z</time></trkpt><trkpt lat="45.8300572" lon="13.9574654"><ele>109.5</ele><time>2026-04-08T07:36:43.255Z</time></trkpt><trkpt lat="45.8301808" lon="13.9573811"><ele>109.75</ele><time>2026-04-08T07:36:44.289Z</time></trkpt><trkpt lat="45.8303037" lon="13.9572951"><ele>110.0</ele><time>2026-04-08T07:36:45.266Z</time></trkpt><trkpt lat="45.8304272" lon="13.9572035"><ele>109.5</ele><time>2026-04-08T07:36:46.268Z</time></trkpt><trkpt lat="45.8305526" lon="13.9571135"><ele>109.0</ele><time>2026-04-08T07:36:47.273Z</time></trkpt><trkpt lat="45.8306812" lon="13.9570248"><ele>108.5</ele><time>2026-04-08T07:36:48.259Z</time></trkpt><trkpt lat="45.8308158" lon="13.9569375"><ele>108.0</ele><time>2026-04-08T07:36:49.269Z</time></trkpt><trkpt lat="45.8309554" lon="13.9568437"><ele>107.5</ele><time>2026-04-08T07:36:50.262Z</time></trkpt><trkpt lat="45.8310932" lon="13.9567492"><ele>107.0</ele><time>2026-04-08T07:36:51.261Z</time></trkpt><trkpt lat="45.8312279" lon="13.956654"><ele>106.5</ele><time>2026-04-08T07:36:52.263Z</time></trkpt><trkpt lat="45.8313568" lon="13.9565677"><ele>106.0</ele><time>2026-04-08T07:36:53.27Z</time></trkpt><trkpt lat="45.8314834" lon="13.9564875"><ele>105.75</ele><time>2026-04-08T07:36:54.276Z</time></trkpt><trkpt lat="45.8316071" lon="13.9564054"><ele>105.5</ele><time>2026-04-08T07:36:55.267Z</time></trkpt><trkpt lat="45.8317315" lon="13.9563296"><ele>105.25</ele><time>2026-04-08T07:36:56.267Z</time></trkpt><trkpt lat="45.8318536" lon="13.9562488"><ele>105.0</ele><time>2026-04-08T07:36:57.265Z</time></trkpt><trkpt lat="45.8319774" lon="13.956173"><ele>105.0</ele><time>2026-04-08T07:36:58.26Z</time></trkpt><trkpt lat="45.8322156" lon="13.9560256"><ele>105.0</ele><time>2026-04-08T07:37:00.264Z</time></trkpt><trkpt lat="45.8323265" lon="13.9559566"><ele>105.0</ele><time>2026-04-08T07:37:01.263Z</time></trkpt><trkpt lat="45.8324317" lon="13.9558924"><ele>104.5</ele><time>2026-04-08T07:37:02.256Z</time></trkpt><trkpt lat="45.832537" lon="13.9558301"><ele>104.0</ele><time>2026-04-08T07:37:03.278Z</time></trkpt><trkpt lat="45.8326434" lon="13.9557707"><ele>103.5</ele><time>2026-04-08T07:37:04.271Z</time></trkpt><trkpt lat="45.832751" lon="13.955711"><ele>103.0</ele><time>2026-04-08T07:37:05.272Z</time></trkpt><trkpt lat="45.8328614" lon="13.9556522"><ele>103.0</ele><time>2026-04-08T07:37:06.266Z</time></trkpt><trkpt lat="45.8329656" lon="13.9555936"><ele>103.0</ele><time>2026-04-08T07:37:07.255Z</time></trkpt><trkpt lat="45.833068" lon="13.9555375"><ele>103.0</ele><time>2026-04-08T07:37:08.26Z</time></trkpt><trkpt lat="45.8332735" lon="13.9554335"><ele>103.0</ele><time>2026-04-08T07:37:10.255Z</time></trkpt><trkpt lat="45.8333601" lon="13.9553897"><ele>103.0</ele><time>2026-04-08T07:37:11.258Z</time></trkpt><trkpt lat="45.8334405" lon="13.9553475"><ele>103.0</ele><time>2026-04-08T07:37:12.278Z</time></trkpt><trkpt lat="45.8335199" lon="13.9553051"><ele>103.0</ele><time>2026-04-08T07:37:13.268Z</time></trkpt><trkpt lat="45.8336034" lon="13.9552611"><ele>103.0</ele><time>2026-04-08T07:37:14.279Z</time></trkpt><trkpt lat="45.833692" lon="13.9552166"><ele>103.0</ele><time>2026-04-08T07:37:15.258Z</time></trkpt><trkpt lat="45.8337839" lon="13.9551743"><ele>103.0</ele><time>2026-04-08T07:37:16.276Z</time></trkpt><trkpt lat="45.8338757" lon="13.9551298"><ele>103.0</ele><time>2026-04-08T07:37:17.27Z</time></trkpt><trkpt lat="45.8339645" lon="13.9550833"><ele>103.0</ele><time>2026-04-08T07:37:18.255Z</time></trkpt><trkpt lat="45.834052" lon="13.9550396"><ele>103.0</ele><time>2026-04-08T07:37:19.277Z</time></trkpt><trkpt lat="45.8342298" lon="13.9549573"><ele>103.00000000000001</ele><time>2026-04-08T07:37:21.256Z</time></trkpt><trkpt lat="45.8343154" lon="13.9549233"><ele>103.0</ele><time>2026-04-08T07:37:22.268Z</time></trkpt><trkpt lat="45.8343844" lon="13.9548883"><ele>103.0</ele><time>2026-04-08T07:37:23.254Z</time></trkpt><trkpt lat="45.8344487" lon="13.9548599"><ele>103.0</ele><time>2026-04-08T07:37:24.267Z</time></trkpt><trkpt lat="45.8345205" lon="13.9548259"><ele>103.00000000000001</ele><time>2026-04-08T07:37:25.28Z</time></trkpt><trkpt lat="45.8345972" lon="13.9547945"><ele>103.0</ele><time>2026-04-08T07:37:26.282Z</time></trkpt><trkpt lat="45.8346806" lon="13.954755"><ele>103.0</ele><time>2026-04-08T07:37:27.258Z</time></trkpt><trkpt lat="45.8347612" lon="13.9547212"><ele>103.0</ele><time>2026-04-08T07:37:28.256Z</time></trkpt><trkpt lat="45.8348384" lon="13.9546884"><ele>103.0</ele><time>2026-04-08T07:37:29.275Z</time></trkpt><trkpt lat="45.8349155" lon="13.9546521"><ele>103.0</ele><time>2026-04-08T07:37:30.254Z</time></trkpt><trkpt lat="45.8350883" lon="13.9545764"><ele>103.0</ele><time>2026-04-08T07:37:32.26Z</time></trkpt><trkpt lat="45.8351933" lon="13.9545332"><ele>102.25</ele><time>2026-04-08T07:37:33.274Z</time></trkpt><trkpt lat="45.8353069" lon="13.9544837"><ele>101.5</ele><time>2026-04-08T07:37:34.252Z</time></trkpt><trkpt lat="45.8354258" lon="13.9544258"><ele>100.75</ele><time>2026-04-08T07:37:35.274Z</time></trkpt><trkpt lat="45.8355406" lon="13.954374"><ele>100.0</ele><time>2026-04-08T07:37:36.266Z</time></trkpt><trkpt lat="45.8356511" lon="13.9543285"><ele>100.0</ele><time>2026-04-08T07:37:37.258Z</time></trkpt><trkpt lat="45.8357552" lon="13.9542763"><ele>100.0</ele><time>2026-04-08T07:37:38.26Z</time></trkpt><trkpt lat="45.8358627" lon="13.9542303"><ele>100.0</ele><time>2026-04-08T07:37:39.249Z</time></trkpt><trkpt lat="45.8359697" lon="13.9541839"><ele>100.0</ele><time>2026-04-08T07:37:40.254Z</time></trkpt><trkpt lat="45.8360797" lon="13.9541411"><ele>100.0</ele><time>2026-04-08T07:37:41.255Z</time></trkpt><trkpt lat="45.8361911" lon="13.9541224"><ele>100.0</ele><time>2026-04-08T07:37:42.262Z</time></trkpt><trkpt lat="45.8363061" lon="13.9541287"><ele>100.0</ele><time>2026-04-08T07:37:43.256Z</time></trkpt><trkpt lat="45.836432" lon="13.9541403"><ele>100.0</ele><time>2026-04-08T07:37:44.252Z</time></trkpt><trkpt lat="45.8365646" lon="13.9541538"><ele>100.0</ele><time>2026-04-08T07:37:45.271Z</time></trkpt><trkpt lat="45.8366906" lon="13.9541737"><ele>99.5</ele><time>2026-04-08T07:37:46.26Z</time></trkpt><trkpt lat="45.8368073" lon="13.9542253"><ele>99.0</ele><time>2026-04-08T07:37:47.259Z</time></trkpt><trkpt lat="45.836902" lon="13.9542966"><ele>98.5</ele><time>2026-04-08T07:37:48.26Z</time></trkpt><trkpt lat="45.8369738" lon="13.9544203"><ele>98.0</ele><time>2026-04-08T07:37:49.256Z</time></trkpt><trkpt lat="45.8370272" lon="13.9545652"><ele>97.99999999999999</ele><time>2026-04-08T07:37:50.251Z</time></trkpt><trkpt lat="45.8370597" lon="13.9547086"><ele>98.0</ele><time>2026-04-08T07:37:51.256Z</time></trkpt><trkpt lat="45.83706" lon="13.9548435"><ele>98.0</ele><time>2026-04-08T07:37:52.265Z</time></trkpt><trkpt lat="45.837049" lon="13.9549711"><ele>98.0</ele><time>2026-04-08T07:37:53.263Z</time></trkpt><trkpt lat="45.837019" lon="13.9550847"><ele>97.99999999999999</ele><time>2026-04-08T07:37:54.254Z</time></trkpt><trkpt lat="45.8369831" lon="13.9551789"><ele>98.0</ele><time>2026-04-08T07:37:55.247Z</time></trkpt><trkpt lat="45.8369227" lon="13.9553135"><ele>97.75</ele><time>2026-04-08T07:37:57.247Z</time></trkpt><trkpt lat="45.8368621" lon="13.9554222"><ele>97.5</ele><time>2026-04-08T07:37:59.255Z</time></trkpt><trkpt lat="45.8367423" lon="13.9554786"><ele>97.25</ele><time>2026-04-08T07:38:01.248Z</time></trkpt><trkpt lat="45.8366584" lon="13.9554529"><ele>97.0</ele><time>2026-04-08T07:38:02.25Z</time></trkpt><trkpt lat="45.8365271" lon="13.9553381"><ele>97.50000000000001</ele><time>2026-04-08T07:38:04.263Z</time></trkpt><trkpt lat="45.8364665" lon="13.9552846"><ele>98.0</ele><time>2026-04-08T07:38:05.255Z</time></trkpt><trkpt lat="45.8364077" lon="13.9552308"><ele>98.5</ele><time>2026-04-08T07:38:06.25Z</time></trkpt><trkpt lat="45.8363504" lon="13.9551785"><ele>99.0</ele><time>2026-04-08T07:38:07.252Z</time></trkpt><trkpt lat="45.8362779" lon="13.9551239"><ele>99.50000000000001</ele><time>2026-04-08T07:38:08.263Z</time></trkpt><trkpt lat="45.8361832" lon="13.9550557"><ele>100.0</ele><time>2026-04-08T07:38:09.263Z</time></trkpt><trkpt lat="45.8360693" lon="13.9549606"><ele>100.0</ele><time>2026-04-08T07:38:10.248Z</time></trkpt><trkpt lat="45.8359524" lon="13.9548609"><ele>100.0</ele><time>2026-04-08T07:38:11.255Z</time></trkpt><trkpt lat="45.8358314" lon="13.9547568"><ele>100.0</ele><time>2026-04-08T07:38:12.256Z</time></trkpt><trkpt lat="45.8355978" lon="13.9545369"><ele>100.0</ele><time>2026-04-08T07:38:14.243Z</time></trkpt><trkpt lat="45.8354767" lon="13.9544221"><ele>100.0</ele><time>2026-04-08T07:38:15.238Z</time></trkpt><trkpt lat="45.8353506" lon="13.9542947"><ele>100.0</ele><time>2026-04-08T07:38:16.247Z</time></trkpt><trkpt lat="45.8352304" lon="13.9541772"><ele>100.0</ele><time>2026-04-08T07:38:17.255Z</time></trkpt><trkpt lat="45.8351185" lon="13.9540702"><ele>100.4</ele><time>2026-04-08T07:38:18.25Z</time></trkpt><trkpt lat="45.8350046" lon="13.9539794"><ele>100.8</ele><time>2026-04-08T07:38:19.262Z</time></trkpt><trkpt lat="45.834896" lon="13.9539085"><ele>101.19999999999999</ele><time>2026-04-08T07:38:20.253Z</time></trkpt><trkpt lat="45.8347998" lon="13.9538593"><ele>101.6</ele><time>2026-04-08T07:38:21.251Z</time></trkpt><trkpt lat="45.8347075" lon="13.9538193"><ele>102.0</ele><time>2026-04-08T07:38:22.249Z</time></trkpt><trkpt lat="45.8346274" lon="13.9537883"><ele>102.0</ele><time>2026-04-08T07:38:23.265Z</time></trkpt><trkpt lat="45.8344971" lon="13.9537421"><ele>102.0</ele><time>2026-04-08T07:38:25.252Z</time></trkpt><trkpt lat="45.8343781" lon="13.9536803"><ele>102.0</ele><time>2026-04-08T07:38:27.261Z</time></trkpt><trkpt lat="45.8343223" lon="13.9536249"><ele>102.0</ele><time>2026-04-08T07:38:28.263Z</time></trkpt><trkpt lat="45.8342039" lon="13.9535783"><ele>102.5</ele><time>2026-04-08T07:38:30.262Z</time></trkpt><trkpt lat="45.834082" lon="13.9536359"><ele>103.0</ele><time>2026-04-08T07:38:32.256Z</time></trkpt><trkpt lat="45.8340082" lon="13.9536689"><ele>103.5</ele><time>2026-04-08T07:38:33.256Z</time></trkpt><trkpt lat="45.8339153" lon="13.953694"><ele>104.0</ele><time>2026-04-08T07:38:34.279Z</time></trkpt><trkpt lat="45.8336812" lon="13.953767"><ele>104.0</ele><time>2026-04-08T07:38:36.271Z</time></trkpt><trkpt lat="45.8335067" lon="13.9538404"><ele>104.0</ele><time>2026-04-08T07:38:37.261Z</time></trkpt><trkpt lat="45.8333243" lon="13.9539364"><ele>104.0</ele><time>2026-04-08T07:38:38.254Z</time></trkpt><trkpt lat="45.833151" lon="13.954061"><ele>104.33333333333333</ele><time>2026-04-08T07:38:39.258Z</time></trkpt><trkpt lat="45.8329708" lon="13.9542233"><ele>104.66666666666666</ele><time>2026-04-08T07:38:40.244Z</time></trkpt><trkpt lat="45.8328029" lon="13.9544146"><ele>105.0</ele><time>2026-04-08T07:38:41.248Z</time></trkpt><trkpt lat="45.832631" lon="13.9546172"><ele>105.0</ele><time>2026-04-08T07:38:42.25Z</time></trkpt><trkpt lat="45.8324527" lon="13.9548158"><ele>105.0</ele><time>2026-04-08T07:38:43.255Z</time></trkpt><trkpt lat="45.8322585" lon="13.954993"><ele>105.5</ele><time>2026-04-08T07:38:44.263Z</time></trkpt><trkpt lat="45.8320461" lon="13.9551435"><ele>106.0</ele><time>2026-04-08T07:38:45.271Z</time></trkpt><trkpt lat="45.8315754" lon="13.9553577"><ele>106.0</ele><time>2026-04-08T07:38:47.249Z</time></trkpt><trkpt lat="45.8313249" lon="13.9554549"><ele>106.0</ele><time>2026-04-08T07:38:48.259Z</time></trkpt><trkpt lat="45.8310718" lon="13.9555536"><ele>107.5</ele><time>2026-04-08T07:38:49.273Z</time></trkpt><trkpt lat="45.830824" lon="13.9556462"><ele>109.0</ele><time>2026-04-08T07:38:50.278Z</time></trkpt><trkpt lat="45.83058" lon="13.9557436"><ele>109.0</ele><time>2026-04-08T07:38:51.247Z</time></trkpt><trkpt lat="45.8303398" lon="13.9558371"><ele>109.0</ele><time>2026-04-08T07:38:52.249Z</time></trkpt><trkpt lat="45.8301007" lon="13.955933"><ele>109.5</ele><time>2026-04-08T07:38:53.257Z</time></trkpt><trkpt lat="45.8298599" lon="13.9560257"><ele>110.0</ele><time>2026-04-08T07:38:54.249Z</time></trkpt><trkpt lat="45.8296222" lon="13.9561147"><ele>110.0</ele><time>2026-04-08T07:38:55.269Z</time></trkpt><trkpt lat="45.8293895" lon="13.956207"><ele>110.0</ele><time>2026-04-08T07:38:56.259Z</time></trkpt><trkpt lat="45.8291591" lon="13.9562971"><ele>110.0</ele><time>2026-04-08T07:38:57.245Z</time></trkpt><trkpt lat="45.8289326" lon="13.9563851"><ele>110.0</ele><time>2026-04-08T07:38:58.243Z</time></trkpt><trkpt lat="45.8287078" lon="13.95647"><ele>110.0</ele><time>2026-04-08T07:38:59.254Z</time></trkpt><trkpt lat="45.8284791" lon="13.9565579"><ele>110.0</ele><time>2026-04-08T07:39:00.243Z</time></trkpt><trkpt lat="45.8282498" lon="13.9566512"><ele>111.5</ele><time>2026-04-08T07:39:01.263Z</time></trkpt><trkpt lat="45.8280151" lon="13.9567467"><ele>113.0</ele><time>2026-04-08T07:39:02.256Z</time></trkpt><trkpt lat="45.8277785" lon="13.9568361"><ele>113.0</ele><time>2026-04-08T07:39:03.256Z</time></trkpt><trkpt lat="45.8275394" lon="13.9569197"><ele>113.0</ele><time>2026-04-08T07:39:04.251Z</time></trkpt><trkpt lat="45.8273002" lon="13.9570023"><ele>113.0</ele><time>2026-04-08T07:39:05.247Z</time></trkpt><trkpt lat="45.8270653" lon="13.957089"><ele>113.0</ele><time>2026-04-08T07:39:06.252Z</time></trkpt><trkpt lat="45.8265969" lon="13.9572723"><ele>114.0</ele><time>2026-04-08T07:39:08.244Z</time></trkpt><trkpt lat="45.8263702" lon="13.9573567"><ele>115.0</ele><time>2026-04-08T07:39:09.248Z</time></trkpt><trkpt lat="45.8261546" lon="13.9574343"><ele>115.33333333333334</ele><time>2026-04-08T07:39:10.254Z</time></trkpt><trkpt lat="45.8259449" lon="13.9575153"><ele>115.66666666666666</ele><time>2026-04-08T07:39:11.259Z</time></trkpt><trkpt lat="45.8257372" lon="13.9575919"><ele>116.0</ele><time>2026-04-08T07:39:12.241Z</time></trkpt><trkpt lat="45.825534" lon="13.9576726"><ele>116.0</ele><time>2026-04-08T07:39:13.263Z</time></trkpt><trkpt lat="45.8253327" lon="13.9577516"><ele>116.0</ele><time>2026-04-08T07:39:14.254Z</time></trkpt><trkpt lat="45.8251376" lon="13.9578245"><ele>116.0</ele><time>2026-04-08T07:39:15.238Z</time></trkpt><trkpt lat="45.824946" lon="13.9579001"><ele>116.0</ele><time>2026-04-08T07:39:16.247Z</time></trkpt><trkpt lat="45.8245725" lon="13.9580856"><ele>116.0</ele><time>2026-04-08T07:39:18.262Z</time></trkpt><trkpt lat="45.8243856" lon="13.9582178"><ele>116.66666666666666</ele><time>2026-04-08T07:39:19.259Z</time></trkpt><trkpt lat="45.8242088" lon="13.9583733"><ele>117.33333333333334</ele><time>2026-04-08T07:39:20.254Z</time></trkpt><trkpt lat="45.8240366" lon="13.9585501"><ele>118.0</ele><time>2026-04-08T07:39:21.282Z</time></trkpt><trkpt lat="45.8238619" lon="13.9587378"><ele>118.0</ele><time>2026-04-08T07:39:22.237Z</time></trkpt><trkpt lat="45.8236908" lon="13.9589233"><ele>118.0</ele><time>2026-04-08T07:39:23.249Z</time></trkpt><trkpt lat="45.8235226" lon="13.9591082"><ele>118.0</ele><time>2026-04-08T07:39:24.249Z</time></trkpt><trkpt lat="45.8233577" lon="13.959282"><ele>118.0</ele><time>2026-04-08T07:39:25.247Z</time></trkpt><trkpt lat="45.8231951" lon="13.9594468"><ele>118.0</ele><time>2026-04-08T07:39:26.249Z</time></trkpt><trkpt lat="45.8230332" lon="13.9596121"><ele>118.0</ele><time>2026-04-08T07:39:27.244Z</time></trkpt><trkpt lat="45.8228653" lon="13.9597676"><ele>118.0</ele><time>2026-04-08T07:39:28.275Z</time></trkpt><trkpt lat="45.8226965" lon="13.9598855"><ele>118.0</ele><time>2026-04-08T07:39:29.239Z</time></trkpt><trkpt lat="45.8225278" lon="13.9599654"><ele>118.0</ele><time>2026-04-08T07:39:30.245Z</time></trkpt><trkpt lat="45.8223526" lon="13.9600332"><ele>119.0</ele><time>2026-04-08T07:39:31.25Z</time></trkpt><trkpt lat="45.8221746" lon="13.9600978"><ele>120.0</ele><time>2026-04-08T07:39:32.25Z</time></trkpt><trkpt lat="45.8220088" lon="13.9601652"><ele>121.0</ele><time>2026-04-08T07:39:33.264Z</time></trkpt><trkpt lat="45.8218549" lon="13.9602261"><ele>121.25</ele><time>2026-04-08T07:39:34.246Z</time></trkpt><trkpt lat="45.8217035" lon="13.9602801"><ele>121.5</ele><time>2026-04-08T07:39:35.254Z</time></trkpt><trkpt lat="45.8215592" lon="13.9603345"><ele>121.75</ele><time>2026-04-08T07:39:36.243Z</time></trkpt><trkpt lat="45.8214214" lon="13.9603915"><ele>122.0</ele><time>2026-04-08T07:39:37.242Z</time></trkpt><trkpt lat="45.8212888" lon="13.9604468"><ele>122.0</ele><time>2026-04-08T07:39:38.247Z</time></trkpt><trkpt lat="45.8210263" lon="13.9605675"><ele>122.0</ele><time>2026-04-08T07:39:40.257Z</time></trkpt><trkpt lat="45.8208979" lon="13.9606186"><ele>122.0</ele><time>2026-04-08T07:39:41.252Z</time></trkpt><trkpt lat="45.8207783" lon="13.9606672"><ele>122.75</ele><time>2026-04-08T07:39:42.247Z</time></trkpt><trkpt lat="45.8206678" lon="13.9607131"><ele>123.5</ele><time>2026-04-08T07:39:43.238Z</time></trkpt><trkpt lat="45.8205603" lon="13.9607501"><ele>124.25</ele><time>2026-04-08T07:39:44.246Z</time></trkpt><trkpt lat="45.8204523" lon="13.9607955"><ele>125.0</ele><time>2026-04-08T07:39:45.247Z</time></trkpt><trkpt lat="45.8203297" lon="13.9608569"><ele>124.66666666666666</ele><time>2026-04-08T07:39:46.255Z</time></trkpt><trkpt lat="45.8201838" lon="13.960911"><ele>124.33333333333334</ele><time>2026-04-08T07:39:47.251Z</time></trkpt><trkpt lat="45.8200109" lon="13.9609641"><ele>124.0</ele><time>2026-04-08T07:39:48.245Z</time></trkpt><trkpt lat="45.8196339" lon="13.9611064"><ele>125.0</ele><time>2026-04-08T07:39:50.262Z</time></trkpt><trkpt lat="45.8194306" lon="13.9611882"><ele>126.0</ele><time>2026-04-08T07:39:51.242Z</time></trkpt><trkpt lat="45.8192223" lon="13.9612681"><ele>127.0</ele><time>2026-04-08T07:39:52.264Z</time></trkpt><trkpt lat="45.8190049" lon="13.9613574"><ele>128.0</ele><time>2026-04-08T07:39:53.252Z</time></trkpt><trkpt lat="45.8187852" lon="13.9614422"><ele>129.0</ele><time>2026-04-08T07:39:54.254Z</time></trkpt><trkpt lat="45.818555" lon="13.9615305"><ele>128.5</ele><time>2026-04-08T07:39:55.3Z</time></trkpt><trkpt lat="45.8183191" lon="13.9616205"><ele>128.0</ele><time>2026-04-08T07:39:56.25Z</time></trkpt><trkpt lat="45.818076" lon="13.9617152"><ele>127.5</ele><time>2026-04-08T07:39:57.242Z</time></trkpt><trkpt lat="45.8178259" lon="13.9618152"><ele>127.0</ele><time>2026-04-08T07:39:58.268Z</time></trkpt><trkpt lat="45.8173289" lon="13.9620121"><ele>129.5</ele><time>2026-04-08T07:40:00.244Z</time></trkpt><trkpt lat="45.8170882" lon="13.9621048"><ele>132.0</ele><time>2026-04-08T07:40:01.241Z</time></trkpt><trkpt lat="45.8168541" lon="13.9621849"><ele>136.0</ele><time>2026-04-08T07:40:02.252Z</time></trkpt><trkpt lat="45.8166216" lon="13.9622505"><ele>140.0</ele><time>2026-04-08T07:40:03.256Z</time></trkpt><trkpt lat="45.8163866" lon="13.9622926"><ele>140.0</ele><time>2026-04-08T07:40:04.235Z</time></trkpt><trkpt lat="45.8161527" lon="13.9623321"><ele>140.0</ele><time>2026-04-08T07:40:05.231Z</time></trkpt><trkpt lat="45.8159128" lon="13.962378"><ele>140.0</ele><time>2026-04-08T07:40:06.235Z</time></trkpt><trkpt lat="45.8156638" lon="13.9624457"><ele>140.0</ele><time>2026-04-08T07:40:07.241Z</time></trkpt><trkpt lat="45.8154116" lon="13.9625209"><ele>138.5</ele><time>2026-04-08T07:40:08.237Z</time></trkpt><trkpt lat="45.8151555" lon="13.9625888"><ele>137.0</ele><time>2026-04-08T07:40:09.257Z</time></trkpt><trkpt lat="45.8148997" lon="13.9626573"><ele>136.0</ele><time>2026-04-08T07:40:10.24Z</time></trkpt><trkpt lat="45.8143787" lon="13.9627947"><ele>136.5</ele><time>2026-04-08T07:40:12.249Z</time></trkpt><trkpt lat="45.8141191" lon="13.9628627"><ele>137.0</ele><time>2026-04-08T07:40:13.244Z</time></trkpt><trkpt lat="45.8138627" lon="13.9629325"><ele>137.0</ele><time>2026-04-08T07:40:14.25Z</time></trkpt><trkpt lat="45.8136081" lon="13.962995"><ele>137.0</ele><time>2026-04-08T07:40:15.247Z</time></trkpt><trkpt lat="45.8133603" lon="13.9630541"><ele>137.5</ele><time>2026-04-08T07:40:16.244Z</time></trkpt><trkpt lat="45.813118" lon="13.9631163"><ele>138.0</ele><time>2026-04-08T07:40:17.244Z</time></trkpt><trkpt lat="45.8128797" lon="13.9631828"><ele>137.5</ele><time>2026-04-08T07:40:18.25Z</time></trkpt><trkpt lat="45.8126423" lon="13.9632604"><ele>137.0</ele><time>2026-04-08T07:40:19.241Z</time></trkpt><trkpt lat="45.8124088" lon="13.9633518"><ele>140.0</ele><time>2026-04-08T07:40:20.24Z</time></trkpt><trkpt lat="45.8119317" lon="13.9635498"><ele>140.0</ele><time>2026-04-08T07:40:22.244Z</time></trkpt><trkpt lat="45.8116833" lon="13.96365"><ele>140.0</ele><time>2026-04-08T07:40:23.248Z</time></trkpt><trkpt lat="45.8114315" lon="13.9637593"><ele>140.0</ele><time>2026-04-08T07:40:24.241Z</time></trkpt><trkpt lat="45.8111751" lon="13.963868"><ele>140.0</ele><time>2026-04-08T07:40:25.24Z</time></trkpt><trkpt lat="45.8109184" lon="13.9639741"><ele>139.5</ele><time>2026-04-08T07:40:26.252Z</time></trkpt><trkpt lat="45.8106605" lon="13.9640743"><ele>139.0</ele><time>2026-04-08T07:40:27.235Z</time></trkpt><trkpt lat="45.810399" lon="13.9641757"><ele>140.0</ele><time>2026-04-08T07:40:28.231Z</time></trkpt><trkpt lat="45.8101389" lon="13.9642832"><ele>141.0</ele><time>2026-04-08T07:40:29.259Z</time></trkpt><trkpt lat="45.8098756" lon="13.9643923"><ele>141.0</ele><time>2026-04-08T07:40:30.235Z</time></trkpt><trkpt lat="45.809343" lon="13.9646088"><ele>142.0</ele><time>2026-04-08T07:40:32.248Z</time></trkpt><trkpt lat="45.8090811" lon="13.964714"><ele>143.0</ele><time>2026-04-08T07:40:33.252Z</time></trkpt><trkpt lat="45.8088279" lon="13.9648193"><ele>143.0</ele><time>2026-04-08T07:40:34.235Z</time></trkpt><trkpt lat="45.8085766" lon="13.9649216"><ele>143.0</ele><time>2026-04-08T07:40:35.243Z</time></trkpt><trkpt lat="45.8083257" lon="13.9650244"><ele>142.5</ele><time>2026-04-08T07:40:36.235Z</time></trkpt><trkpt lat="45.8080817" lon="13.9651235"><ele>142.0</ele><time>2026-04-08T07:40:37.248Z</time></trkpt><trkpt lat="45.8078428" lon="13.9652196"><ele>144.5</ele><time>2026-04-08T07:40:38.233Z</time></trkpt><trkpt lat="45.8076089" lon="13.9653137"><ele>147.0</ele><time>2026-04-08T07:40:39.235Z</time></trkpt><trkpt lat="45.8073794" lon="13.9654088"><ele>147.0</ele><time>2026-04-08T07:40:40.234Z</time></trkpt><trkpt lat="45.8071571" lon="13.9655012"><ele>147.0</ele><time>2026-04-08T07:40:41.25Z</time></trkpt><trkpt lat="45.8069374" lon="13.9655982"><ele>148.5</ele><time>2026-04-08T07:40:42.343Z</time></trkpt><trkpt lat="45.8067273" lon="13.965708"><ele>150.0</ele><time>2026-04-08T07:40:43.361Z</time></trkpt><trkpt lat="45.8063372" lon="13.9659625"><ele>150.0</ele><time>2026-04-08T07:40:45.24Z</time></trkpt><trkpt lat="45.8061533" lon="13.9661074"><ele>150.0</ele><time>2026-04-08T07:40:46.237Z</time></trkpt><trkpt lat="45.8059765" lon="13.9662566"><ele>150.0</ele><time>2026-04-08T07:40:47.249Z</time></trkpt><trkpt lat="45.8058108" lon="13.9663981"><ele>149.66666666666666</ele><time>2026-04-08T07:40:48.237Z</time></trkpt><trkpt lat="45.8056478" lon="13.966537"><ele>149.33333333333331</ele><time>2026-04-08T07:40:49.336Z</time></trkpt><trkpt lat="45.805491" lon="13.9666685"><ele>149.0</ele><time>2026-04-08T07:40:50.345Z</time></trkpt><trkpt lat="45.8053364" lon="13.966801"><ele>150.0</ele><time>2026-04-08T07:40:51.334Z</time></trkpt><trkpt lat="45.8050297" lon="13.9670526"><ele>151.0</ele><time>2026-04-08T07:40:53.238Z</time></trkpt><trkpt lat="45.80472" lon="13.9672877"><ele>151.0</ele><time>2026-04-08T07:40:55.34Z</time></trkpt><trkpt lat="45.8045628" lon="13.9673936"><ele>151.0</ele><time>2026-04-08T07:40:56.346Z</time></trkpt><trkpt lat="45.8044052" lon="13.9674923"><ele>151.0</ele><time>2026-04-08T07:40:57.353Z</time></trkpt><trkpt lat="45.8042411" lon="13.9675916"><ele>152.5</ele><time>2026-04-08T07:40:58.35Z</time></trkpt><trkpt lat="45.8038919" lon="13.9677629"><ele>154.0</ele><time>2026-04-08T07:41:00.33Z</time></trkpt><trkpt lat="45.8037081" lon="13.9678414"><ele>154.0</ele><time>2026-04-08T07:41:01.341Z</time></trkpt><trkpt lat="45.8035265" lon="13.9679163"><ele>154.0</ele><time>2026-04-08T07:41:02.337Z</time></trkpt><trkpt lat="45.803348" lon="13.9679918"><ele>154.0</ele><time>2026-04-08T07:41:03.339Z</time></trkpt><trkpt lat="45.8029991" lon="13.9681504"><ele>155.5</ele><time>2026-04-08T07:41:05.356Z</time></trkpt><trkpt lat="45.8026572" lon="13.9683383"><ele>157.0</ele><time>2026-04-08T07:41:07.34Z</time></trkpt><trkpt lat="45.8024918" lon="13.9684473"><ele>157.33333333333334</ele><time>2026-04-08T07:41:08.341Z</time></trkpt><trkpt lat="45.8023281" lon="13.9685751"><ele>157.66666666666666</ele><time>2026-04-08T07:41:09.33Z</time></trkpt><trkpt lat="45.8021697" lon="13.9687115"><ele>158.0</ele><time>2026-04-08T07:41:10.33Z</time></trkpt><trkpt lat="45.8020171" lon="13.9688695"><ele>158.0</ele><time>2026-04-08T07:41:11.326Z</time></trkpt><trkpt lat="45.8018715" lon="13.969044"><ele>158.0</ele><time>2026-04-08T07:41:12.34Z</time></trkpt><trkpt lat="45.801732" lon="13.9692285"><ele>158.0</ele><time>2026-04-08T07:41:13.344Z</time></trkpt><trkpt lat="45.8014866" lon="13.9696283"><ele>158.5</ele><time>2026-04-08T07:41:15.352Z</time></trkpt><trkpt lat="45.8013798" lon="13.9698368"><ele>159.0</ele><time>2026-04-08T07:41:16.325Z</time></trkpt><trkpt lat="45.8011559" lon="13.9702174"><ele>160.0</ele><time>2026-04-08T07:41:18.337Z</time></trkpt><trkpt lat="45.8010163" lon="13.9703429"><ele>161.0</ele><time>2026-04-08T07:41:19.333Z</time></trkpt><trkpt lat="45.8008608" lon="13.970439"><ele>162.0</ele><time>2026-04-08T07:41:20.339Z</time></trkpt><trkpt lat="45.8007007" lon="13.9705073"><ele>163.33333333333334</ele><time>2026-04-08T07:41:21.348Z</time></trkpt><trkpt lat="45.8005357" lon="13.9705838"><ele>164.66666666666669</ele><time>2026-04-08T07:41:22.365Z</time></trkpt><trkpt lat="45.8003644" lon="13.97066"><ele>166.0</ele><time>2026-04-08T07:41:23.345Z</time></trkpt><trkpt lat="45.8001874" lon="13.9707296"><ele>165.5</ele><time>2026-04-08T07:41:24.331Z</time></trkpt><trkpt lat="45.7998326" lon="13.9708434"><ele>165.0</ele><time>2026-04-08T07:41:26.335Z</time></trkpt><trkpt lat="45.7996536" lon="13.9708963"><ele>165.0</ele><time>2026-04-08T07:41:27.33Z</time></trkpt><trkpt lat="45.7994723" lon="13.970948"><ele>165.0</ele><time>2026-04-08T07:41:28.341Z</time></trkpt><trkpt lat="45.7992881" lon="13.9709969"><ele>165.0</ele><time>2026-04-08T07:41:29.341Z</time></trkpt><trkpt lat="45.7991062" lon="13.971044"><ele>166.0</ele><time>2026-04-08T07:41:30.339Z</time></trkpt><trkpt lat="45.7989319" lon="13.9710896"><ele>167.0</ele><time>2026-04-08T07:41:31.335Z</time></trkpt><trkpt lat="45.7987741" lon="13.9711197"><ele>168.0</ele><time>2026-04-08T07:41:32.325Z</time></trkpt><trkpt lat="45.7986291" lon="13.9711371"><ele>169.0</ele><time>2026-04-08T07:41:33.331Z</time></trkpt><trkpt lat="45.7984882" lon="13.9711422"><ele>170.0</ele><time>2026-04-08T07:41:34.335Z</time></trkpt><trkpt lat="45.7983484" lon="13.9711461"><ele>171.0</ele><time>2026-04-08T07:41:35.339Z</time></trkpt><trkpt lat="45.7982207" lon="13.9711514"><ele>172.0</ele><time>2026-04-08T07:41:36.351Z</time></trkpt><trkpt lat="45.7981096" lon="13.9711633"><ele>172.0</ele><time>2026-04-08T07:41:37.33Z</time></trkpt><trkpt lat="45.7980123" lon="13.9712037"><ele>172.0</ele><time>2026-04-08T07:41:38.323Z</time></trkpt><trkpt lat="45.7979208" lon="13.9712811"><ele>172.0</ele><time>2026-04-08T07:41:39.331Z</time></trkpt><trkpt lat="45.797831" lon="13.9713787"><ele>172.0</ele><time>2026-04-08T07:41:40.324Z</time></trkpt><trkpt lat="45.7977483" lon="13.9714772"><ele>172.0</ele><time>2026-04-08T07:41:41.345Z</time></trkpt><trkpt lat="45.7976679" lon="13.971555"><ele>171.83333333333334</ele><time>2026-04-08T07:41:42.336Z</time></trkpt><trkpt lat="45.7975967" lon="13.9716136"><ele>171.66666666666669</ele><time>2026-04-08T07:41:43.332Z</time></trkpt><trkpt lat="45.7975348" lon="13.9716718"><ele>171.5</ele><time>2026-04-08T07:41:44.344Z</time></trkpt><trkpt lat="45.7974809" lon="13.9717286"><ele>171.33333333333334</ele><time>2026-04-08T07:41:45.321Z</time></trkpt><trkpt lat="45.7974304" lon="13.9717899"><ele>171.16666666666666</ele><time>2026-04-08T07:41:46.33Z</time></trkpt><trkpt lat="45.7973719" lon="13.9719159"><ele>171.0</ele><time>2026-04-08T07:41:48.336Z</time></trkpt><trkpt lat="45.7973972" lon="13.9720564"><ele>170.7142857142857</ele><time>2026-04-08T07:41:50.322Z</time></trkpt><trkpt lat="45.7974093" lon="13.9721644"><ele>170.42857142857142</ele><time>2026-04-08T07:41:52.324Z</time></trkpt><trkpt lat="45.7973455" lon="13.9721511"><ele>170.14285714285714</ele><time>2026-04-08T07:41:55.354Z</time></trkpt><trkpt lat="45.797285" lon="13.9720711"><ele>169.85714285714283</ele><time>2026-04-08T07:44:04.302Z</time></trkpt><trkpt lat="45.7972278" lon="13.9720052"><ele>169.57142857142856</ele><time>2026-04-08T07:44:08.314Z</time></trkpt><trkpt lat="45.7972845" lon="13.9720696"><ele>169.28571428571428</ele><time>2026-04-08T07:47:52.302Z</time></trkpt><trkpt lat="45.7973421" lon="13.9721223"><ele>169.0</ele><time>2026-04-08T07:47:57.297Z</time></trkpt><trkpt lat="45.79741" lon="13.9720499"><ele>169.0</ele><time>2026-04-08T07:53:13.274Z</time></trkpt><trkpt lat="45.7974464" lon="13.97194"><ele>169.0</ele><time>2026-04-08T07:53:15.275Z</time></trkpt><trkpt lat="45.7973866" lon="13.9718909"><ele>169.0</ele><time>2026-04-08T07:53:25.266Z</time></trkpt><trkpt lat="45.7972701" lon="13.9719824"><ele>169.0</ele><time>2026-04-08T07:53:27.287Z</time></trkpt><trkpt lat="45.7972138" lon="13.9720659"><ele>169.0</ele><time>2026-04-08T07:53:28.268Z</time></trkpt><trkpt lat="45.7971619" lon="13.9721683"><ele>169.0</ele><time>2026-04-08T07:53:29.275Z</time></trkpt><trkpt lat="45.7971114" lon="13.9722691"><ele>169.0</ele><time>2026-04-08T07:53:30.287Z</time></trkpt><trkpt lat="45.7970227" lon="13.9724832"><ele>169.0</ele><time>2026-04-08T07:53:32.286Z</time></trkpt><trkpt lat="45.7969875" lon="13.9725958"><ele>169.0</ele><time>2026-04-08T07:53:33.285Z</time></trkpt><trkpt lat="45.7969554" lon="13.9727069"><ele>169.0</ele><time>2026-04-08T07:53:34.275Z</time></trkpt><trkpt lat="45.7969238" lon="13.9728246"><ele>168.83333333333334</ele><time>2026-04-08T07:53:35.279Z</time></trkpt><trkpt lat="45.7968905" lon="13.9729457"><ele>168.66666666666669</ele><time>2026-04-08T07:53:36.277Z</time></trkpt><trkpt lat="45.7968625" lon="13.9730636"><ele>168.5</ele><time>2026-04-08T07:53:37.284Z</time></trkpt><trkpt lat="45.7968392" lon="13.9731816"><ele>168.33333333333334</ele><time>2026-04-08T07:53:38.292Z</time></trkpt><trkpt lat="45.7968108" lon="13.9732955"><ele>168.16666666666666</ele><time>2026-04-08T07:53:39.281Z</time></trkpt><trkpt lat="45.7967804" lon="13.9734011"><ele>168.0</ele><time>2026-04-08T07:53:40.271Z</time></trkpt><trkpt lat="45.7967454" lon="13.973508"><ele>169.33333333333334</ele><time>2026-04-08T07:53:41.301Z</time></trkpt><trkpt lat="45.7966076" lon="13.973719"><ele>170.66666666666669</ele><time>2026-04-08T07:53:43.278Z</time></trkpt><trkpt lat="45.7965092" lon="13.9737982"><ele>172.0</ele><time>2026-04-08T07:53:44.271Z</time></trkpt><trkpt lat="45.7962793" lon="13.9739296"><ele>172.0</ele><time>2026-04-08T07:53:46.271Z</time></trkpt><trkpt lat="45.7961489" lon="13.9739922"><ele>172.0</ele><time>2026-04-08T07:53:47.286Z</time></trkpt><trkpt lat="45.7960078" lon="13.9740578"><ele>172.0</ele><time>2026-04-08T07:53:48.275Z</time></trkpt><trkpt lat="45.7958659" lon="13.9741234"><ele>172.0</ele><time>2026-04-08T07:53:49.282Z</time></trkpt><trkpt lat="45.7957217" lon="13.9741982"><ele>173.33333333333334</ele><time>2026-04-08T07:53:50.29Z</time></trkpt><trkpt lat="45.7955818" lon="13.9742931"><ele>174.66666666666666</ele><time>2026-04-08T07:53:51.293Z</time></trkpt><trkpt lat="45.7954447" lon="13.9744107"><ele>176.0</ele><time>2026-04-08T07:53:52.276Z</time></trkpt><trkpt lat="45.7951948" lon="13.9747131"><ele>175.33333333333331</ele><time>2026-04-08T07:53:54.28Z</time></trkpt><trkpt lat="45.7950945" lon="13.9748923"><ele>174.66666666666666</ele><time>2026-04-08T07:53:55.321Z</time></trkpt><trkpt lat="45.7950274" lon="13.9750887"><ele>174.0</ele><time>2026-04-08T07:53:56.277Z</time></trkpt><trkpt lat="45.7949888" lon="13.9753096"><ele>174.0</ele><time>2026-04-08T07:53:57.283Z</time></trkpt><trkpt lat="45.7949535" lon="13.9757967"><ele>174.0</ele><time>2026-04-08T07:53:59.286Z</time></trkpt><trkpt lat="45.794939" lon="13.9763369"><ele>174.33333333333334</ele><time>2026-04-08T07:54:01.271Z</time></trkpt><trkpt lat="45.794931" lon="13.9766195"><ele>174.66666666666669</ele><time>2026-04-08T07:54:02.272Z</time></trkpt><trkpt lat="45.7949195" lon="13.9769053"><ele>175.0</ele><time>2026-04-08T07:54:03.282Z</time></trkpt><trkpt lat="45.7948977" lon="13.9771953"><ele>176.66666666666669</ele><time>2026-04-08T07:54:04.295Z</time></trkpt><trkpt lat="45.7948615" lon="13.9774853"><ele>178.33333333333334</ele><time>2026-04-08T07:54:05.273Z</time></trkpt><trkpt lat="45.7948176" lon="13.977776"><ele>180.0</ele><time>2026-04-08T07:54:06.278Z</time></trkpt><trkpt lat="45.7947636" lon="13.9780679"><ele>180.66666666666666</ele><time>2026-04-08T07:54:07.28Z</time></trkpt><trkpt lat="45.7947071" lon="13.9783489"><ele>181.33333333333331</ele><time>2026-04-08T07:54:08.269Z</time></trkpt><trkpt lat="45.7946429" lon="13.9786251"><ele>182.0</ele><time>2026-04-08T07:54:09.273Z</time></trkpt><trkpt lat="45.7945738" lon="13.9788997"><ele>182.0</ele><time>2026-04-08T07:54:10.278Z</time></trkpt><trkpt lat="45.794495" lon="13.9791754"><ele>182.0</ele><time>2026-04-08T07:54:11.282Z</time></trkpt><trkpt lat="45.7944172" lon="13.9794521"><ele>182.0</ele><time>2026-04-08T07:54:12.272Z</time></trkpt><trkpt lat="45.7943376" lon="13.9797321"><ele>184.0</ele><time>2026-04-08T07:54:13.282Z</time></trkpt><trkpt lat="45.7941777" lon="13.9802958"><ele>186.0</ele><time>2026-04-08T07:54:15.297Z</time></trkpt><trkpt lat="45.7940996" lon="13.9805809"><ele>186.33333333333334</ele><time>2026-04-08T07:54:16.277Z</time></trkpt><trkpt lat="45.79402" lon="13.9808711"><ele>186.66666666666669</ele><time>2026-04-08T07:54:17.279Z</time></trkpt><trkpt lat="45.7939345" lon="13.9811586"><ele>187.0</ele><time>2026-04-08T07:54:18.323Z</time></trkpt><trkpt lat="45.7938565" lon="13.9814421"><ele>187.66666666666669</ele><time>2026-04-08T07:54:19.288Z</time></trkpt><trkpt lat="45.7937738" lon="13.9817201"><ele>188.33333333333334</ele><time>2026-04-08T07:54:20.277Z</time></trkpt><trkpt lat="45.7936821" lon="13.9819937"><ele>189.0</ele><time>2026-04-08T07:54:21.27Z</time></trkpt><trkpt lat="45.7935725" lon="13.9822513"><ele>189.66666666666666</ele><time>2026-04-08T07:54:22.276Z</time></trkpt><trkpt lat="45.7934416" lon="13.9824988"><ele>190.33333333333331</ele><time>2026-04-08T07:54:23.29Z</time></trkpt><trkpt lat="45.7932978" lon="13.9827318"><ele>191.0</ele><time>2026-04-08T07:54:24.289Z</time></trkpt><trkpt lat="45.7929825" lon="13.9831707"><ele>193.66666666666666</ele><time>2026-04-08T07:54:26.274Z</time></trkpt><trkpt lat="45.7928194" lon="13.9833913"><ele>196.33333333333331</ele><time>2026-04-08T07:54:27.288Z</time></trkpt><trkpt lat="45.7926611" lon="13.9836006"><ele>199.0</ele><time>2026-04-08T07:54:28.274Z</time></trkpt><trkpt lat="45.7925166" lon="13.9838047"><ele>199.0</ele><time>2026-04-08T07:54:29.274Z</time></trkpt><trkpt lat="45.7923827" lon="13.984014"><ele>199.0</ele><time>2026-04-08T07:54:30.278Z</time></trkpt><trkpt lat="45.7922665" lon="13.9842392"><ele>199.0</ele><time>2026-04-08T07:54:31.277Z</time></trkpt><trkpt lat="45.7921725" lon="13.9844791"><ele>203.33333333333331</ele><time>2026-04-08T07:54:32.291Z</time></trkpt><trkpt lat="45.7920983" lon="13.9847365"><ele>207.66666666666669</ele><time>2026-04-08T07:54:33.273Z</time></trkpt><trkpt lat="45.7920399" lon="13.9850054"><ele>212.0</ele><time>2026-04-08T07:54:34.272Z</time></trkpt><trkpt lat="45.7919977" lon="13.9852794"><ele>218.0</ele><time>2026-04-08T07:54:35.282Z</time></trkpt><trkpt lat="45.7919922" lon="13.9858575"><ele>224.0</ele><time>2026-04-08T07:54:37.272Z</time></trkpt><trkpt lat="45.792001" lon="13.9861593"><ele>224.0</ele><time>2026-04-08T07:54:38.276Z</time></trkpt><trkpt lat="45.7920116" lon="13.9864729"><ele>224.0</ele><time>2026-04-08T07:54:39.277Z</time></trkpt><trkpt lat="45.7920142" lon="13.9867888"><ele>224.0</ele><time>2026-04-08T07:54:40.288Z</time></trkpt><trkpt lat="45.7920158" lon="13.9871024"><ele>225.33333333333334</ele><time>2026-04-08T07:54:41.286Z</time></trkpt><trkpt lat="45.7920207" lon="13.9874125"><ele>226.66666666666669</ele><time>2026-04-08T07:54:42.287Z</time></trkpt><trkpt lat="45.7920281" lon="13.987725"><ele>228.0</ele><time>2026-04-08T07:54:43.298Z</time></trkpt><trkpt lat="45.7920454" lon="13.9880415"><ele>229.0</ele><time>2026-04-08T07:54:44.275Z</time></trkpt><trkpt lat="45.7920707" lon="13.9883511"><ele>230.0</ele><time>2026-04-08T07:54:45.286Z</time></trkpt><trkpt lat="45.7921276" lon="13.988943"><ele>230.33333333333334</ele><time>2026-04-08T07:54:47.293Z</time></trkpt><trkpt lat="45.79213" lon="13.9892231"><ele>230.66666666666669</ele><time>2026-04-08T07:54:48.29Z</time></trkpt><trkpt lat="45.7921087" lon="13.9895035"><ele>231.0</ele><time>2026-04-08T07:54:49.287Z</time></trkpt><trkpt lat="45.7920728" lon="13.9897924"><ele>234.33333333333331</ele><time>2026-04-08T07:54:50.274Z</time></trkpt><trkpt lat="45.7920309" lon="13.9900819"><ele>237.66666666666666</ele><time>2026-04-08T07:54:51.285Z</time></trkpt><trkpt lat="45.7919939" lon="13.9903552"><ele>241.0</ele><time>2026-04-08T07:54:52.286Z</time></trkpt><trkpt lat="45.7919544" lon="13.990615"><ele>241.0</ele><time>2026-04-08T07:54:53.277Z</time></trkpt><trkpt lat="45.7918833" lon="13.9908281"><ele>241.0</ele><time>2026-04-08T07:54:54.284Z</time></trkpt><trkpt lat="45.7917798" lon="13.9910043"><ele>241.0</ele><time>2026-04-08T07:54:55.285Z</time></trkpt><trkpt lat="45.7916358" lon="13.9911366"><ele>242.33333333333331</ele><time>2026-04-08T07:54:56.288Z</time></trkpt><trkpt lat="45.7914736" lon="13.991255"><ele>243.66666666666669</ele><time>2026-04-08T07:54:57.281Z</time></trkpt><trkpt lat="45.7912995" lon="13.9913779"><ele>245.0</ele><time>2026-04-08T07:54:58.28Z</time></trkpt><trkpt lat="45.791117" lon="13.9914794"><ele>246.66666666666669</ele><time>2026-04-08T07:54:59.297Z</time></trkpt><trkpt lat="45.7909466" lon="13.9915543"><ele>248.33333333333331</ele><time>2026-04-08T07:55:00.289Z</time></trkpt><trkpt lat="45.7907898" lon="13.9916249"><ele>250.0</ele><time>2026-04-08T07:55:01.276Z</time></trkpt><trkpt lat="45.7905366" lon="13.9918569"><ele>250.0</ele><time>2026-04-08T07:55:03.284Z</time></trkpt><trkpt lat="45.7904666" lon="13.9920516"><ele>250.0</ele><time>2026-04-08T07:55:04.272Z</time></trkpt><trkpt lat="45.790439" lon="13.9922697"><ele>250.0</ele><time>2026-04-08T07:55:05.279Z</time></trkpt><trkpt lat="45.7904436" lon="13.9925033"><ele>250.66666666666666</ele><time>2026-04-08T07:55:06.281Z</time></trkpt><trkpt lat="45.7904646" lon="13.992736"><ele>251.33333333333331</ele><time>2026-04-08T07:55:07.279Z</time></trkpt><trkpt lat="45.7905047" lon="13.9929816"><ele>252.0</ele><time>2026-04-08T07:55:08.277Z</time></trkpt><trkpt lat="45.7905927" lon="13.993519"><ele>253.0</ele><time>2026-04-08T07:55:10.283Z</time></trkpt><trkpt lat="45.790635" lon="13.9937921"><ele>254.0</ele><time>2026-04-08T07:55:11.276Z</time></trkpt><trkpt lat="45.7906741" lon="13.9940706"><ele>255.0</ele><time>2026-04-08T07:55:12.272Z</time></trkpt><trkpt lat="45.7907104" lon="13.9943558"><ele>255.0</ele><time>2026-04-08T07:55:13.275Z</time></trkpt><trkpt lat="45.7907435" lon="13.9946375"><ele>255.0</ele><time>2026-04-08T07:55:14.284Z</time></trkpt><trkpt lat="45.790763" lon="13.9949139"><ele>255.0</ele><time>2026-04-08T07:55:15.291Z</time></trkpt><trkpt lat="45.7907694" lon="13.9952017"><ele>257.3333333333333</ele><time>2026-04-08T07:55:16.272Z</time></trkpt><trkpt lat="45.7907631" lon="13.9954803"><ele>259.66666666666663</ele><time>2026-04-08T07:55:17.286Z</time></trkpt><trkpt lat="45.7907477" lon="13.995733"><ele>262.0</ele><time>2026-04-08T07:55:18.279Z</time></trkpt><trkpt lat="45.790625" lon="13.9961056"><ele>262.66666666666663</ele><time>2026-04-08T07:55:20.277Z</time></trkpt><trkpt lat="45.7904928" lon="13.9962298"><ele>263.3333333333333</ele><time>2026-04-08T07:55:21.278Z</time></trkpt><trkpt lat="45.7903323" lon="13.9963093"><ele>264.0</ele><time>2026-04-08T07:55:22.288Z</time></trkpt><trkpt lat="45.7901631" lon="13.9963968"><ele>264.0</ele><time>2026-04-08T07:55:23.278Z</time></trkpt><trkpt lat="45.79001" lon="13.9965264"><ele>264.0</ele><time>2026-04-08T07:55:24.272Z</time></trkpt><trkpt lat="45.7898792" lon="13.9967213"><ele>264.0</ele><time>2026-04-08T07:55:25.279Z</time></trkpt><trkpt lat="45.7897598" lon="13.9969282"><ele>267.0</ele><time>2026-04-08T07:55:26.272Z</time></trkpt><trkpt lat="45.789612" lon="13.9971095"><ele>270.0</ele><time>2026-04-08T07:55:27.274Z</time></trkpt><trkpt lat="45.7894366" lon="13.9972382"><ele>273.0</ele><time>2026-04-08T07:55:28.268Z</time></trkpt><trkpt lat="45.7890651" lon="13.9974454"><ele>279.6666666666667</ele><time>2026-04-08T07:55:30.288Z</time></trkpt><trkpt lat="45.7888953" lon="13.9976009"><ele>286.33333333333337</ele><time>2026-04-08T07:55:31.287Z</time></trkpt><trkpt lat="45.7887631" lon="13.9978062"><ele>293.0</ele><time>2026-04-08T07:55:32.269Z</time></trkpt><trkpt lat="45.7886505" lon="13.9980647"><ele>293.0</ele><time>2026-04-08T07:55:33.283Z</time></trkpt><trkpt lat="45.7885298" lon="13.998324"><ele>293.0</ele><time>2026-04-08T07:55:34.278Z</time></trkpt><trkpt lat="45.7883706" lon="13.9985496"><ele>293.0</ele><time>2026-04-08T07:55:35.275Z</time></trkpt><trkpt lat="45.7882053" lon="13.998732"><ele>291.0</ele><time>2026-04-08T07:55:36.271Z</time></trkpt><trkpt lat="45.7880469" lon="13.9989266"><ele>289.0</ele><time>2026-04-08T07:55:37.273Z</time></trkpt><trkpt lat="45.7879128" lon="13.9991439"><ele>287.0</ele><time>2026-04-08T07:55:38.287Z</time></trkpt><trkpt lat="45.7876755" lon="13.9995731"><ele>285.33333333333337</ele><time>2026-04-08T07:55:40.275Z</time></trkpt><trkpt lat="45.7875842" lon="13.9997957"><ele>283.6666666666667</ele><time>2026-04-08T07:55:41.283Z</time></trkpt><trkpt lat="45.7875451" lon="14.0000505"><ele>282.0</ele><time>2026-04-08T07:55:42.287Z</time></trkpt><trkpt lat="45.787524" lon="14.0003373"><ele>282.0</ele><time>2026-04-08T07:55:43.268Z</time></trkpt><trkpt lat="45.7875119" lon="14.0006283"><ele>282.0</ele><time>2026-04-08T07:55:44.28Z</time></trkpt><trkpt lat="45.787509" lon="14.000904"><ele>282.0</ele><time>2026-04-08T07:55:45.277Z</time></trkpt><trkpt lat="45.7875065" lon="14.00114"><ele>283.6666666666667</ele><time>2026-04-08T07:55:46.285Z</time></trkpt><trkpt lat="45.7874847" lon="14.001345"><ele>285.33333333333337</ele><time>2026-04-08T07:55:47.296Z</time></trkpt><trkpt lat="45.7874401" lon="14.0015202"><ele>287.0</ele><time>2026-04-08T07:55:48.314Z</time></trkpt><trkpt lat="45.7872044" lon="14.0016419"><ele>287.0</ele><time>2026-04-08T07:55:50.297Z</time></trkpt><trkpt lat="45.7870777" lon="14.0016074"><ele>287.0</ele><time>2026-04-08T07:55:51.28Z</time></trkpt><trkpt lat="45.7869209" lon="14.0015388"><ele>287.0</ele><time>2026-04-08T07:55:52.274Z</time></trkpt><trkpt lat="45.7867464" lon="14.0014979"><ele>285.6666666666667</ele><time>2026-04-08T07:55:53.272Z</time></trkpt><trkpt lat="45.7865597" lon="14.0015054"><ele>284.3333333333333</ele><time>2026-04-08T07:55:54.279Z</time></trkpt><trkpt lat="45.7863515" lon="14.0015466"><ele>283.0</ele><time>2026-04-08T07:55:55.273Z</time></trkpt><trkpt lat="45.7861287" lon="14.0015906"><ele>280.5</ele><time>2026-04-08T07:55:56.279Z</time></trkpt><trkpt lat="45.785895" lon="14.0016535"><ele>278.0</ele><time>2026-04-08T07:55:57.297Z</time></trkpt><trkpt lat="45.7856788" lon="14.0017263"><ele>288.0</ele><time>2026-04-08T07:55:58.287Z</time></trkpt><trkpt lat="45.785486" lon="14.001746"><ele>298.0</ele><time>2026-04-08T07:55:59.306Z</time></trkpt><trkpt lat="45.7851585" lon="14.0017251"><ele>298.0</ele><time>2026-04-08T07:56:01.283Z</time></trkpt><trkpt lat="45.785028" lon="14.0017869"><ele>298.0</ele><time>2026-04-08T07:56:02.281Z</time></trkpt><trkpt lat="45.7849333" lon="14.0019047"><ele>298.0</ele><time>2026-04-08T07:56:03.274Z</time></trkpt><trkpt lat="45.7849014" lon="14.002082"><ele>298.0</ele><time>2026-04-08T07:56:04.284Z</time></trkpt><trkpt lat="45.7848705" lon="14.0022864"><ele>298.0</ele><time>2026-04-08T07:56:05.27Z</time></trkpt><trkpt lat="45.7848938" lon="14.0024858"><ele>298.0</ele><time>2026-04-08T07:56:06.272Z</time></trkpt><trkpt lat="45.7849116" lon="14.002673"><ele>298.0</ele><time>2026-04-08T07:56:07.284Z</time></trkpt><trkpt lat="45.7849024" lon="14.0028482"><ele>298.0</ele><time>2026-04-08T07:56:08.272Z</time></trkpt><trkpt lat="45.7848518" lon="14.0030187"><ele>298.0</ele><time>2026-04-08T07:56:09.267Z</time></trkpt><trkpt lat="45.7847628" lon="14.0031508"><ele>298.0</ele><time>2026-04-08T07:56:10.273Z</time></trkpt><trkpt lat="45.784628" lon="14.0032012"><ele>298.0</ele><time>2026-04-08T07:56:11.279Z</time></trkpt><trkpt lat="45.7844777" lon="14.0032151"><ele>298.0</ele><time>2026-04-08T07:56:12.269Z</time></trkpt><trkpt lat="45.784336" lon="14.0032616"><ele>301.66666666666663</ele><time>2026-04-08T07:56:13.277Z</time></trkpt><trkpt lat="45.7842114" lon="14.0033594"><ele>305.3333333333333</ele><time>2026-04-08T07:56:14.267Z</time></trkpt><trkpt lat="45.7841063" lon="14.0035165"><ele>309.0</ele><time>2026-04-08T07:56:15.281Z</time></trkpt><trkpt lat="45.7840136" lon="14.0037569"><ele>309.0</ele><time>2026-04-08T07:56:16.278Z</time></trkpt><trkpt lat="45.7839105" lon="14.0040024"><ele>309.0</ele><time>2026-04-08T07:56:17.28Z</time></trkpt><trkpt lat="45.7837848" lon="14.0042605"><ele>309.0</ele><time>2026-04-08T07:56:18.275Z</time></trkpt><trkpt lat="45.7836669" lon="14.0045324"><ele>310.6666666666667</ele><time>2026-04-08T07:56:19.275Z</time></trkpt><trkpt lat="45.7835549" lon="14.004785"><ele>312.33333333333337</ele><time>2026-04-08T07:56:20.291Z</time></trkpt><trkpt lat="45.7834717" lon="14.0049995"><ele>314.0</ele><time>2026-04-08T07:56:21.275Z</time></trkpt><trkpt lat="45.7834213" lon="14.0052037"><ele>314.0</ele><time>2026-04-08T07:56:22.277Z</time></trkpt><trkpt lat="45.7834314" lon="14.0054073"><ele>314.0</ele><time>2026-04-08T07:56:23.269Z</time></trkpt><trkpt lat="45.7834909" lon="14.0056269"><ele>314.0</ele><time>2026-04-08T07:56:24.273Z</time></trkpt><trkpt lat="45.7835582" lon="14.005853"><ele>324.0</ele><time>2026-04-08T07:56:25.276Z</time></trkpt><trkpt lat="45.7836056" lon="14.0061083"><ele>334.0</ele><time>2026-04-08T07:56:26.273Z</time></trkpt><trkpt lat="45.7835982" lon="14.0063893"><ele>344.0</ele><time>2026-04-08T07:56:27.3Z</time></trkpt><trkpt lat="45.7835514" lon="14.0066795"><ele>346.33333333333337</ele><time>2026-04-08T07:56:28.285Z</time></trkpt><trkpt lat="45.7835247" lon="14.00696"><ele>348.6666666666667</ele><time>2026-04-08T07:56:29.288Z</time></trkpt><trkpt lat="45.7835261" lon="14.0072141"><ele>351.0</ele><time>2026-04-08T07:56:30.27Z</time></trkpt><trkpt lat="45.7835473" lon="14.0074318"><ele>353.0</ele><time>2026-04-08T07:56:31.272Z</time></trkpt><trkpt lat="45.7835514" lon="14.0076174"><ele>355.0</ele><time>2026-04-08T07:56:32.272Z</time></trkpt><trkpt lat="45.7834927" lon="14.007784"><ele>357.0</ele><time>2026-04-08T07:56:33.272Z</time></trkpt><trkpt lat="45.7833839" lon="14.0079177"><ele>359.0</ele><time>2026-04-08T07:56:34.274Z</time></trkpt><trkpt lat="45.7832384" lon="14.0079844"><ele>350.0</ele><time>2026-04-08T07:56:35.284Z</time></trkpt><trkpt lat="45.7830633" lon="14.0080164"><ele>341.0</ele><time>2026-04-08T07:56:36.272Z</time></trkpt><trkpt lat="45.7828672" lon="14.0080555"><ele>332.0</ele><time>2026-04-08T07:56:37.278Z</time></trkpt><trkpt lat="45.7826797" lon="14.0081091"><ele>334.6666666666667</ele><time>2026-04-08T07:56:38.276Z</time></trkpt><trkpt lat="45.7825036" lon="14.0081775"><ele>337.3333333333333</ele><time>2026-04-08T07:56:39.277Z</time></trkpt><trkpt lat="45.7823513" lon="14.0082553"><ele>340.0</ele><time>2026-04-08T07:56:40.272Z</time></trkpt><trkpt lat="45.7822373" lon="14.0083729"><ele>340.0</ele><time>2026-04-08T07:56:41.28Z</time></trkpt><trkpt lat="45.7821539" lon="14.0085262"><ele>340.0</ele><time>2026-04-08T07:56:42.279Z</time></trkpt><trkpt lat="45.7821263" lon="14.0087587"><ele>340.0</ele><time>2026-04-08T07:56:43.297Z</time></trkpt><trkpt lat="45.7821298" lon="14.0090204"><ele>345.0</ele><time>2026-04-08T07:56:44.277Z</time></trkpt><trkpt lat="45.7821364" lon="14.0092988"><ele>350.0</ele><time>2026-04-08T07:56:45.277Z</time></trkpt><trkpt lat="45.7821399" lon="14.0095741"><ele>355.0</ele><time>2026-04-08T07:56:46.267Z</time></trkpt><trkpt lat="45.7821114" lon="14.0098491"><ele>359.0</ele><time>2026-04-08T07:56:47.27Z</time></trkpt><trkpt lat="45.7819354" lon="14.0103263"><ele>363.0</ele><time>2026-04-08T07:56:49.27Z</time></trkpt><trkpt lat="45.7818043" lon="14.010551"><ele>360.6666666666667</ele><time>2026-04-08T07:56:50.269Z</time></trkpt><trkpt lat="45.7816733" lon="14.0107731"><ele>358.33333333333337</ele><time>2026-04-08T07:56:51.269Z</time></trkpt><trkpt lat="45.7815262" lon="14.0109756"><ele>356.0</ele><time>2026-04-08T07:56:52.273Z</time></trkpt><trkpt lat="45.7813239" lon="14.0110953"><ele>356.0</ele><time>2026-04-08T07:56:53.272Z</time></trkpt><trkpt lat="45.7810936" lon="14.0111729"><ele>356.0</ele><time>2026-04-08T07:56:54.294Z</time></trkpt><trkpt lat="45.7806258" lon="14.0113292"><ele>353.6666666666667</ele><time>2026-04-08T07:56:56.272Z</time></trkpt><trkpt lat="45.7804414" lon="14.0114058"><ele>351.3333333333333</ele><time>2026-04-08T07:56:57.277Z</time></trkpt><trkpt lat="45.7803017" lon="14.0114999"><ele>349.0</ele><time>2026-04-08T07:56:58.265Z</time></trkpt><trkpt lat="45.7801966" lon="14.0116345"><ele>351.66666666666663</ele><time>2026-04-08T07:56:59.271Z</time></trkpt><trkpt lat="45.7801299" lon="14.0118052"><ele>354.3333333333333</ele><time>2026-04-08T07:57:00.279Z</time></trkpt><trkpt lat="45.7801071" lon="14.0120385"><ele>357.0</ele><time>2026-04-08T07:57:01.277Z</time></trkpt><trkpt lat="45.7801358" lon="14.012282"><ele>358.3333333333333</ele><time>2026-04-08T07:57:02.269Z</time></trkpt><trkpt lat="45.7801717" lon="14.0125018"><ele>359.66666666666663</ele><time>2026-04-08T07:57:03.274Z</time></trkpt><trkpt lat="45.7801738" lon="14.0127224"><ele>361.0</ele><time>2026-04-08T07:57:04.259Z</time></trkpt><trkpt lat="45.7801114" lon="14.0129374"><ele>361.0</ele><time>2026-04-08T07:57:05.287Z</time></trkpt><trkpt lat="45.7799983" lon="14.0131462"><ele>361.0</ele><time>2026-04-08T07:57:06.295Z</time></trkpt><trkpt lat="45.7798679" lon="14.0133488"><ele>361.0</ele><time>2026-04-08T07:57:07.275Z</time></trkpt><trkpt lat="45.7797286" lon="14.0135723"><ele>366.0</ele><time>2026-04-08T07:57:08.26Z</time></trkpt><trkpt lat="45.7795903" lon="14.01385"><ele>371.0</ele><time>2026-04-08T07:57:09.278Z</time></trkpt><trkpt lat="45.7794511" lon="14.0141625"><ele>371.0</ele><time>2026-04-08T07:57:10.294Z</time></trkpt><trkpt lat="45.7793023" lon="14.0144521"><ele>371.0</ele><time>2026-04-08T07:57:11.273Z</time></trkpt><trkpt lat="45.7791656" lon="14.0147095"><ele>371.0</ele><time>2026-04-08T07:57:12.279Z</time></trkpt><trkpt lat="45.7790592" lon="14.0149664"><ele>371.0</ele><time>2026-04-08T07:57:13.267Z</time></trkpt><trkpt lat="45.7789788" lon="14.01525"><ele>371.0</ele><time>2026-04-08T07:57:14.277Z</time></trkpt><trkpt lat="45.7789367" lon="14.0155525"><ele>377.0</ele><time>2026-04-08T07:57:15.284Z</time></trkpt><trkpt lat="45.7789123" lon="14.0158543"><ele>383.0</ele><time>2026-04-08T07:57:16.266Z</time></trkpt><trkpt lat="45.7788681" lon="14.0161353"><ele>389.0</ele><time>2026-04-08T07:57:17.286Z</time></trkpt><trkpt lat="45.7787914" lon="14.0164056"><ele>392.66666666666663</ele><time>2026-04-08T07:57:18.272Z</time></trkpt><trkpt lat="45.7786865" lon="14.016665"><ele>396.33333333333337</ele><time>2026-04-08T07:57:19.269Z</time></trkpt><trkpt lat="45.7785599" lon="14.0168957"><ele>400.0</ele><time>2026-04-08T07:57:20.27Z</time></trkpt><trkpt lat="45.7784506" lon="14.0171284"><ele>397.33333333333337</ele><time>2026-04-08T07:57:21.273Z</time></trkpt><trkpt lat="45.7783713" lon="14.0173808"><ele>394.66666666666663</ele><time>2026-04-08T07:57:22.28Z</time></trkpt><trkpt lat="45.7783178" lon="14.0176573"><ele>392.0</ele><time>2026-04-08T07:57:23.271Z</time></trkpt><trkpt lat="45.7782886" lon="14.0179216"><ele>392.0</ele><time>2026-04-08T07:57:24.266Z</time></trkpt><trkpt lat="45.7782659" lon="14.0181674"><ele>392.0</ele><time>2026-04-08T07:57:25.267Z</time></trkpt><trkpt lat="45.7782164" lon="14.018371"><ele>392.0</ele><time>2026-04-08T07:57:26.271Z</time></trkpt><trkpt lat="45.7780655" lon="14.0187065"><ele>396.66666666666663</ele><time>2026-04-08T07:57:28.289Z</time></trkpt><trkpt lat="45.7779813" lon="14.018861"><ele>401.33333333333337</ele><time>2026-04-08T07:57:29.258Z</time></trkpt><trkpt lat="45.7778742" lon="14.019018"><ele>406.0</ele><time>2026-04-08T07:57:30.262Z</time></trkpt><trkpt lat="45.7777257" lon="14.01917"><ele>404.6666666666667</ele><time>2026-04-08T07:57:31.297Z</time></trkpt><trkpt lat="45.7775674" lon="14.0193246"><ele>403.33333333333337</ele><time>2026-04-08T07:57:32.28Z</time></trkpt><trkpt lat="45.7773786" lon="14.0194431"><ele>402.0</ele><time>2026-04-08T07:57:33.268Z</time></trkpt><trkpt lat="45.7771733" lon="14.0195369"><ele>402.0</ele><time>2026-04-08T07:57:34.28Z</time></trkpt><trkpt lat="45.7769584" lon="14.0195904"><ele>402.0</ele><time>2026-04-08T07:57:35.265Z</time></trkpt><trkpt lat="45.7766236" lon="14.0196458"><ele>400.33333333333337</ele><time>2026-04-08T07:57:37.271Z</time></trkpt><trkpt lat="45.7764974" lon="14.0197371"><ele>398.6666666666667</ele><time>2026-04-08T07:57:38.272Z</time></trkpt><trkpt lat="45.7764026" lon="14.0199049"><ele>397.0</ele><time>2026-04-08T07:57:39.266Z</time></trkpt><trkpt lat="45.7763177" lon="14.0201212"><ele>400.6666666666667</ele><time>2026-04-08T07:57:40.271Z</time></trkpt><trkpt lat="45.7762172" lon="14.0203217"><ele>404.33333333333337</ele><time>2026-04-08T07:57:41.266Z</time></trkpt><trkpt lat="45.7760748" lon="14.0204954"><ele>408.0</ele><time>2026-04-08T07:57:42.279Z</time></trkpt><trkpt lat="45.7758912" lon="14.020623"><ele>408.0</ele><time>2026-04-08T07:57:43.258Z</time></trkpt><trkpt lat="45.7756904" lon="14.0207456"><ele>408.0</ele><time>2026-04-08T07:57:44.268Z</time></trkpt><trkpt lat="45.775492" lon="14.0208552"><ele>408.0</ele><time>2026-04-08T07:57:45.265Z</time></trkpt><trkpt lat="45.7753023" lon="14.0209401"><ele>411.66666666666663</ele><time>2026-04-08T07:57:46.27Z</time></trkpt><trkpt lat="45.7751131" lon="14.0209595"><ele>415.3333333333333</ele><time>2026-04-08T07:57:47.269Z</time></trkpt><trkpt lat="45.7749411" lon="14.0209375"><ele>419.0</ele><time>2026-04-08T07:57:48.282Z</time></trkpt><trkpt lat="45.774793" lon="14.0209414"><ele>419.0</ele><time>2026-04-08T07:57:49.264Z</time></trkpt><trkpt lat="45.7746748" lon="14.0209952"><ele>419.0</ele><time>2026-04-08T07:57:50.278Z</time></trkpt><trkpt lat="45.7745919" lon="14.0211091"><ele>419.0</ele><time>2026-04-08T07:57:51.265Z</time></trkpt><trkpt lat="45.7745562" lon="14.0212837"><ele>419.0</ele><time>2026-04-08T07:57:52.268Z</time></trkpt><trkpt lat="45.7745411" lon="14.0214998"><ele>420.75</ele><time>2026-04-08T07:57:53.266Z</time></trkpt><trkpt lat="45.7745193" lon="14.0217045"><ele>422.5</ele><time>2026-04-08T07:57:54.281Z</time></trkpt><trkpt lat="45.7744759" lon="14.0218831"><ele>424.25</ele><time>2026-04-08T07:57:55.273Z</time></trkpt><trkpt lat="45.7743834" lon="14.0220178"><ele>426.0</ele><time>2026-04-08T07:57:56.257Z</time></trkpt><trkpt lat="45.7742433" lon="14.0220561"><ele>426.0</ele><time>2026-04-08T07:57:57.269Z</time></trkpt><trkpt lat="45.774079" lon="14.022066"><ele>426.0</ele><time>2026-04-08T07:57:58.266Z</time></trkpt><trkpt lat="45.7739052" lon="14.0220955"><ele>426.0</ele><time>2026-04-08T07:57:59.261Z</time></trkpt><trkpt lat="45.7737219" lon="14.0221761"><ele>426.0</ele><time>2026-04-08T07:58:00.262Z</time></trkpt><trkpt lat="45.7735354" lon="14.0222944"><ele>426.0</ele><time>2026-04-08T07:58:01.269Z</time></trkpt><trkpt lat="45.7733575" lon="14.0224099"><ele>426.0</ele><time>2026-04-08T07:58:02.263Z</time></trkpt><trkpt lat="45.7731764" lon="14.0224943"><ele>426.5</ele><time>2026-04-08T07:58:03.27Z</time></trkpt><trkpt lat="45.773002" lon="14.0225344"><ele>427.0</ele><time>2026-04-08T07:58:04.269Z</time></trkpt><trkpt lat="45.77286" lon="14.022566"><ele>427.5</ele><time>2026-04-08T07:58:05.267Z</time></trkpt><trkpt lat="45.7727551" lon="14.0226226"><ele>428.0</ele><time>2026-04-08T07:58:06.258Z</time></trkpt><trkpt lat="45.7726839" lon="14.0227326"><ele>428.0</ele><time>2026-04-08T07:58:07.263Z</time></trkpt><trkpt lat="45.7726313" lon="14.0228991"><ele>428.0</ele><time>2026-04-08T07:58:08.26Z</time></trkpt><trkpt lat="45.7726119" lon="14.0231624"><ele>428.0</ele><time>2026-04-08T07:58:09.269Z</time></trkpt><trkpt lat="45.7726022" lon="14.023439"><ele>431.3333333333333</ele><time>2026-04-08T07:58:10.263Z</time></trkpt><trkpt lat="45.7725562" lon="14.0236982"><ele>434.66666666666663</ele><time>2026-04-08T07:58:11.253Z</time></trkpt><trkpt lat="45.772476" lon="14.02396"><ele>438.0</ele><time>2026-04-08T07:58:12.263Z</time></trkpt><trkpt lat="45.7724016" lon="14.0242507"><ele>444.0</ele><time>2026-04-08T07:58:13.253Z</time></trkpt><trkpt lat="45.7723324" lon="14.0245679"><ele>450.0</ele><time>2026-04-08T07:58:14.252Z</time></trkpt><trkpt lat="45.7722555" lon="14.0248763"><ele>454.33333333333337</ele><time>2026-04-08T07:58:15.266Z</time></trkpt><trkpt lat="45.7721575" lon="14.0251647"><ele>458.6666666666667</ele><time>2026-04-08T07:58:16.263Z</time></trkpt><trkpt lat="45.7720426" lon="14.0254399"><ele>463.0</ele><time>2026-04-08T07:58:17.266Z</time></trkpt><trkpt lat="45.7719102" lon="14.0257136"><ele>460.5</ele><time>2026-04-08T07:58:18.282Z</time></trkpt><trkpt lat="45.7717255" lon="14.0259844"><ele>458.0</ele><time>2026-04-08T07:58:19.249Z</time></trkpt><trkpt lat="45.7714057" lon="14.0264541"><ele>462.66666666666663</ele><time>2026-04-08T07:58:21.274Z</time></trkpt><trkpt lat="45.7712961" lon="14.0266939"><ele>467.33333333333337</ele><time>2026-04-08T07:58:22.249Z</time></trkpt><trkpt lat="45.7712172" lon="14.0269653"><ele>472.0</ele><time>2026-04-08T07:58:23.256Z</time></trkpt><trkpt lat="45.771151" lon="14.0272706"><ele>475.6666666666667</ele><time>2026-04-08T07:58:24.259Z</time></trkpt><trkpt lat="45.7710942" lon="14.0275784"><ele>479.33333333333337</ele><time>2026-04-08T07:58:25.257Z</time></trkpt><trkpt lat="45.7710254" lon="14.0278775"><ele>483.0</ele><time>2026-04-08T07:58:26.26Z</time></trkpt><trkpt lat="45.7709383" lon="14.0281485"><ele>478.5</ele><time>2026-04-08T07:58:27.258Z</time></trkpt><trkpt lat="45.7708243" lon="14.0283844"><ele>474.0</ele><time>2026-04-08T07:58:28.251Z</time></trkpt><trkpt lat="45.7705308" lon="14.0287357"><ele>474.0</ele><time>2026-04-08T07:58:30.251Z</time></trkpt><trkpt lat="45.7703477" lon="14.028821"><ele>474.0</ele><time>2026-04-08T07:58:31.25Z</time></trkpt><trkpt lat="45.7701599" lon="14.0288298"><ele>474.0</ele><time>2026-04-08T07:58:32.264Z</time></trkpt><trkpt lat="45.7699805" lon="14.0288368"><ele>469.5</ele><time>2026-04-08T07:58:33.246Z</time></trkpt><trkpt lat="45.7696975" lon="14.0289195"><ele>465.0</ele><time>2026-04-08T07:58:35.253Z</time></trkpt><trkpt lat="45.7695754" lon="14.0290768"><ele>468.0</ele><time>2026-04-08T07:58:36.249Z</time></trkpt><trkpt lat="45.7694513" lon="14.0293259"><ele>471.0</ele><time>2026-04-08T07:58:37.261Z</time></trkpt><trkpt lat="45.7693354" lon="14.0295844"><ele>474.0</ele><time>2026-04-08T07:58:38.261Z</time></trkpt><trkpt lat="45.7692161" lon="14.0298183"><ele>478.33333333333337</ele><time>2026-04-08T07:58:39.252Z</time></trkpt><trkpt lat="45.769071" lon="14.0300059"><ele>482.6666666666667</ele><time>2026-04-08T07:58:40.248Z</time></trkpt><trkpt lat="45.7688967" lon="14.0301715"><ele>487.0</ele><time>2026-04-08T07:58:41.262Z</time></trkpt><trkpt lat="45.7686878" lon="14.0303219"><ele>484.0</ele><time>2026-04-08T07:58:42.262Z</time></trkpt><trkpt lat="45.7684605" lon="14.0304701"><ele>481.0</ele><time>2026-04-08T07:58:43.266Z</time></trkpt><trkpt lat="45.7682451" lon="14.0306086"><ele>481.0</ele><time>2026-04-08T07:58:44.257Z</time></trkpt><trkpt lat="45.76805" lon="14.030735"><ele>481.0</ele><time>2026-04-08T07:58:45.258Z</time></trkpt><trkpt lat="45.7678781" lon="14.0308557"><ele>481.0</ele><time>2026-04-08T07:58:46.251Z</time></trkpt><trkpt lat="45.7677107" lon="14.0309588"><ele>485.6666666666667</ele><time>2026-04-08T07:58:47.257Z</time></trkpt><trkpt lat="45.7675615" lon="14.0310518"><ele>490.33333333333337</ele><time>2026-04-08T07:58:48.252Z</time></trkpt><trkpt lat="45.7674229" lon="14.0311434"><ele>495.0</ele><time>2026-04-08T07:58:49.262Z</time></trkpt><trkpt lat="45.7672818" lon="14.0312309"><ele>495.0</ele><time>2026-04-08T07:58:50.264Z</time></trkpt><trkpt lat="45.7671387" lon="14.0313182"><ele>495.0</ele><time>2026-04-08T07:58:51.246Z</time></trkpt><trkpt lat="45.7669889" lon="14.031401"><ele>495.0</ele><time>2026-04-08T07:58:52.248Z</time></trkpt><trkpt lat="45.7668306" lon="14.0314537"><ele>494.0</ele><time>2026-04-08T07:58:53.254Z</time></trkpt><trkpt lat="45.7666755" lon="14.0314601"><ele>493.0</ele><time>2026-04-08T07:58:54.246Z</time></trkpt><trkpt lat="45.7665165" lon="14.0314455"><ele>492.0</ele><time>2026-04-08T07:58:55.257Z</time></trkpt><trkpt lat="45.7663611" lon="14.031437"><ele>492.0</ele><time>2026-04-08T07:58:56.243Z</time></trkpt><trkpt lat="45.7662244" lon="14.0314106"><ele>492.0</ele><time>2026-04-08T07:58:57.253Z</time></trkpt><trkpt lat="45.766102" lon="14.0313784"><ele>492.0</ele><time>2026-04-08T07:58:58.252Z</time></trkpt><trkpt lat="45.7659788" lon="14.0313502"><ele>492.0</ele><time>2026-04-08T07:58:59.255Z</time></trkpt><trkpt lat="45.7658525" lon="14.0313591"><ele>491.75</ele><time>2026-04-08T07:59:00.247Z</time></trkpt><trkpt lat="45.765749" lon="14.0314356"><ele>491.5</ele><time>2026-04-08T07:59:01.259Z</time></trkpt><trkpt lat="45.7656543" lon="14.0315311"><ele>491.25</ele><time>2026-04-08T07:59:02.252Z</time></trkpt><trkpt lat="45.7655675" lon="14.031687"><ele>491.0</ele><time>2026-04-08T07:59:03.251Z</time></trkpt><trkpt lat="45.7655021" lon="14.0319263"><ele>496.66666666666663</ele><time>2026-04-08T07:59:04.244Z</time></trkpt><trkpt lat="45.7654408" lon="14.0322262"><ele>502.33333333333337</ele><time>2026-04-08T07:59:05.258Z</time></trkpt><trkpt lat="45.7653712" lon="14.0325148"><ele>508.0</ele><time>2026-04-08T07:59:06.247Z</time></trkpt><trkpt lat="45.7652711" lon="14.0328271"><ele>505.0</ele><time>2026-04-08T07:59:07.244Z</time></trkpt><trkpt lat="45.7651573" lon="14.0331669"><ele>502.0</ele><time>2026-04-08T07:59:08.239Z</time></trkpt><trkpt lat="45.765046" lon="14.0334996"><ele>508.5</ele><time>2026-04-08T07:59:09.247Z</time></trkpt><trkpt lat="45.7649283" lon="14.0338292"><ele>515.0</ele><time>2026-04-08T07:59:10.245Z</time></trkpt><trkpt lat="45.7648049" lon="14.0341516"><ele>518.3333333333333</ele><time>2026-04-08T07:59:11.242Z</time></trkpt><trkpt lat="45.764686" lon="14.0344327"><ele>521.6666666666666</ele><time>2026-04-08T07:59:12.261Z</time></trkpt><trkpt lat="45.7645786" lon="14.0347064"><ele>525.0</ele><time>2026-04-08T07:59:13.242Z</time></trkpt><trkpt lat="45.764489" lon="14.0350081"><ele>520.0</ele><time>2026-04-08T07:59:14.246Z</time></trkpt><trkpt lat="45.7644121" lon="14.035321"><ele>515.0</ele><time>2026-04-08T07:59:15.246Z</time></trkpt><trkpt lat="45.7643366" lon="14.0356591"><ele>519.0</ele><time>2026-04-08T07:59:16.244Z</time></trkpt><trkpt lat="45.7642618" lon="14.0359966"><ele>523.0</ele><time>2026-04-08T07:59:17.247Z</time></trkpt><trkpt lat="45.7641909" lon="14.0363351"><ele>527.5</ele><time>2026-04-08T07:59:18.241Z</time></trkpt><trkpt lat="45.7641118" lon="14.0366749"><ele>532.0</ele><time>2026-04-08T07:59:19.263Z</time></trkpt><trkpt lat="45.7640414" lon="14.0370153"><ele>532.0</ele><time>2026-04-08T07:59:20.246Z</time></trkpt><trkpt lat="45.7639704" lon="14.0373536"><ele>532.0</ele><time>2026-04-08T07:59:21.253Z</time></trkpt><trkpt lat="45.7639011" lon="14.037682"><ele>535.6666666666667</ele><time>2026-04-08T07:59:22.239Z</time></trkpt><trkpt lat="45.7638381" lon="14.0379941"><ele>539.3333333333334</ele><time>2026-04-08T07:59:23.24Z</time></trkpt><trkpt lat="45.7637625" lon="14.0382754"><ele>543.0</ele><time>2026-04-08T07:59:24.249Z</time></trkpt><trkpt lat="45.7636717" lon="14.0385444"><ele>543.3333333333334</ele><time>2026-04-08T07:59:25.251Z</time></trkpt><trkpt lat="45.7635581" lon="14.0388013"><ele>543.6666666666667</ele><time>2026-04-08T07:59:26.252Z</time></trkpt><trkpt lat="45.7633783" lon="14.0390182"><ele>544.0</ele><time>2026-04-08T07:59:27.248Z</time></trkpt><trkpt lat="45.7631826" lon="14.0392318"><ele>544.0</ele><time>2026-04-08T07:59:28.241Z</time></trkpt><trkpt lat="45.7629848" lon="14.039439"><ele>544.0</ele><time>2026-04-08T07:59:29.245Z</time></trkpt><trkpt lat="45.7626143" lon="14.0399017"><ele>544.5</ele><time>2026-04-08T07:59:31.245Z</time></trkpt><trkpt lat="45.7624306" lon="14.0401545"><ele>545.0</ele><time>2026-04-08T07:59:32.254Z</time></trkpt><trkpt lat="45.7622594" lon="14.04043"><ele>545.0</ele><time>2026-04-08T07:59:33.247Z</time></trkpt><trkpt lat="45.7620983" lon="14.0407138"><ele>545.0</ele><time>2026-04-08T07:59:34.249Z</time></trkpt><trkpt lat="45.761944" lon="14.0409977"><ele>544.5</ele><time>2026-04-08T07:59:35.233Z</time></trkpt><trkpt lat="45.7618114" lon="14.0412958"><ele>544.0</ele><time>2026-04-08T07:59:36.239Z</time></trkpt><trkpt lat="45.7616849" lon="14.0415841"><ele>546.0</ele><time>2026-04-08T07:59:37.247Z</time></trkpt><trkpt lat="45.7615606" lon="14.0418584"><ele>548.0</ele><time>2026-04-08T07:59:38.241Z</time></trkpt><trkpt lat="45.7614238" lon="14.0420962"><ele>550.0</ele><time>2026-04-08T07:59:39.235Z</time></trkpt><trkpt lat="45.7612677" lon="14.0423003"><ele>550.0</ele><time>2026-04-08T07:59:40.244Z</time></trkpt><trkpt lat="45.76109" lon="14.0424628"><ele>550.0</ele><time>2026-04-08T07:59:41.235Z</time></trkpt><trkpt lat="45.7608935" lon="14.0425885"><ele>550.0</ele><time>2026-04-08T07:59:42.253Z</time></trkpt><trkpt lat="45.7606732" lon="14.042689"><ele>556.0</ele><time>2026-04-08T07:59:43.254Z</time></trkpt><trkpt lat="45.7604405" lon="14.0427751"><ele>562.0</ele><time>2026-04-08T07:59:44.24Z</time></trkpt><trkpt lat="45.7602009" lon="14.0428575"><ele>561.5</ele><time>2026-04-08T07:59:45.244Z</time></trkpt><trkpt lat="45.759967" lon="14.0429489"><ele>561.0</ele><time>2026-04-08T07:59:46.239Z</time></trkpt><trkpt lat="45.7597498" lon="14.0430454"><ele>561.0</ele><time>2026-04-08T07:59:47.235Z</time></trkpt><trkpt lat="45.7595475" lon="14.0431728"><ele>561.0</ele><time>2026-04-08T07:59:48.239Z</time></trkpt><trkpt lat="45.7593566" lon="14.0433386"><ele>561.0</ele><time>2026-04-08T07:59:49.234Z</time></trkpt><trkpt lat="45.7591665" lon="14.0435338"><ele>566.5</ele><time>2026-04-08T07:59:50.238Z</time></trkpt><trkpt lat="45.7589847" lon="14.0437333"><ele>572.0</ele><time>2026-04-08T07:59:51.24Z</time></trkpt><trkpt lat="45.7588081" lon="14.0439342"><ele>572.0</ele><time>2026-04-08T07:59:52.241Z</time></trkpt><trkpt lat="45.7586455" lon="14.0441213"><ele>572.0</ele><time>2026-04-08T07:59:53.237Z</time></trkpt><trkpt lat="45.758511" lon="14.0443097"><ele>572.0</ele><time>2026-04-08T07:59:54.241Z</time></trkpt><trkpt lat="45.7584003" lon="14.0445417"><ele>572.0</ele><time>2026-04-08T07:59:55.234Z</time></trkpt><trkpt lat="45.7583112" lon="14.0447861"><ele>572.0</ele><time>2026-04-08T07:59:56.229Z</time></trkpt><trkpt lat="45.7582262" lon="14.0450141"><ele>572.0</ele><time>2026-04-08T07:59:57.234Z</time></trkpt><trkpt lat="45.7581305" lon="14.0452004"><ele>572.3333333333333</ele><time>2026-04-08T07:59:58.256Z</time></trkpt><trkpt lat="45.7579888" lon="14.0453358"><ele>572.6666666666666</ele><time>2026-04-08T07:59:59.239Z</time></trkpt><trkpt lat="45.7578072" lon="14.0454355"><ele>573.0</ele><time>2026-04-08T08:00:00.239Z</time></trkpt><trkpt lat="45.7576353" lon="14.0455231"><ele>573.0</ele><time>2026-04-08T08:00:01.243Z</time></trkpt><trkpt lat="45.7574828" lon="14.0456408"><ele>573.0</ele><time>2026-04-08T08:00:02.231Z</time></trkpt><trkpt lat="45.7573712" lon="14.0457912"><ele>573.0</ele><time>2026-04-08T08:00:03.236Z</time></trkpt><trkpt lat="45.7572794" lon="14.0459672"><ele>576.6666666666666</ele><time>2026-04-08T08:00:04.237Z</time></trkpt><trkpt lat="45.7572168" lon="14.0461872"><ele>580.3333333333333</ele><time>2026-04-08T08:00:05.239Z</time></trkpt><trkpt lat="45.7571943" lon="14.0464669"><ele>584.0</ele><time>2026-04-08T08:00:06.23Z</time></trkpt><trkpt lat="45.7571476" lon="14.0467491"><ele>586.3333333333333</ele><time>2026-04-08T08:00:07.25Z</time></trkpt><trkpt lat="45.7570561" lon="14.0470035"><ele>588.6666666666666</ele><time>2026-04-08T08:00:08.241Z</time></trkpt><trkpt lat="45.7569382" lon="14.0472609"><ele>591.0</ele><time>2026-04-08T08:00:09.261Z</time></trkpt><trkpt lat="45.7568173" lon="14.0475006"><ele>591.0</ele><time>2026-04-08T08:00:10.25Z</time></trkpt><trkpt lat="45.7567072" lon="14.0477402"><ele>591.0</ele><time>2026-04-08T08:00:11.233Z</time></trkpt><trkpt lat="45.7566135" lon="14.0479947"><ele>591.0</ele><time>2026-04-08T08:00:12.239Z</time></trkpt><trkpt lat="45.7565413" lon="14.0482649"><ele>592.6666666666666</ele><time>2026-04-08T08:00:13.236Z</time></trkpt><trkpt lat="45.7564874" lon="14.0485543"><ele>594.3333333333333</ele><time>2026-04-08T08:00:14.242Z</time></trkpt><trkpt lat="45.7564743" lon="14.048865"><ele>596.0</ele><time>2026-04-08T08:00:15.244Z</time></trkpt><trkpt lat="45.7564799" lon="14.0491739"><ele>597.0</ele><time>2026-04-08T08:00:16.235Z</time></trkpt><trkpt lat="45.7564899" lon="14.0494838"><ele>598.0</ele><time>2026-04-08T08:00:17.228Z</time></trkpt><trkpt lat="45.7565027" lon="14.04978"><ele>599.0</ele><time>2026-04-08T08:00:18.256Z</time></trkpt><trkpt lat="45.7564849" lon="14.0503504"><ele>599.0</ele><time>2026-04-08T08:00:20.257Z</time></trkpt><trkpt lat="45.7564474" lon="14.0506052"><ele>599.0</ele><time>2026-04-08T08:00:21.243Z</time></trkpt><trkpt lat="45.7563949" lon="14.0508316"><ele>599.0</ele><time>2026-04-08T08:00:22.23Z</time></trkpt><trkpt lat="45.7563213" lon="14.0510503"><ele>599.0</ele><time>2026-04-08T08:00:23.243Z</time></trkpt><trkpt lat="45.7562295" lon="14.0512441"><ele>599.0</ele><time>2026-04-08T08:00:24.244Z</time></trkpt><trkpt lat="45.756126" lon="14.051439"><ele>599.0</ele><time>2026-04-08T08:00:25.24Z</time></trkpt><trkpt lat="45.7560039" lon="14.0516314"><ele>603.5</ele><time>2026-04-08T08:00:26.338Z</time></trkpt><trkpt lat="45.755754" lon="14.0520244"><ele>608.0</ele><time>2026-04-08T08:00:28.222Z</time></trkpt><trkpt lat="45.7556389" lon="14.0522219"><ele>608.0</ele><time>2026-04-08T08:00:29.228Z</time></trkpt><trkpt lat="45.755541" lon="14.0524214"><ele>608.0</ele><time>2026-04-08T08:00:30.239Z</time></trkpt><trkpt lat="45.7554598" lon="14.0526167"><ele>608.0</ele><time>2026-04-08T08:00:31.232Z</time></trkpt><trkpt lat="45.7554051" lon="14.0528473"><ele>607.0</ele><time>2026-04-08T08:00:32.23Z</time></trkpt><trkpt lat="45.7553715" lon="14.053086"><ele>606.0</ele><time>2026-04-08T08:00:33.241Z</time></trkpt><trkpt lat="45.7553619" lon="14.0533469"><ele>605.0</ele><time>2026-04-08T08:00:34.24Z</time></trkpt><trkpt lat="45.7553776" lon="14.0536083"><ele>602.3333333333333</ele><time>2026-04-08T08:00:35.223Z</time></trkpt><trkpt lat="45.7554138" lon="14.0538745"><ele>599.6666666666666</ele><time>2026-04-08T08:00:36.232Z</time></trkpt><trkpt lat="45.7554859" lon="14.0541144"><ele>597.0</ele><time>2026-04-08T08:00:37.239Z</time></trkpt><trkpt lat="45.7555847" lon="14.0543323"><ele>592.5</ele><time>2026-04-08T08:00:38.243Z</time></trkpt><trkpt lat="45.7557052" lon="14.0545317"><ele>588.0</ele><time>2026-04-08T08:00:39.34Z</time></trkpt><trkpt lat="45.7560195" lon="14.0548597"><ele>587.0</ele><time>2026-04-08T08:00:41.242Z</time></trkpt><trkpt lat="45.7561834" lon="14.0549942"><ele>586.0</ele><time>2026-04-08T08:00:42.245Z</time></trkpt><trkpt lat="45.7563388" lon="14.0551324"><ele>585.0</ele><time>2026-04-08T08:00:43.349Z</time></trkpt><trkpt lat="45.756482" lon="14.0552813"><ele>585.0</ele><time>2026-04-08T08:00:44.345Z</time></trkpt><trkpt lat="45.7567198" lon="14.0556547"><ele>585.0</ele><time>2026-04-08T08:00:46.34Z</time></trkpt><trkpt lat="45.7568769" lon="14.0561128"><ele>585.6666666666666</ele><time>2026-04-08T08:00:48.353Z</time></trkpt><trkpt lat="45.7569049" lon="14.0563613"><ele>586.3333333333333</ele><time>2026-04-08T08:00:49.337Z</time></trkpt><trkpt lat="45.7568993" lon="14.0566215"><ele>587.0</ele><time>2026-04-08T08:00:50.334Z</time></trkpt><trkpt lat="45.7568841" lon="14.0568879"><ele>584.3333333333333</ele><time>2026-04-08T08:00:51.352Z</time></trkpt><trkpt lat="45.7568612" lon="14.0571542"><ele>581.6666666666666</ele><time>2026-04-08T08:00:52.333Z</time></trkpt><trkpt lat="45.7568406" lon="14.0574114"><ele>579.0</ele><time>2026-04-08T08:00:53.34Z</time></trkpt><trkpt lat="45.7568181" lon="14.0576438"><ele>579.0</ele><time>2026-04-08T08:00:54.345Z</time></trkpt><trkpt lat="45.7567987" lon="14.0578604"><ele>579.0</ele><time>2026-04-08T08:00:55.348Z</time></trkpt><trkpt lat="45.756775" lon="14.0582599"><ele>579.0</ele><time>2026-04-08T08:00:57.338Z</time></trkpt><trkpt lat="45.7567634" lon="14.0584338"><ele>578.6</ele><time>2026-04-08T08:00:58.335Z</time></trkpt><trkpt lat="45.7567517" lon="14.0585943"><ele>578.2</ele><time>2026-04-08T08:00:59.327Z</time></trkpt><trkpt lat="45.7567378" lon="14.0587485"><ele>577.8000000000001</ele><time>2026-04-08T08:01:00.339Z</time></trkpt><trkpt lat="45.7567264" lon="14.0589056"><ele>577.4</ele><time>2026-04-08T08:01:01.328Z</time></trkpt><trkpt lat="45.7567181" lon="14.0590602"><ele>577.0</ele><time>2026-04-08T08:01:02.348Z</time></trkpt><trkpt lat="45.7567071" lon="14.0592128"><ele>576.8000000000001</ele><time>2026-04-08T08:01:03.344Z</time></trkpt><trkpt lat="45.7566958" lon="14.0593689"><ele>576.6</ele><time>2026-04-08T08:01:04.344Z</time></trkpt><trkpt lat="45.7566781" lon="14.0595281"><ele>576.4000000000001</ele><time>2026-04-08T08:01:05.33Z</time></trkpt><trkpt lat="45.7566465" lon="14.0596807"><ele>576.2</ele><time>2026-04-08T08:01:06.323Z</time></trkpt><trkpt lat="45.7566139" lon="14.0598363"><ele>576.0</ele><time>2026-04-08T08:01:07.336Z</time></trkpt><trkpt lat="45.7565976" lon="14.0599844"><ele>575.75</ele><time>2026-04-08T08:01:08.33Z</time></trkpt><trkpt lat="45.7566325" lon="14.0601257"><ele>575.5</ele><time>2026-04-08T08:01:09.327Z</time></trkpt><trkpt lat="45.7567037" lon="14.0602635"><ele>575.25</ele><time>2026-04-08T08:01:10.327Z</time></trkpt><trkpt lat="45.7567765" lon="14.0603973"><ele>575.0</ele><time>2026-04-08T08:01:11.337Z</time></trkpt><trkpt lat="45.7568491" lon="14.0605365"><ele>576.0</ele><time>2026-04-08T08:01:12.321Z</time></trkpt><trkpt lat="45.7569114" lon="14.0607097"><ele>577.0</ele><time>2026-04-08T08:01:13.319Z</time></trkpt><trkpt lat="45.7569515" lon="14.0608963"><ele>578.0</ele><time>2026-04-08T08:01:14.321Z</time></trkpt><trkpt lat="45.7569798" lon="14.061082"><ele>579.0</ele><time>2026-04-08T08:01:15.346Z</time></trkpt><trkpt lat="45.7570021" lon="14.0612661"><ele>579.0</ele><time>2026-04-08T08:01:16.344Z</time></trkpt><trkpt lat="45.7570204" lon="14.0614443"><ele>579.0</ele><time>2026-04-08T08:01:17.337Z</time></trkpt><trkpt lat="45.7570333" lon="14.0616129"><ele>579.0</ele><time>2026-04-08T08:01:18.326Z</time></trkpt><trkpt lat="45.7570637" lon="14.0619503"><ele>578.75</ele><time>2026-04-08T08:01:20.323Z</time></trkpt><trkpt lat="45.7570761" lon="14.0621204"><ele>578.5</ele><time>2026-04-08T08:01:21.321Z</time></trkpt><trkpt lat="45.7570903" lon="14.0622984"><ele>578.25</ele><time>2026-04-08T08:01:22.328Z</time></trkpt><trkpt lat="45.7571047" lon="14.0624834"><ele>578.0</ele><time>2026-04-08T08:01:23.341Z</time></trkpt><trkpt lat="45.7571225" lon="14.0626707"><ele>577.5</ele><time>2026-04-08T08:01:24.338Z</time></trkpt><trkpt lat="45.7571498" lon="14.0628611"><ele>577.0</ele><time>2026-04-08T08:01:25.329Z</time></trkpt><trkpt lat="45.757173" lon="14.0630527"><ele>576.5</ele><time>2026-04-08T08:01:26.326Z</time></trkpt><trkpt lat="45.7571962" lon="14.0632454"><ele>576.0</ele><time>2026-04-08T08:01:27.321Z</time></trkpt><trkpt lat="45.7572137" lon="14.0634463"><ele>575.6666666666666</ele><time>2026-04-08T08:01:28.331Z</time></trkpt><trkpt lat="45.7572443" lon="14.0638304"><ele>575.3333333333333</ele><time>2026-04-08T08:01:30.333Z</time></trkpt><trkpt lat="45.7572674" lon="14.0640217"><ele>575.0</ele><time>2026-04-08T08:01:31.324Z</time></trkpt><trkpt lat="45.7572974" lon="14.0642027"><ele>575.0</ele><time>2026-04-08T08:01:32.328Z</time></trkpt><trkpt lat="45.7573323" lon="14.0643928"><ele>575.0</ele><time>2026-04-08T08:01:33.316Z</time></trkpt><trkpt lat="45.75737" lon="14.0645847"><ele>575.0</ele><time>2026-04-08T08:01:34.329Z</time></trkpt><trkpt lat="45.7574057" lon="14.0647817"><ele>575.0</ele><time>2026-04-08T08:01:35.312Z</time></trkpt><trkpt lat="45.7574361" lon="14.0649841"><ele>573.6666666666666</ele><time>2026-04-08T08:01:36.317Z</time></trkpt><trkpt lat="45.7574622" lon="14.0651836"><ele>572.3333333333334</ele><time>2026-04-08T08:01:37.35Z</time></trkpt><trkpt lat="45.7574775" lon="14.0653835"><ele>571.0</ele><time>2026-04-08T08:01:38.327Z</time></trkpt><trkpt lat="45.7575155" lon="14.0657959"><ele>569.75</ele><time>2026-04-08T08:01:40.323Z</time></trkpt><trkpt lat="45.7575389" lon="14.0660062"><ele>568.5</ele><time>2026-04-08T08:01:41.315Z</time></trkpt><trkpt lat="45.7575606" lon="14.0662119"><ele>567.25</ele><time>2026-04-08T08:01:42.322Z</time></trkpt><trkpt lat="45.7575769" lon="14.0664168"><ele>566.0</ele><time>2026-04-08T08:01:43.337Z</time></trkpt><trkpt lat="45.7575868" lon="14.0666147"><ele>565.25</ele><time>2026-04-08T08:01:44.323Z</time></trkpt><trkpt lat="45.757597" lon="14.0667998"><ele>564.5</ele><time>2026-04-08T08:01:45.331Z</time></trkpt><trkpt lat="45.7576058" lon="14.066973"><ele>563.75</ele><time>2026-04-08T08:01:46.343Z</time></trkpt><trkpt lat="45.7576103" lon="14.0671432"><ele>563.0</ele><time>2026-04-08T08:01:47.334Z</time></trkpt><trkpt lat="45.7576148" lon="14.0672945"><ele>563.0</ele><time>2026-04-08T08:01:48.319Z</time></trkpt><trkpt lat="45.7576114" lon="14.0674281"><ele>563.0</ele><time>2026-04-08T08:01:49.362Z</time></trkpt><trkpt lat="45.7576005" lon="14.0675604"><ele>563.0</ele><time>2026-04-08T08:01:50.315Z</time></trkpt><trkpt lat="45.757574" lon="14.06769"><ele>563.0</ele><time>2026-04-08T08:01:51.328Z</time></trkpt><trkpt lat="45.7575331" lon="14.0678078"><ele>563.0</ele><time>2026-04-08T08:01:52.316Z</time></trkpt><trkpt lat="45.7574741" lon="14.0679128"><ele>563.0</ele><time>2026-04-08T08:01:53.309Z</time></trkpt><trkpt lat="45.7574058" lon="14.0680038"><ele>563.0</ele><time>2026-04-08T08:01:54.309Z</time></trkpt><trkpt lat="45.7573529" lon="14.0680929"><ele>563.0</ele><time>2026-04-08T08:01:55.324Z</time></trkpt><trkpt lat="45.7572982" lon="14.0682186"><ele>563.0</ele><time>2026-04-08T08:01:57.326Z</time></trkpt><trkpt lat="45.757306" lon="14.068397"><ele>563.0</ele><time>2026-04-08T08:01:59.328Z</time></trkpt><trkpt lat="45.757358" lon="14.0685198"><ele>562.6666666666666</ele><time>2026-04-08T08:02:00.322Z</time></trkpt><trkpt lat="45.7575246" lon="14.0688159"><ele>562.3333333333334</ele><time>2026-04-08T08:02:02.316Z</time></trkpt><trkpt lat="45.757624" lon="14.0689884"><ele>562.0</ele><time>2026-04-08T08:02:03.339Z</time></trkpt><trkpt lat="45.7577274" lon="14.0691881"><ele>564.5</ele><time>2026-04-08T08:02:04.322Z</time></trkpt><trkpt lat="45.7578486" lon="14.0694136"><ele>567.0</ele><time>2026-04-08T08:02:05.328Z</time></trkpt><trkpt lat="45.7581051" lon="14.0698845"><ele>566.0</ele><time>2026-04-08T08:02:07.331Z</time></trkpt><trkpt lat="45.7582298" lon="14.0701207"><ele>565.0</ele><time>2026-04-08T08:02:08.315Z</time></trkpt><trkpt lat="45.758341" lon="14.0703543"><ele>564.0</ele><time>2026-04-08T08:02:09.32Z</time></trkpt><trkpt lat="45.7584389" lon="14.0706035"><ele>563.5</ele><time>2026-04-08T08:02:10.319Z</time></trkpt><trkpt lat="45.758519" lon="14.0708661"><ele>563.0</ele><time>2026-04-08T08:02:11.348Z</time></trkpt><trkpt lat="45.7586413" lon="14.0714219"><ele>562.3333333333333</ele><time>2026-04-08T08:02:13.331Z</time></trkpt><trkpt lat="45.7586807" lon="14.0716979"><ele>561.6666666666666</ele><time>2026-04-08T08:02:14.323Z</time></trkpt><trkpt lat="45.7587047" lon="14.071962"><ele>561.0</ele><time>2026-04-08T08:02:15.311Z</time></trkpt><trkpt lat="45.7587177" lon="14.0722049"><ele>561.0</ele><time>2026-04-08T08:02:16.323Z</time></trkpt><trkpt lat="45.758731" lon="14.0724388"><ele>561.0</ele><time>2026-04-08T08:02:17.32Z</time></trkpt><trkpt lat="45.7587523" lon="14.0726594"><ele>561.0</ele><time>2026-04-08T08:02:18.302Z</time></trkpt><trkpt lat="45.7587845" lon="14.0728743"><ele>561.0</ele><time>2026-04-08T08:02:19.328Z</time></trkpt><trkpt lat="45.7588325" lon="14.0730737"><ele>561.0</ele><time>2026-04-08T08:02:20.327Z</time></trkpt><trkpt lat="45.7588922" lon="14.0732637"><ele>561.0</ele><time>2026-04-08T08:02:21.316Z</time></trkpt><trkpt lat="45.7589728" lon="14.0734498"><ele>561.0</ele><time>2026-04-08T08:02:22.294Z</time></trkpt><trkpt lat="45.7590692" lon="14.0736358"><ele>560.6666666666666</ele><time>2026-04-08T08:02:23.317Z</time></trkpt><trkpt lat="45.7591803" lon="14.0738061"><ele>560.3333333333333</ele><time>2026-04-08T08:02:24.305Z</time></trkpt><trkpt lat="45.7593045" lon="14.073969"><ele>560.0</ele><time>2026-04-08T08:02:25.331Z</time></trkpt><trkpt lat="45.7595799" lon="14.0742777"><ele>561.0</ele><time>2026-04-08T08:02:27.295Z</time></trkpt><trkpt lat="45.7597304" lon="14.0744301"><ele>562.0</ele><time>2026-04-08T08:02:28.318Z</time></trkpt><trkpt lat="45.7598838" lon="14.0745993"><ele>563.0</ele><time>2026-04-08T08:02:29.293Z</time></trkpt><trkpt lat="45.7600218" lon="14.0747656"><ele>563.0</ele><time>2026-04-08T08:02:30.293Z</time></trkpt><trkpt lat="45.7601271" lon="14.0749072"><ele>563.0</ele><time>2026-04-08T08:02:31.32Z</time></trkpt><trkpt lat="45.7602035" lon="14.0750244"><ele>563.0</ele><time>2026-04-08T08:02:32.309Z</time></trkpt><trkpt lat="45.7602638" lon="14.0751116"><ele>563.0</ele><time>2026-04-08T08:02:33.304Z</time></trkpt><trkpt lat="45.7603272" lon="14.075235"><ele>563.0</ele><time>2026-04-08T08:02:35.306Z</time></trkpt><trkpt lat="45.7603781" lon="14.0753149"><ele>563.4</ele><time>2026-04-08T08:02:38.309Z</time></trkpt><trkpt lat="45.7604308" lon="14.0754011"><ele>563.8</ele><time>2026-04-08T08:02:51.329Z</time></trkpt><trkpt lat="45.7605" lon="14.0755146"><ele>564.2</ele><time>2026-04-08T08:02:53.314Z</time></trkpt><trkpt lat="45.7605629" lon="14.0756613"><ele>564.6</ele><time>2026-04-08T08:02:55.304Z</time></trkpt><trkpt lat="45.7606055" lon="14.075764"><ele>565.0</ele><time>2026-04-08T08:02:56.306Z</time></trkpt><trkpt lat="45.76065" lon="14.0758757"><ele>565.0</ele><time>2026-04-08T08:02:57.306Z</time></trkpt><trkpt lat="45.7606902" lon="14.0759909"><ele>565.0</ele><time>2026-04-08T08:02:58.303Z</time></trkpt><trkpt lat="45.760728" lon="14.0761037"><ele>565.0</ele><time>2026-04-08T08:02:59.303Z</time></trkpt><trkpt lat="45.7607654" lon="14.0762291"><ele>565.0</ele><time>2026-04-08T08:03:00.301Z</time></trkpt><trkpt lat="45.7607995" lon="14.0763664"><ele>565.0</ele><time>2026-04-08T08:03:01.298Z</time></trkpt><trkpt lat="45.7608303" lon="14.0765109"><ele>564.0</ele><time>2026-04-08T08:03:02.305Z</time></trkpt><trkpt lat="45.7608621" lon="14.076665"><ele>563.0</ele><time>2026-04-08T08:03:03.306Z</time></trkpt><trkpt lat="45.7608919" lon="14.0768403"><ele>562.0</ele><time>2026-04-08T08:03:04.298Z</time></trkpt><trkpt lat="45.7609201" lon="14.0770382"><ele>561.0</ele><time>2026-04-08T08:03:05.312Z</time></trkpt><trkpt lat="45.760951" lon="14.0772542"><ele>560.0</ele><time>2026-04-08T08:03:06.312Z</time></trkpt><trkpt lat="45.7609865" lon="14.0774821"><ele>559.0</ele><time>2026-04-08T08:03:07.311Z</time></trkpt><trkpt lat="45.7610181" lon="14.0777122"><ele>558.0</ele><time>2026-04-08T08:03:08.297Z</time></trkpt><trkpt lat="45.761049" lon="14.0779489"><ele>558.0</ele><time>2026-04-08T08:03:09.305Z</time></trkpt><trkpt lat="45.7610774" lon="14.0781871"><ele>558.0</ele><time>2026-04-08T08:03:10.3Z</time></trkpt><trkpt lat="45.7611084" lon="14.0784249"><ele>558.0</ele><time>2026-04-08T08:03:11.297Z</time></trkpt><trkpt lat="45.7611411" lon="14.0786607"><ele>558.3333333333334</ele><time>2026-04-08T08:03:12.303Z</time></trkpt><trkpt lat="45.761181" lon="14.0788976"><ele>558.6666666666667</ele><time>2026-04-08T08:03:13.29Z</time></trkpt><trkpt lat="45.7612242" lon="14.0791395"><ele>559.0</ele><time>2026-04-08T08:03:14.309Z</time></trkpt><trkpt lat="45.7612599" lon="14.0793835"><ele>559.0</ele><time>2026-04-08T08:03:15.314Z</time></trkpt><trkpt lat="45.7612693" lon="14.079635"><ele>559.0</ele><time>2026-04-08T08:03:16.301Z</time></trkpt><trkpt lat="45.7612605" lon="14.0798925"><ele>559.0</ele><time>2026-04-08T08:03:17.298Z</time></trkpt><trkpt lat="45.7612371" lon="14.0801582"><ele>558.3333333333334</ele><time>2026-04-08T08:03:18.302Z</time></trkpt><trkpt lat="45.7612012" lon="14.0804224"><ele>557.6666666666666</ele><time>2026-04-08T08:03:19.305Z</time></trkpt><trkpt lat="45.7611548" lon="14.0806839"><ele>557.0</ele><time>2026-04-08T08:03:20.306Z</time></trkpt><trkpt lat="45.7611023" lon="14.0809399"><ele>550.0</ele><time>2026-04-08T08:03:21.297Z</time></trkpt><trkpt lat="45.7609367" lon="14.0817041"><ele>550.0</ele><time>2026-04-08T08:03:24.292Z</time></trkpt><trkpt lat="45.760892" lon="14.0819667"><ele>550.0</ele><time>2026-04-08T08:03:25.303Z</time></trkpt><trkpt lat="45.7608579" lon="14.0822329"><ele>550.0</ele><time>2026-04-08T08:03:26.295Z</time></trkpt><trkpt lat="45.7608365" lon="14.082492"><ele>550.6666666666667</ele><time>2026-04-08T08:03:27.299Z</time></trkpt><trkpt lat="45.7608217" lon="14.0827455"><ele>551.3333333333334</ele><time>2026-04-08T08:03:28.301Z</time></trkpt><trkpt lat="45.7608122" lon="14.0829852"><ele>552.0</ele><time>2026-04-08T08:03:29.328Z</time></trkpt><trkpt lat="45.7608083" lon="14.0832215"><ele>552.6666666666666</ele><time>2026-04-08T08:03:30.304Z</time></trkpt><trkpt lat="45.7608144" lon="14.0834503"><ele>553.3333333333333</ele><time>2026-04-08T08:03:31.304Z</time></trkpt><trkpt lat="45.7608237" lon="14.0836742"><ele>554.0</ele><time>2026-04-08T08:03:32.321Z</time></trkpt><trkpt lat="45.7608362" lon="14.0839031"><ele>554.6666666666666</ele><time>2026-04-08T08:03:33.296Z</time></trkpt><trkpt lat="45.7608476" lon="14.0841334"><ele>555.3333333333334</ele><time>2026-04-08T08:03:34.294Z</time></trkpt><trkpt lat="45.7608555" lon="14.0843648"><ele>556.0</ele><time>2026-04-08T08:03:35.3Z</time></trkpt><trkpt lat="45.7608607" lon="14.0845996"><ele>556.0</ele><time>2026-04-08T08:03:36.3Z</time></trkpt><trkpt lat="45.7608655" lon="14.0848406"><ele>556.0</ele><time>2026-04-08T08:03:37.284Z</time></trkpt><trkpt lat="45.7608597" lon="14.0850816"><ele>556.0</ele><time>2026-04-08T08:03:38.314Z</time></trkpt><trkpt lat="45.7608396" lon="14.085308"><ele>556.0</ele><time>2026-04-08T08:03:39.301Z</time></trkpt><trkpt lat="45.7608119" lon="14.0855227"><ele>556.0</ele><time>2026-04-08T08:03:40.299Z</time></trkpt><trkpt lat="45.7607803" lon="14.085717"><ele>556.0</ele><time>2026-04-08T08:03:41.293Z</time></trkpt><trkpt lat="45.7607546" lon="14.0858933"><ele>556.0</ele><time>2026-04-08T08:03:42.301Z</time></trkpt><trkpt lat="45.7607175" lon="14.0860512"><ele>557.0</ele><time>2026-04-08T08:03:43.295Z</time></trkpt><trkpt lat="45.7606851" lon="14.0861911"><ele>558.0</ele><time>2026-04-08T08:03:44.291Z</time></trkpt><trkpt lat="45.7606687" lon="14.0863013"><ele>559.0</ele><time>2026-04-08T08:03:45.297Z</time></trkpt><trkpt lat="45.7607419" lon="14.0863951"><ele>560.0</ele><time>2026-04-08T08:03:47.301Z</time></trkpt><trkpt lat="45.7608202" lon="14.0864265"><ele>561.0</ele><time>2026-04-08T08:03:48.297Z</time></trkpt><trkpt lat="45.7609067" lon="14.0864962"><ele>561.0</ele><time>2026-04-08T08:03:49.28Z</time></trkpt><trkpt lat="45.761012" lon="14.0865679"><ele>561.0</ele><time>2026-04-08T08:03:50.299Z</time></trkpt><trkpt lat="45.761133" lon="14.0865964"><ele>561.0</ele><time>2026-04-08T08:03:51.292Z</time></trkpt><trkpt lat="45.7612688" lon="14.0865706"><ele>561.0</ele><time>2026-04-08T08:03:52.3Z</time></trkpt><trkpt lat="45.7614014" lon="14.0864737"><ele>560.6666666666666</ele><time>2026-04-08T08:03:53.303Z</time></trkpt><trkpt lat="45.7615275" lon="14.086338"><ele>560.3333333333333</ele><time>2026-04-08T08:03:54.286Z</time></trkpt><trkpt lat="45.7616683" lon="14.0861959"><ele>560.0</ele><time>2026-04-08T08:03:55.309Z</time></trkpt><trkpt lat="45.7618179" lon="14.0860433"><ele>560.6666666666666</ele><time>2026-04-08T08:03:56.28Z</time></trkpt><trkpt lat="45.7619766" lon="14.0859139"><ele>561.3333333333334</ele><time>2026-04-08T08:03:57.292Z</time></trkpt><trkpt lat="45.7621424" lon="14.0858086"><ele>562.0</ele><time>2026-04-08T08:03:58.286Z</time></trkpt><trkpt lat="45.7623137" lon="14.0856942"><ele>562.6666666666667</ele><time>2026-04-08T08:03:59.292Z</time></trkpt><trkpt lat="45.7624829" lon="14.0855666"><ele>563.3333333333334</ele><time>2026-04-08T08:04:00.292Z</time></trkpt><trkpt lat="45.7626537" lon="14.0854454"><ele>564.0</ele><time>2026-04-08T08:04:01.308Z</time></trkpt><trkpt lat="45.7628314" lon="14.085352"><ele>564.0</ele><time>2026-04-08T08:04:02.287Z</time></trkpt><trkpt lat="45.76301" lon="14.0852759"><ele>564.0</ele><time>2026-04-08T08:04:03.289Z</time></trkpt><trkpt lat="45.7631838" lon="14.0851813"><ele>564.0</ele><time>2026-04-08T08:04:04.283Z</time></trkpt><trkpt lat="45.7633604" lon="14.0850627"><ele>562.5</ele><time>2026-04-08T08:04:05.289Z</time></trkpt><trkpt lat="45.7637146" lon="14.0849188"><ele>561.0</ele><time>2026-04-08T08:04:07.294Z</time></trkpt><trkpt lat="45.7639178" lon="14.0849026"><ele>561.0</ele><time>2026-04-08T08:04:08.293Z</time></trkpt><trkpt lat="45.7641266" lon="14.0849034"><ele>561.0</ele><time>2026-04-08T08:04:09.294Z</time></trkpt><trkpt lat="45.7643332" lon="14.084922"><ele>561.0</ele><time>2026-04-08T08:04:10.292Z</time></trkpt><trkpt lat="45.7645287" lon="14.0849654"><ele>562.6666666666666</ele><time>2026-04-08T08:04:11.276Z</time></trkpt><trkpt lat="45.7647161" lon="14.0850114"><ele>564.3333333333333</ele><time>2026-04-08T08:04:12.291Z</time></trkpt><trkpt lat="45.7648959" lon="14.0850232"><ele>566.0</ele><time>2026-04-08T08:04:13.292Z</time></trkpt><trkpt lat="45.7650806" lon="14.0850086"><ele>565.3333333333333</ele><time>2026-04-08T08:04:14.289Z</time></trkpt><trkpt lat="45.7652631" lon="14.0849584"><ele>564.6666666666666</ele><time>2026-04-08T08:04:15.282Z</time></trkpt><trkpt lat="45.7654522" lon="14.0848815"><ele>564.0</ele><time>2026-04-08T08:04:16.281Z</time></trkpt><trkpt lat="45.7656434" lon="14.0848129"><ele>563.6666666666666</ele><time>2026-04-08T08:04:17.288Z</time></trkpt><trkpt lat="45.7658386" lon="14.0847555"><ele>563.3333333333333</ele><time>2026-04-08T08:04:18.285Z</time></trkpt><trkpt lat="45.7660331" lon="14.0847123"><ele>563.0</ele><time>2026-04-08T08:04:19.273Z</time></trkpt><trkpt lat="45.7662129" lon="14.0846547"><ele>562.0</ele><time>2026-04-08T08:04:20.271Z</time></trkpt><trkpt lat="45.7663703" lon="14.0845549"><ele>561.0</ele><time>2026-04-08T08:04:21.273Z</time></trkpt><trkpt lat="45.7665078" lon="14.0844236"><ele>560.0</ele><time>2026-04-08T08:04:22.28Z</time></trkpt><trkpt lat="45.7666468" lon="14.0842572"><ele>559.6666666666666</ele><time>2026-04-08T08:04:23.264Z</time></trkpt><trkpt lat="45.7667931" lon="14.0840931"><ele>559.3333333333334</ele><time>2026-04-08T08:04:24.278Z</time></trkpt><trkpt lat="45.766968" lon="14.0839744"><ele>559.0</ele><time>2026-04-08T08:04:25.278Z</time></trkpt><trkpt lat="45.7671489" lon="14.0838973"><ele>559.0</ele><time>2026-04-08T08:04:26.281Z</time></trkpt><trkpt lat="45.767339" lon="14.0838378"><ele>559.0</ele><time>2026-04-08T08:04:27.286Z</time></trkpt><trkpt lat="45.7675332" lon="14.0837737"><ele>559.0</ele><time>2026-04-08T08:04:28.282Z</time></trkpt><trkpt lat="45.7677284" lon="14.0836898"><ele>559.0</ele><time>2026-04-08T08:04:29.282Z</time></trkpt><trkpt lat="45.7679204" lon="14.0835745"><ele>559.0</ele><time>2026-04-08T08:04:30.291Z</time></trkpt><trkpt lat="45.7681104" lon="14.0834465"><ele>559.0</ele><time>2026-04-08T08:04:31.286Z</time></trkpt><trkpt lat="45.768307" lon="14.083327"><ele>559.3333333333334</ele><time>2026-04-08T08:04:32.266Z</time></trkpt><trkpt lat="45.7685058" lon="14.0832195"><ele>559.6666666666666</ele><time>2026-04-08T08:04:33.282Z</time></trkpt><trkpt lat="45.7687077" lon="14.0831131"><ele>560.0</ele><time>2026-04-08T08:04:34.282Z</time></trkpt><trkpt lat="45.7689055" lon="14.082992"><ele>560.6666666666666</ele><time>2026-04-08T08:04:35.313Z</time></trkpt><trkpt lat="45.769102" lon="14.0828603"><ele>561.3333333333334</ele><time>2026-04-08T08:04:36.277Z</time></trkpt><trkpt lat="45.7692937" lon="14.0827487"><ele>562.0</ele><time>2026-04-08T08:04:37.28Z</time></trkpt><trkpt lat="45.7694845" lon="14.0826729"><ele>563.0</ele><time>2026-04-08T08:04:38.28Z</time></trkpt><trkpt lat="45.7696789" lon="14.0826391"><ele>564.0</ele><time>2026-04-08T08:04:39.285Z</time></trkpt><trkpt lat="45.7698832" lon="14.0826292"><ele>565.0</ele><time>2026-04-08T08:04:40.276Z</time></trkpt><trkpt lat="45.7700845" lon="14.0826058"><ele>563.6666666666667</ele><time>2026-04-08T08:04:41.283Z</time></trkpt><trkpt lat="45.7702771" lon="14.0825726"><ele>562.3333333333334</ele><time>2026-04-08T08:04:42.278Z</time></trkpt><trkpt lat="45.7704645" lon="14.0825322"><ele>561.0</ele><time>2026-04-08T08:04:43.286Z</time></trkpt><trkpt lat="45.77064" lon="14.0824692"><ele>562.3333333333334</ele><time>2026-04-08T08:04:44.314Z</time></trkpt><trkpt lat="45.7708097" lon="14.0823893"><ele>563.6666666666667</ele><time>2026-04-08T08:04:45.283Z</time></trkpt><trkpt lat="45.7709673" lon="14.082311"><ele>565.0</ele><time>2026-04-08T08:04:46.275Z</time></trkpt><trkpt lat="45.7711098" lon="14.0822356"><ele>565.25</ele><time>2026-04-08T08:04:47.276Z</time></trkpt><trkpt lat="45.7712438" lon="14.0821794"><ele>565.5</ele><time>2026-04-08T08:04:48.283Z</time></trkpt><trkpt lat="45.7713689" lon="14.0821261"><ele>565.75</ele><time>2026-04-08T08:04:49.287Z</time></trkpt><trkpt lat="45.7714803" lon="14.0820805"><ele>566.0</ele><time>2026-04-08T08:04:50.284Z</time></trkpt><trkpt lat="45.7715813" lon="14.0820372"><ele>566.0</ele><time>2026-04-08T08:04:51.278Z</time></trkpt><trkpt lat="45.7716833" lon="14.0819908"><ele>566.0</ele><time>2026-04-08T08:04:52.261Z</time></trkpt><trkpt lat="45.7717848" lon="14.0819441"><ele>566.0</ele><time>2026-04-08T08:04:53.276Z</time></trkpt><trkpt lat="45.7718838" lon="14.0818929"><ele>566.0</ele><time>2026-04-08T08:04:54.291Z</time></trkpt><trkpt lat="45.7719779" lon="14.0818439"><ele>566.0</ele><time>2026-04-08T08:04:55.282Z</time></trkpt><trkpt lat="45.7720719" lon="14.0818012"><ele>566.2</ele><time>2026-04-08T08:04:56.28Z</time></trkpt><trkpt lat="45.7721639" lon="14.0817633"><ele>566.4000000000001</ele><time>2026-04-08T08:04:57.287Z</time></trkpt><trkpt lat="45.7722542" lon="14.0817247"><ele>566.6</ele><time>2026-04-08T08:04:58.287Z</time></trkpt><trkpt lat="45.7723411" lon="14.0816855"><ele>566.8000000000001</ele><time>2026-04-08T08:04:59.279Z</time></trkpt><trkpt lat="45.7724286" lon="14.0816405"><ele>567.0</ele><time>2026-04-08T08:05:00.271Z</time></trkpt><trkpt lat="45.7725201" lon="14.0815734"><ele>567.0</ele><time>2026-04-08T08:05:01.265Z</time></trkpt><trkpt lat="45.7726196" lon="14.0815141"><ele>567.0</ele><time>2026-04-08T08:05:02.275Z</time></trkpt><trkpt lat="45.7727212" lon="14.0814769"><ele>567.0</ele><time>2026-04-08T08:05:03.278Z</time></trkpt><trkpt lat="45.7728228" lon="14.0814585"><ele>567.0</ele><time>2026-04-08T08:05:04.274Z</time></trkpt><trkpt lat="45.7729163" lon="14.0814554"><ele>567.0</ele><time>2026-04-08T08:05:05.266Z</time></trkpt><trkpt lat="45.7730066" lon="14.0814232"><ele>567.5</ele><time>2026-04-08T08:05:06.263Z</time></trkpt><trkpt lat="45.7731017" lon="14.0813767"><ele>568.0</ele><time>2026-04-08T08:05:07.278Z</time></trkpt><trkpt lat="45.773205" lon="14.0813431"><ele>568.5</ele><time>2026-04-08T08:05:08.266Z</time></trkpt><trkpt lat="45.7733219" lon="14.0813332"><ele>569.0</ele><time>2026-04-08T08:05:09.274Z</time></trkpt><trkpt lat="45.7734507" lon="14.0813227"><ele>570.5</ele><time>2026-04-08T08:05:10.272Z</time></trkpt><trkpt lat="45.7735821" lon="14.0813056"><ele>572.0</ele><time>2026-04-08T08:05:11.278Z</time></trkpt><trkpt lat="45.7737099" lon="14.081271"><ele>573.5</ele><time>2026-04-08T08:05:12.265Z</time></trkpt><trkpt lat="45.7738284" lon="14.0812299"><ele>575.0</ele><time>2026-04-08T08:05:13.276Z</time></trkpt><trkpt lat="45.7739317" lon="14.0811639"><ele>575.0</ele><time>2026-04-08T08:05:14.279Z</time></trkpt><trkpt lat="45.7740284" lon="14.0810543"><ele>575.0</ele><time>2026-04-08T08:05:15.278Z</time></trkpt><trkpt lat="45.7741025" lon="14.0809258"><ele>575.0</ele><time>2026-04-08T08:05:16.276Z</time></trkpt><trkpt lat="45.7741831" lon="14.0807933"><ele>575.0</ele><time>2026-04-08T08:05:17.275Z</time></trkpt><trkpt lat="45.774273" lon="14.0806808"><ele>574.0</ele><time>2026-04-08T08:05:18.273Z</time></trkpt><trkpt lat="45.7743723" lon="14.0806227"><ele>573.0</ele><time>2026-04-08T08:05:19.271Z</time></trkpt><trkpt lat="45.7744915" lon="14.0806311"><ele>572.0</ele><time>2026-04-08T08:05:20.282Z</time></trkpt><trkpt lat="45.77462" lon="14.0806635"><ele>571.0</ele><time>2026-04-08T08:05:21.266Z</time></trkpt><trkpt lat="45.774759" lon="14.0806714"><ele>571.0</ele><time>2026-04-08T08:05:22.261Z</time></trkpt><trkpt lat="45.7749125" lon="14.0806567"><ele>571.0</ele><time>2026-04-08T08:05:23.272Z</time></trkpt><trkpt lat="45.7750739" lon="14.0806269"><ele>571.0</ele><time>2026-04-08T08:05:24.28Z</time></trkpt><trkpt lat="45.7752402" lon="14.0805855"><ele>571.3333333333334</ele><time>2026-04-08T08:05:25.273Z</time></trkpt><trkpt lat="45.7754048" lon="14.0805272"><ele>571.6666666666666</ele><time>2026-04-08T08:05:26.276Z</time></trkpt><trkpt lat="45.7755586" lon="14.0804764"><ele>572.0</ele><time>2026-04-08T08:05:27.285Z</time></trkpt><trkpt lat="45.7757081" lon="14.0804341"><ele>572.0</ele><time>2026-04-08T08:05:28.262Z</time></trkpt><trkpt lat="45.7758523" lon="14.0804115"><ele>572.0</ele><time>2026-04-08T08:05:29.264Z</time></trkpt><trkpt lat="45.7759971" lon="14.0803986"><ele>572.0</ele><time>2026-04-08T08:05:30.274Z</time></trkpt><trkpt lat="45.7761407" lon="14.0803969"><ele>572.0</ele><time>2026-04-08T08:05:31.274Z</time></trkpt><trkpt lat="45.7762817" lon="14.0804145"><ele>571.75</ele><time>2026-04-08T08:05:32.261Z</time></trkpt><trkpt lat="45.7764171" lon="14.0804452"><ele>571.5</ele><time>2026-04-08T08:05:33.265Z</time></trkpt><trkpt lat="45.7765482" lon="14.0804814"><ele>571.25</ele><time>2026-04-08T08:05:34.267Z</time></trkpt><trkpt lat="45.7766765" lon="14.0805283"><ele>571.0</ele><time>2026-04-08T08:05:35.264Z</time></trkpt><trkpt lat="45.7769113" lon="14.080631"><ele>571.4</ele><time>2026-04-08T08:05:37.254Z</time></trkpt><trkpt lat="45.7770085" lon="14.0807244"><ele>571.8</ele><time>2026-04-08T08:05:38.253Z</time></trkpt><trkpt lat="45.7770926" lon="14.0808352"><ele>572.1999999999999</ele><time>2026-04-08T08:05:39.253Z</time></trkpt><trkpt lat="45.7771665" lon="14.0809439"><ele>572.6</ele><time>2026-04-08T08:05:40.264Z</time></trkpt><trkpt lat="45.777239" lon="14.0810467"><ele>573.0</ele><time>2026-04-08T08:05:41.265Z</time></trkpt><trkpt lat="45.7773174" lon="14.0811491"><ele>573.5</ele><time>2026-04-08T08:05:42.266Z</time></trkpt><trkpt lat="45.7774076" lon="14.0812481"><ele>574.0</ele><time>2026-04-08T08:05:43.261Z</time></trkpt><trkpt lat="45.777508" lon="14.0813343"><ele>574.5</ele><time>2026-04-08T08:05:44.263Z</time></trkpt><trkpt lat="45.7776082" lon="14.0814107"><ele>575.0</ele><time>2026-04-08T08:05:45.268Z</time></trkpt><trkpt lat="45.7777238" lon="14.0814733"><ele>575.75</ele><time>2026-04-08T08:05:46.268Z</time></trkpt><trkpt lat="45.7778313" lon="14.0815261"><ele>576.5</ele><time>2026-04-08T08:05:47.267Z</time></trkpt><trkpt lat="45.7779498" lon="14.0815535"><ele>577.25</ele><time>2026-04-08T08:05:48.259Z</time></trkpt><trkpt lat="45.7780655" lon="14.0815601"><ele>578.0</ele><time>2026-04-08T08:05:49.274Z</time></trkpt><trkpt lat="45.7781832" lon="14.081545"><ele>578.0</ele><time>2026-04-08T08:05:50.257Z</time></trkpt><trkpt lat="45.7783025" lon="14.0815128"><ele>578.0</ele><time>2026-04-08T08:05:51.259Z</time></trkpt><trkpt lat="45.7784276" lon="14.0814869"><ele>578.0</ele><time>2026-04-08T08:05:52.262Z</time></trkpt><trkpt lat="45.7785578" lon="14.0814657"><ele>578.0</ele><time>2026-04-08T08:05:53.258Z</time></trkpt><trkpt lat="45.7786866" lon="14.0814466"><ele>578.0</ele><time>2026-04-08T08:05:54.257Z</time></trkpt><trkpt lat="45.7788164" lon="14.0814379"><ele>578.0</ele><time>2026-04-08T08:05:55.254Z</time></trkpt><trkpt lat="45.7789442" lon="14.0814313"><ele>578.0</ele><time>2026-04-08T08:05:56.265Z</time></trkpt><trkpt lat="45.7790751" lon="14.0814235"><ele>578.0</ele><time>2026-04-08T08:05:57.263Z</time></trkpt><trkpt lat="45.77921" lon="14.0814161"><ele>578.0</ele><time>2026-04-08T08:05:58.264Z</time></trkpt><trkpt lat="45.779336" lon="14.0814101"><ele>578.0</ele><time>2026-04-08T08:05:59.266Z</time></trkpt><trkpt lat="45.7794662" lon="14.0814162"><ele>578.0</ele><time>2026-04-08T08:06:00.271Z</time></trkpt><trkpt lat="45.7795983" lon="14.08142"><ele>578.0</ele><time>2026-04-08T08:06:01.26Z</time></trkpt><trkpt lat="45.7797226" lon="14.0814173"><ele>580.0</ele><time>2026-04-08T08:06:02.254Z</time></trkpt><trkpt lat="45.7798523" lon="14.0814065"><ele>582.0</ele><time>2026-04-08T08:06:03.262Z</time></trkpt><trkpt lat="45.7799735" lon="14.0813957"><ele>584.0</ele><time>2026-04-08T08:06:04.254Z</time></trkpt><trkpt lat="45.7800919" lon="14.081387"><ele>586.0</ele><time>2026-04-08T08:06:05.261Z</time></trkpt><trkpt lat="45.7802071" lon="14.0813926"><ele>587.75</ele><time>2026-04-08T08:06:06.235Z</time></trkpt><trkpt lat="45.7803233" lon="14.0814192"><ele>589.5</ele><time>2026-04-08T08:06:07.264Z</time></trkpt><trkpt lat="45.780435" lon="14.0814934"><ele>591.25</ele><time>2026-04-08T08:06:08.24Z</time></trkpt><trkpt lat="45.7805382" lon="14.0815731"><ele>593.0</ele><time>2026-04-08T08:06:09.243Z</time></trkpt><trkpt lat="45.7806402" lon="14.0816561"><ele>593.0</ele><time>2026-04-08T08:06:10.243Z</time></trkpt><trkpt lat="45.7807348" lon="14.0817283"><ele>593.0</ele><time>2026-04-08T08:06:11.241Z</time></trkpt><trkpt lat="45.7808354" lon="14.0817875"><ele>593.0</ele><time>2026-04-08T08:06:12.254Z</time></trkpt><trkpt lat="45.780939" lon="14.0818334"><ele>593.0</ele><time>2026-04-08T08:06:13.241Z</time></trkpt><trkpt lat="45.7810328" lon="14.0818622"><ele>593.0</ele><time>2026-04-08T08:06:14.261Z</time></trkpt><trkpt lat="45.7811203" lon="14.0818821"><ele>594.8</ele><time>2026-04-08T08:06:15.259Z</time></trkpt><trkpt lat="45.781205" lon="14.0818894"><ele>596.5999999999999</ele><time>2026-04-08T08:06:16.246Z</time></trkpt><trkpt lat="45.7812787" lon="14.0818759"><ele>598.4000000000001</ele><time>2026-04-08T08:06:17.242Z</time></trkpt><trkpt lat="45.7813439" lon="14.0818597"><ele>600.2</ele><time>2026-04-08T08:06:18.245Z</time></trkpt><trkpt lat="45.7814387" lon="14.0818397"><ele>602.0</ele><time>2026-04-08T08:06:19.245Z</time></trkpt><trkpt lat="45.7815687" lon="14.0818434"><ele>602.0</ele><time>2026-04-08T08:06:20.247Z</time></trkpt><trkpt lat="45.7816945" lon="14.0818737"><ele>602.0</ele><time>2026-04-08T08:06:21.226Z</time></trkpt><trkpt lat="45.7818025" lon="14.0819334"><ele>602.0</ele><time>2026-04-08T08:06:22.235Z</time></trkpt><trkpt lat="45.7819107" lon="14.0820047"><ele>602.0</ele><time>2026-04-08T08:06:23.256Z</time></trkpt><trkpt lat="45.782015" lon="14.0820931"><ele>606.25</ele><time>2026-04-08T08:06:24.253Z</time></trkpt><trkpt lat="45.782126" lon="14.0821812"><ele>610.5</ele><time>2026-04-08T08:06:25.245Z</time></trkpt><trkpt lat="45.7822382" lon="14.0822626"><ele>614.75</ele><time>2026-04-08T08:06:26.25Z</time></trkpt><trkpt lat="45.7823528" lon="14.0823496"><ele>619.0</ele><time>2026-04-08T08:06:27.243Z</time></trkpt><trkpt lat="45.782452" lon="14.0824625"><ele>619.0</ele><time>2026-04-08T08:06:28.249Z</time></trkpt><trkpt lat="45.7825242" lon="14.0826042"><ele>619.0</ele><time>2026-04-08T08:06:29.235Z</time></trkpt><trkpt lat="45.7825809" lon="14.0827839"><ele>619.0</ele><time>2026-04-08T08:06:30.236Z</time></trkpt><trkpt lat="45.7826178" lon="14.0829747"><ele>619.0</ele><time>2026-04-08T08:06:31.235Z</time></trkpt><trkpt lat="45.7826541" lon="14.0831641"><ele>623.25</ele><time>2026-04-08T08:06:32.245Z</time></trkpt><trkpt lat="45.7827036" lon="14.0833382"><ele>627.5</ele><time>2026-04-08T08:06:33.225Z</time></trkpt><trkpt lat="45.7827812" lon="14.0834841"><ele>631.75</ele><time>2026-04-08T08:06:34.233Z</time></trkpt><trkpt lat="45.7828865" lon="14.0836276"><ele>636.0</ele><time>2026-04-08T08:06:35.248Z</time></trkpt><trkpt lat="45.7830006" lon="14.083781"><ele>636.0</ele><time>2026-04-08T08:06:36.24Z</time></trkpt><trkpt lat="45.7831091" lon="14.0839568"><ele>636.0</ele><time>2026-04-08T08:06:37.249Z</time></trkpt><trkpt lat="45.7832218" lon="14.0841482"><ele>636.0</ele><time>2026-04-08T08:06:38.228Z</time></trkpt><trkpt lat="45.7833208" lon="14.0843539"><ele>635.6666666666666</ele><time>2026-04-08T08:06:39.23Z</time></trkpt><trkpt lat="45.7833856" lon="14.0845654"><ele>635.3333333333333</ele><time>2026-04-08T08:06:40.248Z</time></trkpt><trkpt lat="45.7834033" lon="14.0847859"><ele>635.0</ele><time>2026-04-08T08:06:41.249Z</time></trkpt><trkpt lat="45.7833931" lon="14.0849855"><ele>635.0</ele><time>2026-04-08T08:06:42.245Z</time></trkpt><trkpt lat="45.7833764" lon="14.0851725"><ele>635.0</ele><time>2026-04-08T08:06:43.24Z</time></trkpt><trkpt lat="45.7833662" lon="14.0853396"><ele>635.0</ele><time>2026-04-08T08:06:44.242Z</time></trkpt><trkpt lat="45.7834062" lon="14.0854888"><ele>635.0</ele><time>2026-04-08T08:06:45.224Z</time></trkpt><trkpt lat="45.7835005" lon="14.0856214"><ele>637.5</ele><time>2026-04-08T08:06:46.236Z</time></trkpt><trkpt lat="45.7835841" lon="14.0857677"><ele>640.0</ele><time>2026-04-08T08:06:47.235Z</time></trkpt><trkpt lat="45.7836822" lon="14.0858827"><ele>642.5</ele><time>2026-04-08T08:06:48.241Z</time></trkpt><trkpt lat="45.783802" lon="14.085933"><ele>645.0</ele><time>2026-04-08T08:06:49.235Z</time></trkpt><trkpt lat="45.7839375" lon="14.0859293"><ele>645.0</ele><time>2026-04-08T08:06:50.248Z</time></trkpt><trkpt lat="45.7840837" lon="14.0859149"><ele>645.0</ele><time>2026-04-08T08:06:51.238Z</time></trkpt><trkpt lat="45.7842532" lon="14.0858938"><ele>645.0</ele><time>2026-04-08T08:06:52.249Z</time></trkpt><trkpt lat="45.7844138" lon="14.0858618"><ele>647.6666666666666</ele><time>2026-04-08T08:06:53.24Z</time></trkpt><trkpt lat="45.7845733" lon="14.0858085"><ele>650.3333333333333</ele><time>2026-04-08T08:06:54.247Z</time></trkpt><trkpt lat="45.7847217" lon="14.0857573"><ele>653.0</ele><time>2026-04-08T08:06:55.224Z</time></trkpt><trkpt lat="45.784869" lon="14.0857139"><ele>653.0</ele><time>2026-04-08T08:06:56.259Z</time></trkpt><trkpt lat="45.7850118" lon="14.0857137"><ele>653.0</ele><time>2026-04-08T08:06:57.235Z</time></trkpt><trkpt lat="45.7851308" lon="14.0857696"><ele>653.0</ele><time>2026-04-08T08:06:58.22Z</time></trkpt><trkpt lat="45.7852031" lon="14.0858718"><ele>653.0</ele><time>2026-04-08T08:06:59.224Z</time></trkpt><trkpt lat="45.7852623" lon="14.0859945"><ele>654.75</ele><time>2026-04-08T08:07:00.242Z</time></trkpt><trkpt lat="45.7853143" lon="14.0861408"><ele>656.5</ele><time>2026-04-08T08:07:01.227Z</time></trkpt><trkpt lat="45.7853586" lon="14.0863059"><ele>658.25</ele><time>2026-04-08T08:07:02.26Z</time></trkpt><trkpt lat="45.785403" lon="14.0864718"><ele>660.0</ele><time>2026-04-08T08:07:03.256Z</time></trkpt><trkpt lat="45.7854525" lon="14.0866351"><ele>660.0</ele><time>2026-04-08T08:07:04.231Z</time></trkpt><trkpt lat="45.7855067" lon="14.0867856"><ele>660.0</ele><time>2026-04-08T08:07:05.237Z</time></trkpt><trkpt lat="45.7855688" lon="14.0869063"><ele>660.0</ele><time>2026-04-08T08:07:06.243Z</time></trkpt><trkpt lat="45.7856463" lon="14.0870113"><ele>660.0</ele><time>2026-04-08T08:07:07.24Z</time></trkpt><trkpt lat="45.7857398" lon="14.087086"><ele>660.0</ele><time>2026-04-08T08:07:08.231Z</time></trkpt><trkpt lat="45.7858347" lon="14.0871622"><ele>660.0</ele><time>2026-04-08T08:07:09.254Z</time></trkpt><trkpt lat="45.7859269" lon="14.0872379"><ele>660.0</ele><time>2026-04-08T08:07:10.325Z</time></trkpt><trkpt lat="45.7860172" lon="14.0873184"><ele>660.0</ele><time>2026-04-08T08:07:11.335Z</time></trkpt><trkpt lat="45.7862278" lon="14.0874698"><ele>660.0</ele><time>2026-04-08T08:07:13.226Z</time></trkpt><trkpt lat="45.7863265" lon="14.0875617"><ele>661.4</ele><time>2026-04-08T08:07:14.319Z</time></trkpt><trkpt lat="45.7864069" lon="14.0876744"><ele>662.8</ele><time>2026-04-08T08:07:15.317Z</time></trkpt><trkpt lat="45.78647" lon="14.0877949"><ele>664.2</ele><time>2026-04-08T08:07:16.341Z</time></trkpt><trkpt lat="45.7865379" lon="14.0879055"><ele>665.6</ele><time>2026-04-08T08:07:17.322Z</time></trkpt><trkpt lat="45.7866108" lon="14.0880052"><ele>667.0</ele><time>2026-04-08T08:07:18.318Z</time></trkpt><trkpt lat="45.7866786" lon="14.0881138"><ele>667.0</ele><time>2026-04-08T08:07:19.332Z</time></trkpt><trkpt lat="45.7867476" lon="14.0882376"><ele>667.0</ele><time>2026-04-08T08:07:20.333Z</time></trkpt><trkpt lat="45.7868099" lon="14.0883765"><ele>667.0</ele><time>2026-04-08T08:07:21.327Z</time></trkpt><trkpt lat="45.7868663" lon="14.0885155"><ele>667.0</ele><time>2026-04-08T08:07:22.32Z</time></trkpt><trkpt lat="45.7869209" lon="14.0886452"><ele>667.0</ele><time>2026-04-08T08:07:23.337Z</time></trkpt><trkpt lat="45.7869657" lon="14.0887821"><ele>667.6</ele><time>2026-04-08T08:07:24.323Z</time></trkpt><trkpt lat="45.7870165" lon="14.0889119"><ele>668.2</ele><time>2026-04-08T08:07:25.322Z</time></trkpt><trkpt lat="45.7870702" lon="14.0890407"><ele>668.8</ele><time>2026-04-08T08:07:26.327Z</time></trkpt><trkpt lat="45.7871267" lon="14.0891656"><ele>669.4</ele><time>2026-04-08T08:07:27.317Z</time></trkpt><trkpt lat="45.7871724" lon="14.089302"><ele>670.0</ele><time>2026-04-08T08:07:28.309Z</time></trkpt><trkpt lat="45.7872097" lon="14.0894323"><ele>670.0</ele><time>2026-04-08T08:07:29.321Z</time></trkpt><trkpt lat="45.7872395" lon="14.0895499"><ele>670.0</ele><time>2026-04-08T08:07:30.332Z</time></trkpt><trkpt lat="45.7872602" lon="14.0896571"><ele>670.0</ele><time>2026-04-08T08:07:31.333Z</time></trkpt><trkpt lat="45.7872776" lon="14.0897561"><ele>670.0</ele><time>2026-04-08T08:07:32.329Z</time></trkpt><trkpt lat="45.7872679" lon="14.089866"><ele>670.0</ele><time>2026-04-08T08:07:33.32Z</time></trkpt><trkpt lat="45.7872588" lon="14.08999"><ele>670.0</ele><time>2026-04-08T08:07:34.331Z</time></trkpt><trkpt lat="45.7872633" lon="14.0901056"><ele>669.3333333333334</ele><time>2026-04-08T08:07:35.32Z</time></trkpt><trkpt lat="45.7872886" lon="14.0901949"><ele>668.6666666666667</ele><time>2026-04-08T08:07:36.336Z</time></trkpt><trkpt lat="45.7873858" lon="14.0902814"><ele>668.0</ele><time>2026-04-08T08:07:38.316Z</time></trkpt><trkpt lat="45.7874568" lon="14.090299"><ele>667.3333333333334</ele><time>2026-04-08T08:07:39.308Z</time></trkpt><trkpt lat="45.787533" lon="14.0902998"><ele>666.6666666666666</ele><time>2026-04-08T08:07:40.31Z</time></trkpt><trkpt lat="45.7876056" lon="14.0902925"><ele>666.0</ele><time>2026-04-08T08:07:41.305Z</time></trkpt><trkpt lat="45.7876879" lon="14.0902744"><ele>669.0</ele><time>2026-04-08T08:07:42.326Z</time></trkpt><trkpt lat="45.7877735" lon="14.0902627"><ele>672.0</ele><time>2026-04-08T08:07:43.317Z</time></trkpt><trkpt lat="45.7879221" lon="14.0902979"><ele>675.0</ele><time>2026-04-08T08:07:45.317Z</time></trkpt><trkpt lat="45.7879792" lon="14.0903371"><ele>678.0</ele><time>2026-04-08T08:07:46.309Z</time></trkpt><trkpt lat="45.7880418" lon="14.0903811"><ele>681.0</ele><time>2026-04-08T08:07:47.308Z</time></trkpt><trkpt lat="45.7881218" lon="14.090417"><ele>681.0</ele><time>2026-04-08T08:07:48.315Z</time></trkpt><trkpt lat="45.7882133" lon="14.0904589"><ele>681.0</ele><time>2026-04-08T08:07:49.314Z</time></trkpt><trkpt lat="45.7883026" lon="14.0904806"><ele>681.0</ele><time>2026-04-08T08:07:50.314Z</time></trkpt><trkpt lat="45.788384" lon="14.090498"><ele>681.0</ele><time>2026-04-08T08:07:51.305Z</time></trkpt><trkpt lat="45.7884616" lon="14.0905141"><ele>681.0</ele><time>2026-04-08T08:07:52.305Z</time></trkpt><trkpt lat="45.7885407" lon="14.0905332"><ele>681.0</ele><time>2026-04-08T08:07:53.307Z</time></trkpt><trkpt lat="45.7886211" lon="14.0905521"><ele>682.5</ele><time>2026-04-08T08:07:54.328Z</time></trkpt><trkpt lat="45.7886956" lon="14.090572"><ele>684.0</ele><time>2026-04-08T08:07:55.328Z</time></trkpt><trkpt lat="45.7887605" lon="14.0905853"><ele>685.5</ele><time>2026-04-08T08:07:56.309Z</time></trkpt><trkpt lat="45.7888303" lon="14.0905981"><ele>687.0</ele><time>2026-04-08T08:07:58.309Z</time></trkpt><trkpt lat="45.7889041" lon="14.0905997"><ele>688.5</ele><time>2026-04-08T08:08:13.299Z</time></trkpt><trkpt lat="45.7889707" lon="14.0906013"><ele>690.0</ele><time>2026-04-08T08:08:14.299Z</time></trkpt><trkpt lat="45.7890804" lon="14.0905935"><ele>690.0</ele><time>2026-04-08T08:08:15.318Z</time></trkpt><trkpt lat="45.7892064" lon="14.0905608"><ele>690.0</ele><time>2026-04-08T08:08:16.32Z</time></trkpt><trkpt lat="45.7893285" lon="14.0905102"><ele>690.0</ele><time>2026-04-08T08:08:17.304Z</time></trkpt><trkpt lat="45.7894508" lon="14.0904651"><ele>690.0</ele><time>2026-04-08T08:08:18.297Z</time></trkpt><trkpt lat="45.7895707" lon="14.0904352"><ele>691.0</ele><time>2026-04-08T08:08:19.306Z</time></trkpt><trkpt lat="45.789688" lon="14.0904428"><ele>692.0</ele><time>2026-04-08T08:08:20.309Z</time></trkpt><trkpt lat="45.7897661" lon="14.090485"><ele>693.0</ele><time>2026-04-08T08:08:21.305Z</time></trkpt><trkpt lat="45.7898219" lon="14.0906629"><ele>694.0</ele><time>2026-04-08T08:08:23.307Z</time></trkpt><trkpt lat="45.7898803" lon="14.0909269"><ele>694.0</ele><time>2026-04-08T08:08:25.309Z</time></trkpt><trkpt lat="45.7899233" lon="14.0910721"><ele>694.0</ele><time>2026-04-08T08:08:26.301Z</time></trkpt><trkpt lat="45.7899779" lon="14.0912265"><ele>694.0</ele><time>2026-04-08T08:08:27.314Z</time></trkpt><trkpt lat="45.7900409" lon="14.0913708"><ele>694.0</ele><time>2026-04-08T08:08:28.298Z</time></trkpt><trkpt lat="45.7901277" lon="14.0915476"><ele>698.0</ele><time>2026-04-08T08:08:29.294Z</time></trkpt><trkpt lat="45.7902078" lon="14.0917408"><ele>702.0</ele><time>2026-04-08T08:08:30.304Z</time></trkpt><trkpt lat="45.7902728" lon="14.0919074"><ele>706.0</ele><time>2026-04-08T08:08:31.316Z</time></trkpt><trkpt lat="45.7903436" lon="14.0920322"><ele>710.0</ele><time>2026-04-08T08:08:32.289Z</time></trkpt><trkpt lat="45.7904199" lon="14.0921296"><ele>710.0</ele><time>2026-04-08T08:08:33.297Z</time></trkpt><trkpt lat="45.7905203" lon="14.0922259"><ele>710.0</ele><time>2026-04-08T08:08:34.302Z</time></trkpt><trkpt lat="45.7906219" lon="14.0923185"><ele>710.0</ele><time>2026-04-08T08:08:35.303Z</time></trkpt><trkpt lat="45.7907191" lon="14.0924384"><ele>710.0</ele><time>2026-04-08T08:08:36.29Z</time></trkpt><trkpt lat="45.7908024" lon="14.0925955"><ele>711.25</ele><time>2026-04-08T08:08:37.32Z</time></trkpt><trkpt lat="45.7908699" lon="14.092763"><ele>712.5</ele><time>2026-04-08T08:08:38.291Z</time></trkpt><trkpt lat="45.7909459" lon="14.0929282"><ele>713.75</ele><time>2026-04-08T08:08:39.304Z</time></trkpt><trkpt lat="45.7910226" lon="14.0930802"><ele>715.0</ele><time>2026-04-08T08:08:40.296Z</time></trkpt><trkpt lat="45.7910879" lon="14.0932106"><ele>711.25</ele><time>2026-04-08T08:08:41.288Z</time></trkpt><trkpt lat="45.7911791" lon="14.0933216"><ele>707.5</ele><time>2026-04-08T08:08:42.306Z</time></trkpt><trkpt lat="45.7912978" lon="14.0934344"><ele>703.75</ele><time>2026-04-08T08:08:43.303Z</time></trkpt><trkpt lat="45.7914343" lon="14.0935254"><ele>700.0</ele><time>2026-04-08T08:08:44.288Z</time></trkpt><trkpt lat="45.7915631" lon="14.0936068"><ele>700.0</ele><time>2026-04-08T08:08:45.302Z</time></trkpt><trkpt lat="45.7916832" lon="14.0936668"><ele>700.0</ele><time>2026-04-08T08:08:46.291Z</time></trkpt><trkpt lat="45.7918023" lon="14.0936868"><ele>700.0</ele><time>2026-04-08T08:08:47.287Z</time></trkpt><trkpt lat="45.7919209" lon="14.0936843"><ele>700.0</ele><time>2026-04-08T08:08:48.289Z</time></trkpt><trkpt lat="45.7920335" lon="14.09367"><ele>701.25</ele><time>2026-04-08T08:08:49.299Z</time></trkpt><trkpt lat="45.7921555" lon="14.093642"><ele>702.5</ele><time>2026-04-08T08:08:50.292Z</time></trkpt><trkpt lat="45.7922867" lon="14.0936329"><ele>703.75</ele><time>2026-04-08T08:08:51.303Z</time></trkpt><trkpt lat="45.7924165" lon="14.0936265"><ele>705.0</ele><time>2026-04-08T08:08:52.289Z</time></trkpt><trkpt lat="45.7925441" lon="14.0936178"><ele>705.0</ele><time>2026-04-08T08:08:53.303Z</time></trkpt><trkpt lat="45.7926561" lon="14.0936177"><ele>705.0</ele><time>2026-04-08T08:08:54.283Z</time></trkpt><trkpt lat="45.7927556" lon="14.0936121"><ele>705.0</ele><time>2026-04-08T08:08:55.296Z</time></trkpt><trkpt lat="45.7928413" lon="14.0936087"><ele>705.0</ele><time>2026-04-08T08:08:56.293Z</time></trkpt><trkpt lat="45.7929162" lon="14.093599"><ele>705.0</ele><time>2026-04-08T08:08:57.305Z</time></trkpt><trkpt lat="45.7929862" lon="14.0935719"><ele>705.0</ele><time>2026-04-08T08:08:58.288Z</time></trkpt><trkpt lat="45.7930579" lon="14.0935241"><ele>704.25</ele><time>2026-04-08T08:08:59.299Z</time></trkpt><trkpt lat="45.7931494" lon="14.093444"><ele>703.5</ele><time>2026-04-08T08:09:00.289Z</time></trkpt><trkpt lat="45.7932649" lon="14.0933924"><ele>702.75</ele><time>2026-04-08T08:09:01.323Z</time></trkpt><trkpt lat="45.7934102" lon="14.0933324"><ele>702.0</ele><time>2026-04-08T08:09:02.305Z</time></trkpt><trkpt lat="45.7935587" lon="14.0932791"><ele>704.75</ele><time>2026-04-08T08:09:03.296Z</time></trkpt><trkpt lat="45.7936927" lon="14.0932245"><ele>707.5</ele><time>2026-04-08T08:09:04.29Z</time></trkpt><trkpt lat="45.793814" lon="14.0931893"><ele>710.25</ele><time>2026-04-08T08:09:05.293Z</time></trkpt><trkpt lat="45.793935" lon="14.093174"><ele>713.0</ele><time>2026-04-08T08:09:06.297Z</time></trkpt><trkpt lat="45.7940303" lon="14.0931647"><ele>713.0</ele><time>2026-04-08T08:09:07.304Z</time></trkpt><trkpt lat="45.7941132" lon="14.0931544"><ele>713.0</ele><time>2026-04-08T08:09:08.286Z</time></trkpt><trkpt lat="45.7942246" lon="14.0931321"><ele>713.0</ele><time>2026-04-08T08:09:10.288Z</time></trkpt><trkpt lat="45.7942976" lon="14.0931167"><ele>713.0</ele><time>2026-04-08T08:09:12.286Z</time></trkpt><trkpt lat="45.7943753" lon="14.0930907"><ele>713.0</ele><time>2026-04-08T08:09:15.295Z</time></trkpt><trkpt lat="45.794455" lon="14.0930649"><ele>713.0</ele><time>2026-04-08T08:09:18.291Z</time></trkpt><trkpt lat="45.7945235" lon="14.0930592"><ele>713.1428571428571</ele><time>2026-04-08T08:10:41.255Z</time></trkpt><trkpt lat="45.7945535" lon="14.0929742"><ele>713.2857142857143</ele><time>2026-04-08T08:14:27.3Z</time></trkpt><trkpt lat="45.7946289" lon="14.0929344"><ele>713.4285714285714</ele><time>2026-04-08T08:14:30.306Z</time></trkpt><trkpt lat="45.7946894" lon="14.0928997"><ele>713.5714285714286</ele><time>2026-04-08T08:14:31.297Z</time></trkpt><trkpt lat="45.794756" lon="14.0928646"><ele>713.7142857142858</ele><time>2026-04-08T08:14:32.291Z</time></trkpt><trkpt lat="45.7948244" lon="14.0928256"><ele>713.8571428571429</ele><time>2026-04-08T08:14:33.296Z</time></trkpt><trkpt lat="45.7948925" lon="14.0927826"><ele>714.0</ele><time>2026-04-08T08:14:34.311Z</time></trkpt><trkpt lat="45.7950071" lon="14.0927238"><ele>714.0</ele><time>2026-04-08T08:14:36.295Z</time></trkpt><trkpt lat="45.7950728" lon="14.0926984"><ele>714.0</ele><time>2026-04-08T08:14:37.313Z</time></trkpt><trkpt lat="45.7951456" lon="14.0927004"><ele>714.0</ele><time>2026-04-08T08:14:38.299Z</time></trkpt><trkpt lat="45.7952139" lon="14.0927211"><ele>714.0</ele><time>2026-04-08T08:14:39.305Z</time></trkpt><trkpt lat="45.7952888" lon="14.0927453"><ele>714.0</ele><time>2026-04-08T08:14:40.291Z</time></trkpt><trkpt lat="45.7953691" lon="14.0927748"><ele>714.0</ele><time>2026-04-08T08:14:41.302Z</time></trkpt><trkpt lat="45.7954618" lon="14.0928116"><ele>715.0</ele><time>2026-04-08T08:14:42.288Z</time></trkpt><trkpt lat="45.7955735" lon="14.0928522"><ele>716.0</ele><time>2026-04-08T08:14:43.298Z</time></trkpt><trkpt lat="45.795705" lon="14.0929009"><ele>717.0</ele><time>2026-04-08T08:14:44.304Z</time></trkpt><trkpt lat="45.7958238" lon="14.0929759"><ele>718.0</ele><time>2026-04-08T08:14:45.295Z</time></trkpt><trkpt lat="45.7959379" lon="14.0930925"><ele>717.0</ele><time>2026-04-08T08:14:46.306Z</time></trkpt><trkpt lat="45.7960399" lon="14.0932073"><ele>716.0</ele><time>2026-04-08T08:14:47.288Z</time></trkpt><trkpt lat="45.7961367" lon="14.0933358"><ele>715.0</ele><time>2026-04-08T08:14:48.29Z</time></trkpt><trkpt lat="45.7962202" lon="14.0934736"><ele>714.0</ele><time>2026-04-08T08:14:49.292Z</time></trkpt><trkpt lat="45.796297" lon="14.0936107"><ele>714.0</ele><time>2026-04-08T08:14:50.295Z</time></trkpt><trkpt lat="45.7963772" lon="14.0937523"><ele>714.0</ele><time>2026-04-08T08:14:51.29Z</time></trkpt><trkpt lat="45.7964747" lon="14.0938633"><ele>714.0</ele><time>2026-04-08T08:14:52.289Z</time></trkpt><trkpt lat="45.796571" lon="14.093957"><ele>714.0</ele><time>2026-04-08T08:14:53.305Z</time></trkpt><trkpt lat="45.7966766" lon="14.0940256"><ele>714.0</ele><time>2026-04-08T08:14:54.293Z</time></trkpt><trkpt lat="45.7967889" lon="14.0940663"><ele>714.0</ele><time>2026-04-08T08:14:55.296Z</time></trkpt><trkpt lat="45.7968976" lon="14.0941121"><ele>714.0</ele><time>2026-04-08T08:14:56.291Z</time></trkpt><trkpt lat="45.7970246" lon="14.0941847"><ele>714.0</ele><time>2026-04-08T08:14:57.283Z</time></trkpt><trkpt lat="45.7971573" lon="14.094262"><ele>713.6</ele><time>2026-04-08T08:14:58.286Z</time></trkpt><trkpt lat="45.7972796" lon="14.0943594"><ele>713.2</ele><time>2026-04-08T08:14:59.286Z</time></trkpt><trkpt lat="45.7973833" lon="14.0944373"><ele>712.8000000000001</ele><time>2026-04-08T08:15:00.283Z</time></trkpt><trkpt lat="45.7974691" lon="14.0944856"><ele>712.4000000000001</ele><time>2026-04-08T08:15:01.282Z</time></trkpt><trkpt lat="45.7975419" lon="14.0945024"><ele>712.0</ele><time>2026-04-08T08:15:02.289Z</time></trkpt><trkpt lat="45.7976289" lon="14.0945252"><ele>715.25</ele><time>2026-04-08T08:15:03.282Z</time></trkpt><trkpt lat="45.7977481" lon="14.0945592"><ele>718.5</ele><time>2026-04-08T08:15:04.287Z</time></trkpt><trkpt lat="45.7978791" lon="14.0946289"><ele>721.75</ele><time>2026-04-08T08:15:05.286Z</time></trkpt><trkpt lat="45.7980156" lon="14.0947205"><ele>725.0</ele><time>2026-04-08T08:15:06.283Z</time></trkpt><trkpt lat="45.7981384" lon="14.0948195"><ele>725.0</ele><time>2026-04-08T08:15:07.289Z</time></trkpt><trkpt lat="45.798265" lon="14.0949028"><ele>725.0</ele><time>2026-04-08T08:15:08.296Z</time></trkpt><trkpt lat="45.7983781" lon="14.0949516"><ele>725.0</ele><time>2026-04-08T08:15:09.283Z</time></trkpt><trkpt lat="45.7984769" lon="14.0949884"><ele>725.0</ele><time>2026-04-08T08:15:10.283Z</time></trkpt><trkpt lat="45.7985844" lon="14.0950278"><ele>724.6</ele><time>2026-04-08T08:15:11.284Z</time></trkpt><trkpt lat="45.7987039" lon="14.0950587"><ele>724.2</ele><time>2026-04-08T08:15:12.291Z</time></trkpt><trkpt lat="45.7988115" lon="14.0950961"><ele>723.8</ele><time>2026-04-08T08:15:13.295Z</time></trkpt><trkpt lat="45.7988996" lon="14.0951468"><ele>723.4</ele><time>2026-04-08T08:15:14.283Z</time></trkpt><trkpt lat="45.7989649" lon="14.0952002"><ele>723.0</ele><time>2026-04-08T08:15:15.297Z</time></trkpt><trkpt lat="45.7990722" lon="14.0952712"><ele>723.0000000000001</ele><time>2026-04-08T08:15:17.276Z</time></trkpt><trkpt lat="45.7991348" lon="14.0952841"><ele>723.0</ele><time>2026-04-08T08:15:18.283Z</time></trkpt><trkpt lat="45.799203" lon="14.0952986"><ele>723.0</ele><time>2026-04-08T08:15:19.28Z</time></trkpt><trkpt lat="45.7992728" lon="14.0953016"><ele>723.0</ele><time>2026-04-08T08:15:20.273Z</time></trkpt><trkpt lat="45.7993477" lon="14.0953107"><ele>723.0</ele><time>2026-04-08T08:15:21.302Z</time></trkpt><trkpt lat="45.7994086" lon="14.0953416"><ele>723.0000000000001</ele><time>2026-04-08T08:15:22.291Z</time></trkpt><trkpt lat="45.7994718" lon="14.0953535"><ele>723.0</ele><time>2026-04-08T08:15:23.278Z</time></trkpt><trkpt lat="45.7995611" lon="14.0954299"><ele>724.6666666666666</ele><time>2026-04-08T08:15:25.313Z</time></trkpt><trkpt lat="45.7996237" lon="14.0954645"><ele>726.3333333333334</ele><time>2026-04-08T08:16:33.259Z</time></trkpt><trkpt lat="45.7997105" lon="14.0954327"><ele>728.0</ele><time>2026-04-08T08:16:36.252Z</time></trkpt><trkpt lat="45.799765" lon="14.0953794"><ele>729.6666666666667</ele><time>2026-04-08T08:16:37.252Z</time></trkpt><trkpt lat="45.7998362" lon="14.0953354"><ele>731.3333333333334</ele><time>2026-04-08T08:16:38.247Z</time></trkpt><trkpt lat="45.7999216" lon="14.095283"><ele>733.0</ele><time>2026-04-08T08:16:39.261Z</time></trkpt><trkpt lat="45.800017" lon="14.0952303"><ele>731.6666666666667</ele><time>2026-04-08T08:16:40.271Z</time></trkpt><trkpt lat="45.8002251" lon="14.0951289"><ele>730.3333333333334</ele><time>2026-04-08T08:16:42.258Z</time></trkpt><trkpt lat="45.8003379" lon="14.0950857"><ele>729.0</ele><time>2026-04-08T08:16:43.271Z</time></trkpt><trkpt lat="45.8004523" lon="14.0950437"><ele>729.0</ele><time>2026-04-08T08:16:44.27Z</time></trkpt><trkpt lat="45.8005474" lon="14.0949905"><ele>729.0</ele><time>2026-04-08T08:16:45.25Z</time></trkpt><trkpt lat="45.8006295" lon="14.0949208"><ele>729.0</ele><time>2026-04-08T08:16:46.25Z</time></trkpt><trkpt lat="45.8007125" lon="14.0948386"><ele>729.0</ele><time>2026-04-08T08:16:47.273Z</time></trkpt><trkpt lat="45.8007945" lon="14.0947439"><ele>729.0</ele><time>2026-04-08T08:16:48.247Z</time></trkpt><trkpt lat="45.8008705" lon="14.09464"><ele>732.8000000000001</ele><time>2026-04-08T08:16:49.263Z</time></trkpt><trkpt lat="45.8009447" lon="14.0945374"><ele>736.6</ele><time>2026-04-08T08:16:50.261Z</time></trkpt><trkpt lat="45.8010255" lon="14.0944282"><ele>740.4</ele><time>2026-04-08T08:16:51.258Z</time></trkpt><trkpt lat="45.8011033" lon="14.0943329"><ele>744.2</ele><time>2026-04-08T08:16:52.251Z</time></trkpt><trkpt lat="45.8012019" lon="14.0942595"><ele>748.0</ele><time>2026-04-08T08:16:53.262Z</time></trkpt><trkpt lat="45.8013261" lon="14.0941946"><ele>748.0</ele><time>2026-04-08T08:16:54.245Z</time></trkpt><trkpt lat="45.8014543" lon="14.0941353"><ele>748.0</ele><time>2026-04-08T08:16:55.263Z</time></trkpt><trkpt lat="45.8015955" lon="14.0940832"><ele>748.0</ele><time>2026-04-08T08:16:56.255Z</time></trkpt><trkpt lat="45.8017375" lon="14.0940389"><ele>748.0</ele><time>2026-04-08T08:16:57.243Z</time></trkpt><trkpt lat="45.8018825" lon="14.0940144"><ele>755.3333333333334</ele><time>2026-04-08T08:16:58.254Z</time></trkpt><trkpt lat="45.8020106" lon="14.0940082"><ele>762.6666666666667</ele><time>2026-04-08T08:16:59.269Z</time></trkpt><trkpt lat="45.802126" lon="14.0940075"><ele>770.0</ele><time>2026-04-08T08:17:00.246Z</time></trkpt><trkpt lat="45.8023599" lon="14.0939642"><ele>770.0</ele><time>2026-04-08T08:17:02.255Z</time></trkpt><trkpt lat="45.802477" lon="14.0939309"><ele>770.0</ele><time>2026-04-08T08:17:03.258Z</time></trkpt><trkpt lat="45.8026034" lon="14.0938871"><ele>770.0</ele><time>2026-04-08T08:17:04.249Z</time></trkpt><trkpt lat="45.8027357" lon="14.0938345"><ele>770.0</ele><time>2026-04-08T08:17:05.249Z</time></trkpt><trkpt lat="45.8028633" lon="14.0937837"><ele>769.0</ele><time>2026-04-08T08:17:06.245Z</time></trkpt><trkpt lat="45.8029793" lon="14.0937438"><ele>768.0</ele><time>2026-04-08T08:17:07.255Z</time></trkpt><trkpt lat="45.8030926" lon="14.0936853"><ele>767.0</ele><time>2026-04-08T08:17:08.25Z</time></trkpt><trkpt lat="45.8031923" lon="14.0936163"><ele>766.0</ele><time>2026-04-08T08:17:09.248Z</time></trkpt><trkpt lat="45.8032911" lon="14.0935482"><ele>766.0</ele><time>2026-04-08T08:17:10.243Z</time></trkpt><trkpt lat="45.8033846" lon="14.0934777"><ele>766.0</ele><time>2026-04-08T08:17:11.257Z</time></trkpt><trkpt lat="45.8034597" lon="14.0934064"><ele>766.0</ele><time>2026-04-08T08:17:12.256Z</time></trkpt><trkpt lat="45.8035368" lon="14.0933204"><ele>766.0</ele><time>2026-04-08T08:17:13.247Z</time></trkpt><trkpt lat="45.8036074" lon="14.0932313"><ele>766.0</ele><time>2026-04-08T08:17:14.238Z</time></trkpt><trkpt lat="45.803677" lon="14.0931258"><ele>767.0</ele><time>2026-04-08T08:17:15.252Z</time></trkpt><trkpt lat="45.8037466" lon="14.0929991"><ele>768.0</ele><time>2026-04-08T08:17:16.252Z</time></trkpt><trkpt lat="45.8038096" lon="14.0928681"><ele>769.0</ele><time>2026-04-08T08:17:17.244Z</time></trkpt><trkpt lat="45.8038928" lon="14.0927439"><ele>770.0</ele><time>2026-04-08T08:17:18.238Z</time></trkpt><trkpt lat="45.8039878" lon="14.0926391"><ele>770.0</ele><time>2026-04-08T08:17:19.248Z</time></trkpt><trkpt lat="45.8040892" lon="14.092533"><ele>770.0</ele><time>2026-04-08T08:17:20.247Z</time></trkpt><trkpt lat="45.8041735" lon="14.0924309"><ele>770.0</ele><time>2026-04-08T08:17:21.236Z</time></trkpt><trkpt lat="45.8042621" lon="14.0923384"><ele>770.0</ele><time>2026-04-08T08:17:22.25Z</time></trkpt><trkpt lat="45.8043289" lon="14.0922604"><ele>770.0</ele><time>2026-04-08T08:17:23.245Z</time></trkpt><trkpt lat="45.804382" lon="14.0921745"><ele>770.0</ele><time>2026-04-08T08:17:24.247Z</time></trkpt><trkpt lat="45.8044337" lon="14.0920476"><ele>770.0</ele><time>2026-04-08T08:17:25.254Z</time></trkpt><trkpt lat="45.8044905" lon="14.0919147"><ele>770.0</ele><time>2026-04-08T08:17:26.246Z</time></trkpt><trkpt lat="45.8045663" lon="14.0917664"><ele>770.0</ele><time>2026-04-08T08:17:27.243Z</time></trkpt><trkpt lat="45.8046505" lon="14.0916257"><ele>775.5</ele><time>2026-04-08T08:17:28.249Z</time></trkpt><trkpt lat="45.8047554" lon="14.0914767"><ele>781.0</ele><time>2026-04-08T08:17:29.255Z</time></trkpt><trkpt lat="45.804852" lon="14.0913275"><ele>786.5</ele><time>2026-04-08T08:17:30.239Z</time></trkpt><trkpt lat="45.804949" lon="14.0911783"><ele>792.0</ele><time>2026-04-08T08:17:31.241Z</time></trkpt><trkpt lat="45.8050518" lon="14.0910405"><ele>792.0</ele><time>2026-04-08T08:17:32.254Z</time></trkpt><trkpt lat="45.8051571" lon="14.0908826"><ele>792.0</ele><time>2026-04-08T08:17:33.242Z</time></trkpt><trkpt lat="45.8052595" lon="14.0907235"><ele>792.0</ele><time>2026-04-08T08:17:34.238Z</time></trkpt><trkpt lat="45.8053542" lon="14.0905791"><ele>792.0</ele><time>2026-04-08T08:17:35.237Z</time></trkpt><trkpt lat="45.8054416" lon="14.090443"><ele>792.5</ele><time>2026-04-08T08:17:36.248Z</time></trkpt><trkpt lat="45.8055317" lon="14.0902958"><ele>793.0</ele><time>2026-04-08T08:17:37.248Z</time></trkpt><trkpt lat="45.8056187" lon="14.0901551"><ele>793.5</ele><time>2026-04-08T08:17:38.234Z</time></trkpt><trkpt lat="45.805693" lon="14.0900035"><ele>794.0</ele><time>2026-04-08T08:17:39.253Z</time></trkpt><trkpt lat="45.8057697" lon="14.0898738"><ele>796.6</ele><time>2026-04-08T08:17:40.245Z</time></trkpt><trkpt lat="45.8058273" lon="14.0897503"><ele>799.2</ele><time>2026-04-08T08:17:41.242Z</time></trkpt><trkpt lat="45.8058681" lon="14.0896348"><ele>801.8000000000001</ele><time>2026-04-08T08:17:42.23Z</time></trkpt><trkpt lat="45.805889" lon="14.0894953"><ele>804.4000000000001</ele><time>2026-04-08T08:17:43.249Z</time></trkpt><trkpt lat="45.8058962" lon="14.089335"><ele>807.0</ele><time>2026-04-08T08:17:44.236Z</time></trkpt><trkpt lat="45.8058848" lon="14.0891599"><ele>810.25</ele><time>2026-04-08T08:17:45.232Z</time></trkpt><trkpt lat="45.8058925" lon="14.0889678"><ele>813.5</ele><time>2026-04-08T08:17:46.227Z</time></trkpt><trkpt lat="45.8059034" lon="14.088769"><ele>816.75</ele><time>2026-04-08T08:17:47.233Z</time></trkpt><trkpt lat="45.8059237" lon="14.0885838"><ele>820.0</ele><time>2026-04-08T08:17:48.236Z</time></trkpt><trkpt lat="45.8059539" lon="14.0883972"><ele>817.0</ele><time>2026-04-08T08:17:49.249Z</time></trkpt><trkpt lat="45.8059976" lon="14.0882257"><ele>814.0</ele><time>2026-04-08T08:17:50.231Z</time></trkpt><trkpt lat="45.8060487" lon="14.0880649"><ele>811.0</ele><time>2026-04-08T08:17:51.229Z</time></trkpt><trkpt lat="45.806122" lon="14.0879088"><ele>808.0</ele><time>2026-04-08T08:17:52.234Z</time></trkpt><trkpt lat="45.8061908" lon="14.0877662"><ele>808.0</ele><time>2026-04-08T08:17:53.234Z</time></trkpt><trkpt lat="45.8062628" lon="14.0876057"><ele>808.0</ele><time>2026-04-08T08:17:54.229Z</time></trkpt><trkpt lat="45.8063445" lon="14.0874259"><ele>808.0</ele><time>2026-04-08T08:17:55.227Z</time></trkpt><trkpt lat="45.8064153" lon="14.0872244"><ele>808.0</ele><time>2026-04-08T08:17:56.246Z</time></trkpt><trkpt lat="45.8064929" lon="14.0870492"><ele>810.25</ele><time>2026-04-08T08:17:57.231Z</time></trkpt><trkpt lat="45.8065718" lon="14.0869016"><ele>812.5</ele><time>2026-04-08T08:17:58.226Z</time></trkpt><trkpt lat="45.8066631" lon="14.0867832"><ele>814.75</ele><time>2026-04-08T08:17:59.227Z</time></trkpt><trkpt lat="45.806769" lon="14.0866745"><ele>817.0</ele><time>2026-04-08T08:18:00.229Z</time></trkpt><trkpt lat="45.8068907" lon="14.086598"><ele>823.25</ele><time>2026-04-08T08:18:01.243Z</time></trkpt><trkpt lat="45.8070377" lon="14.0865574"><ele>829.5</ele><time>2026-04-08T08:18:02.248Z</time></trkpt><trkpt lat="45.8071758" lon="14.0865335"><ele>835.75</ele><time>2026-04-08T08:18:03.25Z</time></trkpt><trkpt lat="45.8073068" lon="14.0865087"><ele>842.0</ele><time>2026-04-08T08:18:04.226Z</time></trkpt><trkpt lat="45.807433" lon="14.086505"><ele>842.0</ele><time>2026-04-08T08:18:05.228Z</time></trkpt><trkpt lat="45.807531" lon="14.0864781"><ele>842.0</ele><time>2026-04-08T08:18:06.226Z</time></trkpt><trkpt lat="45.8076105" lon="14.0864365"><ele>842.0</ele><time>2026-04-08T08:18:07.222Z</time></trkpt><trkpt lat="45.8076868" lon="14.0863836"><ele>842.0</ele><time>2026-04-08T08:18:08.249Z</time></trkpt><trkpt lat="45.8077566" lon="14.0863075"><ele>842.0</ele><time>2026-04-08T08:18:09.221Z</time></trkpt><trkpt lat="45.8078359" lon="14.0862152"><ele>843.0</ele><time>2026-04-08T08:18:10.235Z</time></trkpt><trkpt lat="45.8079184" lon="14.0861056"><ele>844.0</ele><time>2026-04-08T08:18:11.226Z</time></trkpt><trkpt lat="45.8080101" lon="14.0859778"><ele>845.0</ele><time>2026-04-08T08:18:12.231Z</time></trkpt><trkpt lat="45.8081052" lon="14.0858502"><ele>846.0</ele><time>2026-04-08T08:18:13.23Z</time></trkpt><trkpt lat="45.8081883" lon="14.0856957"><ele>846.0</ele><time>2026-04-08T08:18:14.227Z</time></trkpt><trkpt lat="45.8082607" lon="14.0855143"><ele>846.0</ele><time>2026-04-08T08:18:15.232Z</time></trkpt><trkpt lat="45.8083434" lon="14.0853117"><ele>846.0</ele><time>2026-04-08T08:18:16.22Z</time></trkpt><trkpt lat="45.8084268" lon="14.0851263"><ele>850.0</ele><time>2026-04-08T08:18:17.227Z</time></trkpt><trkpt lat="45.8085201" lon="14.0849372"><ele>854.0</ele><time>2026-04-08T08:18:18.227Z</time></trkpt><trkpt lat="45.8086034" lon="14.0847444"><ele>858.0</ele><time>2026-04-08T08:18:19.24Z</time></trkpt><trkpt lat="45.8086944" lon="14.08456"><ele>858.0</ele><time>2026-04-08T08:18:20.216Z</time></trkpt><trkpt lat="45.8087901" lon="14.0843613"><ele>858.0</ele><time>2026-04-08T08:18:21.224Z</time></trkpt><trkpt lat="45.8088895" lon="14.0841884"><ele>858.0</ele><time>2026-04-08T08:18:22.226Z</time></trkpt><trkpt lat="45.8089797" lon="14.0840312"><ele>859.0</ele><time>2026-04-08T08:18:23.219Z</time></trkpt><trkpt lat="45.8090773" lon="14.0839303"><ele>860.0</ele><time>2026-04-08T08:18:24.227Z</time></trkpt><trkpt lat="45.8091847" lon="14.0838486"><ele>861.0</ele><time>2026-04-08T08:18:25.224Z</time></trkpt><trkpt lat="45.8093002" lon="14.0837516"><ele>862.0</ele><time>2026-04-08T08:18:26.214Z</time></trkpt><trkpt lat="45.8094134" lon="14.0836787"><ele>862.0</ele><time>2026-04-08T08:18:27.22Z</time></trkpt><trkpt lat="45.8095317" lon="14.0835931"><ele>862.0</ele><time>2026-04-08T08:18:28.226Z</time></trkpt><trkpt lat="45.8096385" lon="14.0835259"><ele>862.0</ele><time>2026-04-08T08:18:29.217Z</time></trkpt><trkpt lat="45.8097402" lon="14.083446"><ele>862.0</ele><time>2026-04-08T08:18:30.22Z</time></trkpt><trkpt lat="45.8098325" lon="14.0833528"><ele>862.0</ele><time>2026-04-08T08:18:31.218Z</time></trkpt><trkpt lat="45.8099362" lon="14.0832307"><ele>862.0</ele><time>2026-04-08T08:18:32.236Z</time></trkpt><trkpt lat="45.8100468" lon="14.0831044"><ele>862.0</ele><time>2026-04-08T08:18:33.224Z</time></trkpt><trkpt lat="45.8101576" lon="14.0829639"><ele>862.0</ele><time>2026-04-08T08:18:34.231Z</time></trkpt><trkpt lat="45.8102608" lon="14.0828304"><ele>862.0</ele><time>2026-04-08T08:18:35.218Z</time></trkpt><trkpt lat="45.8103604" lon="14.0827287"><ele>862.0</ele><time>2026-04-08T08:18:36.217Z</time></trkpt><trkpt lat="45.8104636" lon="14.0826461"><ele>862.0</ele><time>2026-04-08T08:18:37.228Z</time></trkpt><trkpt lat="45.810561" lon="14.0825902"><ele>862.0</ele><time>2026-04-08T08:18:38.222Z</time></trkpt><trkpt lat="45.8106364" lon="14.0825858"><ele>862.0</ele><time>2026-04-08T08:18:39.223Z</time></trkpt><trkpt lat="45.810719" lon="14.0825965"><ele>862.0</ele><time>2026-04-08T08:18:40.215Z</time></trkpt><trkpt lat="45.8108199" lon="14.0826102"><ele>862.0</ele><time>2026-04-08T08:18:41.224Z</time></trkpt><trkpt lat="45.810943" lon="14.0826206"><ele>862.0</ele><time>2026-04-08T08:18:42.216Z</time></trkpt><trkpt lat="45.8110596" lon="14.082625"><ele>862.0</ele><time>2026-04-08T08:18:43.227Z</time></trkpt><trkpt lat="45.8112032" lon="14.082627"><ele>862.25</ele><time>2026-04-08T08:18:44.22Z</time></trkpt><trkpt lat="45.8113528" lon="14.0826258"><ele>862.5</ele><time>2026-04-08T08:18:45.224Z</time></trkpt><trkpt lat="45.8115028" lon="14.0826208"><ele>862.75</ele><time>2026-04-08T08:18:46.219Z</time></trkpt><trkpt lat="45.811642" lon="14.0826282"><ele>863.0</ele><time>2026-04-08T08:18:47.22Z</time></trkpt><trkpt lat="45.8117758" lon="14.082635"><ele>863.2</ele><time>2026-04-08T08:18:48.219Z</time></trkpt><trkpt lat="45.8118967" lon="14.0826379"><ele>863.4</ele><time>2026-04-08T08:18:49.21Z</time></trkpt><trkpt lat="45.8119993" lon="14.0826341"><ele>863.6000000000001</ele><time>2026-04-08T08:18:50.221Z</time></trkpt><trkpt lat="45.8120822" lon="14.0826029"><ele>863.8000000000001</ele><time>2026-04-08T08:18:51.205Z</time></trkpt><trkpt lat="45.812175" lon="14.0825236"><ele>864.0</ele><time>2026-04-08T08:18:52.222Z</time></trkpt><trkpt lat="45.8122779" lon="14.0824496"><ele>867.8000000000001</ele><time>2026-04-08T08:18:53.213Z</time></trkpt><trkpt lat="45.8123928" lon="14.0823839"><ele>871.6000000000001</ele><time>2026-04-08T08:18:54.226Z</time></trkpt><trkpt lat="45.8125055" lon="14.0823364"><ele>875.4</ele><time>2026-04-08T08:18:55.211Z</time></trkpt><trkpt lat="45.8126032" lon="14.0823194"><ele>879.2</ele><time>2026-04-08T08:18:56.205Z</time></trkpt><trkpt lat="45.812697" lon="14.0823375"><ele>883.0</ele><time>2026-04-08T08:18:57.204Z</time></trkpt><trkpt lat="45.8127618" lon="14.0823913"><ele>881.6666666666666</ele><time>2026-04-08T08:18:58.218Z</time></trkpt><trkpt lat="45.8128149" lon="14.0824803"><ele>880.3333333333333</ele><time>2026-04-08T08:18:59.209Z</time></trkpt><trkpt lat="45.8128659" lon="14.0825764"><ele>879.0</ele><time>2026-04-08T08:19:00.215Z</time></trkpt><trkpt lat="45.8129222" lon="14.0826747"><ele>877.6666666666667</ele><time>2026-04-08T08:19:01.312Z</time></trkpt><trkpt lat="45.8129732" lon="14.0827536"><ele>876.3333333333334</ele><time>2026-04-08T08:19:02.316Z</time></trkpt><trkpt lat="45.8130299" lon="14.0827993"><ele>875.0</ele><time>2026-04-08T08:19:03.312Z</time></trkpt><trkpt lat="45.8130901" lon="14.0828287"><ele>875.0000000000001</ele><time>2026-04-08T08:19:04.22Z</time></trkpt><trkpt lat="45.8131536" lon="14.0828404"><ele>875.0</ele><time>2026-04-08T08:19:05.207Z</time></trkpt><trkpt lat="45.8132845" lon="14.0828142"><ele>875.0</ele><time>2026-04-08T08:19:07.31Z</time></trkpt><trkpt lat="45.8133565" lon="14.0827847"><ele>875.0</ele><time>2026-04-08T08:19:08.317Z</time></trkpt><trkpt lat="45.8134339" lon="14.0827374"><ele>875.0000000000001</ele><time>2026-04-08T08:19:09.326Z</time></trkpt><trkpt lat="45.8135013" lon="14.0826857"><ele>875.0</ele><time>2026-04-08T08:19:10.31Z</time></trkpt><trkpt lat="45.8135458" lon="14.082612"><ele>875.6666666666667</ele><time>2026-04-08T08:19:11.21Z</time></trkpt><trkpt lat="45.8135805" lon="14.0825286"><ele>876.3333333333334</ele><time>2026-04-08T08:19:12.315Z</time></trkpt><trkpt lat="45.8136143" lon="14.0824327"><ele>877.0</ele><time>2026-04-08T08:19:13.321Z</time></trkpt><trkpt lat="45.8136347" lon="14.0823367"><ele>877.6666666666667</ele><time>2026-04-08T08:19:14.302Z</time></trkpt><trkpt lat="45.8136489" lon="14.0822091"><ele>878.3333333333334</ele><time>2026-04-08T08:19:15.314Z</time></trkpt><trkpt lat="45.8136618" lon="14.0820556"><ele>879.0</ele><time>2026-04-08T08:19:16.315Z</time></trkpt><trkpt lat="45.8136694" lon="14.0819101"><ele>879.0</ele><time>2026-04-08T08:19:17.329Z</time></trkpt><trkpt lat="45.8136735" lon="14.0817553"><ele>879.0000000000001</ele><time>2026-04-08T08:19:18.302Z</time></trkpt><trkpt lat="45.8136829" lon="14.0816141"><ele>879.0000000000001</ele><time>2026-04-08T08:19:19.326Z</time></trkpt><trkpt lat="45.813705" lon="14.081476"><ele>879.0</ele><time>2026-04-08T08:19:20.314Z</time></trkpt><trkpt lat="45.8137371" lon="14.0813599"><ele>879.0</ele><time>2026-04-08T08:19:21.322Z</time></trkpt><trkpt lat="45.813796" lon="14.0812641"><ele>882.0</ele><time>2026-04-08T08:19:22.301Z</time></trkpt><trkpt lat="45.813888" lon="14.0811543"><ele>885.0</ele><time>2026-04-08T08:19:23.327Z</time></trkpt><trkpt lat="45.8139887" lon="14.081045"><ele>888.0</ele><time>2026-04-08T08:19:24.307Z</time></trkpt><trkpt lat="45.8140938" lon="14.080938"><ele>891.0</ele><time>2026-04-08T08:19:25.328Z</time></trkpt><trkpt lat="45.814322" lon="14.0807321"><ele>891.75</ele><time>2026-04-08T08:19:27.303Z</time></trkpt><trkpt lat="45.8144277" lon="14.0806318"><ele>892.5</ele><time>2026-04-08T08:19:28.304Z</time></trkpt><trkpt lat="45.8145285" lon="14.0805487"><ele>893.25</ele><time>2026-04-08T08:19:29.297Z</time></trkpt><trkpt lat="45.8146305" lon="14.0804966"><ele>894.0</ele><time>2026-04-08T08:19:30.309Z</time></trkpt><trkpt lat="45.8147316" lon="14.0804268"><ele>894.0</ele><time>2026-04-08T08:19:31.304Z</time></trkpt><trkpt lat="45.8148309" lon="14.0803452"><ele>894.0</ele><time>2026-04-08T08:19:32.301Z</time></trkpt><trkpt lat="45.8149129" lon="14.0802674"><ele>894.0</ele><time>2026-04-08T08:19:33.302Z</time></trkpt><trkpt lat="45.8149989" lon="14.0801711"><ele>894.0</ele><time>2026-04-08T08:19:34.296Z</time></trkpt><trkpt lat="45.8151201" lon="14.0800482"><ele>897.25</ele><time>2026-04-08T08:19:35.312Z</time></trkpt><trkpt lat="45.8152526" lon="14.0799276"><ele>900.5</ele><time>2026-04-08T08:19:36.297Z</time></trkpt><trkpt lat="45.8153855" lon="14.0798234"><ele>903.75</ele><time>2026-04-08T08:19:37.299Z</time></trkpt><trkpt lat="45.8155092" lon="14.0797365"><ele>907.0</ele><time>2026-04-08T08:19:38.308Z</time></trkpt><trkpt lat="45.8156363" lon="14.0796583"><ele>907.0</ele><time>2026-04-08T08:19:39.305Z</time></trkpt><trkpt lat="45.8157645" lon="14.0795759"><ele>907.0</ele><time>2026-04-08T08:19:40.3Z</time></trkpt><trkpt lat="45.8158957" lon="14.0794966"><ele>907.0</ele><time>2026-04-08T08:19:41.296Z</time></trkpt><trkpt lat="45.8160297" lon="14.0794157"><ele>907.0</ele><time>2026-04-08T08:19:42.32Z</time></trkpt><trkpt lat="45.8161658" lon="14.0793252"><ele>904.0</ele><time>2026-04-08T08:19:43.292Z</time></trkpt><trkpt lat="45.8163019" lon="14.0792582"><ele>901.0</ele><time>2026-04-08T08:19:44.308Z</time></trkpt><trkpt lat="45.8164294" lon="14.0792014"><ele>898.0</ele><time>2026-04-08T08:19:45.31Z</time></trkpt><trkpt lat="45.8165473" lon="14.079151"><ele>895.0</ele><time>2026-04-08T08:19:46.3Z</time></trkpt><trkpt lat="45.8166606" lon="14.0790941"><ele>898.25</ele><time>2026-04-08T08:19:47.298Z</time></trkpt><trkpt lat="45.8167656" lon="14.0790374"><ele>901.5</ele><time>2026-04-08T08:19:48.296Z</time></trkpt><trkpt lat="45.8168668" lon="14.0789611"><ele>904.75</ele><time>2026-04-08T08:19:49.293Z</time></trkpt><trkpt lat="45.8169913" lon="14.0788507"><ele>908.0</ele><time>2026-04-08T08:19:50.306Z</time></trkpt><trkpt lat="45.8171233" lon="14.0787311"><ele>908.0</ele><time>2026-04-08T08:19:51.294Z</time></trkpt><trkpt lat="45.8172629" lon="14.078616"><ele>908.0</ele><time>2026-04-08T08:19:52.308Z</time></trkpt><trkpt lat="45.8174017" lon="14.0784985"><ele>908.0</ele><time>2026-04-08T08:19:53.29Z</time></trkpt><trkpt lat="45.8175301" lon="14.0783805"><ele>907.0</ele><time>2026-04-08T08:19:54.294Z</time></trkpt><trkpt lat="45.8176594" lon="14.0782763"><ele>906.0</ele><time>2026-04-08T08:19:55.294Z</time></trkpt><trkpt lat="45.8177847" lon="14.078191"><ele>905.0</ele><time>2026-04-08T08:19:56.297Z</time></trkpt><trkpt lat="45.8179075" lon="14.0781121"><ele>904.0</ele><time>2026-04-08T08:19:57.296Z</time></trkpt><trkpt lat="45.8180293" lon="14.0780447"><ele>907.5</ele><time>2026-04-08T08:19:58.289Z</time></trkpt><trkpt lat="45.8181583" lon="14.077967"><ele>911.0</ele><time>2026-04-08T08:19:59.297Z</time></trkpt><trkpt lat="45.8182772" lon="14.0779025"><ele>914.5</ele><time>2026-04-08T08:20:00.295Z</time></trkpt><trkpt lat="45.8183944" lon="14.0778336"><ele>918.0</ele><time>2026-04-08T08:20:01.308Z</time></trkpt><trkpt lat="45.8185083" lon="14.0777647"><ele>918.0</ele><time>2026-04-08T08:20:02.297Z</time></trkpt><trkpt lat="45.8186153" lon="14.0776968"><ele>918.0</ele><time>2026-04-08T08:20:03.293Z</time></trkpt><trkpt lat="45.8187099" lon="14.0776312"><ele>918.0</ele><time>2026-04-08T08:20:04.306Z</time></trkpt><trkpt lat="45.8187901" lon="14.077566"><ele>918.0</ele><time>2026-04-08T08:20:05.309Z</time></trkpt><trkpt lat="45.8188806" lon="14.0774852"><ele>918.0</ele><time>2026-04-08T08:20:06.287Z</time></trkpt><trkpt lat="45.8189964" lon="14.0773845"><ele>920.75</ele><time>2026-04-08T08:20:07.304Z</time></trkpt><trkpt lat="45.8191244" lon="14.0773021"><ele>923.5</ele><time>2026-04-08T08:20:08.301Z</time></trkpt><trkpt lat="45.819246" lon="14.0772212"><ele>926.25</ele><time>2026-04-08T08:20:09.287Z</time></trkpt><trkpt lat="45.8193535" lon="14.0771477"><ele>929.0</ele><time>2026-04-08T08:20:10.307Z</time></trkpt><trkpt lat="45.8194578" lon="14.0770942"><ele>929.0</ele><time>2026-04-08T08:20:11.294Z</time></trkpt><trkpt lat="45.8195789" lon="14.0770576"><ele>929.0</ele><time>2026-04-08T08:20:12.287Z</time></trkpt><trkpt lat="45.8198217" lon="14.0769866"><ele>929.0</ele><time>2026-04-08T08:20:14.299Z</time></trkpt><trkpt lat="45.8199426" lon="14.0769466"><ele>929.0</ele><time>2026-04-08T08:20:15.3Z</time></trkpt><trkpt lat="45.8200686" lon="14.076905"><ele>929.0</ele><time>2026-04-08T08:20:16.301Z</time></trkpt><trkpt lat="45.8202017" lon="14.0768765"><ele>929.0</ele><time>2026-04-08T08:20:17.3Z</time></trkpt><trkpt lat="45.8203364" lon="14.0768621"><ele>929.0</ele><time>2026-04-08T08:20:18.29Z</time></trkpt><trkpt lat="45.8204683" lon="14.0768497"><ele>928.75</ele><time>2026-04-08T08:20:19.294Z</time></trkpt><trkpt lat="45.8206017" lon="14.076839"><ele>928.5</ele><time>2026-04-08T08:20:20.287Z</time></trkpt><trkpt lat="45.8207106" lon="14.0768449"><ele>928.25</ele><time>2026-04-08T08:20:21.286Z</time></trkpt><trkpt lat="45.8208168" lon="14.0768401"><ele>928.0</ele><time>2026-04-08T08:20:22.281Z</time></trkpt><trkpt lat="45.8209281" lon="14.0768247"><ele>926.75</ele><time>2026-04-08T08:20:23.283Z</time></trkpt><trkpt lat="45.8210451" lon="14.0768015"><ele>925.5</ele><time>2026-04-08T08:20:24.289Z</time></trkpt><trkpt lat="45.8211714" lon="14.0767678"><ele>924.25</ele><time>2026-04-08T08:20:25.285Z</time></trkpt><trkpt lat="45.8212929" lon="14.0767246"><ele>923.0</ele><time>2026-04-08T08:20:26.294Z</time></trkpt><trkpt lat="45.8214155" lon="14.0766675"><ele>923.0</ele><time>2026-04-08T08:20:27.287Z</time></trkpt><trkpt lat="45.8215483" lon="14.0766038"><ele>923.0</ele><time>2026-04-08T08:20:28.282Z</time></trkpt><trkpt lat="45.8216806" lon="14.0765553"><ele>923.0</ele><time>2026-04-08T08:20:29.289Z</time></trkpt><trkpt lat="45.8218199" lon="14.076514"><ele>923.0</ele><time>2026-04-08T08:20:30.285Z</time></trkpt><trkpt lat="45.821948" lon="14.076487"><ele>925.4</ele><time>2026-04-08T08:20:31.307Z</time></trkpt><trkpt lat="45.8220448" lon="14.076472"><ele>927.8</ele><time>2026-04-08T08:20:32.287Z</time></trkpt><trkpt lat="45.8221303" lon="14.0764723"><ele>930.2</ele><time>2026-04-08T08:20:33.306Z</time></trkpt><trkpt lat="45.8222126" lon="14.0764675"><ele>932.6</ele><time>2026-04-08T08:20:34.284Z</time></trkpt><trkpt lat="45.8223053" lon="14.0764834"><ele>935.0</ele><time>2026-04-08T08:20:35.286Z</time></trkpt><trkpt lat="45.8224253" lon="14.0765055"><ele>935.0000000000001</ele><time>2026-04-08T08:20:36.291Z</time></trkpt><trkpt lat="45.8225277" lon="14.0765256"><ele>935.0</ele><time>2026-04-08T08:20:37.287Z</time></trkpt><trkpt lat="45.8226117" lon="14.0765457"><ele>935.0</ele><time>2026-04-08T08:20:38.279Z</time></trkpt><trkpt lat="45.8226836" lon="14.0765536"><ele>935.0</ele><time>2026-04-08T08:20:39.312Z</time></trkpt><trkpt lat="45.8227569" lon="14.0765357"><ele>935.0000000000001</ele><time>2026-04-08T08:20:40.283Z</time></trkpt><trkpt lat="45.8228422" lon="14.0764782"><ele>935.0</ele><time>2026-04-08T08:20:41.278Z</time></trkpt><trkpt lat="45.822925" lon="14.0764113"><ele>933.0</ele><time>2026-04-08T08:20:42.28Z</time></trkpt><trkpt lat="45.8230159" lon="14.0763556"><ele>931.0</ele><time>2026-04-08T08:20:43.278Z</time></trkpt><trkpt lat="45.8231072" lon="14.0763052"><ele>929.0</ele><time>2026-04-08T08:20:44.287Z</time></trkpt><trkpt lat="45.8231935" lon="14.0762752"><ele>927.0</ele><time>2026-04-08T08:20:45.294Z</time></trkpt><trkpt lat="45.8232748" lon="14.0762488"><ele>925.0</ele><time>2026-04-08T08:20:46.278Z</time></trkpt><trkpt lat="45.8233557" lon="14.0762037"><ele>924.9999999999999</ele><time>2026-04-08T08:20:47.293Z</time></trkpt><trkpt lat="45.8234351" lon="14.0761651"><ele>925.0</ele><time>2026-04-08T08:20:48.282Z</time></trkpt><trkpt lat="45.8235196" lon="14.0761296"><ele>925.0</ele><time>2026-04-08T08:20:49.295Z</time></trkpt><trkpt lat="45.8235997" lon="14.0760939"><ele>925.0</ele><time>2026-04-08T08:20:50.282Z</time></trkpt><trkpt lat="45.8236769" lon="14.0760584"><ele>924.9999999999999</ele><time>2026-04-08T08:20:51.29Z</time></trkpt><trkpt lat="45.8237522" lon="14.0760167"><ele>925.0</ele><time>2026-04-08T08:20:52.275Z</time></trkpt><trkpt lat="45.8238333" lon="14.0759564"><ele>924.4</ele><time>2026-04-08T08:20:53.284Z</time></trkpt><trkpt lat="45.8239186" lon="14.0758813"><ele>923.8</ele><time>2026-04-08T08:20:54.295Z</time></trkpt><trkpt lat="45.8240087" lon="14.0758088"><ele>923.2</ele><time>2026-04-08T08:20:55.292Z</time></trkpt><trkpt lat="45.8241077" lon="14.0757477"><ele>922.6</ele><time>2026-04-08T08:20:56.289Z</time></trkpt><trkpt lat="45.8242003" lon="14.0756994"><ele>922.0</ele><time>2026-04-08T08:20:57.277Z</time></trkpt><trkpt lat="45.8242813" lon="14.0756501"><ele>919.4999999999999</ele><time>2026-04-08T08:20:58.28Z</time></trkpt><trkpt lat="45.8243597" lon="14.0755955"><ele>917.0</ele><time>2026-04-08T08:20:59.271Z</time></trkpt><trkpt lat="45.824437" lon="14.0755563"><ele>914.5</ele><time>2026-04-08T08:21:00.272Z</time></trkpt><trkpt lat="45.8245125" lon="14.0755368"><ele>912.0</ele><time>2026-04-08T08:21:01.303Z</time></trkpt><trkpt lat="45.8245863" lon="14.0755421"><ele>909.4999999999999</ele><time>2026-04-08T08:21:02.278Z</time></trkpt><trkpt lat="45.8246703" lon="14.0755466"><ele>907.0</ele><time>2026-04-08T08:21:03.277Z</time></trkpt><trkpt lat="45.8247389" lon="14.0755401"><ele>906.9999999999999</ele><time>2026-04-08T08:21:04.296Z</time></trkpt><trkpt lat="45.8248097" lon="14.0755311"><ele>907.0</ele><time>2026-04-08T08:21:05.283Z</time></trkpt><trkpt lat="45.8248856" lon="14.0755264"><ele>907.0</ele><time>2026-04-08T08:21:06.278Z</time></trkpt><trkpt lat="45.8249687" lon="14.0755195"><ele>907.0</ele><time>2026-04-08T08:21:07.276Z</time></trkpt><trkpt lat="45.8250423" lon="14.0755031"><ele>906.9999999999999</ele><time>2026-04-08T08:21:08.284Z</time></trkpt><trkpt lat="45.8251088" lon="14.0754639"><ele>907.0</ele><time>2026-04-08T08:21:09.265Z</time></trkpt><trkpt lat="45.8251775" lon="14.0754142"><ele>904.8</ele><time>2026-04-08T08:21:10.28Z</time></trkpt><trkpt lat="45.825249" lon="14.0753579"><ele>902.6</ele><time>2026-04-08T08:21:11.272Z</time></trkpt><trkpt lat="45.8253425" lon="14.0753148"><ele>900.3999999999999</ele><time>2026-04-08T08:21:12.268Z</time></trkpt><trkpt lat="45.82544" lon="14.0752638"><ele>898.1999999999999</ele><time>2026-04-08T08:21:13.278Z</time></trkpt><trkpt lat="45.8255411" lon="14.0752119"><ele>896.0</ele><time>2026-04-08T08:21:14.271Z</time></trkpt><trkpt lat="45.8256351" lon="14.0751733"><ele>896.0</ele><time>2026-04-08T08:21:15.271Z</time></trkpt><trkpt lat="45.825716" lon="14.0751445"><ele>895.9999999999999</ele><time>2026-04-08T08:21:16.267Z</time></trkpt><trkpt lat="45.8257957" lon="14.0751085"><ele>895.9999999999999</ele><time>2026-04-08T08:21:17.269Z</time></trkpt><trkpt lat="45.8258775" lon="14.0750621"><ele>896.0</ele><time>2026-04-08T08:21:18.273Z</time></trkpt><trkpt lat="45.8259644" lon="14.0749975"><ele>896.0</ele><time>2026-04-08T08:21:19.269Z</time></trkpt><trkpt lat="45.8260419" lon="14.0749025"><ele>893.0</ele><time>2026-04-08T08:21:20.266Z</time></trkpt><trkpt lat="45.8261114" lon="14.0747971"><ele>889.9999999999999</ele><time>2026-04-08T08:21:21.286Z</time></trkpt><trkpt lat="45.826179" lon="14.0746714"><ele>886.9999999999999</ele><time>2026-04-08T08:21:22.261Z</time></trkpt><trkpt lat="45.8262474" lon="14.0745414"><ele>884.0</ele><time>2026-04-08T08:21:23.27Z</time></trkpt><trkpt lat="45.8263181" lon="14.0744219"><ele>881.0</ele><time>2026-04-08T08:21:24.277Z</time></trkpt><trkpt lat="45.8263917" lon="14.0743152"><ele>881.0</ele><time>2026-04-08T08:21:25.274Z</time></trkpt><trkpt lat="45.8264646" lon="14.0742282"><ele>880.9999999999999</ele><time>2026-04-08T08:21:26.262Z</time></trkpt><trkpt lat="45.8265403" lon="14.0741554"><ele>880.9999999999999</ele><time>2026-04-08T08:21:27.27Z</time></trkpt><trkpt lat="45.8266219" lon="14.0740614"><ele>881.0</ele><time>2026-04-08T08:21:28.279Z</time></trkpt><trkpt lat="45.8266954" lon="14.073949"><ele>881.0</ele><time>2026-04-08T08:21:29.27Z</time></trkpt><trkpt lat="45.826758" lon="14.0738326"><ele>877.4</ele><time>2026-04-08T08:21:30.268Z</time></trkpt><trkpt lat="45.8268204" lon="14.0737119"><ele>873.8</ele><time>2026-04-08T08:21:31.276Z</time></trkpt><trkpt lat="45.8268844" lon="14.0735841"><ele>870.1999999999999</ele><time>2026-04-08T08:21:32.266Z</time></trkpt><trkpt lat="45.826953" lon="14.0734518"><ele>866.5999999999999</ele><time>2026-04-08T08:21:33.264Z</time></trkpt><trkpt lat="45.8270183" lon="14.0733191"><ele>863.0</ele><time>2026-04-08T08:21:34.283Z</time></trkpt><trkpt lat="45.8270813" lon="14.0731961"><ele>863.0</ele><time>2026-04-08T08:21:35.277Z</time></trkpt><trkpt lat="45.8271424" lon="14.0730809"><ele>863.0</ele><time>2026-04-08T08:21:36.26Z</time></trkpt><trkpt lat="45.827204" lon="14.0729737"><ele>863.0</ele><time>2026-04-08T08:21:37.267Z</time></trkpt><trkpt lat="45.8272659" lon="14.0728651"><ele>863.0</ele><time>2026-04-08T08:21:38.264Z</time></trkpt><trkpt lat="45.8273202" lon="14.0727619"><ele>863.0</ele><time>2026-04-08T08:21:39.27Z</time></trkpt><trkpt lat="45.8273727" lon="14.0726411"><ele>863.0000000000001</ele><time>2026-04-08T08:21:40.267Z</time></trkpt><trkpt lat="45.8274038" lon="14.0725342"><ele>863.0</ele><time>2026-04-08T08:21:41.258Z</time></trkpt><trkpt lat="45.8274284" lon="14.0724409"><ele>863.0</ele><time>2026-04-08T08:21:42.271Z</time></trkpt><trkpt lat="45.8274499" lon="14.0723461"><ele>863.0</ele><time>2026-04-08T08:21:43.272Z</time></trkpt><trkpt lat="45.827461" lon="14.0722409"><ele>863.0000000000001</ele><time>2026-04-08T08:21:44.283Z</time></trkpt><trkpt lat="45.8274779" lon="14.0721259"><ele>863.0</ele><time>2026-04-08T08:21:45.258Z</time></trkpt><trkpt lat="45.8274974" lon="14.0718703"><ele>864.0</ele><time>2026-04-08T08:21:47.268Z</time></trkpt><trkpt lat="45.8275052" lon="14.0717433"><ele>865.0</ele><time>2026-04-08T08:21:48.263Z</time></trkpt><trkpt lat="45.8275142" lon="14.0716192"><ele>866.0</ele><time>2026-04-08T08:21:49.258Z</time></trkpt><trkpt lat="45.8275246" lon="14.071482"><ele>867.0</ele><time>2026-04-08T08:21:50.255Z</time></trkpt><trkpt lat="45.8275332" lon="14.071353"><ele>868.0</ele><time>2026-04-08T08:21:51.264Z</time></trkpt><trkpt lat="45.8275273" lon="14.0712158"><ele>868.0</ele><time>2026-04-08T08:21:52.267Z</time></trkpt><trkpt lat="45.827516" lon="14.0710839"><ele>868.0</ele><time>2026-04-08T08:21:53.267Z</time></trkpt><trkpt lat="45.8275034" lon="14.0709416"><ele>868.0</ele><time>2026-04-08T08:21:54.266Z</time></trkpt><trkpt lat="45.8274945" lon="14.070805"><ele>868.0</ele><time>2026-04-08T08:21:55.255Z</time></trkpt><trkpt lat="45.8275039" lon="14.0706733"><ele>868.0</ele><time>2026-04-08T08:21:56.264Z</time></trkpt><trkpt lat="45.8275267" lon="14.0705476"><ele>868.2</ele><time>2026-04-08T08:21:57.25Z</time></trkpt><trkpt lat="45.8275516" lon="14.0704135"><ele>868.4</ele><time>2026-04-08T08:21:58.273Z</time></trkpt><trkpt lat="45.8275707" lon="14.0702802"><ele>868.6000000000001</ele><time>2026-04-08T08:21:59.249Z</time></trkpt><trkpt lat="45.8275921" lon="14.0701551"><ele>868.8000000000001</ele><time>2026-04-08T08:22:00.248Z</time></trkpt><trkpt lat="45.8276104" lon="14.0700368"><ele>869.0</ele><time>2026-04-08T08:22:01.253Z</time></trkpt><trkpt lat="45.827629" lon="14.0699135"><ele>861.0</ele><time>2026-04-08T08:22:02.251Z</time></trkpt><trkpt lat="45.8276563" lon="14.0697882"><ele>853.0000000000001</ele><time>2026-04-08T08:22:03.258Z</time></trkpt><trkpt lat="45.8276861" lon="14.0696402"><ele>845.0</ele><time>2026-04-08T08:22:04.252Z</time></trkpt><trkpt lat="45.8277139" lon="14.0694951"><ele>837.0</ele><time>2026-04-08T08:22:05.247Z</time></trkpt><trkpt lat="45.8277531" lon="14.0693395"><ele>829.0</ele><time>2026-04-08T08:22:06.273Z</time></trkpt><trkpt lat="45.8278001" lon="14.0691864"><ele>830.75</ele><time>2026-04-08T08:22:07.25Z</time></trkpt><trkpt lat="45.8278467" lon="14.0690249"><ele>832.5</ele><time>2026-04-08T08:22:08.255Z</time></trkpt><trkpt lat="45.8278983" lon="14.068858"><ele>834.25</ele><time>2026-04-08T08:22:09.249Z</time></trkpt><trkpt lat="45.8279492" lon="14.0686903"><ele>836.0</ele><time>2026-04-08T08:22:10.257Z</time></trkpt><trkpt lat="45.8279929" lon="14.0685292"><ele>836.0</ele><time>2026-04-08T08:22:11.263Z</time></trkpt><trkpt lat="45.8280396" lon="14.06839"><ele>836.0</ele><time>2026-04-08T08:22:12.265Z</time></trkpt><trkpt lat="45.8280845" lon="14.0682535"><ele>836.0</ele><time>2026-04-08T08:22:13.274Z</time></trkpt><trkpt lat="45.8281244" lon="14.068124"><ele>836.0</ele><time>2026-04-08T08:22:14.262Z</time></trkpt><trkpt lat="45.8281742" lon="14.0679927"><ele>836.0</ele><time>2026-04-08T08:22:15.252Z</time></trkpt><trkpt lat="45.8282227" lon="14.0678591"><ele>837.4</ele><time>2026-04-08T08:22:16.252Z</time></trkpt><trkpt lat="45.8282643" lon="14.0677236"><ele>838.8</ele><time>2026-04-08T08:22:17.245Z</time></trkpt><trkpt lat="45.8282952" lon="14.0675881"><ele>840.1999999999999</ele><time>2026-04-08T08:22:18.261Z</time></trkpt><trkpt lat="45.8283062" lon="14.0674505"><ele>841.5999999999999</ele><time>2026-04-08T08:22:19.249Z</time></trkpt><trkpt lat="45.8283195" lon="14.0673126"><ele>843.0</ele><time>2026-04-08T08:22:20.251Z</time></trkpt><trkpt lat="45.8283528" lon="14.067171"><ele>845.25</ele><time>2026-04-08T08:22:21.256Z</time></trkpt><trkpt lat="45.8283961" lon="14.0670222"><ele>847.5</ele><time>2026-04-08T08:22:22.246Z</time></trkpt><trkpt lat="45.82844" lon="14.0668676"><ele>849.75</ele><time>2026-04-08T08:22:23.265Z</time></trkpt><trkpt lat="45.8284919" lon="14.066704"><ele>852.0</ele><time>2026-04-08T08:22:24.252Z</time></trkpt><trkpt lat="45.8285458" lon="14.0665433"><ele>845.25</ele><time>2026-04-08T08:22:25.262Z</time></trkpt><trkpt lat="45.8286078" lon="14.066383"><ele>838.5</ele><time>2026-04-08T08:22:26.261Z</time></trkpt><trkpt lat="45.8286697" lon="14.0662261"><ele>831.75</ele><time>2026-04-08T08:22:27.274Z</time></trkpt><trkpt lat="45.8287359" lon="14.0660812"><ele>825.0</ele><time>2026-04-08T08:22:28.245Z</time></trkpt><trkpt lat="45.8288098" lon="14.0659512"><ele>825.0</ele><time>2026-04-08T08:22:29.263Z</time></trkpt><trkpt lat="45.8288913" lon="14.0658351"><ele>825.0</ele><time>2026-04-08T08:22:30.255Z</time></trkpt><trkpt lat="45.8289636" lon="14.0657241"><ele>825.0</ele><time>2026-04-08T08:22:31.278Z</time></trkpt><trkpt lat="45.8290397" lon="14.0656127"><ele>825.0</ele><time>2026-04-08T08:22:32.253Z</time></trkpt><trkpt lat="45.8291179" lon="14.065499"><ele>825.0</ele><time>2026-04-08T08:22:33.249Z</time></trkpt><trkpt lat="45.8291938" lon="14.0653701"><ele>823.5</ele><time>2026-04-08T08:22:34.26Z</time></trkpt><trkpt lat="45.8292617" lon="14.0652578"><ele>822.0</ele><time>2026-04-08T08:22:35.245Z</time></trkpt><trkpt lat="45.8294183" lon="14.0650925"><ele>820.5</ele><time>2026-04-08T08:22:37.258Z</time></trkpt><trkpt lat="45.8295075" lon="14.0650441"><ele>819.0</ele><time>2026-04-08T08:22:38.257Z</time></trkpt><trkpt lat="45.8296133" lon="14.0650236"><ele>819.0</ele><time>2026-04-08T08:22:39.255Z</time></trkpt><trkpt lat="45.8297189" lon="14.0649982"><ele>819.0</ele><time>2026-04-08T08:22:40.239Z</time></trkpt><trkpt lat="45.8298422" lon="14.0649688"><ele>819.0</ele><time>2026-04-08T08:22:41.253Z</time></trkpt><trkpt lat="45.8299699" lon="14.0649552"><ele>819.0</ele><time>2026-04-08T08:22:42.239Z</time></trkpt><trkpt lat="45.8300903" lon="14.0649365"><ele>823.75</ele><time>2026-04-08T08:22:43.256Z</time></trkpt><trkpt lat="45.8302092" lon="14.0649075"><ele>828.5</ele><time>2026-04-08T08:22:44.238Z</time></trkpt><trkpt lat="45.8303204" lon="14.0648742"><ele>833.25</ele><time>2026-04-08T08:22:45.24Z</time></trkpt><trkpt lat="45.8304359" lon="14.0648401"><ele>838.0</ele><time>2026-04-08T08:22:46.242Z</time></trkpt><trkpt lat="45.8305622" lon="14.0648122"><ele>838.0</ele><time>2026-04-08T08:22:47.242Z</time></trkpt><trkpt lat="45.8306907" lon="14.0647881"><ele>838.0</ele><time>2026-04-08T08:22:48.244Z</time></trkpt><trkpt lat="45.8308167" lon="14.0647631"><ele>838.0</ele><time>2026-04-08T08:22:49.249Z</time></trkpt><trkpt lat="45.830935" lon="14.0647489"><ele>838.0</ele><time>2026-04-08T08:22:50.244Z</time></trkpt><trkpt lat="45.8310599" lon="14.0647431"><ele>836.2</ele><time>2026-04-08T08:22:51.259Z</time></trkpt><trkpt lat="45.8311848" lon="14.0647411"><ele>834.4</ele><time>2026-04-08T08:22:52.245Z</time></trkpt><trkpt lat="45.8312917" lon="14.0647321"><ele>832.6</ele><time>2026-04-08T08:22:53.241Z</time></trkpt><trkpt lat="45.8313919" lon="14.0647222"><ele>830.8000000000001</ele><time>2026-04-08T08:22:54.247Z</time></trkpt><trkpt lat="45.8314975" lon="14.0646995"><ele>829.0</ele><time>2026-04-08T08:22:55.245Z</time></trkpt><trkpt lat="45.8316105" lon="14.0646699"><ele>829.0</ele><time>2026-04-08T08:22:56.243Z</time></trkpt><trkpt lat="45.8317342" lon="14.0646539"><ele>829.0</ele><time>2026-04-08T08:22:57.246Z</time></trkpt><trkpt lat="45.8318578" lon="14.064632"><ele>829.0</ele><time>2026-04-08T08:22:58.254Z</time></trkpt><trkpt lat="45.8319816" lon="14.0646124"><ele>829.0</ele><time>2026-04-08T08:22:59.251Z</time></trkpt><trkpt lat="45.8321074" lon="14.0645895"><ele>825.75</ele><time>2026-04-08T08:23:00.25Z</time></trkpt><trkpt lat="45.8322323" lon="14.0645687"><ele>822.5</ele><time>2026-04-08T08:23:01.245Z</time></trkpt><trkpt lat="45.8323657" lon="14.0645495"><ele>819.25</ele><time>2026-04-08T08:23:02.244Z</time></trkpt><trkpt lat="45.832487" lon="14.0645265"><ele>816.0</ele><time>2026-04-08T08:23:03.252Z</time></trkpt><trkpt lat="45.8325971" lon="14.0645049"><ele>815.0</ele><time>2026-04-08T08:23:04.244Z</time></trkpt><trkpt lat="45.8327048" lon="14.0644852"><ele>814.0</ele><time>2026-04-08T08:23:05.238Z</time></trkpt><trkpt lat="45.8328059" lon="14.0644948"><ele>813.0</ele><time>2026-04-08T08:23:06.252Z</time></trkpt><trkpt lat="45.8329096" lon="14.0644978"><ele>812.0</ele><time>2026-04-08T08:23:07.253Z</time></trkpt><trkpt lat="45.832983" lon="14.0645088"><ele>811.0</ele><time>2026-04-08T08:23:08.249Z</time></trkpt><trkpt lat="45.8330608" lon="14.0645355"><ele>810.9999999999999</ele><time>2026-04-08T08:23:09.238Z</time></trkpt><trkpt lat="45.8331168" lon="14.0646046"><ele>811.0</ele><time>2026-04-08T08:23:10.233Z</time></trkpt><trkpt lat="45.8331585" lon="14.0647104"><ele>811.0</ele><time>2026-04-08T08:23:11.237Z</time></trkpt><trkpt lat="45.8331824" lon="14.0648355"><ele>811.0</ele><time>2026-04-08T08:23:12.243Z</time></trkpt><trkpt lat="45.8331986" lon="14.0649786"><ele>810.9999999999999</ele><time>2026-04-08T08:23:13.233Z</time></trkpt><trkpt lat="45.8331978" lon="14.065111"><ele>811.0</ele><time>2026-04-08T08:23:14.237Z</time></trkpt><trkpt lat="45.8332107" lon="14.0652418"><ele>808.9999999999999</ele><time>2026-04-08T08:23:15.238Z</time></trkpt><trkpt lat="45.8332318" lon="14.0653413"><ele>807.0</ele><time>2026-04-08T08:23:16.246Z</time></trkpt><trkpt lat="45.8333126" lon="14.0654557"><ele>805.0</ele><time>2026-04-08T08:23:18.238Z</time></trkpt><trkpt lat="45.8334228" lon="14.0654994"><ele>803.0</ele><time>2026-04-08T08:23:20.234Z</time></trkpt><trkpt lat="45.8334887" lon="14.065497"><ele>800.9999999999999</ele><time>2026-04-08T08:23:21.249Z</time></trkpt><trkpt lat="45.8335552" lon="14.0654782"><ele>799.0</ele><time>2026-04-08T08:23:22.24Z</time></trkpt><trkpt lat="45.8336171" lon="14.0654401"><ele>797.5</ele><time>2026-04-08T08:23:23.238Z</time></trkpt><trkpt lat="45.8337191" lon="14.0653748"><ele>796.0</ele><time>2026-04-08T08:23:24.234Z</time></trkpt><trkpt lat="45.8338463" lon="14.0653195"><ele>794.5</ele><time>2026-04-08T08:23:25.242Z</time></trkpt><trkpt lat="45.8339733" lon="14.0652742"><ele>793.0</ele><time>2026-04-08T08:23:26.233Z</time></trkpt><trkpt lat="45.8340924" lon="14.0652395"><ele>793.0</ele><time>2026-04-08T08:23:27.24Z</time></trkpt><trkpt lat="45.8342093" lon="14.0652037"><ele>793.0</ele><time>2026-04-08T08:23:28.234Z</time></trkpt><trkpt lat="45.8343276" lon="14.0651628"><ele>793.0</ele><time>2026-04-08T08:23:29.233Z</time></trkpt><trkpt lat="45.8344455" lon="14.0651293"><ele>793.0</ele><time>2026-04-08T08:23:30.251Z</time></trkpt><trkpt lat="45.8345681" lon="14.0651506"><ele>793.2</ele><time>2026-04-08T08:23:31.227Z</time></trkpt><trkpt lat="45.8346843" lon="14.0652288"><ele>793.4</ele><time>2026-04-08T08:23:32.24Z</time></trkpt><trkpt lat="45.8347902" lon="14.0653158"><ele>793.6</ele><time>2026-04-08T08:23:33.236Z</time></trkpt><trkpt lat="45.8348824" lon="14.0653829"><ele>793.8000000000001</ele><time>2026-04-08T08:23:34.221Z</time></trkpt><trkpt lat="45.8349717" lon="14.065429"><ele>794.0</ele><time>2026-04-08T08:23:35.223Z</time></trkpt><trkpt lat="45.8350588" lon="14.0654742"><ele>794.8333333333334</ele><time>2026-04-08T08:23:36.23Z</time></trkpt><trkpt lat="45.8351452" lon="14.0655074"><ele>795.6666666666667</ele><time>2026-04-08T08:23:37.231Z</time></trkpt><trkpt lat="45.8352183" lon="14.065542"><ele>796.5</ele><time>2026-04-08T08:23:38.225Z</time></trkpt><trkpt lat="45.8352759" lon="14.0655892"><ele>797.3333333333333</ele><time>2026-04-08T08:23:39.239Z</time></trkpt><trkpt lat="45.8353173" lon="14.0656575"><ele>798.1666666666666</ele><time>2026-04-08T08:23:40.227Z</time></trkpt><trkpt lat="45.8353358" lon="14.0657959"><ele>799.0</ele><time>2026-04-08T08:23:42.227Z</time></trkpt><trkpt lat="45.8353674" lon="14.0659108"><ele>796.1666666666666</ele><time>2026-04-08T08:23:46.232Z</time></trkpt><trkpt lat="45.8354472" lon="14.0660259"><ele>793.3333333333333</ele><time>2026-04-08T08:23:48.233Z</time></trkpt><trkpt lat="45.8355003" lon="14.0660902"><ele>790.5</ele><time>2026-04-08T08:23:49.229Z</time></trkpt><trkpt lat="45.8355561" lon="14.0661498"><ele>787.6666666666667</ele><time>2026-04-08T08:23:50.221Z</time></trkpt><trkpt lat="45.8356103" lon="14.0662066"><ele>784.8333333333334</ele><time>2026-04-08T08:23:51.225Z</time></trkpt><trkpt lat="45.8356684" lon="14.0662766"><ele>782.0</ele><time>2026-04-08T08:23:52.234Z</time></trkpt><trkpt lat="45.8357345" lon="14.0663478"><ele>782.0</ele><time>2026-04-08T08:23:53.23Z</time></trkpt><trkpt lat="45.8357994" lon="14.0664078"><ele>782.0</ele><time>2026-04-08T08:23:54.229Z</time></trkpt><trkpt lat="45.8358803" lon="14.0664559"><ele>782.0</ele><time>2026-04-08T08:23:55.227Z</time></trkpt><trkpt lat="45.8359799" lon="14.0664964"><ele>782.0</ele><time>2026-04-08T08:23:56.226Z</time></trkpt><trkpt lat="45.8360924" lon="14.0665385"><ele>782.0</ele><time>2026-04-08T08:23:57.215Z</time></trkpt><trkpt lat="45.8362025" lon="14.066574"><ele>780.5</ele><time>2026-04-08T08:23:58.23Z</time></trkpt><trkpt lat="45.8363223" lon="14.066632"><ele>779.0</ele><time>2026-04-08T08:23:59.222Z</time></trkpt><trkpt lat="45.8364324" lon="14.0667197"><ele>777.5</ele><time>2026-04-08T08:24:00.22Z</time></trkpt><trkpt lat="45.8365256" lon="14.0668104"><ele>776.0</ele><time>2026-04-08T08:24:01.222Z</time></trkpt><trkpt lat="45.836607" lon="14.0668954"><ele>776.0</ele><time>2026-04-08T08:24:02.221Z</time></trkpt><trkpt lat="45.8366856" lon="14.0669526"><ele>776.0</ele><time>2026-04-08T08:24:03.223Z</time></trkpt><trkpt lat="45.8367741" lon="14.0670055"><ele>776.0</ele><time>2026-04-08T08:24:04.228Z</time></trkpt><trkpt lat="45.8369796" lon="14.0670588"><ele>776.0</ele><time>2026-04-08T08:24:06.217Z</time></trkpt><trkpt lat="45.8370896" lon="14.0670751"><ele>777.4</ele><time>2026-04-08T08:24:07.217Z</time></trkpt><trkpt lat="45.8372031" lon="14.0670769"><ele>778.8</ele><time>2026-04-08T08:24:08.228Z</time></trkpt><trkpt lat="45.8373012" lon="14.0670779"><ele>780.1999999999999</ele><time>2026-04-08T08:24:09.238Z</time></trkpt><trkpt lat="45.8373994" lon="14.0670494"><ele>781.5999999999999</ele><time>2026-04-08T08:24:10.229Z</time></trkpt><trkpt lat="45.8375015" lon="14.0669992"><ele>783.0</ele><time>2026-04-08T08:24:11.223Z</time></trkpt><trkpt lat="45.8375984" lon="14.066955"><ele>783.5999999999999</ele><time>2026-04-08T08:24:12.232Z</time></trkpt><trkpt lat="45.8376964" lon="14.0669286"><ele>784.1999999999999</ele><time>2026-04-08T08:24:13.223Z</time></trkpt><trkpt lat="45.8377953" lon="14.0669623"><ele>784.8</ele><time>2026-04-08T08:24:14.233Z</time></trkpt><trkpt lat="45.8379008" lon="14.0670283"><ele>785.4</ele><time>2026-04-08T08:24:15.227Z</time></trkpt><trkpt lat="45.8379972" lon="14.0671299"><ele>786.0</ele><time>2026-04-08T08:24:16.227Z</time></trkpt><trkpt lat="45.8380682" lon="14.0672564"><ele>786.0</ele><time>2026-04-08T08:24:17.221Z</time></trkpt><trkpt lat="45.8381338" lon="14.0673577"><ele>786.0</ele><time>2026-04-08T08:24:18.214Z</time></trkpt><trkpt lat="45.8381933" lon="14.0674374"><ele>786.0</ele><time>2026-04-08T08:24:19.218Z</time></trkpt><trkpt lat="45.8382653" lon="14.0674678"><ele>786.0</ele><time>2026-04-08T08:24:20.227Z</time></trkpt><trkpt lat="45.838344" lon="14.0674818"><ele>786.0</ele><time>2026-04-08T08:24:21.212Z</time></trkpt><trkpt lat="45.8384416" lon="14.0674849"><ele>786.0</ele><time>2026-04-08T08:24:22.216Z</time></trkpt><trkpt lat="45.8385486" lon="14.0674814"><ele>786.5</ele><time>2026-04-08T08:24:23.224Z</time></trkpt><trkpt lat="45.8386681" lon="14.067464"><ele>787.0</ele><time>2026-04-08T08:24:24.213Z</time></trkpt><trkpt lat="45.838793" lon="14.067441"><ele>787.5</ele><time>2026-04-08T08:24:25.215Z</time></trkpt><trkpt lat="45.8389119" lon="14.0674316"><ele>788.0</ele><time>2026-04-08T08:24:26.21Z</time></trkpt><trkpt lat="45.8390392" lon="14.0674105"><ele>788.0</ele><time>2026-04-08T08:24:27.222Z</time></trkpt><trkpt lat="45.839159" lon="14.0673973"><ele>788.0</ele><time>2026-04-08T08:24:28.232Z</time></trkpt><trkpt lat="45.8392671" lon="14.0673772"><ele>788.0</ele><time>2026-04-08T08:24:29.216Z</time></trkpt><trkpt lat="45.8393649" lon="14.0673508"><ele>788.0</ele><time>2026-04-08T08:24:30.218Z</time></trkpt><trkpt lat="45.8394482" lon="14.0673193"><ele>788.0</ele><time>2026-04-08T08:24:31.232Z</time></trkpt><trkpt lat="45.839525" lon="14.0672666"><ele>786.5999999999999</ele><time>2026-04-08T08:24:32.219Z</time></trkpt><trkpt lat="45.8396002" lon="14.0671926"><ele>785.1999999999999</ele><time>2026-04-08T08:24:33.206Z</time></trkpt><trkpt lat="45.8396761" lon="14.0671182"><ele>783.8</ele><time>2026-04-08T08:24:34.217Z</time></trkpt><trkpt lat="45.839775" lon="14.0670273"><ele>782.4</ele><time>2026-04-08T08:24:35.213Z</time></trkpt><trkpt lat="45.8398711" lon="14.066913"><ele>781.0</ele><time>2026-04-08T08:24:36.218Z</time></trkpt><trkpt lat="45.8399635" lon="14.066778"><ele>781.0</ele><time>2026-04-08T08:24:37.218Z</time></trkpt><trkpt lat="45.8400559" lon="14.0666552"><ele>781.0</ele><time>2026-04-08T08:24:38.21Z</time></trkpt><trkpt lat="45.8401569" lon="14.0665547"><ele>781.0</ele><time>2026-04-08T08:24:39.223Z</time></trkpt><trkpt lat="45.8402511" lon="14.0664899"><ele>781.0</ele><time>2026-04-08T08:24:40.216Z</time></trkpt><trkpt lat="45.8403446" lon="14.0664268"><ele>782.0</ele><time>2026-04-08T08:24:41.219Z</time></trkpt><trkpt lat="45.8404395" lon="14.066348"><ele>783.0</ele><time>2026-04-08T08:24:42.212Z</time></trkpt><trkpt lat="45.8405455" lon="14.0662344"><ele>784.0</ele><time>2026-04-08T08:24:43.227Z</time></trkpt><trkpt lat="45.8406581" lon="14.0661092"><ele>785.0</ele><time>2026-04-08T08:24:44.213Z</time></trkpt><trkpt lat="45.8407655" lon="14.0659928"><ele>785.0</ele><time>2026-04-08T08:24:45.218Z</time></trkpt><trkpt lat="45.840868" lon="14.0658774"><ele>785.0</ele><time>2026-04-08T08:24:46.208Z</time></trkpt><trkpt lat="45.8409677" lon="14.065768"><ele>785.0</ele><time>2026-04-08T08:24:47.208Z</time></trkpt><trkpt lat="45.8410595" lon="14.0656488"><ele>785.0</ele><time>2026-04-08T08:24:48.208Z</time></trkpt><trkpt lat="45.8411468" lon="14.0655049"><ele>784.0</ele><time>2026-04-08T08:24:49.221Z</time></trkpt><trkpt lat="45.8412366" lon="14.0653554"><ele>783.0</ele><time>2026-04-08T08:24:50.311Z</time></trkpt><trkpt lat="45.8413118" lon="14.0651786"><ele>782.0</ele><time>2026-04-08T08:24:51.313Z</time></trkpt><trkpt lat="45.841376" lon="14.06498"><ele>781.0</ele><time>2026-04-08T08:24:52.315Z</time></trkpt><trkpt lat="45.8414565" lon="14.0647897"><ele>781.0</ele><time>2026-04-08T08:24:53.323Z</time></trkpt><trkpt lat="45.8416248" lon="14.0644634"><ele>781.0</ele><time>2026-04-08T08:24:55.202Z</time></trkpt><trkpt lat="45.8417132" lon="14.0643093"><ele>781.0</ele><time>2026-04-08T08:24:56.308Z</time></trkpt><trkpt lat="45.8417899" lon="14.0641513"><ele>778.0</ele><time>2026-04-08T08:24:57.311Z</time></trkpt><trkpt lat="45.8418599" lon="14.0639905"><ele>775.0</ele><time>2026-04-08T08:24:58.303Z</time></trkpt><trkpt lat="45.8419189" lon="14.0638422"><ele>772.0</ele><time>2026-04-08T08:24:59.302Z</time></trkpt><trkpt lat="45.8419647" lon="14.0636945"><ele>769.0</ele><time>2026-04-08T08:25:00.318Z</time></trkpt><trkpt lat="45.8420181" lon="14.0633674"><ele>770.25</ele><time>2026-04-08T08:25:02.305Z</time></trkpt><trkpt lat="45.8420169" lon="14.0632049"><ele>771.5</ele><time>2026-04-08T08:25:03.316Z</time></trkpt><trkpt lat="45.8420294" lon="14.0630159"><ele>772.75</ele><time>2026-04-08T08:25:04.309Z</time></trkpt><trkpt lat="45.8420568" lon="14.062807"><ele>774.0</ele><time>2026-04-08T08:25:05.304Z</time></trkpt><trkpt lat="45.8420853" lon="14.0626152"><ele>774.25</ele><time>2026-04-08T08:25:06.305Z</time></trkpt><trkpt lat="45.842119" lon="14.0624338"><ele>774.5</ele><time>2026-04-08T08:25:07.307Z</time></trkpt><trkpt lat="45.8421533" lon="14.0622655"><ele>774.75</ele><time>2026-04-08T08:25:08.306Z</time></trkpt><trkpt lat="45.8421793" lon="14.0620894"><ele>775.0</ele><time>2026-04-08T08:25:09.299Z</time></trkpt><trkpt lat="45.8422023" lon="14.0619191"><ele>775.0</ele><time>2026-04-08T08:25:10.304Z</time></trkpt><trkpt lat="45.8422214" lon="14.0617662"><ele>775.0</ele><time>2026-04-08T08:25:11.32Z</time></trkpt><trkpt lat="45.8422537" lon="14.0616207"><ele>775.0</ele><time>2026-04-08T08:25:12.3Z</time></trkpt><trkpt lat="45.8423037" lon="14.0614969"><ele>775.0</ele><time>2026-04-08T08:25:13.299Z</time></trkpt><trkpt lat="45.8423534" lon="14.0613874"><ele>775.0</ele><time>2026-04-08T08:25:14.302Z</time></trkpt><trkpt lat="45.8423882" lon="14.0612831"><ele>775.4999999999999</ele><time>2026-04-08T08:25:15.308Z</time></trkpt><trkpt lat="45.8424003" lon="14.0611662"><ele>776.0</ele><time>2026-04-08T08:25:16.309Z</time></trkpt><trkpt lat="45.8423871" lon="14.0610616"><ele>776.5</ele><time>2026-04-08T08:25:17.303Z</time></trkpt><trkpt lat="45.842359" lon="14.0609366"><ele>777.0</ele><time>2026-04-08T08:25:18.313Z</time></trkpt><trkpt lat="45.8423336" lon="14.0608014"><ele>777.4999999999999</ele><time>2026-04-08T08:25:19.301Z</time></trkpt><trkpt lat="45.842332" lon="14.0606748"><ele>778.0</ele><time>2026-04-08T08:25:20.317Z</time></trkpt><trkpt lat="45.8423596" lon="14.0605428"><ele>779.5</ele><time>2026-04-08T08:25:21.297Z</time></trkpt><trkpt lat="45.8424085" lon="14.0603924"><ele>781.0</ele><time>2026-04-08T08:25:22.3Z</time></trkpt><trkpt lat="45.8424755" lon="14.0602272"><ele>782.5</ele><time>2026-04-08T08:25:23.31Z</time></trkpt><trkpt lat="45.8425433" lon="14.060056"><ele>784.0</ele><time>2026-04-08T08:25:24.293Z</time></trkpt><trkpt lat="45.8426175" lon="14.0598826"><ele>776.0</ele><time>2026-04-08T08:25:25.301Z</time></trkpt><trkpt lat="45.8426771" lon="14.0597109"><ele>768.0</ele><time>2026-04-08T08:25:26.306Z</time></trkpt><trkpt lat="45.8427416" lon="14.059533"><ele>760.0</ele><time>2026-04-08T08:25:27.314Z</time></trkpt><trkpt lat="45.8428002" lon="14.0593633"><ele>752.0</ele><time>2026-04-08T08:25:28.3Z</time></trkpt><trkpt lat="45.8428449" lon="14.059178"><ele>753.75</ele><time>2026-04-08T08:25:29.305Z</time></trkpt><trkpt lat="45.8428877" lon="14.0590072"><ele>755.5</ele><time>2026-04-08T08:25:30.308Z</time></trkpt><trkpt lat="45.842916" lon="14.0588349"><ele>757.25</ele><time>2026-04-08T08:25:31.304Z</time></trkpt><trkpt lat="45.8429493" lon="14.0586586"><ele>759.0</ele><time>2026-04-08T08:25:32.302Z</time></trkpt><trkpt lat="45.8429755" lon="14.0584833"><ele>759.0</ele><time>2026-04-08T08:25:33.298Z</time></trkpt><trkpt lat="45.8430128" lon="14.0583035"><ele>759.0</ele><time>2026-04-08T08:25:34.301Z</time></trkpt><trkpt lat="45.8430778" lon="14.0581463"><ele>759.0</ele><time>2026-04-08T08:25:35.299Z</time></trkpt><trkpt lat="45.8431504" lon="14.057991"><ele>759.0</ele><time>2026-04-08T08:25:36.307Z</time></trkpt><trkpt lat="45.8432304" lon="14.0578444"><ele>758.25</ele><time>2026-04-08T08:25:37.299Z</time></trkpt><trkpt lat="45.8433104" lon="14.0576998"><ele>757.5</ele><time>2026-04-08T08:25:38.291Z</time></trkpt><trkpt lat="45.8433826" lon="14.0575512"><ele>756.75</ele><time>2026-04-08T08:25:39.302Z</time></trkpt><trkpt lat="45.8434413" lon="14.0574082"><ele>756.0</ele><time>2026-04-08T08:25:40.302Z</time></trkpt><trkpt lat="45.8434782" lon="14.0572772"><ele>756.0</ele><time>2026-04-08T08:25:41.299Z</time></trkpt><trkpt lat="45.8435043" lon="14.0571549"><ele>756.0</ele><time>2026-04-08T08:25:42.301Z</time></trkpt><trkpt lat="45.8435233" lon="14.0570217"><ele>756.0</ele><time>2026-04-08T08:25:43.302Z</time></trkpt><trkpt lat="45.8435218" lon="14.0568871"><ele>756.0</ele><time>2026-04-08T08:25:44.293Z</time></trkpt><trkpt lat="45.8435061" lon="14.0567514"><ele>756.0</ele><time>2026-04-08T08:25:45.291Z</time></trkpt><trkpt lat="45.8434697" lon="14.056596"><ele>757.5</ele><time>2026-04-08T08:25:46.293Z</time></trkpt><trkpt lat="45.8434313" lon="14.0564514"><ele>759.0</ele><time>2026-04-08T08:25:47.315Z</time></trkpt><trkpt lat="45.8433702" lon="14.0563234"><ele>760.5</ele><time>2026-04-08T08:25:48.303Z</time></trkpt><trkpt lat="45.8432915" lon="14.0561707"><ele>762.0</ele><time>2026-04-08T08:25:49.292Z</time></trkpt><trkpt lat="45.8431027" lon="14.0558649"><ele>760.8</ele><time>2026-04-08T08:25:51.304Z</time></trkpt><trkpt lat="45.8430049" lon="14.0557484"><ele>759.6</ele><time>2026-04-08T08:25:52.29Z</time></trkpt><trkpt lat="45.8429175" lon="14.0556568"><ele>758.4</ele><time>2026-04-08T08:25:53.309Z</time></trkpt><trkpt lat="45.842853" lon="14.0555776"><ele>757.1999999999999</ele><time>2026-04-08T08:25:54.304Z</time></trkpt><trkpt lat="45.8427893" lon="14.0555114"><ele>756.0</ele><time>2026-04-08T08:25:55.303Z</time></trkpt><trkpt lat="45.8427476" lon="14.0554224"><ele>756.0</ele><time>2026-04-08T08:25:56.3Z</time></trkpt><trkpt lat="45.842749" lon="14.0553157"><ele>756.0</ele><time>2026-04-08T08:25:57.291Z</time></trkpt><trkpt lat="45.842782" lon="14.0551756"><ele>756.0</ele><time>2026-04-08T08:25:58.291Z</time></trkpt><trkpt lat="45.8428307" lon="14.0550201"><ele>756.0</ele><time>2026-04-08T08:25:59.301Z</time></trkpt><trkpt lat="45.8429003" lon="14.0548801"><ele>756.0</ele><time>2026-04-08T08:26:00.296Z</time></trkpt><trkpt lat="45.842967" lon="14.0547356"><ele>756.1999999999999</ele><time>2026-04-08T08:26:01.284Z</time></trkpt><trkpt lat="45.8430247" lon="14.0546046"><ele>756.4</ele><time>2026-04-08T08:26:02.287Z</time></trkpt><trkpt lat="45.8430421" lon="14.0544593"><ele>756.6</ele><time>2026-04-08T08:26:03.293Z</time></trkpt><trkpt lat="45.8430465" lon="14.0543031"><ele>756.8</ele><time>2026-04-08T08:26:04.309Z</time></trkpt><trkpt lat="45.8430533" lon="14.0541514"><ele>757.0</ele><time>2026-04-08T08:26:05.296Z</time></trkpt><trkpt lat="45.8430558" lon="14.0540039"><ele>756.6</ele><time>2026-04-08T08:26:06.293Z</time></trkpt><trkpt lat="45.8430387" lon="14.0538537"><ele>756.2</ele><time>2026-04-08T08:26:07.285Z</time></trkpt><trkpt lat="45.8430167" lon="14.0537095"><ele>755.8</ele><time>2026-04-08T08:26:08.297Z</time></trkpt><trkpt lat="45.8430164" lon="14.0535459"><ele>755.4</ele><time>2026-04-08T08:26:09.291Z</time></trkpt><trkpt lat="45.8430473" lon="14.0533809"><ele>755.0</ele><time>2026-04-08T08:26:10.289Z</time></trkpt><trkpt lat="45.8430991" lon="14.0532206"><ele>757.25</ele><time>2026-04-08T08:26:11.292Z</time></trkpt><trkpt lat="45.8431625" lon="14.0530623"><ele>759.5</ele><time>2026-04-08T08:26:12.278Z</time></trkpt><trkpt lat="45.8432196" lon="14.0528943"><ele>761.75</ele><time>2026-04-08T08:26:13.299Z</time></trkpt><trkpt lat="45.8432744" lon="14.0527486"><ele>764.0</ele><time>2026-04-08T08:26:14.306Z</time></trkpt><trkpt lat="45.8433321" lon="14.052609"><ele>764.0</ele><time>2026-04-08T08:26:15.297Z</time></trkpt><trkpt lat="45.8433866" lon="14.0524626"><ele>764.0</ele><time>2026-04-08T08:26:16.289Z</time></trkpt><trkpt lat="45.8434521" lon="14.0523267"><ele>764.0</ele><time>2026-04-08T08:26:17.286Z</time></trkpt><trkpt lat="45.8435281" lon="14.052201"><ele>764.0</ele><time>2026-04-08T08:26:18.282Z</time></trkpt><trkpt lat="45.8436062" lon="14.0520938"><ele>762.25</ele><time>2026-04-08T08:26:19.282Z</time></trkpt><trkpt lat="45.8436879" lon="14.052001"><ele>760.5</ele><time>2026-04-08T08:26:20.294Z</time></trkpt><trkpt lat="45.8437963" lon="14.0519239"><ele>758.75</ele><time>2026-04-08T08:26:21.295Z</time></trkpt><trkpt lat="45.8439247" lon="14.0518894"><ele>757.0</ele><time>2026-04-08T08:26:22.3Z</time></trkpt><trkpt lat="45.8440324" lon="14.0518656"><ele>757.0</ele><time>2026-04-08T08:26:23.285Z</time></trkpt><trkpt lat="45.8441172" lon="14.0518379"><ele>757.0</ele><time>2026-04-08T08:26:24.296Z</time></trkpt><trkpt lat="45.844186" lon="14.0517961"><ele>757.0</ele><time>2026-04-08T08:26:25.297Z</time></trkpt><trkpt lat="45.8442499" lon="14.0517051"><ele>757.0</ele><time>2026-04-08T08:26:26.283Z</time></trkpt><trkpt lat="45.8443106" lon="14.0515935"><ele>757.0</ele><time>2026-04-08T08:26:27.291Z</time></trkpt><trkpt lat="45.8443837" lon="14.0515018"><ele>757.0</ele><time>2026-04-08T08:26:28.277Z</time></trkpt><trkpt lat="45.8444762" lon="14.0514538"><ele>758.0</ele><time>2026-04-08T08:26:29.284Z</time></trkpt><trkpt lat="45.8445925" lon="14.0514287"><ele>759.0</ele><time>2026-04-08T08:26:30.287Z</time></trkpt><trkpt lat="45.8447096" lon="14.0514133"><ele>760.0</ele><time>2026-04-08T08:26:31.286Z</time></trkpt><trkpt lat="45.8448291" lon="14.051374"><ele>761.0</ele><time>2026-04-08T08:26:32.28Z</time></trkpt><trkpt lat="45.8449532" lon="14.0513177"><ele>761.0</ele><time>2026-04-08T08:26:33.283Z</time></trkpt><trkpt lat="45.8450513" lon="14.0512615"><ele>761.0</ele><time>2026-04-08T08:26:34.282Z</time></trkpt><trkpt lat="45.8451335" lon="14.0511807"><ele>761.0</ele><time>2026-04-08T08:26:35.287Z</time></trkpt><trkpt lat="45.8452037" lon="14.0511066"><ele>761.0</ele><time>2026-04-08T08:26:36.281Z</time></trkpt><trkpt lat="45.8452591" lon="14.0510106"><ele>761.0</ele><time>2026-04-08T08:26:37.291Z</time></trkpt><trkpt lat="45.8453093" lon="14.0509016"><ele>761.4</ele><time>2026-04-08T08:26:38.304Z</time></trkpt><trkpt lat="45.8453544" lon="14.0507769"><ele>761.8</ele><time>2026-04-08T08:26:39.283Z</time></trkpt><trkpt lat="45.8454092" lon="14.0506616"><ele>762.1999999999999</ele><time>2026-04-08T08:26:40.278Z</time></trkpt><trkpt lat="45.8454822" lon="14.0505875"><ele>762.5999999999999</ele><time>2026-04-08T08:26:41.279Z</time></trkpt><trkpt lat="45.8455695" lon="14.0505243"><ele>763.0</ele><time>2026-04-08T08:26:42.27Z</time></trkpt><trkpt lat="45.8456973" lon="14.0504796"><ele>763.0</ele><time>2026-04-08T08:26:43.297Z</time></trkpt><trkpt lat="45.8458423" lon="14.050463"><ele>763.0</ele><time>2026-04-08T08:26:44.287Z</time></trkpt><trkpt lat="45.8459718" lon="14.0504575"><ele>763.0</ele><time>2026-04-08T08:26:45.285Z</time></trkpt><trkpt lat="45.8460894" lon="14.0504469"><ele>763.0</ele><time>2026-04-08T08:26:46.276Z</time></trkpt><trkpt lat="45.8462012" lon="14.0504096"><ele>760.5</ele><time>2026-04-08T08:26:47.288Z</time></trkpt><trkpt lat="45.8463172" lon="14.0503695"><ele>758.0</ele><time>2026-04-08T08:26:48.308Z</time></trkpt><trkpt lat="45.846439" lon="14.0503057"><ele>755.5</ele><time>2026-04-08T08:26:49.294Z</time></trkpt><trkpt lat="45.8465579" lon="14.0502445"><ele>753.0</ele><time>2026-04-08T08:26:50.303Z</time></trkpt><trkpt lat="45.8466678" lon="14.0501768"><ele>753.0</ele><time>2026-04-08T08:26:51.277Z</time></trkpt><trkpt lat="45.8467713" lon="14.0501295"><ele>753.0</ele><time>2026-04-08T08:26:52.272Z</time></trkpt><trkpt lat="45.8468681" lon="14.0501003"><ele>753.0</ele><time>2026-04-08T08:26:53.304Z</time></trkpt><trkpt lat="45.8469637" lon="14.0500907"><ele>753.0</ele><time>2026-04-08T08:26:54.274Z</time></trkpt><trkpt lat="45.8470549" lon="14.0500821"><ele>753.0</ele><time>2026-04-08T08:26:55.274Z</time></trkpt><trkpt lat="45.8471485" lon="14.0500701"><ele>752.5999999999999</ele><time>2026-04-08T08:26:56.274Z</time></trkpt><trkpt lat="45.8472437" lon="14.0500561"><ele>752.1999999999999</ele><time>2026-04-08T08:26:57.266Z</time></trkpt><trkpt lat="45.8473361" lon="14.0500255"><ele>751.8</ele><time>2026-04-08T08:26:58.274Z</time></trkpt><trkpt lat="45.8474335" lon="14.0499892"><ele>751.4</ele><time>2026-04-08T08:26:59.28Z</time></trkpt><trkpt lat="45.8475525" lon="14.0499384"><ele>751.0</ele><time>2026-04-08T08:27:00.273Z</time></trkpt><trkpt lat="45.8476831" lon="14.0498694"><ele>752.4</ele><time>2026-04-08T08:27:01.29Z</time></trkpt><trkpt lat="45.8478038" lon="14.0497955"><ele>753.8</ele><time>2026-04-08T08:27:02.272Z</time></trkpt><trkpt lat="45.8479026" lon="14.0497349"><ele>755.1999999999999</ele><time>2026-04-08T08:27:03.274Z</time></trkpt><trkpt lat="45.8479948" lon="14.0496541"><ele>756.5999999999999</ele><time>2026-04-08T08:27:04.272Z</time></trkpt><trkpt lat="45.8480628" lon="14.0495767"><ele>758.0</ele><time>2026-04-08T08:27:05.268Z</time></trkpt><trkpt lat="45.8481241" lon="14.0494991"><ele>758.0</ele><time>2026-04-08T08:27:06.268Z</time></trkpt><trkpt lat="45.8481721" lon="14.0493855"><ele>758.0</ele><time>2026-04-08T08:27:07.268Z</time></trkpt><trkpt lat="45.8482159" lon="14.0492625"><ele>758.0</ele><time>2026-04-08T08:27:08.274Z</time></trkpt><trkpt lat="45.8482691" lon="14.049136"><ele>758.0</ele><time>2026-04-08T08:27:09.291Z</time></trkpt><trkpt lat="45.8483336" lon="14.0490212"><ele>758.0</ele><time>2026-04-08T08:27:10.267Z</time></trkpt><trkpt lat="45.8484208" lon="14.048929"><ele>758.75</ele><time>2026-04-08T08:27:11.274Z</time></trkpt><trkpt lat="45.8485232" lon="14.0488497"><ele>759.5</ele><time>2026-04-08T08:27:12.273Z</time></trkpt><trkpt lat="45.8486199" lon="14.0487643"><ele>760.25</ele><time>2026-04-08T08:27:13.28Z</time></trkpt><trkpt lat="45.8487117" lon="14.0486737"><ele>761.0</ele><time>2026-04-08T08:27:14.28Z</time></trkpt><trkpt lat="45.8488034" lon="14.0485814"><ele>761.0</ele><time>2026-04-08T08:27:15.286Z</time></trkpt><trkpt lat="45.8489034" lon="14.0484626"><ele>761.0</ele><time>2026-04-08T08:27:16.267Z</time></trkpt><trkpt lat="45.8489903" lon="14.0483424"><ele>761.0</ele><time>2026-04-08T08:27:17.273Z</time></trkpt><trkpt lat="45.8490646" lon="14.0482115"><ele>761.0</ele><time>2026-04-08T08:27:18.282Z</time></trkpt><trkpt lat="45.8491139" lon="14.0480478"><ele>763.75</ele><time>2026-04-08T08:27:19.271Z</time></trkpt><trkpt lat="45.849169" lon="14.0478611"><ele>766.5</ele><time>2026-04-08T08:27:20.276Z</time></trkpt><trkpt lat="45.8492256" lon="14.0476562"><ele>769.25</ele><time>2026-04-08T08:27:21.272Z</time></trkpt><trkpt lat="45.8492745" lon="14.047493"><ele>772.0</ele><time>2026-04-08T08:27:22.269Z</time></trkpt><trkpt lat="45.8493104" lon="14.0473656"><ele>768.8</ele><time>2026-04-08T08:27:23.266Z</time></trkpt><trkpt lat="45.8493366" lon="14.0472432"><ele>765.6</ele><time>2026-04-08T08:27:24.271Z</time></trkpt><trkpt lat="45.8493449" lon="14.0471253"><ele>762.4</ele><time>2026-04-08T08:27:25.27Z</time></trkpt><trkpt lat="45.8493348" lon="14.0469822"><ele>759.1999999999999</ele><time>2026-04-08T08:27:26.278Z</time></trkpt><trkpt lat="45.8493283" lon="14.0467981"><ele>756.0</ele><time>2026-04-08T08:27:27.273Z</time></trkpt><trkpt lat="45.8493383" lon="14.0466004"><ele>756.0</ele><time>2026-04-08T08:27:28.277Z</time></trkpt><trkpt lat="45.8493681" lon="14.0464108"><ele>756.0</ele><time>2026-04-08T08:27:29.262Z</time></trkpt><trkpt lat="45.8494008" lon="14.0462481"><ele>756.0</ele><time>2026-04-08T08:27:30.268Z</time></trkpt><trkpt lat="45.8494382" lon="14.0460688"><ele>756.0</ele><time>2026-04-08T08:27:31.269Z</time></trkpt><trkpt lat="45.8494753" lon="14.0458988"><ele>758.5</ele><time>2026-04-08T08:27:32.274Z</time></trkpt><trkpt lat="45.8495292" lon="14.0457398"><ele>761.0</ele><time>2026-04-08T08:27:33.262Z</time></trkpt><trkpt lat="45.8496" lon="14.0455912"><ele>763.5</ele><time>2026-04-08T08:27:34.263Z</time></trkpt><trkpt lat="45.8496863" lon="14.0454628"><ele>766.0</ele><time>2026-04-08T08:27:35.267Z</time></trkpt><trkpt lat="45.8497777" lon="14.0453333"><ele>766.0</ele><time>2026-04-08T08:27:36.259Z</time></trkpt><trkpt lat="45.8498671" lon="14.045205"><ele>766.0</ele><time>2026-04-08T08:27:37.273Z</time></trkpt><trkpt lat="45.8499748" lon="14.0450706"><ele>766.0</ele><time>2026-04-08T08:27:38.257Z</time></trkpt><trkpt lat="45.8500771" lon="14.0449298"><ele>766.0</ele><time>2026-04-08T08:27:39.267Z</time></trkpt><trkpt lat="45.8501733" lon="14.0447911"><ele>764.1999999999999</ele><time>2026-04-08T08:27:40.26Z</time></trkpt><trkpt lat="45.8502486" lon="14.0446671"><ele>762.4</ele><time>2026-04-08T08:27:41.258Z</time></trkpt><trkpt lat="45.8503199" lon="14.0445611"><ele>760.6</ele><time>2026-04-08T08:27:42.26Z</time></trkpt><trkpt lat="45.8503874" lon="14.0444875"><ele>758.8</ele><time>2026-04-08T08:27:43.266Z</time></trkpt><trkpt lat="45.8504727" lon="14.0444265"><ele>757.0</ele><time>2026-04-08T08:27:44.257Z</time></trkpt><trkpt lat="45.8505584" lon="14.0444078"><ele>757.0</ele><time>2026-04-08T08:27:45.268Z</time></trkpt><trkpt lat="45.8506417" lon="14.0444151"><ele>757.0</ele><time>2026-04-08T08:27:46.262Z</time></trkpt><trkpt lat="45.8507278" lon="14.0444452"><ele>757.0</ele><time>2026-04-08T08:27:47.274Z</time></trkpt><trkpt lat="45.8509013" lon="14.0445988"><ele>757.0</ele><time>2026-04-08T08:27:49.263Z</time></trkpt><trkpt lat="45.8509648" lon="14.0446823"><ele>757.4285714285714</ele><time>2026-04-08T08:27:50.262Z</time></trkpt><trkpt lat="45.8510306" lon="14.044758"><ele>757.8571428571428</ele><time>2026-04-08T08:27:51.26Z</time></trkpt><trkpt lat="45.8510918" lon="14.0448129"><ele>758.2857142857142</ele><time>2026-04-08T08:27:52.26Z</time></trkpt><trkpt lat="45.8511609" lon="14.0448267"><ele>758.7142857142858</ele><time>2026-04-08T08:27:53.258Z</time></trkpt><trkpt lat="45.8512259" lon="14.0448026"><ele>759.1428571428571</ele><time>2026-04-08T08:27:54.257Z</time></trkpt><trkpt lat="45.8512816" lon="14.0447214"><ele>759.5714285714286</ele><time>2026-04-08T08:27:55.263Z</time></trkpt><trkpt lat="45.8513178" lon="14.0446298"><ele>760.0</ele><time>2026-04-08T08:27:56.262Z</time></trkpt><trkpt lat="45.851331" lon="14.0445314"><ele>760.0</ele><time>2026-04-08T08:27:57.267Z</time></trkpt><trkpt lat="45.8513233" lon="14.0444101"><ele>760.0</ele><time>2026-04-08T08:27:58.261Z</time></trkpt><trkpt lat="45.8512769" lon="14.044288"><ele>760.0</ele><time>2026-04-08T08:27:59.259Z</time></trkpt><trkpt lat="45.8511998" lon="14.0441213"><ele>760.0</ele><time>2026-04-08T08:28:00.272Z</time></trkpt><trkpt lat="45.8511296" lon="14.0439252"><ele>759.75</ele><time>2026-04-08T08:28:01.259Z</time></trkpt><trkpt lat="45.8510886" lon="14.0437632"><ele>759.5</ele><time>2026-04-08T08:28:02.262Z</time></trkpt><trkpt lat="45.8510528" lon="14.0436039"><ele>759.25</ele><time>2026-04-08T08:28:03.257Z</time></trkpt><trkpt lat="45.8510274" lon="14.0434324"><ele>759.0</ele><time>2026-04-08T08:28:04.263Z</time></trkpt><trkpt lat="45.8510081" lon="14.0432562"><ele>757.5</ele><time>2026-04-08T08:28:05.255Z</time></trkpt><trkpt lat="45.8510093" lon="14.0430776"><ele>756.0</ele><time>2026-04-08T08:28:06.259Z</time></trkpt><trkpt lat="45.8510151" lon="14.0428993"><ele>754.5</ele><time>2026-04-08T08:28:07.259Z</time></trkpt><trkpt lat="45.85103" lon="14.0427268"><ele>753.0</ele><time>2026-04-08T08:28:08.254Z</time></trkpt><trkpt lat="45.8510681" lon="14.0425729"><ele>753.8</ele><time>2026-04-08T08:28:09.252Z</time></trkpt><trkpt lat="45.8511141" lon="14.0424103"><ele>754.5999999999999</ele><time>2026-04-08T08:28:10.257Z</time></trkpt><trkpt lat="45.8511575" lon="14.0422763"><ele>755.4000000000001</ele><time>2026-04-08T08:28:11.254Z</time></trkpt><trkpt lat="45.8512116" lon="14.0421689"><ele>756.2</ele><time>2026-04-08T08:28:12.259Z</time></trkpt><trkpt lat="45.8512817" lon="14.0420596"><ele>757.0</ele><time>2026-04-08T08:28:13.255Z</time></trkpt><trkpt lat="45.851362" lon="14.0419656"><ele>757.0</ele><time>2026-04-08T08:28:14.258Z</time></trkpt><trkpt lat="45.8514537" lon="14.0418969"><ele>757.0</ele><time>2026-04-08T08:28:15.262Z</time></trkpt><trkpt lat="45.8515519" lon="14.0418458"><ele>757.0</ele><time>2026-04-08T08:28:16.26Z</time></trkpt><trkpt lat="45.8516423" lon="14.0417908"><ele>757.0</ele><time>2026-04-08T08:28:17.259Z</time></trkpt><trkpt lat="45.8517211" lon="14.0417552"><ele>757.0</ele><time>2026-04-08T08:28:18.258Z</time></trkpt><trkpt lat="45.8517807" lon="14.0417113"><ele>753.8</ele><time>2026-04-08T08:28:19.255Z</time></trkpt><trkpt lat="45.8518583" lon="14.0415619"><ele>750.6</ele><time>2026-04-08T08:28:21.251Z</time></trkpt><trkpt lat="45.8518974" lon="14.0414525"><ele>747.4</ele><time>2026-04-08T08:28:22.248Z</time></trkpt><trkpt lat="45.851933" lon="14.0413143"><ele>744.1999999999999</ele><time>2026-04-08T08:28:23.251Z</time></trkpt><trkpt lat="45.8519697" lon="14.041167"><ele>741.0</ele><time>2026-04-08T08:28:24.247Z</time></trkpt><trkpt lat="45.8520081" lon="14.040994"><ele>741.0</ele><time>2026-04-08T08:28:25.248Z</time></trkpt><trkpt lat="45.8520285" lon="14.0408076"><ele>741.0</ele><time>2026-04-08T08:28:26.252Z</time></trkpt><trkpt lat="45.852043" lon="14.0406291"><ele>741.0</ele><time>2026-04-08T08:28:27.266Z</time></trkpt><trkpt lat="45.8520513" lon="14.0404696"><ele>741.0</ele><time>2026-04-08T08:28:28.248Z</time></trkpt><trkpt lat="45.8520713" lon="14.0403182"><ele>742.5999999999999</ele><time>2026-04-08T08:28:29.257Z</time></trkpt><trkpt lat="45.8521193" lon="14.0401861"><ele>744.2</ele><time>2026-04-08T08:28:30.254Z</time></trkpt><trkpt lat="45.8521913" lon="14.0400917"><ele>745.8</ele><time>2026-04-08T08:28:31.246Z</time></trkpt><trkpt lat="45.8522782" lon="14.040038"><ele>747.4000000000001</ele><time>2026-04-08T08:28:32.252Z</time></trkpt><trkpt lat="45.8523718" lon="14.0400224"><ele>749.0</ele><time>2026-04-08T08:28:33.247Z</time></trkpt><trkpt lat="45.8524665" lon="14.0400613"><ele>749.0</ele><time>2026-04-08T08:28:34.238Z</time></trkpt><trkpt lat="45.8525488" lon="14.0401017"><ele>749.0</ele><time>2026-04-08T08:28:35.249Z</time></trkpt><trkpt lat="45.8526338" lon="14.0401216"><ele>749.0</ele><time>2026-04-08T08:28:36.244Z</time></trkpt><trkpt lat="45.8527094" lon="14.0401176"><ele>749.0</ele><time>2026-04-08T08:28:37.245Z</time></trkpt><trkpt lat="45.8527786" lon="14.0400734"><ele>749.0</ele><time>2026-04-08T08:28:38.237Z</time></trkpt><trkpt lat="45.8528529" lon="14.0400166"><ele>749.0</ele><time>2026-04-08T08:28:39.246Z</time></trkpt><trkpt lat="45.8529239" lon="14.0399489"><ele>749.3333333333333</ele><time>2026-04-08T08:28:40.244Z</time></trkpt><trkpt lat="45.8529819" lon="14.0398679"><ele>749.6666666666666</ele><time>2026-04-08T08:28:41.251Z</time></trkpt><trkpt lat="45.8530355" lon="14.0397859"><ele>750.0</ele><time>2026-04-08T08:28:42.25Z</time></trkpt><trkpt lat="45.8530833" lon="14.0397112"><ele>750.3333333333334</ele><time>2026-04-08T08:28:43.244Z</time></trkpt><trkpt lat="45.853111" lon="14.0395774"><ele>750.6666666666667</ele><time>2026-04-08T08:28:45.234Z</time></trkpt><trkpt lat="45.8530787" lon="14.0394317"><ele>751.0</ele><time>2026-04-08T08:28:47.272Z</time></trkpt><trkpt lat="45.8530433" lon="14.0393499"><ele>751.0</ele><time>2026-04-08T08:28:48.241Z</time></trkpt><trkpt lat="45.853012" lon="14.0392529"><ele>751.0</ele><time>2026-04-08T08:28:49.248Z</time></trkpt><trkpt lat="45.8530048" lon="14.0391314"><ele>751.0</ele><time>2026-04-08T08:28:50.236Z</time></trkpt><trkpt lat="45.8530007" lon="14.0389925"><ele>751.0</ele><time>2026-04-08T08:28:51.242Z</time></trkpt><trkpt lat="45.8530037" lon="14.0388525"><ele>751.0</ele><time>2026-04-08T08:28:52.245Z</time></trkpt><trkpt lat="45.853008" lon="14.0387063"><ele>752.0</ele><time>2026-04-08T08:28:53.24Z</time></trkpt><trkpt lat="45.853028" lon="14.0385817"><ele>753.0</ele><time>2026-04-08T08:28:54.238Z</time></trkpt><trkpt lat="45.8530702" lon="14.038476"><ele>754.0</ele><time>2026-04-08T08:28:55.244Z</time></trkpt><trkpt lat="45.8531361" lon="14.0383978"><ele>755.0</ele><time>2026-04-08T08:28:56.237Z</time></trkpt><trkpt lat="45.8532055" lon="14.0383605"><ele>756.0</ele><time>2026-04-08T08:28:57.239Z</time></trkpt><trkpt lat="45.8532917" lon="14.0383416"><ele>757.0</ele><time>2026-04-08T08:28:58.239Z</time></trkpt><trkpt lat="45.8533904" lon="14.0383086"><ele>757.0</ele><time>2026-04-08T08:28:59.235Z</time></trkpt><trkpt lat="45.8535031" lon="14.0382651"><ele>757.0</ele><time>2026-04-08T08:29:00.246Z</time></trkpt><trkpt lat="45.8536241" lon="14.0382109"><ele>757.0</ele><time>2026-04-08T08:29:01.249Z</time></trkpt><trkpt lat="45.8537304" lon="14.0381597"><ele>757.0</ele><time>2026-04-08T08:29:02.23Z</time></trkpt><trkpt lat="45.8538197" lon="14.0381165"><ele>757.0</ele><time>2026-04-08T08:29:03.243Z</time></trkpt><trkpt lat="45.8539018" lon="14.0380673"><ele>757.0</ele><time>2026-04-08T08:29:04.237Z</time></trkpt><trkpt lat="45.853976" lon="14.0379883"><ele>757.0</ele><time>2026-04-08T08:29:05.236Z</time></trkpt><trkpt lat="45.854024" lon="14.0378629"><ele>757.0</ele><time>2026-04-08T08:29:06.233Z</time></trkpt><trkpt lat="45.8540065" lon="14.0374402"><ele>757.25</ele><time>2026-04-08T08:29:09.236Z</time></trkpt><trkpt lat="45.8539631" lon="14.0372638"><ele>757.5</ele><time>2026-04-08T08:29:10.232Z</time></trkpt><trkpt lat="45.853915" lon="14.0370911"><ele>757.75</ele><time>2026-04-08T08:29:11.239Z</time></trkpt><trkpt lat="45.8538656" lon="14.0369237"><ele>758.0</ele><time>2026-04-08T08:29:12.238Z</time></trkpt><trkpt lat="45.8538123" lon="14.0367697"><ele>756.8</ele><time>2026-04-08T08:29:13.235Z</time></trkpt><trkpt lat="45.8537636" lon="14.0366208"><ele>755.5999999999999</ele><time>2026-04-08T08:29:14.238Z</time></trkpt><trkpt lat="45.8537388" lon="14.0364925"><ele>754.4000000000001</ele><time>2026-04-08T08:29:15.249Z</time></trkpt><trkpt lat="45.8537317" lon="14.0363667"><ele>753.2</ele><time>2026-04-08T08:29:16.252Z</time></trkpt><trkpt lat="45.8537471" lon="14.036244"><ele>752.0</ele><time>2026-04-08T08:29:17.234Z</time></trkpt><trkpt lat="45.8537881" lon="14.0361104"><ele>752.0</ele><time>2026-04-08T08:29:18.231Z</time></trkpt><trkpt lat="45.8538451" lon="14.0359803"><ele>752.0</ele><time>2026-04-08T08:29:19.228Z</time></trkpt><trkpt lat="45.8538952" lon="14.0358673"><ele>752.0</ele><time>2026-04-08T08:29:20.239Z</time></trkpt><trkpt lat="45.8539433" lon="14.0357805"><ele>752.0</ele><time>2026-04-08T08:29:21.23Z</time></trkpt><trkpt lat="45.8540075" lon="14.0357107"><ele>752.0</ele><time>2026-04-08T08:29:22.24Z</time></trkpt><trkpt lat="45.8541074" lon="14.0356783"><ele>752.0</ele><time>2026-04-08T08:29:23.23Z</time></trkpt><trkpt lat="45.8542218" lon="14.0356766"><ele>752.0</ele><time>2026-04-08T08:29:24.242Z</time></trkpt><trkpt lat="45.8543287" lon="14.035673"><ele>752.0</ele><time>2026-04-08T08:29:25.238Z</time></trkpt><trkpt lat="45.8544319" lon="14.0356631"><ele>752.0</ele><time>2026-04-08T08:29:26.242Z</time></trkpt><trkpt lat="45.85453" lon="14.0356407"><ele>752.0</ele><time>2026-04-08T08:29:27.229Z</time></trkpt><trkpt lat="45.8546261" lon="14.0355984"><ele>751.3333333333333</ele><time>2026-04-08T08:29:28.23Z</time></trkpt><trkpt lat="45.8547099" lon="14.0355394"><ele>750.6666666666666</ele><time>2026-04-08T08:29:29.236Z</time></trkpt><trkpt lat="45.8547865" lon="14.0354527"><ele>750.0</ele><time>2026-04-08T08:29:30.224Z</time></trkpt><trkpt lat="45.8548309" lon="14.0353471"><ele>749.3333333333334</ele><time>2026-04-08T08:29:31.237Z</time></trkpt><trkpt lat="45.8548522" lon="14.0352441"><ele>748.6666666666667</ele><time>2026-04-08T08:29:32.242Z</time></trkpt><trkpt lat="45.854866" lon="14.0351259"><ele>748.0</ele><time>2026-04-08T08:29:33.225Z</time></trkpt><trkpt lat="45.8548685" lon="14.0349711"><ele>748.0</ele><time>2026-04-08T08:29:34.234Z</time></trkpt><trkpt lat="45.8548725" lon="14.0347795"><ele>748.0</ele><time>2026-04-08T08:29:35.225Z</time></trkpt><trkpt lat="45.8548801" lon="14.0345869"><ele>748.0</ele><time>2026-04-08T08:29:36.228Z</time></trkpt><trkpt lat="45.854904" lon="14.0343877"><ele>748.0</ele><time>2026-04-08T08:29:37.23Z</time></trkpt><trkpt lat="45.8549378" lon="14.0341668"><ele>748.75</ele><time>2026-04-08T08:29:38.23Z</time></trkpt><trkpt lat="45.854968" lon="14.0339594"><ele>749.5</ele><time>2026-04-08T08:29:39.233Z</time></trkpt><trkpt lat="45.8549942" lon="14.0337717"><ele>750.25</ele><time>2026-04-08T08:29:40.242Z</time></trkpt><trkpt lat="45.855025" lon="14.0335974"><ele>751.0</ele><time>2026-04-08T08:29:41.234Z</time></trkpt><trkpt lat="45.855059" lon="14.0334555"><ele>751.0</ele><time>2026-04-08T08:29:42.238Z</time></trkpt><trkpt lat="45.8550725" lon="14.0333243"><ele>751.0</ele><time>2026-04-08T08:29:43.223Z</time></trkpt><trkpt lat="45.8550684" lon="14.0330983"><ele>751.0</ele><time>2026-04-08T08:29:45.224Z</time></trkpt><trkpt lat="45.8550366" lon="14.0329904"><ele>751.0</ele><time>2026-04-08T08:29:46.23Z</time></trkpt><trkpt lat="45.8550016" lon="14.0328806"><ele>751.0</ele><time>2026-04-08T08:29:47.226Z</time></trkpt><trkpt lat="45.8549508" lon="14.0327903"><ele>750.1999999999999</ele><time>2026-04-08T08:29:48.237Z</time></trkpt><trkpt lat="45.8548781" lon="14.0327218"><ele>749.4</ele><time>2026-04-08T08:29:49.224Z</time></trkpt><trkpt lat="45.8547869" lon="14.0326366"><ele>748.6</ele><time>2026-04-08T08:29:50.235Z</time></trkpt><trkpt lat="45.854683" lon="14.032549"><ele>747.8</ele><time>2026-04-08T08:29:51.232Z</time></trkpt><trkpt lat="45.8545795" lon="14.0324676"><ele>747.0</ele><time>2026-04-08T08:29:52.236Z</time></trkpt><trkpt lat="45.8544754" lon="14.0323783"><ele>745.25</ele><time>2026-04-08T08:29:53.228Z</time></trkpt><trkpt lat="45.854383" lon="14.0322788"><ele>743.5</ele><time>2026-04-08T08:29:54.229Z</time></trkpt><trkpt lat="45.854309" lon="14.0321407"><ele>741.75</ele><time>2026-04-08T08:29:55.223Z</time></trkpt><trkpt lat="45.854275" lon="14.0319676"><ele>740.0</ele><time>2026-04-08T08:29:56.236Z</time></trkpt><trkpt lat="45.8542575" lon="14.0317771"><ele>741.25</ele><time>2026-04-08T08:29:57.224Z</time></trkpt><trkpt lat="45.8542245" lon="14.0314316"><ele>742.5</ele><time>2026-04-08T08:29:59.232Z</time></trkpt><trkpt lat="45.8542343" lon="14.0313131"><ele>743.75</ele><time>2026-04-08T08:30:00.236Z</time></trkpt><trkpt lat="45.8542738" lon="14.0311874"><ele>745.0</ele><time>2026-04-08T08:30:01.232Z</time></trkpt><trkpt lat="45.8543268" lon="14.0310729"><ele>745.0</ele><time>2026-04-08T08:30:02.23Z</time></trkpt><trkpt lat="45.8543893" lon="14.0309856"><ele>745.0</ele><time>2026-04-08T08:30:03.216Z</time></trkpt><trkpt lat="45.854465" lon="14.0309064"><ele>745.0</ele><time>2026-04-08T08:30:04.227Z</time></trkpt><trkpt lat="45.8545694" lon="14.0308569"><ele>745.0</ele><time>2026-04-08T08:30:05.226Z</time></trkpt><trkpt lat="45.8546833" lon="14.0308371"><ele>745.0</ele><time>2026-04-08T08:30:06.226Z</time></trkpt><trkpt lat="45.8548139" lon="14.0308155"><ele>746.0</ele><time>2026-04-08T08:30:07.224Z</time></trkpt><trkpt lat="45.8549398" lon="14.0307794"><ele>747.0</ele><time>2026-04-08T08:30:08.242Z</time></trkpt><trkpt lat="45.8550676" lon="14.0307585"><ele>748.0</ele><time>2026-04-08T08:30:09.217Z</time></trkpt><trkpt lat="45.8551815" lon="14.0307483"><ele>749.0</ele><time>2026-04-08T08:30:10.224Z</time></trkpt><trkpt lat="45.8552826" lon="14.0307286"><ele>749.0</ele><time>2026-04-08T08:30:11.223Z</time></trkpt><trkpt lat="45.8553758" lon="14.0306899"><ele>749.0</ele><time>2026-04-08T08:30:12.221Z</time></trkpt><trkpt lat="45.8554648" lon="14.0306279"><ele>749.0</ele><time>2026-04-08T08:30:13.227Z</time></trkpt><trkpt lat="45.8555233" lon="14.0305549"><ele>749.0</ele><time>2026-04-08T08:30:14.221Z</time></trkpt><trkpt lat="45.8555505" lon="14.0304574"><ele>749.0</ele><time>2026-04-08T08:30:15.222Z</time></trkpt><trkpt lat="45.8555557" lon="14.0303263"><ele>749.0</ele><time>2026-04-08T08:30:16.228Z</time></trkpt><trkpt lat="45.8555592" lon="14.0301781"><ele>749.0</ele><time>2026-04-08T08:30:17.233Z</time></trkpt><trkpt lat="45.8555628" lon="14.0299788"><ele>749.0</ele><time>2026-04-08T08:30:18.225Z</time></trkpt><trkpt lat="45.8555889" lon="14.0298102"><ele>749.0</ele><time>2026-04-08T08:30:19.221Z</time></trkpt><trkpt lat="45.8556472" lon="14.0296915"><ele>749.0</ele><time>2026-04-08T08:30:20.215Z</time></trkpt><trkpt lat="45.8557197" lon="14.029579"><ele>750.6</ele><time>2026-04-08T08:30:21.221Z</time></trkpt><trkpt lat="45.8557858" lon="14.0294859"><ele>752.2</ele><time>2026-04-08T08:30:22.213Z</time></trkpt><trkpt lat="45.855882" lon="14.0294418"><ele>753.8000000000001</ele><time>2026-04-08T08:30:23.215Z</time></trkpt><trkpt lat="45.8559997" lon="14.0294277"><ele>755.4000000000001</ele><time>2026-04-08T08:30:24.215Z</time></trkpt><trkpt lat="45.8561128" lon="14.0294114"><ele>757.0</ele><time>2026-04-08T08:30:25.231Z</time></trkpt><trkpt lat="45.8562276" lon="14.0294117"><ele>757.0</ele><time>2026-04-08T08:30:26.219Z</time></trkpt><trkpt lat="45.8563164" lon="14.029415"><ele>757.0</ele><time>2026-04-08T08:30:27.214Z</time></trkpt><trkpt lat="45.8563824" lon="14.0294059"><ele>757.0</ele><time>2026-04-08T08:30:28.226Z</time></trkpt><trkpt lat="45.8564464" lon="14.0293691"><ele>757.0</ele><time>2026-04-08T08:30:29.21Z</time></trkpt><trkpt lat="45.8565043" lon="14.0293071"><ele>757.0</ele><time>2026-04-08T08:30:30.211Z</time></trkpt><trkpt lat="45.8565215" lon="14.0292145"><ele>757.0</ele><time>2026-04-08T08:30:31.22Z</time></trkpt><trkpt lat="45.8565148" lon="14.0290951"><ele>757.0</ele><time>2026-04-08T08:30:32.224Z</time></trkpt><trkpt lat="45.8565061" lon="14.0289523"><ele>758.5</ele><time>2026-04-08T08:30:33.228Z</time></trkpt><trkpt lat="45.8564969" lon="14.0287747"><ele>760.0</ele><time>2026-04-08T08:30:34.218Z</time></trkpt><trkpt lat="45.8565067" lon="14.0285887"><ele>761.5</ele><time>2026-04-08T08:30:35.218Z</time></trkpt><trkpt lat="45.8565517" lon="14.0283957"><ele>763.0</ele><time>2026-04-08T08:30:36.213Z</time></trkpt><trkpt lat="45.8566072" lon="14.0282277"><ele>765.0</ele><time>2026-04-08T08:30:37.221Z</time></trkpt><trkpt lat="45.8566687" lon="14.0280504"><ele>767.0</ele><time>2026-04-08T08:30:38.22Z</time></trkpt><trkpt lat="45.8567459" lon="14.0278527"><ele>769.0</ele><time>2026-04-08T08:30:39.211Z</time></trkpt><trkpt lat="45.8568329" lon="14.0276567"><ele>769.25</ele><time>2026-04-08T08:30:40.216Z</time></trkpt><trkpt lat="45.8569204" lon="14.0274635"><ele>769.5</ele><time>2026-04-08T08:30:41.219Z</time></trkpt><trkpt lat="45.8569975" lon="14.0273069"><ele>769.75</ele><time>2026-04-08T08:30:42.209Z</time></trkpt><trkpt lat="45.8570802" lon="14.0271677"><ele>770.0</ele><time>2026-04-08T08:30:43.222Z</time></trkpt><trkpt lat="45.857177" lon="14.0270449"><ele>770.0</ele><time>2026-04-08T08:30:44.217Z</time></trkpt><trkpt lat="45.8572952" lon="14.0269414"><ele>770.0</ele><time>2026-04-08T08:30:45.21Z</time></trkpt><trkpt lat="45.8574267" lon="14.0268544"><ele>770.0</ele><time>2026-04-08T08:30:46.214Z</time></trkpt><trkpt lat="45.8575541" lon="14.0267731"><ele>770.0</ele><time>2026-04-08T08:30:47.204Z</time></trkpt><trkpt lat="45.8576694" lon="14.0266965"><ele>772.3333333333334</ele><time>2026-04-08T08:30:48.222Z</time></trkpt><trkpt lat="45.8577815" lon="14.0265977"><ele>774.6666666666667</ele><time>2026-04-08T08:30:49.219Z</time></trkpt><trkpt lat="45.857902" lon="14.026469"><ele>777.0</ele><time>2026-04-08T08:30:50.223Z</time></trkpt><trkpt lat="45.858033" lon="14.0263121"><ele>777.0</ele><time>2026-04-08T08:30:51.207Z</time></trkpt><trkpt lat="45.8581771" lon="14.0261679"><ele>777.0</ele><time>2026-04-08T08:30:52.21Z</time></trkpt><trkpt lat="45.8583224" lon="14.0260245"><ele>777.0</ele><time>2026-04-08T08:30:53.211Z</time></trkpt><trkpt lat="45.8584513" lon="14.025886"><ele>776.75</ele><time>2026-04-08T08:30:54.212Z</time></trkpt><trkpt lat="45.8585793" lon="14.0257557"><ele>776.5</ele><time>2026-04-08T08:30:55.208Z</time></trkpt><trkpt lat="45.8587015" lon="14.0256295"><ele>776.25</ele><time>2026-04-08T08:30:56.215Z</time></trkpt><trkpt lat="45.8588033" lon="14.0255307"><ele>776.0</ele><time>2026-04-08T08:30:57.21Z</time></trkpt><trkpt lat="45.8588879" lon="14.0254516"><ele>776.0</ele><time>2026-04-08T08:30:58.221Z</time></trkpt><trkpt lat="45.8589635" lon="14.0253917"><ele>776.0</ele><time>2026-04-08T08:30:59.218Z</time></trkpt><trkpt lat="45.8590336" lon="14.0253176"><ele>776.0</ele><time>2026-04-08T08:31:00.212Z</time></trkpt><trkpt lat="45.8591073" lon="14.025218"><ele>776.0</ele><time>2026-04-08T08:31:01.211Z</time></trkpt><trkpt lat="45.8591583" lon="14.0250875"><ele>776.0</ele><time>2026-04-08T08:31:02.211Z</time></trkpt><trkpt lat="45.8592043" lon="14.0249398"><ele>776.25</ele><time>2026-04-08T08:31:03.204Z</time></trkpt><trkpt lat="45.8592176" lon="14.0247781"><ele>776.5</ele><time>2026-04-08T08:31:04.21Z</time></trkpt><trkpt lat="45.8592133" lon="14.024626"><ele>776.75</ele><time>2026-04-08T08:31:05.223Z</time></trkpt><trkpt lat="45.8591947" lon="14.0244653"><ele>777.0</ele><time>2026-04-08T08:31:06.208Z</time></trkpt><trkpt lat="45.8591592" lon="14.024277"><ele>775.75</ele><time>2026-04-08T08:31:07.209Z</time></trkpt><trkpt lat="45.8591185" lon="14.024081"><ele>774.5</ele><time>2026-04-08T08:31:08.212Z</time></trkpt><trkpt lat="45.8590731" lon="14.0238844"><ele>773.25</ele><time>2026-04-08T08:31:09.304Z</time></trkpt><trkpt lat="45.8590248" lon="14.0236888"><ele>772.0</ele><time>2026-04-08T08:31:10.208Z</time></trkpt><trkpt lat="45.8589645" lon="14.0235085"><ele>772.0</ele><time>2026-04-08T08:31:11.203Z</time></trkpt><trkpt lat="45.8588904" lon="14.0233368"><ele>772.0</ele><time>2026-04-08T08:31:12.215Z</time></trkpt><trkpt lat="45.8588201" lon="14.02317"><ele>772.0</ele><time>2026-04-08T08:31:13.314Z</time></trkpt><trkpt lat="45.8587533" lon="14.0230121"><ele>772.0</ele><time>2026-04-08T08:31:14.314Z</time></trkpt><trkpt lat="45.8586923" lon="14.0228344"><ele>771.6666666666666</ele><time>2026-04-08T08:31:15.298Z</time></trkpt><trkpt lat="45.8586421" lon="14.0226451"><ele>771.3333333333333</ele><time>2026-04-08T08:31:16.314Z</time></trkpt><trkpt lat="45.8585932" lon="14.0224363"><ele>771.0</ele><time>2026-04-08T08:31:17.216Z</time></trkpt><trkpt lat="45.8585398" lon="14.0222223"><ele>771.0</ele><time>2026-04-08T08:31:18.302Z</time></trkpt><trkpt lat="45.8584884" lon="14.021994"><ele>771.0</ele><time>2026-04-08T08:31:19.301Z</time></trkpt><trkpt lat="45.8584361" lon="14.021782"><ele>771.0</ele><time>2026-04-08T08:31:20.309Z</time></trkpt><trkpt lat="45.8583965" lon="14.0215926"><ele>774.0</ele><time>2026-04-08T08:31:21.304Z</time></trkpt><trkpt lat="45.8583716" lon="14.0214251"><ele>777.0</ele><time>2026-04-08T08:31:22.313Z</time></trkpt><trkpt lat="45.8583635" lon="14.0212472"><ele>780.0</ele><time>2026-04-08T08:31:23.306Z</time></trkpt><trkpt lat="45.8583796" lon="14.021062"><ele>783.0</ele><time>2026-04-08T08:31:24.304Z</time></trkpt><trkpt lat="45.8584257" lon="14.0209092"><ele>782.0</ele><time>2026-04-08T08:31:25.301Z</time></trkpt><trkpt lat="45.8584998" lon="14.0207728"><ele>781.0</ele><time>2026-04-08T08:31:26.302Z</time></trkpt><trkpt lat="45.8585807" lon="14.0206317"><ele>780.0</ele><time>2026-04-08T08:31:27.3Z</time></trkpt><trkpt lat="45.8586636" lon="14.020493"><ele>779.0</ele><time>2026-04-08T08:31:28.31Z</time></trkpt><trkpt lat="45.8587474" lon="14.0203524"><ele>779.0</ele><time>2026-04-08T08:31:29.298Z</time></trkpt><trkpt lat="45.8588197" lon="14.0202061"><ele>779.0</ele><time>2026-04-08T08:31:30.291Z</time></trkpt><trkpt lat="45.8588977" lon="14.0200587"><ele>779.0</ele><time>2026-04-08T08:31:31.302Z</time></trkpt><trkpt lat="45.8589535" lon="14.0199255"><ele>779.0</ele><time>2026-04-08T08:31:32.303Z</time></trkpt><trkpt lat="45.8589883" lon="14.0198077"><ele>780.2</ele><time>2026-04-08T08:31:33.299Z</time></trkpt><trkpt lat="45.8589818" lon="14.0196895"><ele>781.4000000000001</ele><time>2026-04-08T08:31:34.302Z</time></trkpt><trkpt lat="45.8589316" lon="14.0195655"><ele>782.6</ele><time>2026-04-08T08:31:35.308Z</time></trkpt><trkpt lat="45.8588623" lon="14.0194338"><ele>783.8</ele><time>2026-04-08T08:31:36.291Z</time></trkpt><trkpt lat="45.8587713" lon="14.0193236"><ele>785.0</ele><time>2026-04-08T08:31:37.324Z</time></trkpt><trkpt lat="45.8586653" lon="14.0192211"><ele>787.5</ele><time>2026-04-08T08:31:38.294Z</time></trkpt><trkpt lat="45.8585555" lon="14.0191079"><ele>790.0</ele><time>2026-04-08T08:31:39.302Z</time></trkpt><trkpt lat="45.8584584" lon="14.0189711"><ele>792.5</ele><time>2026-04-08T08:31:40.306Z</time></trkpt><trkpt lat="45.8583761" lon="14.01883"><ele>795.0</ele><time>2026-04-08T08:31:41.326Z</time></trkpt><trkpt lat="45.8583365" lon="14.0186765"><ele>797.0</ele><time>2026-04-08T08:31:42.298Z</time></trkpt><trkpt lat="45.8583203" lon="14.018524"><ele>799.0</ele><time>2026-04-08T08:31:43.29Z</time></trkpt><trkpt lat="45.8583257" lon="14.0183529"><ele>801.0</ele><time>2026-04-08T08:31:44.311Z</time></trkpt><trkpt lat="45.8583544" lon="14.0181758"><ele>803.0</ele><time>2026-04-08T08:31:45.303Z</time></trkpt><trkpt lat="45.8583974" lon="14.0179847"><ele>802.6666666666667</ele><time>2026-04-08T08:31:46.3Z</time></trkpt><trkpt lat="45.8584411" lon="14.0177722"><ele>802.3333333333333</ele><time>2026-04-08T08:31:47.296Z</time></trkpt><trkpt lat="45.8584925" lon="14.0175251"><ele>802.0</ele><time>2026-04-08T08:31:48.293Z</time></trkpt><trkpt lat="45.8585371" lon="14.0173058"><ele>802.25</ele><time>2026-04-08T08:31:49.306Z</time></trkpt><trkpt lat="45.858581" lon="14.0170993"><ele>802.5</ele><time>2026-04-08T08:31:50.286Z</time></trkpt><trkpt lat="45.8586089" lon="14.0169268"><ele>802.75</ele><time>2026-04-08T08:31:51.301Z</time></trkpt><trkpt lat="45.8586263" lon="14.0167767"><ele>803.0</ele><time>2026-04-08T08:31:52.29Z</time></trkpt><trkpt lat="45.8586209" lon="14.0166226"><ele>803.0</ele><time>2026-04-08T08:31:53.297Z</time></trkpt><trkpt lat="45.8585956" lon="14.0164573"><ele>803.0</ele><time>2026-04-08T08:31:54.309Z</time></trkpt><trkpt lat="45.858488" lon="14.0160984"><ele>803.0</ele><time>2026-04-08T08:31:56.295Z</time></trkpt><trkpt lat="45.8584161" lon="14.0158912"><ele>805.3333333333334</ele><time>2026-04-08T08:31:57.306Z</time></trkpt><trkpt lat="45.858348" lon="14.0156522"><ele>807.6666666666667</ele><time>2026-04-08T08:31:58.292Z</time></trkpt><trkpt lat="45.8582912" lon="14.015419"><ele>810.0</ele><time>2026-04-08T08:31:59.285Z</time></trkpt><trkpt lat="45.8582405" lon="14.0152098"><ele>810.0</ele><time>2026-04-08T08:32:00.296Z</time></trkpt><trkpt lat="45.8581881" lon="14.0150164"><ele>810.0</ele><time>2026-04-08T08:32:01.304Z</time></trkpt><trkpt lat="45.858133" lon="14.0148408"><ele>810.0</ele><time>2026-04-08T08:32:02.288Z</time></trkpt><trkpt lat="45.8580561" lon="14.0146832"><ele>810.0</ele><time>2026-04-08T08:32:03.3Z</time></trkpt><trkpt lat="45.8579481" lon="14.0145219"><ele>811.0</ele><time>2026-04-08T08:32:04.289Z</time></trkpt><trkpt lat="45.8578421" lon="14.0143687"><ele>812.0</ele><time>2026-04-08T08:32:05.294Z</time></trkpt><trkpt lat="45.8577448" lon="14.0142663"><ele>813.0</ele><time>2026-04-08T08:32:06.281Z</time></trkpt><trkpt lat="45.8576655" lon="14.0142031"><ele>814.0</ele><time>2026-04-08T08:32:07.301Z</time></trkpt><trkpt lat="45.8575825" lon="14.0141168"><ele>814.0</ele><time>2026-04-08T08:32:08.283Z</time></trkpt><trkpt lat="45.8575078" lon="14.0140404"><ele>814.0</ele><time>2026-04-08T08:32:09.293Z</time></trkpt><trkpt lat="45.857443" lon="14.0139435"><ele>814.0</ele><time>2026-04-08T08:32:10.305Z</time></trkpt><trkpt lat="45.8573729" lon="14.0138307"><ele>814.0</ele><time>2026-04-08T08:32:11.286Z</time></trkpt><trkpt lat="45.8573085" lon="14.0137125"><ele>814.0</ele><time>2026-04-08T08:32:12.287Z</time></trkpt><trkpt lat="45.8572464" lon="14.0135835"><ele>814.0</ele><time>2026-04-08T08:32:13.287Z</time></trkpt><trkpt lat="45.857172" lon="14.0134671"><ele>814.0</ele><time>2026-04-08T08:32:14.292Z</time></trkpt><trkpt lat="45.8570898" lon="14.013365"><ele>814.0</ele><time>2026-04-08T08:32:15.293Z</time></trkpt><trkpt lat="45.8569932" lon="14.0132715"><ele>814.0</ele><time>2026-04-08T08:32:16.294Z</time></trkpt><trkpt lat="45.8568746" lon="14.0131945"><ele>816.2</ele><time>2026-04-08T08:32:17.286Z</time></trkpt><trkpt lat="45.8567564" lon="14.0131227"><ele>818.4000000000001</ele><time>2026-04-08T08:32:18.289Z</time></trkpt><trkpt lat="45.8566606" lon="14.0130344"><ele>820.6</ele><time>2026-04-08T08:32:19.293Z</time></trkpt><trkpt lat="45.8566018" lon="14.0129071"><ele>822.8</ele><time>2026-04-08T08:32:20.294Z</time></trkpt><trkpt lat="45.8565468" lon="14.0128048"><ele>825.0</ele><time>2026-04-08T08:32:21.311Z</time></trkpt><trkpt lat="45.8564847" lon="14.0127102"><ele>825.0</ele><time>2026-04-08T08:32:22.284Z</time></trkpt><trkpt lat="45.8564144" lon="14.012606"><ele>825.0</ele><time>2026-04-08T08:32:23.292Z</time></trkpt><trkpt lat="45.8563348" lon="14.0125239"><ele>825.0</ele><time>2026-04-08T08:32:24.293Z</time></trkpt><trkpt lat="45.8562498" lon="14.0124516"><ele>825.0</ele><time>2026-04-08T08:32:25.286Z</time></trkpt><trkpt lat="45.8561431" lon="14.0124032"><ele>825.0</ele><time>2026-04-08T08:32:26.304Z</time></trkpt><trkpt lat="45.8560435" lon="14.0123515"><ele>825.5</ele><time>2026-04-08T08:32:27.291Z</time></trkpt><trkpt lat="45.8559458" lon="14.0123056"><ele>826.0</ele><time>2026-04-08T08:32:28.293Z</time></trkpt><trkpt lat="45.855819" lon="14.0122249"><ele>826.5</ele><time>2026-04-08T08:32:29.279Z</time></trkpt><trkpt lat="45.8556969" lon="14.0121348"><ele>827.0</ele><time>2026-04-08T08:32:30.29Z</time></trkpt><trkpt lat="45.8556103" lon="14.0120456"><ele>827.0</ele><time>2026-04-08T08:32:31.278Z</time></trkpt><trkpt lat="45.8555126" lon="14.0119647"><ele>827.0</ele><time>2026-04-08T08:32:32.277Z</time></trkpt><trkpt lat="45.8554127" lon="14.0119071"><ele>827.0</ele><time>2026-04-08T08:32:33.287Z</time></trkpt><trkpt lat="45.8553122" lon="14.0118726"><ele>827.0</ele><time>2026-04-08T08:32:34.286Z</time></trkpt><trkpt lat="45.8552134" lon="14.0118583"><ele>827.0</ele><time>2026-04-08T08:32:35.281Z</time></trkpt><trkpt lat="45.8551037" lon="14.0118737"><ele>829.4000000000001</ele><time>2026-04-08T08:32:36.287Z</time></trkpt><trkpt lat="45.8549693" lon="14.01191"><ele>831.8000000000001</ele><time>2026-04-08T08:32:37.291Z</time></trkpt><trkpt lat="45.854853" lon="14.0119338"><ele>834.2</ele><time>2026-04-08T08:32:38.284Z</time></trkpt><trkpt lat="45.8547478" lon="14.0119187"><ele>836.6</ele><time>2026-04-08T08:32:39.286Z</time></trkpt><trkpt lat="45.8546692" lon="14.0118763"><ele>839.0</ele><time>2026-04-08T08:32:40.277Z</time></trkpt><trkpt lat="45.8546087" lon="14.0117936"><ele>839.0</ele><time>2026-04-08T08:32:41.275Z</time></trkpt><trkpt lat="45.8545461" lon="14.0117038"><ele>839.0</ele><time>2026-04-08T08:32:42.288Z</time></trkpt><trkpt lat="45.8544612" lon="14.0116024"><ele>839.0</ele><time>2026-04-08T08:32:43.285Z</time></trkpt><trkpt lat="45.8543487" lon="14.0115068"><ele>839.0</ele><time>2026-04-08T08:32:44.274Z</time></trkpt><trkpt lat="45.8542038" lon="14.0114209"><ele>838.6666666666667</ele><time>2026-04-08T08:32:45.283Z</time></trkpt><trkpt lat="45.8540558" lon="14.011303"><ele>838.3333333333333</ele><time>2026-04-08T08:32:46.278Z</time></trkpt><trkpt lat="45.8539219" lon="14.0111696"><ele>838.0</ele><time>2026-04-08T08:32:47.283Z</time></trkpt><trkpt lat="45.8537913" lon="14.0110437"><ele>838.0</ele><time>2026-04-08T08:32:48.277Z</time></trkpt><trkpt lat="45.8536611" lon="14.0109277"><ele>838.0</ele><time>2026-04-08T08:32:49.285Z</time></trkpt><trkpt lat="45.8535312" lon="14.0108624"><ele>838.0</ele><time>2026-04-08T08:32:50.274Z</time></trkpt><trkpt lat="45.8533819" lon="14.0108183"><ele>838.0</ele><time>2026-04-08T08:32:51.279Z</time></trkpt><trkpt lat="45.8530392" lon="14.0107241"><ele>836.6666666666666</ele><time>2026-04-08T08:32:53.282Z</time></trkpt><trkpt lat="45.852859" lon="14.0106759"><ele>835.3333333333333</ele><time>2026-04-08T08:32:54.288Z</time></trkpt><trkpt lat="45.8526796" lon="14.0106191"><ele>834.0</ele><time>2026-04-08T08:32:55.284Z</time></trkpt><trkpt lat="45.8525115" lon="14.0105723"><ele>837.3333333333333</ele><time>2026-04-08T08:32:56.28Z</time></trkpt><trkpt lat="45.852363" lon="14.0105242"><ele>840.6666666666666</ele><time>2026-04-08T08:32:57.292Z</time></trkpt><trkpt lat="45.8520793" lon="14.0104634"><ele>844.0</ele><time>2026-04-08T08:32:59.283Z</time></trkpt><trkpt lat="45.851923" lon="14.0104567"><ele>848.0</ele><time>2026-04-08T08:33:00.274Z</time></trkpt><trkpt lat="45.8515866" lon="14.0104958"><ele>852.0</ele><time>2026-04-08T08:33:02.275Z</time></trkpt><trkpt lat="45.8514177" lon="14.0105185"><ele>852.0</ele><time>2026-04-08T08:33:03.313Z</time></trkpt><trkpt lat="45.85126" lon="14.0105446"><ele>852.0</ele><time>2026-04-08T08:33:04.279Z</time></trkpt><trkpt lat="45.8511034" lon="14.0105921"><ele>852.0</ele><time>2026-04-08T08:33:05.312Z</time></trkpt><trkpt lat="45.8509622" lon="14.0106212"><ele>853.5</ele><time>2026-04-08T08:33:06.273Z</time></trkpt><trkpt lat="45.8508372" lon="14.0106312"><ele>855.0</ele><time>2026-04-08T08:33:07.285Z</time></trkpt><trkpt lat="45.8507051" lon="14.0105699"><ele>856.5</ele><time>2026-04-08T08:33:08.288Z</time></trkpt><trkpt lat="45.8505722" lon="14.0105154"><ele>858.0</ele><time>2026-04-08T08:33:09.271Z</time></trkpt><trkpt lat="45.8504387" lon="14.0104378"><ele>858.0</ele><time>2026-04-08T08:33:10.278Z</time></trkpt><trkpt lat="45.8502971" lon="14.0103681"><ele>858.0</ele><time>2026-04-08T08:33:11.269Z</time></trkpt><trkpt lat="45.8501516" lon="14.0103099"><ele>858.0</ele><time>2026-04-08T08:33:12.265Z</time></trkpt><trkpt lat="45.8500021" lon="14.0102605"><ele>860.0</ele><time>2026-04-08T08:33:13.27Z</time></trkpt><trkpt lat="45.8498468" lon="14.0102225"><ele>862.0</ele><time>2026-04-08T08:33:14.273Z</time></trkpt><trkpt lat="45.8496753" lon="14.0101979"><ele>864.0</ele><time>2026-04-08T08:33:15.27Z</time></trkpt><trkpt lat="45.8494944" lon="14.0101862"><ele>864.0</ele><time>2026-04-08T08:33:16.271Z</time></trkpt><trkpt lat="45.8493169" lon="14.0101688"><ele>864.0</ele><time>2026-04-08T08:33:17.287Z</time></trkpt><trkpt lat="45.8491378" lon="14.0101546"><ele>864.0</ele><time>2026-04-08T08:33:18.268Z</time></trkpt><trkpt lat="45.8489604" lon="14.0101349"><ele>865.6666666666667</ele><time>2026-04-08T08:33:19.267Z</time></trkpt><trkpt lat="45.8487863" lon="14.0101158"><ele>867.3333333333334</ele><time>2026-04-08T08:33:20.275Z</time></trkpt><trkpt lat="45.8486142" lon="14.0100997"><ele>869.0</ele><time>2026-04-08T08:33:21.264Z</time></trkpt><trkpt lat="45.8484432" lon="14.0100877"><ele>871.3333333333334</ele><time>2026-04-08T08:33:22.27Z</time></trkpt><trkpt lat="45.8482778" lon="14.0100784"><ele>873.6666666666667</ele><time>2026-04-08T08:33:23.29Z</time></trkpt><trkpt lat="45.8481204" lon="14.0100752"><ele>876.0</ele><time>2026-04-08T08:33:24.268Z</time></trkpt><trkpt lat="45.8479608" lon="14.0100745"><ele>876.0</ele><time>2026-04-08T08:33:25.265Z</time></trkpt><trkpt lat="45.8478119" lon="14.0100576"><ele>876.0</ele><time>2026-04-08T08:33:26.257Z</time></trkpt><trkpt lat="45.8476626" lon="14.0100327"><ele>876.0</ele><time>2026-04-08T08:33:27.284Z</time></trkpt><trkpt lat="45.8475159" lon="14.0100218"><ele>876.0</ele><time>2026-04-08T08:33:28.271Z</time></trkpt><trkpt lat="45.8473789" lon="14.0100295"><ele>877.75</ele><time>2026-04-08T08:33:29.267Z</time></trkpt><trkpt lat="45.8472509" lon="14.0100405"><ele>879.5</ele><time>2026-04-08T08:33:30.274Z</time></trkpt><trkpt lat="45.8471189" lon="14.0100621"><ele>881.25</ele><time>2026-04-08T08:33:31.27Z</time></trkpt><trkpt lat="45.846989" lon="14.0100847"><ele>883.0</ele><time>2026-04-08T08:33:32.262Z</time></trkpt><trkpt lat="45.8468612" lon="14.0101113"><ele>885.0</ele><time>2026-04-08T08:33:33.286Z</time></trkpt><trkpt lat="45.8467399" lon="14.0101567"><ele>887.0</ele><time>2026-04-08T08:33:34.268Z</time></trkpt><trkpt lat="45.8466176" lon="14.0102231"><ele>889.0</ele><time>2026-04-08T08:33:35.259Z</time></trkpt><trkpt lat="45.8465045" lon="14.0102957"><ele>891.0</ele><time>2026-04-08T08:33:36.263Z</time></trkpt><trkpt lat="45.8463983" lon="14.0103641"><ele>891.0</ele><time>2026-04-08T08:33:37.275Z</time></trkpt><trkpt lat="45.8463009" lon="14.0104527"><ele>891.0</ele><time>2026-04-08T08:33:38.264Z</time></trkpt><trkpt lat="45.8462122" lon="14.0105687"><ele>891.0</ele><time>2026-04-08T08:33:39.27Z</time></trkpt><trkpt lat="45.8461262" lon="14.0106991"><ele>891.0</ele><time>2026-04-08T08:33:40.257Z</time></trkpt><trkpt lat="45.8460363" lon="14.0107909"><ele>893.75</ele><time>2026-04-08T08:33:41.27Z</time></trkpt><trkpt lat="45.845938" lon="14.0108629"><ele>896.5</ele><time>2026-04-08T08:33:42.259Z</time></trkpt><trkpt lat="45.8458306" lon="14.0108942"><ele>899.25</ele><time>2026-04-08T08:33:43.265Z</time></trkpt><trkpt lat="45.8457208" lon="14.0109189"><ele>902.0</ele><time>2026-04-08T08:33:44.262Z</time></trkpt><trkpt lat="45.8455983" lon="14.010939"><ele>902.0</ele><time>2026-04-08T08:33:45.274Z</time></trkpt><trkpt lat="45.8454658" lon="14.0109719"><ele>902.0</ele><time>2026-04-08T08:33:46.263Z</time></trkpt><trkpt lat="45.8453273" lon="14.0110138"><ele>902.0</ele><time>2026-04-08T08:33:47.259Z</time></trkpt><trkpt lat="45.8451803" lon="14.0110597"><ele>902.0</ele><time>2026-04-08T08:33:48.262Z</time></trkpt><trkpt lat="45.845026" lon="14.0111119"><ele>901.0</ele><time>2026-04-08T08:33:49.27Z</time></trkpt><trkpt lat="45.8448798" lon="14.011165"><ele>900.0</ele><time>2026-04-08T08:33:50.274Z</time></trkpt><trkpt lat="45.8447416" lon="14.0112282"><ele>899.0</ele><time>2026-04-08T08:33:51.26Z</time></trkpt><trkpt lat="45.8445922" lon="14.0113124"><ele>899.0</ele><time>2026-04-08T08:33:52.259Z</time></trkpt><trkpt lat="45.8444443" lon="14.0113918"><ele>899.0</ele><time>2026-04-08T08:33:53.261Z</time></trkpt><trkpt lat="45.8442965" lon="14.0114789"><ele>899.0</ele><time>2026-04-08T08:33:54.259Z</time></trkpt><trkpt lat="45.844135" lon="14.0115806"><ele>902.6666666666667</ele><time>2026-04-08T08:33:55.258Z</time></trkpt><trkpt lat="45.8439768" lon="14.0116915"><ele>906.3333333333333</ele><time>2026-04-08T08:33:56.257Z</time></trkpt><trkpt lat="45.8438195" lon="14.0118001"><ele>910.0</ele><time>2026-04-08T08:33:57.258Z</time></trkpt><trkpt lat="45.843671" lon="14.0119017"><ele>910.0</ele><time>2026-04-08T08:33:58.259Z</time></trkpt><trkpt lat="45.8435233" lon="14.0119968"><ele>910.0</ele><time>2026-04-08T08:33:59.258Z</time></trkpt><trkpt lat="45.8433778" lon="14.0120942"><ele>910.0</ele><time>2026-04-08T08:34:00.258Z</time></trkpt><trkpt lat="45.8432278" lon="14.0122023"><ele>906.6666666666666</ele><time>2026-04-08T08:34:01.257Z</time></trkpt><trkpt lat="45.8430842" lon="14.0123031"><ele>903.3333333333333</ele><time>2026-04-08T08:34:02.252Z</time></trkpt><trkpt lat="45.8429458" lon="14.0124089"><ele>900.0</ele><time>2026-04-08T08:34:03.253Z</time></trkpt><trkpt lat="45.842818" lon="14.0124952"><ele>904.3333333333333</ele><time>2026-04-08T08:34:04.255Z</time></trkpt><trkpt lat="45.8426867" lon="14.0126021"><ele>908.6666666666666</ele><time>2026-04-08T08:34:05.252Z</time></trkpt><trkpt lat="45.8425666" lon="14.012726"><ele>913.0</ele><time>2026-04-08T08:34:06.258Z</time></trkpt><trkpt lat="45.842434" lon="14.0128652"><ele>913.0</ele><time>2026-04-08T08:34:07.248Z</time></trkpt><trkpt lat="45.8423003" lon="14.012999"><ele>913.0</ele><time>2026-04-08T08:34:08.248Z</time></trkpt><trkpt lat="45.8421668" lon="14.0131245"><ele>913.0</ele><time>2026-04-08T08:34:09.259Z</time></trkpt><trkpt lat="45.8420381" lon="14.013256"><ele>915.0</ele><time>2026-04-08T08:34:10.253Z</time></trkpt><trkpt lat="45.8419134" lon="14.0133959"><ele>917.0</ele><time>2026-04-08T08:34:11.247Z</time></trkpt><trkpt lat="45.8417908" lon="14.0135294"><ele>919.0</ele><time>2026-04-08T08:34:12.254Z</time></trkpt><trkpt lat="45.841671" lon="14.0136579"><ele>919.0</ele><time>2026-04-08T08:34:13.265Z</time></trkpt><trkpt lat="45.8415541" lon="14.0137775"><ele>919.0</ele><time>2026-04-08T08:34:14.254Z</time></trkpt><trkpt lat="45.8414243" lon="14.0139136"><ele>919.0</ele><time>2026-04-08T08:34:15.254Z</time></trkpt><trkpt lat="45.8412982" lon="14.014046"><ele>918.6666666666666</ele><time>2026-04-08T08:34:16.255Z</time></trkpt><trkpt lat="45.841172" lon="14.0141945"><ele>918.3333333333333</ele><time>2026-04-08T08:34:17.247Z</time></trkpt><trkpt lat="45.841054" lon="14.0143616"><ele>918.0</ele><time>2026-04-08T08:34:18.262Z</time></trkpt><trkpt lat="45.8409349" lon="14.0145005"><ele>918.0</ele><time>2026-04-08T08:34:19.251Z</time></trkpt><trkpt lat="45.8408082" lon="14.0146291"><ele>918.0</ele><time>2026-04-08T08:34:20.254Z</time></trkpt><trkpt lat="45.8406857" lon="14.0147385"><ele>918.0</ele><time>2026-04-08T08:34:21.251Z</time></trkpt><trkpt lat="45.8405685" lon="14.0148485"><ele>918.0</ele><time>2026-04-08T08:34:22.258Z</time></trkpt><trkpt lat="45.8404681" lon="14.0149326"><ele>917.2</ele><time>2026-04-08T08:34:23.249Z</time></trkpt><trkpt lat="45.8403804" lon="14.0150016"><ele>916.4</ele><time>2026-04-08T08:34:24.246Z</time></trkpt><trkpt lat="45.8403005" lon="14.0150753"><ele>915.6000000000001</ele><time>2026-04-08T08:34:25.261Z</time></trkpt><trkpt lat="45.8402293" lon="14.0151484"><ele>914.8000000000001</ele><time>2026-04-08T08:34:26.256Z</time></trkpt><trkpt lat="45.8401703" lon="14.0152425"><ele>914.0</ele><time>2026-04-08T08:34:27.244Z</time></trkpt><trkpt lat="45.8401236" lon="14.015341"><ele>914.0000000000001</ele><time>2026-04-08T08:34:28.251Z</time></trkpt><trkpt lat="45.8400773" lon="14.0154173"><ele>914.0</ele><time>2026-04-08T08:34:29.251Z</time></trkpt><trkpt lat="45.8399648" lon="14.0154779"><ele>914.0</ele><time>2026-04-08T08:34:31.245Z</time></trkpt><trkpt lat="45.8398969" lon="14.0154784"><ele>914.0</ele><time>2026-04-08T08:34:32.249Z</time></trkpt><trkpt lat="45.8398233" lon="14.0154626"><ele>914.0000000000001</ele><time>2026-04-08T08:34:33.258Z</time></trkpt><trkpt lat="45.8397235" lon="14.0154246"><ele>914.0</ele><time>2026-04-08T08:34:34.248Z</time></trkpt><trkpt lat="45.8396152" lon="14.0153905"><ele>914.0</ele><time>2026-04-08T08:34:35.249Z</time></trkpt><trkpt lat="45.8395023" lon="14.0153635"><ele>914.0000000000001</ele><time>2026-04-08T08:34:36.243Z</time></trkpt><trkpt lat="45.8393972" lon="14.0153557"><ele>914.0000000000001</ele><time>2026-04-08T08:34:37.239Z</time></trkpt><trkpt lat="45.839293" lon="14.0153582"><ele>914.0</ele><time>2026-04-08T08:34:38.242Z</time></trkpt><trkpt lat="45.839198" lon="14.0153696"><ele>914.0</ele><time>2026-04-08T08:34:39.245Z</time></trkpt><trkpt lat="45.8390993" lon="14.0153727"><ele>913.0000000000001</ele><time>2026-04-08T08:34:40.24Z</time></trkpt><trkpt lat="45.8389911" lon="14.0153722"><ele>912.0</ele><time>2026-04-08T08:34:41.24Z</time></trkpt><trkpt lat="45.8388918" lon="14.0153768"><ele>911.0</ele><time>2026-04-08T08:34:42.239Z</time></trkpt><trkpt lat="45.8388175" lon="14.0153815"><ele>910.0</ele><time>2026-04-08T08:34:43.254Z</time></trkpt><trkpt lat="45.8387495" lon="14.0154004"><ele>909.0000000000001</ele><time>2026-04-08T08:34:44.233Z</time></trkpt><trkpt lat="45.8386806" lon="14.0154446"><ele>908.0</ele><time>2026-04-08T08:34:45.249Z</time></trkpt><trkpt lat="45.8386038" lon="14.0154978"><ele>908.0</ele><time>2026-04-08T08:34:46.228Z</time></trkpt><trkpt lat="45.8384986" lon="14.0155456"><ele>908.0</ele><time>2026-04-08T08:34:47.242Z</time></trkpt><trkpt lat="45.8383924" lon="14.0155903"><ele>908.0</ele><time>2026-04-08T08:34:48.233Z</time></trkpt><trkpt lat="45.8382899" lon="14.015644"><ele>908.0</ele><time>2026-04-08T08:34:49.23Z</time></trkpt><trkpt lat="45.838176" lon="14.0156974"><ele>907.5999999999999</ele><time>2026-04-08T08:34:50.24Z</time></trkpt><trkpt lat="45.8380702" lon="14.0157395"><ele>907.1999999999999</ele><time>2026-04-08T08:34:51.234Z</time></trkpt><trkpt lat="45.8379642" lon="14.015762"><ele>906.8</ele><time>2026-04-08T08:34:52.236Z</time></trkpt><trkpt lat="45.8378654" lon="14.0157676"><ele>906.4</ele><time>2026-04-08T08:34:53.231Z</time></trkpt><trkpt lat="45.8377711" lon="14.0157548"><ele>906.0</ele><time>2026-04-08T08:34:54.224Z</time></trkpt><trkpt lat="45.8376729" lon="14.0157273"><ele>905.25</ele><time>2026-04-08T08:34:55.242Z</time></trkpt><trkpt lat="45.8375606" lon="14.0157028"><ele>904.5</ele><time>2026-04-08T08:34:56.237Z</time></trkpt><trkpt lat="45.8374403" lon="14.0156786"><ele>903.75</ele><time>2026-04-08T08:34:57.23Z</time></trkpt><trkpt lat="45.8373248" lon="14.0156526"><ele>903.0</ele><time>2026-04-08T08:34:58.224Z</time></trkpt><trkpt lat="45.8372162" lon="14.015619"><ele>903.0</ele><time>2026-04-08T08:34:59.229Z</time></trkpt><trkpt lat="45.8371084" lon="14.0155767"><ele>903.0</ele><time>2026-04-08T08:35:00.234Z</time></trkpt><trkpt lat="45.8369983" lon="14.0155379"><ele>903.0</ele><time>2026-04-08T08:35:01.224Z</time></trkpt><trkpt lat="45.8368849" lon="14.0155053"><ele>903.0</ele><time>2026-04-08T08:35:02.228Z</time></trkpt><trkpt lat="45.8367832" lon="14.0154622"><ele>903.0</ele><time>2026-04-08T08:35:03.229Z</time></trkpt><trkpt lat="45.8366766" lon="14.0154194"><ele>903.2</ele><time>2026-04-08T08:35:04.223Z</time></trkpt><trkpt lat="45.8365696" lon="14.0153872"><ele>903.4</ele><time>2026-04-08T08:35:05.23Z</time></trkpt><trkpt lat="45.8364609" lon="14.0153657"><ele>903.6000000000001</ele><time>2026-04-08T08:35:06.225Z</time></trkpt><trkpt lat="45.8363548" lon="14.015336"><ele>903.8000000000001</ele><time>2026-04-08T08:35:07.22Z</time></trkpt><trkpt lat="45.8362543" lon="14.0153078"><ele>904.0</ele><time>2026-04-08T08:35:08.223Z</time></trkpt><trkpt lat="45.8361626" lon="14.0152771"><ele>904.0</ele><time>2026-04-08T08:35:09.23Z</time></trkpt><trkpt lat="45.836072" lon="14.015252"><ele>904.0000000000001</ele><time>2026-04-08T08:35:10.23Z</time></trkpt><trkpt lat="45.8359829" lon="14.0152252"><ele>904.0000000000001</ele><time>2026-04-08T08:35:11.231Z</time></trkpt><trkpt lat="45.8358913" lon="14.0151868"><ele>904.0</ele><time>2026-04-08T08:35:12.224Z</time></trkpt><trkpt lat="45.8358006" lon="14.0151514"><ele>904.0</ele><time>2026-04-08T08:35:13.219Z</time></trkpt><trkpt lat="45.8357132" lon="14.0151192"><ele>904.4999999999999</ele><time>2026-04-08T08:35:14.237Z</time></trkpt><trkpt lat="45.8356272" lon="14.0150842"><ele>905.0</ele><time>2026-04-08T08:35:15.234Z</time></trkpt><trkpt lat="45.8355381" lon="14.0150507"><ele>905.5</ele><time>2026-04-08T08:35:16.228Z</time></trkpt><trkpt lat="45.8354567" lon="14.0150157"><ele>906.0</ele><time>2026-04-08T08:35:17.22Z</time></trkpt><trkpt lat="45.835384" lon="14.0149801"><ele>906.4999999999999</ele><time>2026-04-08T08:35:18.218Z</time></trkpt><trkpt lat="45.8353092" lon="14.0149484"><ele>907.0</ele><time>2026-04-08T08:35:19.226Z</time></trkpt><trkpt lat="45.8352369" lon="14.0149147"><ele>906.4000000000001</ele><time>2026-04-08T08:35:20.214Z</time></trkpt><trkpt lat="45.835172" lon="14.0148844"><ele>905.8000000000001</ele><time>2026-04-08T08:35:21.236Z</time></trkpt><trkpt lat="45.835107" lon="14.0148533"><ele>905.2</ele><time>2026-04-08T08:35:22.218Z</time></trkpt><trkpt lat="45.8349861" lon="14.0148038"><ele>904.6</ele><time>2026-04-08T08:35:24.217Z</time></trkpt><trkpt lat="45.834878" lon="14.0147596"><ele>904.0</ele><time>2026-04-08T08:35:26.215Z</time></trkpt><trkpt lat="45.8347583" lon="14.0147511"><ele>903.9999999999999</ele><time>2026-04-08T08:35:28.22Z</time></trkpt><trkpt lat="45.834693" lon="14.0147762"><ele>904.0</ele><time>2026-04-08T08:35:29.222Z</time></trkpt><trkpt lat="45.8346245" lon="14.014801"><ele>904.0</ele><time>2026-04-08T08:35:30.22Z</time></trkpt><trkpt lat="45.8345508" lon="14.014822"><ele>904.0</ele><time>2026-04-08T08:35:31.213Z</time></trkpt><trkpt lat="45.8344635" lon="14.0148309"><ele>903.9999999999999</ele><time>2026-04-08T08:35:32.219Z</time></trkpt><trkpt lat="45.8343696" lon="14.0148229"><ele>904.0</ele><time>2026-04-08T08:35:33.213Z</time></trkpt><trkpt lat="45.8342699" lon="14.014791"><ele>903.4000000000001</ele><time>2026-04-08T08:35:34.222Z</time></trkpt><trkpt lat="45.8341665" lon="14.0147548"><ele>902.8000000000001</ele><time>2026-04-08T08:35:35.217Z</time></trkpt><trkpt lat="45.8340704" lon="14.0147176"><ele>902.1999999999999</ele><time>2026-04-08T08:35:36.209Z</time></trkpt><trkpt lat="45.8339785" lon="14.0146825"><ele>901.5999999999999</ele><time>2026-04-08T08:35:37.208Z</time></trkpt><trkpt lat="45.8338935" lon="14.014653"><ele>901.0</ele><time>2026-04-08T08:35:38.221Z</time></trkpt><trkpt lat="45.8338111" lon="14.0146191"><ele>901.0</ele><time>2026-04-08T08:35:39.223Z</time></trkpt><trkpt lat="45.8337294" lon="14.0145738"><ele>900.9999999999999</ele><time>2026-04-08T08:35:40.21Z</time></trkpt><trkpt lat="45.8336516" lon="14.0145065"><ele>900.9999999999999</ele><time>2026-04-08T08:35:41.211Z</time></trkpt><trkpt lat="45.833577" lon="14.0144325"><ele>901.0</ele><time>2026-04-08T08:35:42.235Z</time></trkpt><trkpt lat="45.8334923" lon="14.014353"><ele>901.0</ele><time>2026-04-08T08:35:43.217Z</time></trkpt><trkpt lat="45.8334066" lon="14.0142884"><ele>899.6666666666666</ele><time>2026-04-08T08:35:44.206Z</time></trkpt><trkpt lat="45.8333223" lon="14.0142272"><ele>898.3333333333333</ele><time>2026-04-08T08:35:45.216Z</time></trkpt><trkpt lat="45.8332366" lon="14.0141683"><ele>897.0</ele><time>2026-04-08T08:35:46.221Z</time></trkpt><trkpt lat="45.8331569" lon="14.0141057"><ele>895.6666666666667</ele><time>2026-04-08T08:35:47.214Z</time></trkpt><trkpt lat="45.8330842" lon="14.0140539"><ele>894.3333333333334</ele><time>2026-04-08T08:35:48.208Z</time></trkpt><trkpt lat="45.8330164" lon="14.0140055"><ele>893.0</ele><time>2026-04-08T08:35:49.209Z</time></trkpt><trkpt lat="45.8329526" lon="14.013946"><ele>892.4285714285714</ele><time>2026-04-08T08:35:50.209Z</time></trkpt><trkpt lat="45.8329071" lon="14.0138627"><ele>891.8571428571429</ele><time>2026-04-08T08:35:51.212Z</time></trkpt><trkpt lat="45.8328826" lon="14.0137715"><ele>891.2857142857142</ele><time>2026-04-08T08:35:52.207Z</time></trkpt><trkpt lat="45.8328702" lon="14.0136705"><ele>890.7142857142858</ele><time>2026-04-08T08:35:53.216Z</time></trkpt><trkpt lat="45.8328626" lon="14.0135801"><ele>890.1428571428571</ele><time>2026-04-08T08:35:54.22Z</time></trkpt><trkpt lat="45.8328802" lon="14.0134757"><ele>889.5714285714286</ele><time>2026-04-08T08:35:55.207Z</time></trkpt><trkpt lat="45.8329101" lon="14.0133637"><ele>889.0</ele><time>2026-04-08T08:35:56.201Z</time></trkpt><trkpt lat="45.8329443" lon="14.0132567"><ele>887.6666666666666</ele><time>2026-04-08T08:35:57.202Z</time></trkpt><trkpt lat="45.8329914" lon="14.0131454"><ele>886.3333333333333</ele><time>2026-04-08T08:35:58.224Z</time></trkpt><trkpt lat="45.8330314" lon="14.0130329"><ele>885.0</ele><time>2026-04-08T08:35:59.208Z</time></trkpt><trkpt lat="45.8330787" lon="14.0129291"><ele>883.6666666666667</ele><time>2026-04-08T08:36:00.207Z</time></trkpt><trkpt lat="45.8331256" lon="14.0128364"><ele>882.3333333333334</ele><time>2026-04-08T08:36:01.215Z</time></trkpt><trkpt lat="45.833172" lon="14.0127473"><ele>881.0</ele><time>2026-04-08T08:36:02.208Z</time></trkpt><trkpt lat="45.8332211" lon="14.0126687"><ele>881.0</ele><time>2026-04-08T08:36:03.209Z</time></trkpt><trkpt lat="45.8332835" lon="14.0126005"><ele>880.9999999999999</ele><time>2026-04-08T08:36:04.205Z</time></trkpt><trkpt lat="45.8333578" lon="14.0125487"><ele>880.9999999999999</ele><time>2026-04-08T08:36:05.224Z</time></trkpt><trkpt lat="45.8334437" lon="14.012517"><ele>881.0</ele><time>2026-04-08T08:36:06.206Z</time></trkpt><trkpt lat="45.8335447" lon="14.0124946"><ele>881.0</ele><time>2026-04-08T08:36:07.225Z</time></trkpt><trkpt lat="45.8336543" lon="14.0124686"><ele>878.75</ele><time>2026-04-08T08:36:08.301Z</time></trkpt><trkpt lat="45.8337766" lon="14.0124586"><ele>876.5</ele><time>2026-04-08T08:36:09.208Z</time></trkpt><trkpt lat="45.8338993" lon="14.0124518"><ele>874.25</ele><time>2026-04-08T08:36:10.213Z</time></trkpt><trkpt lat="45.8340106" lon="14.0124265"><ele>872.0</ele><time>2026-04-08T08:36:11.202Z</time></trkpt><trkpt lat="45.834115" lon="14.0123851"><ele>872.0</ele><time>2026-04-08T08:36:12.205Z</time></trkpt><trkpt lat="45.8342148" lon="14.0123309"><ele>872.0</ele><time>2026-04-08T08:36:13.209Z</time></trkpt><trkpt lat="45.8343501" lon="14.0121635"><ele>872.0</ele><time>2026-04-08T08:36:15.204Z</time></trkpt><trkpt lat="45.8343864" lon="14.0120871"><ele>872.0</ele><time>2026-04-08T08:36:16.205Z</time></trkpt><trkpt lat="45.834435" lon="14.0119951"><ele>872.0</ele><time>2026-04-08T08:36:18.211Z</time></trkpt><trkpt lat="45.8344053" lon="14.0120765"><ele>872.0</ele><time>2026-04-08T08:37:18.244Z</time></trkpt><trkpt lat="45.8342706" lon="14.0122992"><ele>872.0</ele><time>2026-04-08T08:37:19.293Z</time></trkpt><trkpt lat="45.8341695" lon="14.0123938"><ele>872.0</ele><time>2026-04-08T08:37:20.276Z</time></trkpt><trkpt lat="45.8340507" lon="14.0124525"><ele>872.0</ele><time>2026-04-08T08:37:21.276Z</time></trkpt><trkpt lat="45.8339249" lon="14.0124769"><ele>872.0</ele><time>2026-04-08T08:37:22.285Z</time></trkpt><trkpt lat="45.8337933" lon="14.0124907"><ele>872.0</ele><time>2026-04-08T08:37:23.28Z</time></trkpt><trkpt lat="45.8336567" lon="14.0125005"><ele>872.0</ele><time>2026-04-08T08:37:24.276Z</time></trkpt><trkpt lat="45.833523" lon="14.0125138"><ele>874.25</ele><time>2026-04-08T08:37:25.29Z</time></trkpt><trkpt lat="45.8334008" lon="14.0125388"><ele>876.5</ele><time>2026-04-08T08:37:26.28Z</time></trkpt><trkpt lat="45.8332927" lon="14.0125755"><ele>878.75</ele><time>2026-04-08T08:37:27.277Z</time></trkpt><trkpt lat="45.8331026" lon="14.0127066"><ele>881.0</ele><time>2026-04-08T08:37:29.279Z</time></trkpt><trkpt lat="45.83301" lon="14.0127753"><ele>881.0</ele><time>2026-04-08T08:37:30.286Z</time></trkpt><trkpt lat="45.8329146" lon="14.0128272"><ele>880.9999999999999</ele><time>2026-04-08T08:37:31.293Z</time></trkpt><trkpt lat="45.8328212" lon="14.0128431"><ele>880.9999999999999</ele><time>2026-04-08T08:37:32.289Z</time></trkpt><trkpt lat="45.832734" lon="14.0128195"><ele>881.0</ele><time>2026-04-08T08:37:33.294Z</time></trkpt><trkpt lat="45.8326458" lon="14.0127566"><ele>881.0</ele><time>2026-04-08T08:37:34.29Z</time></trkpt><trkpt lat="45.8325659" lon="14.0126776"><ele>881.5</ele><time>2026-04-08T08:37:35.288Z</time></trkpt><trkpt lat="45.832306" lon="14.012517"><ele>882.0</ele><time>2026-04-08T08:37:38.276Z</time></trkpt><trkpt lat="45.8321077" lon="14.0124889"><ele>882.0</ele><time>2026-04-08T08:37:40.294Z</time></trkpt><trkpt lat="45.832008" lon="14.0124852"><ele>882.0</ele><time>2026-04-08T08:37:41.289Z</time></trkpt><trkpt lat="45.8319135" lon="14.0124832"><ele>882.0</ele><time>2026-04-08T08:37:42.283Z</time></trkpt><trkpt lat="45.8318304" lon="14.0124885"><ele>882.0</ele><time>2026-04-08T08:37:43.289Z</time></trkpt><trkpt lat="45.8317599" lon="14.0124958"><ele>882.0</ele><time>2026-04-08T08:37:44.275Z</time></trkpt><trkpt lat="45.8316777" lon="14.01254"><ele>882.0</ele><time>2026-04-08T08:37:46.286Z</time></trkpt><trkpt lat="45.8318239" lon="14.012497"><ele>882.0</ele><time>2026-04-08T08:37:57.281Z</time></trkpt><trkpt lat="45.8319323" lon="14.0124876"><ele>882.0</ele><time>2026-04-08T08:37:58.27Z</time></trkpt><trkpt lat="45.832056" lon="14.0124928"><ele>882.0</ele><time>2026-04-08T08:37:59.288Z</time></trkpt><trkpt lat="45.8321822" lon="14.01251"><ele>882.0</ele><time>2026-04-08T08:38:00.277Z</time></trkpt><trkpt lat="45.8323017" lon="14.0125448"><ele>882.0</ele><time>2026-04-08T08:38:01.295Z</time></trkpt><trkpt lat="45.8324073" lon="14.0125857"><ele>882.0</ele><time>2026-04-08T08:38:02.273Z</time></trkpt><trkpt lat="45.8325004" lon="14.0126301"><ele>882.0</ele><time>2026-04-08T08:38:03.275Z</time></trkpt><trkpt lat="45.8325807" lon="14.0126896"><ele>882.0</ele><time>2026-04-08T08:38:04.286Z</time></trkpt><trkpt lat="45.8326509" lon="14.0127558"><ele>882.0</ele><time>2026-04-08T08:38:05.294Z</time></trkpt><trkpt lat="45.8327121" lon="14.0128152"><ele>881.8</ele><time>2026-04-08T08:38:06.265Z</time></trkpt><trkpt lat="45.8327685" lon="14.0128586"><ele>881.6</ele><time>2026-04-08T08:38:07.275Z</time></trkpt><trkpt lat="45.8328763" lon="14.0128758"><ele>881.3999999999999</ele><time>2026-04-08T08:38:09.308Z</time></trkpt><trkpt lat="45.8329911" lon="14.0128041"><ele>881.1999999999999</ele><time>2026-04-08T08:38:11.309Z</time></trkpt><trkpt lat="45.8330996" lon="14.0127187"><ele>881.0</ele><time>2026-04-08T08:38:13.295Z</time></trkpt><trkpt lat="45.8332132" lon="14.0126313"><ele>881.0000000000001</ele><time>2026-04-08T08:38:15.28Z</time></trkpt><trkpt lat="45.8332778" lon="14.0125788"><ele>881.0</ele><time>2026-04-08T08:38:16.275Z</time></trkpt><trkpt lat="45.8333547" lon="14.0125318"><ele>881.0</ele><time>2026-04-08T08:38:17.286Z</time></trkpt><trkpt lat="45.8334411" lon="14.0124976"><ele>881.0</ele><time>2026-04-08T08:38:18.281Z</time></trkpt><trkpt lat="45.8335298" lon="14.0124767"><ele>881.0000000000001</ele><time>2026-04-08T08:38:19.278Z</time></trkpt><trkpt lat="45.8336215" lon="14.012468"><ele>881.0</ele><time>2026-04-08T08:38:20.27Z</time></trkpt><trkpt lat="45.8337133" lon="14.0124601"><ele>879.1999999999999</ele><time>2026-04-08T08:38:21.264Z</time></trkpt><trkpt lat="45.8338096" lon="14.0124539"><ele>877.3999999999999</ele><time>2026-04-08T08:38:22.263Z</time></trkpt><trkpt lat="45.8339121" lon="14.0124548"><ele>875.6</ele><time>2026-04-08T08:38:23.281Z</time></trkpt><trkpt lat="45.8340229" lon="14.0124466"><ele>873.8</ele><time>2026-04-08T08:38:24.268Z</time></trkpt><trkpt lat="45.8341365" lon="14.0124127"><ele>872.0</ele><time>2026-04-08T08:38:25.269Z</time></trkpt><trkpt lat="45.8342488" lon="14.0123496"><ele>873.0</ele><time>2026-04-08T08:38:26.259Z</time></trkpt><trkpt lat="45.8343525" lon="14.0122474"><ele>874.0</ele><time>2026-04-08T08:38:27.262Z</time></trkpt><trkpt lat="45.8344446" lon="14.0121253"><ele>875.0</ele><time>2026-04-08T08:38:28.262Z</time></trkpt><trkpt lat="45.8345216" lon="14.0119725"><ele>876.0</ele><time>2026-04-08T08:38:29.284Z</time></trkpt><trkpt lat="45.8345912" lon="14.0118104"><ele>872.3333333333333</ele><time>2026-04-08T08:38:30.267Z</time></trkpt><trkpt lat="45.8347463" lon="14.0114848"><ele>868.6666666666666</ele><time>2026-04-08T08:38:32.27Z</time></trkpt><trkpt lat="45.8348261" lon="14.0113435"><ele>865.0</ele><time>2026-04-08T08:38:33.255Z</time></trkpt><trkpt lat="45.8349099" lon="14.0112171"><ele>865.0</ele><time>2026-04-08T08:38:34.265Z</time></trkpt><trkpt lat="45.8350056" lon="14.0111139"><ele>865.0</ele><time>2026-04-08T08:38:35.269Z</time></trkpt><trkpt lat="45.8351149" lon="14.0110381"><ele>865.0</ele><time>2026-04-08T08:38:36.272Z</time></trkpt><trkpt lat="45.8352323" lon="14.0109914"><ele>865.0</ele><time>2026-04-08T08:38:37.272Z</time></trkpt><trkpt lat="45.8353536" lon="14.0109587"><ele>866.25</ele><time>2026-04-08T08:38:38.279Z</time></trkpt><trkpt lat="45.8354764" lon="14.010931"><ele>867.5</ele><time>2026-04-08T08:38:39.26Z</time></trkpt><trkpt lat="45.8355962" lon="14.0109013"><ele>868.75</ele><time>2026-04-08T08:38:40.265Z</time></trkpt><trkpt lat="45.8357052" lon="14.0108383"><ele>870.0</ele><time>2026-04-08T08:38:41.262Z</time></trkpt><trkpt lat="45.8358061" lon="14.0107413"><ele>866.75</ele><time>2026-04-08T08:38:42.266Z</time></trkpt><trkpt lat="45.8359146" lon="14.0106402"><ele>863.5</ele><time>2026-04-08T08:38:43.265Z</time></trkpt><trkpt lat="45.836043" lon="14.0105629"><ele>860.25</ele><time>2026-04-08T08:38:44.266Z</time></trkpt><trkpt lat="45.8361783" lon="14.0105011"><ele>857.0</ele><time>2026-04-08T08:38:45.257Z</time></trkpt><trkpt lat="45.8363218" lon="14.0104361"><ele>856.0</ele><time>2026-04-08T08:38:46.257Z</time></trkpt><trkpt lat="45.8364732" lon="14.0103669"><ele>855.0</ele><time>2026-04-08T08:38:47.261Z</time></trkpt><trkpt lat="45.8366289" lon="14.0102878"><ele>854.0</ele><time>2026-04-08T08:38:48.27Z</time></trkpt><trkpt lat="45.8367833" lon="14.0101998"><ele>854.0</ele><time>2026-04-08T08:38:49.26Z</time></trkpt><trkpt lat="45.8369366" lon="14.0101114"><ele>854.0</ele><time>2026-04-08T08:38:50.268Z</time></trkpt><trkpt lat="45.8370873" lon="14.0100138"><ele>854.0</ele><time>2026-04-08T08:38:51.255Z</time></trkpt><trkpt lat="45.8372395" lon="14.0099162"><ele>847.6666666666667</ele><time>2026-04-08T08:38:52.261Z</time></trkpt><trkpt lat="45.8373915" lon="14.0098359"><ele>841.3333333333333</ele><time>2026-04-08T08:38:53.273Z</time></trkpt><trkpt lat="45.8375436" lon="14.0097752"><ele>835.0</ele><time>2026-04-08T08:38:54.256Z</time></trkpt><trkpt lat="45.8376951" lon="14.0097158"><ele>833.6666666666666</ele><time>2026-04-08T08:38:55.275Z</time></trkpt><trkpt lat="45.8378478" lon="14.0096646"><ele>832.3333333333333</ele><time>2026-04-08T08:38:56.259Z</time></trkpt><trkpt lat="45.8380056" lon="14.0096375"><ele>831.0</ele><time>2026-04-08T08:38:57.273Z</time></trkpt><trkpt lat="45.8381625" lon="14.0096173"><ele>831.0</ele><time>2026-04-08T08:38:58.268Z</time></trkpt><trkpt lat="45.8383237" lon="14.0095806"><ele>831.0</ele><time>2026-04-08T08:38:59.27Z</time></trkpt><trkpt lat="45.8384785" lon="14.0095147"><ele>831.0</ele><time>2026-04-08T08:39:00.262Z</time></trkpt><trkpt lat="45.8386347" lon="14.0094401"><ele>831.0</ele><time>2026-04-08T08:39:01.274Z</time></trkpt><trkpt lat="45.8387901" lon="14.00936"><ele>831.0</ele><time>2026-04-08T08:39:02.255Z</time></trkpt><trkpt lat="45.8389498" lon="14.0092737"><ele>831.0</ele><time>2026-04-08T08:39:03.283Z</time></trkpt><trkpt lat="45.8391027" lon="14.00919"><ele>827.6666666666667</ele><time>2026-04-08T08:39:04.258Z</time></trkpt><trkpt lat="45.8392505" lon="14.0091012"><ele>824.3333333333334</ele><time>2026-04-08T08:39:05.25Z</time></trkpt><trkpt lat="45.8393859" lon="14.0089965"><ele>821.0</ele><time>2026-04-08T08:39:06.252Z</time></trkpt><trkpt lat="45.8395128" lon="14.0088757"><ele>820.25</ele><time>2026-04-08T08:39:07.254Z</time></trkpt><trkpt lat="45.8396258" lon="14.0087588"><ele>819.5</ele><time>2026-04-08T08:39:08.266Z</time></trkpt><trkpt lat="45.8397335" lon="14.0086553"><ele>818.75</ele><time>2026-04-08T08:39:09.26Z</time></trkpt><trkpt lat="45.8398373" lon="14.0086171"><ele>818.0</ele><time>2026-04-08T08:39:10.264Z</time></trkpt><trkpt lat="45.839954" lon="14.0086485"><ele>818.0</ele><time>2026-04-08T08:39:11.248Z</time></trkpt><trkpt lat="45.8400745" lon="14.0086942"><ele>818.0</ele><time>2026-04-08T08:39:12.261Z</time></trkpt><trkpt lat="45.8401954" lon="14.0087313"><ele>818.0</ele><time>2026-04-08T08:39:13.251Z</time></trkpt><trkpt lat="45.8403161" lon="14.0087385"><ele>818.0</ele><time>2026-04-08T08:39:14.253Z</time></trkpt><trkpt lat="45.8404384" lon="14.0087011"><ele>816.6666666666667</ele><time>2026-04-08T08:39:15.247Z</time></trkpt><trkpt lat="45.8405776" lon="14.0086411"><ele>815.3333333333333</ele><time>2026-04-08T08:39:16.255Z</time></trkpt><trkpt lat="45.8407243" lon="14.0085778"><ele>814.0</ele><time>2026-04-08T08:39:17.253Z</time></trkpt><trkpt lat="45.8408774" lon="14.0085067"><ele>815.0</ele><time>2026-04-08T08:39:18.247Z</time></trkpt><trkpt lat="45.8410331" lon="14.0084279"><ele>816.0</ele><time>2026-04-08T08:39:19.258Z</time></trkpt><trkpt lat="45.8411863" lon="14.0083479"><ele>817.0</ele><time>2026-04-08T08:39:20.249Z</time></trkpt><trkpt lat="45.8413376" lon="14.0082759"><ele>812.3333333333333</ele><time>2026-04-08T08:39:21.248Z</time></trkpt><trkpt lat="45.8414856" lon="14.0081922"><ele>807.6666666666667</ele><time>2026-04-08T08:39:22.248Z</time></trkpt><trkpt lat="45.8416267" lon="14.0081136"><ele>803.0</ele><time>2026-04-08T08:39:23.259Z</time></trkpt><trkpt lat="45.841765" lon="14.0080519"><ele>804.75</ele><time>2026-04-08T08:39:24.252Z</time></trkpt><trkpt lat="45.841903" lon="14.0079875"><ele>806.5</ele><time>2026-04-08T08:39:25.259Z</time></trkpt><trkpt lat="45.8420345" lon="14.007935"><ele>808.25</ele><time>2026-04-08T08:39:26.266Z</time></trkpt><trkpt lat="45.8421505" lon="14.0078885"><ele>810.0</ele><time>2026-04-08T08:39:27.254Z</time></trkpt><trkpt lat="45.8422335" lon="14.007812"><ele>810.0</ele><time>2026-04-08T08:39:28.241Z</time></trkpt><trkpt lat="45.8423153" lon="14.0076684"><ele>810.0</ele><time>2026-04-08T08:39:29.245Z</time></trkpt><trkpt lat="45.8423851" lon="14.0075072"><ele>810.0</ele><time>2026-04-08T08:39:30.245Z</time></trkpt><trkpt lat="45.842419" lon="14.007332"><ele>810.0</ele><time>2026-04-08T08:39:31.259Z</time></trkpt><trkpt lat="45.8424321" lon="14.0071161"><ele>808.6666666666667</ele><time>2026-04-08T08:39:32.239Z</time></trkpt><trkpt lat="45.8424459" lon="14.0069027"><ele>807.3333333333334</ele><time>2026-04-08T08:39:33.258Z</time></trkpt><trkpt lat="45.8424693" lon="14.0066795"><ele>806.0</ele><time>2026-04-08T08:39:34.248Z</time></trkpt><trkpt lat="45.8424928" lon="14.0064478"><ele>806.0</ele><time>2026-04-08T08:39:35.242Z</time></trkpt><trkpt lat="45.8425277" lon="14.0062288"><ele>806.0</ele><time>2026-04-08T08:39:36.248Z</time></trkpt><trkpt lat="45.8425623" lon="14.0060362"><ele>806.0</ele><time>2026-04-08T08:39:37.254Z</time></trkpt><trkpt lat="45.8426082" lon="14.0058863"><ele>806.0</ele><time>2026-04-08T08:39:38.244Z</time></trkpt><trkpt lat="45.8426751" lon="14.0057761"><ele>805.5</ele><time>2026-04-08T08:39:39.255Z</time></trkpt><trkpt lat="45.8427782" lon="14.0056903"><ele>805.0</ele><time>2026-04-08T08:39:40.235Z</time></trkpt><trkpt lat="45.8429051" lon="14.0056064"><ele>804.5</ele><time>2026-04-08T08:39:41.255Z</time></trkpt><trkpt lat="45.8430366" lon="14.0055104"><ele>804.0</ele><time>2026-04-08T08:39:42.243Z</time></trkpt><trkpt lat="45.8431687" lon="14.0054179"><ele>804.0</ele><time>2026-04-08T08:39:43.248Z</time></trkpt><trkpt lat="45.8432912" lon="14.0053435"><ele>804.0</ele><time>2026-04-08T08:39:44.249Z</time></trkpt><trkpt lat="45.8433959" lon="14.005285"><ele>804.0</ele><time>2026-04-08T08:39:45.253Z</time></trkpt><trkpt lat="45.8435007" lon="14.0051949"><ele>804.0</ele><time>2026-04-08T08:39:46.252Z</time></trkpt><trkpt lat="45.843597" lon="14.0050459"><ele>803.0</ele><time>2026-04-08T08:39:47.26Z</time></trkpt><trkpt lat="45.8436792" lon="14.0048922"><ele>802.0</ele><time>2026-04-08T08:39:48.254Z</time></trkpt><trkpt lat="45.843781" lon="14.0047611"><ele>801.0</ele><time>2026-04-08T08:39:49.253Z</time></trkpt><trkpt lat="45.8438973" lon="14.0046685"><ele>800.0</ele><time>2026-04-08T08:39:50.239Z</time></trkpt><trkpt lat="45.8440148" lon="14.0046281"><ele>800.0</ele><time>2026-04-08T08:39:51.235Z</time></trkpt><trkpt lat="45.8441434" lon="14.0046273"><ele>800.0</ele><time>2026-04-08T08:39:52.242Z</time></trkpt><trkpt lat="45.8442837" lon="14.0046175"><ele>800.0</ele><time>2026-04-08T08:39:53.243Z</time></trkpt><trkpt lat="45.8444427" lon="14.0046075"><ele>800.0</ele><time>2026-04-08T08:39:54.239Z</time></trkpt><trkpt lat="45.8445992" lon="14.0045509"><ele>800.75</ele><time>2026-04-08T08:39:55.242Z</time></trkpt><trkpt lat="45.8447221" lon="14.0044507"><ele>801.5</ele><time>2026-04-08T08:39:56.238Z</time></trkpt><trkpt lat="45.8448465" lon="14.0043443"><ele>802.25</ele><time>2026-04-08T08:39:57.232Z</time></trkpt><trkpt lat="45.8449692" lon="14.0041997"><ele>803.0</ele><time>2026-04-08T08:39:58.235Z</time></trkpt><trkpt lat="45.8450918" lon="14.0040231"><ele>803.3333333333334</ele><time>2026-04-08T08:39:59.263Z</time></trkpt><trkpt lat="45.8452236" lon="14.0038666"><ele>803.6666666666667</ele><time>2026-04-08T08:40:00.243Z</time></trkpt><trkpt lat="45.8453439" lon="14.0036898"><ele>804.0</ele><time>2026-04-08T08:40:01.239Z</time></trkpt><trkpt lat="45.845452" lon="14.0035152"><ele>804.0</ele><time>2026-04-08T08:40:02.24Z</time></trkpt><trkpt lat="45.8455491" lon="14.0033484"><ele>804.0</ele><time>2026-04-08T08:40:03.239Z</time></trkpt><trkpt lat="45.8456337" lon="14.0031736"><ele>804.0</ele><time>2026-04-08T08:40:04.242Z</time></trkpt><trkpt lat="45.8457158" lon="14.002994"><ele>804.0</ele><time>2026-04-08T08:40:05.244Z</time></trkpt><trkpt lat="45.8457963" lon="14.0027893"><ele>804.0</ele><time>2026-04-08T08:40:06.242Z</time></trkpt><trkpt lat="45.8458577" lon="14.0026135"><ele>804.0</ele><time>2026-04-08T08:40:07.253Z</time></trkpt><trkpt lat="45.8459316" lon="14.0024701"><ele>804.0</ele><time>2026-04-08T08:40:08.235Z</time></trkpt><trkpt lat="45.8460287" lon="14.0023614"><ele>804.0</ele><time>2026-04-08T08:40:09.241Z</time></trkpt><trkpt lat="45.8461275" lon="14.0022728"><ele>804.0</ele><time>2026-04-08T08:40:10.239Z</time></trkpt><trkpt lat="45.8462216" lon="14.002179"><ele>804.0</ele><time>2026-04-08T08:40:11.259Z</time></trkpt><trkpt lat="45.8462997" lon="14.0020607"><ele>804.0</ele><time>2026-04-08T08:40:12.236Z</time></trkpt><trkpt lat="45.8463632" lon="14.0019382"><ele>804.0</ele><time>2026-04-08T08:40:13.234Z</time></trkpt><trkpt lat="45.846415" lon="14.0017863"><ele>803.5</ele><time>2026-04-08T08:40:14.236Z</time></trkpt><trkpt lat="45.8464507" lon="14.0016092"><ele>803.0</ele><time>2026-04-08T08:40:15.233Z</time></trkpt><trkpt lat="45.8465016" lon="14.0014527"><ele>802.5</ele><time>2026-04-08T08:40:16.233Z</time></trkpt><trkpt lat="45.8465506" lon="14.0013068"><ele>802.0</ele><time>2026-04-08T08:40:17.237Z</time></trkpt><trkpt lat="45.8466068" lon="14.0011653"><ele>802.0</ele><time>2026-04-08T08:40:18.234Z</time></trkpt><trkpt lat="45.8466786" lon="14.0010233"><ele>802.0</ele><time>2026-04-08T08:40:19.254Z</time></trkpt><trkpt lat="45.846758" lon="14.0008771"><ele>802.0</ele><time>2026-04-08T08:40:20.229Z</time></trkpt><trkpt lat="45.8468479" lon="14.0007384"><ele>802.0</ele><time>2026-04-08T08:40:21.239Z</time></trkpt><trkpt lat="45.8469256" lon="14.0005902"><ele>800.75</ele><time>2026-04-08T08:40:22.231Z</time></trkpt><trkpt lat="45.846992" lon="14.0004344"><ele>799.5</ele><time>2026-04-08T08:40:23.238Z</time></trkpt><trkpt lat="45.8470373" lon="14.00027"><ele>798.25</ele><time>2026-04-08T08:40:24.239Z</time></trkpt><trkpt lat="45.8470729" lon="14.0001026"><ele>797.0</ele><time>2026-04-08T08:40:25.238Z</time></trkpt><trkpt lat="45.8471074" lon="13.9999527"><ele>797.0</ele><time>2026-04-08T08:40:26.237Z</time></trkpt><trkpt lat="45.8471293" lon="13.9998516"><ele>797.0</ele><time>2026-04-08T08:40:27.249Z</time></trkpt><trkpt lat="45.8471435" lon="13.9997319"><ele>797.0</ele><time>2026-04-08T08:40:29.245Z</time></trkpt><trkpt lat="45.8471646" lon="13.9994687"><ele>797.0</ele><time>2026-04-08T08:41:45.221Z</time></trkpt><trkpt lat="45.8472589" lon="13.9991087"><ele>797.0</ele><time>2026-04-08T08:41:46.216Z</time></trkpt><trkpt lat="45.8473224" lon="13.9988422"><ele>797.0</ele><time>2026-04-08T08:41:47.22Z</time></trkpt><trkpt lat="45.8473769" lon="13.9986176"><ele>797.0</ele><time>2026-04-08T08:41:48.211Z</time></trkpt><trkpt lat="45.8474336" lon="13.9984191"><ele>795.5</ele><time>2026-04-08T08:41:49.217Z</time></trkpt><trkpt lat="45.8474933" lon="13.9982291"><ele>794.0</ele><time>2026-04-08T08:41:50.212Z</time></trkpt><trkpt lat="45.8475587" lon="13.9980429"><ele>792.5</ele><time>2026-04-08T08:41:51.226Z</time></trkpt><trkpt lat="45.8476331" lon="13.9978617"><ele>791.0</ele><time>2026-04-08T08:41:52.211Z</time></trkpt><trkpt lat="45.8477347" lon="13.9976867"><ele>791.0</ele><time>2026-04-08T08:41:53.221Z</time></trkpt><trkpt lat="45.8478426" lon="13.9975281"><ele>791.0</ele><time>2026-04-08T08:41:54.209Z</time></trkpt><trkpt lat="45.8479658" lon="13.9973663"><ele>791.0</ele><time>2026-04-08T08:41:55.211Z</time></trkpt><trkpt lat="45.8480988" lon="13.9972094"><ele>791.6666666666667</ele><time>2026-04-08T08:41:56.208Z</time></trkpt><trkpt lat="45.8482284" lon="13.9970466"><ele>792.3333333333333</ele><time>2026-04-08T08:41:57.208Z</time></trkpt><trkpt lat="45.8483535" lon="13.9968816"><ele>793.0</ele><time>2026-04-08T08:41:58.223Z</time></trkpt><trkpt lat="45.848462" lon="13.9967139"><ele>790.0</ele><time>2026-04-08T08:41:59.204Z</time></trkpt><trkpt lat="45.8485314" lon="13.9965514"><ele>787.0</ele><time>2026-04-08T08:42:00.218Z</time></trkpt><trkpt lat="45.8485581" lon="13.996351"><ele>784.0</ele><time>2026-04-08T08:42:01.211Z</time></trkpt><trkpt lat="45.8485737" lon="13.9961572"><ele>781.0</ele><time>2026-04-08T08:42:02.204Z</time></trkpt><trkpt lat="45.8485895" lon="13.9959589"><ele>778.75</ele><time>2026-04-08T08:42:03.213Z</time></trkpt><trkpt lat="45.8486161" lon="13.995767"><ele>776.5</ele><time>2026-04-08T08:42:04.216Z</time></trkpt><trkpt lat="45.8486628" lon="13.9955827"><ele>774.25</ele><time>2026-04-08T08:42:05.197Z</time></trkpt><trkpt lat="45.8487137" lon="13.9954358"><ele>772.0</ele><time>2026-04-08T08:42:06.202Z</time></trkpt><trkpt lat="45.8487664" lon="13.995304"><ele>771.9999999999999</ele><time>2026-04-08T08:42:07.206Z</time></trkpt><trkpt lat="45.848827" lon="13.9952413"><ele>772.0</ele><time>2026-04-08T08:42:08.201Z</time></trkpt><trkpt lat="45.8489094" lon="13.9952381"><ele>772.0</ele><time>2026-04-08T08:42:09.203Z</time></trkpt><trkpt lat="45.8489752" lon="13.995252"><ele>772.0</ele><time>2026-04-08T08:42:10.226Z</time></trkpt><trkpt lat="45.849053" lon="13.995303"><ele>771.9999999999999</ele><time>2026-04-08T08:42:11.211Z</time></trkpt><trkpt lat="45.8491498" lon="13.9953585"><ele>772.0</ele><time>2026-04-08T08:42:12.2Z</time></trkpt><trkpt lat="45.8492719" lon="13.9953764"><ele>770.3333333333333</ele><time>2026-04-08T08:42:13.205Z</time></trkpt><trkpt lat="45.8494191" lon="13.995375"><ele>768.6666666666666</ele><time>2026-04-08T08:42:14.203Z</time></trkpt><trkpt lat="45.8495699" lon="13.9953757"><ele>767.0</ele><time>2026-04-08T08:42:15.21Z</time></trkpt><trkpt lat="45.8497275" lon="13.995376"><ele>767.0</ele><time>2026-04-08T08:42:16.207Z</time></trkpt><trkpt lat="45.8498974" lon="13.9953603"><ele>767.0</ele><time>2026-04-08T08:42:17.201Z</time></trkpt><trkpt lat="45.8500662" lon="13.9953472"><ele>767.0</ele><time>2026-04-08T08:42:18.212Z</time></trkpt><trkpt lat="45.8502209" lon="13.9953458"><ele>766.6666666666666</ele><time>2026-04-08T08:42:19.198Z</time></trkpt><trkpt lat="45.8503779" lon="13.9953604"><ele>766.3333333333334</ele><time>2026-04-08T08:42:20.203Z</time></trkpt><trkpt lat="45.8505283" lon="13.9953609"><ele>766.0</ele><time>2026-04-08T08:42:21.2Z</time></trkpt><trkpt lat="45.8506678" lon="13.9953237"><ele>766.0</ele><time>2026-04-08T08:42:22.2Z</time></trkpt><trkpt lat="45.8508045" lon="13.9952652"><ele>766.0</ele><time>2026-04-08T08:42:23.206Z</time></trkpt><trkpt lat="45.8509467" lon="13.9952101"><ele>766.0</ele><time>2026-04-08T08:42:24.208Z</time></trkpt><trkpt lat="45.8510912" lon="13.9951953"><ele>766.0</ele><time>2026-04-08T08:42:25.206Z</time></trkpt><trkpt lat="45.8512273" lon="13.9952196"><ele>764.0</ele><time>2026-04-08T08:42:26.203Z</time></trkpt><trkpt lat="45.8513883" lon="13.9952407"><ele>762.0</ele><time>2026-04-08T08:42:27.195Z</time></trkpt><trkpt lat="45.8515676" lon="13.995247"><ele>760.0</ele><time>2026-04-08T08:42:28.307Z</time></trkpt><trkpt lat="45.8519244" lon="13.9952838"><ele>753.6666666666667</ele><time>2026-04-08T08:42:30.195Z</time></trkpt><trkpt lat="45.8521" lon="13.9953289"><ele>747.3333333333334</ele><time>2026-04-08T08:42:31.208Z</time></trkpt><trkpt lat="45.8522716" lon="13.995402"><ele>741.0</ele><time>2026-04-08T08:42:32.218Z</time></trkpt><trkpt lat="45.8524274" lon="13.9954819"><ele>741.0</ele><time>2026-04-08T08:42:33.192Z</time></trkpt><trkpt lat="45.8525724" lon="13.9955833"><ele>741.0</ele><time>2026-04-08T08:42:34.198Z</time></trkpt><trkpt lat="45.8527045" lon="13.9957082"><ele>741.0</ele><time>2026-04-08T08:42:35.306Z</time></trkpt><trkpt lat="45.8528206" lon="13.9958228"><ele>736.5</ele><time>2026-04-08T08:42:36.212Z</time></trkpt><trkpt lat="45.8529075" lon="13.9959347"><ele>732.0</ele><time>2026-04-08T08:42:37.198Z</time></trkpt><trkpt lat="45.8529841" lon="13.9960704"><ele>727.5</ele><time>2026-04-08T08:42:38.201Z</time></trkpt><trkpt lat="45.8530416" lon="13.9962545"><ele>723.0</ele><time>2026-04-08T08:42:39.303Z</time></trkpt><trkpt lat="45.8531019" lon="13.996456"><ele>723.0</ele><time>2026-04-08T08:42:40.303Z</time></trkpt><trkpt lat="45.8531782" lon="13.9966587"><ele>723.0</ele><time>2026-04-08T08:42:41.305Z</time></trkpt><trkpt lat="45.8532689" lon="13.9968403"><ele>723.0</ele><time>2026-04-08T08:42:42.299Z</time></trkpt><trkpt lat="45.8533809" lon="13.9970013"><ele>721.25</ele><time>2026-04-08T08:42:43.201Z</time></trkpt><trkpt lat="45.8534945" lon="13.9971508"><ele>719.5</ele><time>2026-04-08T08:42:44.294Z</time></trkpt><trkpt lat="45.8536034" lon="13.9973005"><ele>717.75</ele><time>2026-04-08T08:42:45.309Z</time></trkpt><trkpt lat="45.853707" lon="13.9974301"><ele>716.0</ele><time>2026-04-08T08:42:46.315Z</time></trkpt><trkpt lat="45.8538187" lon="13.9975562"><ele>716.0</ele><time>2026-04-08T08:42:47.3Z</time></trkpt><trkpt lat="45.853926" lon="13.9976723"><ele>716.0</ele><time>2026-04-08T08:42:48.304Z</time></trkpt><trkpt lat="45.8540269" lon="13.9977631"><ele>716.0</ele><time>2026-04-08T08:42:49.311Z</time></trkpt><trkpt lat="45.8541414" lon="13.9978289"><ele>716.0</ele><time>2026-04-08T08:42:50.304Z</time></trkpt><trkpt lat="45.8542476" lon="13.9978674"><ele>714.5</ele><time>2026-04-08T08:42:51.295Z</time></trkpt><trkpt lat="45.8543453" lon="13.9978965"><ele>713.0</ele><time>2026-04-08T08:42:52.315Z</time></trkpt><trkpt lat="45.8544305" lon="13.9979168"><ele>711.5</ele><time>2026-04-08T08:42:53.296Z</time></trkpt><trkpt lat="45.8544964" lon="13.9979093"><ele>710.0</ele><time>2026-04-08T08:42:54.294Z</time></trkpt><trkpt lat="45.8545582" lon="13.997811"><ele>708.5</ele><time>2026-04-08T08:42:56.291Z</time></trkpt><trkpt lat="45.8545645" lon="13.997685"><ele>707.0</ele><time>2026-04-08T08:42:58.287Z</time></trkpt><trkpt lat="45.8545453" lon="13.9975196"><ele>705.75</ele><time>2026-04-08T08:43:00.293Z</time></trkpt><trkpt lat="45.8545256" lon="13.9973932"><ele>704.5</ele><time>2026-04-08T08:43:01.297Z</time></trkpt><trkpt lat="45.85449" lon="13.9972031"><ele>703.25</ele><time>2026-04-08T08:43:02.291Z</time></trkpt><trkpt lat="45.8544217" lon="13.9969539"><ele>702.0</ele><time>2026-04-08T08:43:03.287Z</time></trkpt><trkpt lat="45.8543583" lon="13.9966675"><ele>701.6666666666666</ele><time>2026-04-08T08:43:04.298Z</time></trkpt><trkpt lat="45.8542892" lon="13.996392"><ele>701.3333333333333</ele><time>2026-04-08T08:43:05.298Z</time></trkpt><trkpt lat="45.8542272" lon="13.9961277"><ele>701.0</ele><time>2026-04-08T08:43:06.298Z</time></trkpt><trkpt lat="45.8541709" lon="13.9958634"><ele>700.0</ele><time>2026-04-08T08:43:07.287Z</time></trkpt><trkpt lat="45.8541156" lon="13.9955984"><ele>699.0</ele><time>2026-04-08T08:43:08.286Z</time></trkpt><trkpt lat="45.8540602" lon="13.9953474"><ele>698.0</ele><time>2026-04-08T08:43:09.297Z</time></trkpt><trkpt lat="45.8539931" lon="13.9950998"><ele>696.3333333333333</ele><time>2026-04-08T08:43:10.29Z</time></trkpt><trkpt lat="45.8539294" lon="13.9948623"><ele>694.6666666666666</ele><time>2026-04-08T08:43:11.286Z</time></trkpt><trkpt lat="45.8538802" lon="13.9946338"><ele>693.0</ele><time>2026-04-08T08:43:12.29Z</time></trkpt><trkpt lat="45.8538459" lon="13.9944224"><ele>693.0</ele><time>2026-04-08T08:43:13.349Z</time></trkpt><trkpt lat="45.8538192" lon="13.9942103"><ele>693.0</ele><time>2026-04-08T08:43:14.282Z</time></trkpt><trkpt lat="45.8538115" lon="13.9939887"><ele>693.0</ele><time>2026-04-08T08:43:15.287Z</time></trkpt><trkpt lat="45.8538024" lon="13.9937562"><ele>689.3333333333334</ele><time>2026-04-08T08:43:16.295Z</time></trkpt><trkpt lat="45.8537867" lon="13.9935143"><ele>685.6666666666667</ele><time>2026-04-08T08:43:17.285Z</time></trkpt><trkpt lat="45.8537539" lon="13.9932775"><ele>682.0</ele><time>2026-04-08T08:43:18.292Z</time></trkpt><trkpt lat="45.8537137" lon="13.9930657"><ele>677.6666666666667</ele><time>2026-04-08T08:43:19.287Z</time></trkpt><trkpt lat="45.8536641" lon="13.992725"><ele>673.3333333333334</ele><time>2026-04-08T08:43:21.296Z</time></trkpt><trkpt lat="45.8537014" lon="13.9925231"><ele>669.0</ele><time>2026-04-08T08:43:22.286Z</time></trkpt><trkpt lat="45.8537443" lon="13.9923315"><ele>667.5</ele><time>2026-04-08T08:43:23.291Z</time></trkpt><trkpt lat="45.8537834" lon="13.9921271"><ele>666.0</ele><time>2026-04-08T08:43:24.283Z</time></trkpt><trkpt lat="45.8537997" lon="13.991924"><ele>664.5</ele><time>2026-04-08T08:43:25.291Z</time></trkpt><trkpt lat="45.85379" lon="13.991697"><ele>663.0</ele><time>2026-04-08T08:43:26.286Z</time></trkpt><trkpt lat="45.8537643" lon="13.9914659"><ele>661.3333333333334</ele><time>2026-04-08T08:43:27.3Z</time></trkpt><trkpt lat="45.8537149" lon="13.9912541"><ele>659.6666666666667</ele><time>2026-04-08T08:43:28.288Z</time></trkpt><trkpt lat="45.8536456" lon="13.9910535"><ele>658.0</ele><time>2026-04-08T08:43:29.3Z</time></trkpt><trkpt lat="45.8535558" lon="13.9908545"><ele>657.0</ele><time>2026-04-08T08:43:30.29Z</time></trkpt><trkpt lat="45.8534626" lon="13.9906528"><ele>656.0</ele><time>2026-04-08T08:43:31.286Z</time></trkpt><trkpt lat="45.8533817" lon="13.9904565"><ele>655.0</ele><time>2026-04-08T08:43:32.291Z</time></trkpt><trkpt lat="45.8533236" lon="13.9902644"><ele>655.0</ele><time>2026-04-08T08:43:33.283Z</time></trkpt><trkpt lat="45.8532767" lon="13.9900871"><ele>655.0</ele><time>2026-04-08T08:43:34.287Z</time></trkpt><trkpt lat="45.8532462" lon="13.9899458"><ele>655.0</ele><time>2026-04-08T08:43:35.279Z</time></trkpt><trkpt lat="45.8532417" lon="13.9898203"><ele>655.0</ele><time>2026-04-08T08:43:36.279Z</time></trkpt><trkpt lat="45.8532767" lon="13.989725"><ele>655.0</ele><time>2026-04-08T08:43:37.291Z</time></trkpt><trkpt lat="45.8533548" lon="13.9896397"><ele>653.5</ele><time>2026-04-08T08:43:38.279Z</time></trkpt><trkpt lat="45.8534518" lon="13.9895852"><ele>652.0</ele><time>2026-04-08T08:43:39.291Z</time></trkpt><trkpt lat="45.8535589" lon="13.9895313"><ele>650.5</ele><time>2026-04-08T08:43:40.296Z</time></trkpt><trkpt lat="45.853682" lon="13.9894667"><ele>649.0</ele><time>2026-04-08T08:43:41.277Z</time></trkpt><trkpt lat="45.8538212" lon="13.9894214"><ele>646.25</ele><time>2026-04-08T08:43:42.285Z</time></trkpt><trkpt lat="45.8539607" lon="13.989407"><ele>643.5</ele><time>2026-04-08T08:43:43.296Z</time></trkpt><trkpt lat="45.8541072" lon="13.9894416"><ele>640.75</ele><time>2026-04-08T08:43:44.285Z</time></trkpt><trkpt lat="45.8542459" lon="13.9894703"><ele>638.0</ele><time>2026-04-08T08:43:45.291Z</time></trkpt><trkpt lat="45.8543923" lon="13.989466"><ele>632.6666666666666</ele><time>2026-04-08T08:43:46.282Z</time></trkpt><trkpt lat="45.8545439" lon="13.989452"><ele>627.3333333333334</ele><time>2026-04-08T08:43:47.279Z</time></trkpt><trkpt lat="45.8546968" lon="13.9893989"><ele>622.0</ele><time>2026-04-08T08:43:48.287Z</time></trkpt><trkpt lat="45.8548576" lon="13.9893253"><ele>622.0</ele><time>2026-04-08T08:43:49.291Z</time></trkpt><trkpt lat="45.8550069" lon="13.9892497"><ele>622.0</ele><time>2026-04-08T08:43:50.276Z</time></trkpt><trkpt lat="45.8551633" lon="13.9891861"><ele>622.0</ele><time>2026-04-08T08:43:51.288Z</time></trkpt><trkpt lat="45.8553208" lon="13.9891777"><ele>620.3333333333334</ele><time>2026-04-08T08:43:52.28Z</time></trkpt><trkpt lat="45.8554813" lon="13.9891866"><ele>618.6666666666666</ele><time>2026-04-08T08:43:53.279Z</time></trkpt><trkpt lat="45.8556423" lon="13.9891827"><ele>617.0</ele><time>2026-04-08T08:43:54.283Z</time></trkpt><trkpt lat="45.8558102" lon="13.9891658"><ele>613.75</ele><time>2026-04-08T08:43:55.29Z</time></trkpt><trkpt lat="45.8559719" lon="13.989145"><ele>610.5</ele><time>2026-04-08T08:43:56.275Z</time></trkpt><trkpt lat="45.8561193" lon="13.9891254"><ele>607.25</ele><time>2026-04-08T08:43:57.285Z</time></trkpt><trkpt lat="45.8562391" lon="13.9891269"><ele>604.0</ele><time>2026-04-08T08:43:58.269Z</time></trkpt><trkpt lat="45.8563476" lon="13.9891661"><ele>604.3333333333334</ele><time>2026-04-08T08:43:59.263Z</time></trkpt><trkpt lat="45.8565721" lon="13.9892575"><ele>604.6666666666666</ele><time>2026-04-08T08:44:01.265Z</time></trkpt><trkpt lat="45.8566991" lon="13.9892602"><ele>605.0</ele><time>2026-04-08T08:44:02.279Z</time></trkpt><trkpt lat="45.8568369" lon="13.9892382"><ele>605.0</ele><time>2026-04-08T08:44:03.276Z</time></trkpt><trkpt lat="45.8569753" lon="13.9891875"><ele>605.0</ele><time>2026-04-08T08:44:04.289Z</time></trkpt><trkpt lat="45.8571142" lon="13.9891098"><ele>605.0</ele><time>2026-04-08T08:44:05.266Z</time></trkpt><trkpt lat="45.8572455" lon="13.9889904"><ele>605.0</ele><time>2026-04-08T08:44:06.278Z</time></trkpt><trkpt lat="45.857374" lon="13.9888435"><ele>600.3333333333333</ele><time>2026-04-08T08:44:07.289Z</time></trkpt><trkpt lat="45.8575211" lon="13.9887024"><ele>595.6666666666666</ele><time>2026-04-08T08:44:08.277Z</time></trkpt><trkpt lat="45.8576642" lon="13.9885577"><ele>591.0</ele><time>2026-04-08T08:44:09.277Z</time></trkpt><trkpt lat="45.857808" lon="13.9883958"><ele>583.6666666666666</ele><time>2026-04-08T08:44:10.265Z</time></trkpt><trkpt lat="45.8579486" lon="13.9882385"><ele>576.3333333333333</ele><time>2026-04-08T08:44:11.27Z</time></trkpt><trkpt lat="45.8580933" lon="13.9880892"><ele>569.0</ele><time>2026-04-08T08:44:12.268Z</time></trkpt><trkpt lat="45.8582433" lon="13.9879564"><ele>569.0</ele><time>2026-04-08T08:44:13.357Z</time></trkpt><trkpt lat="45.8583905" lon="13.9878277"><ele>569.0</ele><time>2026-04-08T08:44:14.274Z</time></trkpt><trkpt lat="45.8585368" lon="13.9876969"><ele>569.0</ele><time>2026-04-08T08:44:15.28Z</time></trkpt><trkpt lat="45.8586837" lon="13.9875585"><ele>564.0</ele><time>2026-04-08T08:44:16.271Z</time></trkpt><trkpt lat="45.8588292" lon="13.9874143"><ele>559.0</ele><time>2026-04-08T08:44:17.268Z</time></trkpt><trkpt lat="45.8589722" lon="13.9872698"><ele>554.0</ele><time>2026-04-08T08:44:18.281Z</time></trkpt><trkpt lat="45.8591154" lon="13.9871194"><ele>554.0</ele><time>2026-04-08T08:44:19.278Z</time></trkpt><trkpt lat="45.8592585" lon="13.9869686"><ele>554.0</ele><time>2026-04-08T08:44:20.262Z</time></trkpt><trkpt lat="45.8594002" lon="13.986834"><ele>554.0</ele><time>2026-04-08T08:44:21.28Z</time></trkpt><trkpt lat="45.8595431" lon="13.9867112"><ele>549.3333333333333</ele><time>2026-04-08T08:44:22.276Z</time></trkpt><trkpt lat="45.8596779" lon="13.9865778"><ele>544.6666666666666</ele><time>2026-04-08T08:44:23.26Z</time></trkpt><trkpt lat="45.859803" lon="13.9864292"><ele>540.0</ele><time>2026-04-08T08:44:24.266Z</time></trkpt><trkpt lat="45.8599233" lon="13.9862412"><ele>540.0</ele><time>2026-04-08T08:44:25.259Z</time></trkpt><trkpt lat="45.8600332" lon="13.9860447"><ele>540.0</ele><time>2026-04-08T08:44:26.264Z</time></trkpt><trkpt lat="45.8601363" lon="13.9858472"><ele>540.0</ele><time>2026-04-08T08:44:27.266Z</time></trkpt><trkpt lat="45.8602262" lon="13.9856775"><ele>535.75</ele><time>2026-04-08T08:44:28.269Z</time></trkpt><trkpt lat="45.860304" lon="13.9855531"><ele>531.5</ele><time>2026-04-08T08:44:29.251Z</time></trkpt><trkpt lat="45.8603877" lon="13.9854729"><ele>527.25</ele><time>2026-04-08T08:44:30.265Z</time></trkpt><trkpt lat="45.8604929" lon="13.9854297"><ele>523.0</ele><time>2026-04-08T08:44:31.263Z</time></trkpt><trkpt lat="45.8606168" lon="13.9854281"><ele>523.0</ele><time>2026-04-08T08:44:32.266Z</time></trkpt><trkpt lat="45.8607518" lon="13.985466"><ele>523.0</ele><time>2026-04-08T08:44:33.259Z</time></trkpt><trkpt lat="45.8608966" lon="13.985531"><ele>523.0</ele><time>2026-04-08T08:44:34.266Z</time></trkpt><trkpt lat="45.8610481" lon="13.9856081"><ele>521.0</ele><time>2026-04-08T08:44:35.267Z</time></trkpt><trkpt lat="45.8612034" lon="13.9856803"><ele>519.0</ele><time>2026-04-08T08:44:36.264Z</time></trkpt><trkpt lat="45.8613666" lon="13.9857452"><ele>517.0</ele><time>2026-04-08T08:44:37.258Z</time></trkpt><trkpt lat="45.8615273" lon="13.9858015"><ele>515.0</ele><time>2026-04-08T08:44:38.272Z</time></trkpt><trkpt lat="45.8616929" lon="13.9858584"><ele>513.0</ele><time>2026-04-08T08:44:39.266Z</time></trkpt><trkpt lat="45.8618522" lon="13.9858992"><ele>511.0</ele><time>2026-04-08T08:44:40.28Z</time></trkpt><trkpt lat="45.8620137" lon="13.9859326"><ele>509.0</ele><time>2026-04-08T08:44:41.271Z</time></trkpt><trkpt lat="45.8621703" lon="13.9859615"><ele>507.0</ele><time>2026-04-08T08:44:42.263Z</time></trkpt><trkpt lat="45.8623232" lon="13.9859978"><ele>505.0</ele><time>2026-04-08T08:44:43.273Z</time></trkpt><trkpt lat="45.8624619" lon="13.9860623"><ele>505.0</ele><time>2026-04-08T08:44:44.263Z</time></trkpt><trkpt lat="45.8625984" lon="13.9861678"><ele>505.0</ele><time>2026-04-08T08:44:45.256Z</time></trkpt><trkpt lat="45.8627344" lon="13.9862906"><ele>505.0</ele><time>2026-04-08T08:44:46.263Z</time></trkpt><trkpt lat="45.8628611" lon="13.9864004"><ele>505.0</ele><time>2026-04-08T08:44:47.26Z</time></trkpt><trkpt lat="45.8629659" lon="13.9864981"><ele>505.0</ele><time>2026-04-08T08:44:48.265Z</time></trkpt><trkpt lat="45.8630567" lon="13.9865644"><ele>505.0</ele><time>2026-04-08T08:44:49.258Z</time></trkpt><trkpt lat="45.8631613" lon="13.9866023"><ele>505.0</ele><time>2026-04-08T08:44:50.273Z</time></trkpt><trkpt lat="45.8632867" lon="13.9865858"><ele>505.0</ele><time>2026-04-08T08:44:51.263Z</time></trkpt><trkpt lat="45.8634108" lon="13.9865564"><ele>505.0</ele><time>2026-04-08T08:44:52.26Z</time></trkpt><trkpt lat="45.8635303" lon="13.9865382"><ele>505.0</ele><time>2026-04-08T08:44:53.268Z</time></trkpt><trkpt lat="45.8636341" lon="13.9865207"><ele>505.0</ele><time>2026-04-08T08:44:54.249Z</time></trkpt><trkpt lat="45.8637289" lon="13.9864674"><ele>502.5</ele><time>2026-04-08T08:44:55.258Z</time></trkpt><trkpt lat="45.8638266" lon="13.9863942"><ele>500.0</ele><time>2026-04-08T08:44:56.262Z</time></trkpt><trkpt lat="45.8639342" lon="13.9863155"><ele>497.5</ele><time>2026-04-08T08:44:57.287Z</time></trkpt><trkpt lat="45.8640593" lon="13.986214"><ele>495.0</ele><time>2026-04-08T08:44:58.271Z</time></trkpt><trkpt lat="45.8641846" lon="13.9860949"><ele>490.0</ele><time>2026-04-08T08:44:59.249Z</time></trkpt><trkpt lat="45.8643108" lon="13.9859586"><ele>485.0</ele><time>2026-04-08T08:45:00.261Z</time></trkpt><trkpt lat="45.8644337" lon="13.9858198"><ele>480.0</ele><time>2026-04-08T08:45:01.255Z</time></trkpt><trkpt lat="45.8645563" lon="13.9856774"><ele>478.5</ele><time>2026-04-08T08:45:02.25Z</time></trkpt><trkpt lat="45.8646847" lon="13.9855649"><ele>477.0</ele><time>2026-04-08T08:45:03.255Z</time></trkpt><trkpt lat="45.8648159" lon="13.9854742"><ele>475.5</ele><time>2026-04-08T08:45:04.258Z</time></trkpt><trkpt lat="45.8649359" lon="13.9853984"><ele>474.0</ele><time>2026-04-08T08:45:05.252Z</time></trkpt><trkpt lat="45.8650376" lon="13.98534"><ele>471.0</ele><time>2026-04-08T08:45:06.255Z</time></trkpt><trkpt lat="45.8651299" lon="13.9852634"><ele>468.0</ele><time>2026-04-08T08:45:07.274Z</time></trkpt><trkpt lat="45.8652155" lon="13.9851443"><ele>465.0</ele><time>2026-04-08T08:45:08.264Z</time></trkpt><trkpt lat="45.8652927" lon="13.9849876"><ele>462.0</ele><time>2026-04-08T08:45:09.261Z</time></trkpt><trkpt lat="45.8653721" lon="13.9848131"><ele>462.0</ele><time>2026-04-08T08:45:10.264Z</time></trkpt><trkpt lat="45.8654617" lon="13.984653"><ele>462.0</ele><time>2026-04-08T08:45:11.254Z</time></trkpt><trkpt lat="45.8655279" lon="13.9845038"><ele>462.0</ele><time>2026-04-08T08:45:12.263Z</time></trkpt><trkpt lat="45.8655603" lon="13.9843724"><ele>462.0</ele><time>2026-04-08T08:45:13.271Z</time></trkpt><trkpt lat="45.8655937" lon="13.9842493"><ele>461.6</ele><time>2026-04-08T08:45:14.256Z</time></trkpt><trkpt lat="45.8656438" lon="13.9841467"><ele>461.20000000000005</ele><time>2026-04-08T08:45:15.256Z</time></trkpt><trkpt lat="45.8657352" lon="13.9840991"><ele>460.8</ele><time>2026-04-08T08:45:16.265Z</time></trkpt><trkpt lat="45.8658545" lon="13.9840685"><ele>460.4</ele><time>2026-04-08T08:45:17.271Z</time></trkpt><trkpt lat="45.8659886" lon="13.984049"><ele>460.0</ele><time>2026-04-08T08:45:18.257Z</time></trkpt><trkpt lat="45.8661189" lon="13.9840368"><ele>460.0</ele><time>2026-04-08T08:45:19.253Z</time></trkpt><trkpt lat="45.866245" lon="13.9840554"><ele>460.0</ele><time>2026-04-08T08:45:20.263Z</time></trkpt><trkpt lat="45.8663673" lon="13.9841091"><ele>460.0</ele><time>2026-04-08T08:45:21.249Z</time></trkpt><trkpt lat="45.8664716" lon="13.984198"><ele>460.0</ele><time>2026-04-08T08:45:22.247Z</time></trkpt><trkpt lat="45.866566" lon="13.9843256"><ele>457.25</ele><time>2026-04-08T08:45:23.25Z</time></trkpt><trkpt lat="45.8666572" lon="13.984475"><ele>454.5</ele><time>2026-04-08T08:45:24.263Z</time></trkpt><trkpt lat="45.8667571" lon="13.984621"><ele>451.75</ele><time>2026-04-08T08:45:25.257Z</time></trkpt><trkpt lat="45.8668645" lon="13.9847554"><ele>449.0</ele><time>2026-04-08T08:45:26.247Z</time></trkpt><trkpt lat="45.8669637" lon="13.9848707"><ele>449.2</ele><time>2026-04-08T08:45:27.257Z</time></trkpt><trkpt lat="45.8670382" lon="13.9849566"><ele>449.4</ele><time>2026-04-08T08:45:28.253Z</time></trkpt><trkpt lat="45.8671196" lon="13.9850088"><ele>449.6</ele><time>2026-04-08T08:45:29.242Z</time></trkpt><trkpt lat="45.8672227" lon="13.9850216"><ele>449.8</ele><time>2026-04-08T08:45:30.245Z</time></trkpt><trkpt lat="45.8673481" lon="13.9850299"><ele>450.0</ele><time>2026-04-08T08:45:31.241Z</time></trkpt><trkpt lat="45.8674836" lon="13.9850107"><ele>446.0</ele><time>2026-04-08T08:45:32.255Z</time></trkpt><trkpt lat="45.8676576" lon="13.9849976"><ele>442.0</ele><time>2026-04-08T08:45:33.246Z</time></trkpt><trkpt lat="45.8678472" lon="13.9850138"><ele>438.0</ele><time>2026-04-08T08:45:34.246Z</time></trkpt><trkpt lat="45.8680422" lon="13.9850369"><ele>435.66666666666663</ele><time>2026-04-08T08:45:35.259Z</time></trkpt><trkpt lat="45.8682235" lon="13.9850614"><ele>433.3333333333333</ele><time>2026-04-08T08:45:36.253Z</time></trkpt><trkpt lat="45.8683885" lon="13.9850788"><ele>431.0</ele><time>2026-04-08T08:45:37.239Z</time></trkpt><trkpt lat="45.8685453" lon="13.9850971"><ele>427.75</ele><time>2026-04-08T08:45:38.244Z</time></trkpt><trkpt lat="45.8686902" lon="13.9851217"><ele>424.5</ele><time>2026-04-08T08:45:39.238Z</time></trkpt><trkpt lat="45.8688354" lon="13.9851343"><ele>421.25</ele><time>2026-04-08T08:45:40.253Z</time></trkpt><trkpt lat="45.8689732" lon="13.9851199"><ele>418.0</ele><time>2026-04-08T08:45:41.265Z</time></trkpt><trkpt lat="45.8691117" lon="13.9850806"><ele>418.0</ele><time>2026-04-08T08:45:42.238Z</time></trkpt><trkpt lat="45.8692517" lon="13.9850212"><ele>418.0</ele><time>2026-04-08T08:45:43.242Z</time></trkpt><trkpt lat="45.8693912" lon="13.9849494"><ele>418.0</ele><time>2026-04-08T08:45:44.249Z</time></trkpt><trkpt lat="45.8695168" lon="13.9848728"><ele>418.0</ele><time>2026-04-08T08:45:45.268Z</time></trkpt><trkpt lat="45.8696304" lon="13.9847851"><ele>416.0</ele><time>2026-04-08T08:45:46.233Z</time></trkpt><trkpt lat="45.8697372" lon="13.9846812"><ele>414.0</ele><time>2026-04-08T08:45:47.25Z</time></trkpt><trkpt lat="45.8698258" lon="13.9845643"><ele>412.0</ele><time>2026-04-08T08:45:48.239Z</time></trkpt><trkpt lat="45.869911" lon="13.9844567"><ele>410.0</ele><time>2026-04-08T08:45:49.248Z</time></trkpt><trkpt lat="45.8699926" lon="13.9843692"><ele>410.0</ele><time>2026-04-08T08:45:50.241Z</time></trkpt><trkpt lat="45.8700941" lon="13.9843092"><ele>410.0</ele><time>2026-04-08T08:45:51.239Z</time></trkpt><trkpt lat="45.8701998" lon="13.9842782"><ele>410.0</ele><time>2026-04-08T08:45:52.245Z</time></trkpt><trkpt lat="45.8703032" lon="13.9842626"><ele>410.0</ele><time>2026-04-08T08:45:53.244Z</time></trkpt><trkpt lat="45.8704054" lon="13.9842442"><ele>410.0</ele><time>2026-04-08T08:45:54.243Z</time></trkpt><trkpt lat="45.8705198" lon="13.9842198"><ele>410.8</ele><time>2026-04-08T08:45:55.255Z</time></trkpt><trkpt lat="45.8706462" lon="13.9841972"><ele>411.6</ele><time>2026-04-08T08:45:56.243Z</time></trkpt><trkpt lat="45.8707587" lon="13.9841811"><ele>412.4</ele><time>2026-04-08T08:45:57.246Z</time></trkpt><trkpt lat="45.870858" lon="13.9841797"><ele>413.2</ele><time>2026-04-08T08:45:58.233Z</time></trkpt><trkpt lat="45.8709413" lon="13.9841809"><ele>414.0</ele><time>2026-04-08T08:45:59.259Z</time></trkpt><trkpt lat="45.8710183" lon="13.9841772"><ele>414.0</ele><time>2026-04-08T08:46:00.241Z</time></trkpt><trkpt lat="45.8710991" lon="13.9841764"><ele>414.0</ele><time>2026-04-08T08:46:01.251Z</time></trkpt><trkpt lat="45.8711761" lon="13.9841735"><ele>414.0</ele><time>2026-04-08T08:46:02.25Z</time></trkpt><trkpt lat="45.8712564" lon="13.9841744"><ele>414.0</ele><time>2026-04-08T08:46:03.239Z</time></trkpt><trkpt lat="45.8713402" lon="13.9841779"><ele>414.0</ele><time>2026-04-08T08:46:04.246Z</time></trkpt><trkpt lat="45.8714259" lon="13.9841937"><ele>414.0</ele><time>2026-04-08T08:46:05.232Z</time></trkpt><trkpt lat="45.871531" lon="13.9842001"><ele>410.0</ele><time>2026-04-08T08:46:06.248Z</time></trkpt><trkpt lat="45.8716455" lon="13.9841891"><ele>406.0</ele><time>2026-04-08T08:46:07.246Z</time></trkpt><trkpt lat="45.8717819" lon="13.9841752"><ele>402.0</ele><time>2026-04-08T08:46:08.243Z</time></trkpt><trkpt lat="45.8719206" lon="13.9841449"><ele>398.0</ele><time>2026-04-08T08:46:09.246Z</time></trkpt><trkpt lat="45.8720594" lon="13.9841021"><ele>398.0</ele><time>2026-04-08T08:46:10.23Z</time></trkpt><trkpt lat="45.8721928" lon="13.9840488"><ele>398.0</ele><time>2026-04-08T08:46:11.234Z</time></trkpt><trkpt lat="45.8723155" lon="13.983993"><ele>398.0</ele><time>2026-04-08T08:46:12.237Z</time></trkpt><trkpt lat="45.8724231" lon="13.9839317"><ele>398.0</ele><time>2026-04-08T08:46:13.243Z</time></trkpt><trkpt lat="45.8725301" lon="13.9838526"><ele>392.25</ele><time>2026-04-08T08:46:14.236Z</time></trkpt><trkpt lat="45.8726315" lon="13.9837591"><ele>386.5</ele><time>2026-04-08T08:46:15.232Z</time></trkpt><trkpt lat="45.8727311" lon="13.9836498"><ele>380.75</ele><time>2026-04-08T08:46:16.253Z</time></trkpt><trkpt lat="45.8728299" lon="13.9835421"><ele>375.0</ele><time>2026-04-08T08:46:17.24Z</time></trkpt><trkpt lat="45.8729063" lon="13.9834505"><ele>375.0</ele><time>2026-04-08T08:46:18.243Z</time></trkpt><trkpt lat="45.8729576" lon="13.9833837"><ele>375.0</ele><time>2026-04-08T08:46:19.234Z</time></trkpt><trkpt lat="45.8730442" lon="13.9833432"><ele>375.0</ele><time>2026-04-08T08:46:21.245Z</time></trkpt><trkpt lat="45.8730432" lon="13.9834848"><ele>375.0</ele><time>2026-04-08T08:46:23.243Z</time></trkpt><trkpt lat="45.8729253" lon="13.9836032"><ele>375.0</ele><time>2026-04-08T08:46:25.235Z</time></trkpt><trkpt lat="45.8728499" lon="13.9836796"><ele>375.0</ele><time>2026-04-08T08:46:26.231Z</time></trkpt><trkpt lat="45.8727756" lon="13.983771"><ele>375.0</ele><time>2026-04-08T08:46:27.231Z</time></trkpt><trkpt lat="45.8727057" lon="13.9838819"><ele>375.0</ele><time>2026-04-08T08:46:28.23Z</time></trkpt><trkpt lat="45.8725632" lon="13.9841066"><ele>375.0</ele><time>2026-04-08T08:46:30.237Z</time></trkpt><trkpt lat="45.8724839" lon="13.9842088"><ele>374.0</ele><time>2026-04-08T08:46:31.253Z</time></trkpt><trkpt lat="45.8724039" lon="13.9842943"><ele>373.0</ele><time>2026-04-08T08:46:32.241Z</time></trkpt><trkpt lat="45.8723193" lon="13.9843784"><ele>372.0</ele><time>2026-04-08T08:46:33.226Z</time></trkpt><trkpt lat="45.8722282" lon="13.9844699"><ele>371.0</ele><time>2026-04-08T08:46:34.241Z</time></trkpt><trkpt lat="45.87214" lon="13.9845511"><ele>370.0</ele><time>2026-04-08T08:46:35.237Z</time></trkpt><trkpt lat="45.8720513" lon="13.9846421"><ele>370.0</ele><time>2026-04-08T08:46:36.235Z</time></trkpt><trkpt lat="45.8719652" lon="13.9847428"><ele>370.0</ele><time>2026-04-08T08:46:37.234Z</time></trkpt><trkpt lat="45.8718862" lon="13.9848454"><ele>370.0</ele><time>2026-04-08T08:46:38.243Z</time></trkpt><trkpt lat="45.8718048" lon="13.9849485"><ele>370.0</ele><time>2026-04-08T08:46:39.23Z</time></trkpt><trkpt lat="45.8717199" lon="13.9850454"><ele>370.0</ele><time>2026-04-08T08:46:40.233Z</time></trkpt><trkpt lat="45.8716273" lon="13.9851262"><ele>369.25</ele><time>2026-04-08T08:46:41.238Z</time></trkpt><trkpt lat="45.8715256" lon="13.9851925"><ele>368.5</ele><time>2026-04-08T08:46:42.228Z</time></trkpt><trkpt lat="45.8714214" lon="13.9852388"><ele>367.75</ele><time>2026-04-08T08:46:43.228Z</time></trkpt><trkpt lat="45.8712428" lon="13.9852965"><ele>367.0</ele><time>2026-04-08T08:46:45.24Z</time></trkpt><trkpt lat="45.8711784" lon="13.9853388"><ele>367.0</ele><time>2026-04-08T08:46:46.227Z</time></trkpt><trkpt lat="45.8711309" lon="13.9855281"><ele>367.0</ele><time>2026-04-08T08:46:48.245Z</time></trkpt><trkpt lat="45.8711355" lon="13.985652"><ele>367.0</ele><time>2026-04-08T08:46:49.237Z</time></trkpt><trkpt lat="45.8711528" lon="13.9857607"><ele>367.0</ele><time>2026-04-08T08:46:50.235Z</time></trkpt><trkpt lat="45.8711869" lon="13.9858757"><ele>367.0</ele><time>2026-04-08T08:46:51.239Z</time></trkpt><trkpt lat="45.8712421" lon="13.9859963"><ele>366.8</ele><time>2026-04-08T08:46:52.227Z</time></trkpt><trkpt lat="45.8713143" lon="13.9860929"><ele>366.6</ele><time>2026-04-08T08:46:53.232Z</time></trkpt><trkpt lat="45.8713984" lon="13.986171"><ele>366.40000000000003</ele><time>2026-04-08T08:46:54.241Z</time></trkpt><trkpt lat="45.8714913" lon="13.9862432"><ele>366.20000000000005</ele><time>2026-04-08T08:46:55.233Z</time></trkpt><trkpt lat="45.8715927" lon="13.9863187"><ele>366.0</ele><time>2026-04-08T08:46:56.225Z</time></trkpt><trkpt lat="45.8717046" lon="13.9863959"><ele>364.0</ele><time>2026-04-08T08:46:57.232Z</time></trkpt><trkpt lat="45.8718118" lon="13.9864744"><ele>362.0</ele><time>2026-04-08T08:46:58.228Z</time></trkpt><trkpt lat="45.871916" lon="13.9865514"><ele>360.0</ele><time>2026-04-08T08:46:59.221Z</time></trkpt><trkpt lat="45.8720183" lon="13.9866357"><ele>358.0</ele><time>2026-04-08T08:47:00.216Z</time></trkpt><trkpt lat="45.8721216" lon="13.9867154"><ele>358.0</ele><time>2026-04-08T08:47:01.223Z</time></trkpt><trkpt lat="45.8722225" lon="13.9867914"><ele>358.0</ele><time>2026-04-08T08:47:02.224Z</time></trkpt><trkpt lat="45.8723246" lon="13.9868545"><ele>358.0</ele><time>2026-04-08T08:47:03.221Z</time></trkpt><trkpt lat="45.872422" lon="13.9869212"><ele>358.0</ele><time>2026-04-08T08:47:04.235Z</time></trkpt><trkpt lat="45.8725145" lon="13.9869941"><ele>358.0</ele><time>2026-04-08T08:47:05.22Z</time></trkpt><trkpt lat="45.8726129" lon="13.9870858"><ele>355.0</ele><time>2026-04-08T08:47:06.23Z</time></trkpt><trkpt lat="45.8727114" lon="13.9871983"><ele>352.0</ele><time>2026-04-08T08:47:07.223Z</time></trkpt><trkpt lat="45.8728079" lon="13.987301"><ele>349.0</ele><time>2026-04-08T08:47:08.224Z</time></trkpt><trkpt lat="45.8728959" lon="13.9873842"><ele>346.0</ele><time>2026-04-08T08:47:09.221Z</time></trkpt><trkpt lat="45.8729925" lon="13.9874603"><ele>347.4</ele><time>2026-04-08T08:47:10.214Z</time></trkpt><trkpt lat="45.8730908" lon="13.9875243"><ele>348.8</ele><time>2026-04-08T08:47:11.217Z</time></trkpt><trkpt lat="45.8731847" lon="13.9875824"><ele>350.2</ele><time>2026-04-08T08:47:12.226Z</time></trkpt><trkpt lat="45.8732812" lon="13.9876446"><ele>351.59999999999997</ele><time>2026-04-08T08:47:13.217Z</time></trkpt><trkpt lat="45.8733732" lon="13.9877041"><ele>353.0</ele><time>2026-04-08T08:47:14.221Z</time></trkpt><trkpt lat="45.8734564" lon="13.9877646"><ele>350.6666666666667</ele><time>2026-04-08T08:47:15.221Z</time></trkpt><trkpt lat="45.8735185" lon="13.9878509"><ele>348.33333333333337</ele><time>2026-04-08T08:47:16.215Z</time></trkpt><trkpt lat="45.873586" lon="13.9879317"><ele>346.0</ele><time>2026-04-08T08:47:17.219Z</time></trkpt><trkpt lat="45.8736604" lon="13.9879926"><ele>343.6666666666667</ele><time>2026-04-08T08:47:18.235Z</time></trkpt><trkpt lat="45.8737378" lon="13.9880439"><ele>341.3333333333333</ele><time>2026-04-08T08:47:19.214Z</time></trkpt><trkpt lat="45.873819" lon="13.9880832"><ele>339.0</ele><time>2026-04-08T08:47:20.217Z</time></trkpt><trkpt lat="45.8739003" lon="13.9881175"><ele>339.0</ele><time>2026-04-08T08:47:21.224Z</time></trkpt><trkpt lat="45.8739783" lon="13.9881438"><ele>339.0</ele><time>2026-04-08T08:47:22.219Z</time></trkpt><trkpt lat="45.8740467" lon="13.9881933"><ele>339.0</ele><time>2026-04-08T08:47:23.221Z</time></trkpt><trkpt lat="45.8741092" lon="13.9882626"><ele>339.0</ele><time>2026-04-08T08:47:24.215Z</time></trkpt><trkpt lat="45.8741683" lon="13.9883343"><ele>339.0</ele><time>2026-04-08T08:47:25.222Z</time></trkpt><trkpt lat="45.8742355" lon="13.9883964"><ele>339.0</ele><time>2026-04-08T08:47:26.214Z</time></trkpt><trkpt lat="45.8743136" lon="13.9884526"><ele>337.8333333333333</ele><time>2026-04-08T08:47:27.215Z</time></trkpt><trkpt lat="45.8743933" lon="13.9885115"><ele>336.6666666666667</ele><time>2026-04-08T08:47:28.222Z</time></trkpt><trkpt lat="45.8744737" lon="13.9885617"><ele>335.5</ele><time>2026-04-08T08:47:29.214Z</time></trkpt><trkpt lat="45.8745556" lon="13.9886105"><ele>334.33333333333337</ele><time>2026-04-08T08:47:30.217Z</time></trkpt><trkpt lat="45.8746202" lon="13.9886641"><ele>333.1666666666667</ele><time>2026-04-08T08:47:31.223Z</time></trkpt><trkpt lat="45.8746776" lon="13.9887272"><ele>332.0</ele><time>2026-04-08T08:47:32.215Z</time></trkpt><trkpt lat="45.8747607" lon="13.9888184"><ele>332.0</ele><time>2026-04-08T08:47:34.22Z</time></trkpt><trkpt lat="45.8748457" lon="13.9888221"><ele>332.0</ele><time>2026-04-08T08:47:36.217Z</time></trkpt><trkpt lat="45.8749273" lon="13.9887159"><ele>332.0</ele><time>2026-04-08T08:47:38.215Z</time></trkpt><trkpt lat="45.8749765" lon="13.9886009"><ele>332.0</ele><time>2026-04-08T08:47:39.209Z</time></trkpt><trkpt lat="45.8750265" lon="13.9884715"><ele>332.0</ele><time>2026-04-08T08:47:40.224Z</time></trkpt><trkpt lat="45.8750873" lon="13.9883441"><ele>333.0</ele><time>2026-04-08T08:47:41.219Z</time></trkpt><trkpt lat="45.8751592" lon="13.9882156"><ele>334.0</ele><time>2026-04-08T08:47:42.21Z</time></trkpt><trkpt lat="45.8752589" lon="13.9881154"><ele>335.0</ele><time>2026-04-08T08:47:43.211Z</time></trkpt><trkpt lat="45.8753758" lon="13.9880595"><ele>336.0</ele><time>2026-04-08T08:47:44.222Z</time></trkpt><trkpt lat="45.8754824" lon="13.987998"><ele>336.0</ele><time>2026-04-08T08:47:45.211Z</time></trkpt><trkpt lat="45.8755753" lon="13.987902"><ele>336.0</ele><time>2026-04-08T08:47:46.218Z</time></trkpt><trkpt lat="45.8756371" lon="13.9877263"><ele>336.0</ele><time>2026-04-08T08:47:47.216Z</time></trkpt><trkpt lat="45.8756785" lon="13.9875381"><ele>336.0</ele><time>2026-04-08T08:47:48.224Z</time></trkpt><trkpt lat="45.8756974" lon="13.9873837"><ele>336.0</ele><time>2026-04-08T08:47:49.21Z</time></trkpt><trkpt lat="45.8757096" lon="13.9872358"><ele>336.0</ele><time>2026-04-08T08:47:50.208Z</time></trkpt><trkpt lat="45.87574" lon="13.9870847"><ele>336.0</ele><time>2026-04-08T08:47:51.212Z</time></trkpt><trkpt lat="45.8757795" lon="13.9869405"><ele>336.0</ele><time>2026-04-08T08:47:52.213Z</time></trkpt><trkpt lat="45.8758357" lon="13.9868086"><ele>336.0</ele><time>2026-04-08T08:47:53.225Z</time></trkpt><trkpt lat="45.875926" lon="13.9866879"><ele>338.75</ele><time>2026-04-08T08:47:54.212Z</time></trkpt><trkpt lat="45.8760374" lon="13.9865919"><ele>341.5</ele><time>2026-04-08T08:47:55.207Z</time></trkpt><trkpt lat="45.8761624" lon="13.9864921"><ele>344.25</ele><time>2026-04-08T08:47:56.211Z</time></trkpt><trkpt lat="45.8762709" lon="13.9863916"><ele>347.0</ele><time>2026-04-08T08:47:57.21Z</time></trkpt><trkpt lat="45.8763532" lon="13.9862786"><ele>347.0</ele><time>2026-04-08T08:47:58.21Z</time></trkpt><trkpt lat="45.8764241" lon="13.9861483"><ele>347.0</ele><time>2026-04-08T08:47:59.221Z</time></trkpt><trkpt lat="45.8764919" lon="13.9859907"><ele>347.0</ele><time>2026-04-08T08:48:00.209Z</time></trkpt><trkpt lat="45.8765636" lon="13.9858248"><ele>347.0</ele><time>2026-04-08T08:48:01.215Z</time></trkpt><trkpt lat="45.8766611" lon="13.9856634"><ele>345.0</ele><time>2026-04-08T08:48:02.213Z</time></trkpt><trkpt lat="45.8767782" lon="13.9854991"><ele>343.0</ele><time>2026-04-08T08:48:03.207Z</time></trkpt><trkpt lat="45.8769027" lon="13.9853564"><ele>341.0</ele><time>2026-04-08T08:48:04.208Z</time></trkpt><trkpt lat="45.8770244" lon="13.9852337"><ele>341.0</ele><time>2026-04-08T08:48:05.219Z</time></trkpt><trkpt lat="45.8771555" lon="13.9851408"><ele>341.0</ele><time>2026-04-08T08:48:06.217Z</time></trkpt><trkpt lat="45.8772862" lon="13.9850818"><ele>341.0</ele><time>2026-04-08T08:48:07.205Z</time></trkpt><trkpt lat="45.8774164" lon="13.9850584"><ele>341.0</ele><time>2026-04-08T08:48:08.228Z</time></trkpt><trkpt lat="45.8775352" lon="13.9850136"><ele>346.75</ele><time>2026-04-08T08:48:09.229Z</time></trkpt><trkpt lat="45.8776509" lon="13.9849407"><ele>352.5</ele><time>2026-04-08T08:48:10.209Z</time></trkpt><trkpt lat="45.8777522" lon="13.9848386"><ele>358.25</ele><time>2026-04-08T08:48:11.22Z</time></trkpt><trkpt lat="45.8778244" lon="13.9847163"><ele>364.0</ele><time>2026-04-08T08:48:12.202Z</time></trkpt><trkpt lat="45.8778328" lon="13.9845155"><ele>364.0</ele><time>2026-04-08T08:48:13.205Z</time></trkpt><trkpt lat="45.8777993" lon="13.9842993"><ele>364.0</ele><time>2026-04-08T08:48:14.196Z</time></trkpt><trkpt lat="45.8777207" lon="13.9841098"><ele>364.0</ele><time>2026-04-08T08:48:15.202Z</time></trkpt><trkpt lat="45.8776292" lon="13.9839343"><ele>355.25</ele><time>2026-04-08T08:48:16.218Z</time></trkpt><trkpt lat="45.8775631" lon="13.9837732"><ele>346.5</ele><time>2026-04-08T08:48:17.205Z</time></trkpt><trkpt lat="45.8775203" lon="13.9836104"><ele>337.75</ele><time>2026-04-08T08:48:18.199Z</time></trkpt><trkpt lat="45.8775045" lon="13.9834242"><ele>329.0</ele><time>2026-04-08T08:48:19.206Z</time></trkpt><trkpt lat="45.8775383" lon="13.9830499"><ele>328.0</ele><time>2026-04-08T08:48:21.2Z</time></trkpt><trkpt lat="45.8775172" lon="13.9828826"><ele>327.0</ele><time>2026-04-08T08:48:22.211Z</time></trkpt><trkpt lat="45.8774634" lon="13.9827075"><ele>326.0</ele><time>2026-04-08T08:48:23.2Z</time></trkpt><trkpt lat="45.8773996" lon="13.9825118"><ele>325.0</ele><time>2026-04-08T08:48:24.199Z</time></trkpt><trkpt lat="45.8773632" lon="13.9823293"><ele>324.75</ele><time>2026-04-08T08:48:25.218Z</time></trkpt><trkpt lat="45.877362" lon="13.9821475"><ele>324.5</ele><time>2026-04-08T08:48:26.205Z</time></trkpt><trkpt lat="45.8773884" lon="13.9819659"><ele>324.25</ele><time>2026-04-08T08:48:27.199Z</time></trkpt><trkpt lat="45.8774257" lon="13.981774"><ele>324.0</ele><time>2026-04-08T08:48:28.196Z</time></trkpt><trkpt lat="45.8774478" lon="13.9815796"><ele>324.0</ele><time>2026-04-08T08:48:29.198Z</time></trkpt><trkpt lat="45.877434" lon="13.9813612"><ele>324.0</ele><time>2026-04-08T08:48:30.211Z</time></trkpt><trkpt lat="45.8773729" lon="13.9811401"><ele>324.0</ele><time>2026-04-08T08:48:31.202Z</time></trkpt><trkpt lat="45.8773151" lon="13.9809216"><ele>324.3333333333333</ele><time>2026-04-08T08:48:32.196Z</time></trkpt><trkpt lat="45.8772683" lon="13.9806928"><ele>324.66666666666663</ele><time>2026-04-08T08:48:33.205Z</time></trkpt><trkpt lat="45.8772093" lon="13.980442"><ele>325.0</ele><time>2026-04-08T08:48:34.2Z</time></trkpt><trkpt lat="45.87714" lon="13.9801832"><ele>324.66666666666663</ele><time>2026-04-08T08:48:35.19Z</time></trkpt><trkpt lat="45.8770597" lon="13.9799259"><ele>324.3333333333333</ele><time>2026-04-08T08:48:36.2Z</time></trkpt><trkpt lat="45.8769854" lon="13.9796917"><ele>324.0</ele><time>2026-04-08T08:48:37.201Z</time></trkpt><trkpt lat="45.8769361" lon="13.979512"><ele>324.0</ele><time>2026-04-08T08:48:38.211Z</time></trkpt><trkpt lat="45.8769154" lon="13.9793336"><ele>324.0</ele><time>2026-04-08T08:48:39.198Z</time></trkpt><trkpt lat="45.8769236" lon="13.979146"><ele>324.0</ele><time>2026-04-08T08:48:40.207Z</time></trkpt><trkpt lat="45.8769236" lon="13.9789415"><ele>324.0</ele><time>2026-04-08T08:48:41.191Z</time></trkpt><trkpt lat="45.8768917" lon="13.9787662"><ele>325.0</ele><time>2026-04-08T08:48:42.231Z</time></trkpt><trkpt lat="45.8768208" lon="13.9786313"><ele>326.0</ele><time>2026-04-08T08:48:43.205Z</time></trkpt><trkpt lat="45.8767172" lon="13.9785023"><ele>327.0</ele><time>2026-04-08T08:48:44.211Z</time></trkpt><trkpt lat="45.8765996" lon="13.97834"><ele>328.0</ele><time>2026-04-08T08:48:45.205Z</time></trkpt><trkpt lat="45.8764936" lon="13.9781372"><ele>329.3333333333333</ele><time>2026-04-08T08:48:46.199Z</time></trkpt><trkpt lat="45.8763873" lon="13.9778909"><ele>330.6666666666667</ele><time>2026-04-08T08:48:47.195Z</time></trkpt><trkpt lat="45.8762638" lon="13.9776473"><ele>332.0</ele><time>2026-04-08T08:48:48.195Z</time></trkpt><trkpt lat="45.876144" lon="13.977414"><ele>332.0</ele><time>2026-04-08T08:48:49.215Z</time></trkpt><trkpt lat="45.8760298" lon="13.9772182"><ele>332.0</ele><time>2026-04-08T08:48:50.195Z</time></trkpt><trkpt lat="45.8759138" lon="13.9770498"><ele>332.0</ele><time>2026-04-08T08:48:51.296Z</time></trkpt><trkpt lat="45.875796" lon="13.9769098"><ele>328.33333333333337</ele><time>2026-04-08T08:48:52.296Z</time></trkpt><trkpt lat="45.8756042" lon="13.9767352"><ele>324.6666666666667</ele><time>2026-04-08T08:48:54.193Z</time></trkpt><trkpt lat="45.8755457" lon="13.9766151"><ele>321.0</ele><time>2026-04-08T08:48:55.198Z</time></trkpt><trkpt lat="45.8755322" lon="13.9764422"><ele>321.0</ele><time>2026-04-08T08:48:56.194Z</time></trkpt><trkpt lat="45.8755434" lon="13.9762434"><ele>321.0</ele><time>2026-04-08T08:48:57.303Z</time></trkpt><trkpt lat="45.8755544" lon="13.9760154"><ele>321.0</ele><time>2026-04-08T08:48:58.294Z</time></trkpt><trkpt lat="45.8755544" lon="13.9757782"><ele>322.0</ele><time>2026-04-08T08:48:59.293Z</time></trkpt><trkpt lat="45.8755623" lon="13.9755495"><ele>323.0</ele><time>2026-04-08T08:49:00.196Z</time></trkpt><trkpt lat="45.875577" lon="13.9753367"><ele>324.0</ele><time>2026-04-08T08:49:01.188Z</time></trkpt><trkpt lat="45.8756136" lon="13.9751456"><ele>325.0</ele><time>2026-04-08T08:49:02.196Z</time></trkpt><trkpt lat="45.875678" lon="13.9749778"><ele>322.3333333333333</ele><time>2026-04-08T08:49:03.304Z</time></trkpt><trkpt lat="45.875768" lon="13.9748063"><ele>319.6666666666667</ele><time>2026-04-08T08:49:04.286Z</time></trkpt><trkpt lat="45.8758701" lon="13.9746137"><ele>317.0</ele><time>2026-04-08T08:49:05.29Z</time></trkpt><trkpt lat="45.8759748" lon="13.9744201"><ele>319.33333333333337</ele><time>2026-04-08T08:49:06.302Z</time></trkpt><trkpt lat="45.8760766" lon="13.9742319"><ele>321.6666666666667</ele><time>2026-04-08T08:49:07.307Z</time></trkpt><trkpt lat="45.8761659" lon="13.9740515"><ele>324.0</ele><time>2026-04-08T08:49:08.293Z</time></trkpt><trkpt lat="45.876237" lon="13.9738766"><ele>324.0</ele><time>2026-04-08T08:49:09.287Z</time></trkpt><trkpt lat="45.8762845" lon="13.9736972"><ele>324.0</ele><time>2026-04-08T08:49:10.296Z</time></trkpt><trkpt lat="45.8762976" lon="13.9735232"><ele>324.0</ele><time>2026-04-08T08:49:11.295Z</time></trkpt><trkpt lat="45.8762557" lon="13.9733683"><ele>324.0</ele><time>2026-04-08T08:49:12.29Z</time></trkpt><trkpt lat="45.8761932" lon="13.9732357"><ele>323.5</ele><time>2026-04-08T08:49:13.306Z</time></trkpt><trkpt lat="45.8761402" lon="13.9731279"><ele>323.0</ele><time>2026-04-08T08:49:14.301Z</time></trkpt><trkpt lat="45.8761204" lon="13.972947"><ele>322.5</ele><time>2026-04-08T08:49:16.287Z</time></trkpt><trkpt lat="45.8761032" lon="13.9728032"><ele>322.0</ele><time>2026-04-08T08:49:17.281Z</time></trkpt><trkpt lat="45.8760709" lon="13.972618"><ele>324.25</ele><time>2026-04-08T08:49:18.285Z</time></trkpt><trkpt lat="45.8760356" lon="13.9724304"><ele>326.5</ele><time>2026-04-08T08:49:19.285Z</time></trkpt><trkpt lat="45.8760072" lon="13.9722215"><ele>328.75</ele><time>2026-04-08T08:49:20.291Z</time></trkpt><trkpt lat="45.875968" lon="13.9720203"><ele>331.0</ele><time>2026-04-08T08:49:21.292Z</time></trkpt><trkpt lat="45.8759165" lon="13.9718356"><ele>324.0</ele><time>2026-04-08T08:49:22.282Z</time></trkpt><trkpt lat="45.8757129" lon="13.9714775"><ele>317.0</ele><time>2026-04-08T08:49:24.283Z</time></trkpt><trkpt lat="45.8756045" lon="13.9712956"><ele>317.0</ele><time>2026-04-08T08:49:25.289Z</time></trkpt><trkpt lat="45.8755133" lon="13.9711232"><ele>317.0</ele><time>2026-04-08T08:49:26.302Z</time></trkpt><trkpt lat="45.8754246" lon="13.9709684"><ele>317.0</ele><time>2026-04-08T08:49:27.284Z</time></trkpt><trkpt lat="45.8753513" lon="13.9708245"><ele>317.0</ele><time>2026-04-08T08:49:28.283Z</time></trkpt><trkpt lat="45.8753284" lon="13.9706553"><ele>320.33333333333337</ele><time>2026-04-08T08:49:29.285Z</time></trkpt><trkpt lat="45.875351" lon="13.9704407"><ele>323.6666666666667</ele><time>2026-04-08T08:49:30.292Z</time></trkpt><trkpt lat="45.875376" lon="13.9702075"><ele>327.0</ele><time>2026-04-08T08:49:31.291Z</time></trkpt><trkpt lat="45.8753858" lon="13.9700005"><ele>327.0</ele><time>2026-04-08T08:49:32.293Z</time></trkpt><trkpt lat="45.8753762" lon="13.9698516"><ele>327.0</ele><time>2026-04-08T08:49:33.283Z</time></trkpt><trkpt lat="45.8753772" lon="13.9697581"><ele>327.0</ele><time>2026-04-08T08:49:34.282Z</time></trkpt><trkpt lat="45.875507" lon="13.9698577"><ele>327.0</ele><time>2026-04-08T08:49:37.291Z</time></trkpt><trkpt lat="45.8755273" lon="13.9700089"><ele>327.0</ele><time>2026-04-08T08:49:38.289Z</time></trkpt><trkpt lat="45.8755761" lon="13.9701978"><ele>327.0</ele><time>2026-04-08T08:49:39.274Z</time></trkpt><trkpt lat="45.875648" lon="13.9703846"><ele>327.0</ele><time>2026-04-08T08:49:40.28Z</time></trkpt><trkpt lat="45.8757308" lon="13.9705483"><ele>327.0</ele><time>2026-04-08T08:49:41.281Z</time></trkpt><trkpt lat="45.8758558" lon="13.970735"><ele>327.0</ele><time>2026-04-08T08:49:43.284Z</time></trkpt><trkpt lat="45.8759274" lon="13.9706642"><ele>327.0</ele><time>2026-04-08T08:49:45.284Z</time></trkpt><trkpt lat="45.8759271" lon="13.9705244"><ele>327.0</ele><time>2026-04-08T08:49:46.287Z</time></trkpt><trkpt lat="45.8758746" lon="13.9703822"><ele>327.0</ele><time>2026-04-08T08:49:47.279Z</time></trkpt><trkpt lat="45.8758473" lon="13.970229"><ele>327.0</ele><time>2026-04-08T08:49:48.277Z</time></trkpt><trkpt lat="45.8758689" lon="13.9700538"><ele>328.5</ele><time>2026-04-08T08:49:49.285Z</time></trkpt><trkpt lat="45.8758995" lon="13.9698454"><ele>330.0</ele><time>2026-04-08T08:49:50.289Z</time></trkpt><trkpt lat="45.8758948" lon="13.9696616"><ele>331.5</ele><time>2026-04-08T08:49:51.282Z</time></trkpt><trkpt lat="45.87585" lon="13.969508"><ele>333.0</ele><time>2026-04-08T08:49:52.281Z</time></trkpt><trkpt lat="45.8758292" lon="13.9694026"><ele>333.0</ele><time>2026-04-08T08:49:53.284Z</time></trkpt><trkpt lat="45.875929" lon="13.9693485"><ele>333.0</ele><time>2026-04-08T08:49:55.287Z</time></trkpt><trkpt lat="45.8759923" lon="13.9694185"><ele>333.0</ele><time>2026-04-08T08:49:56.29Z</time></trkpt><trkpt lat="45.8760557" lon="13.9695538"><ele>333.0</ele><time>2026-04-08T08:49:57.289Z</time></trkpt><trkpt lat="45.8761374" lon="13.9697205"><ele>333.0</ele><time>2026-04-08T08:49:58.273Z</time></trkpt><trkpt lat="45.8762261" lon="13.969894"><ele>336.0</ele><time>2026-04-08T08:49:59.282Z</time></trkpt><trkpt lat="45.8763363" lon="13.9700743"><ele>339.0</ele><time>2026-04-08T08:50:00.274Z</time></trkpt><trkpt lat="45.8764694" lon="13.9702515"><ele>342.0</ele><time>2026-04-08T08:50:01.27Z</time></trkpt><trkpt lat="45.8766133" lon="13.9704186"><ele>345.6666666666667</ele><time>2026-04-08T08:50:02.277Z</time></trkpt><trkpt lat="45.8767703" lon="13.9705831"><ele>349.33333333333337</ele><time>2026-04-08T08:50:03.283Z</time></trkpt><trkpt lat="45.876929" lon="13.9707472"><ele>353.0</ele><time>2026-04-08T08:50:04.269Z</time></trkpt><trkpt lat="45.8770836" lon="13.9709256"><ele>353.0</ele><time>2026-04-08T08:50:05.271Z</time></trkpt><trkpt lat="45.8772356" lon="13.9711068"><ele>353.0</ele><time>2026-04-08T08:50:06.284Z</time></trkpt><trkpt lat="45.8773797" lon="13.9712852"><ele>353.0</ele><time>2026-04-08T08:50:07.302Z</time></trkpt><trkpt lat="45.8775146" lon="13.9714807"><ele>359.0</ele><time>2026-04-08T08:50:08.312Z</time></trkpt><trkpt lat="45.877629" lon="13.9717068"><ele>365.0</ele><time>2026-04-08T08:50:09.301Z</time></trkpt><trkpt lat="45.8777412" lon="13.9719429"><ele>371.0</ele><time>2026-04-08T08:50:10.267Z</time></trkpt><trkpt lat="45.8778663" lon="13.9721794"><ele>371.0</ele><time>2026-04-08T08:50:11.285Z</time></trkpt><trkpt lat="45.8780018" lon="13.9723922"><ele>371.0</ele><time>2026-04-08T08:50:12.277Z</time></trkpt><trkpt lat="45.8781211" lon="13.9725866"><ele>371.0</ele><time>2026-04-08T08:50:13.293Z</time></trkpt><trkpt lat="45.8782142" lon="13.9727684"><ele>369.5</ele><time>2026-04-08T08:50:14.266Z</time></trkpt><trkpt lat="45.8783341" lon="13.973069"><ele>368.0</ele><time>2026-04-08T08:50:16.278Z</time></trkpt><trkpt lat="45.8783768" lon="13.9731694"><ele>366.5</ele><time>2026-04-08T08:50:17.264Z</time></trkpt><trkpt lat="45.8784881" lon="13.9731766"><ele>365.0</ele><time>2026-04-08T08:50:19.273Z</time></trkpt><trkpt lat="45.8785143" lon="13.9730933"><ele>366.5</ele><time>2026-04-08T08:50:20.283Z</time></trkpt><trkpt lat="45.8785157" lon="13.9729742"><ele>368.0</ele><time>2026-04-08T08:50:21.286Z</time></trkpt><trkpt lat="45.8784944" lon="13.9728012"><ele>369.5</ele><time>2026-04-08T08:50:22.272Z</time></trkpt><trkpt lat="45.878461" lon="13.9726007"><ele>371.0</ele><time>2026-04-08T08:50:23.271Z</time></trkpt><trkpt lat="45.8784286" lon="13.9723784"><ele>371.0</ele><time>2026-04-08T08:50:24.278Z</time></trkpt><trkpt lat="45.8783935" lon="13.9721251"><ele>371.0</ele><time>2026-04-08T08:50:25.276Z</time></trkpt><trkpt lat="45.878362" lon="13.971853"><ele>371.0</ele><time>2026-04-08T08:50:26.291Z</time></trkpt><trkpt lat="45.8783338" lon="13.9715752"><ele>372.6666666666667</ele><time>2026-04-08T08:50:27.27Z</time></trkpt><trkpt lat="45.8782917" lon="13.9712982"><ele>374.3333333333333</ele><time>2026-04-08T08:50:28.275Z</time></trkpt><trkpt lat="45.8782325" lon="13.9710508"><ele>376.0</ele><time>2026-04-08T08:50:29.267Z</time></trkpt><trkpt lat="45.878181" lon="13.9708539"><ele>376.0</ele><time>2026-04-08T08:50:30.27Z</time></trkpt><trkpt lat="45.8781536" lon="13.9706895"><ele>376.0</ele><time>2026-04-08T08:50:31.278Z</time></trkpt><trkpt lat="45.8781487" lon="13.970574"><ele>376.0</ele><time>2026-04-08T08:50:32.267Z</time></trkpt><trkpt lat="45.8782119" lon="13.9705427"><ele>376.0</ele><time>2026-04-08T08:50:35.279Z</time></trkpt><trkpt lat="45.8782481" lon="13.9706182"><ele>376.0</ele><time>2026-04-08T08:50:36.268Z</time></trkpt><trkpt lat="45.8782748" lon="13.97072"><ele>376.0</ele><time>2026-04-08T08:50:37.295Z</time></trkpt><trkpt lat="45.8783087" lon="13.9708756"><ele>376.0</ele><time>2026-04-08T08:50:38.271Z</time></trkpt><trkpt lat="45.8783753" lon="13.9710772"><ele>376.0</ele><time>2026-04-08T08:50:39.272Z</time></trkpt><trkpt lat="45.878484" lon="13.9713181"><ele>376.0</ele><time>2026-04-08T08:50:40.278Z</time></trkpt><trkpt lat="45.8786047" lon="13.9715792"><ele>385.0</ele><time>2026-04-08T08:50:41.277Z</time></trkpt><trkpt lat="45.87872" lon="13.9718542"><ele>394.0</ele><time>2026-04-08T08:50:42.274Z</time></trkpt><trkpt lat="45.8788249" lon="13.9721242"><ele>403.0</ele><time>2026-04-08T08:50:43.268Z</time></trkpt><trkpt lat="45.8789013" lon="13.9723671"><ele>401.0</ele><time>2026-04-08T08:50:44.262Z</time></trkpt><trkpt lat="45.8789472" lon="13.9725944"><ele>399.0</ele><time>2026-04-08T08:50:45.271Z</time></trkpt><trkpt lat="45.8789689" lon="13.972782"><ele>397.0</ele><time>2026-04-08T08:50:46.27Z</time></trkpt><trkpt lat="45.8789916" lon="13.9728973"><ele>395.0</ele><time>2026-04-08T08:50:47.292Z</time></trkpt><trkpt lat="45.8790716" lon="13.9729707"><ele>395.0</ele><time>2026-04-08T08:50:49.273Z</time></trkpt><trkpt lat="45.8791359" lon="13.9729074"><ele>395.0</ele><time>2026-04-08T08:50:50.271Z</time></trkpt><trkpt lat="45.8791693" lon="13.9728305"><ele>395.0</ele><time>2026-04-08T08:50:51.277Z</time></trkpt><trkpt lat="45.8791583" lon="13.9727234"><ele>395.0</ele><time>2026-04-08T08:50:52.269Z</time></trkpt><trkpt lat="45.8791435" lon="13.9726304"><ele>395.0</ele><time>2026-04-08T08:50:53.267Z</time></trkpt><trkpt lat="45.8791344" lon="13.9725314"><ele>395.0</ele><time>2026-04-08T08:50:54.263Z</time></trkpt><trkpt lat="45.879114" lon="13.9723993"><ele>395.0</ele><time>2026-04-08T08:50:56.275Z</time></trkpt><trkpt lat="45.8790791" lon="13.9723177"><ele>397.0</ele><time>2026-04-08T08:51:19.265Z</time></trkpt><trkpt lat="45.879057" lon="13.9721831"><ele>399.0</ele><time>2026-04-08T08:51:20.273Z</time></trkpt><trkpt lat="45.8790381" lon="13.9719965"><ele>401.0</ele><time>2026-04-08T08:51:21.269Z</time></trkpt><trkpt lat="45.8790159" lon="13.9717673"><ele>403.0</ele><time>2026-04-08T08:51:22.272Z</time></trkpt><trkpt lat="45.8789845" lon="13.9715133"><ele>406.0</ele><time>2026-04-08T08:51:23.282Z</time></trkpt><trkpt lat="45.8789484" lon="13.9712367"><ele>409.0</ele><time>2026-04-08T08:51:24.259Z</time></trkpt><trkpt lat="45.8789065" lon="13.9709682"><ele>412.0</ele><time>2026-04-08T08:51:25.257Z</time></trkpt><trkpt lat="45.8788622" lon="13.9707171"><ele>413.6666666666667</ele><time>2026-04-08T08:51:26.266Z</time></trkpt><trkpt lat="45.8788338" lon="13.9704967"><ele>415.33333333333337</ele><time>2026-04-08T08:51:27.262Z</time></trkpt><trkpt lat="45.8788309" lon="13.9702736"><ele>417.0</ele><time>2026-04-08T08:51:28.257Z</time></trkpt><trkpt lat="45.878851" lon="13.9700159"><ele>419.5</ele><time>2026-04-08T08:51:29.272Z</time></trkpt><trkpt lat="45.8788863" lon="13.9695056"><ele>422.0</ele><time>2026-04-08T08:51:31.249Z</time></trkpt><trkpt lat="45.8788694" lon="13.9693356"><ele>422.0</ele><time>2026-04-08T08:51:32.256Z</time></trkpt><trkpt lat="45.8788201" lon="13.969206"><ele>422.0</ele><time>2026-04-08T08:51:33.253Z</time></trkpt><trkpt lat="45.8787618" lon="13.9690771"><ele>422.0</ele><time>2026-04-08T08:51:34.267Z</time></trkpt><trkpt lat="45.8787599" lon="13.9689502"><ele>422.0</ele><time>2026-04-08T08:51:35.28Z</time></trkpt><trkpt lat="45.8789053" lon="13.9689798"><ele>422.0</ele><time>2026-04-08T08:51:38.258Z</time></trkpt><trkpt lat="45.878975" lon="13.96913"><ele>422.0</ele><time>2026-04-08T08:51:39.256Z</time></trkpt><trkpt lat="45.8790511" lon="13.9693205"><ele>422.0</ele><time>2026-04-08T08:51:40.256Z</time></trkpt><trkpt lat="45.8791374" lon="13.969531"><ele>422.0</ele><time>2026-04-08T08:51:41.271Z</time></trkpt><trkpt lat="45.8791962" lon="13.9697723"><ele>422.0</ele><time>2026-04-08T08:51:42.256Z</time></trkpt><trkpt lat="45.8792332" lon="13.9700154"><ele>422.0</ele><time>2026-04-08T08:51:43.264Z</time></trkpt><trkpt lat="45.8792624" lon="13.9702145"><ele>422.0</ele><time>2026-04-08T08:51:44.251Z</time></trkpt><trkpt lat="45.8792946" lon="13.9703414"><ele>422.0</ele><time>2026-04-08T08:51:45.275Z</time></trkpt><trkpt lat="45.8793786" lon="13.9703414"><ele>429.75</ele><time>2026-04-08T08:51:47.26Z</time></trkpt><trkpt lat="45.8794131" lon="13.9702209"><ele>437.5</ele><time>2026-04-08T08:51:48.251Z</time></trkpt><trkpt lat="45.8794437" lon="13.9700647"><ele>445.25</ele><time>2026-04-08T08:51:49.251Z</time></trkpt><trkpt lat="45.8794895" lon="13.9698525"><ele>453.0</ele><time>2026-04-08T08:51:50.253Z</time></trkpt><trkpt lat="45.8795439" lon="13.9696419"><ele>453.25</ele><time>2026-04-08T08:51:51.257Z</time></trkpt><trkpt lat="45.8795933" lon="13.9694524"><ele>453.5</ele><time>2026-04-08T08:51:52.259Z</time></trkpt><trkpt lat="45.8796169" lon="13.9692808"><ele>453.75</ele><time>2026-04-08T08:51:53.269Z</time></trkpt><trkpt lat="45.879601" lon="13.9691062"><ele>454.0</ele><time>2026-04-08T08:51:54.248Z</time></trkpt><trkpt lat="45.8795573" lon="13.9689036"><ele>454.0</ele><time>2026-04-08T08:51:55.251Z</time></trkpt><trkpt lat="45.8795164" lon="13.9686555"><ele>454.0</ele><time>2026-04-08T08:51:56.249Z</time></trkpt><trkpt lat="45.8794952" lon="13.9683868"><ele>454.0</ele><time>2026-04-08T08:51:57.257Z</time></trkpt><trkpt lat="45.8794825" lon="13.9680961"><ele>454.0</ele><time>2026-04-08T08:51:58.257Z</time></trkpt><trkpt lat="45.8794555" lon="13.9677815"><ele>454.0</ele><time>2026-04-08T08:51:59.252Z</time></trkpt><trkpt lat="45.8794171" lon="13.9674624"><ele>454.0</ele><time>2026-04-08T08:52:00.251Z</time></trkpt><trkpt lat="45.8793844" lon="13.9671856"><ele>456.33333333333337</ele><time>2026-04-08T08:52:01.26Z</time></trkpt><trkpt lat="45.8793717" lon="13.9669473"><ele>458.66666666666663</ele><time>2026-04-08T08:52:02.255Z</time></trkpt><trkpt lat="45.8793644" lon="13.9667351"><ele>461.0</ele><time>2026-04-08T08:52:03.255Z</time></trkpt><trkpt lat="45.879345" lon="13.9665316"><ele>463.0</ele><time>2026-04-08T08:52:04.252Z</time></trkpt><trkpt lat="45.8793036" lon="13.9663719"><ele>465.0</ele><time>2026-04-08T08:52:05.265Z</time></trkpt><trkpt lat="45.8792427" lon="13.9662938"><ele>467.0</ele><time>2026-04-08T08:52:06.249Z</time></trkpt><trkpt lat="45.8792028" lon="13.9661752"><ele>469.0</ele><time>2026-04-08T08:52:08.269Z</time></trkpt><trkpt lat="45.879279" lon="13.966181"><ele>471.0</ele><time>2026-04-08T08:52:11.249Z</time></trkpt><trkpt lat="45.8793434" lon="13.966377"><ele>471.0</ele><time>2026-04-08T08:52:13.255Z</time></trkpt><trkpt lat="45.8793919" lon="13.9665295"><ele>471.0</ele><time>2026-04-08T08:52:14.244Z</time></trkpt><trkpt lat="45.8795087" lon="13.966884"><ele>471.0</ele><time>2026-04-08T08:52:16.258Z</time></trkpt><trkpt lat="45.8795802" lon="13.9670862"><ele>466.0</ele><time>2026-04-08T08:52:17.251Z</time></trkpt><trkpt lat="45.8796579" lon="13.9673013"><ele>461.0</ele><time>2026-04-08T08:52:18.24Z</time></trkpt><trkpt lat="45.8798167" lon="13.9677304"><ele>458.66666666666663</ele><time>2026-04-08T08:52:20.247Z</time></trkpt><trkpt lat="45.8798943" lon="13.9679533"><ele>456.33333333333337</ele><time>2026-04-08T08:52:21.244Z</time></trkpt><trkpt lat="45.879975" lon="13.9681756"><ele>454.0</ele><time>2026-04-08T08:52:22.248Z</time></trkpt><trkpt lat="45.8800592" lon="13.9683897"><ele>462.0</ele><time>2026-04-08T08:52:23.246Z</time></trkpt><trkpt lat="45.8801404" lon="13.9686011"><ele>470.0</ele><time>2026-04-08T08:52:24.249Z</time></trkpt><trkpt lat="45.8802272" lon="13.9688082"><ele>478.0</ele><time>2026-04-08T08:52:25.244Z</time></trkpt><trkpt lat="45.8803251" lon="13.9690095"><ele>478.0</ele><time>2026-04-08T08:52:26.26Z</time></trkpt><trkpt lat="45.8804249" lon="13.9692045"><ele>478.0</ele><time>2026-04-08T08:52:27.244Z</time></trkpt><trkpt lat="45.8805052" lon="13.9693863"><ele>478.0</ele><time>2026-04-08T08:52:28.254Z</time></trkpt><trkpt lat="45.8805525" lon="13.9695703"><ele>478.0</ele><time>2026-04-08T08:52:29.254Z</time></trkpt><trkpt lat="45.8805619" lon="13.9700142"><ele>478.0</ele><time>2026-04-08T08:52:31.24Z</time></trkpt><trkpt lat="45.8805551" lon="13.9702469"><ele>477.33333333333337</ele><time>2026-04-08T08:52:32.239Z</time></trkpt><trkpt lat="45.8805534" lon="13.9704827"><ele>476.66666666666663</ele><time>2026-04-08T08:52:33.252Z</time></trkpt><trkpt lat="45.8805574" lon="13.9707149"><ele>476.0</ele><time>2026-04-08T08:52:34.251Z</time></trkpt><trkpt lat="45.88058" lon="13.9709486"><ele>476.0</ele><time>2026-04-08T08:52:35.239Z</time></trkpt><trkpt lat="45.8806385" lon="13.9711703"><ele>476.0</ele><time>2026-04-08T08:52:36.246Z</time></trkpt><trkpt lat="45.8807157" lon="13.9713859"><ele>476.0</ele><time>2026-04-08T08:52:37.25Z</time></trkpt><trkpt lat="45.8808016" lon="13.9715798"><ele>473.0</ele><time>2026-04-08T08:52:38.238Z</time></trkpt><trkpt lat="45.880895" lon="13.9717636"><ele>470.0</ele><time>2026-04-08T08:52:39.243Z</time></trkpt><trkpt lat="45.8809903" lon="13.9719503"><ele>467.0</ele><time>2026-04-08T08:52:40.236Z</time></trkpt><trkpt lat="45.88106" lon="13.9721562"><ele>473.0</ele><time>2026-04-08T08:52:41.245Z</time></trkpt><trkpt lat="45.8811252" lon="13.9723577"><ele>479.0</ele><time>2026-04-08T08:52:42.239Z</time></trkpt><trkpt lat="45.8811935" lon="13.9725467"><ele>485.0</ele><time>2026-04-08T08:52:43.255Z</time></trkpt><trkpt lat="45.8812561" lon="13.972717"><ele>491.0</ele><time>2026-04-08T08:52:44.235Z</time></trkpt><trkpt lat="45.8813162" lon="13.9728828"><ele>491.0</ele><time>2026-04-08T08:52:45.243Z</time></trkpt><trkpt lat="45.8813756" lon="13.9730573"><ele>491.0</ele><time>2026-04-08T08:52:46.245Z</time></trkpt><trkpt lat="45.8814264" lon="13.9732319"><ele>491.0</ele><time>2026-04-08T08:52:47.248Z</time></trkpt><trkpt lat="45.8814715" lon="13.9733826"><ele>491.0</ele><time>2026-04-08T08:52:48.241Z</time></trkpt><trkpt lat="45.8815182" lon="13.9735073"><ele>490.66666666666663</ele><time>2026-04-08T08:52:49.247Z</time></trkpt><trkpt lat="45.8815783" lon="13.9736059"><ele>490.3333333333333</ele><time>2026-04-08T08:52:50.245Z</time></trkpt><trkpt lat="45.881643" lon="13.9736798"><ele>490.0</ele><time>2026-04-08T08:52:51.252Z</time></trkpt><trkpt lat="45.8817025" lon="13.9737415"><ele>489.66666666666663</ele><time>2026-04-08T08:52:52.25Z</time></trkpt><trkpt lat="45.8817597" lon="13.9738012"><ele>489.3333333333333</ele><time>2026-04-08T08:52:53.249Z</time></trkpt><trkpt lat="45.8818097" lon="13.9738704"><ele>489.0</ele><time>2026-04-08T08:52:54.24Z</time></trkpt><trkpt lat="45.881857" lon="13.9739486"><ele>498.0</ele><time>2026-04-08T08:52:55.243Z</time></trkpt><trkpt lat="45.8818967" lon="13.9740552"><ele>507.0</ele><time>2026-04-08T08:52:56.244Z</time></trkpt><trkpt lat="45.8819237" lon="13.9741618"><ele>516.0</ele><time>2026-04-08T08:52:57.247Z</time></trkpt><trkpt lat="45.8819191" lon="13.9742891"><ele>525.0</ele><time>2026-04-08T08:52:58.237Z</time></trkpt><trkpt lat="45.8818763" lon="13.9744429"><ele>534.0</ele><time>2026-04-08T08:52:59.257Z</time></trkpt><trkpt lat="45.8818198" lon="13.9745997"><ele>534.4</ele><time>2026-04-08T08:53:00.242Z</time></trkpt><trkpt lat="45.8817771" lon="13.9747457"><ele>534.8</ele><time>2026-04-08T08:53:01.236Z</time></trkpt><trkpt lat="45.881727" lon="13.9748943"><ele>535.2</ele><time>2026-04-08T08:53:02.232Z</time></trkpt><trkpt lat="45.8816828" lon="13.9750384"><ele>535.6</ele><time>2026-04-08T08:53:03.25Z</time></trkpt><trkpt lat="45.8816439" lon="13.9751897"><ele>536.0</ele><time>2026-04-08T08:53:04.238Z</time></trkpt><trkpt lat="45.8816106" lon="13.9753543"><ele>529.0</ele><time>2026-04-08T08:53:05.245Z</time></trkpt><trkpt lat="45.8815825" lon="13.9755136"><ele>522.0</ele><time>2026-04-08T08:53:06.237Z</time></trkpt><trkpt lat="45.881566" lon="13.9756596"><ele>515.0</ele><time>2026-04-08T08:53:07.236Z</time></trkpt><trkpt lat="45.8815649" lon="13.9757973"><ele>508.0</ele><time>2026-04-08T08:53:08.237Z</time></trkpt><trkpt lat="45.8815961" lon="13.9759303"><ele>501.0</ele><time>2026-04-08T08:53:09.229Z</time></trkpt><trkpt lat="45.8816537" lon="13.976066"><ele>498.66666666666663</ele><time>2026-04-08T08:53:10.251Z</time></trkpt><trkpt lat="45.881746" lon="13.9762137"><ele>496.3333333333333</ele><time>2026-04-08T08:53:11.248Z</time></trkpt><trkpt lat="45.8818594" lon="13.9763849"><ele>494.0</ele><time>2026-04-08T08:53:12.243Z</time></trkpt><trkpt lat="45.8819664" lon="13.9765518"><ele>501.75</ele><time>2026-04-08T08:53:13.251Z</time></trkpt><trkpt lat="45.8820392" lon="13.9767058"><ele>509.5</ele><time>2026-04-08T08:53:14.253Z</time></trkpt><trkpt lat="45.8821064" lon="13.9768577"><ele>517.25</ele><time>2026-04-08T08:53:15.229Z</time></trkpt><trkpt lat="45.8821598" lon="13.9770286"><ele>525.0</ele><time>2026-04-08T08:53:16.256Z</time></trkpt><trkpt lat="45.8822088" lon="13.9772043"><ele>525.0</ele><time>2026-04-08T08:53:17.246Z</time></trkpt><trkpt lat="45.8822533" lon="13.9773822"><ele>525.0</ele><time>2026-04-08T08:53:18.237Z</time></trkpt><trkpt lat="45.882288" lon="13.977571"><ele>525.0</ele><time>2026-04-08T08:53:19.245Z</time></trkpt><trkpt lat="45.8822899" lon="13.9777768"><ele>525.0</ele><time>2026-04-08T08:53:20.236Z</time></trkpt><trkpt lat="45.8822635" lon="13.9779776"><ele>526.25</ele><time>2026-04-08T08:53:21.227Z</time></trkpt><trkpt lat="45.882234" lon="13.9781612"><ele>527.5</ele><time>2026-04-08T08:53:22.23Z</time></trkpt><trkpt lat="45.8821905" lon="13.978331"><ele>528.75</ele><time>2026-04-08T08:53:23.228Z</time></trkpt><trkpt lat="45.8821347" lon="13.9784964"><ele>530.0</ele><time>2026-04-08T08:53:24.234Z</time></trkpt><trkpt lat="45.8820683" lon="13.9786544"><ele>533.5</ele><time>2026-04-08T08:53:25.237Z</time></trkpt><trkpt lat="45.8820008" lon="13.9788163"><ele>537.0</ele><time>2026-04-08T08:53:26.237Z</time></trkpt><trkpt lat="45.8819351" lon="13.9789818"><ele>540.5</ele><time>2026-04-08T08:53:27.243Z</time></trkpt><trkpt lat="45.8818768" lon="13.979143"><ele>544.0</ele><time>2026-04-08T08:53:28.243Z</time></trkpt><trkpt lat="45.8818214" lon="13.9792985"><ele>545.0</ele><time>2026-04-08T08:53:29.232Z</time></trkpt><trkpt lat="45.8817893" lon="13.9794461"><ele>546.0</ele><time>2026-04-08T08:53:30.241Z</time></trkpt><trkpt lat="45.8817857" lon="13.979599"><ele>547.0</ele><time>2026-04-08T08:53:31.24Z</time></trkpt><trkpt lat="45.8818042" lon="13.979761"><ele>548.0</ele><time>2026-04-08T08:53:32.23Z</time></trkpt><trkpt lat="45.8818373" lon="13.979931"><ele>546.0</ele><time>2026-04-08T08:53:33.251Z</time></trkpt><trkpt lat="45.8818728" lon="13.9800966"><ele>544.0</ele><time>2026-04-08T08:53:34.239Z</time></trkpt><trkpt lat="45.8819161" lon="13.9802616"><ele>542.0</ele><time>2026-04-08T08:53:35.23Z</time></trkpt><trkpt lat="45.8819587" lon="13.9804331"><ele>540.0</ele><time>2026-04-08T08:53:36.236Z</time></trkpt><trkpt lat="45.8820071" lon="13.9805976"><ele>540.0</ele><time>2026-04-08T08:53:37.224Z</time></trkpt><trkpt lat="45.8820475" lon="13.9807546"><ele>540.0</ele><time>2026-04-08T08:53:38.242Z</time></trkpt><trkpt lat="45.8820959" lon="13.9809077"><ele>540.0</ele><time>2026-04-08T08:53:39.244Z</time></trkpt><trkpt lat="45.8821555" lon="13.9810618"><ele>540.0</ele><time>2026-04-08T08:53:40.226Z</time></trkpt><trkpt lat="45.882239" lon="13.9812054"><ele>538.25</ele><time>2026-04-08T08:53:41.233Z</time></trkpt><trkpt lat="45.8823302" lon="13.981348"><ele>536.5</ele><time>2026-04-08T08:53:42.238Z</time></trkpt><trkpt lat="45.8824123" lon="13.9814852"><ele>534.75</ele><time>2026-04-08T08:53:43.234Z</time></trkpt><trkpt lat="45.8824848" lon="13.9816254"><ele>533.0</ele><time>2026-04-08T08:53:44.231Z</time></trkpt><trkpt lat="45.8825539" lon="13.9817647"><ele>543.5</ele><time>2026-04-08T08:53:45.237Z</time></trkpt><trkpt lat="45.8826221" lon="13.9819196"><ele>554.0</ele><time>2026-04-08T08:53:46.238Z</time></trkpt><trkpt lat="45.882688" lon="13.9820784"><ele>564.5</ele><time>2026-04-08T08:53:47.25Z</time></trkpt><trkpt lat="45.8827452" lon="13.9822451"><ele>575.0</ele><time>2026-04-08T08:53:48.233Z</time></trkpt><trkpt lat="45.882795" lon="13.982424"><ele>576.3333333333333</ele><time>2026-04-08T08:53:49.233Z</time></trkpt><trkpt lat="45.8828307" lon="13.9826065"><ele>577.6666666666666</ele><time>2026-04-08T08:53:50.237Z</time></trkpt><trkpt lat="45.8828616" lon="13.9827937"><ele>579.0</ele><time>2026-04-08T08:53:51.231Z</time></trkpt><trkpt lat="45.8829037" lon="13.983165"><ele>578.75</ele><time>2026-04-08T08:53:53.23Z</time></trkpt><trkpt lat="45.8829213" lon="13.9833553"><ele>578.5</ele><time>2026-04-08T08:53:54.236Z</time></trkpt><trkpt lat="45.882937" lon="13.9835457"><ele>578.25</ele><time>2026-04-08T08:53:55.241Z</time></trkpt><trkpt lat="45.8829567" lon="13.9837398"><ele>578.0</ele><time>2026-04-08T08:53:56.243Z</time></trkpt><trkpt lat="45.8829724" lon="13.9839345"><ele>578.0</ele><time>2026-04-08T08:53:57.231Z</time></trkpt><trkpt lat="45.8829889" lon="13.9841251"><ele>578.0</ele><time>2026-04-08T08:53:58.226Z</time></trkpt><trkpt lat="45.8830026" lon="13.984315"><ele>578.0</ele><time>2026-04-08T08:53:59.22Z</time></trkpt><trkpt lat="45.8830138" lon="13.9845141"><ele>578.0</ele><time>2026-04-08T08:54:00.228Z</time></trkpt><trkpt lat="45.8830269" lon="13.9847378"><ele>578.25</ele><time>2026-04-08T08:54:01.222Z</time></trkpt><trkpt lat="45.8830422" lon="13.9849552"><ele>578.5</ele><time>2026-04-08T08:54:02.227Z</time></trkpt><trkpt lat="45.8830756" lon="13.9851466"><ele>578.75</ele><time>2026-04-08T08:54:03.23Z</time></trkpt><trkpt lat="45.8831225" lon="13.9853131"><ele>579.0</ele><time>2026-04-08T08:54:04.221Z</time></trkpt><trkpt lat="45.8831748" lon="13.9854849"><ele>577.0</ele><time>2026-04-08T08:54:05.23Z</time></trkpt><trkpt lat="45.8832257" lon="13.9856685"><ele>575.0</ele><time>2026-04-08T08:54:06.228Z</time></trkpt><trkpt lat="45.8832633" lon="13.9858557"><ele>573.0</ele><time>2026-04-08T08:54:07.225Z</time></trkpt><trkpt lat="45.8832862" lon="13.9860522"><ele>571.0</ele><time>2026-04-08T08:54:08.224Z</time></trkpt><trkpt lat="45.8832863" lon="13.9862343"><ele>571.0</ele><time>2026-04-08T08:54:09.232Z</time></trkpt><trkpt lat="45.883273" lon="13.9864124"><ele>571.0</ele><time>2026-04-08T08:54:10.223Z</time></trkpt><trkpt lat="45.8832529" lon="13.9865761"><ele>571.0</ele><time>2026-04-08T08:54:11.23Z</time></trkpt><trkpt lat="45.8832076" lon="13.9867482"><ele>571.0</ele><time>2026-04-08T08:54:12.234Z</time></trkpt><trkpt lat="45.8831417" lon="13.9869209"><ele>577.5</ele><time>2026-04-08T08:54:13.233Z</time></trkpt><trkpt lat="45.8830721" lon="13.987093"><ele>584.0</ele><time>2026-04-08T08:54:14.232Z</time></trkpt><trkpt lat="45.883006" lon="13.9872514"><ele>590.5</ele><time>2026-04-08T08:54:15.237Z</time></trkpt><trkpt lat="45.8829378" lon="13.9874001"><ele>597.0</ele><time>2026-04-08T08:54:16.22Z</time></trkpt><trkpt lat="45.8828619" lon="13.9875439"><ele>593.75</ele><time>2026-04-08T08:54:17.224Z</time></trkpt><trkpt lat="45.882782" lon="13.9876797"><ele>590.5</ele><time>2026-04-08T08:54:18.219Z</time></trkpt><trkpt lat="45.8826841" lon="13.987809"><ele>587.25</ele><time>2026-04-08T08:54:19.225Z</time></trkpt><trkpt lat="45.882581" lon="13.9879323"><ele>584.0</ele><time>2026-04-08T08:54:20.219Z</time></trkpt><trkpt lat="45.8824867" lon="13.9880565"><ele>584.0</ele><time>2026-04-08T08:54:21.23Z</time></trkpt><trkpt lat="45.8823995" lon="13.9882"><ele>584.0</ele><time>2026-04-08T08:54:22.222Z</time></trkpt><trkpt lat="45.8823106" lon="13.9883481"><ele>584.0</ele><time>2026-04-08T08:54:23.243Z</time></trkpt><trkpt lat="45.8822319" lon="13.9884929"><ele>584.0</ele><time>2026-04-08T08:54:24.224Z</time></trkpt><trkpt lat="45.8821507" lon="13.9886415"><ele>591.5</ele><time>2026-04-08T08:54:25.222Z</time></trkpt><trkpt lat="45.8820703" lon="13.9887885"><ele>599.0</ele><time>2026-04-08T08:54:26.228Z</time></trkpt><trkpt lat="45.8819898" lon="13.9889356"><ele>606.5</ele><time>2026-04-08T08:54:27.225Z</time></trkpt><trkpt lat="45.8819135" lon="13.9890896"><ele>614.0</ele><time>2026-04-08T08:54:28.215Z</time></trkpt><trkpt lat="45.8818418" lon="13.989241"><ele>617.5</ele><time>2026-04-08T08:54:29.226Z</time></trkpt><trkpt lat="45.8817862" lon="13.9894009"><ele>621.0</ele><time>2026-04-08T08:54:30.236Z</time></trkpt><trkpt lat="45.8817531" lon="13.989578"><ele>624.5</ele><time>2026-04-08T08:54:31.215Z</time></trkpt><trkpt lat="45.8817544" lon="13.9897702"><ele>628.0</ele><time>2026-04-08T08:54:32.223Z</time></trkpt><trkpt lat="45.8817657" lon="13.9899614"><ele>628.75</ele><time>2026-04-08T08:54:33.221Z</time></trkpt><trkpt lat="45.8817729" lon="13.9901586"><ele>629.5</ele><time>2026-04-08T08:54:34.213Z</time></trkpt><trkpt lat="45.8817831" lon="13.9903699"><ele>630.25</ele><time>2026-04-08T08:54:35.214Z</time></trkpt><trkpt lat="45.8817987" lon="13.9905684"><ele>631.0</ele><time>2026-04-08T08:54:36.217Z</time></trkpt><trkpt lat="45.8818185" lon="13.9907625"><ele>631.0</ele><time>2026-04-08T08:54:37.222Z</time></trkpt><trkpt lat="45.8818288" lon="13.9909697"><ele>631.0</ele><time>2026-04-08T08:54:38.218Z</time></trkpt><trkpt lat="45.8818167" lon="13.9911858"><ele>631.0</ele><time>2026-04-08T08:54:39.219Z</time></trkpt><trkpt lat="45.8817978" lon="13.9914048"><ele>631.0</ele><time>2026-04-08T08:54:40.212Z</time></trkpt><trkpt lat="45.881774" lon="13.9916313"><ele>618.0</ele><time>2026-04-08T08:54:41.212Z</time></trkpt><trkpt lat="45.8817467" lon="13.9918547"><ele>605.0</ele><time>2026-04-08T08:54:42.218Z</time></trkpt><trkpt lat="45.8817239" lon="13.9920741"><ele>592.0</ele><time>2026-04-08T08:54:43.213Z</time></trkpt><trkpt lat="45.881706" lon="13.9922946"><ele>594.6666666666667</ele><time>2026-04-08T08:54:44.212Z</time></trkpt><trkpt lat="45.8816911" lon="13.9925124"><ele>597.3333333333334</ele><time>2026-04-08T08:54:45.226Z</time></trkpt><trkpt lat="45.8816755" lon="13.9927332"><ele>600.0</ele><time>2026-04-08T08:54:46.22Z</time></trkpt><trkpt lat="45.881654" lon="13.9929626"><ele>600.0</ele><time>2026-04-08T08:54:47.216Z</time></trkpt><trkpt lat="45.8816193" lon="13.9932118"><ele>600.0</ele><time>2026-04-08T08:54:48.22Z</time></trkpt><trkpt lat="45.8815765" lon="13.9934543"><ele>600.0</ele><time>2026-04-08T08:54:49.217Z</time></trkpt><trkpt lat="45.8815339" lon="13.9936719"><ele>603.75</ele><time>2026-04-08T08:54:50.211Z</time></trkpt><trkpt lat="45.8814898" lon="13.9938566"><ele>607.5</ele><time>2026-04-08T08:54:51.213Z</time></trkpt><trkpt lat="45.8814447" lon="13.9940329"><ele>611.25</ele><time>2026-04-08T08:54:52.212Z</time></trkpt><trkpt lat="45.8814062" lon="13.9942071"><ele>615.0</ele><time>2026-04-08T08:54:53.211Z</time></trkpt><trkpt lat="45.8813743" lon="13.9943667"><ele>617.5</ele><time>2026-04-08T08:54:54.22Z</time></trkpt><trkpt lat="45.8813417" lon="13.9945146"><ele>620.0</ele><time>2026-04-08T08:54:55.213Z</time></trkpt><trkpt lat="45.8813246" lon="13.9946487"><ele>622.5</ele><time>2026-04-08T08:54:56.216Z</time></trkpt><trkpt lat="45.8813059" lon="13.9947611"><ele>625.0</ele><time>2026-04-08T08:54:57.21Z</time></trkpt><trkpt lat="45.8812865" lon="13.9948616"><ele>627.5</ele><time>2026-04-08T08:54:58.209Z</time></trkpt><trkpt lat="45.8812674" lon="13.9949611"><ele>630.0</ele><time>2026-04-08T08:54:59.215Z</time></trkpt><trkpt lat="45.881252" lon="13.9950564"><ele>631.0</ele><time>2026-04-08T08:55:00.217Z</time></trkpt><trkpt lat="45.881237" lon="13.9951471"><ele>632.0</ele><time>2026-04-08T08:55:01.212Z</time></trkpt><trkpt lat="45.8812174" lon="13.9952429"><ele>633.0</ele><time>2026-04-08T08:55:02.213Z</time></trkpt><trkpt lat="45.8811974" lon="13.9953427"><ele>634.0</ele><time>2026-04-08T08:55:03.24Z</time></trkpt><trkpt lat="45.8811741" lon="13.9954528"><ele>635.0</ele><time>2026-04-08T08:55:04.214Z</time></trkpt><trkpt lat="45.8811628" lon="13.9955784"><ele>636.0</ele><time>2026-04-08T08:55:05.213Z</time></trkpt><trkpt lat="45.8811604" lon="13.9957288"><ele>637.5</ele><time>2026-04-08T08:55:06.215Z</time></trkpt><trkpt lat="45.8811544" lon="13.9959049"><ele>639.0</ele><time>2026-04-08T08:55:07.222Z</time></trkpt><trkpt lat="45.8811449" lon="13.9960821"><ele>640.5</ele><time>2026-04-08T08:55:08.214Z</time></trkpt><trkpt lat="45.8811355" lon="13.9962631"><ele>642.0</ele><time>2026-04-08T08:55:09.219Z</time></trkpt><trkpt lat="45.8811207" lon="13.9964483"><ele>642.0</ele><time>2026-04-08T08:55:10.215Z</time></trkpt><trkpt lat="45.8810945" lon="13.9966316"><ele>642.0</ele><time>2026-04-08T08:55:11.224Z</time></trkpt><trkpt lat="45.881067" lon="13.9968192"><ele>642.0</ele><time>2026-04-08T08:55:12.223Z</time></trkpt><trkpt lat="45.8810377" lon="13.9970157"><ele>642.0</ele><time>2026-04-08T08:55:13.233Z</time></trkpt><trkpt lat="45.8810186" lon="13.9972123"><ele>641.75</ele><time>2026-04-08T08:55:14.205Z</time></trkpt><trkpt lat="45.8810068" lon="13.9974093"><ele>641.5</ele><time>2026-04-08T08:55:15.204Z</time></trkpt><trkpt lat="45.8809911" lon="13.9976109"><ele>641.25</ele><time>2026-04-08T08:55:16.215Z</time></trkpt><trkpt lat="45.8809797" lon="13.9978092"><ele>641.0</ele><time>2026-04-08T08:55:17.204Z</time></trkpt><trkpt lat="45.8809708" lon="13.9979906"><ele>641.0</ele><time>2026-04-08T08:55:18.214Z</time></trkpt><trkpt lat="45.8809692" lon="13.9981734"><ele>641.0</ele><time>2026-04-08T08:55:19.202Z</time></trkpt><trkpt lat="45.8809681" lon="13.9983538"><ele>641.0</ele><time>2026-04-08T08:55:20.21Z</time></trkpt><trkpt lat="45.880974" lon="13.9985347"><ele>641.0</ele><time>2026-04-08T08:55:21.21Z</time></trkpt><trkpt lat="45.8809778" lon="13.9989044"><ele>637.75</ele><time>2026-04-08T08:55:23.205Z</time></trkpt><trkpt lat="45.8809799" lon="13.9990908"><ele>634.5</ele><time>2026-04-08T08:55:24.206Z</time></trkpt><trkpt lat="45.8809817" lon="13.9992823"><ele>631.25</ele><time>2026-04-08T08:55:25.216Z</time></trkpt><trkpt lat="45.8809841" lon="13.9994773"><ele>628.0</ele><time>2026-04-08T08:55:26.219Z</time></trkpt><trkpt lat="45.8809862" lon="13.9996677"><ele>628.0</ele><time>2026-04-08T08:55:27.212Z</time></trkpt><trkpt lat="45.8809901" lon="13.9998574"><ele>628.0</ele><time>2026-04-08T08:55:28.211Z</time></trkpt><trkpt lat="45.8809943" lon="14.0000405"><ele>628.0</ele><time>2026-04-08T08:55:29.223Z</time></trkpt><trkpt lat="45.8810031" lon="14.0002133"><ele>628.0</ele><time>2026-04-08T08:55:30.207Z</time></trkpt><trkpt lat="45.8810205" lon="14.0003881"><ele>628.0</ele><time>2026-04-08T08:55:31.204Z</time></trkpt><trkpt lat="45.8810404" lon="14.0005592"><ele>628.0</ele><time>2026-04-08T08:55:32.218Z</time></trkpt><trkpt lat="45.881074" lon="14.000717"><ele>628.0</ele><time>2026-04-08T08:55:33.213Z</time></trkpt><trkpt lat="45.8811176" lon="14.0008574"><ele>628.0</ele><time>2026-04-08T08:55:34.206Z</time></trkpt><trkpt lat="45.8811604" lon="14.0009736"><ele>628.0</ele><time>2026-04-08T08:55:35.202Z</time></trkpt><trkpt lat="45.8812003" lon="14.0010638"><ele>627.4</ele><time>2026-04-08T08:55:36.214Z</time></trkpt><trkpt lat="45.8812417" lon="14.0011504"><ele>626.8</ele><time>2026-04-08T08:55:37.209Z</time></trkpt><trkpt lat="45.881281" lon="14.0012278"><ele>626.2</ele><time>2026-04-08T08:55:38.221Z</time></trkpt><trkpt lat="45.881343" lon="14.0013329"><ele>625.6</ele><time>2026-04-08T08:55:40.222Z</time></trkpt><trkpt lat="45.8813877" lon="14.0014656"><ele>625.0</ele><time>2026-04-08T08:55:42.22Z</time></trkpt><trkpt lat="45.8814271" lon="14.0016176"><ele>625.0</ele><time>2026-04-08T08:55:44.203Z</time></trkpt><trkpt lat="45.8815096" lon="14.0017405"><ele>625.0</ele><time>2026-04-08T08:55:46.195Z</time></trkpt><trkpt lat="45.8816113" lon="14.0016875"><ele>625.0</ele><time>2026-04-08T08:55:48.213Z</time></trkpt><trkpt lat="45.8816291" lon="14.0015967"><ele>625.0</ele><time>2026-04-08T08:55:49.216Z</time></trkpt><trkpt lat="45.8816196" lon="14.0014793"><ele>625.0</ele><time>2026-04-08T08:55:50.212Z</time></trkpt><trkpt lat="45.8816296" lon="14.0013318"><ele>625.0</ele><time>2026-04-08T08:55:51.224Z</time></trkpt><trkpt lat="45.8816541" lon="14.0011527"><ele>625.0</ele><time>2026-04-08T08:55:52.212Z</time></trkpt><trkpt lat="45.8817059" lon="14.0009481"><ele>625.0</ele><time>2026-04-08T08:55:53.198Z</time></trkpt><trkpt lat="45.8818429" lon="14.0005005"><ele>621.0</ele><time>2026-04-08T08:55:55.199Z</time></trkpt><trkpt lat="45.882003" lon="14.0000729"><ele>617.0</ele><time>2026-04-08T08:55:57.201Z</time></trkpt><trkpt lat="45.8820751" lon="13.9998756"><ele>617.0</ele><time>2026-04-08T08:55:58.199Z</time></trkpt><trkpt lat="45.8821481" lon="13.9996978"><ele>617.0</ele><time>2026-04-08T08:55:59.203Z</time></trkpt><trkpt lat="45.8822294" lon="13.9995143"><ele>617.0</ele><time>2026-04-08T08:56:00.222Z</time></trkpt><trkpt lat="45.8823228" lon="13.9993422"><ele>617.0</ele><time>2026-04-08T08:56:01.206Z</time></trkpt><trkpt lat="45.8824357" lon="13.9991807"><ele>619.6666666666666</ele><time>2026-04-08T08:56:02.2Z</time></trkpt><trkpt lat="45.8825754" lon="13.9990359"><ele>622.3333333333334</ele><time>2026-04-08T08:56:03.202Z</time></trkpt><trkpt lat="45.8827384" lon="13.9989209"><ele>625.0</ele><time>2026-04-08T08:56:04.207Z</time></trkpt><trkpt lat="45.8830691" lon="13.9987058"><ele>625.0</ele><time>2026-04-08T08:56:06.198Z</time></trkpt><trkpt lat="45.8832347" lon="13.9985887"><ele>625.0</ele><time>2026-04-08T08:56:07.199Z</time></trkpt><trkpt lat="45.8834029" lon="13.9984666"><ele>625.0</ele><time>2026-04-08T08:56:08.207Z</time></trkpt><trkpt lat="45.8835692" lon="13.9983295"><ele>626.3333333333334</ele><time>2026-04-08T08:56:09.2Z</time></trkpt><trkpt lat="45.8837171" lon="13.998173"><ele>627.6666666666666</ele><time>2026-04-08T08:56:10.192Z</time></trkpt><trkpt lat="45.8838466" lon="13.9980137"><ele>629.0</ele><time>2026-04-08T08:56:11.197Z</time></trkpt><trkpt lat="45.883961" lon="13.9978418"><ele>629.0</ele><time>2026-04-08T08:56:12.193Z</time></trkpt><trkpt lat="45.8840581" lon="13.9976626"><ele>629.0</ele><time>2026-04-08T08:56:13.207Z</time></trkpt><trkpt lat="45.8841437" lon="13.9974517"><ele>629.0</ele><time>2026-04-08T08:56:14.221Z</time></trkpt><trkpt lat="45.8842234" lon="13.9972306"><ele>627.6666666666666</ele><time>2026-04-08T08:56:15.208Z</time></trkpt><trkpt lat="45.884307" lon="13.9970062"><ele>626.3333333333334</ele><time>2026-04-08T08:56:16.199Z</time></trkpt><trkpt lat="45.8844099" lon="13.9967691"><ele>625.0</ele><time>2026-04-08T08:56:17.209Z</time></trkpt><trkpt lat="45.8845173" lon="13.996538"><ele>625.0</ele><time>2026-04-08T08:56:18.202Z</time></trkpt><trkpt lat="45.8846066" lon="13.9963165"><ele>625.0</ele><time>2026-04-08T08:56:19.215Z</time></trkpt><trkpt lat="45.8846961" lon="13.9961049"><ele>625.0</ele><time>2026-04-08T08:56:20.215Z</time></trkpt><trkpt lat="45.8847854" lon="13.9958931"><ele>624.0</ele><time>2026-04-08T08:56:21.196Z</time></trkpt><trkpt lat="45.8848753" lon="13.9956899"><ele>623.0</ele><time>2026-04-08T08:56:22.207Z</time></trkpt><trkpt lat="45.8849739" lon="13.9954908"><ele>622.0</ele><time>2026-04-08T08:56:23.202Z</time></trkpt><trkpt lat="45.8850735" lon="13.9952905"><ele>622.0</ele><time>2026-04-08T08:56:24.192Z</time></trkpt><trkpt lat="45.8851659" lon="13.9950829"><ele>622.0</ele><time>2026-04-08T08:56:25.19Z</time></trkpt><trkpt lat="45.8852423" lon="13.9948878"><ele>622.0</ele><time>2026-04-08T08:56:26.189Z</time></trkpt><trkpt lat="45.8853036" lon="13.9946901"><ele>622.0</ele><time>2026-04-08T08:56:27.205Z</time></trkpt><trkpt lat="45.885323" lon="13.9945022"><ele>622.0</ele><time>2026-04-08T08:56:28.191Z</time></trkpt><trkpt lat="45.8853101" lon="13.9943031"><ele>622.0</ele><time>2026-04-08T08:56:29.197Z</time></trkpt><trkpt lat="45.8852905" lon="13.9940859"><ele>622.0</ele><time>2026-04-08T08:56:30.197Z</time></trkpt><trkpt lat="45.8852846" lon="13.9938511"><ele>622.3333333333334</ele><time>2026-04-08T08:56:31.192Z</time></trkpt><trkpt lat="45.8852964" lon="13.9935981"><ele>622.6666666666666</ele><time>2026-04-08T08:56:32.189Z</time></trkpt><trkpt lat="45.8853383" lon="13.993346"><ele>623.0</ele><time>2026-04-08T08:56:33.196Z</time></trkpt><trkpt lat="45.8854003" lon="13.9931027"><ele>623.0</ele><time>2026-04-08T08:56:34.206Z</time></trkpt><trkpt lat="45.885462" lon="13.9928609"><ele>623.0</ele><time>2026-04-08T08:56:35.192Z</time></trkpt><trkpt lat="45.885532" lon="13.9926383"><ele>623.0</ele><time>2026-04-08T08:56:36.187Z</time></trkpt><trkpt lat="45.8855945" lon="13.9924142"><ele>623.3333333333333</ele><time>2026-04-08T08:56:37.201Z</time></trkpt><trkpt lat="45.8856603" lon="13.9921868"><ele>623.6666666666666</ele><time>2026-04-08T08:56:38.209Z</time></trkpt><trkpt lat="45.8857461" lon="13.9919757"><ele>624.0</ele><time>2026-04-08T08:56:39.195Z</time></trkpt><trkpt lat="45.8858442" lon="13.9917759"><ele>624.3333333333334</ele><time>2026-04-08T08:56:40.188Z</time></trkpt><trkpt lat="45.885959" lon="13.9915736"><ele>624.6666666666667</ele><time>2026-04-08T08:56:41.196Z</time></trkpt><trkpt lat="45.8860727" lon="13.9913739"><ele>625.0</ele><time>2026-04-08T08:56:42.189Z</time></trkpt><trkpt lat="45.8861839" lon="13.991167"><ele>625.0</ele><time>2026-04-08T08:56:43.187Z</time></trkpt><trkpt lat="45.8862973" lon="13.9909553"><ele>625.0</ele><time>2026-04-08T08:56:44.188Z</time></trkpt><trkpt lat="45.8864218" lon="13.9907522"><ele>625.0</ele><time>2026-04-08T08:56:45.188Z</time></trkpt><trkpt lat="45.8865588" lon="13.9905542"><ele>625.0</ele><time>2026-04-08T08:56:46.19Z</time></trkpt><trkpt lat="45.8866963" lon="13.990349"><ele>625.0</ele><time>2026-04-08T08:56:47.189Z</time></trkpt><trkpt lat="45.8868279" lon="13.9901275"><ele>625.0</ele><time>2026-04-08T08:56:48.198Z</time></trkpt><trkpt lat="45.8869435" lon="13.9898892"><ele>625.3333333333334</ele><time>2026-04-08T08:56:49.192Z</time></trkpt><trkpt lat="45.887051" lon="13.9896447"><ele>625.6666666666666</ele><time>2026-04-08T08:56:50.197Z</time></trkpt><trkpt lat="45.8871607" lon="13.9893967"><ele>626.0</ele><time>2026-04-08T08:56:51.182Z</time></trkpt><trkpt lat="45.8872843" lon="13.9891689"><ele>627.0</ele><time>2026-04-08T08:56:52.192Z</time></trkpt><trkpt lat="45.8874247" lon="13.9889428"><ele>628.0</ele><time>2026-04-08T08:56:53.328Z</time></trkpt><trkpt lat="45.8875664" lon="13.9887217"><ele>629.0</ele><time>2026-04-08T08:56:54.292Z</time></trkpt><trkpt lat="45.8878537" lon="13.9882933"><ele>630.3333333333333</ele><time>2026-04-08T08:56:56.185Z</time></trkpt><trkpt lat="45.8879776" lon="13.9880536"><ele>631.6666666666666</ele><time>2026-04-08T08:56:57.193Z</time></trkpt><trkpt lat="45.8881022" lon="13.9877957"><ele>633.0</ele><time>2026-04-08T08:56:58.303Z</time></trkpt><trkpt lat="45.8882272" lon="13.9875346"><ele>632.5</ele><time>2026-04-08T08:56:59.288Z</time></trkpt><trkpt lat="45.888342" lon="13.9872495"><ele>632.0</ele><time>2026-04-08T08:57:00.277Z</time></trkpt><trkpt lat="45.8884513" lon="13.9869578"><ele>646.0</ele><time>2026-04-08T08:57:01.31Z</time></trkpt><trkpt lat="45.8886961" lon="13.9863511"><ele>646.0</ele><time>2026-04-08T08:57:03.286Z</time></trkpt><trkpt lat="45.8888382" lon="13.9860321"><ele>646.0</ele><time>2026-04-08T08:57:04.297Z</time></trkpt><trkpt lat="45.8889902" lon="13.9857087"><ele>646.0</ele><time>2026-04-08T08:57:05.288Z</time></trkpt><trkpt lat="45.8891505" lon="13.9853868"><ele>646.0</ele><time>2026-04-08T08:57:06.281Z</time></trkpt><trkpt lat="45.8893078" lon="13.9850523"><ele>654.5</ele><time>2026-04-08T08:57:07.28Z</time></trkpt><trkpt lat="45.8894656" lon="13.984723"><ele>663.0</ele><time>2026-04-08T08:57:08.295Z</time></trkpt><trkpt lat="45.8898108" lon="13.9840831"><ele>663.0</ele><time>2026-04-08T08:57:10.278Z</time></trkpt><trkpt lat="45.8899938" lon="13.9837663"><ele>663.0</ele><time>2026-04-08T08:57:11.294Z</time></trkpt><trkpt lat="45.8901769" lon="13.9834515"><ele>669.0</ele><time>2026-04-08T08:57:12.29Z</time></trkpt><trkpt lat="45.8903574" lon="13.9831308"><ele>675.0</ele><time>2026-04-08T08:57:13.282Z</time></trkpt><trkpt lat="45.890539" lon="13.9828108"><ele>678.0</ele><time>2026-04-08T08:57:14.277Z</time></trkpt><trkpt lat="45.8907119" lon="13.9825037"><ele>681.0</ele><time>2026-04-08T08:57:15.328Z</time></trkpt><trkpt lat="45.8908804" lon="13.9822006"><ele>684.0</ele><time>2026-04-08T08:57:16.276Z</time></trkpt><trkpt lat="45.8910446" lon="13.981913"><ele>687.0</ele><time>2026-04-08T08:57:17.291Z</time></trkpt><trkpt lat="45.8911989" lon="13.9816482"><ele>687.0</ele><time>2026-04-08T08:57:18.286Z</time></trkpt><trkpt lat="45.8915103" lon="13.9812578"><ele>687.0</ele><time>2026-04-08T08:57:20.295Z</time></trkpt><trkpt lat="45.8916652" lon="13.9810888"><ele>689.5</ele><time>2026-04-08T08:57:21.281Z</time></trkpt><trkpt lat="45.891806" lon="13.9809008"><ele>692.0</ele><time>2026-04-08T08:57:22.281Z</time></trkpt><trkpt lat="45.8920344" lon="13.9804278"><ele>692.0</ele><time>2026-04-08T08:57:24.275Z</time></trkpt><trkpt lat="45.8921599" lon="13.9801735"><ele>692.0</ele><time>2026-04-08T08:57:25.3Z</time></trkpt><trkpt lat="45.8922825" lon="13.9799339"><ele>692.0</ele><time>2026-04-08T08:57:26.281Z</time></trkpt><trkpt lat="45.8924003" lon="13.9797009"><ele>692.3333333333333</ele><time>2026-04-08T08:57:27.286Z</time></trkpt><trkpt lat="45.8925467" lon="13.9794904"><ele>692.6666666666666</ele><time>2026-04-08T08:57:28.277Z</time></trkpt><trkpt lat="45.8927367" lon="13.9793167"><ele>693.0</ele><time>2026-04-08T08:57:29.286Z</time></trkpt><trkpt lat="45.8929256" lon="13.9791582"><ele>696.0</ele><time>2026-04-08T08:57:30.286Z</time></trkpt><trkpt lat="45.8931126" lon="13.9790126"><ele>699.0</ele><time>2026-04-08T08:57:31.282Z</time></trkpt><trkpt lat="45.8932761" lon="13.978846"><ele>702.0</ele><time>2026-04-08T08:57:32.276Z</time></trkpt><trkpt lat="45.8934033" lon="13.9786508"><ele>703.3333333333334</ele><time>2026-04-08T08:57:33.275Z</time></trkpt><trkpt lat="45.8935184" lon="13.9784142"><ele>704.6666666666667</ele><time>2026-04-08T08:57:34.277Z</time></trkpt><trkpt lat="45.8936365" lon="13.978154"><ele>706.0</ele><time>2026-04-08T08:57:35.273Z</time></trkpt><trkpt lat="45.8937407" lon="13.9778621"><ele>706.0</ele><time>2026-04-08T08:57:36.281Z</time></trkpt><trkpt lat="45.8938583" lon="13.9775577"><ele>706.0</ele><time>2026-04-08T08:57:37.278Z</time></trkpt><trkpt lat="45.893988" lon="13.9772438"><ele>703.5</ele><time>2026-04-08T08:57:38.281Z</time></trkpt><trkpt lat="45.8941226" lon="13.9769357"><ele>701.0</ele><time>2026-04-08T08:57:39.274Z</time></trkpt><trkpt lat="45.8942595" lon="13.9766212"><ele>698.0</ele><time>2026-04-08T08:57:40.275Z</time></trkpt><trkpt lat="45.8944007" lon="13.9763235"><ele>695.0</ele><time>2026-04-08T08:57:41.281Z</time></trkpt><trkpt lat="45.8945436" lon="13.9760248"><ele>699.5</ele><time>2026-04-08T08:57:42.273Z</time></trkpt><trkpt lat="45.8946848" lon="13.9757431"><ele>704.0</ele><time>2026-04-08T08:57:43.29Z</time></trkpt><trkpt lat="45.8948364" lon="13.9754739"><ele>704.0</ele><time>2026-04-08T08:57:44.271Z</time></trkpt><trkpt lat="45.8950028" lon="13.9752388"><ele>704.0</ele><time>2026-04-08T08:57:45.278Z</time></trkpt><trkpt lat="45.8953129" lon="13.9748025"><ele>702.0</ele><time>2026-04-08T08:57:47.275Z</time></trkpt><trkpt lat="45.89545" lon="13.9745522"><ele>700.0</ele><time>2026-04-08T08:57:48.273Z</time></trkpt><trkpt lat="45.895571" lon="13.9742508"><ele>703.5</ele><time>2026-04-08T08:57:49.277Z</time></trkpt><trkpt lat="45.8956844" lon="13.9739498"><ele>707.0</ele><time>2026-04-08T08:57:50.282Z</time></trkpt><trkpt lat="45.8957935" lon="13.9736667"><ele>707.0</ele><time>2026-04-08T08:57:51.271Z</time></trkpt><trkpt lat="45.8959063" lon="13.9733994"><ele>707.0</ele><time>2026-04-08T08:57:52.271Z</time></trkpt><trkpt lat="45.8960321" lon="13.9731636"><ele>707.0</ele><time>2026-04-08T08:57:53.28Z</time></trkpt><trkpt lat="45.8961775" lon="13.9729488"><ele>708.6666666666666</ele><time>2026-04-08T08:57:54.276Z</time></trkpt><trkpt lat="45.896352" lon="13.9727777"><ele>710.3333333333334</ele><time>2026-04-08T08:57:55.274Z</time></trkpt><trkpt lat="45.8965165" lon="13.9726425"><ele>712.0</ele><time>2026-04-08T08:57:56.271Z</time></trkpt><trkpt lat="45.896652" lon="13.9725222"><ele>710.3333333333334</ele><time>2026-04-08T08:57:57.28Z</time></trkpt><trkpt lat="45.8967548" lon="13.9723764"><ele>708.6666666666666</ele><time>2026-04-08T08:57:58.27Z</time></trkpt><trkpt lat="45.8968251" lon="13.9721669"><ele>707.0</ele><time>2026-04-08T08:57:59.27Z</time></trkpt><trkpt lat="45.8968772" lon="13.9719132"><ele>706.0</ele><time>2026-04-08T08:58:00.273Z</time></trkpt><trkpt lat="45.8969136" lon="13.9716263"><ele>705.0</ele><time>2026-04-08T08:58:01.273Z</time></trkpt><trkpt lat="45.8969378" lon="13.971302"><ele>704.0</ele><time>2026-04-08T08:58:02.273Z</time></trkpt><trkpt lat="45.896967" lon="13.9709658"><ele>704.0</ele><time>2026-04-08T08:58:03.28Z</time></trkpt><trkpt lat="45.8969917" lon="13.9706164"><ele>704.0</ele><time>2026-04-08T08:58:04.269Z</time></trkpt><trkpt lat="45.8970174" lon="13.9702686"><ele>706.5</ele><time>2026-04-08T08:58:05.265Z</time></trkpt><trkpt lat="45.8970571" lon="13.9699346"><ele>709.0</ele><time>2026-04-08T08:58:06.28Z</time></trkpt><trkpt lat="45.8971265" lon="13.9696035"><ele>709.0</ele><time>2026-04-08T08:58:07.285Z</time></trkpt><trkpt lat="45.8972316" lon="13.969282"><ele>709.0</ele><time>2026-04-08T08:58:08.267Z</time></trkpt><trkpt lat="45.8973682" lon="13.9689837"><ele>709.5</ele><time>2026-04-08T08:58:09.276Z</time></trkpt><trkpt lat="45.8975308" lon="13.9687259"><ele>710.0</ele><time>2026-04-08T08:58:10.277Z</time></trkpt><trkpt lat="45.897698" lon="13.9684895"><ele>710.3333333333333</ele><time>2026-04-08T08:58:11.276Z</time></trkpt><trkpt lat="45.8978527" lon="13.9682838"><ele>710.6666666666666</ele><time>2026-04-08T08:58:12.271Z</time></trkpt><trkpt lat="45.8979815" lon="13.9681019"><ele>711.0</ele><time>2026-04-08T08:58:13.271Z</time></trkpt><trkpt lat="45.8980825" lon="13.9679327"><ele>711.0</ele><time>2026-04-08T08:58:14.267Z</time></trkpt><trkpt lat="45.8981497" lon="13.9677304"><ele>711.0</ele><time>2026-04-08T08:58:15.262Z</time></trkpt><trkpt lat="45.8981717" lon="13.9675085"><ele>711.0</ele><time>2026-04-08T08:58:16.256Z</time></trkpt><trkpt lat="45.8981641" lon="13.9673033"><ele>712.5999999999999</ele><time>2026-04-08T08:58:17.267Z</time></trkpt><trkpt lat="45.8981345" lon="13.9671389"><ele>714.2</ele><time>2026-04-08T08:58:18.28Z</time></trkpt><trkpt lat="45.8981077" lon="13.9669809"><ele>715.8</ele><time>2026-04-08T08:58:19.267Z</time></trkpt><trkpt lat="45.8981292" lon="13.9668592"><ele>717.4000000000001</ele><time>2026-04-08T08:58:20.264Z</time></trkpt><trkpt lat="45.8981754" lon="13.966758"><ele>719.0</ele><time>2026-04-08T08:58:21.272Z</time></trkpt><trkpt lat="45.898242" lon="13.9666817"><ele>720.1666666666666</ele><time>2026-04-08T08:58:22.267Z</time></trkpt><trkpt lat="45.8983049" lon="13.9666356"><ele>721.3333333333333</ele><time>2026-04-08T08:58:23.262Z</time></trkpt><trkpt lat="45.8983647" lon="13.9666042"><ele>722.5</ele><time>2026-04-08T08:58:24.266Z</time></trkpt><trkpt lat="45.8984725" lon="13.9665378"><ele>723.6666666666666</ele><time>2026-04-08T08:58:26.269Z</time></trkpt><trkpt lat="45.8985305" lon="13.966491"><ele>724.8333333333334</ele><time>2026-04-08T08:58:27.263Z</time></trkpt><trkpt lat="45.8985688" lon="13.9664072"><ele>726.0</ele><time>2026-04-08T08:58:28.26Z</time></trkpt><trkpt lat="45.8985815" lon="13.9662991"><ele>727.5999999999999</ele><time>2026-04-08T08:58:29.265Z</time></trkpt><trkpt lat="45.8985757" lon="13.9661792"><ele>729.2</ele><time>2026-04-08T08:58:30.259Z</time></trkpt><trkpt lat="45.8985588" lon="13.9660618"><ele>730.8</ele><time>2026-04-08T08:58:31.264Z</time></trkpt><trkpt lat="45.8985201" lon="13.9659411"><ele>732.4000000000001</ele><time>2026-04-08T08:58:32.262Z</time></trkpt><trkpt lat="45.8984592" lon="13.9658216"><ele>734.0</ele><time>2026-04-08T08:58:33.26Z</time></trkpt><trkpt lat="45.8983757" lon="13.9657028"><ele>734.0</ele><time>2026-04-08T08:58:34.257Z</time></trkpt><trkpt lat="45.8982796" lon="13.9655997"><ele>734.0</ele><time>2026-04-08T08:58:35.263Z</time></trkpt><trkpt lat="45.8981623" lon="13.9655069"><ele>734.0</ele><time>2026-04-08T08:58:36.288Z</time></trkpt><trkpt lat="45.8980346" lon="13.9654269"><ele>734.0</ele><time>2026-04-08T08:58:37.276Z</time></trkpt><trkpt lat="45.8979009" lon="13.9653397"><ele>734.0</ele><time>2026-04-08T08:58:38.264Z</time></trkpt><trkpt lat="45.8977662" lon="13.9652412"><ele>734.0</ele><time>2026-04-08T08:58:39.279Z</time></trkpt><trkpt lat="45.8976471" lon="13.9651354"><ele>734.0</ele><time>2026-04-08T08:58:40.266Z</time></trkpt><trkpt lat="45.8975324" lon="13.9650211"><ele>734.0</ele><time>2026-04-08T08:58:41.274Z</time></trkpt><trkpt lat="45.8974255" lon="13.9648866"><ele>738.0</ele><time>2026-04-08T08:58:42.256Z</time></trkpt><trkpt lat="45.8973551" lon="13.9647109"><ele>742.0</ele><time>2026-04-08T08:58:43.267Z</time></trkpt><trkpt lat="45.8973171" lon="13.9645078"><ele>746.0</ele><time>2026-04-08T08:58:44.258Z</time></trkpt><trkpt lat="45.8972917" lon="13.9642781"><ele>750.0</ele><time>2026-04-08T08:58:45.272Z</time></trkpt><trkpt lat="45.8972797" lon="13.9640244"><ele>750.0</ele><time>2026-04-08T08:58:46.274Z</time></trkpt><trkpt lat="45.8972757" lon="13.9637673"><ele>750.0</ele><time>2026-04-08T08:58:47.274Z</time></trkpt><trkpt lat="45.8972908" lon="13.9635068"><ele>750.0</ele><time>2026-04-08T08:58:48.274Z</time></trkpt><trkpt lat="45.8973189" lon="13.9632511"><ele>749.6666666666666</ele><time>2026-04-08T08:58:49.269Z</time></trkpt><trkpt lat="45.8973847" lon="13.9629832"><ele>749.3333333333333</ele><time>2026-04-08T08:58:50.283Z</time></trkpt><trkpt lat="45.897503" lon="13.9627295"><ele>749.0</ele><time>2026-04-08T08:58:51.268Z</time></trkpt><trkpt lat="45.8976376" lon="13.9625067"><ele>748.6666666666666</ele><time>2026-04-08T08:58:52.269Z</time></trkpt><trkpt lat="45.8977724" lon="13.9623186"><ele>748.3333333333334</ele><time>2026-04-08T08:58:53.264Z</time></trkpt><trkpt lat="45.8978922" lon="13.9621504"><ele>748.0</ele><time>2026-04-08T08:58:54.261Z</time></trkpt><trkpt lat="45.8979737" lon="13.961948"><ele>748.0</ele><time>2026-04-08T08:58:55.271Z</time></trkpt><trkpt lat="45.8980263" lon="13.9617001"><ele>748.0</ele><time>2026-04-08T08:58:56.255Z</time></trkpt><trkpt lat="45.898045" lon="13.961419"><ele>748.0</ele><time>2026-04-08T08:58:57.259Z</time></trkpt><trkpt lat="45.8980598" lon="13.9611375"><ele>750.6666666666667</ele><time>2026-04-08T08:58:58.268Z</time></trkpt><trkpt lat="45.8981028" lon="13.9608419"><ele>753.3333333333334</ele><time>2026-04-08T08:58:59.276Z</time></trkpt><trkpt lat="45.8981881" lon="13.960563"><ele>756.0</ele><time>2026-04-08T08:59:00.265Z</time></trkpt><trkpt lat="45.8982923" lon="13.9603306"><ele>761.3333333333333</ele><time>2026-04-08T08:59:01.253Z</time></trkpt><trkpt lat="45.8984476" lon="13.9600159"><ele>766.6666666666666</ele><time>2026-04-08T08:59:03.261Z</time></trkpt><trkpt lat="45.8984562" lon="13.9598631"><ele>772.0</ele><time>2026-04-08T08:59:04.276Z</time></trkpt><trkpt lat="45.8984347" lon="13.9596856"><ele>772.0</ele><time>2026-04-08T08:59:05.256Z</time></trkpt><trkpt lat="45.8984534" lon="13.9594975"><ele>772.0</ele><time>2026-04-08T08:59:06.256Z</time></trkpt><trkpt lat="45.8985191" lon="13.9592839"><ele>772.0</ele><time>2026-04-08T08:59:07.261Z</time></trkpt><trkpt lat="45.8986212" lon="13.9590407"><ele>772.0</ele><time>2026-04-08T08:59:08.258Z</time></trkpt><trkpt lat="45.8987315" lon="13.9587893"><ele>772.0</ele><time>2026-04-08T08:59:09.28Z</time></trkpt><trkpt lat="45.8988659" lon="13.9585325"><ele>772.0</ele><time>2026-04-08T08:59:10.268Z</time></trkpt><trkpt lat="45.8990127" lon="13.9582553"><ele>772.0</ele><time>2026-04-08T08:59:11.263Z</time></trkpt><trkpt lat="45.8991597" lon="13.9579794"><ele>772.0</ele><time>2026-04-08T08:59:12.265Z</time></trkpt><trkpt lat="45.8993029" lon="13.9577127"><ele>772.0</ele><time>2026-04-08T08:59:13.262Z</time></trkpt><trkpt lat="45.8994361" lon="13.957455"><ele>772.0</ele><time>2026-04-08T08:59:14.289Z</time></trkpt><trkpt lat="45.8995385" lon="13.9571853"><ele>772.0</ele><time>2026-04-08T08:59:15.267Z</time></trkpt><trkpt lat="45.8996365" lon="13.9569104"><ele>773.3333333333333</ele><time>2026-04-08T08:59:16.257Z</time></trkpt><trkpt lat="45.8997519" lon="13.9566667"><ele>774.6666666666667</ele><time>2026-04-08T08:59:17.255Z</time></trkpt><trkpt lat="45.8998854" lon="13.9564532"><ele>776.0</ele><time>2026-04-08T08:59:18.254Z</time></trkpt><trkpt lat="45.8999969" lon="13.9562351"><ele>776.0</ele><time>2026-04-08T08:59:19.254Z</time></trkpt><trkpt lat="45.9000808" lon="13.9560104"><ele>776.0</ele><time>2026-04-08T08:59:20.261Z</time></trkpt><trkpt lat="45.9001736" lon="13.9557998"><ele>776.0</ele><time>2026-04-08T08:59:21.255Z</time></trkpt><trkpt lat="45.900308" lon="13.955638"><ele>775.6666666666667</ele><time>2026-04-08T08:59:22.257Z</time></trkpt><trkpt lat="45.9004499" lon="13.9555084"><ele>775.3333333333333</ele><time>2026-04-08T08:59:23.26Z</time></trkpt><trkpt lat="45.9005844" lon="13.9553502"><ele>775.0</ele><time>2026-04-08T08:59:24.252Z</time></trkpt><trkpt lat="45.9008068" lon="13.9548168"><ele>781.5</ele><time>2026-04-08T08:59:26.261Z</time></trkpt><trkpt lat="45.9009455" lon="13.9545183"><ele>788.0</ele><time>2026-04-08T08:59:27.253Z</time></trkpt><trkpt lat="45.9011069" lon="13.9542365"><ele>787.0</ele><time>2026-04-08T08:59:28.28Z</time></trkpt><trkpt lat="45.9012731" lon="13.9539697"><ele>786.0</ele><time>2026-04-08T08:59:29.255Z</time></trkpt><trkpt lat="45.90155" lon="13.9534928"><ele>789.0</ele><time>2026-04-08T08:59:31.258Z</time></trkpt><trkpt lat="45.9018055" lon="13.9530322"><ele>792.0</ele><time>2026-04-08T08:59:33.262Z</time></trkpt><trkpt lat="45.9019476" lon="13.9528164"><ele>792.0</ele><time>2026-04-08T08:59:34.271Z</time></trkpt><trkpt lat="45.9020885" lon="13.952593"><ele>792.0</ele><time>2026-04-08T08:59:35.27Z</time></trkpt><trkpt lat="45.9022032" lon="13.952326"><ele>792.0</ele><time>2026-04-08T08:59:36.25Z</time></trkpt><trkpt lat="45.9022969" lon="13.9520466"><ele>791.3333333333333</ele><time>2026-04-08T08:59:37.269Z</time></trkpt><trkpt lat="45.9023799" lon="13.9517881"><ele>790.6666666666666</ele><time>2026-04-08T08:59:38.266Z</time></trkpt><trkpt lat="45.9024908" lon="13.9515712"><ele>790.0</ele><time>2026-04-08T08:59:39.245Z</time></trkpt><trkpt lat="45.9026231" lon="13.9513894"><ele>791.3333333333333</ele><time>2026-04-08T08:59:40.265Z</time></trkpt><trkpt lat="45.9027481" lon="13.9512065"><ele>792.6666666666667</ele><time>2026-04-08T08:59:41.261Z</time></trkpt><trkpt lat="45.9028513" lon="13.951008"><ele>794.0</ele><time>2026-04-08T08:59:42.25Z</time></trkpt><trkpt lat="45.9029538" lon="13.9508112"><ele>794.0</ele><time>2026-04-08T08:59:43.27Z</time></trkpt><trkpt lat="45.9030787" lon="13.9506576"><ele>794.0</ele><time>2026-04-08T08:59:44.255Z</time></trkpt><trkpt lat="45.903219" lon="13.9505332"><ele>794.0</ele><time>2026-04-08T08:59:45.258Z</time></trkpt><trkpt lat="45.9033694" lon="13.9504145"><ele>795.6666666666667</ele><time>2026-04-08T08:59:46.249Z</time></trkpt><trkpt lat="45.9035144" lon="13.9502812"><ele>797.3333333333333</ele><time>2026-04-08T08:59:47.254Z</time></trkpt><trkpt lat="45.9036578" lon="13.9501344"><ele>799.0</ele><time>2026-04-08T08:59:48.28Z</time></trkpt><trkpt lat="45.9037801" lon="13.9499803"><ele>799.0</ele><time>2026-04-08T08:59:49.262Z</time></trkpt><trkpt lat="45.9038659" lon="13.9498088"><ele>799.0</ele><time>2026-04-08T08:59:50.246Z</time></trkpt><trkpt lat="45.9039084" lon="13.9496338"><ele>799.0</ele><time>2026-04-08T08:59:51.258Z</time></trkpt><trkpt lat="45.9039125" lon="13.9494477"><ele>799.0</ele><time>2026-04-08T08:59:52.257Z</time></trkpt><trkpt lat="45.9039238" lon="13.9492232"><ele>798.3333333333333</ele><time>2026-04-08T08:59:53.251Z</time></trkpt><trkpt lat="45.9039443" lon="13.9489799"><ele>797.6666666666667</ele><time>2026-04-08T08:59:54.266Z</time></trkpt><trkpt lat="45.9039799" lon="13.9487251"><ele>797.0</ele><time>2026-04-08T08:59:55.275Z</time></trkpt><trkpt lat="45.904033" lon="13.948475"><ele>796.3333333333334</ele><time>2026-04-08T08:59:56.252Z</time></trkpt><trkpt lat="45.9040962" lon="13.9482298"><ele>795.6666666666667</ele><time>2026-04-08T08:59:57.254Z</time></trkpt><trkpt lat="45.9041748" lon="13.9479675"><ele>795.0</ele><time>2026-04-08T08:59:58.249Z</time></trkpt><trkpt lat="45.9042806" lon="13.9477134"><ele>797.6666666666667</ele><time>2026-04-08T08:59:59.263Z</time></trkpt><trkpt lat="45.9043858" lon="13.9474695"><ele>800.3333333333334</ele><time>2026-04-08T09:00:00.254Z</time></trkpt><trkpt lat="45.904486" lon="13.9472543"><ele>803.0</ele><time>2026-04-08T09:00:01.26Z</time></trkpt><trkpt lat="45.904608" lon="13.9470861"><ele>803.0</ele><time>2026-04-08T09:00:02.257Z</time></trkpt><trkpt lat="45.9047689" lon="13.9469641"><ele>803.0</ele><time>2026-04-08T09:00:03.265Z</time></trkpt><trkpt lat="45.9049464" lon="13.9468778"><ele>803.0</ele><time>2026-04-08T09:00:04.262Z</time></trkpt><trkpt lat="45.9051349" lon="13.9468029"><ele>804.3333333333334</ele><time>2026-04-08T09:00:05.256Z</time></trkpt><trkpt lat="45.9053342" lon="13.9467347"><ele>805.6666666666667</ele><time>2026-04-08T09:00:06.272Z</time></trkpt><trkpt lat="45.9055389" lon="13.946672"><ele>807.0</ele><time>2026-04-08T09:00:07.269Z</time></trkpt><trkpt lat="45.9057223" lon="13.9466178"><ele>808.0</ele><time>2026-04-08T09:00:08.241Z</time></trkpt><trkpt lat="45.9058876" lon="13.9465686"><ele>809.0</ele><time>2026-04-08T09:00:09.265Z</time></trkpt><trkpt lat="45.9060427" lon="13.9465524"><ele>810.0</ele><time>2026-04-08T09:00:10.25Z</time></trkpt><trkpt lat="45.9061875" lon="13.9465348"><ele>814.0</ele><time>2026-04-08T09:00:11.255Z</time></trkpt><trkpt lat="45.9063235" lon="13.9465035"><ele>818.0</ele><time>2026-04-08T09:00:12.244Z</time></trkpt><trkpt lat="45.9066982" lon="13.94613"><ele>818.0</ele><time>2026-04-08T09:00:15.252Z</time></trkpt><trkpt lat="45.9067997" lon="13.9459356"><ele>818.0</ele><time>2026-04-08T09:00:16.258Z</time></trkpt><trkpt lat="45.9069092" lon="13.9457286"><ele>818.0</ele><time>2026-04-08T09:00:17.243Z</time></trkpt><trkpt lat="45.9070104" lon="13.9455226"><ele>819.5</ele><time>2026-04-08T09:00:18.25Z</time></trkpt><trkpt lat="45.9071302" lon="13.9453418"><ele>821.0</ele><time>2026-04-08T09:00:19.243Z</time></trkpt><trkpt lat="45.907419" lon="13.9451046"><ele>824.6666666666667</ele><time>2026-04-08T09:00:21.24Z</time></trkpt><trkpt lat="45.9075846" lon="13.9450208"><ele>828.3333333333333</ele><time>2026-04-08T09:00:22.249Z</time></trkpt><trkpt lat="45.9077518" lon="13.9449432"><ele>832.0</ele><time>2026-04-08T09:00:23.312Z</time></trkpt><trkpt lat="45.9079255" lon="13.9448265"><ele>832.0</ele><time>2026-04-08T09:00:24.252Z</time></trkpt><trkpt lat="45.9081034" lon="13.9446903"><ele>832.0</ele><time>2026-04-08T09:00:25.246Z</time></trkpt><trkpt lat="45.9082865" lon="13.9445709"><ele>832.0</ele><time>2026-04-08T09:00:26.246Z</time></trkpt><trkpt lat="45.9084731" lon="13.9444864"><ele>831.5</ele><time>2026-04-08T09:00:27.258Z</time></trkpt><trkpt lat="45.9088886" lon="13.9443779"><ele>831.0</ele><time>2026-04-08T09:00:29.242Z</time></trkpt><trkpt lat="45.909109" lon="13.9443338"><ele>835.6666666666667</ele><time>2026-04-08T09:00:30.249Z</time></trkpt><trkpt lat="45.9093295" lon="13.9442702"><ele>840.3333333333334</ele><time>2026-04-08T09:00:31.265Z</time></trkpt><trkpt lat="45.9095345" lon="13.9441707"><ele>845.0</ele><time>2026-04-08T09:00:32.251Z</time></trkpt><trkpt lat="45.9097255" lon="13.9440628"><ele>850.3333333333334</ele><time>2026-04-08T09:00:33.244Z</time></trkpt><trkpt lat="45.909897" lon="13.9439848"><ele>855.6666666666667</ele><time>2026-04-08T09:00:34.243Z</time></trkpt><trkpt lat="45.9100633" lon="13.9439753"><ele>861.0</ele><time>2026-04-08T09:00:35.245Z</time></trkpt><trkpt lat="45.910236" lon="13.9440032"><ele>861.0</ele><time>2026-04-08T09:00:36.237Z</time></trkpt><trkpt lat="45.9104166" lon="13.944021"><ele>861.0</ele><time>2026-04-08T09:00:37.254Z</time></trkpt><trkpt lat="45.9106015" lon="13.944006"><ele>861.0</ele><time>2026-04-08T09:00:38.249Z</time></trkpt><trkpt lat="45.9107881" lon="13.9439666"><ele>861.6666666666667</ele><time>2026-04-08T09:00:39.25Z</time></trkpt><trkpt lat="45.9109657" lon="13.9439398"><ele>862.3333333333334</ele><time>2026-04-08T09:00:40.24Z</time></trkpt><trkpt lat="45.9111333" lon="13.9439521"><ele>863.0</ele><time>2026-04-08T09:00:41.266Z</time></trkpt><trkpt lat="45.9112951" lon="13.9439863"><ele>863.0</ele><time>2026-04-08T09:00:42.251Z</time></trkpt><trkpt lat="45.9114554" lon="13.9439667"><ele>863.0</ele><time>2026-04-08T09:00:43.248Z</time></trkpt><trkpt lat="45.911604" lon="13.9438817"><ele>863.0</ele><time>2026-04-08T09:00:44.249Z</time></trkpt><trkpt lat="45.9117626" lon="13.9438035"><ele>867.0</ele><time>2026-04-08T09:00:45.241Z</time></trkpt><trkpt lat="45.9119185" lon="13.9437974"><ele>871.0</ele><time>2026-04-08T09:00:46.25Z</time></trkpt><trkpt lat="45.9120787" lon="13.9438508"><ele>875.0</ele><time>2026-04-08T09:00:47.234Z</time></trkpt><trkpt lat="45.912199" lon="13.94392"><ele>875.0</ele><time>2026-04-08T09:00:48.235Z</time></trkpt><trkpt lat="45.9123019" lon="13.9439755"><ele>875.0</ele><time>2026-04-08T09:00:49.245Z</time></trkpt><trkpt lat="45.9123973" lon="13.9439979"><ele>875.0</ele><time>2026-04-08T09:00:50.236Z</time></trkpt><trkpt lat="45.9125013" lon="13.9439757"><ele>875.0</ele><time>2026-04-08T09:00:51.241Z</time></trkpt><trkpt lat="45.9126132" lon="13.9438886"><ele>875.0</ele><time>2026-04-08T09:00:52.241Z</time></trkpt><trkpt lat="45.9127391" lon="13.9437377"><ele>876.3333333333334</ele><time>2026-04-08T09:00:53.248Z</time></trkpt><trkpt lat="45.91288" lon="13.943546"><ele>877.6666666666667</ele><time>2026-04-08T09:00:54.238Z</time></trkpt><trkpt lat="45.913" lon="13.94334"><ele>879.0</ele><time>2026-04-08T09:00:55.238Z</time></trkpt><trkpt lat="45.9130929" lon="13.9431453"><ele>880.0</ele><time>2026-04-08T09:00:56.246Z</time></trkpt><trkpt lat="45.9131421" lon="13.9429809"><ele>881.0</ele><time>2026-04-08T09:00:57.238Z</time></trkpt><trkpt lat="45.9131629" lon="13.9428122"><ele>882.0</ele><time>2026-04-08T09:00:58.241Z</time></trkpt><trkpt lat="45.9131556" lon="13.9426482"><ele>883.0</ele><time>2026-04-08T09:00:59.246Z</time></trkpt><trkpt lat="45.913085" lon="13.9425113"><ele>883.0</ele><time>2026-04-08T09:01:00.239Z</time></trkpt><trkpt lat="45.912946" lon="13.9424196"><ele>883.0</ele><time>2026-04-08T09:01:01.242Z</time></trkpt><trkpt lat="45.9127816" lon="13.9423416"><ele>883.0</ele><time>2026-04-08T09:01:02.25Z</time></trkpt><trkpt lat="45.9126453" lon="13.942258"><ele>882.75</ele><time>2026-04-08T09:01:03.252Z</time></trkpt><trkpt lat="45.9125559" lon="13.9421508"><ele>882.5</ele><time>2026-04-08T09:01:04.236Z</time></trkpt><trkpt lat="45.9125073" lon="13.941963"><ele>882.25</ele><time>2026-04-08T09:01:05.243Z</time></trkpt><trkpt lat="45.9125064" lon="13.9417397"><ele>882.0</ele><time>2026-04-08T09:01:06.236Z</time></trkpt><trkpt lat="45.9125081" lon="13.9415202"><ele>878.6666666666667</ele><time>2026-04-08T09:01:07.259Z</time></trkpt><trkpt lat="45.9124971" lon="13.9413019"><ele>875.3333333333334</ele><time>2026-04-08T09:01:08.243Z</time></trkpt><trkpt lat="45.9124528" lon="13.941092"><ele>872.0</ele><time>2026-04-08T09:01:09.244Z</time></trkpt><trkpt lat="45.9123746" lon="13.9408887"><ele>869.6666666666667</ele><time>2026-04-08T09:01:10.237Z</time></trkpt><trkpt lat="45.9122708" lon="13.9406802"><ele>867.3333333333333</ele><time>2026-04-08T09:01:11.234Z</time></trkpt><trkpt lat="45.9121911" lon="13.940461"><ele>865.0</ele><time>2026-04-08T09:01:12.255Z</time></trkpt><trkpt lat="45.9121497" lon="13.9402345"><ele>861.5</ele><time>2026-04-08T09:01:13.238Z</time></trkpt><trkpt lat="45.9121405" lon="13.9400204"><ele>858.0</ele><time>2026-04-08T09:01:14.262Z</time></trkpt><trkpt lat="45.9121586" lon="13.9398286"><ele>854.5</ele><time>2026-04-08T09:01:15.253Z</time></trkpt><trkpt lat="45.9121736" lon="13.9396511"><ele>851.0</ele><time>2026-04-08T09:01:16.243Z</time></trkpt><trkpt lat="45.9121488" lon="13.9394954"><ele>851.0</ele><time>2026-04-08T09:01:17.233Z</time></trkpt><trkpt lat="45.9120794" lon="13.9393547"><ele>851.0</ele><time>2026-04-08T09:01:18.239Z</time></trkpt><trkpt lat="45.9120074" lon="13.9392209"><ele>851.0</ele><time>2026-04-08T09:01:19.246Z</time></trkpt><trkpt lat="45.9119677" lon="13.9390667"><ele>851.0</ele><time>2026-04-08T09:01:20.261Z</time></trkpt><trkpt lat="45.9119733" lon="13.9388945"><ele>848.75</ele><time>2026-04-08T09:01:21.249Z</time></trkpt><trkpt lat="45.9120056" lon="13.9387254"><ele>846.5</ele><time>2026-04-08T09:01:22.236Z</time></trkpt><trkpt lat="45.9120395" lon="13.9385776"><ele>844.25</ele><time>2026-04-08T09:01:23.246Z</time></trkpt><trkpt lat="45.9120699" lon="13.9384104"><ele>842.0</ele><time>2026-04-08T09:01:24.239Z</time></trkpt><trkpt lat="45.9120913" lon="13.9382344"><ele>841.75</ele><time>2026-04-08T09:01:25.233Z</time></trkpt><trkpt lat="45.9121212" lon="13.9380629"><ele>841.5</ele><time>2026-04-08T09:01:26.236Z</time></trkpt><trkpt lat="45.9121599" lon="13.9378851"><ele>841.25</ele><time>2026-04-08T09:01:27.244Z</time></trkpt><trkpt lat="45.9122058" lon="13.9377032"><ele>841.0</ele><time>2026-04-08T09:01:28.239Z</time></trkpt><trkpt lat="45.9122657" lon="13.9375285"><ele>841.0</ele><time>2026-04-08T09:01:29.244Z</time></trkpt><trkpt lat="45.9123376" lon="13.9373484"><ele>841.0</ele><time>2026-04-08T09:01:30.244Z</time></trkpt><trkpt lat="45.912398" lon="13.937155"><ele>841.0</ele><time>2026-04-08T09:01:31.233Z</time></trkpt><trkpt lat="45.9124451" lon="13.9369613"><ele>841.0</ele><time>2026-04-08T09:01:32.252Z</time></trkpt><trkpt lat="45.9124987" lon="13.9367926"><ele>840.0</ele><time>2026-04-08T09:01:33.251Z</time></trkpt><trkpt lat="45.9125584" lon="13.9366375"><ele>839.0</ele><time>2026-04-08T09:01:34.232Z</time></trkpt><trkpt lat="45.9126184" lon="13.9364677"><ele>838.0</ele><time>2026-04-08T09:01:35.227Z</time></trkpt><trkpt lat="45.9126761" lon="13.9362804"><ele>837.0</ele><time>2026-04-08T09:01:36.231Z</time></trkpt><trkpt lat="45.9127393" lon="13.9360829"><ele>837.0</ele><time>2026-04-08T09:01:37.247Z</time></trkpt><trkpt lat="45.9128113" lon="13.9358976"><ele>837.0</ele><time>2026-04-08T09:01:38.238Z</time></trkpt><trkpt lat="45.9128786" lon="13.9357158"><ele>837.0</ele><time>2026-04-08T09:01:39.245Z</time></trkpt><trkpt lat="45.9129443" lon="13.9355248"><ele>837.0</ele><time>2026-04-08T09:01:40.236Z</time></trkpt><trkpt lat="45.9130111" lon="13.9353249"><ele>838.0</ele><time>2026-04-08T09:01:41.225Z</time></trkpt><trkpt lat="45.9130844" lon="13.9351207"><ele>839.0</ele><time>2026-04-08T09:01:42.234Z</time></trkpt><trkpt lat="45.9131658" lon="13.9349315"><ele>840.0</ele><time>2026-04-08T09:01:43.253Z</time></trkpt><trkpt lat="45.9132514" lon="13.9347648"><ele>840.0</ele><time>2026-04-08T09:01:44.259Z</time></trkpt><trkpt lat="45.9133518" lon="13.9346115"><ele>840.0</ele><time>2026-04-08T09:01:45.255Z</time></trkpt><trkpt lat="45.9135624" lon="13.9343122"><ele>840.0</ele><time>2026-04-08T09:01:47.256Z</time></trkpt><trkpt lat="45.913669" lon="13.9341594"><ele>838.75</ele><time>2026-04-08T09:01:48.241Z</time></trkpt><trkpt lat="45.9137742" lon="13.934007"><ele>837.5</ele><time>2026-04-08T09:01:49.251Z</time></trkpt><trkpt lat="45.9138768" lon="13.9338598"><ele>836.25</ele><time>2026-04-08T09:01:50.231Z</time></trkpt><trkpt lat="45.9139767" lon="13.9337173"><ele>835.0</ele><time>2026-04-08T09:01:51.242Z</time></trkpt><trkpt lat="45.9140732" lon="13.9335808"><ele>835.0</ele><time>2026-04-08T09:01:52.247Z</time></trkpt><trkpt lat="45.9141687" lon="13.9334569"><ele>835.0</ele><time>2026-04-08T09:01:53.225Z</time></trkpt><trkpt lat="45.9143692" lon="13.9333523"><ele>835.0</ele><time>2026-04-08T09:01:55.239Z</time></trkpt><trkpt lat="45.9144657" lon="13.9333352"><ele>835.0</ele><time>2026-04-08T09:01:56.231Z</time></trkpt><trkpt lat="45.9145568" lon="13.9332904"><ele>833.0</ele><time>2026-04-08T09:01:57.225Z</time></trkpt><trkpt lat="45.9146231" lon="13.9331837"><ele>831.0</ele><time>2026-04-08T09:01:58.224Z</time></trkpt><trkpt lat="45.9146621" lon="13.9330258"><ele>829.0</ele><time>2026-04-08T09:01:59.245Z</time></trkpt><trkpt lat="45.9146834" lon="13.9328711"><ele>827.0</ele><time>2026-04-08T09:02:00.234Z</time></trkpt><trkpt lat="45.914706" lon="13.9327073"><ele>825.0</ele><time>2026-04-08T09:02:01.234Z</time></trkpt><trkpt lat="45.9147354" lon="13.9325455"><ele>824.25</ele><time>2026-04-08T09:02:02.227Z</time></trkpt><trkpt lat="45.9147605" lon="13.9323786"><ele>823.5</ele><time>2026-04-08T09:02:03.229Z</time></trkpt><trkpt lat="45.9147894" lon="13.9322092"><ele>822.75</ele><time>2026-04-08T09:02:04.235Z</time></trkpt><trkpt lat="45.9148157" lon="13.932039"><ele>822.0</ele><time>2026-04-08T09:02:05.229Z</time></trkpt><trkpt lat="45.9148238" lon="13.9318828"><ele>822.0</ele><time>2026-04-08T09:02:06.237Z</time></trkpt><trkpt lat="45.9147798" lon="13.9317372"><ele>822.0</ele><time>2026-04-08T09:02:07.227Z</time></trkpt><trkpt lat="45.9146914" lon="13.931601"><ele>822.0</ele><time>2026-04-08T09:02:08.235Z</time></trkpt><trkpt lat="45.9145793" lon="13.9314493"><ele>822.0</ele><time>2026-04-08T09:02:09.229Z</time></trkpt><trkpt lat="45.9144635" lon="13.9312893"><ele>820.5</ele><time>2026-04-08T09:02:10.225Z</time></trkpt><trkpt lat="45.9143679" lon="13.9311282"><ele>819.0</ele><time>2026-04-08T09:02:11.22Z</time></trkpt><trkpt lat="45.9142666" lon="13.9309773"><ele>817.5</ele><time>2026-04-08T09:02:12.237Z</time></trkpt><trkpt lat="45.914167" lon="13.930822"><ele>816.0</ele><time>2026-04-08T09:02:13.231Z</time></trkpt><trkpt lat="45.9140752" lon="13.9306783"><ele>819.25</ele><time>2026-04-08T09:02:14.229Z</time></trkpt><trkpt lat="45.9139977" lon="13.9305407"><ele>822.5</ele><time>2026-04-08T09:02:15.243Z</time></trkpt><trkpt lat="45.9139222" lon="13.9304138"><ele>825.75</ele><time>2026-04-08T09:02:16.23Z</time></trkpt><trkpt lat="45.9138547" lon="13.9302718"><ele>829.0</ele><time>2026-04-08T09:02:17.243Z</time></trkpt><trkpt lat="45.9137949" lon="13.9301073"><ele>828.6</ele><time>2026-04-08T09:02:18.24Z</time></trkpt><trkpt lat="45.91373" lon="13.9299568"><ele>828.2</ele><time>2026-04-08T09:02:19.221Z</time></trkpt><trkpt lat="45.9136674" lon="13.929815"><ele>827.8000000000001</ele><time>2026-04-08T09:02:20.22Z</time></trkpt><trkpt lat="45.9136186" lon="13.9296821"><ele>827.4000000000001</ele><time>2026-04-08T09:02:21.22Z</time></trkpt><trkpt lat="45.9135896" lon="13.9295537"><ele>827.0</ele><time>2026-04-08T09:02:22.224Z</time></trkpt><trkpt lat="45.9136111" lon="13.9294188"><ele>827.0</ele><time>2026-04-08T09:02:23.231Z</time></trkpt><trkpt lat="45.9136572" lon="13.9293111"><ele>827.0</ele><time>2026-04-08T09:02:24.26Z</time></trkpt><trkpt lat="45.913743" lon="13.9292184"><ele>827.0</ele><time>2026-04-08T09:02:25.236Z</time></trkpt><trkpt lat="45.9138342" lon="13.9291377"><ele>827.0</ele><time>2026-04-08T09:02:26.223Z</time></trkpt><trkpt lat="45.9139359" lon="13.9290659"><ele>827.0</ele><time>2026-04-08T09:02:27.232Z</time></trkpt><trkpt lat="45.9140406" lon="13.9290259"><ele>827.25</ele><time>2026-04-08T09:02:28.225Z</time></trkpt><trkpt lat="45.9141413" lon="13.9289828"><ele>827.5</ele><time>2026-04-08T09:02:29.234Z</time></trkpt><trkpt lat="45.9142433" lon="13.9289221"><ele>827.75</ele><time>2026-04-08T09:02:30.233Z</time></trkpt><trkpt lat="45.9143494" lon="13.9288432"><ele>828.0</ele><time>2026-04-08T09:02:31.224Z</time></trkpt><trkpt lat="45.9144408" lon="13.9287364"><ele>826.0</ele><time>2026-04-08T09:02:32.229Z</time></trkpt><trkpt lat="45.9144973" lon="13.928586"><ele>824.0</ele><time>2026-04-08T09:02:33.224Z</time></trkpt><trkpt lat="45.9145248" lon="13.9284029"><ele>822.0</ele><time>2026-04-08T09:02:34.232Z</time></trkpt><trkpt lat="45.9145489" lon="13.9282232"><ele>820.0</ele><time>2026-04-08T09:02:35.225Z</time></trkpt><trkpt lat="45.9145876" lon="13.9280395"><ele>820.0</ele><time>2026-04-08T09:02:36.227Z</time></trkpt><trkpt lat="45.9146466" lon="13.9278803"><ele>820.0</ele><time>2026-04-08T09:02:37.237Z</time></trkpt><trkpt lat="45.9147262" lon="13.9277361"><ele>820.0</ele><time>2026-04-08T09:02:38.22Z</time></trkpt><trkpt lat="45.9148394" lon="13.9276442"><ele>820.0</ele><time>2026-04-08T09:02:39.228Z</time></trkpt><trkpt lat="45.9149561" lon="13.9275732"><ele>820.75</ele><time>2026-04-08T09:02:40.225Z</time></trkpt><trkpt lat="45.9150678" lon="13.9274932"><ele>821.5</ele><time>2026-04-08T09:02:41.223Z</time></trkpt><trkpt lat="45.9151884" lon="13.9274009"><ele>822.25</ele><time>2026-04-08T09:02:42.225Z</time></trkpt><trkpt lat="45.9153277" lon="13.9272918"><ele>823.0</ele><time>2026-04-08T09:02:43.227Z</time></trkpt><trkpt lat="45.9154842" lon="13.9271413"><ele>823.0</ele><time>2026-04-08T09:02:44.225Z</time></trkpt><trkpt lat="45.9156324" lon="13.9269904"><ele>823.0</ele><time>2026-04-08T09:02:45.226Z</time></trkpt><trkpt lat="45.9157626" lon="13.9268381"><ele>823.0</ele><time>2026-04-08T09:02:46.227Z</time></trkpt><trkpt lat="45.9158806" lon="13.9266688"><ele>823.3333333333333</ele><time>2026-04-08T09:02:47.218Z</time></trkpt><trkpt lat="45.9159899" lon="13.9264953"><ele>823.6666666666667</ele><time>2026-04-08T09:02:48.229Z</time></trkpt><trkpt lat="45.9160912" lon="13.9263289"><ele>824.0</ele><time>2026-04-08T09:02:49.228Z</time></trkpt><trkpt lat="45.9162061" lon="13.926214"><ele>824.0</ele><time>2026-04-08T09:02:50.217Z</time></trkpt><trkpt lat="45.9163434" lon="13.9261472"><ele>824.0</ele><time>2026-04-08T09:02:51.247Z</time></trkpt><trkpt lat="45.9164835" lon="13.9260847"><ele>824.0</ele><time>2026-04-08T09:02:52.223Z</time></trkpt><trkpt lat="45.9166248" lon="13.9260057"><ele>824.0</ele><time>2026-04-08T09:02:53.229Z</time></trkpt><trkpt lat="45.9167588" lon="13.9259155"><ele>826.5</ele><time>2026-04-08T09:02:54.219Z</time></trkpt><trkpt lat="45.9169897" lon="13.9256518"><ele>829.0</ele><time>2026-04-08T09:02:56.223Z</time></trkpt><trkpt lat="45.9170899" lon="13.9254646"><ele>829.0</ele><time>2026-04-08T09:02:57.215Z</time></trkpt><trkpt lat="45.917194" lon="13.9252655"><ele>829.0</ele><time>2026-04-08T09:02:58.222Z</time></trkpt><trkpt lat="45.9173066" lon="13.9250764"><ele>829.0</ele><time>2026-04-08T09:02:59.224Z</time></trkpt><trkpt lat="45.9174225" lon="13.9249167"><ele>828.6666666666666</ele><time>2026-04-08T09:03:00.229Z</time></trkpt><trkpt lat="45.9175366" lon="13.9247707"><ele>828.3333333333333</ele><time>2026-04-08T09:03:01.223Z</time></trkpt><trkpt lat="45.9176602" lon="13.9246348"><ele>828.0</ele><time>2026-04-08T09:03:02.23Z</time></trkpt><trkpt lat="45.9177796" lon="13.9245005"><ele>828.0</ele><time>2026-04-08T09:03:03.219Z</time></trkpt><trkpt lat="45.917898" lon="13.9243665"><ele>828.0</ele><time>2026-04-08T09:03:04.222Z</time></trkpt><trkpt lat="45.9180093" lon="13.9242366"><ele>828.0</ele><time>2026-04-08T09:03:05.224Z</time></trkpt><trkpt lat="45.918111" lon="13.9241153"><ele>828.0</ele><time>2026-04-08T09:03:06.213Z</time></trkpt><trkpt lat="45.9182015" lon="13.9239992"><ele>827.0</ele><time>2026-04-08T09:03:07.231Z</time></trkpt><trkpt lat="45.9182919" lon="13.9238943"><ele>826.0</ele><time>2026-04-08T09:03:08.24Z</time></trkpt><trkpt lat="45.9183966" lon="13.9238137"><ele>825.0</ele><time>2026-04-08T09:03:09.23Z</time></trkpt><trkpt lat="45.9185191" lon="13.9237818"><ele>824.0</ele><time>2026-04-08T09:03:10.236Z</time></trkpt><trkpt lat="45.9186538" lon="13.9237882"><ele>823.0</ele><time>2026-04-08T09:03:11.22Z</time></trkpt><trkpt lat="45.9187866" lon="13.9238059"><ele>822.0</ele><time>2026-04-08T09:03:12.22Z</time></trkpt><trkpt lat="45.9189061" lon="13.9238227"><ele>821.0</ele><time>2026-04-08T09:03:13.21Z</time></trkpt><trkpt lat="45.919023" lon="13.9238132"><ele>820.0</ele><time>2026-04-08T09:03:14.219Z</time></trkpt><trkpt lat="45.9191461" lon="13.9237533"><ele>820.25</ele><time>2026-04-08T09:03:15.225Z</time></trkpt><trkpt lat="45.919266" lon="13.9236495"><ele>820.5</ele><time>2026-04-08T09:03:16.225Z</time></trkpt><trkpt lat="45.9193883" lon="13.9235243"><ele>820.75</ele><time>2026-04-08T09:03:17.217Z</time></trkpt><trkpt lat="45.9195125" lon="13.9233926"><ele>821.0</ele><time>2026-04-08T09:03:18.236Z</time></trkpt><trkpt lat="45.9196264" lon="13.9232492"><ele>821.0</ele><time>2026-04-08T09:03:19.216Z</time></trkpt><trkpt lat="45.9197318" lon="13.9231021"><ele>821.0</ele><time>2026-04-08T09:03:20.218Z</time></trkpt><trkpt lat="45.9198324" lon="13.9229213"><ele>821.0</ele><time>2026-04-08T09:03:21.215Z</time></trkpt><trkpt lat="45.9199199" lon="13.9226829"><ele>821.3333333333334</ele><time>2026-04-08T09:03:22.214Z</time></trkpt><trkpt lat="45.9200195" lon="13.9224275"><ele>821.6666666666667</ele><time>2026-04-08T09:03:23.218Z</time></trkpt><trkpt lat="45.9201528" lon="13.922177"><ele>822.0</ele><time>2026-04-08T09:03:24.218Z</time></trkpt><trkpt lat="45.9203253" lon="13.921975"><ele>820.6666666666667</ele><time>2026-04-08T09:03:25.221Z</time></trkpt><trkpt lat="45.9205027" lon="13.9218397"><ele>819.3333333333334</ele><time>2026-04-08T09:03:26.212Z</time></trkpt><trkpt lat="45.9206873" lon="13.9217528"><ele>818.0</ele><time>2026-04-08T09:03:27.219Z</time></trkpt><trkpt lat="45.9208747" lon="13.9216833"><ele>820.0</ele><time>2026-04-08T09:03:28.216Z</time></trkpt><trkpt lat="45.9210514" lon="13.9215711"><ele>822.0</ele><time>2026-04-08T09:03:29.215Z</time></trkpt><trkpt lat="45.921228" lon="13.921425"><ele>824.0</ele><time>2026-04-08T09:03:30.212Z</time></trkpt><trkpt lat="45.9213901" lon="13.9212793"><ele>824.0</ele><time>2026-04-08T09:03:31.214Z</time></trkpt><trkpt lat="45.9215354" lon="13.9211395"><ele>824.0</ele><time>2026-04-08T09:03:32.223Z</time></trkpt><trkpt lat="45.921659" lon="13.9209804"><ele>824.0</ele><time>2026-04-08T09:03:33.216Z</time></trkpt><trkpt lat="45.9217689" lon="13.9208014"><ele>825.0</ele><time>2026-04-08T09:03:34.212Z</time></trkpt><trkpt lat="45.9219581" lon="13.9203302"><ele>826.0</ele><time>2026-04-08T09:03:36.226Z</time></trkpt><trkpt lat="45.9220624" lon="13.9200461"><ele>826.0</ele><time>2026-04-08T09:03:37.211Z</time></trkpt><trkpt lat="45.9221707" lon="13.9197578"><ele>826.0</ele><time>2026-04-08T09:03:38.214Z</time></trkpt><trkpt lat="45.922412" lon="13.9192078"><ele>827.0</ele><time>2026-04-08T09:03:40.225Z</time></trkpt><trkpt lat="45.9225591" lon="13.9190059"><ele>828.0</ele><time>2026-04-08T09:03:41.209Z</time></trkpt><trkpt lat="45.9227225" lon="13.9188366"><ele>829.0</ele><time>2026-04-08T09:03:42.203Z</time></trkpt><trkpt lat="45.9228661" lon="13.9186833"><ele>831.0</ele><time>2026-04-08T09:03:43.243Z</time></trkpt><trkpt lat="45.9229891" lon="13.9185485"><ele>833.0</ele><time>2026-04-08T09:03:44.233Z</time></trkpt><trkpt lat="45.9230969" lon="13.9184012"><ele>835.0</ele><time>2026-04-08T09:03:45.214Z</time></trkpt><trkpt lat="45.923165" lon="13.9182122"><ele>836.25</ele><time>2026-04-08T09:03:46.212Z</time></trkpt><trkpt lat="45.923203" lon="13.9179912"><ele>837.5</ele><time>2026-04-08T09:03:47.211Z</time></trkpt><trkpt lat="45.9232175" lon="13.9177843"><ele>838.75</ele><time>2026-04-08T09:03:48.231Z</time></trkpt><trkpt lat="45.9232442" lon="13.9176182"><ele>840.0</ele><time>2026-04-08T09:03:49.211Z</time></trkpt><trkpt lat="45.9233054" lon="13.9174903"><ele>846.6666666666667</ele><time>2026-04-08T09:03:50.213Z</time></trkpt><trkpt lat="45.9234142" lon="13.9173612"><ele>853.3333333333334</ele><time>2026-04-08T09:03:51.204Z</time></trkpt><trkpt lat="45.9235457" lon="13.9172096"><ele>860.0</ele><time>2026-04-08T09:03:52.316Z</time></trkpt><trkpt lat="45.9236926" lon="13.91704"><ele>860.0</ele><time>2026-04-08T09:03:53.229Z</time></trkpt><trkpt lat="45.923854" lon="13.9168545"><ele>860.0</ele><time>2026-04-08T09:03:54.21Z</time></trkpt><trkpt lat="45.9240238" lon="13.9166489"><ele>860.0</ele><time>2026-04-08T09:03:55.21Z</time></trkpt><trkpt lat="45.9241979" lon="13.9164371"><ele>855.6666666666667</ele><time>2026-04-08T09:03:56.205Z</time></trkpt><trkpt lat="45.9243683" lon="13.9162427"><ele>851.3333333333333</ele><time>2026-04-08T09:03:57.202Z</time></trkpt><trkpt lat="45.9245371" lon="13.9160579"><ele>847.0</ele><time>2026-04-08T09:03:58.209Z</time></trkpt><trkpt lat="45.924706" lon="13.9158854"><ele>845.0</ele><time>2026-04-08T09:03:59.22Z</time></trkpt><trkpt lat="45.9248637" lon="13.9157178"><ele>843.0</ele><time>2026-04-08T09:04:00.234Z</time></trkpt><trkpt lat="45.9250171" lon="13.9155546"><ele>841.0</ele><time>2026-04-08T09:04:01.206Z</time></trkpt><trkpt lat="45.925165" lon="13.9154"><ele>841.0</ele><time>2026-04-08T09:04:02.202Z</time></trkpt><trkpt lat="45.9252963" lon="13.9152595"><ele>841.0</ele><time>2026-04-08T09:04:03.205Z</time></trkpt><trkpt lat="45.9254049" lon="13.9151352"><ele>841.0</ele><time>2026-04-08T09:04:04.228Z</time></trkpt><trkpt lat="45.9254731" lon="13.9149757"><ele>841.0</ele><time>2026-04-08T09:04:05.204Z</time></trkpt><trkpt lat="45.9254796" lon="13.9147665"><ele>838.75</ele><time>2026-04-08T09:04:06.22Z</time></trkpt><trkpt lat="45.9254343" lon="13.9145534"><ele>836.5</ele><time>2026-04-08T09:04:07.222Z</time></trkpt><trkpt lat="45.9253868" lon="13.9143871"><ele>834.25</ele><time>2026-04-08T09:04:08.211Z</time></trkpt><trkpt lat="45.9253888" lon="13.9142201"><ele>832.0</ele><time>2026-04-08T09:04:09.208Z</time></trkpt><trkpt lat="45.9254352" lon="13.9140444"><ele>831.3333333333333</ele><time>2026-04-08T09:04:10.21Z</time></trkpt><trkpt lat="45.9255239" lon="13.913837"><ele>830.6666666666667</ele><time>2026-04-08T09:04:11.21Z</time></trkpt><trkpt lat="45.9256287" lon="13.9136536"><ele>830.0</ele><time>2026-04-08T09:04:12.199Z</time></trkpt><trkpt lat="45.9257527" lon="13.913485"><ele>828.0</ele><time>2026-04-08T09:04:13.208Z</time></trkpt><trkpt lat="45.9258838" lon="13.9133569"><ele>826.0</ele><time>2026-04-08T09:04:14.208Z</time></trkpt><trkpt lat="45.9260313" lon="13.9132602"><ele>824.0</ele><time>2026-04-08T09:04:15.21Z</time></trkpt><trkpt lat="45.9261811" lon="13.913169"><ele>824.0</ele><time>2026-04-08T09:04:16.211Z</time></trkpt><trkpt lat="45.926325" lon="13.9130646"><ele>824.0</ele><time>2026-04-08T09:04:17.198Z</time></trkpt><trkpt lat="45.9264617" lon="13.9129623"><ele>824.0</ele><time>2026-04-08T09:04:18.201Z</time></trkpt><trkpt lat="45.9265889" lon="13.9128543"><ele>824.0</ele><time>2026-04-08T09:04:19.226Z</time></trkpt><trkpt lat="45.9267075" lon="13.9127274"><ele>824.0</ele><time>2026-04-08T09:04:20.202Z</time></trkpt><trkpt lat="45.9268022" lon="13.912571"><ele>824.0</ele><time>2026-04-08T09:04:21.206Z</time></trkpt><trkpt lat="45.9268622" lon="13.9123903"><ele>824.0</ele><time>2026-04-08T09:04:22.214Z</time></trkpt><trkpt lat="45.9269345" lon="13.9120383"><ele>823.4000000000001</ele><time>2026-04-08T09:04:24.215Z</time></trkpt><trkpt lat="45.9269812" lon="13.9118856"><ele>822.8</ele><time>2026-04-08T09:04:25.216Z</time></trkpt><trkpt lat="45.9270325" lon="13.9117425"><ele>822.2</ele><time>2026-04-08T09:04:26.212Z</time></trkpt><trkpt lat="45.9270867" lon="13.9116138"><ele>821.5999999999999</ele><time>2026-04-08T09:04:27.206Z</time></trkpt><trkpt lat="45.9271386" lon="13.911485"><ele>821.0</ele><time>2026-04-08T09:04:28.214Z</time></trkpt><trkpt lat="45.9271936" lon="13.9113729"><ele>820.4</ele><time>2026-04-08T09:04:29.201Z</time></trkpt><trkpt lat="45.9272496" lon="13.9112608"><ele>819.8</ele><time>2026-04-08T09:04:30.201Z</time></trkpt><trkpt lat="45.9273107" lon="13.9111432"><ele>819.1999999999999</ele><time>2026-04-08T09:04:31.203Z</time></trkpt><trkpt lat="45.9273759" lon="13.9110262"><ele>818.5999999999999</ele><time>2026-04-08T09:04:32.209Z</time></trkpt><trkpt lat="45.927439" lon="13.9108979"><ele>818.0</ele><time>2026-04-08T09:04:33.199Z</time></trkpt><trkpt lat="45.9274964" lon="13.9107652"><ele>817.75</ele><time>2026-04-08T09:04:34.211Z</time></trkpt><trkpt lat="45.9275554" lon="13.9106275"><ele>817.5</ele><time>2026-04-08T09:04:35.203Z</time></trkpt><trkpt lat="45.9276071" lon="13.9104736"><ele>817.25</ele><time>2026-04-08T09:04:36.205Z</time></trkpt><trkpt lat="45.9276538" lon="13.9103137"><ele>817.0</ele><time>2026-04-08T09:04:37.203Z</time></trkpt><trkpt lat="45.9277002" lon="13.9101564"><ele>817.75</ele><time>2026-04-08T09:04:38.201Z</time></trkpt><trkpt lat="45.9277488" lon="13.9100039"><ele>818.5</ele><time>2026-04-08T09:04:39.213Z</time></trkpt><trkpt lat="45.9277982" lon="13.9098598"><ele>819.25</ele><time>2026-04-08T09:04:40.207Z</time></trkpt><trkpt lat="45.9278669" lon="13.9097399"><ele>820.0</ele><time>2026-04-08T09:04:41.208Z</time></trkpt><trkpt lat="45.9279646" lon="13.9096497"><ele>820.0</ele><time>2026-04-08T09:04:42.203Z</time></trkpt><trkpt lat="45.9280638" lon="13.9095645"><ele>820.0</ele><time>2026-04-08T09:04:43.213Z</time></trkpt><trkpt lat="45.9281489" lon="13.9094605"><ele>820.0</ele><time>2026-04-08T09:04:44.207Z</time></trkpt><trkpt lat="45.9282075" lon="13.9093244"><ele>820.0</ele><time>2026-04-08T09:04:45.193Z</time></trkpt><trkpt lat="45.9282256" lon="13.9091702"><ele>820.0</ele><time>2026-04-08T09:04:46.203Z</time></trkpt><trkpt lat="45.9282143" lon="13.9089817"><ele>821.0</ele><time>2026-04-08T09:04:47.196Z</time></trkpt><trkpt lat="45.9282177" lon="13.9087655"><ele>822.0</ele><time>2026-04-08T09:04:48.2Z</time></trkpt><trkpt lat="45.9282489" lon="13.9085439"><ele>823.0</ele><time>2026-04-08T09:04:49.2Z</time></trkpt><trkpt lat="45.9283157" lon="13.9083172"><ele>829.3333333333333</ele><time>2026-04-08T09:04:50.206Z</time></trkpt><trkpt lat="45.9284009" lon="13.9080828"><ele>835.6666666666667</ele><time>2026-04-08T09:04:51.204Z</time></trkpt><trkpt lat="45.9284897" lon="13.9078541"><ele>842.0</ele><time>2026-04-08T09:04:52.207Z</time></trkpt><trkpt lat="45.9285622" lon="13.9076149"><ele>845.3333333333334</ele><time>2026-04-08T09:04:53.205Z</time></trkpt><trkpt lat="45.9285964" lon="13.9073483"><ele>848.6666666666667</ele><time>2026-04-08T09:04:54.205Z</time></trkpt><trkpt lat="45.9286075" lon="13.9070747"><ele>852.0</ele><time>2026-04-08T09:04:55.204Z</time></trkpt><trkpt lat="45.9286347" lon="13.9067994"><ele>851.6666666666667</ele><time>2026-04-08T09:04:56.216Z</time></trkpt><trkpt lat="45.9286776" lon="13.9065376"><ele>851.3333333333334</ele><time>2026-04-08T09:04:57.226Z</time></trkpt><trkpt lat="45.928728" lon="13.9063043"><ele>851.0</ele><time>2026-04-08T09:04:58.208Z</time></trkpt><trkpt lat="45.9289256" lon="13.9059808"><ele>849.6666666666667</ele><time>2026-04-08T09:05:00.208Z</time></trkpt><trkpt lat="45.9290655" lon="13.9058498"><ele>848.3333333333333</ele><time>2026-04-08T09:05:01.211Z</time></trkpt><trkpt lat="45.9292016" lon="13.9057049"><ele>847.0</ele><time>2026-04-08T09:05:02.201Z</time></trkpt><trkpt lat="45.9293481" lon="13.9055442"><ele>847.0</ele><time>2026-04-08T09:05:03.196Z</time></trkpt><trkpt lat="45.9294948" lon="13.9054075"><ele>847.0</ele><time>2026-04-08T09:05:04.195Z</time></trkpt><trkpt lat="45.9296244" lon="13.9053099"><ele>847.0</ele><time>2026-04-08T09:05:05.199Z</time></trkpt><trkpt lat="45.9297482" lon="13.9052651"><ele>847.0</ele><time>2026-04-08T09:05:06.23Z</time></trkpt><trkpt lat="45.9298859" lon="13.9052757"><ele>847.0</ele><time>2026-04-08T09:05:07.191Z</time></trkpt><trkpt lat="45.9300211" lon="13.9053643"><ele>847.0</ele><time>2026-04-08T09:05:08.197Z</time></trkpt><trkpt lat="45.9301527" lon="13.9054814"><ele>847.0</ele><time>2026-04-08T09:05:09.198Z</time></trkpt><trkpt lat="45.9302877" lon="13.9055775"><ele>847.6666666666666</ele><time>2026-04-08T09:05:10.258Z</time></trkpt><trkpt lat="45.9304256" lon="13.9055991"><ele>848.3333333333333</ele><time>2026-04-08T09:05:11.193Z</time></trkpt><trkpt lat="45.9305803" lon="13.9055388"><ele>849.0</ele><time>2026-04-08T09:05:12.189Z</time></trkpt><trkpt lat="45.9307353" lon="13.9054381"><ele>849.0</ele><time>2026-04-08T09:05:13.2Z</time></trkpt><trkpt lat="45.930885" lon="13.9052969"><ele>849.0</ele><time>2026-04-08T09:05:14.203Z</time></trkpt><trkpt lat="45.931032" lon="13.905132"><ele>849.0</ele><time>2026-04-08T09:05:15.192Z</time></trkpt><trkpt lat="45.9311618" lon="13.9049727"><ele>845.5</ele><time>2026-04-08T09:05:16.205Z</time></trkpt><trkpt lat="45.9312819" lon="13.9048485"><ele>842.0</ele><time>2026-04-08T09:05:17.196Z</time></trkpt><trkpt lat="45.9314129" lon="13.9047675"><ele>838.5</ele><time>2026-04-08T09:05:18.201Z</time></trkpt><trkpt lat="45.9315345" lon="13.9047783"><ele>835.0</ele><time>2026-04-08T09:05:19.198Z</time></trkpt><trkpt lat="45.9316599" lon="13.9048564"><ele>836.25</ele><time>2026-04-08T09:05:20.197Z</time></trkpt><trkpt lat="45.9317621" lon="13.9049804"><ele>837.5</ele><time>2026-04-08T09:05:21.198Z</time></trkpt><trkpt lat="45.9318606" lon="13.9051335"><ele>838.75</ele><time>2026-04-08T09:05:22.202Z</time></trkpt><trkpt lat="45.9319667" lon="13.9052682"><ele>840.0</ele><time>2026-04-08T09:05:23.21Z</time></trkpt><trkpt lat="45.9320929" lon="13.9053618"><ele>841.5</ele><time>2026-04-08T09:05:24.196Z</time></trkpt><trkpt lat="45.9322236" lon="13.9054005"><ele>843.0</ele><time>2026-04-08T09:05:25.201Z</time></trkpt><trkpt lat="45.9323543" lon="13.9053563"><ele>844.5</ele><time>2026-04-08T09:05:26.201Z</time></trkpt><trkpt lat="45.9324723" lon="13.9052495"><ele>846.0</ele><time>2026-04-08T09:05:27.189Z</time></trkpt><trkpt lat="45.932547" lon="13.9051342"><ele>845.5</ele><time>2026-04-08T09:05:28.19Z</time></trkpt><trkpt lat="45.9326394" lon="13.9050695"><ele>845.0</ele><time>2026-04-08T09:05:29.192Z</time></trkpt><trkpt lat="45.9327628" lon="13.9050286"><ele>844.5</ele><time>2026-04-08T09:05:30.191Z</time></trkpt><trkpt lat="45.9329039" lon="13.9050053"><ele>844.0</ele><time>2026-04-08T09:05:31.189Z</time></trkpt><trkpt lat="45.9330541" lon="13.9049659"><ele>844.0</ele><time>2026-04-08T09:05:32.195Z</time></trkpt><trkpt lat="45.9332159" lon="13.9049019"><ele>844.0</ele><time>2026-04-08T09:05:33.2Z</time></trkpt><trkpt lat="45.9333728" lon="13.9047896"><ele>844.0</ele><time>2026-04-08T09:05:34.191Z</time></trkpt><trkpt lat="45.933527" lon="13.9046754"><ele>846.6666666666666</ele><time>2026-04-08T09:05:35.189Z</time></trkpt><trkpt lat="45.9336942" lon="13.9045342"><ele>849.3333333333333</ele><time>2026-04-08T09:05:36.191Z</time></trkpt><trkpt lat="45.9338821" lon="13.9043902"><ele>852.0</ele><time>2026-04-08T09:05:37.207Z</time></trkpt><trkpt lat="45.9340785" lon="13.9042524"><ele>858.0</ele><time>2026-04-08T09:05:38.192Z</time></trkpt><trkpt lat="45.9342763" lon="13.9041251"><ele>864.0</ele><time>2026-04-08T09:05:39.198Z</time></trkpt><trkpt lat="45.9344667" lon="13.903974"><ele>870.0</ele><time>2026-04-08T09:05:40.194Z</time></trkpt><trkpt lat="45.9346506" lon="13.9038369"><ele>870.0</ele><time>2026-04-08T09:05:41.187Z</time></trkpt><trkpt lat="45.9348304" lon="13.9037403"><ele>870.0</ele><time>2026-04-08T09:05:42.207Z</time></trkpt><trkpt lat="45.9350006" lon="13.9036895"><ele>870.0</ele><time>2026-04-08T09:05:43.195Z</time></trkpt><trkpt lat="45.9351529" lon="13.9036845"><ele>874.6666666666667</ele><time>2026-04-08T09:05:44.195Z</time></trkpt><trkpt lat="45.935307" lon="13.9037112"><ele>879.3333333333334</ele><time>2026-04-08T09:05:45.198Z</time></trkpt><trkpt lat="45.9354602" lon="13.9037484"><ele>884.0</ele><time>2026-04-08T09:05:46.199Z</time></trkpt><trkpt lat="45.9356072" lon="13.9037632"><ele>884.0</ele><time>2026-04-08T09:05:47.188Z</time></trkpt><trkpt lat="45.9357387" lon="13.9037209"><ele>884.0</ele><time>2026-04-08T09:05:48.193Z</time></trkpt><trkpt lat="45.9358336" lon="13.9036229"><ele>884.0</ele><time>2026-04-08T09:05:49.196Z</time></trkpt><trkpt lat="45.9358962" lon="13.9035007"><ele>884.0</ele><time>2026-04-08T09:05:50.2Z</time></trkpt><trkpt lat="45.9359099" lon="13.9033619"><ele>885.6</ele><time>2026-04-08T09:05:51.188Z</time></trkpt><trkpt lat="45.9358944" lon="13.9032164"><ele>887.2</ele><time>2026-04-08T09:05:52.186Z</time></trkpt><trkpt lat="45.9358723" lon="13.9030818"><ele>888.8000000000001</ele><time>2026-04-08T09:05:53.192Z</time></trkpt><trkpt lat="45.9358534" lon="13.902979"><ele>890.4000000000001</ele><time>2026-04-08T09:05:54.196Z</time></trkpt><trkpt lat="45.9359371" lon="13.9028914"><ele>892.0</ele><time>2026-04-08T09:05:56.185Z</time></trkpt><trkpt lat="45.9360039" lon="13.9029373"><ele>891.9999999999999</ele><time>2026-04-08T09:05:57.189Z</time></trkpt><trkpt lat="45.9360434" lon="13.9030079"><ele>892.0</ele><time>2026-04-08T09:05:58.187Z</time></trkpt><trkpt lat="45.9361024" lon="13.9031415"><ele>892.0</ele><time>2026-04-08T09:06:00.194Z</time></trkpt><trkpt lat="45.9361654" lon="13.9032274"><ele>892.0</ele><time>2026-04-08T09:06:02.187Z</time></trkpt><trkpt lat="45.9362326" lon="13.9033006"><ele>891.9999999999999</ele><time>2026-04-08T09:06:04.195Z</time></trkpt><trkpt lat="45.9363113" lon="13.903297"><ele>892.0</ele><time>2026-04-08T09:06:06.186Z</time></trkpt><trkpt lat="45.9363599" lon="13.9031588"><ele>891.9999999999999</ele><time>2026-04-08T09:06:08.189Z</time></trkpt><trkpt lat="45.9363636" lon="13.9030556"><ele>892.0</ele><time>2026-04-08T09:06:09.189Z</time></trkpt><trkpt lat="45.9363555" lon="13.9029626"><ele>892.0</ele><time>2026-04-08T09:06:10.184Z</time></trkpt><trkpt lat="45.9363331" lon="13.9028509"><ele>892.0</ele><time>2026-04-08T09:06:12.18Z</time></trkpt><trkpt lat="45.9363127" lon="13.9027138"><ele>891.9999999999999</ele><time>2026-04-08T09:06:14.194Z</time></trkpt><trkpt lat="45.936316" lon="13.9025436"><ele>892.0</ele><time>2026-04-08T09:06:16.192Z</time></trkpt><trkpt lat="45.9363341" lon="13.9024514"><ele>892.1666666666666</ele><time>2026-04-08T09:06:17.181Z</time></trkpt><trkpt lat="45.9363553" lon="13.9023608"><ele>892.3333333333333</ele><time>2026-04-08T09:06:18.187Z</time></trkpt><trkpt lat="45.9363803" lon="13.9022769"><ele>892.5</ele><time>2026-04-08T09:06:19.183Z</time></trkpt><trkpt lat="45.936441" lon="13.9021304"><ele>892.6666666666667</ele><time>2026-04-08T09:06:21.189Z</time></trkpt><trkpt lat="45.9365144" lon="13.9019943"><ele>892.8333333333334</ele><time>2026-04-08T09:06:23.185Z</time></trkpt><trkpt lat="45.9365688" lon="13.9019355"><ele>893.0</ele><time>2026-04-08T09:06:24.193Z</time></trkpt><trkpt lat="45.9366395" lon="13.9018705"><ele>894.0</ele><time>2026-04-08T09:06:25.191Z</time></trkpt><trkpt lat="45.9367221" lon="13.901803"><ele>895.0</ele><time>2026-04-08T09:06:26.188Z</time></trkpt><trkpt lat="45.9368153" lon="13.9017328"><ele>896.0</ele><time>2026-04-08T09:06:27.18Z</time></trkpt><trkpt lat="45.9369003" lon="13.9016458"><ele>897.0</ele><time>2026-04-08T09:06:28.184Z</time></trkpt><trkpt lat="45.9369722" lon="13.9015455"><ele>898.0</ele><time>2026-04-08T09:06:29.185Z</time></trkpt><trkpt lat="45.9370284" lon="13.9014492"><ele>897.9999999999999</ele><time>2026-04-08T09:06:30.186Z</time></trkpt><trkpt lat="45.9370598" lon="13.9013527"><ele>898.0</ele><time>2026-04-08T09:06:31.197Z</time></trkpt><trkpt lat="45.9371042" lon="13.9012654"><ele>898.0</ele><time>2026-04-08T09:06:32.181Z</time></trkpt><trkpt lat="45.9371614" lon="13.9011837"><ele>898.0</ele><time>2026-04-08T09:06:33.179Z</time></trkpt><trkpt lat="45.9372296" lon="13.9010992"><ele>897.9999999999999</ele><time>2026-04-08T09:06:34.195Z</time></trkpt><trkpt lat="45.9373007" lon="13.9010159"><ele>898.0</ele><time>2026-04-08T09:06:35.188Z</time></trkpt><trkpt lat="45.9373846" lon="13.9009484"><ele>897.5999999999999</ele><time>2026-04-08T09:06:36.196Z</time></trkpt><trkpt lat="45.9374725" lon="13.9009147"><ele>897.1999999999999</ele><time>2026-04-08T09:06:37.186Z</time></trkpt><trkpt lat="45.9375703" lon="13.9009072"><ele>896.8</ele><time>2026-04-08T09:06:38.183Z</time></trkpt><trkpt lat="45.9376776" lon="13.9009113"><ele>896.4</ele><time>2026-04-08T09:06:39.195Z</time></trkpt><trkpt lat="45.9377832" lon="13.9008956"><ele>896.0</ele><time>2026-04-08T09:06:40.188Z</time></trkpt><trkpt lat="45.9378896" lon="13.9008335"><ele>896.0</ele><time>2026-04-08T09:06:41.184Z</time></trkpt><trkpt lat="45.9379844" lon="13.9007118"><ele>896.0</ele><time>2026-04-08T09:06:42.194Z</time></trkpt><trkpt lat="45.9380658" lon="13.9005792"><ele>896.0</ele><time>2026-04-08T09:06:43.185Z</time></trkpt><trkpt lat="45.9381244" lon="13.9004317"><ele>896.0</ele><time>2026-04-08T09:06:44.184Z</time></trkpt><trkpt lat="45.9381643" lon="13.9002836"><ele>896.0</ele><time>2026-04-08T09:06:45.18Z</time></trkpt><trkpt lat="45.9381932" lon="13.9001342"><ele>895.9999999999999</ele><time>2026-04-08T09:06:46.193Z</time></trkpt><trkpt lat="45.9382181" lon="13.899986"><ele>895.9999999999999</ele><time>2026-04-08T09:06:47.175Z</time></trkpt><trkpt lat="45.93824" lon="13.8998348"><ele>896.0</ele><time>2026-04-08T09:06:48.191Z</time></trkpt><trkpt lat="45.9382728" lon="13.8996974"><ele>896.0</ele><time>2026-04-08T09:06:49.185Z</time></trkpt><trkpt lat="45.9383153" lon="13.8995664"><ele>896.0</ele><time>2026-04-08T09:06:50.189Z</time></trkpt><trkpt lat="45.9383665" lon="13.8994411"><ele>895.9999999999999</ele><time>2026-04-08T09:06:51.179Z</time></trkpt><trkpt lat="45.938441" lon="13.8993507"><ele>895.9999999999999</ele><time>2026-04-08T09:06:52.182Z</time></trkpt><trkpt lat="45.9385257" lon="13.8993067"><ele>896.0</ele><time>2026-04-08T09:06:53.181Z</time></trkpt><trkpt lat="45.9386129" lon="13.8992898"><ele>896.0</ele><time>2026-04-08T09:06:54.293Z</time></trkpt><trkpt lat="45.9387034" lon="13.8992748"><ele>897.0</ele><time>2026-04-08T09:06:55.282Z</time></trkpt><trkpt lat="45.9387897" lon="13.8992477"><ele>897.9999999999999</ele><time>2026-04-08T09:06:56.195Z</time></trkpt><trkpt lat="45.9388719" lon="13.8992003"><ele>898.9999999999999</ele><time>2026-04-08T09:06:57.191Z</time></trkpt><trkpt lat="45.9389457" lon="13.8991257"><ele>900.0</ele><time>2026-04-08T09:06:58.185Z</time></trkpt><trkpt lat="45.9390162" lon="13.8990352"><ele>901.0</ele><time>2026-04-08T09:06:59.18Z</time></trkpt><trkpt lat="45.9390922" lon="13.8989308"><ele>901.0</ele><time>2026-04-08T09:07:00.285Z</time></trkpt><trkpt lat="45.9391689" lon="13.8988259"><ele>900.9999999999999</ele><time>2026-04-08T09:07:01.277Z</time></trkpt><trkpt lat="45.9392417" lon="13.8987203"><ele>900.9999999999999</ele><time>2026-04-08T09:07:02.278Z</time></trkpt><trkpt lat="45.9393155" lon="13.8986193"><ele>901.0</ele><time>2026-04-08T09:07:03.188Z</time></trkpt><trkpt lat="45.9393823" lon="13.8985165"><ele>901.0</ele><time>2026-04-08T09:07:04.183Z</time></trkpt><trkpt lat="45.9394534" lon="13.8984185"><ele>900.0</ele><time>2026-04-08T09:07:05.177Z</time></trkpt><trkpt lat="45.939544" lon="13.8983344"><ele>899.0</ele><time>2026-04-08T09:07:06.287Z</time></trkpt><trkpt lat="45.9396443" lon="13.8982477"><ele>898.0</ele><time>2026-04-08T09:07:07.285Z</time></trkpt><trkpt lat="45.9397575" lon="13.8981637"><ele>897.0</ele><time>2026-04-08T09:07:08.283Z</time></trkpt><trkpt lat="45.9398739" lon="13.8980801"><ele>899.6666666666667</ele><time>2026-04-08T09:07:09.289Z</time></trkpt><trkpt lat="45.9400756" lon="13.8978631"><ele>902.3333333333334</ele><time>2026-04-08T09:07:11.182Z</time></trkpt><trkpt lat="45.9401609" lon="13.8977511"><ele>905.0</ele><time>2026-04-08T09:07:12.193Z</time></trkpt><trkpt lat="45.940245" lon="13.8976387"><ele>905.0</ele><time>2026-04-08T09:07:13.282Z</time></trkpt><trkpt lat="45.9403289" lon="13.8975218"><ele>905.0</ele><time>2026-04-08T09:07:14.306Z</time></trkpt><trkpt lat="45.9403999" lon="13.8973959"><ele>905.0</ele><time>2026-04-08T09:07:15.279Z</time></trkpt><trkpt lat="45.9404706" lon="13.8972639"><ele>905.0</ele><time>2026-04-08T09:07:16.277Z</time></trkpt><trkpt lat="45.9405375" lon="13.8971367"><ele>905.0</ele><time>2026-04-08T09:07:17.189Z</time></trkpt><trkpt lat="45.9406055" lon="13.8970157"><ele>905.0</ele><time>2026-04-08T09:07:18.284Z</time></trkpt><trkpt lat="45.9406561" lon="13.8968857"><ele>905.0</ele><time>2026-04-08T09:07:19.288Z</time></trkpt><trkpt lat="45.9406764" lon="13.8967396"><ele>905.0</ele><time>2026-04-08T09:07:20.28Z</time></trkpt><trkpt lat="45.9406773" lon="13.8965761"><ele>905.0</ele><time>2026-04-08T09:07:21.29Z</time></trkpt><trkpt lat="45.9406973" lon="13.8964092"><ele>902.75</ele><time>2026-04-08T09:07:22.277Z</time></trkpt><trkpt lat="45.9407312" lon="13.8962535"><ele>900.5</ele><time>2026-04-08T09:07:23.277Z</time></trkpt><trkpt lat="45.9407776" lon="13.8960963"><ele>898.25</ele><time>2026-04-08T09:07:24.182Z</time></trkpt><trkpt lat="45.940842" lon="13.8959608"><ele>896.0</ele><time>2026-04-08T09:07:25.278Z</time></trkpt><trkpt lat="45.9409189" lon="13.8958316"><ele>895.5999999999999</ele><time>2026-04-08T09:07:26.273Z</time></trkpt><trkpt lat="45.9409965" lon="13.8957124"><ele>895.1999999999999</ele><time>2026-04-08T09:07:27.287Z</time></trkpt><trkpt lat="45.9410758" lon="13.895615"><ele>894.8000000000001</ele><time>2026-04-08T09:07:28.279Z</time></trkpt><trkpt lat="45.9411497" lon="13.8955216"><ele>894.4000000000001</ele><time>2026-04-08T09:07:29.278Z</time></trkpt><trkpt lat="45.9412218" lon="13.8954327"><ele>894.0</ele><time>2026-04-08T09:07:30.276Z</time></trkpt><trkpt lat="45.9412868" lon="13.8953483"><ele>894.0</ele><time>2026-04-08T09:07:31.277Z</time></trkpt><trkpt lat="45.94135" lon="13.8952587"><ele>894.0000000000001</ele><time>2026-04-08T09:07:32.276Z</time></trkpt><trkpt lat="45.941388" lon="13.8951447"><ele>894.0000000000001</ele><time>2026-04-08T09:07:33.3Z</time></trkpt><trkpt lat="45.9414053" lon="13.8949806"><ele>894.0</ele><time>2026-04-08T09:07:34.285Z</time></trkpt><trkpt lat="45.9414249" lon="13.8948168"><ele>894.0</ele><time>2026-04-08T09:07:35.287Z</time></trkpt><trkpt lat="45.9414578" lon="13.8946585"><ele>892.75</ele><time>2026-04-08T09:07:36.288Z</time></trkpt><trkpt lat="45.941511" lon="13.8944947"><ele>891.5</ele><time>2026-04-08T09:07:37.274Z</time></trkpt><trkpt lat="45.9415743" lon="13.8943445"><ele>890.25</ele><time>2026-04-08T09:07:38.276Z</time></trkpt><trkpt lat="45.941643" lon="13.8941963"><ele>889.0</ele><time>2026-04-08T09:07:39.276Z</time></trkpt><trkpt lat="45.9417131" lon="13.8940644"><ele>890.25</ele><time>2026-04-08T09:07:40.277Z</time></trkpt><trkpt lat="45.9417779" lon="13.8939283"><ele>891.5</ele><time>2026-04-08T09:07:41.277Z</time></trkpt><trkpt lat="45.9418351" lon="13.8937807"><ele>892.75</ele><time>2026-04-08T09:07:42.278Z</time></trkpt><trkpt lat="45.9418774" lon="13.8936199"><ele>894.0</ele><time>2026-04-08T09:07:43.272Z</time></trkpt><trkpt lat="45.9418969" lon="13.8934353"><ele>893.25</ele><time>2026-04-08T09:07:44.285Z</time></trkpt><trkpt lat="45.9419048" lon="13.8932446"><ele>892.5</ele><time>2026-04-08T09:07:45.27Z</time></trkpt><trkpt lat="45.9419049" lon="13.8930403"><ele>891.75</ele><time>2026-04-08T09:07:46.274Z</time></trkpt><trkpt lat="45.9419" lon="13.8928328"><ele>891.0</ele><time>2026-04-08T09:07:47.271Z</time></trkpt><trkpt lat="45.9418912" lon="13.892638"><ele>891.0</ele><time>2026-04-08T09:07:48.281Z</time></trkpt><trkpt lat="45.941886" lon="13.8924519"><ele>891.0</ele><time>2026-04-08T09:07:49.277Z</time></trkpt><trkpt lat="45.9418897" lon="13.8922753"><ele>891.0</ele><time>2026-04-08T09:07:50.273Z</time></trkpt><trkpt lat="45.9419068" lon="13.8921117"><ele>891.0</ele><time>2026-04-08T09:07:51.276Z</time></trkpt><trkpt lat="45.9419285" lon="13.8919496"><ele>891.0</ele><time>2026-04-08T09:07:52.278Z</time></trkpt><trkpt lat="45.9419511" lon="13.8917911"><ele>890.9999999999999</ele><time>2026-04-08T09:07:53.284Z</time></trkpt><trkpt lat="45.9419786" lon="13.8916445"><ele>890.9999999999999</ele><time>2026-04-08T09:07:54.289Z</time></trkpt><trkpt lat="45.9420044" lon="13.8914947"><ele>891.0</ele><time>2026-04-08T09:07:55.272Z</time></trkpt><trkpt lat="45.9420347" lon="13.8913535"><ele>891.0</ele><time>2026-04-08T09:07:56.278Z</time></trkpt><trkpt lat="45.9420668" lon="13.8912207"><ele>890.8</ele><time>2026-04-08T09:07:57.293Z</time></trkpt><trkpt lat="45.9421025" lon="13.891101"><ele>890.5999999999999</ele><time>2026-04-08T09:07:58.278Z</time></trkpt><trkpt lat="45.9421515" lon="13.8909763"><ele>890.4</ele><time>2026-04-08T09:07:59.289Z</time></trkpt><trkpt lat="45.9422085" lon="13.8908475"><ele>890.2</ele><time>2026-04-08T09:08:00.281Z</time></trkpt><trkpt lat="45.9422848" lon="13.8907325"><ele>890.0</ele><time>2026-04-08T09:08:01.286Z</time></trkpt><trkpt lat="45.9423824" lon="13.8906332"><ele>889.75</ele><time>2026-04-08T09:08:02.273Z</time></trkpt><trkpt lat="45.9424873" lon="13.8905455"><ele>889.5</ele><time>2026-04-08T09:08:03.28Z</time></trkpt><trkpt lat="45.9425939" lon="13.8904606"><ele>889.25</ele><time>2026-04-08T09:08:04.281Z</time></trkpt><trkpt lat="45.9426945" lon="13.8903676"><ele>889.0</ele><time>2026-04-08T09:08:05.278Z</time></trkpt><trkpt lat="45.9428" lon="13.890277"><ele>889.75</ele><time>2026-04-08T09:08:06.28Z</time></trkpt><trkpt lat="45.9429061" lon="13.8901911"><ele>890.5</ele><time>2026-04-08T09:08:07.287Z</time></trkpt><trkpt lat="45.9430191" lon="13.8900962"><ele>891.25</ele><time>2026-04-08T09:08:08.278Z</time></trkpt><trkpt lat="45.9431324" lon="13.8899972"><ele>892.0</ele><time>2026-04-08T09:08:09.274Z</time></trkpt><trkpt lat="45.943244" lon="13.8899087"><ele>892.0</ele><time>2026-04-08T09:08:10.271Z</time></trkpt><trkpt lat="45.9433555" lon="13.8898196"><ele>892.0</ele><time>2026-04-08T09:08:11.28Z</time></trkpt><trkpt lat="45.9434648" lon="13.8897325"><ele>892.0</ele><time>2026-04-08T09:08:12.266Z</time></trkpt><trkpt lat="45.9435728" lon="13.8896393"><ele>892.0</ele><time>2026-04-08T09:08:13.274Z</time></trkpt><trkpt lat="45.9436749" lon="13.8895394"><ele>895.5</ele><time>2026-04-08T09:08:14.272Z</time></trkpt><trkpt lat="45.9437731" lon="13.8894295"><ele>899.0</ele><time>2026-04-08T09:08:15.274Z</time></trkpt><trkpt lat="45.943865" lon="13.8893057"><ele>902.5</ele><time>2026-04-08T09:08:16.277Z</time></trkpt><trkpt lat="45.9439452" lon="13.8891511"><ele>906.0</ele><time>2026-04-08T09:08:17.286Z</time></trkpt><trkpt lat="45.9440092" lon="13.8889822"><ele>906.0</ele><time>2026-04-08T09:08:18.282Z</time></trkpt><trkpt lat="45.9440634" lon="13.8887983"><ele>906.0</ele><time>2026-04-08T09:08:19.269Z</time></trkpt><trkpt lat="45.9441032" lon="13.888615"><ele>906.0</ele><time>2026-04-08T09:08:20.273Z</time></trkpt><trkpt lat="45.9441343" lon="13.8884523"><ele>906.0</ele><time>2026-04-08T09:08:21.272Z</time></trkpt><trkpt lat="45.9441717" lon="13.8883215"><ele>905.5999999999999</ele><time>2026-04-08T09:08:22.282Z</time></trkpt><trkpt lat="45.9442051" lon="13.888187"><ele>905.1999999999999</ele><time>2026-04-08T09:08:23.272Z</time></trkpt><trkpt lat="45.9442415" lon="13.8880433"><ele>904.8000000000001</ele><time>2026-04-08T09:08:24.276Z</time></trkpt><trkpt lat="45.9442776" lon="13.8878999"><ele>904.4000000000001</ele><time>2026-04-08T09:08:25.272Z</time></trkpt><trkpt lat="45.9442956" lon="13.887747"><ele>904.0</ele><time>2026-04-08T09:08:26.28Z</time></trkpt><trkpt lat="45.9442864" lon="13.8875695"><ele>903.5</ele><time>2026-04-08T09:08:27.271Z</time></trkpt><trkpt lat="45.9442602" lon="13.8873899"><ele>903.0</ele><time>2026-04-08T09:08:28.264Z</time></trkpt><trkpt lat="45.9442231" lon="13.8872154"><ele>902.5</ele><time>2026-04-08T09:08:29.298Z</time></trkpt><trkpt lat="45.9441843" lon="13.887044"><ele>902.0</ele><time>2026-04-08T09:08:30.28Z</time></trkpt><trkpt lat="45.9441469" lon="13.8868824"><ele>902.25</ele><time>2026-04-08T09:08:31.271Z</time></trkpt><trkpt lat="45.9441044" lon="13.8867287"><ele>902.5</ele><time>2026-04-08T09:08:32.274Z</time></trkpt><trkpt lat="45.9440553" lon="13.8865737"><ele>902.75</ele><time>2026-04-08T09:08:33.28Z</time></trkpt><trkpt lat="45.9439887" lon="13.8864245"><ele>903.0</ele><time>2026-04-08T09:08:34.265Z</time></trkpt><trkpt lat="45.9439167" lon="13.8862682"><ele>903.0</ele><time>2026-04-08T09:08:35.283Z</time></trkpt><trkpt lat="45.9438365" lon="13.8860909"><ele>903.0</ele><time>2026-04-08T09:08:36.273Z</time></trkpt><trkpt lat="45.94375" lon="13.8859149"><ele>903.0</ele><time>2026-04-08T09:08:37.289Z</time></trkpt><trkpt lat="45.9436584" lon="13.8857438"><ele>903.0</ele><time>2026-04-08T09:08:38.344Z</time></trkpt><trkpt lat="45.9435766" lon="13.885579"><ele>903.0</ele><time>2026-04-08T09:08:39.281Z</time></trkpt><trkpt lat="45.9435111" lon="13.8854082"><ele>903.0</ele><time>2026-04-08T09:08:40.275Z</time></trkpt><trkpt lat="45.9434567" lon="13.8852292"><ele>903.0</ele><time>2026-04-08T09:08:41.273Z</time></trkpt><trkpt lat="45.943414" lon="13.8850392"><ele>903.0</ele><time>2026-04-08T09:08:42.278Z</time></trkpt><trkpt lat="45.9433698" lon="13.8848417"><ele>903.0</ele><time>2026-04-08T09:08:43.265Z</time></trkpt><trkpt lat="45.9433325" lon="13.8846488"><ele>903.0</ele><time>2026-04-08T09:08:44.278Z</time></trkpt><trkpt lat="45.9433097" lon="13.8844564"><ele>903.0</ele><time>2026-04-08T09:08:45.285Z</time></trkpt><trkpt lat="45.9432858" lon="13.8842647"><ele>903.0</ele><time>2026-04-08T09:08:46.278Z</time></trkpt><trkpt lat="45.9432749" lon="13.8840793"><ele>903.5</ele><time>2026-04-08T09:08:47.277Z</time></trkpt><trkpt lat="45.9432775" lon="13.8838968"><ele>904.0</ele><time>2026-04-08T09:08:48.277Z</time></trkpt><trkpt lat="45.9432746" lon="13.8837127"><ele>904.5</ele><time>2026-04-08T09:08:49.271Z</time></trkpt><trkpt lat="45.9432751" lon="13.8835348"><ele>905.0</ele><time>2026-04-08T09:08:50.272Z</time></trkpt><trkpt lat="45.9432928" lon="13.8833625"><ele>905.0</ele><time>2026-04-08T09:08:51.278Z</time></trkpt><trkpt lat="45.9433303" lon="13.8832084"><ele>905.0</ele><time>2026-04-08T09:08:52.276Z</time></trkpt><trkpt lat="45.9433858" lon="13.8830752"><ele>905.0</ele><time>2026-04-08T09:08:53.271Z</time></trkpt><trkpt lat="45.9434383" lon="13.8829582"><ele>905.0</ele><time>2026-04-08T09:08:54.279Z</time></trkpt><trkpt lat="45.9434789" lon="13.8828474"><ele>905.0</ele><time>2026-04-08T09:08:55.27Z</time></trkpt><trkpt lat="45.9435128" lon="13.8824829"><ele>905.1666666666667</ele><time>2026-04-08T09:08:58.283Z</time></trkpt><trkpt lat="45.9434845" lon="13.8823639"><ele>905.3333333333334</ele><time>2026-04-08T09:08:59.289Z</time></trkpt><trkpt lat="45.9434432" lon="13.8822475"><ele>905.5</ele><time>2026-04-08T09:09:00.275Z</time></trkpt><trkpt lat="45.9434029" lon="13.8821313"><ele>905.6666666666667</ele><time>2026-04-08T09:09:01.272Z</time></trkpt><trkpt lat="45.9433684" lon="13.8820142"><ele>905.8333333333334</ele><time>2026-04-08T09:09:02.284Z</time></trkpt><trkpt lat="45.9433425" lon="13.8818868"><ele>906.0</ele><time>2026-04-08T09:09:03.281Z</time></trkpt><trkpt lat="45.9433223" lon="13.8817563"><ele>906.0</ele><time>2026-04-08T09:09:04.264Z</time></trkpt><trkpt lat="45.9433176" lon="13.8814806"><ele>906.0</ele><time>2026-04-08T09:09:06.274Z</time></trkpt><trkpt lat="45.9433342" lon="13.8813249"><ele>906.0</ele><time>2026-04-08T09:09:07.274Z</time></trkpt><trkpt lat="45.9433508" lon="13.8811718"><ele>906.0</ele><time>2026-04-08T09:09:08.265Z</time></trkpt><trkpt lat="45.9433649" lon="13.8810186"><ele>905.0</ele><time>2026-04-08T09:09:09.287Z</time></trkpt><trkpt lat="45.9433839" lon="13.8808836"><ele>903.9999999999999</ele><time>2026-04-08T09:09:10.269Z</time></trkpt><trkpt lat="45.9434487" lon="13.8807787"><ele>902.9999999999999</ele><time>2026-04-08T09:09:11.265Z</time></trkpt><trkpt lat="45.9435436" lon="13.880699"><ele>902.0</ele><time>2026-04-08T09:09:12.287Z</time></trkpt><trkpt lat="45.9436517" lon="13.8806394"><ele>901.0</ele><time>2026-04-08T09:09:13.268Z</time></trkpt><trkpt lat="45.9437598" lon="13.8805815"><ele>901.0</ele><time>2026-04-08T09:09:14.27Z</time></trkpt><trkpt lat="45.9438608" lon="13.8805029"><ele>901.0</ele><time>2026-04-08T09:09:15.27Z</time></trkpt><trkpt lat="45.9439596" lon="13.8804116"><ele>901.0</ele><time>2026-04-08T09:09:16.27Z</time></trkpt><trkpt lat="45.9440549" lon="13.8803111"><ele>901.0</ele><time>2026-04-08T09:09:17.27Z</time></trkpt><trkpt lat="45.9441444" lon="13.8802021"><ele>899.5999999999999</ele><time>2026-04-08T09:09:18.274Z</time></trkpt><trkpt lat="45.9442268" lon="13.8800823"><ele>898.1999999999999</ele><time>2026-04-08T09:09:19.276Z</time></trkpt><trkpt lat="45.9442925" lon="13.8799557"><ele>896.8000000000001</ele><time>2026-04-08T09:09:20.265Z</time></trkpt><trkpt lat="45.9443498" lon="13.8798248"><ele>895.4000000000001</ele><time>2026-04-08T09:09:21.296Z</time></trkpt><trkpt lat="45.9444101" lon="13.8797054"><ele>894.0</ele><time>2026-04-08T09:09:22.279Z</time></trkpt><trkpt lat="45.9444788" lon="13.8795938"><ele>894.0</ele><time>2026-04-08T09:09:23.291Z</time></trkpt><trkpt lat="45.9445406" lon="13.8795005"><ele>894.0</ele><time>2026-04-08T09:09:24.269Z</time></trkpt><trkpt lat="45.9445927" lon="13.8794262"><ele>894.0</ele><time>2026-04-08T09:09:25.277Z</time></trkpt><trkpt lat="45.9446628" lon="13.8793666"><ele>894.0</ele><time>2026-04-08T09:09:27.291Z</time></trkpt><trkpt lat="45.9446818" lon="13.879277"><ele>894.0</ele><time>2026-04-08T09:09:31.288Z</time></trkpt><trkpt lat="45.9446048" lon="13.8792584"><ele>894.0</ele><time>2026-04-08T09:10:52.262Z</time></trkpt><trkpt lat="45.9446427" lon="13.879364"><ele>894.0</ele><time>2026-04-08T09:10:55.264Z</time></trkpt><trkpt lat="45.9447155" lon="13.8793993"><ele>894.0</ele><time>2026-04-08T09:10:58.277Z</time></trkpt><trkpt lat="45.9447926" lon="13.879405"><ele>894.0</ele><time>2026-04-08T09:11:02.266Z</time></trkpt><trkpt lat="45.944694" lon="13.8793101"><ele>894.0</ele><time>2026-04-08T09:11:08.269Z</time></trkpt><trkpt lat="45.9446897" lon="13.8790123"><ele>895.0</ele><time>2026-04-08T09:11:11.26Z</time></trkpt><trkpt lat="45.9447085" lon="13.8788861"><ele>896.0</ele><time>2026-04-08T09:11:12.286Z</time></trkpt><trkpt lat="45.9447205" lon="13.8785874"><ele>897.0</ele><time>2026-04-08T09:11:14.259Z</time></trkpt><trkpt lat="45.9447011" lon="13.8784017"><ele>898.0</ele><time>2026-04-08T09:11:15.266Z</time></trkpt><trkpt lat="45.9446831" lon="13.8781741"><ele>898.5</ele><time>2026-04-08T09:11:16.271Z</time></trkpt><trkpt lat="45.9446699" lon="13.8776561"><ele>899.0</ele><time>2026-04-08T09:11:18.264Z</time></trkpt><trkpt lat="45.9446533" lon="13.8774243"><ele>898.25</ele><time>2026-04-08T09:11:19.261Z</time></trkpt><trkpt lat="45.9446354" lon="13.8772143"><ele>897.5</ele><time>2026-04-08T09:11:20.262Z</time></trkpt><trkpt lat="45.9445949" lon="13.8770242"><ele>896.75</ele><time>2026-04-08T09:11:21.26Z</time></trkpt><trkpt lat="45.9445188" lon="13.876851"><ele>896.0</ele><time>2026-04-08T09:11:22.278Z</time></trkpt><trkpt lat="45.9444055" lon="13.8767033"><ele>896.0</ele><time>2026-04-08T09:11:23.287Z</time></trkpt><trkpt lat="45.9442576" lon="13.8765826"><ele>896.0</ele><time>2026-04-08T09:11:24.266Z</time></trkpt><trkpt lat="45.9441048" lon="13.87648"><ele>896.0</ele><time>2026-04-08T09:11:25.277Z</time></trkpt><trkpt lat="45.9439848" lon="13.8764105"><ele>895.4</ele><time>2026-04-08T09:11:26.287Z</time></trkpt><trkpt lat="45.9439052" lon="13.8763403"><ele>894.8</ele><time>2026-04-08T09:11:27.289Z</time></trkpt><trkpt lat="45.9438573" lon="13.8762457"><ele>894.1999999999999</ele><time>2026-04-08T09:11:28.262Z</time></trkpt><trkpt lat="45.9438665" lon="13.8761088"><ele>893.5999999999999</ele><time>2026-04-08T09:11:29.268Z</time></trkpt><trkpt lat="45.9439138" lon="13.8759504"><ele>893.0</ele><time>2026-04-08T09:11:30.274Z</time></trkpt><trkpt lat="45.9439744" lon="13.8757769"><ele>893.0</ele><time>2026-04-08T09:11:31.267Z</time></trkpt><trkpt lat="45.9440283" lon="13.8755648"><ele>893.0</ele><time>2026-04-08T09:11:32.256Z</time></trkpt><trkpt lat="45.9440761" lon="13.8753465"><ele>893.0</ele><time>2026-04-08T09:11:33.268Z</time></trkpt><trkpt lat="45.9441328" lon="13.875121"><ele>894.6666666666667</ele><time>2026-04-08T09:11:34.263Z</time></trkpt><trkpt lat="45.9442239" lon="13.8749065"><ele>896.3333333333333</ele><time>2026-04-08T09:11:35.262Z</time></trkpt><trkpt lat="45.9443416" lon="13.8747053"><ele>898.0</ele><time>2026-04-08T09:11:36.264Z</time></trkpt><trkpt lat="45.9444731" lon="13.8745164"><ele>898.0</ele><time>2026-04-08T09:11:37.265Z</time></trkpt><trkpt lat="45.9446048" lon="13.8743314"><ele>898.0</ele><time>2026-04-08T09:11:38.265Z</time></trkpt><trkpt lat="45.9447204" lon="13.8741597"><ele>898.0</ele><time>2026-04-08T09:11:39.266Z</time></trkpt><trkpt lat="45.9448" lon="13.8739948"><ele>896.5</ele><time>2026-04-08T09:11:40.261Z</time></trkpt><trkpt lat="45.9448373" lon="13.8737886"><ele>895.0</ele><time>2026-04-08T09:11:41.257Z</time></trkpt><trkpt lat="45.9448453" lon="13.8735838"><ele>893.5</ele><time>2026-04-08T09:11:42.27Z</time></trkpt><trkpt lat="45.9448589" lon="13.8734195"><ele>892.0</ele><time>2026-04-08T09:11:43.265Z</time></trkpt><trkpt lat="45.9449015" lon="13.8732889"><ele>891.25</ele><time>2026-04-08T09:11:44.269Z</time></trkpt><trkpt lat="45.9449822" lon="13.8731521"><ele>890.5</ele><time>2026-04-08T09:11:45.276Z</time></trkpt><trkpt lat="45.9451002" lon="13.8730614"><ele>889.75</ele><time>2026-04-08T09:11:46.271Z</time></trkpt><trkpt lat="45.9452291" lon="13.8729813"><ele>889.0</ele><time>2026-04-08T09:11:47.266Z</time></trkpt><trkpt lat="45.9453591" lon="13.8729267"><ele>890.5</ele><time>2026-04-08T09:11:48.26Z</time></trkpt><trkpt lat="45.945487" lon="13.8728855"><ele>892.0</ele><time>2026-04-08T09:11:49.277Z</time></trkpt><trkpt lat="45.9456161" lon="13.8728465"><ele>893.5</ele><time>2026-04-08T09:11:50.261Z</time></trkpt><trkpt lat="45.9457333" lon="13.8728069"><ele>895.0</ele><time>2026-04-08T09:11:51.262Z</time></trkpt><trkpt lat="45.9458454" lon="13.8727429"><ele>893.75</ele><time>2026-04-08T09:11:52.266Z</time></trkpt><trkpt lat="45.9459389" lon="13.872654"><ele>892.5</ele><time>2026-04-08T09:11:53.279Z</time></trkpt><trkpt lat="45.9460186" lon="13.8725027"><ele>891.25</ele><time>2026-04-08T09:11:54.261Z</time></trkpt><trkpt lat="45.9460773" lon="13.8723037"><ele>890.0</ele><time>2026-04-08T09:11:55.281Z</time></trkpt><trkpt lat="45.9461116" lon="13.872095"><ele>890.0</ele><time>2026-04-08T09:11:56.275Z</time></trkpt><trkpt lat="45.9461325" lon="13.8718721"><ele>890.0</ele><time>2026-04-08T09:11:57.273Z</time></trkpt><trkpt lat="45.9461728" lon="13.8716916"><ele>890.0</ele><time>2026-04-08T09:11:58.265Z</time></trkpt><trkpt lat="45.9462218" lon="13.8715264"><ele>890.0</ele><time>2026-04-08T09:11:59.27Z</time></trkpt><trkpt lat="45.946277" lon="13.8713613"><ele>889.5</ele><time>2026-04-08T09:12:00.269Z</time></trkpt><trkpt lat="45.9463434" lon="13.8712257"><ele>889.0</ele><time>2026-04-08T09:12:01.274Z</time></trkpt><trkpt lat="45.9464308" lon="13.871102"><ele>888.5</ele><time>2026-04-08T09:12:02.267Z</time></trkpt><trkpt lat="45.9465319" lon="13.8709611"><ele>888.0</ele><time>2026-04-08T09:12:03.3Z</time></trkpt><trkpt lat="45.9466348" lon="13.8708164"><ele>891.4</ele><time>2026-04-08T09:12:04.275Z</time></trkpt><trkpt lat="45.9467254" lon="13.8706802"><ele>894.8</ele><time>2026-04-08T09:12:05.265Z</time></trkpt><trkpt lat="45.9467866" lon="13.8705381"><ele>898.2</ele><time>2026-04-08T09:12:06.267Z</time></trkpt><trkpt lat="45.9468123" lon="13.870388"><ele>901.6</ele><time>2026-04-08T09:12:07.271Z</time></trkpt><trkpt lat="45.9467918" lon="13.870258"><ele>905.0</ele><time>2026-04-08T09:12:08.276Z</time></trkpt><trkpt lat="45.9467648" lon="13.8701521"><ele>904.8</ele><time>2026-04-08T09:12:09.267Z</time></trkpt><trkpt lat="45.9467653" lon="13.8700601"><ele>904.6</ele><time>2026-04-08T09:12:10.263Z</time></trkpt><trkpt lat="45.9468053" lon="13.8699641"><ele>904.4000000000001</ele><time>2026-04-08T09:12:11.282Z</time></trkpt><trkpt lat="45.9468935" lon="13.8698296"><ele>904.2</ele><time>2026-04-08T09:12:12.269Z</time></trkpt><trkpt lat="45.9470079" lon="13.8696793"><ele>904.0</ele><time>2026-04-08T09:12:13.27Z</time></trkpt><trkpt lat="45.9471374" lon="13.8695142"><ele>904.0</ele><time>2026-04-08T09:12:14.266Z</time></trkpt><trkpt lat="45.9472806" lon="13.8693424"><ele>904.0</ele><time>2026-04-08T09:12:15.274Z</time></trkpt><trkpt lat="45.9474335" lon="13.8691659"><ele>904.0</ele><time>2026-04-08T09:12:16.275Z</time></trkpt><trkpt lat="45.9475889" lon="13.8689889"><ele>911.6666666666666</ele><time>2026-04-08T09:12:17.266Z</time></trkpt><trkpt lat="45.9477487" lon="13.86879"><ele>919.3333333333333</ele><time>2026-04-08T09:12:18.265Z</time></trkpt><trkpt lat="45.9479063" lon="13.8685805"><ele>927.0</ele><time>2026-04-08T09:12:19.263Z</time></trkpt><trkpt lat="45.9480661" lon="13.8683682"><ele>927.0</ele><time>2026-04-08T09:12:20.289Z</time></trkpt><trkpt lat="45.9482307" lon="13.8681585"><ele>927.0</ele><time>2026-04-08T09:12:21.266Z</time></trkpt><trkpt lat="45.9485544" lon="13.8677446"><ele>930.0</ele><time>2026-04-08T09:12:23.264Z</time></trkpt><trkpt lat="45.9487163" lon="13.8675339"><ele>933.0</ele><time>2026-04-08T09:12:24.28Z</time></trkpt><trkpt lat="45.9488752" lon="13.867319"><ele>936.0</ele><time>2026-04-08T09:12:25.306Z</time></trkpt><trkpt lat="45.9490358" lon="13.867111"><ele>936.0</ele><time>2026-04-08T09:12:26.267Z</time></trkpt><trkpt lat="45.9492003" lon="13.866897"><ele>936.0</ele><time>2026-04-08T09:12:27.269Z</time></trkpt><trkpt lat="45.9495532" lon="13.8665082"><ele>937.0</ele><time>2026-04-08T09:12:29.27Z</time></trkpt><trkpt lat="45.9499018" lon="13.8661478"><ele>938.0</ele><time>2026-04-08T09:12:31.27Z</time></trkpt><trkpt lat="45.9500595" lon="13.8659563"><ele>943.3333333333334</ele><time>2026-04-08T09:12:32.271Z</time></trkpt><trkpt lat="45.9502146" lon="13.8657471"><ele>948.6666666666667</ele><time>2026-04-08T09:12:33.265Z</time></trkpt><trkpt lat="45.9503516" lon="13.8654895"><ele>954.0</ele><time>2026-04-08T09:12:34.255Z</time></trkpt><trkpt lat="45.9504884" lon="13.8652107"><ele>950.0</ele><time>2026-04-08T09:12:35.276Z</time></trkpt><trkpt lat="45.9506425" lon="13.8649308"><ele>946.0</ele><time>2026-04-08T09:12:36.28Z</time></trkpt><trkpt lat="45.9508121" lon="13.8646615"><ele>953.0</ele><time>2026-04-08T09:12:37.268Z</time></trkpt><trkpt lat="45.9509983" lon="13.8643969"><ele>960.0</ele><time>2026-04-08T09:12:38.264Z</time></trkpt><trkpt lat="45.9511951" lon="13.8641503"><ele>960.0</ele><time>2026-04-08T09:12:39.277Z</time></trkpt><trkpt lat="45.9513884" lon="13.8639097"><ele>960.0</ele><time>2026-04-08T09:12:40.275Z</time></trkpt><trkpt lat="45.9515569" lon="13.8636728"><ele>964.5</ele><time>2026-04-08T09:12:41.254Z</time></trkpt><trkpt lat="45.9517128" lon="13.8634317"><ele>969.0</ele><time>2026-04-08T09:12:42.255Z</time></trkpt><trkpt lat="45.9518743" lon="13.8632089"><ele>969.0</ele><time>2026-04-08T09:12:43.263Z</time></trkpt><trkpt lat="45.9520464" lon="13.8630139"><ele>969.0</ele><time>2026-04-08T09:12:44.27Z</time></trkpt><trkpt lat="45.9522212" lon="13.8628411"><ele>969.0</ele><time>2026-04-08T09:12:45.276Z</time></trkpt><trkpt lat="45.952386" lon="13.8626655"><ele>971.3333333333333</ele><time>2026-04-08T09:12:46.261Z</time></trkpt><trkpt lat="45.9525524" lon="13.8624844"><ele>973.6666666666666</ele><time>2026-04-08T09:12:47.258Z</time></trkpt><trkpt lat="45.9527134" lon="13.862291"><ele>976.0</ele><time>2026-04-08T09:12:48.281Z</time></trkpt><trkpt lat="45.952874" lon="13.8621122"><ele>976.0</ele><time>2026-04-08T09:12:49.266Z</time></trkpt><trkpt lat="45.9530359" lon="13.8619605"><ele>976.0</ele><time>2026-04-08T09:12:50.255Z</time></trkpt><trkpt lat="45.9532016" lon="13.8618157"><ele>976.0</ele><time>2026-04-08T09:12:51.265Z</time></trkpt><trkpt lat="45.9533748" lon="13.8616633"><ele>973.0</ele><time>2026-04-08T09:12:52.279Z</time></trkpt><trkpt lat="45.9535592" lon="13.8614705"><ele>970.0</ele><time>2026-04-08T09:12:53.269Z</time></trkpt><trkpt lat="45.9537444" lon="13.8612881"><ele>970.0</ele><time>2026-04-08T09:12:54.263Z</time></trkpt><trkpt lat="45.9539317" lon="13.8610991"><ele>970.0</ele><time>2026-04-08T09:12:55.266Z</time></trkpt><trkpt lat="45.9541187" lon="13.8608959"><ele>971.5</ele><time>2026-04-08T09:12:56.262Z</time></trkpt><trkpt lat="45.9543135" lon="13.860683"><ele>973.0</ele><time>2026-04-08T09:12:57.265Z</time></trkpt><trkpt lat="45.9544986" lon="13.8604508"><ele>973.0</ele><time>2026-04-08T09:12:58.262Z</time></trkpt><trkpt lat="45.9546959" lon="13.8602191"><ele>973.0</ele><time>2026-04-08T09:12:59.265Z</time></trkpt><trkpt lat="45.9548797" lon="13.8599797"><ele>973.5</ele><time>2026-04-08T09:13:00.267Z</time></trkpt><trkpt lat="45.9550667" lon="13.85974"><ele>974.0</ele><time>2026-04-08T09:13:01.259Z</time></trkpt><trkpt lat="45.955251" lon="13.8594961"><ele>974.5</ele><time>2026-04-08T09:13:02.265Z</time></trkpt><trkpt lat="45.955425" lon="13.8592272"><ele>975.0</ele><time>2026-04-08T09:13:03.266Z</time></trkpt><trkpt lat="45.9555971" lon="13.8589543"><ele>975.0</ele><time>2026-04-08T09:13:04.255Z</time></trkpt><trkpt lat="45.9557628" lon="13.858685"><ele>975.0</ele><time>2026-04-08T09:13:05.284Z</time></trkpt><trkpt lat="45.9559153" lon="13.8584151"><ele>981.5</ele><time>2026-04-08T09:13:06.274Z</time></trkpt><trkpt lat="45.9560593" lon="13.8581438"><ele>988.0</ele><time>2026-04-08T09:13:07.255Z</time></trkpt><trkpt lat="45.9561801" lon="13.8578785"><ele>987.0</ele><time>2026-04-08T09:13:08.256Z</time></trkpt><trkpt lat="45.95641" lon="13.8573794"><ele>986.0</ele><time>2026-04-08T09:13:10.272Z</time></trkpt><trkpt lat="45.9565128" lon="13.8571285"><ele>986.0</ele><time>2026-04-08T09:13:11.257Z</time></trkpt><trkpt lat="45.9566188" lon="13.8568969"><ele>986.0</ele><time>2026-04-08T09:13:12.257Z</time></trkpt><trkpt lat="45.9567314" lon="13.8566973"><ele>986.0</ele><time>2026-04-08T09:13:13.283Z</time></trkpt><trkpt lat="45.9568469" lon="13.8565175"><ele>985.75</ele><time>2026-04-08T09:13:14.272Z</time></trkpt><trkpt lat="45.9569592" lon="13.8563883"><ele>985.5</ele><time>2026-04-08T09:13:15.269Z</time></trkpt><trkpt lat="45.9570815" lon="13.8562811"><ele>985.25</ele><time>2026-04-08T09:13:16.252Z</time></trkpt><trkpt lat="45.9572133" lon="13.8561845"><ele>985.0</ele><time>2026-04-08T09:13:17.267Z</time></trkpt><trkpt lat="45.9573604" lon="13.856094"><ele>985.0</ele><time>2026-04-08T09:13:18.261Z</time></trkpt><trkpt lat="45.9575341" lon="13.8559908"><ele>985.0</ele><time>2026-04-08T09:13:19.271Z</time></trkpt><trkpt lat="45.9577211" lon="13.8558517"><ele>985.0</ele><time>2026-04-08T09:13:20.275Z</time></trkpt><trkpt lat="45.9579155" lon="13.8557009"><ele>985.0</ele><time>2026-04-08T09:13:21.274Z</time></trkpt><trkpt lat="45.9581009" lon="13.85553"><ele>985.0</ele><time>2026-04-08T09:13:22.263Z</time></trkpt><trkpt lat="45.9583064" lon="13.855361"><ele>986.5</ele><time>2026-04-08T09:13:23.26Z</time></trkpt><trkpt lat="45.9585205" lon="13.8552073"><ele>988.0</ele><time>2026-04-08T09:13:24.257Z</time></trkpt><trkpt lat="45.9587172" lon="13.8550951"><ele>988.0</ele><time>2026-04-08T09:13:25.262Z</time></trkpt><trkpt lat="45.9588915" lon="13.8550068"><ele>988.0</ele><time>2026-04-08T09:13:26.263Z</time></trkpt><trkpt lat="45.9590624" lon="13.8549446"><ele>988.0</ele><time>2026-04-08T09:13:27.268Z</time></trkpt><trkpt lat="45.9592145" lon="13.8549025"><ele>990.0</ele><time>2026-04-08T09:13:28.268Z</time></trkpt><trkpt lat="45.9593452" lon="13.8548988"><ele>992.0</ele><time>2026-04-08T09:13:29.26Z</time></trkpt><trkpt lat="45.9594766" lon="13.8549175"><ele>994.0</ele><time>2026-04-08T09:13:30.263Z</time></trkpt><trkpt lat="45.9595988" lon="13.8549392"><ele>996.0</ele><time>2026-04-08T09:13:31.291Z</time></trkpt><trkpt lat="45.9597316" lon="13.8549292"><ele>996.0</ele><time>2026-04-08T09:13:32.253Z</time></trkpt><trkpt lat="45.959857" lon="13.8548414"><ele>996.0</ele><time>2026-04-08T09:13:33.263Z</time></trkpt><trkpt lat="45.9599681" lon="13.8547102"><ele>996.0</ele><time>2026-04-08T09:13:34.266Z</time></trkpt><trkpt lat="45.9600716" lon="13.8545529"><ele>996.0</ele><time>2026-04-08T09:13:35.254Z</time></trkpt><trkpt lat="45.9601635" lon="13.8543782"><ele>998.3333333333333</ele><time>2026-04-08T09:13:36.266Z</time></trkpt><trkpt lat="45.9602168" lon="13.8541626"><ele>1000.6666666666666</ele><time>2026-04-08T09:13:37.26Z</time></trkpt><trkpt lat="45.9602214" lon="13.8539256"><ele>1003.0</ele><time>2026-04-08T09:13:38.262Z</time></trkpt><trkpt lat="45.9601876" lon="13.8537086"><ele>1003.0</ele><time>2026-04-08T09:13:39.284Z</time></trkpt><trkpt lat="45.9601219" lon="13.8535131"><ele>1003.0</ele><time>2026-04-08T09:13:40.266Z</time></trkpt><trkpt lat="45.9600253" lon="13.8533512"><ele>1003.0</ele><time>2026-04-08T09:13:41.278Z</time></trkpt><trkpt lat="45.959916" lon="13.8532453"><ele>1003.0</ele><time>2026-04-08T09:13:42.263Z</time></trkpt><trkpt lat="45.9597821" lon="13.8532141"><ele>1002.5</ele><time>2026-04-08T09:13:43.27Z</time></trkpt><trkpt lat="45.9596302" lon="13.8532157"><ele>1002.0</ele><time>2026-04-08T09:13:44.289Z</time></trkpt><trkpt lat="45.9594757" lon="13.853208"><ele>1001.5</ele><time>2026-04-08T09:13:45.269Z</time></trkpt><trkpt lat="45.9593592" lon="13.85314"><ele>1001.0</ele><time>2026-04-08T09:13:46.273Z</time></trkpt><trkpt lat="45.9592954" lon="13.8530151"><ele>1001.0</ele><time>2026-04-08T09:13:47.266Z</time></trkpt><trkpt lat="45.9592521" lon="13.8528452"><ele>1001.0</ele><time>2026-04-08T09:13:48.263Z</time></trkpt><trkpt lat="45.9592376" lon="13.8526424"><ele>1001.0</ele><time>2026-04-08T09:13:49.267Z</time></trkpt><trkpt lat="45.9592268" lon="13.8524109"><ele>1001.0</ele><time>2026-04-08T09:13:50.288Z</time></trkpt><trkpt lat="45.9592232" lon="13.8521742"><ele>1004.1999999999999</ele><time>2026-04-08T09:13:51.261Z</time></trkpt><trkpt lat="45.9592489" lon="13.8519579"><ele>1007.3999999999999</ele><time>2026-04-08T09:13:52.265Z</time></trkpt><trkpt lat="45.9593165" lon="13.8517999"><ele>1010.6</ele><time>2026-04-08T09:13:53.277Z</time></trkpt><trkpt lat="45.9593773" lon="13.8516882"><ele>1013.8</ele><time>2026-04-08T09:13:54.279Z</time></trkpt><trkpt lat="45.9593868" lon="13.8515899"><ele>1017.0</ele><time>2026-04-08T09:13:55.269Z</time></trkpt><trkpt lat="45.959268" lon="13.8515049"><ele>1017.75</ele><time>2026-04-08T09:13:57.263Z</time></trkpt><trkpt lat="45.959177" lon="13.8515608"><ele>1018.5</ele><time>2026-04-08T09:13:58.266Z</time></trkpt><trkpt lat="45.9590717" lon="13.8516635"><ele>1019.25</ele><time>2026-04-08T09:13:59.269Z</time></trkpt><trkpt lat="45.9589329" lon="13.8517919"><ele>1020.0</ele><time>2026-04-08T09:14:00.258Z</time></trkpt><trkpt lat="45.9587748" lon="13.8519365"><ele>1022.3333333333333</ele><time>2026-04-08T09:14:01.278Z</time></trkpt><trkpt lat="45.9585992" lon="13.8520928"><ele>1024.6666666666665</ele><time>2026-04-08T09:14:02.266Z</time></trkpt><trkpt lat="45.9584099" lon="13.8522366"><ele>1027.0</ele><time>2026-04-08T09:14:03.279Z</time></trkpt><trkpt lat="45.9582165" lon="13.852385"><ele>1027.0</ele><time>2026-04-08T09:14:04.265Z</time></trkpt><trkpt lat="45.9580128" lon="13.8525537"><ele>1027.0</ele><time>2026-04-08T09:14:05.263Z</time></trkpt><trkpt lat="45.9578117" lon="13.8527085"><ele>1028.0</ele><time>2026-04-08T09:14:06.266Z</time></trkpt><trkpt lat="45.9576206" lon="13.8528559"><ele>1029.0</ele><time>2026-04-08T09:14:07.284Z</time></trkpt><trkpt lat="45.9574346" lon="13.8530221"><ele>1030.0</ele><time>2026-04-08T09:14:08.27Z</time></trkpt><trkpt lat="45.9572829" lon="13.8532051"><ele>1030.0</ele><time>2026-04-08T09:14:09.268Z</time></trkpt><trkpt lat="45.9571501" lon="13.8533457"><ele>1030.0</ele><time>2026-04-08T09:14:10.271Z</time></trkpt><trkpt lat="45.9569895" lon="13.8534577"><ele>1030.0</ele><time>2026-04-08T09:14:11.268Z</time></trkpt><trkpt lat="45.9568212" lon="13.8535538"><ele>1028.6666666666665</ele><time>2026-04-08T09:14:12.262Z</time></trkpt><trkpt lat="45.9566526" lon="13.8536607"><ele>1027.3333333333333</ele><time>2026-04-08T09:14:13.264Z</time></trkpt><trkpt lat="45.9564944" lon="13.8537754"><ele>1026.0</ele><time>2026-04-08T09:14:14.267Z</time></trkpt><trkpt lat="45.9563552" lon="13.8538811"><ele>1026.0</ele><time>2026-04-08T09:14:15.265Z</time></trkpt><trkpt lat="45.9562291" lon="13.8539783"><ele>1026.0</ele><time>2026-04-08T09:14:16.268Z</time></trkpt><trkpt lat="45.9561504" lon="13.8540189"><ele>1026.0</ele><time>2026-04-08T09:14:17.275Z</time></trkpt><trkpt lat="45.9560672" lon="13.8540317"><ele>1026.0</ele><time>2026-04-08T09:14:19.269Z</time></trkpt><trkpt lat="45.9559871" lon="13.8540772"><ele>1026.0</ele><time>2026-04-08T09:14:21.26Z</time></trkpt><trkpt lat="45.9559123" lon="13.8541463"><ele>1024.0</ele><time>2026-04-08T09:16:51.26Z</time></trkpt><trkpt lat="45.955835" lon="13.8542042"><ele>1022.0</ele><time>2026-04-08T09:16:53.246Z</time></trkpt><trkpt lat="45.9558529" lon="13.8544421"><ele>1020.0</ele><time>2026-04-08T09:16:56.249Z</time></trkpt><trkpt lat="45.9559074" lon="13.8546133"><ele>1018.0</ele><time>2026-04-08T09:16:58.249Z</time></trkpt><trkpt lat="45.9559279" lon="13.8547146"><ele>1017.9999999999999</ele><time>2026-04-08T09:16:59.248Z</time></trkpt><trkpt lat="45.955922" lon="13.8548077"><ele>1018.0</ele><time>2026-04-08T09:17:00.24Z</time></trkpt><trkpt lat="45.9558976" lon="13.8548948"><ele>1017.9999999999999</ele><time>2026-04-08T09:17:01.241Z</time></trkpt><trkpt lat="45.9558707" lon="13.8549784"><ele>1017.9999999999999</ele><time>2026-04-08T09:17:02.261Z</time></trkpt><trkpt lat="45.9558256" lon="13.8550458"><ele>1018.0</ele><time>2026-04-08T09:17:03.26Z</time></trkpt><trkpt lat="45.9557537" lon="13.8550958"><ele>1017.9999999999999</ele><time>2026-04-08T09:17:04.246Z</time></trkpt><trkpt lat="45.9556681" lon="13.8551473"><ele>1017.9999999999999</ele><time>2026-04-08T09:17:05.247Z</time></trkpt><trkpt lat="45.9555811" lon="13.855212"><ele>1019.4</ele><time>2026-04-08T09:17:06.246Z</time></trkpt><trkpt lat="45.9554942" lon="13.8552898"><ele>1020.8</ele><time>2026-04-08T09:17:07.245Z</time></trkpt><trkpt lat="45.9554088" lon="13.8553929"><ele>1022.2</ele><time>2026-04-08T09:17:08.255Z</time></trkpt><trkpt lat="45.9553274" lon="13.8555007"><ele>1023.6</ele><time>2026-04-08T09:17:09.239Z</time></trkpt><trkpt lat="45.9552519" lon="13.8556126"><ele>1025.0</ele><time>2026-04-08T09:17:10.247Z</time></trkpt><trkpt lat="45.9551724" lon="13.8557319"><ele>1025.0</ele><time>2026-04-08T09:17:11.248Z</time></trkpt><trkpt lat="45.9550967" lon="13.8558587"><ele>1025.0</ele><time>2026-04-08T09:17:12.244Z</time></trkpt><trkpt lat="45.9550177" lon="13.8559959"><ele>1025.0</ele><time>2026-04-08T09:17:13.246Z</time></trkpt><trkpt lat="45.9549423" lon="13.8561268"><ele>1025.0</ele><time>2026-04-08T09:17:14.249Z</time></trkpt><trkpt lat="45.9548601" lon="13.8562383"><ele>1027.75</ele><time>2026-04-08T09:17:15.237Z</time></trkpt><trkpt lat="45.9547698" lon="13.8563369"><ele>1030.5</ele><time>2026-04-08T09:17:16.266Z</time></trkpt><trkpt lat="45.9546784" lon="13.8564287"><ele>1033.25</ele><time>2026-04-08T09:17:17.248Z</time></trkpt><trkpt lat="45.954584" lon="13.8565299"><ele>1036.0</ele><time>2026-04-08T09:17:18.244Z</time></trkpt><trkpt lat="45.9544824" lon="13.8566222"><ele>1036.0</ele><time>2026-04-08T09:17:19.242Z</time></trkpt><trkpt lat="45.9543699" lon="13.8567016"><ele>1036.0</ele><time>2026-04-08T09:17:20.246Z</time></trkpt><trkpt lat="45.9542601" lon="13.8567758"><ele>1036.0</ele><time>2026-04-08T09:17:21.242Z</time></trkpt><trkpt lat="45.9541464" lon="13.8568325"><ele>1036.0</ele><time>2026-04-08T09:17:22.237Z</time></trkpt><trkpt lat="45.9540364" lon="13.8568604"><ele>1036.5</ele><time>2026-04-08T09:17:23.253Z</time></trkpt><trkpt lat="45.9539139" lon="13.8568736"><ele>1037.0</ele><time>2026-04-08T09:17:24.246Z</time></trkpt><trkpt lat="45.9537888" lon="13.8568586"><ele>1037.5</ele><time>2026-04-08T09:17:25.272Z</time></trkpt><trkpt lat="45.9536537" lon="13.856838"><ele>1038.0</ele><time>2026-04-08T09:17:26.259Z</time></trkpt><trkpt lat="45.953531" lon="13.8568077"><ele>1041.2</ele><time>2026-04-08T09:17:27.249Z</time></trkpt><trkpt lat="45.9534248" lon="13.8567662"><ele>1044.4</ele><time>2026-04-08T09:17:28.234Z</time></trkpt><trkpt lat="45.9533249" lon="13.8567048"><ele>1047.6000000000001</ele><time>2026-04-08T09:17:29.251Z</time></trkpt><trkpt lat="45.9532562" lon="13.8566203"><ele>1050.8</ele><time>2026-04-08T09:17:30.254Z</time></trkpt><trkpt lat="45.9532217" lon="13.8565193"><ele>1054.0</ele><time>2026-04-08T09:17:31.261Z</time></trkpt><trkpt lat="45.9532164" lon="13.8564034"><ele>1054.1666666666665</ele><time>2026-04-08T09:17:32.238Z</time></trkpt><trkpt lat="45.9532301" lon="13.8562717"><ele>1054.3333333333333</ele><time>2026-04-08T09:17:33.228Z</time></trkpt><trkpt lat="45.953244" lon="13.8561171"><ele>1054.5</ele><time>2026-04-08T09:17:34.237Z</time></trkpt><trkpt lat="45.9532373" lon="13.8559905"><ele>1054.6666666666667</ele><time>2026-04-08T09:17:35.243Z</time></trkpt><trkpt lat="45.9531976" lon="13.8558994"><ele>1054.8333333333335</ele><time>2026-04-08T09:17:36.249Z</time></trkpt><trkpt lat="45.9531328" lon="13.8558282"><ele>1055.0</ele><time>2026-04-08T09:17:37.26Z</time></trkpt><trkpt lat="45.9530467" lon="13.8557533"><ele>1056.0</ele><time>2026-04-08T09:17:38.249Z</time></trkpt><trkpt lat="45.9529551" lon="13.8556748"><ele>1057.0</ele><time>2026-04-08T09:17:39.254Z</time></trkpt><trkpt lat="45.9528549" lon="13.8556169"><ele>1058.0</ele><time>2026-04-08T09:17:40.252Z</time></trkpt><trkpt lat="45.9527527" lon="13.8555764"><ele>1059.0</ele><time>2026-04-08T09:17:41.25Z</time></trkpt><trkpt lat="45.9526458" lon="13.8555529"><ele>1060.0</ele><time>2026-04-08T09:17:42.237Z</time></trkpt><trkpt lat="45.9525367" lon="13.8555482"><ele>1060.8</ele><time>2026-04-08T09:17:43.247Z</time></trkpt><trkpt lat="45.9524192" lon="13.855568"><ele>1061.6</ele><time>2026-04-08T09:17:44.234Z</time></trkpt><trkpt lat="45.9523028" lon="13.8555889"><ele>1062.4</ele><time>2026-04-08T09:17:45.246Z</time></trkpt><trkpt lat="45.952197" lon="13.8555839"><ele>1063.2</ele><time>2026-04-08T09:17:46.247Z</time></trkpt><trkpt lat="45.952105" lon="13.8555535"><ele>1064.0</ele><time>2026-04-08T09:17:47.243Z</time></trkpt><trkpt lat="45.9520322" lon="13.8554713"><ele>1064.0</ele><time>2026-04-08T09:17:48.23Z</time></trkpt><trkpt lat="45.9519742" lon="13.8553744"><ele>1064.0</ele><time>2026-04-08T09:17:49.236Z</time></trkpt><trkpt lat="45.9519056" lon="13.855293"><ele>1064.0</ele><time>2026-04-08T09:17:50.253Z</time></trkpt><trkpt lat="45.951826" lon="13.8552288"><ele>1064.0</ele><time>2026-04-08T09:17:51.244Z</time></trkpt><trkpt lat="45.9517319" lon="13.8551748"><ele>1064.0</ele><time>2026-04-08T09:17:52.244Z</time></trkpt><trkpt lat="45.9516368" lon="13.8551477"><ele>1064.75</ele><time>2026-04-08T09:17:53.23Z</time></trkpt><trkpt lat="45.9515273" lon="13.8551446"><ele>1065.5</ele><time>2026-04-08T09:17:54.245Z</time></trkpt><trkpt lat="45.9514108" lon="13.8551461"><ele>1066.25</ele><time>2026-04-08T09:17:55.25Z</time></trkpt><trkpt lat="45.9512877" lon="13.8551565"><ele>1067.0</ele><time>2026-04-08T09:17:56.233Z</time></trkpt><trkpt lat="45.9511692" lon="13.8551569"><ele>1067.0</ele><time>2026-04-08T09:17:57.235Z</time></trkpt><trkpt lat="45.9510518" lon="13.8551242"><ele>1067.0</ele><time>2026-04-08T09:17:58.23Z</time></trkpt><trkpt lat="45.9509402" lon="13.8550633"><ele>1067.0</ele><time>2026-04-08T09:17:59.233Z</time></trkpt><trkpt lat="45.9508186" lon="13.8549974"><ele>1067.0</ele><time>2026-04-08T09:18:00.24Z</time></trkpt><trkpt lat="45.9507115" lon="13.854915"><ele>1070.25</ele><time>2026-04-08T09:18:01.238Z</time></trkpt><trkpt lat="45.9505907" lon="13.8548481"><ele>1073.5</ele><time>2026-04-08T09:18:02.243Z</time></trkpt><trkpt lat="45.9504634" lon="13.8548067"><ele>1076.75</ele><time>2026-04-08T09:18:03.236Z</time></trkpt><trkpt lat="45.9503304" lon="13.8547663"><ele>1080.0</ele><time>2026-04-08T09:18:04.23Z</time></trkpt><trkpt lat="45.9501986" lon="13.8547172"><ele>1080.0</ele><time>2026-04-08T09:18:05.247Z</time></trkpt><trkpt lat="45.9500719" lon="13.8546901"><ele>1080.0</ele><time>2026-04-08T09:18:06.239Z</time></trkpt><trkpt lat="45.949949" lon="13.854692"><ele>1080.0</ele><time>2026-04-08T09:18:07.237Z</time></trkpt><trkpt lat="45.9498234" lon="13.8547021"><ele>1080.0</ele><time>2026-04-08T09:18:08.23Z</time></trkpt><trkpt lat="45.9496912" lon="13.8547089"><ele>1079.75</ele><time>2026-04-08T09:18:09.248Z</time></trkpt><trkpt lat="45.9495623" lon="13.8547084"><ele>1079.5</ele><time>2026-04-08T09:18:10.234Z</time></trkpt><trkpt lat="45.9494058" lon="13.8547175"><ele>1079.25</ele><time>2026-04-08T09:18:11.238Z</time></trkpt><trkpt lat="45.9492455" lon="13.8547553"><ele>1079.0</ele><time>2026-04-08T09:18:12.233Z</time></trkpt><trkpt lat="45.9490895" lon="13.854785"><ele>1079.0</ele><time>2026-04-08T09:18:13.244Z</time></trkpt><trkpt lat="45.9489435" lon="13.8548138"><ele>1079.0</ele><time>2026-04-08T09:18:14.23Z</time></trkpt><trkpt lat="45.9488084" lon="13.8548389"><ele>1079.0</ele><time>2026-04-08T09:18:15.257Z</time></trkpt><trkpt lat="45.9486781" lon="13.8548534"><ele>1079.0</ele><time>2026-04-08T09:18:16.229Z</time></trkpt><trkpt lat="45.9485448" lon="13.8548684"><ele>1079.0</ele><time>2026-04-08T09:18:17.238Z</time></trkpt><trkpt lat="45.9484222" lon="13.8548877"><ele>1079.0</ele><time>2026-04-08T09:18:18.224Z</time></trkpt><trkpt lat="45.948305" lon="13.854903"><ele>1079.0</ele><time>2026-04-08T09:18:19.234Z</time></trkpt><trkpt lat="45.9481943" lon="13.8548945"><ele>1079.0</ele><time>2026-04-08T09:18:20.228Z</time></trkpt><trkpt lat="45.9480814" lon="13.8548764"><ele>1080.25</ele><time>2026-04-08T09:18:21.225Z</time></trkpt><trkpt lat="45.947965" lon="13.8548404"><ele>1081.5</ele><time>2026-04-08T09:18:22.222Z</time></trkpt><trkpt lat="45.9478355" lon="13.8548222"><ele>1082.75</ele><time>2026-04-08T09:18:23.224Z</time></trkpt><trkpt lat="45.9476926" lon="13.8548157"><ele>1084.0</ele><time>2026-04-08T09:18:24.238Z</time></trkpt><trkpt lat="45.9475566" lon="13.8548045"><ele>1084.2</ele><time>2026-04-08T09:18:25.231Z</time></trkpt><trkpt lat="45.9474436" lon="13.8547715"><ele>1084.4</ele><time>2026-04-08T09:18:26.224Z</time></trkpt><trkpt lat="45.9473465" lon="13.8547259"><ele>1084.6</ele><time>2026-04-08T09:18:27.268Z</time></trkpt><trkpt lat="45.9472587" lon="13.8546597"><ele>1084.8</ele><time>2026-04-08T09:18:28.22Z</time></trkpt><trkpt lat="45.9471587" lon="13.8546156"><ele>1085.0</ele><time>2026-04-08T09:18:29.219Z</time></trkpt><trkpt lat="45.9470604" lon="13.8545982"><ele>1085.0</ele><time>2026-04-08T09:18:30.228Z</time></trkpt><trkpt lat="45.9469702" lon="13.8545902"><ele>1085.0</ele><time>2026-04-08T09:18:31.243Z</time></trkpt><trkpt lat="45.9468706" lon="13.8546055"><ele>1085.0</ele><time>2026-04-08T09:18:32.235Z</time></trkpt><trkpt lat="45.9467829" lon="13.8546613"><ele>1085.0</ele><time>2026-04-08T09:18:33.222Z</time></trkpt><trkpt lat="45.9466696" lon="13.8547766"><ele>1085.0</ele><time>2026-04-08T09:18:34.229Z</time></trkpt><trkpt lat="45.9465538" lon="13.8549041"><ele>1086.0</ele><time>2026-04-08T09:18:35.232Z</time></trkpt><trkpt lat="45.9464154" lon="13.855016"><ele>1087.0</ele><time>2026-04-08T09:18:36.237Z</time></trkpt><trkpt lat="45.9462726" lon="13.8551129"><ele>1088.0</ele><time>2026-04-08T09:18:37.223Z</time></trkpt><trkpt lat="45.9461426" lon="13.8552138"><ele>1087.75</ele><time>2026-04-08T09:18:38.227Z</time></trkpt><trkpt lat="45.9460346" lon="13.8553368"><ele>1087.5</ele><time>2026-04-08T09:18:39.24Z</time></trkpt><trkpt lat="45.9459512" lon="13.8554572"><ele>1087.25</ele><time>2026-04-08T09:18:40.241Z</time></trkpt><trkpt lat="45.9458642" lon="13.8555902"><ele>1087.0</ele><time>2026-04-08T09:18:41.238Z</time></trkpt><trkpt lat="45.9457909" lon="13.8556884"><ele>1087.0</ele><time>2026-04-08T09:18:42.239Z</time></trkpt><trkpt lat="45.945709" lon="13.8557533"><ele>1087.0</ele><time>2026-04-08T09:18:43.25Z</time></trkpt><trkpt lat="45.9456239" lon="13.8557984"><ele>1087.0</ele><time>2026-04-08T09:18:44.238Z</time></trkpt><trkpt lat="45.945522" lon="13.8558373"><ele>1087.0</ele><time>2026-04-08T09:18:45.237Z</time></trkpt><trkpt lat="45.9454259" lon="13.8558825"><ele>1087.0</ele><time>2026-04-08T09:18:46.229Z</time></trkpt><trkpt lat="45.9453317" lon="13.8559427"><ele>1086.4</ele><time>2026-04-08T09:18:47.23Z</time></trkpt><trkpt lat="45.9452419" lon="13.8560334"><ele>1085.8000000000002</ele><time>2026-04-08T09:18:48.232Z</time></trkpt><trkpt lat="45.9451541" lon="13.8561242"><ele>1085.2</ele><time>2026-04-08T09:18:49.225Z</time></trkpt><trkpt lat="45.9450673" lon="13.8561986"><ele>1084.6000000000001</ele><time>2026-04-08T09:18:50.227Z</time></trkpt><trkpt lat="45.944975" lon="13.8562344"><ele>1084.0</ele><time>2026-04-08T09:18:51.232Z</time></trkpt><trkpt lat="45.9448811" lon="13.8562353"><ele>1084.0</ele><time>2026-04-08T09:18:52.227Z</time></trkpt><trkpt lat="45.944778" lon="13.8562203"><ele>1084.0</ele><time>2026-04-08T09:18:53.222Z</time></trkpt><trkpt lat="45.9446762" lon="13.8561898"><ele>1084.0</ele><time>2026-04-08T09:18:54.231Z</time></trkpt><trkpt lat="45.9445795" lon="13.8561551"><ele>1084.0</ele><time>2026-04-08T09:18:55.226Z</time></trkpt><trkpt lat="45.9444893" lon="13.8561103"><ele>1084.0</ele><time>2026-04-08T09:18:56.238Z</time></trkpt><trkpt lat="45.9444094" lon="13.8560412"><ele>1084.0</ele><time>2026-04-08T09:18:57.224Z</time></trkpt><trkpt lat="45.9443481" lon="13.8559686"><ele>1084.0</ele><time>2026-04-08T09:18:58.22Z</time></trkpt><trkpt lat="45.9442983" lon="13.8558952"><ele>1084.0</ele><time>2026-04-08T09:18:59.232Z</time></trkpt><trkpt lat="45.9442498" lon="13.8558196"><ele>1084.0</ele><time>2026-04-08T09:19:00.218Z</time></trkpt><trkpt lat="45.9442113" lon="13.8557446"><ele>1084.0</ele><time>2026-04-08T09:19:01.218Z</time></trkpt><trkpt lat="45.944181" lon="13.8556337"><ele>1084.0</ele><time>2026-04-08T09:19:02.218Z</time></trkpt><trkpt lat="45.9441527" lon="13.8555186"><ele>1087.2</ele><time>2026-04-08T09:19:03.241Z</time></trkpt><trkpt lat="45.9441483" lon="13.8553861"><ele>1090.4</ele><time>2026-04-08T09:19:04.236Z</time></trkpt><trkpt lat="45.9441574" lon="13.8552616"><ele>1093.6</ele><time>2026-04-08T09:19:05.214Z</time></trkpt><trkpt lat="45.9441685" lon="13.8551321"><ele>1096.8</ele><time>2026-04-08T09:19:06.214Z</time></trkpt><trkpt lat="45.944187" lon="13.8550132"><ele>1100.0</ele><time>2026-04-08T09:19:07.226Z</time></trkpt><trkpt lat="45.9442086" lon="13.8548736"><ele>1103.5</ele><time>2026-04-08T09:19:08.219Z</time></trkpt><trkpt lat="45.9442357" lon="13.8547492"><ele>1107.0</ele><time>2026-04-08T09:19:09.211Z</time></trkpt><trkpt lat="45.9442589" lon="13.854617"><ele>1110.5</ele><time>2026-04-08T09:19:10.221Z</time></trkpt><trkpt lat="45.9442778" lon="13.8544906"><ele>1114.0</ele><time>2026-04-08T09:19:11.221Z</time></trkpt><trkpt lat="45.9442716" lon="13.8543701"><ele>1117.5</ele><time>2026-04-08T09:19:12.231Z</time></trkpt><trkpt lat="45.9442461" lon="13.8542736"><ele>1121.0</ele><time>2026-04-08T09:19:13.221Z</time></trkpt><trkpt lat="45.944204" lon="13.8541984"><ele>1121.0</ele><time>2026-04-08T09:19:14.224Z</time></trkpt><trkpt lat="45.9441515" lon="13.8541361"><ele>1121.0</ele><time>2026-04-08T09:19:15.21Z</time></trkpt><trkpt lat="45.9440823" lon="13.8540734"><ele>1121.0</ele><time>2026-04-08T09:19:16.228Z</time></trkpt><trkpt lat="45.9439992" lon="13.8539938"><ele>1121.0</ele><time>2026-04-08T09:19:17.217Z</time></trkpt><trkpt lat="45.9439157" lon="13.8538899"><ele>1121.0</ele><time>2026-04-08T09:19:18.22Z</time></trkpt><trkpt lat="45.9438466" lon="13.8537827"><ele>1121.0</ele><time>2026-04-08T09:19:19.209Z</time></trkpt><trkpt lat="45.9437719" lon="13.8536739"><ele>1121.0</ele><time>2026-04-08T09:19:20.212Z</time></trkpt><trkpt lat="45.943699" lon="13.8535791"><ele>1121.0</ele><time>2026-04-08T09:19:21.211Z</time></trkpt><trkpt lat="45.9436203" lon="13.8534842"><ele>1121.0</ele><time>2026-04-08T09:19:22.211Z</time></trkpt><trkpt lat="45.9435461" lon="13.8533938"><ele>1121.0</ele><time>2026-04-08T09:19:23.217Z</time></trkpt><trkpt lat="45.9434621" lon="13.8533242"><ele>1120.6</ele><time>2026-04-08T09:19:24.22Z</time></trkpt><trkpt lat="45.9433774" lon="13.8532768"><ele>1120.1999999999998</ele><time>2026-04-08T09:19:25.209Z</time></trkpt><trkpt lat="45.9432945" lon="13.8532231"><ele>1119.8000000000002</ele><time>2026-04-08T09:19:26.23Z</time></trkpt><trkpt lat="45.9431951" lon="13.8531622"><ele>1119.4</ele><time>2026-04-08T09:19:27.211Z</time></trkpt><trkpt lat="45.9430815" lon="13.8530991"><ele>1119.0</ele><time>2026-04-08T09:19:28.232Z</time></trkpt><trkpt lat="45.9429617" lon="13.8530481"><ele>1119.0</ele><time>2026-04-08T09:19:29.214Z</time></trkpt><trkpt lat="45.9428303" lon="13.8530293"><ele>1119.0</ele><time>2026-04-08T09:19:30.219Z</time></trkpt><trkpt lat="45.9426965" lon="13.8530186"><ele>1119.0</ele><time>2026-04-08T09:19:31.219Z</time></trkpt><trkpt lat="45.9425779" lon="13.8530111"><ele>1119.0</ele><time>2026-04-08T09:19:32.235Z</time></trkpt><trkpt lat="45.9424714" lon="13.8530274"><ele>1119.5</ele><time>2026-04-08T09:19:33.231Z</time></trkpt><trkpt lat="45.9423663" lon="13.8530758"><ele>1120.0</ele><time>2026-04-08T09:19:34.243Z</time></trkpt><trkpt lat="45.9422703" lon="13.8531269"><ele>1120.5</ele><time>2026-04-08T09:19:35.212Z</time></trkpt><trkpt lat="45.9420791" lon="13.853239"><ele>1121.0</ele><time>2026-04-08T09:19:37.213Z</time></trkpt><trkpt lat="45.9419895" lon="13.8533083"><ele>1121.0</ele><time>2026-04-08T09:19:38.213Z</time></trkpt><trkpt lat="45.9419061" lon="13.8533902"><ele>1121.0</ele><time>2026-04-08T09:19:39.212Z</time></trkpt><trkpt lat="45.9418183" lon="13.8534811"><ele>1121.0</ele><time>2026-04-08T09:19:40.254Z</time></trkpt><trkpt lat="45.9417196" lon="13.8535915"><ele>1121.0</ele><time>2026-04-08T09:19:41.199Z</time></trkpt><trkpt lat="45.9414997" lon="13.853832"><ele>1123.25</ele><time>2026-04-08T09:19:43.229Z</time></trkpt><trkpt lat="45.9413901" lon="13.8539498"><ele>1125.5</ele><time>2026-04-08T09:19:44.225Z</time></trkpt><trkpt lat="45.9412749" lon="13.8540538"><ele>1127.75</ele><time>2026-04-08T09:19:45.212Z</time></trkpt><trkpt lat="45.9411738" lon="13.8541067"><ele>1130.0</ele><time>2026-04-08T09:19:46.221Z</time></trkpt><trkpt lat="45.9410651" lon="13.8541429"><ele>1130.0</ele><time>2026-04-08T09:19:47.219Z</time></trkpt><trkpt lat="45.9409585" lon="13.8541443"><ele>1130.0</ele><time>2026-04-08T09:19:48.221Z</time></trkpt><trkpt lat="45.940854" lon="13.8541379"><ele>1130.0</ele><time>2026-04-08T09:19:49.206Z</time></trkpt><trkpt lat="45.9407454" lon="13.854124"><ele>1130.0</ele><time>2026-04-08T09:19:50.213Z</time></trkpt><trkpt lat="45.9406272" lon="13.8541117"><ele>1130.0</ele><time>2026-04-08T09:19:51.205Z</time></trkpt><trkpt lat="45.9405028" lon="13.8541112"><ele>1134.75</ele><time>2026-04-08T09:19:52.224Z</time></trkpt><trkpt lat="45.9403772" lon="13.8541386"><ele>1139.5</ele><time>2026-04-08T09:19:53.204Z</time></trkpt><trkpt lat="45.9402586" lon="13.8541875"><ele>1144.25</ele><time>2026-04-08T09:19:54.221Z</time></trkpt><trkpt lat="45.9401319" lon="13.85425"><ele>1149.0</ele><time>2026-04-08T09:19:55.21Z</time></trkpt><trkpt lat="45.9400146" lon="13.8543123"><ele>1149.0</ele><time>2026-04-08T09:19:56.218Z</time></trkpt><trkpt lat="45.9399069" lon="13.8543913"><ele>1149.0</ele><time>2026-04-08T09:19:57.201Z</time></trkpt><trkpt lat="45.9397947" lon="13.8544796"><ele>1149.0</ele><time>2026-04-08T09:19:58.217Z</time></trkpt><trkpt lat="45.9396822" lon="13.8545775"><ele>1149.0</ele><time>2026-04-08T09:19:59.211Z</time></trkpt><trkpt lat="45.9395638" lon="13.8546894"><ele>1149.0</ele><time>2026-04-08T09:20:00.219Z</time></trkpt><trkpt lat="45.9394541" lon="13.8548104"><ele>1149.0</ele><time>2026-04-08T09:20:01.21Z</time></trkpt><trkpt lat="45.9393457" lon="13.8549161"><ele>1149.0</ele><time>2026-04-08T09:20:02.209Z</time></trkpt><trkpt lat="45.9392489" lon="13.8550188"><ele>1149.0</ele><time>2026-04-08T09:20:03.204Z</time></trkpt><trkpt lat="45.9391678" lon="13.8551355"><ele>1153.25</ele><time>2026-04-08T09:20:04.204Z</time></trkpt><trkpt lat="45.9391147" lon="13.8552574"><ele>1157.5</ele><time>2026-04-08T09:20:05.207Z</time></trkpt><trkpt lat="45.9390647" lon="13.8554088"><ele>1161.75</ele><time>2026-04-08T09:20:06.198Z</time></trkpt><trkpt lat="45.9390262" lon="13.8555675"><ele>1166.0</ele><time>2026-04-08T09:20:07.215Z</time></trkpt><trkpt lat="45.9389827" lon="13.8557341"><ele>1166.0</ele><time>2026-04-08T09:20:08.199Z</time></trkpt><trkpt lat="45.9389379" lon="13.855915"><ele>1166.0</ele><time>2026-04-08T09:20:09.203Z</time></trkpt><trkpt lat="45.9388808" lon="13.8560726"><ele>1166.0</ele><time>2026-04-08T09:20:10.198Z</time></trkpt><trkpt lat="45.9388061" lon="13.8562188"><ele>1166.0</ele><time>2026-04-08T09:20:11.207Z</time></trkpt><trkpt lat="45.9387274" lon="13.8563903"><ele>1163.25</ele><time>2026-04-08T09:20:12.202Z</time></trkpt><trkpt lat="45.9386484" lon="13.8565572"><ele>1160.5</ele><time>2026-04-08T09:20:13.198Z</time></trkpt><trkpt lat="45.9385662" lon="13.8567286"><ele>1157.75</ele><time>2026-04-08T09:20:14.197Z</time></trkpt><trkpt lat="45.9384773" lon="13.8568988"><ele>1155.0</ele><time>2026-04-08T09:20:15.196Z</time></trkpt><trkpt lat="45.9383852" lon="13.8570758"><ele>1157.25</ele><time>2026-04-08T09:20:16.19Z</time></trkpt><trkpt lat="45.9383027" lon="13.8572349"><ele>1159.5</ele><time>2026-04-08T09:20:17.196Z</time></trkpt><trkpt lat="45.9382079" lon="13.8573939"><ele>1161.75</ele><time>2026-04-08T09:20:18.22Z</time></trkpt><trkpt lat="45.9381141" lon="13.8575384"><ele>1164.0</ele><time>2026-04-08T09:20:19.195Z</time></trkpt><trkpt lat="45.9380157" lon="13.8576831"><ele>1164.0</ele><time>2026-04-08T09:20:20.2Z</time></trkpt><trkpt lat="45.9379138" lon="13.8577957"><ele>1164.0</ele><time>2026-04-08T09:20:21.199Z</time></trkpt><trkpt lat="45.9378021" lon="13.8579107"><ele>1164.0</ele><time>2026-04-08T09:20:22.206Z</time></trkpt><trkpt lat="45.9376831" lon="13.8580283"><ele>1164.0</ele><time>2026-04-08T09:20:23.206Z</time></trkpt><trkpt lat="45.9375644" lon="13.8581454"><ele>1165.5</ele><time>2026-04-08T09:20:24.203Z</time></trkpt><trkpt lat="45.9374402" lon="13.8582628"><ele>1167.0</ele><time>2026-04-08T09:20:25.207Z</time></trkpt><trkpt lat="45.9373202" lon="13.8583516"><ele>1168.5</ele><time>2026-04-08T09:20:26.202Z</time></trkpt><trkpt lat="45.9371898" lon="13.858453"><ele>1170.0</ele><time>2026-04-08T09:20:27.21Z</time></trkpt><trkpt lat="45.9370534" lon="13.8585481"><ele>1170.0</ele><time>2026-04-08T09:20:28.212Z</time></trkpt><trkpt lat="45.9369161" lon="13.8586418"><ele>1170.0</ele><time>2026-04-08T09:20:29.19Z</time></trkpt><trkpt lat="45.9367808" lon="13.8587517"><ele>1170.0</ele><time>2026-04-08T09:20:30.228Z</time></trkpt><trkpt lat="45.9366527" lon="13.8588601"><ele>1178.3333333333333</ele><time>2026-04-08T09:20:31.197Z</time></trkpt><trkpt lat="45.9365193" lon="13.8589529"><ele>1186.6666666666665</ele><time>2026-04-08T09:20:32.192Z</time></trkpt><trkpt lat="45.9363797" lon="13.8590474"><ele>1195.0</ele><time>2026-04-08T09:20:33.19Z</time></trkpt><trkpt lat="45.9362391" lon="13.8591191"><ele>1195.0</ele><time>2026-04-08T09:20:34.192Z</time></trkpt><trkpt lat="45.9360991" lon="13.8591977"><ele>1195.0</ele><time>2026-04-08T09:20:35.194Z</time></trkpt><trkpt lat="45.9359703" lon="13.8592704"><ele>1195.0</ele><time>2026-04-08T09:20:36.192Z</time></trkpt><trkpt lat="45.9358532" lon="13.8593215"><ele>1195.0</ele><time>2026-04-08T09:20:37.199Z</time></trkpt><trkpt lat="45.935744" lon="13.8593423"><ele>1194.5</ele><time>2026-04-08T09:20:38.187Z</time></trkpt><trkpt lat="45.935643" lon="13.8593475"><ele>1194.0</ele><time>2026-04-08T09:20:39.197Z</time></trkpt><trkpt lat="45.9355656" lon="13.8593173"><ele>1193.5</ele><time>2026-04-08T09:20:40.214Z</time></trkpt><trkpt lat="45.9354965" lon="13.8592705"><ele>1193.0</ele><time>2026-04-08T09:20:41.192Z</time></trkpt><trkpt lat="45.935418" lon="13.8592108"><ele>1192.5</ele><time>2026-04-08T09:20:42.204Z</time></trkpt><trkpt lat="45.935333" lon="13.8591525"><ele>1192.0</ele><time>2026-04-08T09:20:43.201Z</time></trkpt><trkpt lat="45.9352423" lon="13.8591049"><ele>1195.0</ele><time>2026-04-08T09:20:44.196Z</time></trkpt><trkpt lat="45.9351483" lon="13.8590518"><ele>1198.0</ele><time>2026-04-08T09:20:45.189Z</time></trkpt><trkpt lat="45.9350429" lon="13.8590065"><ele>1201.0</ele><time>2026-04-08T09:20:46.194Z</time></trkpt><trkpt lat="45.9349422" lon="13.8589705"><ele>1204.0</ele><time>2026-04-08T09:20:47.193Z</time></trkpt><trkpt lat="45.9348449" lon="13.8589549"><ele>1207.0</ele><time>2026-04-08T09:20:48.193Z</time></trkpt><trkpt lat="45.9347464" lon="13.8589513"><ele>1209.6666666666665</ele><time>2026-04-08T09:20:49.19Z</time></trkpt><trkpt lat="45.9345891" lon="13.8588586"><ele>1212.3333333333333</ele><time>2026-04-08T09:20:51.209Z</time></trkpt><trkpt lat="45.9345173" lon="13.8587714"><ele>1215.0</ele><time>2026-04-08T09:20:52.187Z</time></trkpt><trkpt lat="45.9343066" lon="13.858583"><ele>1216.0</ele><time>2026-04-08T09:20:54.185Z</time></trkpt><trkpt lat="45.9341846" lon="13.8585172"><ele>1217.0</ele><time>2026-04-08T09:20:55.193Z</time></trkpt><trkpt lat="45.934066" lon="13.8584887"><ele>1218.0</ele><time>2026-04-08T09:20:56.199Z</time></trkpt><trkpt lat="45.9339401" lon="13.8584877"><ele>1219.0</ele><time>2026-04-08T09:20:57.2Z</time></trkpt><trkpt lat="45.9338117" lon="13.8584852"><ele>1221.6666666666665</ele><time>2026-04-08T09:20:58.211Z</time></trkpt><trkpt lat="45.9335682" lon="13.8584049"><ele>1224.3333333333333</ele><time>2026-04-08T09:21:00.198Z</time></trkpt><trkpt lat="45.9334467" lon="13.8583903"><ele>1227.0</ele><time>2026-04-08T09:21:01.197Z</time></trkpt><trkpt lat="45.9333242" lon="13.8584188"><ele>1226.75</ele><time>2026-04-08T09:21:02.204Z</time></trkpt><trkpt lat="45.9332039" lon="13.858473"><ele>1226.5</ele><time>2026-04-08T09:21:03.188Z</time></trkpt><trkpt lat="45.9330817" lon="13.8585289"><ele>1226.25</ele><time>2026-04-08T09:21:04.205Z</time></trkpt><trkpt lat="45.9329558" lon="13.8586096"><ele>1226.0</ele><time>2026-04-08T09:21:05.189Z</time></trkpt><trkpt lat="45.9327244" lon="13.8587909"><ele>1226.0</ele><time>2026-04-08T09:21:07.245Z</time></trkpt><trkpt lat="45.9326204" lon="13.8588541"><ele>1226.0</ele><time>2026-04-08T09:21:08.208Z</time></trkpt><trkpt lat="45.9325191" lon="13.8588747"><ele>1226.0</ele><time>2026-04-08T09:21:09.182Z</time></trkpt><trkpt lat="45.9324033" lon="13.8588637"><ele>1226.0</ele><time>2026-04-08T09:21:10.183Z</time></trkpt><trkpt lat="45.9321349" lon="13.8588408"><ele>1229.0</ele><time>2026-04-08T09:21:12.182Z</time></trkpt><trkpt lat="45.9320185" lon="13.8588209"><ele>1232.0</ele><time>2026-04-08T09:21:13.19Z</time></trkpt><trkpt lat="45.9317797" lon="13.8588182"><ele>1235.0</ele><time>2026-04-08T09:21:15.193Z</time></trkpt><trkpt lat="45.9316593" lon="13.8588388"><ele>1237.25</ele><time>2026-04-08T09:21:16.184Z</time></trkpt><trkpt lat="45.9315475" lon="13.8588511"><ele>1239.5</ele><time>2026-04-08T09:21:17.193Z</time></trkpt><trkpt lat="45.9314269" lon="13.8588601"><ele>1241.75</ele><time>2026-04-08T09:21:18.187Z</time></trkpt><trkpt lat="45.9313032" lon="13.8588652"><ele>1244.0</ele><time>2026-04-08T09:21:19.189Z</time></trkpt><trkpt lat="45.931175" lon="13.8588668"><ele>1244.0</ele><time>2026-04-08T09:21:20.181Z</time></trkpt><trkpt lat="45.9310587" lon="13.8588671"><ele>1244.0</ele><time>2026-04-08T09:21:21.187Z</time></trkpt><trkpt lat="45.9309634" lon="13.8588577"><ele>1244.0</ele><time>2026-04-08T09:21:22.189Z</time></trkpt><trkpt lat="45.930882" lon="13.8588275"><ele>1244.0</ele><time>2026-04-08T09:21:23.184Z</time></trkpt><trkpt lat="45.9308179" lon="13.8587925"><ele>1244.0</ele><time>2026-04-08T09:21:24.182Z</time></trkpt><trkpt lat="45.9307529" lon="13.8587571"><ele>1244.0</ele><time>2026-04-08T09:21:25.189Z</time></trkpt><trkpt lat="45.9306677" lon="13.8587207"><ele>1243.8</ele><time>2026-04-08T09:21:26.185Z</time></trkpt><trkpt lat="45.9305656" lon="13.8586776"><ele>1243.6000000000001</ele><time>2026-04-08T09:21:27.18Z</time></trkpt><trkpt lat="45.930452" lon="13.8586485"><ele>1243.4</ele><time>2026-04-08T09:21:28.203Z</time></trkpt><trkpt lat="45.9303333" lon="13.8586255"><ele>1243.2</ele><time>2026-04-08T09:21:29.17Z</time></trkpt><trkpt lat="45.9302278" lon="13.8585964"><ele>1243.0</ele><time>2026-04-08T09:21:30.193Z</time></trkpt><trkpt lat="45.9301461" lon="13.8585718"><ele>1243.0000000000002</ele><time>2026-04-08T09:21:31.185Z</time></trkpt><trkpt lat="45.9300804" lon="13.8585496"><ele>1243.0</ele><time>2026-04-08T09:21:32.175Z</time></trkpt><trkpt lat="45.9300302" lon="13.858486"><ele>1243.0</ele><time>2026-04-08T09:21:34.171Z</time></trkpt><trkpt lat="45.9299963" lon="13.8584001"><ele>1243.0</ele><time>2026-04-08T09:21:36.178Z</time></trkpt><trkpt lat="45.9299357" lon="13.8583588"><ele>1243.0</ele><time>2026-04-08T09:21:52.356Z</time></trkpt><trkpt lat="45.9299658" lon="13.8584893"><ele>1243.0000000000002</ele><time>2026-04-08T09:22:06.261Z</time></trkpt><trkpt lat="45.9300026" lon="13.8585706"><ele>1243.0</ele><time>2026-04-08T09:22:08.254Z</time></trkpt><trkpt lat="45.9300165" lon="13.8586639"><ele>1225.0</ele><time>2026-04-08T09:22:13.259Z</time></trkpt></trkseg><trkseg><trkpt lat="45.9299631" lon="13.8585811"><ele>1232.5</ele><time>2026-04-08T09:47:35.178Z</time></trkpt><trkpt lat="45.9299475" lon="13.8584496"><ele>1240.0</ele><time>2026-04-08T09:47:37.192Z</time></trkpt><trkpt lat="45.9299036" lon="13.8583204"><ele>1247.5</ele><time>2026-04-08T09:47:39.186Z</time></trkpt><trkpt lat="45.9298607" lon="13.8581651"><ele>1255.0</ele><time>2026-04-08T09:47:41.194Z</time></trkpt><trkpt lat="45.9299132" lon="13.8579284"><ele>1255.0</ele><time>2026-04-08T09:47:44.177Z</time></trkpt><trkpt lat="45.929947" lon="13.8577587"><ele>1255.0</ele><time>2026-04-08T09:47:46.191Z</time></trkpt><trkpt lat="45.9299558" lon="13.857661"><ele>1255.0</ele><time>2026-04-08T09:47:47.187Z</time></trkpt><trkpt lat="45.9298981" lon="13.8575311"><ele>1255.0</ele><time>2026-04-08T09:47:49.191Z</time></trkpt><trkpt lat="45.9297947" lon="13.8574302"><ele>1255.0</ele><time>2026-04-08T09:47:51.181Z</time></trkpt><trkpt lat="45.929724" lon="13.8573778"><ele>1257.5</ele><time>2026-04-08T09:47:52.202Z</time></trkpt><trkpt lat="45.9296313" lon="13.8573375"><ele>1260.0</ele><time>2026-04-08T09:47:53.189Z</time></trkpt><trkpt lat="45.9295056" lon="13.8572917"><ele>1262.5</ele><time>2026-04-08T09:47:54.186Z</time></trkpt><trkpt lat="45.9293757" lon="13.857242"><ele>1265.0</ele><time>2026-04-08T09:47:55.184Z</time></trkpt><trkpt lat="45.9292621" lon="13.8572"><ele>1263.2</ele><time>2026-04-08T09:47:56.185Z</time></trkpt><trkpt lat="45.9291655" lon="13.8571544"><ele>1261.4</ele><time>2026-04-08T09:47:57.189Z</time></trkpt><trkpt lat="45.9290826" lon="13.8570887"><ele>1259.6</ele><time>2026-04-08T09:47:58.2Z</time></trkpt><trkpt lat="45.9290124" lon="13.8569881"><ele>1257.8</ele><time>2026-04-08T09:47:59.182Z</time></trkpt><trkpt lat="45.9289482" lon="13.8568755"><ele>1256.0</ele><time>2026-04-08T09:48:00.184Z</time></trkpt><trkpt lat="45.9288927" lon="13.8567653"><ele>1256.0</ele><time>2026-04-08T09:48:01.188Z</time></trkpt><trkpt lat="45.9288416" lon="13.8566582"><ele>1256.0</ele><time>2026-04-08T09:48:02.192Z</time></trkpt><trkpt lat="45.928792" lon="13.8565446"><ele>1256.0</ele><time>2026-04-08T09:48:03.19Z</time></trkpt><trkpt lat="45.9287455" lon="13.8564244"><ele>1256.0</ele><time>2026-04-08T09:48:04.19Z</time></trkpt><trkpt lat="45.9287075" lon="13.8562924"><ele>1256.0</ele><time>2026-04-08T09:48:05.183Z</time></trkpt><trkpt lat="45.9286759" lon="13.8561474"><ele>1256.0</ele><time>2026-04-08T09:48:06.194Z</time></trkpt><trkpt lat="45.9286531" lon="13.8560091"><ele>1256.0</ele><time>2026-04-08T09:48:07.185Z</time></trkpt><trkpt lat="45.9286331" lon="13.8558654"><ele>1256.0</ele><time>2026-04-08T09:48:08.195Z</time></trkpt><trkpt lat="45.9286143" lon="13.8557364"><ele>1256.0</ele><time>2026-04-08T09:48:09.189Z</time></trkpt><trkpt lat="45.928606" lon="13.8555979"><ele>1256.0</ele><time>2026-04-08T09:48:10.192Z</time></trkpt><trkpt lat="45.9286044" lon="13.8554536"><ele>1257.6</ele><time>2026-04-08T09:48:11.191Z</time></trkpt><trkpt lat="45.9286089" lon="13.8553058"><ele>1259.1999999999998</ele><time>2026-04-08T09:48:12.18Z</time></trkpt><trkpt lat="45.9286196" lon="13.855159"><ele>1260.8000000000002</ele><time>2026-04-08T09:48:13.199Z</time></trkpt><trkpt lat="45.9286355" lon="13.8550098"><ele>1262.4</ele><time>2026-04-08T09:48:14.199Z</time></trkpt><trkpt lat="45.9286592" lon="13.8548606"><ele>1264.0</ele><time>2026-04-08T09:48:15.186Z</time></trkpt><trkpt lat="45.928687" lon="13.8547129"><ele>1264.0</ele><time>2026-04-08T09:48:16.182Z</time></trkpt><trkpt lat="45.9287207" lon="13.8545751"><ele>1264.0</ele><time>2026-04-08T09:48:17.191Z</time></trkpt><trkpt lat="45.9287556" lon="13.8544403"><ele>1264.0</ele><time>2026-04-08T09:48:18.222Z</time></trkpt><trkpt lat="45.9287875" lon="13.8543084"><ele>1264.0</ele><time>2026-04-08T09:48:19.192Z</time></trkpt><trkpt lat="45.9288166" lon="13.8541822"><ele>1264.0</ele><time>2026-04-08T09:48:20.203Z</time></trkpt><trkpt lat="45.928852" lon="13.8540638"><ele>1264.0</ele><time>2026-04-08T09:48:21.202Z</time></trkpt><trkpt lat="45.9288889" lon="13.8539522"><ele>1264.0</ele><time>2026-04-08T09:48:22.202Z</time></trkpt><trkpt lat="45.9289237" lon="13.8538469"><ele>1264.0</ele><time>2026-04-08T09:48:23.195Z</time></trkpt><trkpt lat="45.9289475" lon="13.8537439"><ele>1264.0</ele><time>2026-04-08T09:48:24.19Z</time></trkpt><trkpt lat="45.9289711" lon="13.8536407"><ele>1264.0</ele><time>2026-04-08T09:48:25.2Z</time></trkpt><trkpt lat="45.9289989" lon="13.8535383"><ele>1264.0</ele><time>2026-04-08T09:48:26.205Z</time></trkpt><trkpt lat="45.929033" lon="13.8534319"><ele>1262.5</ele><time>2026-04-08T09:48:27.19Z</time></trkpt><trkpt lat="45.9290713" lon="13.8533227"><ele>1261.0</ele><time>2026-04-08T09:48:28.186Z</time></trkpt><trkpt lat="45.929101" lon="13.8532172"><ele>1259.5</ele><time>2026-04-08T09:48:29.205Z</time></trkpt><trkpt lat="45.9291124" lon="13.8531168"><ele>1258.0</ele><time>2026-04-08T09:48:30.188Z</time></trkpt><trkpt lat="45.9291073" lon="13.8530109"><ele>1256.5</ele><time>2026-04-08T09:48:31.192Z</time></trkpt><trkpt lat="45.9290942" lon="13.8528971"><ele>1255.0</ele><time>2026-04-08T09:48:32.196Z</time></trkpt><trkpt lat="45.9290827" lon="13.8527844"><ele>1255.0</ele><time>2026-04-08T09:48:33.196Z</time></trkpt><trkpt lat="45.9290752" lon="13.8526659"><ele>1255.0</ele><time>2026-04-08T09:48:34.191Z</time></trkpt><trkpt lat="45.9290781" lon="13.8525457"><ele>1255.0</ele><time>2026-04-08T09:48:35.194Z</time></trkpt><trkpt lat="45.929092" lon="13.8524328"><ele>1255.0</ele><time>2026-04-08T09:48:36.186Z</time></trkpt><trkpt lat="45.9291131" lon="13.8523258"><ele>1255.0</ele><time>2026-04-08T09:48:37.189Z</time></trkpt><trkpt lat="45.9291351" lon="13.852211"><ele>1255.0</ele><time>2026-04-08T09:48:38.186Z</time></trkpt><trkpt lat="45.92916" lon="13.852089"><ele>1253.3333333333333</ele><time>2026-04-08T09:48:39.216Z</time></trkpt><trkpt lat="45.9291797" lon="13.8519612"><ele>1251.6666666666665</ele><time>2026-04-08T09:48:40.182Z</time></trkpt><trkpt lat="45.9291864" lon="13.8518321"><ele>1250.0</ele><time>2026-04-08T09:48:41.185Z</time></trkpt><trkpt lat="45.9291846" lon="13.8517107"><ele>1248.3333333333333</ele><time>2026-04-08T09:48:42.196Z</time></trkpt><trkpt lat="45.9291761" lon="13.8515876"><ele>1246.6666666666667</ele><time>2026-04-08T09:48:43.184Z</time></trkpt><trkpt lat="45.9291668" lon="13.8514761"><ele>1245.0</ele><time>2026-04-08T09:48:44.197Z</time></trkpt><trkpt lat="45.9291572" lon="13.8513641"><ele>1244.1666666666667</ele><time>2026-04-08T09:48:45.186Z</time></trkpt><trkpt lat="45.9291479" lon="13.8512468"><ele>1243.3333333333333</ele><time>2026-04-08T09:48:46.198Z</time></trkpt><trkpt lat="45.9291413" lon="13.8511324"><ele>1242.5</ele><time>2026-04-08T09:48:47.183Z</time></trkpt><trkpt lat="45.9291243" lon="13.8510209"><ele>1241.6666666666665</ele><time>2026-04-08T09:48:48.192Z</time></trkpt><trkpt lat="45.929092" lon="13.8509131"><ele>1240.8333333333333</ele><time>2026-04-08T09:48:49.197Z</time></trkpt><trkpt lat="45.9290481" lon="13.8507982"><ele>1240.0</ele><time>2026-04-08T09:48:50.194Z</time></trkpt><trkpt lat="45.929018" lon="13.8507171"><ele>1239.6</ele><time>2026-04-08T09:48:51.185Z</time></trkpt><trkpt lat="45.9290053" lon="13.8505738"><ele>1239.2</ele><time>2026-04-08T09:48:53.19Z</time></trkpt><trkpt lat="45.9290464" lon="13.8504042"><ele>1238.8</ele><time>2026-04-08T09:48:55.199Z</time></trkpt><trkpt lat="45.9291503" lon="13.8502754"><ele>1238.4</ele><time>2026-04-08T09:48:57.182Z</time></trkpt><trkpt lat="45.9292002" lon="13.8501928"><ele>1238.0</ele><time>2026-04-08T09:48:58.199Z</time></trkpt><trkpt lat="45.9292462" lon="13.8501079"><ele>1240.0</ele><time>2026-04-08T09:48:59.203Z</time></trkpt><trkpt lat="45.9292751" lon="13.8500027"><ele>1242.0</ele><time>2026-04-08T09:49:00.192Z</time></trkpt><trkpt lat="45.9293019" lon="13.8498807"><ele>1244.0</ele><time>2026-04-08T09:49:01.185Z</time></trkpt><trkpt lat="45.9293208" lon="13.8497535"><ele>1246.0</ele><time>2026-04-08T09:49:02.188Z</time></trkpt><trkpt lat="45.929321" lon="13.8496116"><ele>1248.0</ele><time>2026-04-08T09:49:03.201Z</time></trkpt><trkpt lat="45.9293213" lon="13.8494863"><ele>1250.0</ele><time>2026-04-08T09:49:04.194Z</time></trkpt><trkpt lat="45.9293333" lon="13.8493871"><ele>1250.0</ele><time>2026-04-08T09:49:05.191Z</time></trkpt><trkpt lat="45.9293841" lon="13.8492977"><ele>1250.0</ele><time>2026-04-08T09:49:06.209Z</time></trkpt><trkpt lat="45.9294475" lon="13.8492134"><ele>1250.0</ele><time>2026-04-08T09:49:07.198Z</time></trkpt><trkpt lat="45.9295112" lon="13.8491443"><ele>1250.0</ele><time>2026-04-08T09:49:08.187Z</time></trkpt><trkpt lat="45.9295853" lon="13.8490825"><ele>1250.0</ele><time>2026-04-08T09:49:09.197Z</time></trkpt><trkpt lat="45.9296706" lon="13.8490402"><ele>1250.0</ele><time>2026-04-08T09:49:10.199Z</time></trkpt><trkpt lat="45.9297576" lon="13.8489987"><ele>1249.3333333333335</ele><time>2026-04-08T09:49:11.199Z</time></trkpt><trkpt lat="45.9298466" lon="13.8489444"><ele>1248.6666666666667</ele><time>2026-04-08T09:49:12.193Z</time></trkpt><trkpt lat="45.9299306" lon="13.8488978"><ele>1248.0</ele><time>2026-04-08T09:49:13.196Z</time></trkpt><trkpt lat="45.9300193" lon="13.8488592"><ele>1247.3333333333333</ele><time>2026-04-08T09:49:14.196Z</time></trkpt><trkpt lat="45.9300937" lon="13.8488353"><ele>1246.6666666666665</ele><time>2026-04-08T09:49:15.198Z</time></trkpt><trkpt lat="45.9301538" lon="13.848807"><ele>1246.0</ele><time>2026-04-08T09:49:16.192Z</time></trkpt><trkpt lat="45.9302066" lon="13.8487526"><ele>1246.0</ele><time>2026-04-08T09:49:17.21Z</time></trkpt><trkpt lat="45.9302485" lon="13.8486821"><ele>1246.0</ele><time>2026-04-08T09:49:18.2Z</time></trkpt><trkpt lat="45.9302798" lon="13.848521"><ele>1246.0</ele><time>2026-04-08T09:49:20.194Z</time></trkpt><trkpt lat="45.9302641" lon="13.848418"><ele>1246.0</ele><time>2026-04-08T09:49:21.194Z</time></trkpt><trkpt lat="45.9302368" lon="13.8483162"><ele>1246.0</ele><time>2026-04-08T09:49:22.198Z</time></trkpt><trkpt lat="45.9302274" lon="13.8482145"><ele>1246.0</ele><time>2026-04-08T09:49:23.194Z</time></trkpt><trkpt lat="45.9302447" lon="13.8481177"><ele>1243.6666666666665</ele><time>2026-04-08T09:49:24.204Z</time></trkpt><trkpt lat="45.9302819" lon="13.8480311"><ele>1241.3333333333333</ele><time>2026-04-08T09:49:25.202Z</time></trkpt><trkpt lat="45.9303233" lon="13.8479574"><ele>1239.0</ele><time>2026-04-08T09:49:26.198Z</time></trkpt><trkpt lat="45.930358" lon="13.8478778"><ele>1236.6666666666667</ele><time>2026-04-08T09:49:27.193Z</time></trkpt><trkpt lat="45.9303492" lon="13.8476785"><ele>1234.3333333333335</ele><time>2026-04-08T09:49:29.185Z</time></trkpt><trkpt lat="45.9303436" lon="13.8475572"><ele>1232.0</ele><time>2026-04-08T09:49:30.197Z</time></trkpt><trkpt lat="45.9303458" lon="13.8474158"><ele>1229.8</ele><time>2026-04-08T09:49:31.187Z</time></trkpt><trkpt lat="45.9303568" lon="13.8472756"><ele>1227.6</ele><time>2026-04-08T09:49:32.193Z</time></trkpt><trkpt lat="45.9303782" lon="13.8471444"><ele>1225.3999999999999</ele><time>2026-04-08T09:49:33.206Z</time></trkpt><trkpt lat="45.930393" lon="13.8470314"><ele>1223.2</ele><time>2026-04-08T09:49:34.203Z</time></trkpt><trkpt lat="45.9304184" lon="13.8469022"><ele>1221.0</ele><time>2026-04-08T09:49:35.205Z</time></trkpt><trkpt lat="45.9304474" lon="13.8467731"><ele>1217.8</ele><time>2026-04-08T09:49:36.192Z</time></trkpt><trkpt lat="45.9305051" lon="13.8466528"><ele>1214.6</ele><time>2026-04-08T09:49:37.211Z</time></trkpt><trkpt lat="45.9305799" lon="13.8465373"><ele>1211.4</ele><time>2026-04-08T09:49:38.216Z</time></trkpt><trkpt lat="45.9306415" lon="13.8464293"><ele>1208.2</ele><time>2026-04-08T09:49:39.194Z</time></trkpt><trkpt lat="45.9307249" lon="13.8463348"><ele>1205.0</ele><time>2026-04-08T09:49:40.194Z</time></trkpt><trkpt lat="45.9308081" lon="13.8462482"><ele>1207.2</ele><time>2026-04-08T09:49:41.2Z</time></trkpt><trkpt lat="45.9308914" lon="13.8461614"><ele>1209.4</ele><time>2026-04-08T09:49:42.189Z</time></trkpt><trkpt lat="45.9309688" lon="13.8460785"><ele>1211.6</ele><time>2026-04-08T09:49:43.195Z</time></trkpt><trkpt lat="45.9310611" lon="13.846002"><ele>1213.8</ele><time>2026-04-08T09:49:44.191Z</time></trkpt><trkpt lat="45.9311536" lon="13.8459116"><ele>1216.0</ele><time>2026-04-08T09:49:45.199Z</time></trkpt><trkpt lat="45.9312497" lon="13.8458198"><ele>1211.3999999999999</ele><time>2026-04-08T09:49:46.193Z</time></trkpt><trkpt lat="45.9313422" lon="13.8457314"><ele>1206.8</ele><time>2026-04-08T09:49:47.191Z</time></trkpt><trkpt lat="45.9314301" lon="13.8456457"><ele>1202.1999999999998</ele><time>2026-04-08T09:49:48.192Z</time></trkpt><trkpt lat="45.9315138" lon="13.8455528"><ele>1197.6</ele><time>2026-04-08T09:49:49.201Z</time></trkpt><trkpt lat="45.9316037" lon="13.8454709"><ele>1193.0</ele><time>2026-04-08T09:49:50.213Z</time></trkpt><trkpt lat="45.9316946" lon="13.8453883"><ele>1193.2</ele><time>2026-04-08T09:49:51.195Z</time></trkpt><trkpt lat="45.9317804" lon="13.8453013"><ele>1193.4</ele><time>2026-04-08T09:49:52.188Z</time></trkpt><trkpt lat="45.9318578" lon="13.845192"><ele>1193.6000000000001</ele><time>2026-04-08T09:49:53.205Z</time></trkpt><trkpt lat="45.9319305" lon="13.845087"><ele>1193.8</ele><time>2026-04-08T09:49:54.196Z</time></trkpt><trkpt lat="45.932008" lon="13.8449827"><ele>1194.0</ele><time>2026-04-08T09:49:55.2Z</time></trkpt><trkpt lat="45.9320818" lon="13.8448804"><ele>1194.0</ele><time>2026-04-08T09:49:56.209Z</time></trkpt><trkpt lat="45.9321547" lon="13.8447841"><ele>1194.0</ele><time>2026-04-08T09:49:57.187Z</time></trkpt><trkpt lat="45.9322194" lon="13.844671"><ele>1194.0</ele><time>2026-04-08T09:49:58.209Z</time></trkpt><trkpt lat="45.9322836" lon="13.844559"><ele>1194.0</ele><time>2026-04-08T09:49:59.19Z</time></trkpt><trkpt lat="45.9323488" lon="13.8444407"><ele>1194.0</ele><time>2026-04-08T09:50:00.193Z</time></trkpt><trkpt lat="45.9324139" lon="13.8443333"><ele>1194.2</ele><time>2026-04-08T09:50:01.2Z</time></trkpt><trkpt lat="45.9324863" lon="13.8442239"><ele>1194.4</ele><time>2026-04-08T09:50:02.191Z</time></trkpt><trkpt lat="45.9325625" lon="13.8441187"><ele>1194.6</ele><time>2026-04-08T09:50:03.207Z</time></trkpt><trkpt lat="45.9326385" lon="13.8440062"><ele>1194.8</ele><time>2026-04-08T09:50:04.193Z</time></trkpt><trkpt lat="45.9327089" lon="13.8439078"><ele>1195.0</ele><time>2026-04-08T09:50:05.188Z</time></trkpt><trkpt lat="45.9327756" lon="13.8437984"><ele>1195.0</ele><time>2026-04-08T09:50:06.196Z</time></trkpt><trkpt lat="45.9328289" lon="13.8436677"><ele>1195.0</ele><time>2026-04-08T09:50:07.191Z</time></trkpt><trkpt lat="45.9328753" lon="13.8435452"><ele>1195.0</ele><time>2026-04-08T09:50:08.194Z</time></trkpt><trkpt lat="45.9329153" lon="13.843419"><ele>1195.0</ele><time>2026-04-08T09:50:09.196Z</time></trkpt><trkpt lat="45.93294" lon="13.8432742"><ele>1195.0</ele><time>2026-04-08T09:50:10.195Z</time></trkpt><trkpt lat="45.9329605" lon="13.8431259"><ele>1191.4</ele><time>2026-04-08T09:50:11.201Z</time></trkpt><trkpt lat="45.9329655" lon="13.8429656"><ele>1187.8</ele><time>2026-04-08T09:50:12.194Z</time></trkpt><trkpt lat="45.932972" lon="13.8428147"><ele>1184.2</ele><time>2026-04-08T09:50:13.19Z</time></trkpt><trkpt lat="45.9329748" lon="13.8426719"><ele>1180.6</ele><time>2026-04-08T09:50:14.204Z</time></trkpt><trkpt lat="45.9329811" lon="13.8425214"><ele>1177.0</ele><time>2026-04-08T09:50:15.189Z</time></trkpt><trkpt lat="45.9329847" lon="13.8423818"><ele>1175.6666666666665</ele><time>2026-04-08T09:50:16.195Z</time></trkpt><trkpt lat="45.9329768" lon="13.8422695"><ele>1174.3333333333333</ele><time>2026-04-08T09:50:17.193Z</time></trkpt><trkpt lat="45.9329535" lon="13.8421761"><ele>1173.0</ele><time>2026-04-08T09:50:18.194Z</time></trkpt><trkpt lat="45.9329169" lon="13.8420946"><ele>1171.6666666666667</ele><time>2026-04-08T09:50:19.187Z</time></trkpt><trkpt lat="45.9328583" lon="13.8420337"><ele>1170.3333333333335</ele><time>2026-04-08T09:50:20.19Z</time></trkpt><trkpt lat="45.9327291" lon="13.8419768"><ele>1169.0</ele><time>2026-04-08T09:50:22.226Z</time></trkpt><trkpt lat="45.9325839" lon="13.8418504"><ele>1164.25</ele><time>2026-04-08T09:50:24.204Z</time></trkpt><trkpt lat="45.9325143" lon="13.8415224"><ele>1159.5</ele><time>2026-04-08T09:50:27.185Z</time></trkpt><trkpt lat="45.9325208" lon="13.8413991"><ele>1154.75</ele><time>2026-04-08T09:50:28.242Z</time></trkpt><trkpt lat="45.9325291" lon="13.8412776"><ele>1150.0</ele><time>2026-04-08T09:50:29.247Z</time></trkpt><trkpt lat="45.9325344" lon="13.841131"><ele>1151.0</ele><time>2026-04-08T09:50:30.268Z</time></trkpt><trkpt lat="45.9325521" lon="13.8408225"><ele>1152.0</ele><time>2026-04-08T09:50:32.221Z</time></trkpt><trkpt lat="45.9325699" lon="13.8406815"><ele>1153.0</ele><time>2026-04-08T09:50:33.198Z</time></trkpt><trkpt lat="45.932585" lon="13.8405547"><ele>1154.0</ele><time>2026-04-08T09:50:34.195Z</time></trkpt><trkpt lat="45.9325741" lon="13.8404541"><ele>1154.0</ele><time>2026-04-08T09:50:35.199Z</time></trkpt><trkpt lat="45.9324636" lon="13.8401909"><ele>1154.0</ele><time>2026-04-08T09:50:38.204Z</time></trkpt><trkpt lat="45.9323693" lon="13.8400896"><ele>1154.0</ele><time>2026-04-08T09:50:39.19Z</time></trkpt><trkpt lat="45.9322763" lon="13.8399823"><ele>1154.6666666666667</ele><time>2026-04-08T09:50:40.199Z</time></trkpt><trkpt lat="45.9321142" lon="13.8397563"><ele>1155.3333333333333</ele><time>2026-04-08T09:50:42.204Z</time></trkpt><trkpt lat="45.9320501" lon="13.8396181"><ele>1156.0</ele><time>2026-04-08T09:50:43.223Z</time></trkpt><trkpt lat="45.9319795" lon="13.8394623"><ele>1156.0</ele><time>2026-04-08T09:50:44.185Z</time></trkpt><trkpt lat="45.9319141" lon="13.8393016"><ele>1156.0</ele><time>2026-04-08T09:50:45.201Z</time></trkpt><trkpt lat="45.9317923" lon="13.838996"><ele>1156.0</ele><time>2026-04-08T09:50:47.19Z</time></trkpt><trkpt lat="45.9317257" lon="13.8388529"><ele>1155.75</ele><time>2026-04-08T09:50:48.19Z</time></trkpt><trkpt lat="45.9316026" lon="13.8385948"><ele>1155.5</ele><time>2026-04-08T09:50:50.222Z</time></trkpt><trkpt lat="45.9315449" lon="13.8384524"><ele>1155.25</ele><time>2026-04-08T09:50:51.195Z</time></trkpt><trkpt lat="45.9314915" lon="13.8383123"><ele>1155.0</ele><time>2026-04-08T09:50:52.194Z</time></trkpt><trkpt lat="45.9314446" lon="13.8382108"><ele>1155.0</ele><time>2026-04-08T09:50:53.208Z</time></trkpt><trkpt lat="45.9313838" lon="13.8381307"><ele>1155.0</ele><time>2026-04-08T09:50:54.193Z</time></trkpt><trkpt lat="45.9313008" lon="13.8380705"><ele>1155.0</ele><time>2026-04-08T09:50:55.186Z</time></trkpt><trkpt lat="45.9310969" lon="13.8379747"><ele>1155.0</ele><time>2026-04-08T09:50:57.191Z</time></trkpt><trkpt lat="45.9309889" lon="13.837923"><ele>1155.0</ele><time>2026-04-08T09:50:58.215Z</time></trkpt><trkpt lat="45.9308971" lon="13.8378575"><ele>1155.0</ele><time>2026-04-08T09:50:59.191Z</time></trkpt><trkpt lat="45.9308284" lon="13.8377481"><ele>1155.0</ele><time>2026-04-08T09:51:00.215Z</time></trkpt><trkpt lat="45.9307633" lon="13.8376159"><ele>1155.0</ele><time>2026-04-08T09:51:01.2Z</time></trkpt><trkpt lat="45.9306889" lon="13.8374854"><ele>1155.0</ele><time>2026-04-08T09:51:02.199Z</time></trkpt><trkpt lat="45.9306281" lon="13.8373851"><ele>1153.0</ele><time>2026-04-08T09:51:03.199Z</time></trkpt><trkpt lat="45.930599" lon="13.8373032"><ele>1151.0</ele><time>2026-04-08T09:51:04.197Z</time></trkpt><trkpt lat="45.9306083" lon="13.8371307"><ele>1149.0</ele><time>2026-04-08T09:51:06.188Z</time></trkpt><trkpt lat="45.9307287" lon="13.8367298"><ele>1150.8</ele><time>2026-04-08T09:51:09.198Z</time></trkpt><trkpt lat="45.9307743" lon="13.8365877"><ele>1152.6000000000001</ele><time>2026-04-08T09:51:10.211Z</time></trkpt><trkpt lat="45.9308165" lon="13.8364639"><ele>1154.4</ele><time>2026-04-08T09:51:11.215Z</time></trkpt><trkpt lat="45.9308702" lon="13.8363511"><ele>1156.2</ele><time>2026-04-08T09:51:12.188Z</time></trkpt><trkpt lat="45.9309348" lon="13.8362543"><ele>1158.0</ele><time>2026-04-08T09:51:13.2Z</time></trkpt><trkpt lat="45.9310041" lon="13.8361626"><ele>1158.0</ele><time>2026-04-08T09:51:14.196Z</time></trkpt><trkpt lat="45.9310766" lon="13.8360825"><ele>1158.0</ele><time>2026-04-08T09:51:15.193Z</time></trkpt><trkpt lat="45.9311491" lon="13.8360115"><ele>1158.0</ele><time>2026-04-08T09:51:16.19Z</time></trkpt><trkpt lat="45.9312092" lon="13.8359452"><ele>1158.0</ele><time>2026-04-08T09:51:17.206Z</time></trkpt><trkpt lat="45.9312615" lon="13.8358636"><ele>1158.0</ele><time>2026-04-08T09:51:18.203Z</time></trkpt><trkpt lat="45.9313087" lon="13.8357713"><ele>1158.0</ele><time>2026-04-08T09:51:19.202Z</time></trkpt><trkpt lat="45.9313373" lon="13.8356674"><ele>1154.4</ele><time>2026-04-08T09:51:20.187Z</time></trkpt><trkpt lat="45.9313383" lon="13.8355487"><ele>1150.8</ele><time>2026-04-08T09:51:21.203Z</time></trkpt><trkpt lat="45.9313214" lon="13.8354175"><ele>1147.2</ele><time>2026-04-08T09:51:22.208Z</time></trkpt><trkpt lat="45.9312827" lon="13.835298"><ele>1143.6</ele><time>2026-04-08T09:51:23.207Z</time></trkpt><trkpt lat="45.9312317" lon="13.8351818"><ele>1140.0</ele><time>2026-04-08T09:51:24.187Z</time></trkpt><trkpt lat="45.9311579" lon="13.8350676"><ele>1138.0</ele><time>2026-04-08T09:51:25.194Z</time></trkpt><trkpt lat="45.9310763" lon="13.8349782"><ele>1136.0</ele><time>2026-04-08T09:51:26.206Z</time></trkpt><trkpt lat="45.9309935" lon="13.8349095"><ele>1134.0</ele><time>2026-04-08T09:51:27.205Z</time></trkpt><trkpt lat="45.9309015" lon="13.8348542"><ele>1132.0</ele><time>2026-04-08T09:51:28.189Z</time></trkpt><trkpt lat="45.9308189" lon="13.8348053"><ele>1130.0</ele><time>2026-04-08T09:51:29.203Z</time></trkpt><trkpt lat="45.9307567" lon="13.834733"><ele>1128.8333333333335</ele><time>2026-04-08T09:51:30.189Z</time></trkpt><trkpt lat="45.9307272" lon="13.8346518"><ele>1127.6666666666667</ele><time>2026-04-08T09:51:31.192Z</time></trkpt><trkpt lat="45.9307165" lon="13.834558"><ele>1126.5</ele><time>2026-04-08T09:51:32.201Z</time></trkpt><trkpt lat="45.9307221" lon="13.8343725"><ele>1125.3333333333333</ele><time>2026-04-08T09:51:34.208Z</time></trkpt><trkpt lat="45.9307387" lon="13.834261"><ele>1124.1666666666665</ele><time>2026-04-08T09:51:35.206Z</time></trkpt><trkpt lat="45.9307536" lon="13.834128"><ele>1123.0</ele><time>2026-04-08T09:51:36.194Z</time></trkpt><trkpt lat="45.9307618" lon="13.8339755"><ele>1123.0</ele><time>2026-04-08T09:51:37.214Z</time></trkpt><trkpt lat="45.9307594" lon="13.8338139"><ele>1123.0</ele><time>2026-04-08T09:51:38.208Z</time></trkpt><trkpt lat="45.9307402" lon="13.8336433"><ele>1123.0</ele><time>2026-04-08T09:51:39.195Z</time></trkpt><trkpt lat="45.9307104" lon="13.8334744"><ele>1123.0</ele><time>2026-04-08T09:51:40.188Z</time></trkpt><trkpt lat="45.9306742" lon="13.8332907"><ele>1125.25</ele><time>2026-04-08T09:51:41.188Z</time></trkpt><trkpt lat="45.9306305" lon="13.8330897"><ele>1127.5</ele><time>2026-04-08T09:51:42.199Z</time></trkpt><trkpt lat="45.9305921" lon="13.8328972"><ele>1129.75</ele><time>2026-04-08T09:51:43.199Z</time></trkpt><trkpt lat="45.9305541" lon="13.8327119"><ele>1132.0</ele><time>2026-04-08T09:51:44.191Z</time></trkpt><trkpt lat="45.9305116" lon="13.8325193"><ele>1134.4</ele><time>2026-04-08T09:51:45.2Z</time></trkpt><trkpt lat="45.9304793" lon="13.8323511"><ele>1136.8000000000002</ele><time>2026-04-08T09:51:46.202Z</time></trkpt><trkpt lat="45.930456" lon="13.8322125"><ele>1139.2</ele><time>2026-04-08T09:51:47.207Z</time></trkpt><trkpt lat="45.9304451" lon="13.8320814"><ele>1141.6000000000001</ele><time>2026-04-08T09:51:48.202Z</time></trkpt><trkpt lat="45.9304567" lon="13.8319681"><ele>1144.0</ele><time>2026-04-08T09:51:49.215Z</time></trkpt><trkpt lat="45.9304862" lon="13.831846"><ele>1144.25</ele><time>2026-04-08T09:51:50.207Z</time></trkpt><trkpt lat="45.9305366" lon="13.8317017"><ele>1144.5</ele><time>2026-04-08T09:51:51.203Z</time></trkpt><trkpt lat="45.9306202" lon="13.8315833"><ele>1144.75</ele><time>2026-04-08T09:51:52.196Z</time></trkpt><trkpt lat="45.9307316" lon="13.8314793"><ele>1145.0</ele><time>2026-04-08T09:51:53.198Z</time></trkpt><trkpt lat="45.9308418" lon="13.8313621"><ele>1144.5</ele><time>2026-04-08T09:51:54.198Z</time></trkpt><trkpt lat="45.9309654" lon="13.8312476"><ele>1144.0</ele><time>2026-04-08T09:51:55.192Z</time></trkpt><trkpt lat="45.9310802" lon="13.8311334"><ele>1143.5</ele><time>2026-04-08T09:51:56.19Z</time></trkpt><trkpt lat="45.9311798" lon="13.8310257"><ele>1143.0</ele><time>2026-04-08T09:51:57.208Z</time></trkpt><trkpt lat="45.9312803" lon="13.8309226"><ele>1143.0</ele><time>2026-04-08T09:51:58.2Z</time></trkpt><trkpt lat="45.9313642" lon="13.8308297"><ele>1143.0</ele><time>2026-04-08T09:51:59.209Z</time></trkpt><trkpt lat="45.9314348" lon="13.8307628"><ele>1143.0</ele><time>2026-04-08T09:52:00.19Z</time></trkpt><trkpt lat="45.9315113" lon="13.8307173"><ele>1143.0</ele><time>2026-04-08T09:52:01.188Z</time></trkpt><trkpt lat="45.9316148" lon="13.8306974"><ele>1143.0</ele><time>2026-04-08T09:52:02.195Z</time></trkpt><trkpt lat="45.9317122" lon="13.8306879"><ele>1145.25</ele><time>2026-04-08T09:52:03.194Z</time></trkpt><trkpt lat="45.9318166" lon="13.8306855"><ele>1147.5</ele><time>2026-04-08T09:52:04.192Z</time></trkpt><trkpt lat="45.9319313" lon="13.830667"><ele>1149.75</ele><time>2026-04-08T09:52:05.201Z</time></trkpt><trkpt lat="45.9320458" lon="13.8306234"><ele>1152.0</ele><time>2026-04-08T09:52:06.195Z</time></trkpt><trkpt lat="45.9321598" lon="13.8305551"><ele>1152.0</ele><time>2026-04-08T09:52:07.185Z</time></trkpt><trkpt lat="45.9322759" lon="13.8304815"><ele>1152.0</ele><time>2026-04-08T09:52:08.19Z</time></trkpt><trkpt lat="45.9323696" lon="13.8303955"><ele>1152.0</ele><time>2026-04-08T09:52:09.205Z</time></trkpt><trkpt lat="45.932466" lon="13.8303388"><ele>1152.0</ele><time>2026-04-08T09:52:10.198Z</time></trkpt><trkpt lat="45.9325628" lon="13.830315"><ele>1152.0</ele><time>2026-04-08T09:52:11.199Z</time></trkpt><trkpt lat="45.9326442" lon="13.8303054"><ele>1153.8</ele><time>2026-04-08T09:52:12.211Z</time></trkpt><trkpt lat="45.9327234" lon="13.8303182"><ele>1155.6</ele><time>2026-04-08T09:52:13.195Z</time></trkpt><trkpt lat="45.9328313" lon="13.8303201"><ele>1157.3999999999999</ele><time>2026-04-08T09:52:14.209Z</time></trkpt><trkpt lat="45.9329661" lon="13.830319"><ele>1159.2</ele><time>2026-04-08T09:52:15.189Z</time></trkpt><trkpt lat="45.9330896" lon="13.8303041"><ele>1161.0</ele><time>2026-04-08T09:52:16.193Z</time></trkpt><trkpt lat="45.9332045" lon="13.8302677"><ele>1161.0</ele><time>2026-04-08T09:52:17.203Z</time></trkpt><trkpt lat="45.9333151" lon="13.8302302"><ele>1161.0</ele><time>2026-04-08T09:52:18.192Z</time></trkpt><trkpt lat="45.9334142" lon="13.8301976"><ele>1161.0</ele><time>2026-04-08T09:52:19.192Z</time></trkpt><trkpt lat="45.9335016" lon="13.8301795"><ele>1161.0</ele><time>2026-04-08T09:52:20.185Z</time></trkpt><trkpt lat="45.9335815" lon="13.8301913"><ele>1161.0</ele><time>2026-04-08T09:52:21.208Z</time></trkpt><trkpt lat="45.9336455" lon="13.8302299"><ele>1160.3999999999999</ele><time>2026-04-08T09:52:22.192Z</time></trkpt><trkpt lat="45.9337273" lon="13.8302884"><ele>1159.8</ele><time>2026-04-08T09:52:23.191Z</time></trkpt><trkpt lat="45.933838" lon="13.8303544"><ele>1159.1999999999998</ele><time>2026-04-08T09:52:24.186Z</time></trkpt><trkpt lat="45.9339465" lon="13.8303844"><ele>1158.6</ele><time>2026-04-08T09:52:25.2Z</time></trkpt><trkpt lat="45.9340453" lon="13.8304096"><ele>1158.0</ele><time>2026-04-08T09:52:26.208Z</time></trkpt><trkpt lat="45.9341457" lon="13.8304171"><ele>1158.0</ele><time>2026-04-08T09:52:27.197Z</time></trkpt><trkpt lat="45.9342542" lon="13.8304282"><ele>1158.0</ele><time>2026-04-08T09:52:28.203Z</time></trkpt><trkpt lat="45.9343608" lon="13.8304305"><ele>1158.0</ele><time>2026-04-08T09:52:29.195Z</time></trkpt><trkpt lat="45.9344636" lon="13.8303989"><ele>1158.0</ele><time>2026-04-08T09:52:30.198Z</time></trkpt><trkpt lat="45.9345574" lon="13.8303408"><ele>1158.0</ele><time>2026-04-08T09:52:31.215Z</time></trkpt><trkpt lat="45.9346478" lon="13.8302478"><ele>1154.75</ele><time>2026-04-08T09:52:32.199Z</time></trkpt><trkpt lat="45.9347477" lon="13.8301236"><ele>1151.5</ele><time>2026-04-08T09:52:33.197Z</time></trkpt><trkpt lat="45.9348592" lon="13.8299873"><ele>1148.25</ele><time>2026-04-08T09:52:34.213Z</time></trkpt><trkpt lat="45.9349596" lon="13.8298576"><ele>1145.0</ele><time>2026-04-08T09:52:35.192Z</time></trkpt><trkpt lat="45.9350515" lon="13.8297346"><ele>1147.5</ele><time>2026-04-08T09:52:36.204Z</time></trkpt><trkpt lat="45.9351515" lon="13.8296262"><ele>1150.0</ele><time>2026-04-08T09:52:37.197Z</time></trkpt><trkpt lat="45.9352611" lon="13.8295304"><ele>1152.5</ele><time>2026-04-08T09:52:38.219Z</time></trkpt><trkpt lat="45.9353668" lon="13.8294533"><ele>1155.0</ele><time>2026-04-08T09:52:39.202Z</time></trkpt><trkpt lat="45.9354661" lon="13.8293947"><ele>1155.0</ele><time>2026-04-08T09:52:40.193Z</time></trkpt><trkpt lat="45.9355607" lon="13.8293367"><ele>1155.0</ele><time>2026-04-08T09:52:41.19Z</time></trkpt><trkpt lat="45.935648" lon="13.8292658"><ele>1155.0</ele><time>2026-04-08T09:52:42.193Z</time></trkpt><trkpt lat="45.9357151" lon="13.8291663"><ele>1155.0</ele><time>2026-04-08T09:52:43.214Z</time></trkpt><trkpt lat="45.935761" lon="13.8290419"><ele>1155.0</ele><time>2026-04-08T09:52:44.194Z</time></trkpt><trkpt lat="45.9357775" lon="13.8288783"><ele>1155.8</ele><time>2026-04-08T09:52:45.202Z</time></trkpt><trkpt lat="45.935785" lon="13.8287041"><ele>1156.6</ele><time>2026-04-08T09:52:46.19Z</time></trkpt><trkpt lat="45.9358123" lon="13.8285338"><ele>1157.4</ele><time>2026-04-08T09:52:47.197Z</time></trkpt><trkpt lat="45.9358499" lon="13.8283955"><ele>1158.2</ele><time>2026-04-08T09:52:48.21Z</time></trkpt><trkpt lat="45.9358969" lon="13.8282872"><ele>1159.0</ele><time>2026-04-08T09:52:49.2Z</time></trkpt><trkpt lat="45.9359523" lon="13.8282327"><ele>1159.0</ele><time>2026-04-08T09:52:50.209Z</time></trkpt><trkpt lat="45.9360653" lon="13.8282401"><ele>1159.0</ele><time>2026-04-08T09:52:52.192Z</time></trkpt><trkpt lat="45.9361767" lon="13.8282682"><ele>1159.0</ele><time>2026-04-08T09:52:54.213Z</time></trkpt><trkpt lat="45.9362335" lon="13.8282186"><ele>1159.0</ele><time>2026-04-08T09:52:57.207Z</time></trkpt><trkpt lat="45.9362059" lon="13.8281362"><ele>1159.0</ele><time>2026-04-08T09:53:00.191Z</time></trkpt><trkpt lat="45.9361474" lon="13.8280759"><ele>1159.0</ele><time>2026-04-08T09:53:02.198Z</time></trkpt><trkpt lat="45.9360857" lon="13.8280323"><ele>1159.0000000000002</ele><time>2026-04-08T09:53:03.196Z</time></trkpt><trkpt lat="45.9360251" lon="13.8279804"><ele>1159.0</ele><time>2026-04-08T09:53:04.199Z</time></trkpt><trkpt lat="45.9359725" lon="13.8279254"><ele>1159.0</ele><time>2026-04-08T09:53:05.199Z</time></trkpt><trkpt lat="45.9359241" lon="13.827863"><ele>1159.0</ele><time>2026-04-08T09:53:06.203Z</time></trkpt><trkpt lat="45.9358803" lon="13.827778"><ele>1159.0</ele><time>2026-04-08T09:53:07.204Z</time></trkpt><trkpt lat="45.9358353" lon="13.8276835"><ele>1159.0000000000002</ele><time>2026-04-08T09:53:08.191Z</time></trkpt><trkpt lat="45.9357942" lon="13.8275884"><ele>1159.0</ele><time>2026-04-08T09:53:09.2Z</time></trkpt><trkpt lat="45.9357538" lon="13.8274878"><ele>1159.1666666666665</ele><time>2026-04-08T09:53:10.19Z</time></trkpt><trkpt lat="45.9357119" lon="13.8273769"><ele>1159.3333333333333</ele><time>2026-04-08T09:53:11.207Z</time></trkpt><trkpt lat="45.9356627" lon="13.8272775"><ele>1159.5</ele><time>2026-04-08T09:53:12.198Z</time></trkpt><trkpt lat="45.9355983" lon="13.8271959"><ele>1159.6666666666667</ele><time>2026-04-08T09:53:13.217Z</time></trkpt><trkpt lat="45.9355372" lon="13.8271159"><ele>1159.8333333333335</ele><time>2026-04-08T09:53:14.202Z</time></trkpt><trkpt lat="45.9354643" lon="13.8270458"><ele>1160.0</ele><time>2026-04-08T09:53:15.211Z</time></trkpt><trkpt lat="45.9353846" lon="13.8269881"><ele>1160.0</ele><time>2026-04-08T09:53:16.192Z</time></trkpt><trkpt lat="45.9352962" lon="13.8269373"><ele>1160.0</ele><time>2026-04-08T09:53:17.192Z</time></trkpt><trkpt lat="45.9352194" lon="13.8268877"><ele>1160.0</ele><time>2026-04-08T09:53:18.198Z</time></trkpt><trkpt lat="45.9351538" lon="13.826758"><ele>1160.0</ele><time>2026-04-08T09:53:20.207Z</time></trkpt><trkpt lat="45.9351668" lon="13.8266172"><ele>1160.0</ele><time>2026-04-08T09:53:22.2Z</time></trkpt><trkpt lat="45.9351799" lon="13.8265229"><ele>1162.3333333333335</ele><time>2026-04-08T09:53:23.205Z</time></trkpt><trkpt lat="45.9352001" lon="13.8264167"><ele>1164.6666666666667</ele><time>2026-04-08T09:53:24.201Z</time></trkpt><trkpt lat="45.935238" lon="13.8262981"><ele>1167.0</ele><time>2026-04-08T09:53:25.21Z</time></trkpt><trkpt lat="45.9352771" lon="13.826213"><ele>1169.3333333333333</ele><time>2026-04-08T09:53:26.216Z</time></trkpt><trkpt lat="45.935325" lon="13.8261296"><ele>1171.6666666666665</ele><time>2026-04-08T09:53:27.193Z</time></trkpt><trkpt lat="45.9353787" lon="13.8260447"><ele>1174.0</ele><time>2026-04-08T09:53:28.2Z</time></trkpt><trkpt lat="45.9354378" lon="13.8259696"><ele>1174.2</ele><time>2026-04-08T09:53:29.197Z</time></trkpt><trkpt lat="45.9355043" lon="13.825878"><ele>1174.4</ele><time>2026-04-08T09:53:30.203Z</time></trkpt><trkpt lat="45.9355732" lon="13.8257801"><ele>1174.6</ele><time>2026-04-08T09:53:31.212Z</time></trkpt><trkpt lat="45.9356443" lon="13.8256704"><ele>1174.8</ele><time>2026-04-08T09:53:32.206Z</time></trkpt><trkpt lat="45.9357176" lon="13.8255579"><ele>1175.0</ele><time>2026-04-08T09:53:33.206Z</time></trkpt><trkpt lat="45.9357938" lon="13.8254459"><ele>1175.0</ele><time>2026-04-08T09:53:34.207Z</time></trkpt><trkpt lat="45.9358588" lon="13.8253269"><ele>1175.0</ele><time>2026-04-08T09:53:35.19Z</time></trkpt><trkpt lat="45.9359113" lon="13.8252002"><ele>1175.0</ele><time>2026-04-08T09:53:36.189Z</time></trkpt><trkpt lat="45.9359565" lon="13.8250452"><ele>1175.0</ele><time>2026-04-08T09:53:37.212Z</time></trkpt><trkpt lat="45.9360067" lon="13.8249"><ele>1175.0</ele><time>2026-04-08T09:53:38.214Z</time></trkpt><trkpt lat="45.9360619" lon="13.8247773"><ele>1174.4</ele><time>2026-04-08T09:53:39.212Z</time></trkpt><trkpt lat="45.9361307" lon="13.8246539"><ele>1173.8</ele><time>2026-04-08T09:53:40.202Z</time></trkpt><trkpt lat="45.9361989" lon="13.8245382"><ele>1173.2</ele><time>2026-04-08T09:53:41.222Z</time></trkpt><trkpt lat="45.9362641" lon="13.8244144"><ele>1172.6</ele><time>2026-04-08T09:53:42.207Z</time></trkpt><trkpt lat="45.9363172" lon="13.8242907"><ele>1172.0</ele><time>2026-04-08T09:53:43.199Z</time></trkpt><trkpt lat="45.9363617" lon="13.8241706"><ele>1172.0</ele><time>2026-04-08T09:53:44.197Z</time></trkpt><trkpt lat="45.9364003" lon="13.8240502"><ele>1172.0</ele><time>2026-04-08T09:53:45.216Z</time></trkpt><trkpt lat="45.9364264" lon="13.8239251"><ele>1172.0</ele><time>2026-04-08T09:53:46.194Z</time></trkpt><trkpt lat="45.9364279" lon="13.8237811"><ele>1172.0</ele><time>2026-04-08T09:53:47.201Z</time></trkpt><trkpt lat="45.9364198" lon="13.8236358"><ele>1172.0</ele><time>2026-04-08T09:53:48.198Z</time></trkpt><trkpt lat="45.9364052" lon="13.8235035"><ele>1170.3333333333335</ele><time>2026-04-08T09:53:49.188Z</time></trkpt><trkpt lat="45.93638" lon="13.8233835"><ele>1168.6666666666667</ele><time>2026-04-08T09:53:50.208Z</time></trkpt><trkpt lat="45.9363619" lon="13.823275"><ele>1167.0</ele><time>2026-04-08T09:53:51.21Z</time></trkpt><trkpt lat="45.9363579" lon="13.8231776"><ele>1165.3333333333333</ele><time>2026-04-08T09:53:52.202Z</time></trkpt><trkpt lat="45.9363685" lon="13.8230771"><ele>1163.6666666666665</ele><time>2026-04-08T09:53:53.195Z</time></trkpt><trkpt lat="45.9363992" lon="13.8229585"><ele>1162.0</ele><time>2026-04-08T09:53:54.202Z</time></trkpt><trkpt lat="45.9364525" lon="13.8228472"><ele>1162.0</ele><time>2026-04-08T09:53:55.199Z</time></trkpt><trkpt lat="45.9364958" lon="13.8227242"><ele>1162.0</ele><time>2026-04-08T09:53:56.208Z</time></trkpt><trkpt lat="45.9365267" lon="13.8225902"><ele>1162.0</ele><time>2026-04-08T09:53:57.203Z</time></trkpt><trkpt lat="45.9365608" lon="13.8224317"><ele>1162.0</ele><time>2026-04-08T09:53:58.204Z</time></trkpt><trkpt lat="45.9365837" lon="13.822266"><ele>1162.0</ele><time>2026-04-08T09:53:59.22Z</time></trkpt><trkpt lat="45.9365911" lon="13.8221063"><ele>1161.4</ele><time>2026-04-08T09:54:00.203Z</time></trkpt><trkpt lat="45.9365917" lon="13.8219423"><ele>1160.8000000000002</ele><time>2026-04-08T09:54:01.202Z</time></trkpt><trkpt lat="45.9365964" lon="13.8217923"><ele>1160.2</ele><time>2026-04-08T09:54:02.205Z</time></trkpt><trkpt lat="45.9366125" lon="13.8216532"><ele>1159.6000000000001</ele><time>2026-04-08T09:54:03.207Z</time></trkpt><trkpt lat="45.9366423" lon="13.8215132"><ele>1159.0</ele><time>2026-04-08T09:54:04.199Z</time></trkpt><trkpt lat="45.9366821" lon="13.8213692"><ele>1160.0</ele><time>2026-04-08T09:54:05.207Z</time></trkpt><trkpt lat="45.9367248" lon="13.8212178"><ele>1161.0</ele><time>2026-04-08T09:54:06.194Z</time></trkpt><trkpt lat="45.9367787" lon="13.8210811"><ele>1162.0</ele><time>2026-04-08T09:54:07.215Z</time></trkpt><trkpt lat="45.9369127" lon="13.8209272"><ele>1163.0</ele><time>2026-04-08T09:54:09.197Z</time></trkpt><trkpt lat="45.9369758" lon="13.8208965"><ele>1163.0</ele><time>2026-04-08T09:54:10.208Z</time></trkpt><trkpt lat="45.9370412" lon="13.8208725"><ele>1163.0</ele><time>2026-04-08T09:54:11.205Z</time></trkpt><trkpt lat="45.9371259" lon="13.8208502"><ele>1163.0</ele><time>2026-04-08T09:54:12.207Z</time></trkpt><trkpt lat="45.9372313" lon="13.8208155"><ele>1163.0</ele><time>2026-04-08T09:54:13.201Z</time></trkpt><trkpt lat="45.9373404" lon="13.8207478"><ele>1163.0</ele><time>2026-04-08T09:54:14.19Z</time></trkpt><trkpt lat="45.9374423" lon="13.82066"><ele>1163.0</ele><time>2026-04-08T09:54:15.202Z</time></trkpt><trkpt lat="45.9375282" lon="13.8205487"><ele>1163.0</ele><time>2026-04-08T09:54:16.23Z</time></trkpt><trkpt lat="45.9375999" lon="13.8204249"><ele>1163.0</ele><time>2026-04-08T09:54:17.208Z</time></trkpt><trkpt lat="45.9376624" lon="13.8202911"><ele>1163.0</ele><time>2026-04-08T09:54:18.196Z</time></trkpt><trkpt lat="45.9377216" lon="13.8201557"><ele>1167.0</ele><time>2026-04-08T09:54:19.212Z</time></trkpt><trkpt lat="45.9377574" lon="13.8199983"><ele>1171.0</ele><time>2026-04-08T09:54:20.199Z</time></trkpt><trkpt lat="45.9377861" lon="13.8198467"><ele>1175.0</ele><time>2026-04-08T09:54:21.196Z</time></trkpt><trkpt lat="45.9377938" lon="13.8197127"><ele>1179.0</ele><time>2026-04-08T09:54:22.216Z</time></trkpt><trkpt lat="45.9377791" lon="13.8196029"><ele>1183.0</ele><time>2026-04-08T09:54:23.219Z</time></trkpt><trkpt lat="45.9377458" lon="13.8195143"><ele>1183.0</ele><time>2026-04-08T09:54:24.195Z</time></trkpt><trkpt lat="45.9376946" lon="13.819451"><ele>1183.0</ele><time>2026-04-08T09:54:25.206Z</time></trkpt><trkpt lat="45.9376326" lon="13.8194099"><ele>1183.0</ele><time>2026-04-08T09:54:26.212Z</time></trkpt><trkpt lat="45.9375543" lon="13.8194086"><ele>1183.0</ele><time>2026-04-08T09:54:27.206Z</time></trkpt><trkpt lat="45.9374648" lon="13.8194442"><ele>1183.0</ele><time>2026-04-08T09:54:28.19Z</time></trkpt><trkpt lat="45.9373916" lon="13.8194919"><ele>1183.0</ele><time>2026-04-08T09:54:29.208Z</time></trkpt><trkpt lat="45.9373281" lon="13.8195212"><ele>1180.0</ele><time>2026-04-08T09:54:30.205Z</time></trkpt><trkpt lat="45.9372638" lon="13.8195033"><ele>1177.0</ele><time>2026-04-08T09:54:31.205Z</time></trkpt><trkpt lat="45.9371981" lon="13.8193731"><ele>1174.0</ele><time>2026-04-08T09:54:33.201Z</time></trkpt><trkpt lat="45.937192" lon="13.8192698"><ele>1171.0</ele><time>2026-04-08T09:54:34.212Z</time></trkpt><trkpt lat="45.9371883" lon="13.8191464"><ele>1168.0</ele><time>2026-04-08T09:54:35.204Z</time></trkpt><trkpt lat="45.9371603" lon="13.8190344"><ele>1165.0</ele><time>2026-04-08T09:54:36.206Z</time></trkpt><trkpt lat="45.9371093" lon="13.8189499"><ele>1165.0</ele><time>2026-04-08T09:54:37.216Z</time></trkpt><trkpt lat="45.9370323" lon="13.8188751"><ele>1165.0</ele><time>2026-04-08T09:54:38.206Z</time></trkpt><trkpt lat="45.9369287" lon="13.8187871"><ele>1165.0</ele><time>2026-04-08T09:54:39.217Z</time></trkpt><trkpt lat="45.9368072" lon="13.81869"><ele>1165.0</ele><time>2026-04-08T09:54:40.21Z</time></trkpt><trkpt lat="45.9366978" lon="13.8186042"><ele>1164.0</ele><time>2026-04-08T09:54:41.206Z</time></trkpt><trkpt lat="45.936589" lon="13.8185312"><ele>1163.0</ele><time>2026-04-08T09:54:42.227Z</time></trkpt><trkpt lat="45.9364788" lon="13.818441"><ele>1162.0</ele><time>2026-04-08T09:54:43.219Z</time></trkpt><trkpt lat="45.9363879" lon="13.8183469"><ele>1161.0</ele><time>2026-04-08T09:54:44.195Z</time></trkpt><trkpt lat="45.9363201" lon="13.8182464"><ele>1161.0</ele><time>2026-04-08T09:54:45.235Z</time></trkpt><trkpt lat="45.9362725" lon="13.8181423"><ele>1161.0</ele><time>2026-04-08T09:54:46.209Z</time></trkpt><trkpt lat="45.9362448" lon="13.8180099"><ele>1161.0</ele><time>2026-04-08T09:54:47.204Z</time></trkpt><trkpt lat="45.9362278" lon="13.817861"><ele>1161.0</ele><time>2026-04-08T09:54:48.218Z</time></trkpt><trkpt lat="45.9362165" lon="13.8177121"><ele>1161.0</ele><time>2026-04-08T09:54:49.217Z</time></trkpt><trkpt lat="45.936219" lon="13.8175655"><ele>1165.25</ele><time>2026-04-08T09:54:50.219Z</time></trkpt><trkpt lat="45.9362386" lon="13.817423"><ele>1169.5</ele><time>2026-04-08T09:54:51.205Z</time></trkpt><trkpt lat="45.9362717" lon="13.8172662"><ele>1173.75</ele><time>2026-04-08T09:54:52.213Z</time></trkpt><trkpt lat="45.9362935" lon="13.8170954"><ele>1178.0</ele><time>2026-04-08T09:54:53.208Z</time></trkpt><trkpt lat="45.9363049" lon="13.8169195"><ele>1180.0</ele><time>2026-04-08T09:54:54.205Z</time></trkpt><trkpt lat="45.9362955" lon="13.8167567"><ele>1182.0</ele><time>2026-04-08T09:54:55.199Z</time></trkpt><trkpt lat="45.9362798" lon="13.8166113"><ele>1184.0</ele><time>2026-04-08T09:54:56.209Z</time></trkpt><trkpt lat="45.9362732" lon="13.8164791"><ele>1186.0</ele><time>2026-04-08T09:54:57.22Z</time></trkpt><trkpt lat="45.9362833" lon="13.8163376"><ele>1188.0</ele><time>2026-04-08T09:54:58.22Z</time></trkpt><trkpt lat="45.9362905" lon="13.8161879"><ele>1188.0</ele><time>2026-04-08T09:54:59.206Z</time></trkpt><trkpt lat="45.9362713" lon="13.8160487"><ele>1188.0</ele><time>2026-04-08T09:55:00.205Z</time></trkpt><trkpt lat="45.9362435" lon="13.8159015"><ele>1188.0</ele><time>2026-04-08T09:55:01.208Z</time></trkpt><trkpt lat="45.9362259" lon="13.8157606"><ele>1188.0</ele><time>2026-04-08T09:55:02.217Z</time></trkpt><trkpt lat="45.9362197" lon="13.8156306"><ele>1188.0</ele><time>2026-04-08T09:55:03.214Z</time></trkpt><trkpt lat="45.9362294" lon="13.8155123"><ele>1186.6666666666667</ele><time>2026-04-08T09:55:04.202Z</time></trkpt><trkpt lat="45.9362484" lon="13.8153904"><ele>1185.3333333333333</ele><time>2026-04-08T09:55:05.202Z</time></trkpt><trkpt lat="45.9362875" lon="13.8152839"><ele>1184.0</ele><time>2026-04-08T09:55:06.223Z</time></trkpt><trkpt lat="45.9363259" lon="13.8151734"><ele>1182.6666666666665</ele><time>2026-04-08T09:55:07.198Z</time></trkpt><trkpt lat="45.9363629" lon="13.8150628"><ele>1181.3333333333333</ele><time>2026-04-08T09:55:08.196Z</time></trkpt><trkpt lat="45.9363871" lon="13.8149443"><ele>1180.0</ele><time>2026-04-08T09:55:09.215Z</time></trkpt><trkpt lat="45.9363865" lon="13.8148369"><ele>1178.1666666666665</ele><time>2026-04-08T09:55:10.202Z</time></trkpt><trkpt lat="45.9363679" lon="13.8147218"><ele>1176.3333333333333</ele><time>2026-04-08T09:55:11.211Z</time></trkpt><trkpt lat="45.9363463" lon="13.814602"><ele>1174.5</ele><time>2026-04-08T09:55:12.205Z</time></trkpt><trkpt lat="45.9363096" lon="13.814471"><ele>1172.6666666666667</ele><time>2026-04-08T09:55:13.218Z</time></trkpt><trkpt lat="45.9362812" lon="13.8143411"><ele>1170.8333333333335</ele><time>2026-04-08T09:55:14.21Z</time></trkpt><trkpt lat="45.936267" lon="13.8142174"><ele>1169.0</ele><time>2026-04-08T09:55:15.207Z</time></trkpt><trkpt lat="45.9362619" lon="13.8141104"><ele>1169.0</ele><time>2026-04-08T09:55:16.209Z</time></trkpt><trkpt lat="45.9362741" lon="13.8140041"><ele>1169.0</ele><time>2026-04-08T09:55:17.224Z</time></trkpt><trkpt lat="45.9363026" lon="13.8139188"><ele>1169.0</ele><time>2026-04-08T09:55:18.2Z</time></trkpt><trkpt lat="45.9363531" lon="13.8138455"><ele>1169.0</ele><time>2026-04-08T09:55:19.197Z</time></trkpt><trkpt lat="45.9364046" lon="13.8137655"><ele>1169.0</ele><time>2026-04-08T09:55:20.204Z</time></trkpt><trkpt lat="45.9364719" lon="13.8136939"><ele>1169.0</ele><time>2026-04-08T09:55:21.202Z</time></trkpt><trkpt lat="45.9365464" lon="13.8136202"><ele>1169.0</ele><time>2026-04-08T09:55:22.202Z</time></trkpt><trkpt lat="45.9366206" lon="13.8135478"><ele>1169.0</ele><time>2026-04-08T09:55:23.202Z</time></trkpt><trkpt lat="45.9366984" lon="13.8134776"><ele>1169.0</ele><time>2026-04-08T09:55:24.205Z</time></trkpt><trkpt lat="45.9367682" lon="13.8134034"><ele>1169.0</ele><time>2026-04-08T09:55:25.204Z</time></trkpt><trkpt lat="45.9368343" lon="13.8133202"><ele>1169.0</ele><time>2026-04-08T09:55:26.208Z</time></trkpt><trkpt lat="45.9369084" lon="13.8132193"><ele>1170.6000000000001</ele><time>2026-04-08T09:55:27.207Z</time></trkpt><trkpt lat="45.9369798" lon="13.8131217"><ele>1172.2</ele><time>2026-04-08T09:55:28.204Z</time></trkpt><trkpt lat="45.9370479" lon="13.8130003"><ele>1173.8000000000002</ele><time>2026-04-08T09:55:29.226Z</time></trkpt><trkpt lat="45.9371135" lon="13.8128748"><ele>1175.4</ele><time>2026-04-08T09:55:30.196Z</time></trkpt><trkpt lat="45.9371743" lon="13.8127416"><ele>1177.0</ele><time>2026-04-08T09:55:31.201Z</time></trkpt><trkpt lat="45.9372386" lon="13.8126321"><ele>1177.0</ele><time>2026-04-08T09:55:32.197Z</time></trkpt><trkpt lat="45.9372944" lon="13.8125283"><ele>1177.0</ele><time>2026-04-08T09:55:33.195Z</time></trkpt><trkpt lat="45.9373328" lon="13.8124129"><ele>1177.0</ele><time>2026-04-08T09:55:34.199Z</time></trkpt><trkpt lat="45.9373588" lon="13.8122823"><ele>1177.0</ele><time>2026-04-08T09:55:35.217Z</time></trkpt><trkpt lat="45.9373891" lon="13.8121385"><ele>1177.0</ele><time>2026-04-08T09:55:36.206Z</time></trkpt><trkpt lat="45.9374177" lon="13.8119926"><ele>1177.0</ele><time>2026-04-08T09:55:37.197Z</time></trkpt><trkpt lat="45.9374305" lon="13.8118336"><ele>1177.0</ele><time>2026-04-08T09:55:38.207Z</time></trkpt><trkpt lat="45.9374399" lon="13.811685"><ele>1177.0</ele><time>2026-04-08T09:55:39.227Z</time></trkpt><trkpt lat="45.9374446" lon="13.811536"><ele>1177.0</ele><time>2026-04-08T09:55:40.203Z</time></trkpt><trkpt lat="45.9374561" lon="13.8114278"><ele>1177.0</ele><time>2026-04-08T09:55:41.204Z</time></trkpt><trkpt lat="45.9374567" lon="13.8113237"><ele>1176.4</ele><time>2026-04-08T09:55:42.204Z</time></trkpt><trkpt lat="45.9374528" lon="13.8110967"><ele>1175.8000000000002</ele><time>2026-04-08T09:55:44.202Z</time></trkpt><trkpt lat="45.9374361" lon="13.8109758"><ele>1175.2</ele><time>2026-04-08T09:55:45.199Z</time></trkpt><trkpt lat="45.9374093" lon="13.8108467"><ele>1174.6000000000001</ele><time>2026-04-08T09:55:46.199Z</time></trkpt><trkpt lat="45.9373955" lon="13.8107271"><ele>1174.0</ele><time>2026-04-08T09:55:47.221Z</time></trkpt><trkpt lat="45.9373849" lon="13.8105914"><ele>1172.6000000000001</ele><time>2026-04-08T09:55:48.203Z</time></trkpt><trkpt lat="45.9373764" lon="13.8104568"><ele>1171.2</ele><time>2026-04-08T09:55:49.204Z</time></trkpt><trkpt lat="45.9373714" lon="13.8103216"><ele>1169.8000000000002</ele><time>2026-04-08T09:55:50.216Z</time></trkpt><trkpt lat="45.9373623" lon="13.8101857"><ele>1168.4</ele><time>2026-04-08T09:55:51.207Z</time></trkpt><trkpt lat="45.9373562" lon="13.8100157"><ele>1167.0</ele><time>2026-04-08T09:55:52.208Z</time></trkpt><trkpt lat="45.9373801" lon="13.8098507"><ele>1165.4</ele><time>2026-04-08T09:55:53.214Z</time></trkpt><trkpt lat="45.9374245" lon="13.8097048"><ele>1163.8000000000002</ele><time>2026-04-08T09:55:54.209Z</time></trkpt><trkpt lat="45.9374807" lon="13.8095679"><ele>1162.2</ele><time>2026-04-08T09:55:55.196Z</time></trkpt><trkpt lat="45.9375304" lon="13.8094508"><ele>1160.6000000000001</ele><time>2026-04-08T09:55:56.199Z</time></trkpt><trkpt lat="45.9375741" lon="13.8093439"><ele>1159.0</ele><time>2026-04-08T09:55:57.196Z</time></trkpt><trkpt lat="45.9376359" lon="13.8092529"><ele>1156.75</ele><time>2026-04-08T09:55:58.221Z</time></trkpt><trkpt lat="45.9377943" lon="13.8091365"><ele>1154.5</ele><time>2026-04-08T09:56:00.201Z</time></trkpt><trkpt lat="45.9378975" lon="13.8090896"><ele>1152.25</ele><time>2026-04-08T09:56:01.214Z</time></trkpt><trkpt lat="45.9380235" lon="13.8090551"><ele>1150.0</ele><time>2026-04-08T09:56:02.197Z</time></trkpt><trkpt lat="45.9381416" lon="13.8090261"><ele>1150.0</ele><time>2026-04-08T09:56:03.2Z</time></trkpt><trkpt lat="45.9383473" lon="13.8090205"><ele>1150.0</ele><time>2026-04-08T09:56:05.203Z</time></trkpt><trkpt lat="45.9384425" lon="13.8090394"><ele>1150.0</ele><time>2026-04-08T09:56:06.212Z</time></trkpt><trkpt lat="45.9385403" lon="13.809061"><ele>1150.0</ele><time>2026-04-08T09:56:07.206Z</time></trkpt><trkpt lat="45.9386423" lon="13.8090703"><ele>1153.0</ele><time>2026-04-08T09:56:08.222Z</time></trkpt><trkpt lat="45.9388543" lon="13.8090422"><ele>1156.0</ele><time>2026-04-08T09:56:10.213Z</time></trkpt><trkpt lat="45.9390578" lon="13.8090102"><ele>1159.0</ele><time>2026-04-08T09:56:12.204Z</time></trkpt><trkpt lat="45.9391389" lon="13.8089908"><ele>1157.75</ele><time>2026-04-08T09:56:13.204Z</time></trkpt><trkpt lat="45.9392182" lon="13.8089704"><ele>1156.5</ele><time>2026-04-08T09:56:14.237Z</time></trkpt><trkpt lat="45.9393587" lon="13.8088832"><ele>1155.25</ele><time>2026-04-08T09:56:16.22Z</time></trkpt><trkpt lat="45.9394208" lon="13.8088166"><ele>1154.0</ele><time>2026-04-08T09:56:17.203Z</time></trkpt><trkpt lat="45.9395621" lon="13.808598"><ele>1154.0</ele><time>2026-04-08T09:56:20.212Z</time></trkpt><trkpt lat="45.9395837" lon="13.8085121"><ele>1154.0</ele><time>2026-04-08T09:56:21.216Z</time></trkpt><trkpt lat="45.9395541" lon="13.8083395"><ele>1154.0</ele><time>2026-04-08T09:56:23.205Z</time></trkpt><trkpt lat="45.9395068" lon="13.8082387"><ele>1154.0</ele><time>2026-04-08T09:56:24.202Z</time></trkpt><trkpt lat="45.9393633" lon="13.8080572"><ele>1154.5</ele><time>2026-04-08T09:56:26.217Z</time></trkpt><trkpt lat="45.9392875" lon="13.8079742"><ele>1155.0</ele><time>2026-04-08T09:56:27.209Z</time></trkpt><trkpt lat="45.9392361" lon="13.8078904"><ele>1155.5</ele><time>2026-04-08T09:56:28.213Z</time></trkpt><trkpt lat="45.9392091" lon="13.8077808"><ele>1156.0</ele><time>2026-04-08T09:56:29.198Z</time></trkpt><trkpt lat="45.9392213" lon="13.8076753"><ele>1156.5</ele><time>2026-04-08T09:56:30.205Z</time></trkpt><trkpt lat="45.9392315" lon="13.807578"><ele>1157.0</ele><time>2026-04-08T09:56:31.213Z</time></trkpt><trkpt lat="45.9392407" lon="13.8074679"><ele>1157.1666666666667</ele><time>2026-04-08T09:56:32.203Z</time></trkpt><trkpt lat="45.9392411" lon="13.8073617"><ele>1157.3333333333335</ele><time>2026-04-08T09:56:33.208Z</time></trkpt><trkpt lat="45.9391808" lon="13.8072348"><ele>1157.5</ele><time>2026-04-08T09:56:35.216Z</time></trkpt><trkpt lat="45.9391339" lon="13.8071614"><ele>1157.6666666666667</ele><time>2026-04-08T09:56:36.214Z</time></trkpt><trkpt lat="45.9390723" lon="13.8070849"><ele>1157.8333333333333</ele><time>2026-04-08T09:56:37.209Z</time></trkpt><trkpt lat="45.9390199" lon="13.8069929"><ele>1158.0</ele><time>2026-04-08T09:56:38.207Z</time></trkpt><trkpt lat="45.9389823" lon="13.8068887"><ele>1158.0</ele><time>2026-04-08T09:56:39.208Z</time></trkpt><trkpt lat="45.9389894" lon="13.8067903"><ele>1158.0</ele><time>2026-04-08T09:56:40.203Z</time></trkpt><trkpt lat="45.9390492" lon="13.8067025"><ele>1158.0</ele><time>2026-04-08T09:56:41.217Z</time></trkpt><trkpt lat="45.9391057" lon="13.8066135"><ele>1158.0</ele><time>2026-04-08T09:56:42.213Z</time></trkpt><trkpt lat="45.9391682" lon="13.806491"><ele>1158.0</ele><time>2026-04-08T09:56:43.202Z</time></trkpt><trkpt lat="45.9392267" lon="13.806372"><ele>1158.0</ele><time>2026-04-08T09:56:44.204Z</time></trkpt><trkpt lat="45.9392816" lon="13.8062698"><ele>1158.0</ele><time>2026-04-08T09:56:45.211Z</time></trkpt><trkpt lat="45.9393469" lon="13.8061883"><ele>1158.0</ele><time>2026-04-08T09:56:46.201Z</time></trkpt><trkpt lat="45.9394321" lon="13.8061299"><ele>1158.0</ele><time>2026-04-08T09:56:47.202Z</time></trkpt><trkpt lat="45.9395312" lon="13.8060806"><ele>1158.0</ele><time>2026-04-08T09:56:48.201Z</time></trkpt><trkpt lat="45.9396216" lon="13.8060515"><ele>1158.0</ele><time>2026-04-08T09:56:49.21Z</time></trkpt><trkpt lat="45.9397079" lon="13.8060221"><ele>1158.0</ele><time>2026-04-08T09:56:50.2Z</time></trkpt><trkpt lat="45.9397935" lon="13.8059976"><ele>1158.0</ele><time>2026-04-08T09:56:51.223Z</time></trkpt><trkpt lat="45.9398813" lon="13.8059594"><ele>1158.0</ele><time>2026-04-08T09:56:52.212Z</time></trkpt><trkpt lat="45.9399537" lon="13.8059035"><ele>1158.0</ele><time>2026-04-08T09:56:53.206Z</time></trkpt><trkpt lat="45.9400244" lon="13.8058091"><ele>1158.0</ele><time>2026-04-08T09:56:54.222Z</time></trkpt><trkpt lat="45.9401005" lon="13.805693"><ele>1157.25</ele><time>2026-04-08T09:56:55.207Z</time></trkpt><trkpt lat="45.9401839" lon="13.8055795"><ele>1156.5</ele><time>2026-04-08T09:56:56.211Z</time></trkpt><trkpt lat="45.940273" lon="13.8054749"><ele>1155.75</ele><time>2026-04-08T09:56:57.207Z</time></trkpt><trkpt lat="45.9403576" lon="13.8053777"><ele>1155.0</ele><time>2026-04-08T09:56:58.21Z</time></trkpt><trkpt lat="45.940462" lon="13.8052767"><ele>1155.0</ele><time>2026-04-08T09:56:59.214Z</time></trkpt><trkpt lat="45.9405729" lon="13.8051846"><ele>1155.0</ele><time>2026-04-08T09:57:00.215Z</time></trkpt><trkpt lat="45.9406875" lon="13.8050926"><ele>1155.0</ele><time>2026-04-08T09:57:01.23Z</time></trkpt><trkpt lat="45.9408064" lon="13.8050269"><ele>1155.0</ele><time>2026-04-08T09:57:02.223Z</time></trkpt><trkpt lat="45.9409247" lon="13.8049948"><ele>1156.2</ele><time>2026-04-08T09:57:03.205Z</time></trkpt><trkpt lat="45.9410424" lon="13.8049633"><ele>1157.4</ele><time>2026-04-08T09:57:04.206Z</time></trkpt><trkpt lat="45.9411454" lon="13.8049273"><ele>1158.6</ele><time>2026-04-08T09:57:05.21Z</time></trkpt><trkpt lat="45.9412406" lon="13.8048943"><ele>1159.8</ele><time>2026-04-08T09:57:06.209Z</time></trkpt><trkpt lat="45.94134" lon="13.8048363"><ele>1161.0</ele><time>2026-04-08T09:57:07.204Z</time></trkpt><trkpt lat="45.9414351" lon="13.8047679"><ele>1161.0</ele><time>2026-04-08T09:57:08.209Z</time></trkpt><trkpt lat="45.9415257" lon="13.8046805"><ele>1161.0</ele><time>2026-04-08T09:57:09.21Z</time></trkpt><trkpt lat="45.9416029" lon="13.8045801"><ele>1161.0</ele><time>2026-04-08T09:57:10.219Z</time></trkpt><trkpt lat="45.9416639" lon="13.8044862"><ele>1161.0</ele><time>2026-04-08T09:57:11.224Z</time></trkpt><trkpt lat="45.9417043" lon="13.8043953"><ele>1161.0</ele><time>2026-04-08T09:57:12.21Z</time></trkpt><trkpt lat="45.9417103" lon="13.8042901"><ele>1160.1666666666667</ele><time>2026-04-08T09:57:13.213Z</time></trkpt><trkpt lat="45.9416982" lon="13.8041703"><ele>1159.3333333333333</ele><time>2026-04-08T09:57:14.221Z</time></trkpt><trkpt lat="45.941666" lon="13.8040594"><ele>1158.5</ele><time>2026-04-08T09:57:15.215Z</time></trkpt><trkpt lat="45.941613" lon="13.8039688"><ele>1157.6666666666665</ele><time>2026-04-08T09:57:16.213Z</time></trkpt><trkpt lat="45.9415463" lon="13.8039016"><ele>1156.8333333333333</ele><time>2026-04-08T09:57:17.216Z</time></trkpt><trkpt lat="45.9414796" lon="13.8038657"><ele>1156.0</ele><time>2026-04-08T09:57:18.232Z</time></trkpt><trkpt lat="45.9414085" lon="13.8038383"><ele>1156.0</ele><time>2026-04-08T09:57:19.214Z</time></trkpt><trkpt lat="45.9413371" lon="13.8038264"><ele>1156.0</ele><time>2026-04-08T09:57:20.222Z</time></trkpt><trkpt lat="45.9412608" lon="13.8038589"><ele>1156.0</ele><time>2026-04-08T09:57:21.216Z</time></trkpt><trkpt lat="45.9411631" lon="13.8038939"><ele>1156.0</ele><time>2026-04-08T09:57:22.223Z</time></trkpt><trkpt lat="45.941061" lon="13.8038859"><ele>1156.0</ele><time>2026-04-08T09:57:23.211Z</time></trkpt><trkpt lat="45.940954" lon="13.8038448"><ele>1156.5</ele><time>2026-04-08T09:57:24.205Z</time></trkpt><trkpt lat="45.9407326" lon="13.8037705"><ele>1157.0</ele><time>2026-04-08T09:57:26.223Z</time></trkpt><trkpt lat="45.9406269" lon="13.803745"><ele>1157.5</ele><time>2026-04-08T09:57:27.22Z</time></trkpt><trkpt lat="45.940526" lon="13.8037287"><ele>1158.0</ele><time>2026-04-08T09:57:28.226Z</time></trkpt><trkpt lat="45.9404221" lon="13.8036932"><ele>1158.0</ele><time>2026-04-08T09:57:29.212Z</time></trkpt><trkpt lat="45.9403264" lon="13.8036394"><ele>1158.0</ele><time>2026-04-08T09:57:30.212Z</time></trkpt><trkpt lat="45.9402333" lon="13.8035475"><ele>1158.0</ele><time>2026-04-08T09:57:31.23Z</time></trkpt><trkpt lat="45.9401612" lon="13.8034311"><ele>1158.0</ele><time>2026-04-08T09:57:32.212Z</time></trkpt><trkpt lat="45.9400975" lon="13.8032917"><ele>1158.0</ele><time>2026-04-08T09:57:33.22Z</time></trkpt><trkpt lat="45.9400496" lon="13.8031383"><ele>1158.25</ele><time>2026-04-08T09:57:34.213Z</time></trkpt><trkpt lat="45.9400096" lon="13.8029804"><ele>1158.5</ele><time>2026-04-08T09:57:35.213Z</time></trkpt><trkpt lat="45.9399801" lon="13.8028225"><ele>1158.75</ele><time>2026-04-08T09:57:36.209Z</time></trkpt><trkpt lat="45.9399509" lon="13.8026623"><ele>1159.0</ele><time>2026-04-08T09:57:37.242Z</time></trkpt><trkpt lat="45.9399191" lon="13.8024949"><ele>1156.0</ele><time>2026-04-08T09:57:38.203Z</time></trkpt><trkpt lat="45.9398864" lon="13.8023282"><ele>1153.0</ele><time>2026-04-08T09:57:39.202Z</time></trkpt><trkpt lat="45.9398615" lon="13.8021719"><ele>1150.0</ele><time>2026-04-08T09:57:40.21Z</time></trkpt><trkpt lat="45.9398351" lon="13.802022"><ele>1147.0</ele><time>2026-04-08T09:57:41.215Z</time></trkpt><trkpt lat="45.9397962" lon="13.8018843"><ele>1144.0</ele><time>2026-04-08T09:57:42.232Z</time></trkpt><trkpt lat="45.9397445" lon="13.8017589"><ele>1143.0</ele><time>2026-04-08T09:57:43.203Z</time></trkpt><trkpt lat="45.9396741" lon="13.8016483"><ele>1142.0</ele><time>2026-04-08T09:57:44.209Z</time></trkpt><trkpt lat="45.9396117" lon="13.8015204"><ele>1141.0</ele><time>2026-04-08T09:57:45.221Z</time></trkpt><trkpt lat="45.9395484" lon="13.8014035"><ele>1140.0</ele><time>2026-04-08T09:57:46.204Z</time></trkpt><trkpt lat="45.9395024" lon="13.8013045"><ele>1139.0</ele><time>2026-04-08T09:57:47.232Z</time></trkpt><trkpt lat="45.9394729" lon="13.8012107"><ele>1139.0</ele><time>2026-04-08T09:57:48.203Z</time></trkpt><trkpt lat="45.939462" lon="13.8011114"><ele>1139.0</ele><time>2026-04-08T09:57:49.221Z</time></trkpt><trkpt lat="45.9394738" lon="13.8009975"><ele>1139.0</ele><time>2026-04-08T09:57:50.213Z</time></trkpt><trkpt lat="45.9395221" lon="13.8008959"><ele>1139.0</ele><time>2026-04-08T09:57:51.274Z</time></trkpt><trkpt lat="45.9395995" lon="13.8007859"><ele>1139.0</ele><time>2026-04-08T09:57:52.223Z</time></trkpt><trkpt lat="45.9396846" lon="13.800665"><ele>1137.6000000000001</ele><time>2026-04-08T09:57:53.221Z</time></trkpt><trkpt lat="45.9397556" lon="13.8005413"><ele>1136.2</ele><time>2026-04-08T09:57:54.213Z</time></trkpt><trkpt lat="45.9398195" lon="13.8004038"><ele>1134.8000000000002</ele><time>2026-04-08T09:57:55.22Z</time></trkpt><trkpt lat="45.939867" lon="13.8002664"><ele>1133.4</ele><time>2026-04-08T09:57:56.217Z</time></trkpt><trkpt lat="45.9398992" lon="13.8001302"><ele>1132.0</ele><time>2026-04-08T09:57:57.236Z</time></trkpt><trkpt lat="45.9399178" lon="13.800001"><ele>1132.0</ele><time>2026-04-08T09:57:58.221Z</time></trkpt><trkpt lat="45.9399389" lon="13.7998878"><ele>1132.0</ele><time>2026-04-08T09:57:59.208Z</time></trkpt><trkpt lat="45.939932" lon="13.7997666"><ele>1132.0</ele><time>2026-04-08T09:58:00.223Z</time></trkpt><trkpt lat="45.9398965" lon="13.7996595"><ele>1132.0</ele><time>2026-04-08T09:58:01.209Z</time></trkpt><trkpt lat="45.9398553" lon="13.7995358"><ele>1132.0</ele><time>2026-04-08T09:58:02.221Z</time></trkpt><trkpt lat="45.9398037" lon="13.799418"><ele>1132.0</ele><time>2026-04-08T09:58:03.219Z</time></trkpt><trkpt lat="45.9397393" lon="13.7993072"><ele>1129.5</ele><time>2026-04-08T09:58:04.231Z</time></trkpt><trkpt lat="45.9396605" lon="13.7992206"><ele>1127.0</ele><time>2026-04-08T09:58:05.227Z</time></trkpt><trkpt lat="45.9395638" lon="13.7991383"><ele>1124.5</ele><time>2026-04-08T09:58:06.226Z</time></trkpt><trkpt lat="45.9394637" lon="13.7990575"><ele>1122.0</ele><time>2026-04-08T09:58:07.214Z</time></trkpt><trkpt lat="45.939356" lon="13.7989653"><ele>1122.0</ele><time>2026-04-08T09:58:08.211Z</time></trkpt><trkpt lat="45.9392469" lon="13.7988803"><ele>1122.0</ele><time>2026-04-08T09:58:09.243Z</time></trkpt><trkpt lat="45.9391471" lon="13.7987938"><ele>1122.0</ele><time>2026-04-08T09:58:10.217Z</time></trkpt><trkpt lat="45.9390488" lon="13.7987065"><ele>1122.0</ele><time>2026-04-08T09:58:11.207Z</time></trkpt><trkpt lat="45.9389454" lon="13.7986177"><ele>1118.25</ele><time>2026-04-08T09:58:12.21Z</time></trkpt><trkpt lat="45.9388471" lon="13.7985261"><ele>1114.5</ele><time>2026-04-08T09:58:13.234Z</time></trkpt><trkpt lat="45.93874" lon="13.7984449"><ele>1110.75</ele><time>2026-04-08T09:58:14.203Z</time></trkpt><trkpt lat="45.9386271" lon="13.7983671"><ele>1107.0</ele><time>2026-04-08T09:58:15.215Z</time></trkpt><trkpt lat="45.9385164" lon="13.7982849"><ele>1107.0</ele><time>2026-04-08T09:58:16.209Z</time></trkpt><trkpt lat="45.9384068" lon="13.7981951"><ele>1107.0</ele><time>2026-04-08T09:58:17.228Z</time></trkpt><trkpt lat="45.9382944" lon="13.7981048"><ele>1107.0</ele><time>2026-04-08T09:58:18.217Z</time></trkpt><trkpt lat="45.9381861" lon="13.7980166"><ele>1107.0</ele><time>2026-04-08T09:58:19.206Z</time></trkpt><trkpt lat="45.9380828" lon="13.7979257"><ele>1106.3333333333333</ele><time>2026-04-08T09:58:20.206Z</time></trkpt><trkpt lat="45.9379734" lon="13.7977928"><ele>1105.6666666666665</ele><time>2026-04-08T09:58:21.221Z</time></trkpt><trkpt lat="45.9378805" lon="13.797648"><ele>1105.0</ele><time>2026-04-08T09:58:22.205Z</time></trkpt><trkpt lat="45.937735" lon="13.7974218"><ele>1105.0</ele><time>2026-04-08T09:58:24.217Z</time></trkpt><trkpt lat="45.9376817" lon="13.7973154"><ele>1105.0</ele><time>2026-04-08T09:58:25.206Z</time></trkpt><trkpt lat="45.9376558" lon="13.7972048"><ele>1105.0</ele><time>2026-04-08T09:58:26.226Z</time></trkpt><trkpt lat="45.9376456" lon="13.797098"><ele>1105.0</ele><time>2026-04-08T09:58:27.227Z</time></trkpt><trkpt lat="45.93766" lon="13.7969793"><ele>1105.0</ele><time>2026-04-08T09:58:28.235Z</time></trkpt><trkpt lat="45.9377054" lon="13.7968684"><ele>1105.0</ele><time>2026-04-08T09:58:29.222Z</time></trkpt><trkpt lat="45.9377685" lon="13.7967684"><ele>1103.8</ele><time>2026-04-08T09:58:30.205Z</time></trkpt><trkpt lat="45.9378445" lon="13.7966795"><ele>1102.6</ele><time>2026-04-08T09:58:31.213Z</time></trkpt><trkpt lat="45.9379234" lon="13.7966108"><ele>1101.4</ele><time>2026-04-08T09:58:32.221Z</time></trkpt><trkpt lat="45.9380042" lon="13.796551"><ele>1100.2</ele><time>2026-04-08T09:58:33.226Z</time></trkpt><trkpt lat="45.9380831" lon="13.7964978"><ele>1099.0</ele><time>2026-04-08T09:58:34.241Z</time></trkpt><trkpt lat="45.9381626" lon="13.7964527"><ele>1099.0</ele><time>2026-04-08T09:58:35.219Z</time></trkpt><trkpt lat="45.9382276" lon="13.7963962"><ele>1099.0</ele><time>2026-04-08T09:58:36.225Z</time></trkpt><trkpt lat="45.9382804" lon="13.7963351"><ele>1099.0</ele><time>2026-04-08T09:58:37.235Z</time></trkpt><trkpt lat="45.938326" lon="13.7962664"><ele>1099.0</ele><time>2026-04-08T09:58:38.228Z</time></trkpt><trkpt lat="45.9383675" lon="13.7961802"><ele>1099.0</ele><time>2026-04-08T09:58:39.208Z</time></trkpt><trkpt lat="45.9384064" lon="13.7960846"><ele>1099.0</ele><time>2026-04-08T09:58:40.221Z</time></trkpt><trkpt lat="45.9384551" lon="13.7959872"><ele>1099.0</ele><time>2026-04-08T09:58:41.242Z</time></trkpt><trkpt lat="45.9385001" lon="13.7959004"><ele>1095.8</ele><time>2026-04-08T09:58:42.218Z</time></trkpt><trkpt lat="45.9385452" lon="13.7957578"><ele>1092.6000000000001</ele><time>2026-04-08T09:58:44.215Z</time></trkpt><trkpt lat="45.9385141" lon="13.7955719"><ele>1089.4</ele><time>2026-04-08T09:58:46.219Z</time></trkpt><trkpt lat="45.938477" lon="13.7954657"><ele>1086.2</ele><time>2026-04-08T09:58:47.213Z</time></trkpt><trkpt lat="45.9384484" lon="13.7953776"><ele>1083.0</ele><time>2026-04-08T09:58:48.215Z</time></trkpt><trkpt lat="45.9384378" lon="13.7952786"><ele>1082.8</ele><time>2026-04-08T09:58:49.221Z</time></trkpt><trkpt lat="45.9384622" lon="13.7951591"><ele>1082.6</ele><time>2026-04-08T09:58:50.226Z</time></trkpt><trkpt lat="45.9385058" lon="13.7950488"><ele>1082.4</ele><time>2026-04-08T09:58:51.221Z</time></trkpt><trkpt lat="45.9385661" lon="13.7949584"><ele>1082.2</ele><time>2026-04-08T09:58:52.234Z</time></trkpt><trkpt lat="45.9386463" lon="13.7948733"><ele>1082.0</ele><time>2026-04-08T09:58:53.229Z</time></trkpt><trkpt lat="45.9387364" lon="13.7947662"><ele>1082.0</ele><time>2026-04-08T09:58:54.212Z</time></trkpt><trkpt lat="45.9388049" lon="13.7946508"><ele>1082.0</ele><time>2026-04-08T09:58:55.216Z</time></trkpt><trkpt lat="45.9388692" lon="13.7945471"><ele>1082.0</ele><time>2026-04-08T09:58:56.228Z</time></trkpt><trkpt lat="45.9389272" lon="13.7944536"><ele>1082.0</ele><time>2026-04-08T09:58:57.216Z</time></trkpt><trkpt lat="45.9389774" lon="13.7943441"><ele>1082.0</ele><time>2026-04-08T09:58:58.226Z</time></trkpt><trkpt lat="45.9390338" lon="13.7942296"><ele>1081.5</ele><time>2026-04-08T09:58:59.205Z</time></trkpt><trkpt lat="45.9390973" lon="13.7940996"><ele>1081.0</ele><time>2026-04-08T09:59:00.205Z</time></trkpt><trkpt lat="45.9391523" lon="13.7939582"><ele>1080.5</ele><time>2026-04-08T09:59:01.226Z</time></trkpt><trkpt lat="45.9392115" lon="13.7938111"><ele>1080.0</ele><time>2026-04-08T09:59:02.209Z</time></trkpt><trkpt lat="45.9392701" lon="13.7936527"><ele>1076.5</ele><time>2026-04-08T09:59:03.205Z</time></trkpt><trkpt lat="45.939315" lon="13.7934925"><ele>1073.0</ele><time>2026-04-08T09:59:04.219Z</time></trkpt><trkpt lat="45.9393584" lon="13.793334"><ele>1069.5</ele><time>2026-04-08T09:59:05.247Z</time></trkpt><trkpt lat="45.9393997" lon="13.7931764"><ele>1066.0</ele><time>2026-04-08T09:59:06.227Z</time></trkpt><trkpt lat="45.9394374" lon="13.7930211"><ele>1066.0</ele><time>2026-04-08T09:59:07.219Z</time></trkpt><trkpt lat="45.9394668" lon="13.792866"><ele>1066.0</ele><time>2026-04-08T09:59:08.216Z</time></trkpt><trkpt lat="45.9394893" lon="13.7927109"><ele>1066.0</ele><time>2026-04-08T09:59:09.22Z</time></trkpt><trkpt lat="45.9395045" lon="13.7925599"><ele>1066.0</ele><time>2026-04-08T09:59:10.202Z</time></trkpt><trkpt lat="45.9395156" lon="13.7923943"><ele>1066.0</ele><time>2026-04-08T09:59:11.215Z</time></trkpt><trkpt lat="45.93952" lon="13.7922229"><ele>1063.75</ele><time>2026-04-08T09:59:12.204Z</time></trkpt><trkpt lat="45.9395228" lon="13.7920493"><ele>1061.5</ele><time>2026-04-08T09:59:13.222Z</time></trkpt><trkpt lat="45.9395283" lon="13.7918895"><ele>1059.25</ele><time>2026-04-08T09:59:14.236Z</time></trkpt><trkpt lat="45.9395183" lon="13.7917136"><ele>1057.0</ele><time>2026-04-08T09:59:15.225Z</time></trkpt><trkpt lat="45.9395055" lon="13.7915325"><ele>1055.5</ele><time>2026-04-08T09:59:16.221Z</time></trkpt><trkpt lat="45.9395049" lon="13.7913344"><ele>1054.0</ele><time>2026-04-08T09:59:17.222Z</time></trkpt><trkpt lat="45.9395202" lon="13.7911482"><ele>1052.5</ele><time>2026-04-08T09:59:18.208Z</time></trkpt><trkpt lat="45.9395515" lon="13.7909672"><ele>1051.0</ele><time>2026-04-08T09:59:19.222Z</time></trkpt><trkpt lat="45.9395964" lon="13.7907861"><ele>1051.5</ele><time>2026-04-08T09:59:20.22Z</time></trkpt><trkpt lat="45.9396576" lon="13.7906263"><ele>1052.0</ele><time>2026-04-08T09:59:21.21Z</time></trkpt><trkpt lat="45.939732" lon="13.7904644"><ele>1052.5</ele><time>2026-04-08T09:59:22.225Z</time></trkpt><trkpt lat="45.9398243" lon="13.7903132"><ele>1053.0</ele><time>2026-04-08T09:59:23.226Z</time></trkpt><trkpt lat="45.9399346" lon="13.7901653"><ele>1053.0</ele><time>2026-04-08T09:59:24.216Z</time></trkpt><trkpt lat="45.9400354" lon="13.7900185"><ele>1053.0</ele><time>2026-04-08T09:59:25.206Z</time></trkpt><trkpt lat="45.9401374" lon="13.7898758"><ele>1053.0</ele><time>2026-04-08T09:59:26.222Z</time></trkpt><trkpt lat="45.940233" lon="13.7897454"><ele>1053.0</ele><time>2026-04-08T09:59:27.213Z</time></trkpt><trkpt lat="45.9403164" lon="13.7896341"><ele>1052.1666666666667</ele><time>2026-04-08T09:59:28.227Z</time></trkpt><trkpt lat="45.9403787" lon="13.7895215"><ele>1051.3333333333333</ele><time>2026-04-08T09:59:29.229Z</time></trkpt><trkpt lat="45.9404342" lon="13.7894179"><ele>1050.5</ele><time>2026-04-08T09:59:30.219Z</time></trkpt><trkpt lat="45.9405044" lon="13.7893553"><ele>1049.6666666666665</ele><time>2026-04-08T09:59:31.221Z</time></trkpt><trkpt lat="45.9405822" lon="13.7893307"><ele>1048.8333333333333</ele><time>2026-04-08T09:59:32.212Z</time></trkpt><trkpt lat="45.9406715" lon="13.7893341"><ele>1048.0</ele><time>2026-04-08T09:59:33.231Z</time></trkpt><trkpt lat="45.9407833" lon="13.7893213"><ele>1045.25</ele><time>2026-04-08T09:59:34.227Z</time></trkpt><trkpt lat="45.9409146" lon="13.7892984"><ele>1042.5</ele><time>2026-04-08T09:59:35.223Z</time></trkpt><trkpt lat="45.9410576" lon="13.789248"><ele>1039.75</ele><time>2026-04-08T09:59:36.23Z</time></trkpt><trkpt lat="45.941194" lon="13.7891927"><ele>1037.0</ele><time>2026-04-08T09:59:37.216Z</time></trkpt><trkpt lat="45.941326" lon="13.7891503"><ele>1037.0</ele><time>2026-04-08T09:59:38.225Z</time></trkpt><trkpt lat="45.9414542" lon="13.7891361"><ele>1037.0</ele><time>2026-04-08T09:59:39.215Z</time></trkpt><trkpt lat="45.941591" lon="13.7891316"><ele>1037.0</ele><time>2026-04-08T09:59:40.217Z</time></trkpt><trkpt lat="45.9417198" lon="13.7891436"><ele>1037.0</ele><time>2026-04-08T09:59:41.226Z</time></trkpt><trkpt lat="45.9418338" lon="13.7891657"><ele>1035.6666666666667</ele><time>2026-04-08T09:59:42.212Z</time></trkpt><trkpt lat="45.941939" lon="13.7892274"><ele>1034.3333333333335</ele><time>2026-04-08T09:59:43.206Z</time></trkpt><trkpt lat="45.942021" lon="13.7893162"><ele>1033.0</ele><time>2026-04-08T09:59:44.203Z</time></trkpt><trkpt lat="45.9420857" lon="13.789397"><ele>1031.6666666666667</ele><time>2026-04-08T09:59:45.217Z</time></trkpt><trkpt lat="45.9421507" lon="13.7894362"><ele>1030.3333333333333</ele><time>2026-04-08T09:59:46.212Z</time></trkpt><trkpt lat="45.9422187" lon="13.7893965"><ele>1029.0</ele><time>2026-04-08T09:59:47.211Z</time></trkpt><trkpt lat="45.9422584" lon="13.789294"><ele>1029.0</ele><time>2026-04-08T09:59:48.211Z</time></trkpt><trkpt lat="45.9422661" lon="13.7891731"><ele>1029.0</ele><time>2026-04-08T09:59:49.239Z</time></trkpt><trkpt lat="45.9422354" lon="13.7890482"><ele>1029.0</ele><time>2026-04-08T09:59:50.205Z</time></trkpt><trkpt lat="45.9421632" lon="13.7889544"><ele>1029.0</ele><time>2026-04-08T09:59:51.223Z</time></trkpt><trkpt lat="45.9420537" lon="13.7888887"><ele>1029.0</ele><time>2026-04-08T09:59:52.215Z</time></trkpt><trkpt lat="45.9419326" lon="13.7888221"><ele>1029.0</ele><time>2026-04-08T09:59:53.207Z</time></trkpt><trkpt lat="45.9418061" lon="13.7887252"><ele>1029.0</ele><time>2026-04-08T09:59:54.206Z</time></trkpt><trkpt lat="45.941679" lon="13.7886341"><ele>1029.0</ele><time>2026-04-08T09:59:55.207Z</time></trkpt><trkpt lat="45.9415576" lon="13.788558"><ele>1029.0</ele><time>2026-04-08T09:59:56.219Z</time></trkpt><trkpt lat="45.9414482" lon="13.7884949"><ele>1025.8</ele><time>2026-04-08T09:59:57.212Z</time></trkpt><trkpt lat="45.9413492" lon="13.7884108"><ele>1022.6000000000001</ele><time>2026-04-08T09:59:58.215Z</time></trkpt><trkpt lat="45.9412832" lon="13.7883207"><ele>1019.4</ele><time>2026-04-08T09:59:59.208Z</time></trkpt><trkpt lat="45.941218" lon="13.7882256"><ele>1016.2</ele><time>2026-04-08T10:00:00.208Z</time></trkpt><trkpt lat="45.9411794" lon="13.7881198"><ele>1013.0</ele><time>2026-04-08T10:00:01.221Z</time></trkpt><trkpt lat="45.9412076" lon="13.7880043"><ele>1013.0</ele><time>2026-04-08T10:00:02.222Z</time></trkpt><trkpt lat="45.9412752" lon="13.7878954"><ele>1013.0</ele><time>2026-04-08T10:00:03.219Z</time></trkpt><trkpt lat="45.9413587" lon="13.7877861"><ele>1013.0</ele><time>2026-04-08T10:00:04.205Z</time></trkpt><trkpt lat="45.9415653" lon="13.7875886"><ele>1012.5</ele><time>2026-04-08T10:00:06.221Z</time></trkpt><trkpt lat="45.9416652" lon="13.7874882"><ele>1012.0</ele><time>2026-04-08T10:00:07.211Z</time></trkpt><trkpt lat="45.9417762" lon="13.7874065"><ele>1011.5</ele><time>2026-04-08T10:00:08.208Z</time></trkpt><trkpt lat="45.9419064" lon="13.787338"><ele>1011.0</ele><time>2026-04-08T10:00:09.255Z</time></trkpt><trkpt lat="45.9420437" lon="13.7872832"><ele>1011.0</ele><time>2026-04-08T10:00:10.229Z</time></trkpt><trkpt lat="45.9421801" lon="13.7872192"><ele>1011.0</ele><time>2026-04-08T10:00:11.23Z</time></trkpt><trkpt lat="45.9423161" lon="13.7871396"><ele>1011.0</ele><time>2026-04-08T10:00:12.217Z</time></trkpt><trkpt lat="45.9424573" lon="13.7870651"><ele>1011.0</ele><time>2026-04-08T10:00:13.22Z</time></trkpt><trkpt lat="45.9426008" lon="13.7869914"><ele>1009.5</ele><time>2026-04-08T10:00:14.212Z</time></trkpt><trkpt lat="45.9427406" lon="13.7869263"><ele>1008.0</ele><time>2026-04-08T10:00:15.235Z</time></trkpt><trkpt lat="45.9428693" lon="13.7868638"><ele>1006.5</ele><time>2026-04-08T10:00:16.22Z</time></trkpt><trkpt lat="45.9429934" lon="13.7868153"><ele>1005.0</ele><time>2026-04-08T10:00:17.252Z</time></trkpt><trkpt lat="45.9431176" lon="13.7867547"><ele>1002.75</ele><time>2026-04-08T10:00:18.216Z</time></trkpt><trkpt lat="45.9432383" lon="13.7866682"><ele>1000.5</ele><time>2026-04-08T10:00:19.234Z</time></trkpt><trkpt lat="45.9433547" lon="13.7865664"><ele>998.25</ele><time>2026-04-08T10:00:20.228Z</time></trkpt><trkpt lat="45.9434647" lon="13.7864788"><ele>996.0</ele><time>2026-04-08T10:00:21.22Z</time></trkpt><trkpt lat="45.9435643" lon="13.7864066"><ele>996.0</ele><time>2026-04-08T10:00:22.234Z</time></trkpt><trkpt lat="45.9436477" lon="13.7863137"><ele>995.9999999999999</ele><time>2026-04-08T10:00:23.215Z</time></trkpt><trkpt lat="45.943721" lon="13.7861917"><ele>995.9999999999999</ele><time>2026-04-08T10:00:24.228Z</time></trkpt><trkpt lat="45.9437642" lon="13.7860404"><ele>996.0</ele><time>2026-04-08T10:00:25.226Z</time></trkpt><trkpt lat="45.9438019" lon="13.7858918"><ele>996.0</ele><time>2026-04-08T10:00:26.234Z</time></trkpt><trkpt lat="45.9438487" lon="13.7857653"><ele>994.1666666666666</ele><time>2026-04-08T10:00:27.211Z</time></trkpt><trkpt lat="45.9439054" lon="13.7856699"><ele>992.3333333333333</ele><time>2026-04-08T10:00:28.22Z</time></trkpt><trkpt lat="45.9439577" lon="13.7855721"><ele>990.5</ele><time>2026-04-08T10:00:29.221Z</time></trkpt><trkpt lat="45.9440046" lon="13.7854793"><ele>988.6666666666666</ele><time>2026-04-08T10:00:30.215Z</time></trkpt><trkpt lat="45.9440332" lon="13.7853919"><ele>986.8333333333333</ele><time>2026-04-08T10:00:31.211Z</time></trkpt><trkpt lat="45.9440232" lon="13.7852227"><ele>985.0</ele><time>2026-04-08T10:00:33.218Z</time></trkpt><trkpt lat="45.9439852" lon="13.7851444"><ele>984.6666666666666</ele><time>2026-04-08T10:00:34.221Z</time></trkpt><trkpt lat="45.9439313" lon="13.7850785"><ele>984.3333333333333</ele><time>2026-04-08T10:00:35.225Z</time></trkpt><trkpt lat="45.9438659" lon="13.7850328"><ele>984.0</ele><time>2026-04-08T10:00:36.237Z</time></trkpt><trkpt lat="45.9437314" lon="13.7849499"><ele>983.6666666666667</ele><time>2026-04-08T10:00:38.219Z</time></trkpt><trkpt lat="45.9436728" lon="13.7848986"><ele>983.3333333333334</ele><time>2026-04-08T10:00:39.215Z</time></trkpt><trkpt lat="45.9436202" lon="13.7848282"><ele>983.0</ele><time>2026-04-08T10:00:40.213Z</time></trkpt><trkpt lat="45.9435799" lon="13.7847416"><ele>983.0000000000001</ele><time>2026-04-08T10:00:41.222Z</time></trkpt><trkpt lat="45.9435604" lon="13.7846528"><ele>983.0</ele><time>2026-04-08T10:00:42.226Z</time></trkpt><trkpt lat="45.9435697" lon="13.7844636"><ele>983.0</ele><time>2026-04-08T10:00:44.203Z</time></trkpt><trkpt lat="45.943599" lon="13.7843626"><ele>983.0</ele><time>2026-04-08T10:00:45.23Z</time></trkpt><trkpt lat="45.9436433" lon="13.7842661"><ele>983.0000000000001</ele><time>2026-04-08T10:00:46.217Z</time></trkpt><trkpt lat="45.9437056" lon="13.7841689"><ele>983.0</ele><time>2026-04-08T10:00:47.23Z</time></trkpt><trkpt lat="45.9437747" lon="13.7840695"><ele>984.5</ele><time>2026-04-08T10:00:48.222Z</time></trkpt><trkpt lat="45.943857" lon="13.7839618"><ele>986.0</ele><time>2026-04-08T10:00:49.224Z</time></trkpt><trkpt lat="45.9439478" lon="13.7838271"><ele>987.5</ele><time>2026-04-08T10:00:50.215Z</time></trkpt><trkpt lat="45.9440429" lon="13.7836864"><ele>989.0</ele><time>2026-04-08T10:00:51.216Z</time></trkpt><trkpt lat="45.9441311" lon="13.7835438"><ele>991.0</ele><time>2026-04-08T10:00:52.207Z</time></trkpt><trkpt lat="45.9442202" lon="13.7834006"><ele>993.0</ele><time>2026-04-08T10:00:53.209Z</time></trkpt><trkpt lat="45.9443096" lon="13.7832609"><ele>995.0</ele><time>2026-04-08T10:00:54.214Z</time></trkpt><trkpt lat="45.944403" lon="13.7831221"><ele>997.0</ele><time>2026-04-08T10:00:55.228Z</time></trkpt><trkpt lat="45.9444957" lon="13.7829774"><ele>997.0</ele><time>2026-04-08T10:00:56.203Z</time></trkpt><trkpt lat="45.9445875" lon="13.7828283"><ele>997.0</ele><time>2026-04-08T10:00:57.211Z</time></trkpt><trkpt lat="45.9446812" lon="13.7826835"><ele>997.0</ele><time>2026-04-08T10:00:58.214Z</time></trkpt><trkpt lat="45.944774" lon="13.7825365"><ele>997.0</ele><time>2026-04-08T10:00:59.216Z</time></trkpt><trkpt lat="45.9448628" lon="13.7823843"><ele>997.25</ele><time>2026-04-08T10:01:00.203Z</time></trkpt><trkpt lat="45.9449492" lon="13.7822231"><ele>997.5</ele><time>2026-04-08T10:01:01.218Z</time></trkpt><trkpt lat="45.9450354" lon="13.7820409"><ele>997.75</ele><time>2026-04-08T10:01:02.212Z</time></trkpt><trkpt lat="45.9451208" lon="13.781868"><ele>998.0</ele><time>2026-04-08T10:01:03.213Z</time></trkpt><trkpt lat="45.9452028" lon="13.7816911"><ele>998.0</ele><time>2026-04-08T10:01:04.206Z</time></trkpt><trkpt lat="45.9452807" lon="13.7815091"><ele>998.0</ele><time>2026-04-08T10:01:05.201Z</time></trkpt><trkpt lat="45.9453529" lon="13.7813344"><ele>998.0</ele><time>2026-04-08T10:01:06.207Z</time></trkpt><trkpt lat="45.9454221" lon="13.7811693"><ele>998.0</ele><time>2026-04-08T10:01:07.206Z</time></trkpt><trkpt lat="45.9454856" lon="13.7809949"><ele>994.75</ele><time>2026-04-08T10:01:08.199Z</time></trkpt><trkpt lat="45.9455349" lon="13.7808143"><ele>991.5</ele><time>2026-04-08T10:01:09.199Z</time></trkpt><trkpt lat="45.9455798" lon="13.7806225"><ele>988.25</ele><time>2026-04-08T10:01:10.217Z</time></trkpt><trkpt lat="45.9456213" lon="13.7804248"><ele>985.0</ele><time>2026-04-08T10:01:11.198Z</time></trkpt><trkpt lat="45.9456642" lon="13.7802229"><ele>981.75</ele><time>2026-04-08T10:01:12.201Z</time></trkpt><trkpt lat="45.9457119" lon="13.7800241"><ele>978.5</ele><time>2026-04-08T10:01:13.205Z</time></trkpt><trkpt lat="45.9457658" lon="13.7798284"><ele>975.25</ele><time>2026-04-08T10:01:14.204Z</time></trkpt><trkpt lat="45.9458087" lon="13.7796271"><ele>972.0</ele><time>2026-04-08T10:01:15.213Z</time></trkpt><trkpt lat="45.9458445" lon="13.7794234"><ele>969.75</ele><time>2026-04-08T10:01:16.21Z</time></trkpt><trkpt lat="45.9458697" lon="13.7792266"><ele>967.5</ele><time>2026-04-08T10:01:17.233Z</time></trkpt><trkpt lat="45.9458914" lon="13.7790398"><ele>965.25</ele><time>2026-04-08T10:01:18.27Z</time></trkpt><trkpt lat="45.9459139" lon="13.77885"><ele>963.0</ele><time>2026-04-08T10:01:19.194Z</time></trkpt><trkpt lat="45.9459548" lon="13.7784615"><ele>971.0</ele><time>2026-04-08T10:01:21.206Z</time></trkpt><trkpt lat="45.9459651" lon="13.7782717"><ele>979.0</ele><time>2026-04-08T10:01:22.204Z</time></trkpt><trkpt lat="45.9459681" lon="13.7780805"><ele>987.0</ele><time>2026-04-08T10:01:23.193Z</time></trkpt><trkpt lat="45.9459688" lon="13.7779009"><ele>995.0</ele><time>2026-04-08T10:01:24.205Z</time></trkpt><trkpt lat="45.9459686" lon="13.7777428"><ele>993.2</ele><time>2026-04-08T10:01:25.209Z</time></trkpt><trkpt lat="45.9459668" lon="13.7776025"><ele>991.4</ele><time>2026-04-08T10:01:26.204Z</time></trkpt><trkpt lat="45.9459636" lon="13.7774658"><ele>989.5999999999999</ele><time>2026-04-08T10:01:27.213Z</time></trkpt><trkpt lat="45.9459631" lon="13.7773334"><ele>987.8</ele><time>2026-04-08T10:01:28.219Z</time></trkpt><trkpt lat="45.9459654" lon="13.7771934"><ele>986.0</ele><time>2026-04-08T10:01:29.21Z</time></trkpt><trkpt lat="45.9459755" lon="13.7770534"><ele>986.0</ele><time>2026-04-08T10:01:30.203Z</time></trkpt><trkpt lat="45.9459904" lon="13.7769159"><ele>985.9999999999999</ele><time>2026-04-08T10:01:31.212Z</time></trkpt><trkpt lat="45.9460199" lon="13.7767757"><ele>985.9999999999999</ele><time>2026-04-08T10:01:32.215Z</time></trkpt><trkpt lat="45.9460497" lon="13.7766344"><ele>986.0</ele><time>2026-04-08T10:01:33.199Z</time></trkpt><trkpt lat="45.9460887" lon="13.7764981"><ele>986.0</ele><time>2026-04-08T10:01:34.214Z</time></trkpt><trkpt lat="45.9461387" lon="13.7763615"><ele>982.75</ele><time>2026-04-08T10:01:35.196Z</time></trkpt><trkpt lat="45.9461918" lon="13.7762114"><ele>979.5</ele><time>2026-04-08T10:01:36.202Z</time></trkpt><trkpt lat="45.946245" lon="13.7760545"><ele>976.25</ele><time>2026-04-08T10:01:37.196Z</time></trkpt><trkpt lat="45.9463152" lon="13.7758856"><ele>973.0</ele><time>2026-04-08T10:01:38.216Z</time></trkpt><trkpt lat="45.9463904" lon="13.7757072"><ele>972.5</ele><time>2026-04-08T10:01:39.219Z</time></trkpt><trkpt lat="45.9464608" lon="13.7755335"><ele>972.0</ele><time>2026-04-08T10:01:40.226Z</time></trkpt><trkpt lat="45.9465424" lon="13.7753673"><ele>971.5</ele><time>2026-04-08T10:01:41.197Z</time></trkpt><trkpt lat="45.9466445" lon="13.7752037"><ele>971.0</ele><time>2026-04-08T10:01:42.212Z</time></trkpt><trkpt lat="45.9467362" lon="13.7750436"><ele>971.0</ele><time>2026-04-08T10:01:43.204Z</time></trkpt><trkpt lat="45.9468239" lon="13.7748974"><ele>971.0</ele><time>2026-04-08T10:01:44.219Z</time></trkpt><trkpt lat="45.946924" lon="13.7747419"><ele>971.0</ele><time>2026-04-08T10:01:45.209Z</time></trkpt><trkpt lat="45.947045" lon="13.7745767"><ele>971.0</ele><time>2026-04-08T10:01:46.208Z</time></trkpt><trkpt lat="45.9471683" lon="13.7744111"><ele>973.3333333333334</ele><time>2026-04-08T10:01:47.21Z</time></trkpt><trkpt lat="45.9472978" lon="13.7742484"><ele>975.6666666666667</ele><time>2026-04-08T10:01:48.202Z</time></trkpt><trkpt lat="45.9474221" lon="13.7740919"><ele>978.0</ele><time>2026-04-08T10:01:49.19Z</time></trkpt><trkpt lat="45.9475486" lon="13.7739343"><ele>978.0</ele><time>2026-04-08T10:01:50.195Z</time></trkpt><trkpt lat="45.9476674" lon="13.7737804"><ele>978.0</ele><time>2026-04-08T10:01:51.199Z</time></trkpt><trkpt lat="45.9477839" lon="13.7736475"><ele>978.0</ele><time>2026-04-08T10:01:52.214Z</time></trkpt><trkpt lat="45.9478997" lon="13.7735092"><ele>968.6666666666667</ele><time>2026-04-08T10:01:53.206Z</time></trkpt><trkpt lat="45.9480156" lon="13.7733595"><ele>959.3333333333334</ele><time>2026-04-08T10:01:54.196Z</time></trkpt><trkpt lat="45.9481344" lon="13.7732139"><ele>950.0</ele><time>2026-04-08T10:01:55.191Z</time></trkpt><trkpt lat="45.9482514" lon="13.7730684"><ele>950.0</ele><time>2026-04-08T10:01:56.19Z</time></trkpt><trkpt lat="45.9483737" lon="13.7729301"><ele>950.0</ele><time>2026-04-08T10:01:57.199Z</time></trkpt><trkpt lat="45.9485073" lon="13.7728022"><ele>950.0</ele><time>2026-04-08T10:01:58.206Z</time></trkpt><trkpt lat="45.9486452" lon="13.7726902"><ele>947.3333333333334</ele><time>2026-04-08T10:01:59.201Z</time></trkpt><trkpt lat="45.9487808" lon="13.7725791"><ele>944.6666666666667</ele><time>2026-04-08T10:02:00.2Z</time></trkpt><trkpt lat="45.9489109" lon="13.7724684"><ele>942.0</ele><time>2026-04-08T10:02:01.209Z</time></trkpt><trkpt lat="45.9490283" lon="13.7723468"><ele>942.0</ele><time>2026-04-08T10:02:02.206Z</time></trkpt><trkpt lat="45.9491451" lon="13.7722113"><ele>942.0</ele><time>2026-04-08T10:02:03.195Z</time></trkpt><trkpt lat="45.9492651" lon="13.772075"><ele>942.0</ele><time>2026-04-08T10:02:04.196Z</time></trkpt><trkpt lat="45.9493727" lon="13.7719211"><ele>941.0</ele><time>2026-04-08T10:02:05.208Z</time></trkpt><trkpt lat="45.949463" lon="13.7717459"><ele>940.0</ele><time>2026-04-08T10:02:06.212Z</time></trkpt><trkpt lat="45.9495493" lon="13.7715521"><ele>939.0</ele><time>2026-04-08T10:02:07.198Z</time></trkpt><trkpt lat="45.9496166" lon="13.7713486"><ele>939.0</ele><time>2026-04-08T10:02:08.206Z</time></trkpt><trkpt lat="45.9496834" lon="13.771161"><ele>939.0</ele><time>2026-04-08T10:02:09.211Z</time></trkpt><trkpt lat="45.9497329" lon="13.7709964"><ele>939.0</ele><time>2026-04-08T10:02:10.205Z</time></trkpt><trkpt lat="45.9497638" lon="13.7708316"><ele>939.0</ele><time>2026-04-08T10:02:11.198Z</time></trkpt><trkpt lat="45.9497896" lon="13.7704643"><ele>935.3333333333333</ele><time>2026-04-08T10:02:13.218Z</time></trkpt><trkpt lat="45.9498384" lon="13.7702886"><ele>931.6666666666666</ele><time>2026-04-08T10:02:14.203Z</time></trkpt><trkpt lat="45.9499142" lon="13.7700895"><ele>928.0</ele><time>2026-04-08T10:02:15.195Z</time></trkpt><trkpt lat="45.9499939" lon="13.7698797"><ele>928.25</ele><time>2026-04-08T10:02:16.204Z</time></trkpt><trkpt lat="45.9500964" lon="13.7696964"><ele>928.5</ele><time>2026-04-08T10:02:17.199Z</time></trkpt><trkpt lat="45.9502087" lon="13.7695582"><ele>928.75</ele><time>2026-04-08T10:02:18.215Z</time></trkpt><trkpt lat="45.9503181" lon="13.769444"><ele>929.0</ele><time>2026-04-08T10:02:19.208Z</time></trkpt><trkpt lat="45.9504582" lon="13.7693436"><ele>922.3333333333334</ele><time>2026-04-08T10:02:20.204Z</time></trkpt><trkpt lat="45.9506117" lon="13.7692641"><ele>915.6666666666667</ele><time>2026-04-08T10:02:21.193Z</time></trkpt><trkpt lat="45.9507796" lon="13.7691989"><ele>909.0</ele><time>2026-04-08T10:02:22.204Z</time></trkpt><trkpt lat="45.9509565" lon="13.7691455"><ele>909.0</ele><time>2026-04-08T10:02:23.207Z</time></trkpt><trkpt lat="45.9511352" lon="13.7690869"><ele>909.0</ele><time>2026-04-08T10:02:24.205Z</time></trkpt><trkpt lat="45.9513056" lon="13.7690159"><ele>909.0</ele><time>2026-04-08T10:02:25.197Z</time></trkpt><trkpt lat="45.9514682" lon="13.7689504"><ele>909.0</ele><time>2026-04-08T10:02:26.2Z</time></trkpt><trkpt lat="45.9516356" lon="13.7689018"><ele>909.0</ele><time>2026-04-08T10:02:27.204Z</time></trkpt><trkpt lat="45.9517998" lon="13.7688579"><ele>909.0</ele><time>2026-04-08T10:02:28.204Z</time></trkpt><trkpt lat="45.9519655" lon="13.7688201"><ele>911.0</ele><time>2026-04-08T10:02:29.196Z</time></trkpt><trkpt lat="45.9521311" lon="13.7687858"><ele>913.0</ele><time>2026-04-08T10:02:30.216Z</time></trkpt><trkpt lat="45.9522944" lon="13.7687529"><ele>915.0</ele><time>2026-04-08T10:02:31.199Z</time></trkpt><trkpt lat="45.9524474" lon="13.7687295"><ele>910.6666666666667</ele><time>2026-04-08T10:02:32.21Z</time></trkpt><trkpt lat="45.9525963" lon="13.7687075"><ele>906.3333333333334</ele><time>2026-04-08T10:02:33.201Z</time></trkpt><trkpt lat="45.9527468" lon="13.7686931"><ele>902.0</ele><time>2026-04-08T10:02:34.192Z</time></trkpt><trkpt lat="45.9528957" lon="13.7687114"><ele>902.0</ele><time>2026-04-08T10:02:35.191Z</time></trkpt><trkpt lat="45.9530541" lon="13.7687518"><ele>902.0</ele><time>2026-04-08T10:02:36.205Z</time></trkpt><trkpt lat="45.9532182" lon="13.7688056"><ele>902.0</ele><time>2026-04-08T10:02:37.203Z</time></trkpt><trkpt lat="45.953377" lon="13.76887"><ele>903.3333333333334</ele><time>2026-04-08T10:02:38.203Z</time></trkpt><trkpt lat="45.9535325" lon="13.7689246"><ele>904.6666666666667</ele><time>2026-04-08T10:02:39.193Z</time></trkpt><trkpt lat="45.9536894" lon="13.7689601"><ele>906.0</ele><time>2026-04-08T10:02:40.197Z</time></trkpt><trkpt lat="45.9538424" lon="13.7689658"><ele>906.0</ele><time>2026-04-08T10:02:41.199Z</time></trkpt><trkpt lat="45.9540099" lon="13.7689587"><ele>906.0</ele><time>2026-04-08T10:02:42.216Z</time></trkpt><trkpt lat="45.9541778" lon="13.7689407"><ele>906.0</ele><time>2026-04-08T10:02:43.208Z</time></trkpt><trkpt lat="45.9543407" lon="13.7689268"><ele>906.5</ele><time>2026-04-08T10:02:44.196Z</time></trkpt><trkpt lat="45.9544991" lon="13.7689069"><ele>907.0</ele><time>2026-04-08T10:02:45.213Z</time></trkpt><trkpt lat="45.9546401" lon="13.7688884"><ele>907.5</ele><time>2026-04-08T10:02:46.197Z</time></trkpt><trkpt lat="45.9547582" lon="13.7688625"><ele>908.0</ele><time>2026-04-08T10:02:47.204Z</time></trkpt><trkpt lat="45.9548693" lon="13.7687933"><ele>908.0</ele><time>2026-04-08T10:02:48.197Z</time></trkpt><trkpt lat="45.9549748" lon="13.7686385"><ele>908.0</ele><time>2026-04-08T10:02:49.217Z</time></trkpt><trkpt lat="45.9550964" lon="13.7684757"><ele>908.0</ele><time>2026-04-08T10:02:50.202Z</time></trkpt><trkpt lat="45.9552212" lon="13.7683012"><ele>905.6666666666667</ele><time>2026-04-08T10:02:51.199Z</time></trkpt><trkpt lat="45.9553425" lon="13.7681344"><ele>903.3333333333333</ele><time>2026-04-08T10:02:52.207Z</time></trkpt><trkpt lat="45.9554686" lon="13.7679859"><ele>901.0</ele><time>2026-04-08T10:02:53.202Z</time></trkpt><trkpt lat="45.9556153" lon="13.7678655"><ele>901.0</ele><time>2026-04-08T10:02:54.195Z</time></trkpt><trkpt lat="45.9557604" lon="13.7677611"><ele>901.0</ele><time>2026-04-08T10:02:55.191Z</time></trkpt><trkpt lat="45.9559084" lon="13.7676645"><ele>901.0</ele><time>2026-04-08T10:02:56.196Z</time></trkpt><trkpt lat="45.9560517" lon="13.7675895"><ele>900.25</ele><time>2026-04-08T10:02:57.2Z</time></trkpt><trkpt lat="45.9561877" lon="13.7675179"><ele>899.5</ele><time>2026-04-08T10:02:58.223Z</time></trkpt><trkpt lat="45.956328" lon="13.7674459"><ele>898.75</ele><time>2026-04-08T10:02:59.196Z</time></trkpt><trkpt lat="45.9564651" lon="13.7673993"><ele>898.0</ele><time>2026-04-08T10:03:00.197Z</time></trkpt><trkpt lat="45.956599" lon="13.7673689"><ele>897.75</ele><time>2026-04-08T10:03:01.208Z</time></trkpt><trkpt lat="45.9567212" lon="13.7672881"><ele>897.5</ele><time>2026-04-08T10:03:02.207Z</time></trkpt><trkpt lat="45.9568142" lon="13.767152"><ele>897.25</ele><time>2026-04-08T10:03:03.201Z</time></trkpt><trkpt lat="45.9568826" lon="13.7669909"><ele>897.0</ele><time>2026-04-08T10:03:04.206Z</time></trkpt><trkpt lat="45.9569638" lon="13.7668267"><ele>895.0</ele><time>2026-04-08T10:03:05.205Z</time></trkpt><trkpt lat="45.9570494" lon="13.7666633"><ele>893.0</ele><time>2026-04-08T10:03:06.216Z</time></trkpt><trkpt lat="45.9571498" lon="13.7665047"><ele>891.0</ele><time>2026-04-08T10:03:07.195Z</time></trkpt><trkpt lat="45.9572625" lon="13.7663736"><ele>889.0</ele><time>2026-04-08T10:03:08.19Z</time></trkpt><trkpt lat="45.9573811" lon="13.7662882"><ele>889.0</ele><time>2026-04-08T10:03:09.204Z</time></trkpt><trkpt lat="45.957516" lon="13.7662355"><ele>889.0</ele><time>2026-04-08T10:03:10.201Z</time></trkpt><trkpt lat="45.9576365" lon="13.7661654"><ele>889.0</ele><time>2026-04-08T10:03:11.196Z</time></trkpt><trkpt lat="45.9577285" lon="13.7660717"><ele>889.0</ele><time>2026-04-08T10:03:12.195Z</time></trkpt><trkpt lat="45.9578154" lon="13.765951"><ele>889.0</ele><time>2026-04-08T10:03:13.199Z</time></trkpt><trkpt lat="45.9579125" lon="13.7658191"><ele>889.0</ele><time>2026-04-08T10:03:14.198Z</time></trkpt><trkpt lat="45.9580204" lon="13.7656625"><ele>889.0</ele><time>2026-04-08T10:03:15.197Z</time></trkpt><trkpt lat="45.9581298" lon="13.7654981"><ele>889.0</ele><time>2026-04-08T10:03:16.202Z</time></trkpt><trkpt lat="45.9582457" lon="13.7653199"><ele>889.0</ele><time>2026-04-08T10:03:17.211Z</time></trkpt><trkpt lat="45.9583534" lon="13.7651326"><ele>889.0</ele><time>2026-04-08T10:03:18.204Z</time></trkpt><trkpt lat="45.9584602" lon="13.7649547"><ele>889.0</ele><time>2026-04-08T10:03:19.188Z</time></trkpt><trkpt lat="45.9585428" lon="13.7647781"><ele>889.25</ele><time>2026-04-08T10:03:20.205Z</time></trkpt><trkpt lat="45.9586015" lon="13.7646212"><ele>889.5</ele><time>2026-04-08T10:03:21.211Z</time></trkpt><trkpt lat="45.9586443" lon="13.7644725"><ele>889.75</ele><time>2026-04-08T10:03:22.2Z</time></trkpt><trkpt lat="45.9586515" lon="13.7643053"><ele>890.0</ele><time>2026-04-08T10:03:23.201Z</time></trkpt><trkpt lat="45.9586414" lon="13.7641327"><ele>890.0</ele><time>2026-04-08T10:03:24.223Z</time></trkpt><trkpt lat="45.9586399" lon="13.7639376"><ele>890.0</ele><time>2026-04-08T10:03:25.194Z</time></trkpt><trkpt lat="45.958644" lon="13.7637148"><ele>890.0</ele><time>2026-04-08T10:03:26.197Z</time></trkpt><trkpt lat="45.9586556" lon="13.7635082"><ele>890.0</ele><time>2026-04-08T10:03:27.197Z</time></trkpt><trkpt lat="45.9586878" lon="13.7633183"><ele>888.75</ele><time>2026-04-08T10:03:28.213Z</time></trkpt><trkpt lat="45.9587464" lon="13.763158"><ele>887.5</ele><time>2026-04-08T10:03:29.231Z</time></trkpt><trkpt lat="45.9588272" lon="13.7630446"><ele>886.25</ele><time>2026-04-08T10:03:30.211Z</time></trkpt><trkpt lat="45.9589239" lon="13.7629684"><ele>885.0</ele><time>2026-04-08T10:03:31.218Z</time></trkpt><trkpt lat="45.9590268" lon="13.7629125"><ele>885.0</ele><time>2026-04-08T10:03:32.205Z</time></trkpt><trkpt lat="45.9591352" lon="13.7628449"><ele>885.0</ele><time>2026-04-08T10:03:33.206Z</time></trkpt><trkpt lat="45.9592377" lon="13.7627003"><ele>885.0</ele><time>2026-04-08T10:03:34.2Z</time></trkpt><trkpt lat="45.9593434" lon="13.7625306"><ele>885.0</ele><time>2026-04-08T10:03:35.214Z</time></trkpt><trkpt lat="45.959463" lon="13.7623627"><ele>883.75</ele><time>2026-04-08T10:03:36.196Z</time></trkpt><trkpt lat="45.9595848" lon="13.7622138"><ele>882.5</ele><time>2026-04-08T10:03:37.222Z</time></trkpt><trkpt lat="45.9597004" lon="13.7621019"><ele>881.25</ele><time>2026-04-08T10:03:38.205Z</time></trkpt><trkpt lat="45.9598228" lon="13.762038"><ele>880.0</ele><time>2026-04-08T10:03:39.203Z</time></trkpt><trkpt lat="45.9599592" lon="13.7620245"><ele>881.0</ele><time>2026-04-08T10:03:40.207Z</time></trkpt><trkpt lat="45.9600958" lon="13.7620193"><ele>882.0</ele><time>2026-04-08T10:03:41.216Z</time></trkpt><trkpt lat="45.960225" lon="13.7620028"><ele>883.0</ele><time>2026-04-08T10:03:42.207Z</time></trkpt><trkpt lat="45.9603368" lon="13.7619714"><ele>884.0</ele><time>2026-04-08T10:03:43.211Z</time></trkpt><trkpt lat="45.9604162" lon="13.7618478"><ele>884.0</ele><time>2026-04-08T10:03:44.206Z</time></trkpt><trkpt lat="45.960483" lon="13.7616959"><ele>884.0</ele><time>2026-04-08T10:03:45.197Z</time></trkpt><trkpt lat="45.9605598" lon="13.7615292"><ele>884.0</ele><time>2026-04-08T10:03:46.195Z</time></trkpt><trkpt lat="45.9606694" lon="13.7613496"><ele>884.0</ele><time>2026-04-08T10:03:47.199Z</time></trkpt><trkpt lat="45.9607806" lon="13.761185"><ele>881.0</ele><time>2026-04-08T10:03:48.199Z</time></trkpt><trkpt lat="45.9608925" lon="13.761018"><ele>878.0</ele><time>2026-04-08T10:03:49.217Z</time></trkpt><trkpt lat="45.9610059" lon="13.760897"><ele>875.0</ele><time>2026-04-08T10:03:50.2Z</time></trkpt><trkpt lat="45.9611261" lon="13.7608377"><ele>872.0</ele><time>2026-04-08T10:03:51.197Z</time></trkpt><trkpt lat="45.9612571" lon="13.7608128"><ele>872.0</ele><time>2026-04-08T10:03:52.193Z</time></trkpt><trkpt lat="45.9613883" lon="13.7607844"><ele>872.0</ele><time>2026-04-08T10:03:53.222Z</time></trkpt><trkpt lat="45.9615168" lon="13.7607646"><ele>872.0</ele><time>2026-04-08T10:03:54.197Z</time></trkpt><trkpt lat="45.9616398" lon="13.7607259"><ele>872.0</ele><time>2026-04-08T10:03:55.198Z</time></trkpt><trkpt lat="45.9617552" lon="13.7606589"><ele>877.3333333333334</ele><time>2026-04-08T10:03:56.194Z</time></trkpt><trkpt lat="45.9618815" lon="13.7605589"><ele>882.6666666666667</ele><time>2026-04-08T10:03:57.193Z</time></trkpt><trkpt lat="45.9620131" lon="13.7604341"><ele>888.0</ele><time>2026-04-08T10:03:58.197Z</time></trkpt><trkpt lat="45.9621381" lon="13.7602996"><ele>883.0</ele><time>2026-04-08T10:03:59.19Z</time></trkpt><trkpt lat="45.9622606" lon="13.7601622"><ele>878.0</ele><time>2026-04-08T10:04:00.203Z</time></trkpt><trkpt lat="45.9623703" lon="13.7600119"><ele>873.0</ele><time>2026-04-08T10:04:01.208Z</time></trkpt><trkpt lat="45.9624482" lon="13.7598477"><ele>868.0</ele><time>2026-04-08T10:04:02.212Z</time></trkpt><trkpt lat="45.9625076" lon="13.7596728"><ele>868.0</ele><time>2026-04-08T10:04:03.2Z</time></trkpt><trkpt lat="45.9625776" lon="13.7595188"><ele>868.0</ele><time>2026-04-08T10:04:04.201Z</time></trkpt><trkpt lat="45.9626727" lon="13.7594115"><ele>868.0</ele><time>2026-04-08T10:04:05.213Z</time></trkpt><trkpt lat="45.9627794" lon="13.7593096"><ele>868.0</ele><time>2026-04-08T10:04:06.219Z</time></trkpt><trkpt lat="45.9628798" lon="13.7592062"><ele>868.0</ele><time>2026-04-08T10:04:07.196Z</time></trkpt><trkpt lat="45.9629571" lon="13.7590687"><ele>868.0</ele><time>2026-04-08T10:04:08.201Z</time></trkpt><trkpt lat="45.9630114" lon="13.7588906"><ele>868.0</ele><time>2026-04-08T10:04:09.207Z</time></trkpt><trkpt lat="45.9630579" lon="13.7586967"><ele>868.0</ele><time>2026-04-08T10:04:10.199Z</time></trkpt><trkpt lat="45.9631052" lon="13.7585006"><ele>865.5</ele><time>2026-04-08T10:04:11.188Z</time></trkpt><trkpt lat="45.9631465" lon="13.7583067"><ele>863.0</ele><time>2026-04-08T10:04:12.21Z</time></trkpt><trkpt lat="45.9631885" lon="13.7581311"><ele>860.5</ele><time>2026-04-08T10:04:13.212Z</time></trkpt><trkpt lat="45.963246" lon="13.7579731"><ele>858.0</ele><time>2026-04-08T10:04:14.197Z</time></trkpt><trkpt lat="45.9633312" lon="13.7578405"><ele>858.0</ele><time>2026-04-08T10:04:15.192Z</time></trkpt><trkpt lat="45.9634504" lon="13.7577429"><ele>858.0</ele><time>2026-04-08T10:04:16.198Z</time></trkpt><trkpt lat="45.9635878" lon="13.7576803"><ele>858.0</ele><time>2026-04-08T10:04:17.202Z</time></trkpt><trkpt lat="45.9637244" lon="13.7576218"><ele>858.0</ele><time>2026-04-08T10:04:18.199Z</time></trkpt><trkpt lat="45.9638599" lon="13.757563"><ele>858.0</ele><time>2026-04-08T10:04:19.205Z</time></trkpt><trkpt lat="45.9639876" lon="13.7574879"><ele>858.0</ele><time>2026-04-08T10:04:20.195Z</time></trkpt><trkpt lat="45.9641179" lon="13.7573618"><ele>858.0</ele><time>2026-04-08T10:04:21.206Z</time></trkpt><trkpt lat="45.9642567" lon="13.7572113"><ele>858.0</ele><time>2026-04-08T10:04:22.203Z</time></trkpt><trkpt lat="45.9644015" lon="13.7570488"><ele>858.0</ele><time>2026-04-08T10:04:23.199Z</time></trkpt><trkpt lat="45.9645442" lon="13.7568797"><ele>858.0</ele><time>2026-04-08T10:04:24.228Z</time></trkpt><trkpt lat="45.9646772" lon="13.7566996"><ele>855.3333333333333</ele><time>2026-04-08T10:04:25.201Z</time></trkpt><trkpt lat="45.9648036" lon="13.7565061"><ele>852.6666666666666</ele><time>2026-04-08T10:04:26.196Z</time></trkpt><trkpt lat="45.9649228" lon="13.756302"><ele>850.0</ele><time>2026-04-08T10:04:27.205Z</time></trkpt><trkpt lat="45.9650451" lon="13.7561114"><ele>846.3333333333333</ele><time>2026-04-08T10:04:28.193Z</time></trkpt><trkpt lat="45.9651656" lon="13.7559315"><ele>842.6666666666667</ele><time>2026-04-08T10:04:29.205Z</time></trkpt><trkpt lat="45.965274" lon="13.7557589"><ele>839.0</ele><time>2026-04-08T10:04:30.2Z</time></trkpt><trkpt lat="45.9653564" lon="13.7555754"><ele>839.0</ele><time>2026-04-08T10:04:31.197Z</time></trkpt><trkpt lat="45.9654036" lon="13.755401"><ele>839.0</ele><time>2026-04-08T10:04:32.206Z</time></trkpt><trkpt lat="45.9654474" lon="13.7552411"><ele>839.0</ele><time>2026-04-08T10:04:33.194Z</time></trkpt><trkpt lat="45.9655195" lon="13.7551034"><ele>839.0</ele><time>2026-04-08T10:04:34.198Z</time></trkpt><trkpt lat="45.9656206" lon="13.7550009"><ele>836.5</ele><time>2026-04-08T10:04:35.195Z</time></trkpt><trkpt lat="45.9657526" lon="13.754933"><ele>834.0</ele><time>2026-04-08T10:04:36.209Z</time></trkpt><trkpt lat="45.9658795" lon="13.7548867"><ele>831.5</ele><time>2026-04-08T10:04:37.21Z</time></trkpt><trkpt lat="45.9659879" lon="13.7548608"><ele>829.0</ele><time>2026-04-08T10:04:38.225Z</time></trkpt><trkpt lat="45.9660853" lon="13.7548848"><ele>827.5</ele><time>2026-04-08T10:04:39.205Z</time></trkpt><trkpt lat="45.9661819" lon="13.7549491"><ele>826.0</ele><time>2026-04-08T10:04:40.205Z</time></trkpt><trkpt lat="45.9662814" lon="13.7550345"><ele>824.5</ele><time>2026-04-08T10:04:41.205Z</time></trkpt><trkpt lat="45.9663832" lon="13.7551008"><ele>823.0</ele><time>2026-04-08T10:04:42.193Z</time></trkpt><trkpt lat="45.9665061" lon="13.7551292"><ele>823.0</ele><time>2026-04-08T10:04:43.186Z</time></trkpt><trkpt lat="45.9666369" lon="13.755115"><ele>823.0</ele><time>2026-04-08T10:04:44.19Z</time></trkpt><trkpt lat="45.966765" lon="13.7551028"><ele>823.0</ele><time>2026-04-08T10:04:45.211Z</time></trkpt><trkpt lat="45.9668861" lon="13.7551098"><ele>823.0</ele><time>2026-04-08T10:04:46.189Z</time></trkpt><trkpt lat="45.966992" lon="13.7551519"><ele>822.8</ele><time>2026-04-08T10:04:47.224Z</time></trkpt><trkpt lat="45.9670781" lon="13.7552133"><ele>822.5999999999999</ele><time>2026-04-08T10:04:48.215Z</time></trkpt><trkpt lat="45.9671535" lon="13.7552735"><ele>822.4000000000001</ele><time>2026-04-08T10:04:49.195Z</time></trkpt><trkpt lat="45.9672283" lon="13.7552929"><ele>822.2</ele><time>2026-04-08T10:04:50.2Z</time></trkpt><trkpt lat="45.967328" lon="13.7552615"><ele>822.0</ele><time>2026-04-08T10:04:52.209Z</time></trkpt><trkpt lat="45.967393" lon="13.7551595"><ele>822.0</ele><time>2026-04-08T10:04:54.209Z</time></trkpt><trkpt lat="45.9674334" lon="13.7550582"><ele>822.0</ele><time>2026-04-08T10:04:56.206Z</time></trkpt><trkpt lat="45.9674826" lon="13.7549813"><ele>822.0</ele><time>2026-04-08T10:04:59.199Z</time></trkpt><trkpt lat="45.9675654" lon="13.7548376"><ele>822.0</ele><time>2026-04-08T10:05:24.19Z</time></trkpt><trkpt lat="45.9676469" lon="13.7547305"><ele>822.0</ele><time>2026-04-08T10:05:25.189Z</time></trkpt><trkpt lat="45.9677436" lon="13.7546089"><ele>822.75</ele><time>2026-04-08T10:05:26.201Z</time></trkpt><trkpt lat="45.9678602" lon="13.7545"><ele>823.5</ele><time>2026-04-08T10:05:27.181Z</time></trkpt><trkpt lat="45.9679808" lon="13.7543866"><ele>824.25</ele><time>2026-04-08T10:05:28.181Z</time></trkpt><trkpt lat="45.968102" lon="13.7542396"><ele>825.0</ele><time>2026-04-08T10:05:29.194Z</time></trkpt><trkpt lat="45.9682147" lon="13.7540987"><ele>822.3333333333333</ele><time>2026-04-08T10:05:30.198Z</time></trkpt><trkpt lat="45.9683486" lon="13.7539834"><ele>819.6666666666666</ele><time>2026-04-08T10:05:31.185Z</time></trkpt><trkpt lat="45.9685051" lon="13.7538925"><ele>817.0</ele><time>2026-04-08T10:05:32.189Z</time></trkpt><trkpt lat="45.9686812" lon="13.7538298"><ele>814.0</ele><time>2026-04-08T10:05:33.196Z</time></trkpt><trkpt lat="45.9688579" lon="13.7537942"><ele>811.0</ele><time>2026-04-08T10:05:34.193Z</time></trkpt><trkpt lat="45.9690195" lon="13.7537443"><ele>808.0</ele><time>2026-04-08T10:05:35.201Z</time></trkpt><trkpt lat="45.9691686" lon="13.753664"><ele>808.5</ele><time>2026-04-08T10:05:36.21Z</time></trkpt><trkpt lat="45.9693113" lon="13.7535551"><ele>809.0</ele><time>2026-04-08T10:05:37.203Z</time></trkpt><trkpt lat="45.9695842" lon="13.7533016"><ele>809.0</ele><time>2026-04-08T10:05:39.18Z</time></trkpt><trkpt lat="45.9696822" lon="13.7531783"><ele>809.0</ele><time>2026-04-08T10:05:40.197Z</time></trkpt><trkpt lat="45.9697574" lon="13.7530349"><ele>809.0</ele><time>2026-04-08T10:05:41.193Z</time></trkpt><trkpt lat="45.9698364" lon="13.7528551"><ele>809.0</ele><time>2026-04-08T10:05:42.194Z</time></trkpt><trkpt lat="45.9699256" lon="13.752665"><ele>808.75</ele><time>2026-04-08T10:05:43.195Z</time></trkpt><trkpt lat="45.9700083" lon="13.752491"><ele>808.5</ele><time>2026-04-08T10:05:44.199Z</time></trkpt><trkpt lat="45.9700813" lon="13.7523286"><ele>808.25</ele><time>2026-04-08T10:05:45.225Z</time></trkpt><trkpt lat="45.9701149" lon="13.7521246"><ele>808.0</ele><time>2026-04-08T10:05:46.203Z</time></trkpt><trkpt lat="45.9701361" lon="13.7518834"><ele>804.6666666666666</ele><time>2026-04-08T10:05:47.19Z</time></trkpt><trkpt lat="45.9701632" lon="13.7516374"><ele>801.3333333333333</ele><time>2026-04-08T10:05:48.184Z</time></trkpt><trkpt lat="45.9702363" lon="13.7514198"><ele>798.0</ele><time>2026-04-08T10:05:49.194Z</time></trkpt><trkpt lat="45.9703565" lon="13.7512414"><ele>798.0</ele><time>2026-04-08T10:05:50.198Z</time></trkpt><trkpt lat="45.9704664" lon="13.7510726"><ele>798.0</ele><time>2026-04-08T10:05:51.2Z</time></trkpt><trkpt lat="45.970557" lon="13.750864"><ele>798.0</ele><time>2026-04-08T10:05:52.199Z</time></trkpt><trkpt lat="45.9706284" lon="13.7506369"><ele>799.0</ele><time>2026-04-08T10:05:53.19Z</time></trkpt><trkpt lat="45.9707283" lon="13.7504317"><ele>800.0</ele><time>2026-04-08T10:05:54.192Z</time></trkpt><trkpt lat="45.9708597" lon="13.7502423"><ele>801.0</ele><time>2026-04-08T10:05:55.204Z</time></trkpt><trkpt lat="45.9710081" lon="13.7500677"><ele>798.3333333333333</ele><time>2026-04-08T10:05:56.202Z</time></trkpt><trkpt lat="45.9711648" lon="13.7499171"><ele>795.6666666666666</ele><time>2026-04-08T10:05:57.206Z</time></trkpt><trkpt lat="45.9713361" lon="13.7498078"><ele>793.0</ele><time>2026-04-08T10:05:58.217Z</time></trkpt><trkpt lat="45.971508" lon="13.7497333"><ele>793.0</ele><time>2026-04-08T10:05:59.19Z</time></trkpt><trkpt lat="45.9716576" lon="13.749647"><ele>793.0</ele><time>2026-04-08T10:06:00.193Z</time></trkpt><trkpt lat="45.9717843" lon="13.7495333"><ele>793.0</ele><time>2026-04-08T10:06:01.202Z</time></trkpt><trkpt lat="45.97189" lon="13.7493827"><ele>793.0</ele><time>2026-04-08T10:06:02.206Z</time></trkpt><trkpt lat="45.9719543" lon="13.749158"><ele>793.0</ele><time>2026-04-08T10:06:03.21Z</time></trkpt><trkpt lat="45.9719979" lon="13.7488974"><ele>793.0</ele><time>2026-04-08T10:06:04.183Z</time></trkpt><trkpt lat="45.9720317" lon="13.7486303"><ele>791.0</ele><time>2026-04-08T10:06:05.187Z</time></trkpt><trkpt lat="45.9720835" lon="13.7483667"><ele>789.0</ele><time>2026-04-08T10:06:06.208Z</time></trkpt><trkpt lat="45.9721454" lon="13.7481061"><ele>787.0</ele><time>2026-04-08T10:06:07.181Z</time></trkpt><trkpt lat="45.9722242" lon="13.7478667"><ele>786.6666666666666</ele><time>2026-04-08T10:06:08.195Z</time></trkpt><trkpt lat="45.9723114" lon="13.747618"><ele>786.3333333333333</ele><time>2026-04-08T10:06:09.19Z</time></trkpt><trkpt lat="45.9724027" lon="13.7473795"><ele>786.0</ele><time>2026-04-08T10:06:10.19Z</time></trkpt><trkpt lat="45.9724753" lon="13.7471458"><ele>786.0</ele><time>2026-04-08T10:06:11.18Z</time></trkpt><trkpt lat="45.9725215" lon="13.7469191"><ele>786.0</ele><time>2026-04-08T10:06:12.194Z</time></trkpt><trkpt lat="45.9725637" lon="13.7467064"><ele>786.0</ele><time>2026-04-08T10:06:13.193Z</time></trkpt><trkpt lat="45.9726026" lon="13.7465251"><ele>784.0</ele><time>2026-04-08T10:06:14.202Z</time></trkpt><trkpt lat="45.9726214" lon="13.7463953"><ele>782.0</ele><time>2026-04-08T10:06:15.199Z</time></trkpt><trkpt lat="45.9726228" lon="13.7462989"><ele>780.0</ele><time>2026-04-08T10:06:16.208Z</time></trkpt><trkpt lat="45.9726359" lon="13.7461935"><ele>778.0</ele><time>2026-04-08T10:06:19.211Z</time></trkpt><trkpt lat="45.9725902" lon="13.7461163"><ele>776.0</ele><time>2026-04-08T10:06:21.193Z</time></trkpt><trkpt lat="45.9725471" lon="13.7459984"><ele>774.0</ele><time>2026-04-08T10:06:22.196Z</time></trkpt><trkpt lat="45.9725305" lon="13.7458564"><ele>775.75</ele><time>2026-04-08T10:06:23.205Z</time></trkpt><trkpt lat="45.9725048" lon="13.7456839"><ele>777.5</ele><time>2026-04-08T10:06:24.189Z</time></trkpt><trkpt lat="45.9724716" lon="13.7455025"><ele>779.25</ele><time>2026-04-08T10:06:25.206Z</time></trkpt><trkpt lat="45.972438" lon="13.7453398"><ele>781.0</ele><time>2026-04-08T10:06:26.212Z</time></trkpt><trkpt lat="45.9724005" lon="13.745196"><ele>781.0</ele><time>2026-04-08T10:06:27.191Z</time></trkpt><trkpt lat="45.972343" lon="13.7450785"><ele>781.0</ele><time>2026-04-08T10:06:28.22Z</time></trkpt><trkpt lat="45.9722675" lon="13.7449992"><ele>781.0</ele><time>2026-04-08T10:06:29.201Z</time></trkpt><trkpt lat="45.9721733" lon="13.7449392"><ele>781.0</ele><time>2026-04-08T10:06:30.19Z</time></trkpt><trkpt lat="45.9720708" lon="13.7449259"><ele>781.0</ele><time>2026-04-08T10:06:31.196Z</time></trkpt><trkpt lat="45.9719611" lon="13.7449338"><ele>781.0</ele><time>2026-04-08T10:06:32.191Z</time></trkpt><trkpt lat="45.9718458" lon="13.7449299"><ele>781.0</ele><time>2026-04-08T10:06:33.196Z</time></trkpt><trkpt lat="45.9717297" lon="13.7448992"><ele>781.0</ele><time>2026-04-08T10:06:34.188Z</time></trkpt><trkpt lat="45.9716301" lon="13.7448348"><ele>781.0</ele><time>2026-04-08T10:06:35.218Z</time></trkpt><trkpt lat="45.9715598" lon="13.7447489"><ele>781.0</ele><time>2026-04-08T10:06:36.199Z</time></trkpt><trkpt lat="45.9715098" lon="13.7446145"><ele>781.0</ele><time>2026-04-08T10:06:37.193Z</time></trkpt><trkpt lat="45.9714875" lon="13.744453"><ele>781.0</ele><time>2026-04-08T10:06:38.198Z</time></trkpt><trkpt lat="45.9714898" lon="13.7442771"><ele>781.0</ele><time>2026-04-08T10:06:39.199Z</time></trkpt><trkpt lat="45.97151" lon="13.7440916"><ele>781.0</ele><time>2026-04-08T10:06:40.204Z</time></trkpt><trkpt lat="45.9715353" lon="13.7438968"><ele>781.4</ele><time>2026-04-08T10:06:41.22Z</time></trkpt><trkpt lat="45.9715701" lon="13.7437155"><ele>781.8</ele><time>2026-04-08T10:06:42.195Z</time></trkpt><trkpt lat="45.9716192" lon="13.7435602"><ele>782.1999999999999</ele><time>2026-04-08T10:06:43.189Z</time></trkpt><trkpt lat="45.9716856" lon="13.7434304"><ele>782.5999999999999</ele><time>2026-04-08T10:06:44.2Z</time></trkpt><trkpt lat="45.9717435" lon="13.7433479"><ele>783.0</ele><time>2026-04-08T10:06:45.196Z</time></trkpt><trkpt lat="45.9717908" lon="13.7432683"><ele>783.0</ele><time>2026-04-08T10:06:47.177Z</time></trkpt><trkpt lat="45.9718383" lon="13.7431887"><ele>783.0</ele><time>2026-04-08T10:06:54.191Z</time></trkpt><trkpt lat="45.9717764" lon="13.7432622"><ele>783.0</ele><time>2026-04-08T10:07:05.19Z</time></trkpt><trkpt lat="45.9717999" lon="13.7433917"><ele>783.0</ele><time>2026-04-08T10:07:07.189Z</time></trkpt><trkpt lat="45.9719165" lon="13.7434605"><ele>783.0</ele><time>2026-04-08T10:07:09.203Z</time></trkpt><trkpt lat="45.9719945" lon="13.7434854"><ele>783.0</ele><time>2026-04-08T10:07:10.192Z</time></trkpt><trkpt lat="45.9720768" lon="13.7435181"><ele>783.0</ele><time>2026-04-08T10:07:11.203Z</time></trkpt><trkpt lat="45.9721586" lon="13.7435559"><ele>783.0</ele><time>2026-04-08T10:07:12.199Z</time></trkpt><trkpt lat="45.9722373" lon="13.7435916"><ele>783.0</ele><time>2026-04-08T10:07:13.195Z</time></trkpt><trkpt lat="45.9723174" lon="13.7435982"><ele>783.0</ele><time>2026-04-08T10:07:14.199Z</time></trkpt><trkpt lat="45.9724005" lon="13.7435746"><ele>783.0</ele><time>2026-04-08T10:07:15.181Z</time></trkpt><trkpt lat="45.9724814" lon="13.7435423"><ele>783.1666666666666</ele><time>2026-04-08T10:07:16.186Z</time></trkpt><trkpt lat="45.972559" lon="13.7435224"><ele>783.3333333333333</ele><time>2026-04-08T10:07:17.205Z</time></trkpt><trkpt lat="45.9726307" lon="13.7435041"><ele>783.5</ele><time>2026-04-08T10:07:18.191Z</time></trkpt><trkpt lat="45.9726942" lon="13.7434896"><ele>783.6666666666666</ele><time>2026-04-08T10:07:19.195Z</time></trkpt><trkpt lat="45.9728022" lon="13.7434237"><ele>783.8333333333333</ele><time>2026-04-08T10:07:21.185Z</time></trkpt><trkpt lat="45.9728473" lon="13.7433491"><ele>784.0</ele><time>2026-04-08T10:07:22.203Z</time></trkpt><trkpt lat="45.972899" lon="13.7432785"><ele>784.0</ele><time>2026-04-08T10:07:23.183Z</time></trkpt><trkpt lat="45.9729494" lon="13.7432034"><ele>784.0</ele><time>2026-04-08T10:07:24.205Z</time></trkpt><trkpt lat="45.9729963" lon="13.7431393"><ele>784.0</ele><time>2026-04-08T10:07:25.196Z</time></trkpt><trkpt lat="45.9730634" lon="13.7430577"><ele>784.0</ele><time>2026-04-08T10:07:27.196Z</time></trkpt><trkpt lat="45.9732277" lon="13.7430006"><ele>784.0</ele><time>2026-04-08T10:07:30.229Z</time></trkpt><trkpt lat="45.9733112" lon="13.7429712"><ele>784.0</ele><time>2026-04-08T10:07:33.191Z</time></trkpt><trkpt lat="45.9733328" lon="13.7428482"><ele>784.0</ele><time>2026-04-08T10:07:35.191Z</time></trkpt><trkpt lat="45.9733244" lon="13.7426617"><ele>784.0</ele><time>2026-04-08T10:07:37.179Z</time></trkpt><trkpt lat="45.9733146" lon="13.7425587"><ele>784.0</ele><time>2026-04-08T10:07:38.198Z</time></trkpt><trkpt lat="45.9733093" lon="13.7424576"><ele>784.0</ele><time>2026-04-08T10:07:39.21Z</time></trkpt><trkpt lat="45.9733037" lon="13.7423122"><ele>783.4000000000001</ele><time>2026-04-08T10:07:41.209Z</time></trkpt><trkpt lat="45.9732581" lon="13.7422126"><ele>782.8</ele><time>2026-04-08T10:08:16.222Z</time></trkpt><trkpt lat="45.9732084" lon="13.7421505"><ele>782.2</ele><time>2026-04-08T10:08:17.231Z</time></trkpt><trkpt lat="45.9731446" lon="13.7420684"><ele>781.5999999999999</ele><time>2026-04-08T10:08:18.234Z</time></trkpt><trkpt lat="45.9730753" lon="13.7419424"><ele>781.0</ele><time>2026-04-08T10:08:19.219Z</time></trkpt><trkpt lat="45.9729985" lon="13.7417821"><ele>781.0</ele><time>2026-04-08T10:08:20.193Z</time></trkpt><trkpt lat="45.9729148" lon="13.7416159"><ele>781.0</ele><time>2026-04-08T10:08:21.248Z</time></trkpt><trkpt lat="45.9728217" lon="13.741449"><ele>781.0</ele><time>2026-04-08T10:08:22.204Z</time></trkpt><trkpt lat="45.9727298" lon="13.7412816"><ele>781.0</ele><time>2026-04-08T10:08:23.213Z</time></trkpt><trkpt lat="45.9726345" lon="13.741121"><ele>781.6666666666666</ele><time>2026-04-08T10:08:24.207Z</time></trkpt><trkpt lat="45.9725468" lon="13.7409429"><ele>782.3333333333333</ele><time>2026-04-08T10:08:25.234Z</time></trkpt><trkpt lat="45.9724756" lon="13.7407679"><ele>783.0</ele><time>2026-04-08T10:08:26.219Z</time></trkpt><trkpt lat="45.9723373" lon="13.7404223"><ele>783.75</ele><time>2026-04-08T10:08:28.215Z</time></trkpt><trkpt lat="45.9722887" lon="13.7402353"><ele>784.5</ele><time>2026-04-08T10:08:29.224Z</time></trkpt><trkpt lat="45.9722557" lon="13.7400505"><ele>785.25</ele><time>2026-04-08T10:08:30.218Z</time></trkpt><trkpt lat="45.972236" lon="13.7398616"><ele>786.0</ele><time>2026-04-08T10:08:31.218Z</time></trkpt><trkpt lat="45.9722405" lon="13.7396737"><ele>786.0</ele><time>2026-04-08T10:08:32.227Z</time></trkpt><trkpt lat="45.9722757" lon="13.7394878"><ele>786.0</ele><time>2026-04-08T10:08:33.202Z</time></trkpt><trkpt lat="45.9723318" lon="13.7393081"><ele>786.0</ele><time>2026-04-08T10:08:34.204Z</time></trkpt><trkpt lat="45.9723978" lon="13.7391154"><ele>786.0</ele><time>2026-04-08T10:08:35.215Z</time></trkpt><trkpt lat="45.9724712" lon="13.7389166"><ele>786.3333333333333</ele><time>2026-04-08T10:08:36.219Z</time></trkpt><trkpt lat="45.9725524" lon="13.7387093"><ele>786.6666666666666</ele><time>2026-04-08T10:08:37.188Z</time></trkpt><trkpt lat="45.9726539" lon="13.7385102"><ele>787.0</ele><time>2026-04-08T10:08:38.226Z</time></trkpt><trkpt lat="45.9727649" lon="13.7383063"><ele>785.3333333333333</ele><time>2026-04-08T10:08:39.224Z</time></trkpt><trkpt lat="45.9728703" lon="13.7381014"><ele>783.6666666666667</ele><time>2026-04-08T10:08:40.213Z</time></trkpt><trkpt lat="45.9729623" lon="13.7378973"><ele>782.0</ele><time>2026-04-08T10:08:41.213Z</time></trkpt><trkpt lat="45.9730315" lon="13.7376853"><ele>781.3333333333334</ele><time>2026-04-08T10:08:42.216Z</time></trkpt><trkpt lat="45.9730599" lon="13.737467"><ele>780.6666666666667</ele><time>2026-04-08T10:08:43.198Z</time></trkpt><trkpt lat="45.9730559" lon="13.7372413"><ele>780.0</ele><time>2026-04-08T10:08:44.189Z</time></trkpt><trkpt lat="45.9730058" lon="13.7370045"><ele>780.5</ele><time>2026-04-08T10:08:45.228Z</time></trkpt><trkpt lat="45.9729151" lon="13.7367845"><ele>781.0</ele><time>2026-04-08T10:08:46.218Z</time></trkpt><trkpt lat="45.9727168" lon="13.7363731"><ele>781.0</ele><time>2026-04-08T10:08:48.204Z</time></trkpt><trkpt lat="45.9726534" lon="13.7361628"><ele>781.0</ele><time>2026-04-08T10:08:49.181Z</time></trkpt><trkpt lat="45.972606" lon="13.7359303"><ele>781.0</ele><time>2026-04-08T10:08:50.211Z</time></trkpt><trkpt lat="45.9725777" lon="13.7356845"><ele>779.0</ele><time>2026-04-08T10:08:51.19Z</time></trkpt><trkpt lat="45.9725692" lon="13.7354292"><ele>777.0</ele><time>2026-04-08T10:08:52.216Z</time></trkpt><trkpt lat="45.9725868" lon="13.7351767"><ele>775.0</ele><time>2026-04-08T10:08:53.212Z</time></trkpt><trkpt lat="45.9726134" lon="13.7349348"><ele>771.0</ele><time>2026-04-08T10:08:54.211Z</time></trkpt><trkpt lat="45.9726293" lon="13.7347088"><ele>767.0</ele><time>2026-04-08T10:08:55.182Z</time></trkpt><trkpt lat="45.9725784" lon="13.7342625"><ele>765.0</ele><time>2026-04-08T10:08:57.201Z</time></trkpt><trkpt lat="45.972495" lon="13.7340471"><ele>763.0</ele><time>2026-04-08T10:08:58.207Z</time></trkpt><trkpt lat="45.9724357" lon="13.7338499"><ele>761.0</ele><time>2026-04-08T10:08:59.212Z</time></trkpt><trkpt lat="45.9724078" lon="13.7336412"><ele>761.75</ele><time>2026-04-08T10:09:00.228Z</time></trkpt><trkpt lat="45.9724338" lon="13.7334481"><ele>762.5</ele><time>2026-04-08T10:09:01.227Z</time></trkpt><trkpt lat="45.9725034" lon="13.7332661"><ele>763.25</ele><time>2026-04-08T10:09:02.211Z</time></trkpt><trkpt lat="45.9726037" lon="13.7331019"><ele>764.0</ele><time>2026-04-08T10:09:03.229Z</time></trkpt><trkpt lat="45.9727365" lon="13.7329331"><ele>760.5</ele><time>2026-04-08T10:09:04.181Z</time></trkpt><trkpt lat="45.9729766" lon="13.7325481"><ele>757.0</ele><time>2026-04-08T10:09:06.218Z</time></trkpt><trkpt lat="45.9730665" lon="13.7323"><ele>757.0</ele><time>2026-04-08T10:09:07.214Z</time></trkpt><trkpt lat="45.9731414" lon="13.7320317"><ele>757.0</ele><time>2026-04-08T10:09:08.216Z</time></trkpt><trkpt lat="45.9732126" lon="13.7317435"><ele>757.0</ele><time>2026-04-08T10:09:09.232Z</time></trkpt><trkpt lat="45.9732908" lon="13.7314462"><ele>757.3333333333334</ele><time>2026-04-08T10:09:10.211Z</time></trkpt><trkpt lat="45.9733769" lon="13.7311557"><ele>757.6666666666666</ele><time>2026-04-08T10:09:11.22Z</time></trkpt><trkpt lat="45.9734677" lon="13.7308782"><ele>758.0</ele><time>2026-04-08T10:09:12.195Z</time></trkpt><trkpt lat="45.9735705" lon="13.7306116"><ele>755.0</ele><time>2026-04-08T10:09:13.23Z</time></trkpt><trkpt lat="45.9736908" lon="13.7303693"><ele>752.0</ele><time>2026-04-08T10:09:14.211Z</time></trkpt><trkpt lat="45.9738232" lon="13.7301553"><ele>749.0</ele><time>2026-04-08T10:09:15.227Z</time></trkpt><trkpt lat="45.973946" lon="13.7299707"><ele>747.0</ele><time>2026-04-08T10:09:16.238Z</time></trkpt><trkpt lat="45.9740463" lon="13.7298133"><ele>745.0</ele><time>2026-04-08T10:09:17.209Z</time></trkpt><trkpt lat="45.9741034" lon="13.7296389"><ele>743.0</ele><time>2026-04-08T10:09:18.201Z</time></trkpt><trkpt lat="45.9741226" lon="13.7294715"><ele>741.0</ele><time>2026-04-08T10:09:19.194Z</time></trkpt><trkpt lat="45.9741228" lon="13.729309"><ele>737.5</ele><time>2026-04-08T10:09:20.192Z</time></trkpt><trkpt lat="45.974094" lon="13.7291572"><ele>734.0</ele><time>2026-04-08T10:09:21.202Z</time></trkpt><trkpt lat="45.9740496" lon="13.7290199"><ele>730.5</ele><time>2026-04-08T10:09:22.221Z</time></trkpt><trkpt lat="45.973921" lon="13.7287733"><ele>727.0</ele><time>2026-04-08T10:09:24.19Z</time></trkpt><trkpt lat="45.9738427" lon="13.728662"><ele>727.0</ele><time>2026-04-08T10:09:25.22Z</time></trkpt><trkpt lat="45.9737624" lon="13.7285646"><ele>727.0</ele><time>2026-04-08T10:09:26.214Z</time></trkpt><trkpt lat="45.9736708" lon="13.7284913"><ele>727.0</ele><time>2026-04-08T10:09:27.214Z</time></trkpt><trkpt lat="45.9735734" lon="13.7284341"><ele>727.0</ele><time>2026-04-08T10:09:28.216Z</time></trkpt><trkpt lat="45.9734763" lon="13.7283745"><ele>727.0</ele><time>2026-04-08T10:09:29.185Z</time></trkpt><trkpt lat="45.9733823" lon="13.7283114"><ele>725.6</ele><time>2026-04-08T10:09:30.212Z</time></trkpt><trkpt lat="45.9732852" lon="13.7282415"><ele>724.2</ele><time>2026-04-08T10:09:31.182Z</time></trkpt><trkpt lat="45.9731927" lon="13.72816"><ele>722.8</ele><time>2026-04-08T10:09:32.197Z</time></trkpt><trkpt lat="45.9731162" lon="13.7280631"><ele>721.4</ele><time>2026-04-08T10:09:33.211Z</time></trkpt><trkpt lat="45.9730377" lon="13.7279598"><ele>720.0</ele><time>2026-04-08T10:09:34.209Z</time></trkpt><trkpt lat="45.9729723" lon="13.7278368"><ele>718.6</ele><time>2026-04-08T10:09:35.204Z</time></trkpt><trkpt lat="45.9729055" lon="13.7277139"><ele>717.2</ele><time>2026-04-08T10:09:36.213Z</time></trkpt><trkpt lat="45.9728302" lon="13.7276016"><ele>715.8</ele><time>2026-04-08T10:09:37.201Z</time></trkpt><trkpt lat="45.9727514" lon="13.7274948"><ele>714.4</ele><time>2026-04-08T10:09:38.196Z</time></trkpt><trkpt lat="45.9726613" lon="13.7274048"><ele>713.0</ele><time>2026-04-08T10:09:39.222Z</time></trkpt><trkpt lat="45.972559" lon="13.7273362"><ele>712.5</ele><time>2026-04-08T10:09:40.192Z</time></trkpt><trkpt lat="45.9724451" lon="13.7272777"><ele>712.0</ele><time>2026-04-08T10:09:41.215Z</time></trkpt><trkpt lat="45.9734677" lon="13.7308782"><ele>721.6666666666667</ele><time>2026-04-08T10:09:12.195Z</time></trkpt><trkpt lat="45.9735705" lon="13.7306116"><ele>731.3333333333334</ele><time>2026-04-08T10:09:13.23Z</time></trkpt><trkpt lat="45.9736908" lon="13.7303693"><ele>741.0</ele><time>2026-04-08T10:09:14.211Z</time></trkpt><trkpt lat="45.9738232" lon="13.7301553"><ele>741.0</ele><time>2026-04-08T10:09:15.227Z</time></trkpt><trkpt lat="45.973946" lon="13.7299707"><ele>741.0</ele><time>2026-04-08T10:09:16.238Z</time></trkpt><trkpt lat="45.9740463" lon="13.7298133"><ele>741.0</ele><time>2026-04-08T10:09:17.209Z</time></trkpt><trkpt lat="45.9741034" lon="13.7296389"><ele>741.0</ele><time>2026-04-08T10:09:18.201Z</time></trkpt><trkpt lat="45.9741226" lon="13.7294715"><ele>741.0</ele><time>2026-04-08T10:09:19.194Z</time></trkpt><trkpt lat="45.9741228" lon="13.729309"><ele>741.0</ele><time>2026-04-08T10:09:20.192Z</time></trkpt><trkpt lat="45.974094" lon="13.7291572"><ele>741.0</ele><time>2026-04-08T10:09:21.202Z</time></trkpt><trkpt lat="45.9740496" lon="13.7290199"><ele>741.0</ele><time>2026-04-08T10:09:22.221Z</time></trkpt><trkpt lat="45.973921" lon="13.7287733"><ele>738.1999999999999</ele><time>2026-04-08T10:09:24.19Z</time></trkpt><trkpt lat="45.9738427" lon="13.728662"><ele>735.4</ele><time>2026-04-08T10:09:25.22Z</time></trkpt><trkpt lat="45.9737624" lon="13.7285646"><ele>732.6</ele><time>2026-04-08T10:09:26.214Z</time></trkpt><trkpt lat="45.9736708" lon="13.7284913"><ele>729.8</ele><time>2026-04-08T10:09:27.214Z</time></trkpt><trkpt lat="45.9735734" lon="13.7284341"><ele>727.0</ele><time>2026-04-08T10:09:28.216Z</time></trkpt><trkpt lat="45.9734763" lon="13.7283745"><ele>725.6</ele><time>2026-04-08T10:09:29.185Z</time></trkpt><trkpt lat="45.9733823" lon="13.7283114"><ele>724.2</ele><time>2026-04-08T10:09:30.212Z</time></trkpt><trkpt lat="45.9732852" lon="13.7282415"><ele>722.8</ele><time>2026-04-08T10:09:31.182Z</time></trkpt><trkpt lat="45.9731927" lon="13.72816"><ele>721.4</ele><time>2026-04-08T10:09:32.197Z</time></trkpt><trkpt lat="45.9731162" lon="13.7280631"><ele>720.0</ele><time>2026-04-08T10:09:33.211Z</time></trkpt><trkpt lat="45.9730377" lon="13.7279598"><ele>720.0</ele><time>2026-04-08T10:09:34.209Z</time></trkpt><trkpt lat="45.9729723" lon="13.7278368"><ele>720.0</ele><time>2026-04-08T10:09:35.204Z</time></trkpt><trkpt lat="45.9729055" lon="13.7277139"><ele>720.0</ele><time>2026-04-08T10:09:36.213Z</time></trkpt><trkpt lat="45.9728302" lon="13.7276016"><ele>720.0</ele><time>2026-04-08T10:09:37.201Z</time></trkpt><trkpt lat="45.9727514" lon="13.7274948"><ele>720.0</ele><time>2026-04-08T10:09:38.196Z</time></trkpt><trkpt lat="45.9726613" lon="13.7274048"><ele>718.25</ele><time>2026-04-08T10:09:39.222Z</time></trkpt><trkpt lat="45.972559" lon="13.7273362"><ele>716.5</ele><time>2026-04-08T10:09:40.192Z</time></trkpt><trkpt lat="45.9724451" lon="13.7272777"><ele>714.75</ele><time>2026-04-08T10:09:41.215Z</time></trkpt><trkpt lat="45.972326" lon="13.7272287"><ele>713.0</ele><time>2026-04-08T10:09:42.208Z</time></trkpt><trkpt lat="45.9722022" lon="13.7271686"><ele>712.75</ele><time>2026-04-08T10:09:43.213Z</time></trkpt><trkpt lat="45.9720862" lon="13.7270994"><ele>712.5</ele><time>2026-04-08T10:09:44.21Z</time></trkpt><trkpt lat="45.9719819" lon="13.7270121"><ele>712.25</ele><time>2026-04-08T10:09:45.209Z</time></trkpt><trkpt lat="45.9718892" lon="13.7269146"><ele>712.0</ele><time>2026-04-08T10:09:46.211Z</time></trkpt><trkpt lat="45.9717991" lon="13.7268114"><ele>709.6666666666667</ele><time>2026-04-08T10:09:47.183Z</time></trkpt><trkpt lat="45.9716937" lon="13.7266879"><ele>707.3333333333334</ele><time>2026-04-08T10:09:48.209Z</time></trkpt><trkpt lat="45.9715547" lon="13.7265479"><ele>705.0</ele><time>2026-04-08T10:09:49.229Z</time></trkpt><trkpt lat="45.9713954" lon="13.7264019"><ele>705.0</ele><time>2026-04-08T10:09:50.221Z</time></trkpt><trkpt lat="45.9712186" lon="13.7262578"><ele>705.0</ele><time>2026-04-08T10:09:51.215Z</time></trkpt><trkpt lat="45.9710418" lon="13.7261213"><ele>705.0</ele><time>2026-04-08T10:09:52.183Z</time></trkpt><trkpt lat="45.9708725" lon="13.7259992"><ele>702.0</ele><time>2026-04-08T10:09:53.183Z</time></trkpt><trkpt lat="45.9707238" lon="13.7259005"><ele>699.0</ele><time>2026-04-08T10:09:54.209Z</time></trkpt><trkpt lat="45.9705826" lon="13.7258059"><ele>696.0</ele><time>2026-04-08T10:09:55.176Z</time></trkpt><trkpt lat="45.9704509" lon="13.7257031"><ele>696.0</ele><time>2026-04-08T10:09:56.208Z</time></trkpt><trkpt lat="45.9703392" lon="13.7255853"><ele>696.0</ele><time>2026-04-08T10:09:57.205Z</time></trkpt><trkpt lat="45.9702635" lon="13.7254242"><ele>696.0</ele><time>2026-04-08T10:09:58.213Z</time></trkpt><trkpt lat="45.9702478" lon="13.7252262"><ele>696.0</ele><time>2026-04-08T10:09:59.194Z</time></trkpt><trkpt lat="45.9702853" lon="13.7250206"><ele>693.0</ele><time>2026-04-08T10:10:00.207Z</time></trkpt><trkpt lat="45.9703591" lon="13.7248281"><ele>690.0</ele><time>2026-04-08T10:10:01.204Z</time></trkpt><trkpt lat="45.9704706" lon="13.7246357"><ele>687.0</ele><time>2026-04-08T10:10:02.21Z</time></trkpt><trkpt lat="45.9706108" lon="13.7244305"><ele>686.6666666666666</ele><time>2026-04-08T10:10:03.221Z</time></trkpt><trkpt lat="45.9707567" lon="13.7241967"><ele>686.3333333333333</ele><time>2026-04-08T10:10:04.208Z</time></trkpt><trkpt lat="45.9709051" lon="13.7239457"><ele>686.0</ele><time>2026-04-08T10:10:05.19Z</time></trkpt><trkpt lat="45.9710399" lon="13.7236876"><ele>683.0</ele><time>2026-04-08T10:10:06.187Z</time></trkpt><trkpt lat="45.9711714" lon="13.7234298"><ele>680.0</ele><time>2026-04-08T10:10:07.205Z</time></trkpt><trkpt lat="45.9713169" lon="13.7231952"><ele>677.0</ele><time>2026-04-08T10:10:08.209Z</time></trkpt><trkpt lat="45.9714821" lon="13.7229758"><ele>677.0</ele><time>2026-04-08T10:10:09.206Z</time></trkpt><trkpt lat="45.9716658" lon="13.722764"><ele>677.0</ele><time>2026-04-08T10:10:10.205Z</time></trkpt><trkpt lat="45.9718384" lon="13.7225662"><ele>673.6666666666666</ele><time>2026-04-08T10:10:11.196Z</time></trkpt><trkpt lat="45.9720123" lon="13.7223848"><ele>670.3333333333334</ele><time>2026-04-08T10:10:12.195Z</time></trkpt><trkpt lat="45.9721838" lon="13.7222132"><ele>667.0</ele><time>2026-04-08T10:10:13.184Z</time></trkpt><trkpt lat="45.9723558" lon="13.7220543"><ele>664.0</ele><time>2026-04-08T10:10:14.209Z</time></trkpt><trkpt lat="45.9725382" lon="13.7219198"><ele>661.0</ele><time>2026-04-08T10:10:15.213Z</time></trkpt><trkpt lat="45.9727305" lon="13.7218109"><ele>658.0</ele><time>2026-04-08T10:10:16.205Z</time></trkpt><trkpt lat="45.9729278" lon="13.7216999"><ele>658.0</ele><time>2026-04-08T10:10:17.192Z</time></trkpt><trkpt lat="45.9731191" lon="13.7215711"><ele>658.0</ele><time>2026-04-08T10:10:18.196Z</time></trkpt><trkpt lat="45.9733071" lon="13.721387"><ele>658.0</ele><time>2026-04-08T10:10:19.183Z</time></trkpt><trkpt lat="45.9734956" lon="13.7211666"><ele>654.0</ele><time>2026-04-08T10:10:20.214Z</time></trkpt><trkpt lat="45.9736719" lon="13.7209126"><ele>650.0</ele><time>2026-04-08T10:10:21.209Z</time></trkpt><trkpt lat="45.9738368" lon="13.7206577"><ele>650.0</ele><time>2026-04-08T10:10:22.216Z</time></trkpt><trkpt lat="45.9739938" lon="13.720421"><ele>650.0</ele><time>2026-04-08T10:10:23.205Z</time></trkpt><trkpt lat="45.9741508" lon="13.7201985"><ele>650.0</ele><time>2026-04-08T10:10:24.206Z</time></trkpt><trkpt lat="45.9743105" lon="13.7199951"><ele>650.0</ele><time>2026-04-08T10:10:25.202Z</time></trkpt><trkpt lat="45.9744749" lon="13.7198111"><ele>650.0</ele><time>2026-04-08T10:10:26.196Z</time></trkpt><trkpt lat="45.9746427" lon="13.7196359"><ele>650.0</ele><time>2026-04-08T10:10:27.197Z</time></trkpt><trkpt lat="45.9748144" lon="13.7194704"><ele>650.3333333333333</ele><time>2026-04-08T10:10:28.199Z</time></trkpt><trkpt lat="45.9749805" lon="13.7192941"><ele>650.6666666666666</ele><time>2026-04-08T10:10:29.226Z</time></trkpt><trkpt lat="45.9751438" lon="13.719114"><ele>651.0</ele><time>2026-04-08T10:10:30.175Z</time></trkpt><trkpt lat="45.9753034" lon="13.7189255"><ele>651.0</ele><time>2026-04-08T10:10:31.181Z</time></trkpt><trkpt lat="45.9754624" lon="13.7187328"><ele>651.0</ele><time>2026-04-08T10:10:32.2Z</time></trkpt><trkpt lat="45.975614" lon="13.718538"><ele>651.0</ele><time>2026-04-08T10:10:33.215Z</time></trkpt><trkpt lat="45.9758992" lon="13.7181331"><ele>648.6666666666666</ele><time>2026-04-08T10:10:35.196Z</time></trkpt><trkpt lat="45.9760523" lon="13.7179455"><ele>646.3333333333333</ele><time>2026-04-08T10:10:36.205Z</time></trkpt><trkpt lat="45.9762183" lon="13.7177774"><ele>644.0</ele><time>2026-04-08T10:10:37.179Z</time></trkpt><trkpt lat="45.9763902" lon="13.7176185"><ele>640.6666666666666</ele><time>2026-04-08T10:10:38.205Z</time></trkpt><trkpt lat="45.9765664" lon="13.7174674"><ele>637.3333333333334</ele><time>2026-04-08T10:10:39.172Z</time></trkpt><trkpt lat="45.9767474" lon="13.717331"><ele>634.0</ele><time>2026-04-08T10:10:40.196Z</time></trkpt><trkpt lat="45.9769274" lon="13.7172017"><ele>634.0</ele><time>2026-04-08T10:10:41.205Z</time></trkpt><trkpt lat="45.9771009" lon="13.7170675"><ele>634.0</ele><time>2026-04-08T10:10:42.175Z</time></trkpt><trkpt lat="45.9772657" lon="13.7169304"><ele>634.0</ele><time>2026-04-08T10:10:43.192Z</time></trkpt><trkpt lat="45.9774294" lon="13.716781"><ele>632.0</ele><time>2026-04-08T10:10:44.193Z</time></trkpt><trkpt lat="45.9775831" lon="13.7166127"><ele>630.0</ele><time>2026-04-08T10:10:45.203Z</time></trkpt><trkpt lat="45.9777402" lon="13.7164555"><ele>628.0</ele><time>2026-04-08T10:10:46.195Z</time></trkpt><trkpt lat="45.9779079" lon="13.7163095"><ele>628.0</ele><time>2026-04-08T10:10:47.194Z</time></trkpt><trkpt lat="45.9780814" lon="13.7162035"><ele>628.0</ele><time>2026-04-08T10:10:48.209Z</time></trkpt><trkpt lat="45.9782516" lon="13.7161241"><ele>628.0</ele><time>2026-04-08T10:10:49.219Z</time></trkpt><trkpt lat="45.9784176" lon="13.7160314"><ele>624.5</ele><time>2026-04-08T10:10:50.193Z</time></trkpt><trkpt lat="45.9787166" lon="13.715706"><ele>621.0</ele><time>2026-04-08T10:10:52.207Z</time></trkpt><trkpt lat="45.9788563" lon="13.7155289"><ele>621.0</ele><time>2026-04-08T10:10:53.197Z</time></trkpt><trkpt lat="45.9790108" lon="13.7153683"><ele>621.0</ele><time>2026-04-08T10:10:54.188Z</time></trkpt><trkpt lat="45.9791754" lon="13.7152217"><ele>621.0</ele><time>2026-04-08T10:10:55.211Z</time></trkpt><trkpt lat="45.9793426" lon="13.7150748"><ele>619.3333333333334</ele><time>2026-04-08T10:10:56.185Z</time></trkpt><trkpt lat="45.9795132" lon="13.714918"><ele>617.6666666666667</ele><time>2026-04-08T10:10:57.22Z</time></trkpt><trkpt lat="45.9796822" lon="13.7147551"><ele>616.0</ele><time>2026-04-08T10:10:58.19Z</time></trkpt><trkpt lat="45.9798458" lon="13.7145912"><ele>616.0</ele><time>2026-04-08T10:10:59.204Z</time></trkpt><trkpt lat="45.9800063" lon="13.7144408"><ele>616.0</ele><time>2026-04-08T10:11:00.187Z</time></trkpt><trkpt lat="45.9801727" lon="13.7143161"><ele>616.0</ele><time>2026-04-08T10:11:01.213Z</time></trkpt><trkpt lat="45.98034" lon="13.7142127"><ele>613.6666666666667</ele><time>2026-04-08T10:11:02.202Z</time></trkpt><trkpt lat="45.9805024" lon="13.714108"><ele>611.3333333333334</ele><time>2026-04-08T10:11:03.199Z</time></trkpt><trkpt lat="45.9806494" lon="13.7139798"><ele>609.0</ele><time>2026-04-08T10:11:04.201Z</time></trkpt><trkpt lat="45.9807865" lon="13.7138189"><ele>606.6666666666666</ele><time>2026-04-08T10:11:05.199Z</time></trkpt><trkpt lat="45.9809161" lon="13.7136297"><ele>604.3333333333333</ele><time>2026-04-08T10:11:06.201Z</time></trkpt><trkpt lat="45.9810467" lon="13.713432"><ele>602.0</ele><time>2026-04-08T10:11:07.202Z</time></trkpt><trkpt lat="45.9811917" lon="13.7132509"><ele>602.0</ele><time>2026-04-08T10:11:08.194Z</time></trkpt><trkpt lat="45.9813584" lon="13.7131056"><ele>602.0</ele><time>2026-04-08T10:11:09.195Z</time></trkpt><trkpt lat="45.9816967" lon="13.7128347"><ele>594.6666666666666</ele><time>2026-04-08T10:11:11.198Z</time></trkpt><trkpt lat="45.9818666" lon="13.7127285"><ele>587.3333333333334</ele><time>2026-04-08T10:11:12.191Z</time></trkpt><trkpt lat="45.9820477" lon="13.7126519"><ele>580.0</ele><time>2026-04-08T10:11:13.188Z</time></trkpt><trkpt lat="45.9822332" lon="13.7125835"><ele>580.0</ele><time>2026-04-08T10:11:14.199Z</time></trkpt><trkpt lat="45.9824254" lon="13.7125265"><ele>580.0</ele><time>2026-04-08T10:11:15.22Z</time></trkpt><trkpt lat="45.982624" lon="13.7124688"><ele>580.0</ele><time>2026-04-08T10:11:16.201Z</time></trkpt><trkpt lat="45.9828181" lon="13.7123822"><ele>582.3333333333334</ele><time>2026-04-08T10:11:17.171Z</time></trkpt><trkpt lat="45.9830107" lon="13.7122796"><ele>584.6666666666666</ele><time>2026-04-08T10:11:18.217Z</time></trkpt><trkpt lat="45.9831998" lon="13.7121706"><ele>587.0</ele><time>2026-04-08T10:11:19.208Z</time></trkpt><trkpt lat="45.9833883" lon="13.7120639"><ele>589.0</ele><time>2026-04-08T10:11:20.197Z</time></trkpt><trkpt lat="45.983571" lon="13.7119613"><ele>591.0</ele><time>2026-04-08T10:11:21.187Z</time></trkpt><trkpt lat="45.9837505" lon="13.7118609"><ele>593.0</ele><time>2026-04-08T10:11:22.187Z</time></trkpt><trkpt lat="45.983909" lon="13.7117491"><ele>589.3333333333333</ele><time>2026-04-08T10:11:23.2Z</time></trkpt><trkpt lat="45.9840442" lon="13.7116008"><ele>585.6666666666666</ele><time>2026-04-08T10:11:24.191Z</time></trkpt><trkpt lat="45.9841577" lon="13.7114109"><ele>582.0</ele><time>2026-04-08T10:11:25.185Z</time></trkpt><trkpt lat="45.9842558" lon="13.7111936"><ele>581.0</ele><time>2026-04-08T10:11:26.181Z</time></trkpt><trkpt lat="45.9843371" lon="13.7109553"><ele>580.0</ele><time>2026-04-08T10:11:27.183Z</time></trkpt><trkpt lat="45.9844044" lon="13.7106825"><ele>579.0</ele><time>2026-04-08T10:11:28.2Z</time></trkpt><trkpt lat="45.9844478" lon="13.7103974"><ele>578.5</ele><time>2026-04-08T10:11:29.174Z</time></trkpt><trkpt lat="45.9844795" lon="13.710101"><ele>578.0</ele><time>2026-04-08T10:11:30.191Z</time></trkpt><trkpt lat="45.9845137" lon="13.7095288"><ele>575.6666666666666</ele><time>2026-04-08T10:11:32.193Z</time></trkpt><trkpt lat="45.9845362" lon="13.7092684"><ele>573.3333333333334</ele><time>2026-04-08T10:11:33.184Z</time></trkpt><trkpt lat="45.984578" lon="13.7090184"><ele>571.0</ele><time>2026-04-08T10:11:34.19Z</time></trkpt><trkpt lat="45.9846414" lon="13.7087701"><ele>567.6666666666667</ele><time>2026-04-08T10:11:35.173Z</time></trkpt><trkpt lat="45.9847198" lon="13.7085264"><ele>564.3333333333334</ele><time>2026-04-08T10:11:36.189Z</time></trkpt><trkpt lat="45.9848038" lon="13.7082798"><ele>561.0</ele><time>2026-04-08T10:11:37.189Z</time></trkpt><trkpt lat="45.9848801" lon="13.7080289"><ele>561.0</ele><time>2026-04-08T10:11:38.191Z</time></trkpt><trkpt lat="45.9849408" lon="13.7077675"><ele>561.0</ele><time>2026-04-08T10:11:39.184Z</time></trkpt><trkpt lat="45.9849929" lon="13.7075052"><ele>561.0</ele><time>2026-04-08T10:11:40.196Z</time></trkpt><trkpt lat="45.9850553" lon="13.7072461"><ele>562.3333333333334</ele><time>2026-04-08T10:11:41.194Z</time></trkpt><trkpt lat="45.985137" lon="13.7070026"><ele>563.6666666666667</ele><time>2026-04-08T10:11:42.162Z</time></trkpt><trkpt lat="45.9852378" lon="13.7067831"><ele>565.0</ele><time>2026-04-08T10:11:43.212Z</time></trkpt><trkpt lat="45.9853573" lon="13.7065872"><ele>565.0</ele><time>2026-04-08T10:11:44.208Z</time></trkpt><trkpt lat="45.9854741" lon="13.7063855"><ele>565.0</ele><time>2026-04-08T10:11:45.191Z</time></trkpt><trkpt lat="45.9855777" lon="13.7061751"><ele>565.0</ele><time>2026-04-08T10:11:46.191Z</time></trkpt><trkpt lat="45.985682" lon="13.7059814"><ele>557.5</ele><time>2026-04-08T10:11:47.199Z</time></trkpt><trkpt lat="45.9857934" lon="13.7058122"><ele>550.0</ele><time>2026-04-08T10:11:48.18Z</time></trkpt><trkpt lat="45.9860828" lon="13.7055952"><ele>550.0</ele><time>2026-04-08T10:11:50.189Z</time></trkpt><trkpt lat="45.9862592" lon="13.7055385"><ele>550.0</ele><time>2026-04-08T10:11:51.163Z</time></trkpt><trkpt lat="45.9864432" lon="13.7054899"><ele>550.0</ele><time>2026-04-08T10:11:52.193Z</time></trkpt><trkpt lat="45.9866399" lon="13.7054432"><ele>549.0</ele><time>2026-04-08T10:11:53.2Z</time></trkpt><trkpt lat="45.9868398" lon="13.7053987"><ele>548.0</ele><time>2026-04-08T10:11:54.195Z</time></trkpt><trkpt lat="45.9870362" lon="13.7053756"><ele>547.0</ele><time>2026-04-08T10:11:55.194Z</time></trkpt><trkpt lat="45.9872242" lon="13.7053866"><ele>547.0</ele><time>2026-04-08T10:11:56.194Z</time></trkpt><trkpt lat="45.9874088" lon="13.7054056"><ele>547.0</ele><time>2026-04-08T10:11:57.184Z</time></trkpt><trkpt lat="45.9875884" lon="13.705399"><ele>547.0</ele><time>2026-04-08T10:11:58.184Z</time></trkpt><trkpt lat="45.9877651" lon="13.7053529"><ele>539.3333333333334</ele><time>2026-04-08T10:11:59.184Z</time></trkpt><trkpt lat="45.9879383" lon="13.7052455"><ele>531.6666666666666</ele><time>2026-04-08T10:12:00.161Z</time></trkpt><trkpt lat="45.9881022" lon="13.7050982"><ele>524.0</ele><time>2026-04-08T10:12:01.202Z</time></trkpt><trkpt lat="45.9882565" lon="13.7049233"><ele>524.6666666666666</ele><time>2026-04-08T10:12:02.163Z</time></trkpt><trkpt lat="45.9883991" lon="13.704721"><ele>525.3333333333334</ele><time>2026-04-08T10:12:03.2Z</time></trkpt><trkpt lat="45.9885213" lon="13.7045067"><ele>526.0</ele><time>2026-04-08T10:12:04.162Z</time></trkpt><trkpt lat="45.9886262" lon="13.7042653"><ele>526.0</ele><time>2026-04-08T10:12:05.173Z</time></trkpt><trkpt lat="45.9886977" lon="13.7039809"><ele>526.0</ele><time>2026-04-08T10:12:06.195Z</time></trkpt><trkpt lat="45.9887949" lon="13.7033938"><ele>524.6666666666667</ele><time>2026-04-08T10:12:08.21Z</time></trkpt><trkpt lat="45.9888246" lon="13.7031063"><ele>523.3333333333334</ele><time>2026-04-08T10:12:09.194Z</time></trkpt><trkpt lat="45.9888391" lon="13.7028051"><ele>522.0</ele><time>2026-04-08T10:12:10.19Z</time></trkpt><trkpt lat="45.9888392" lon="13.7024989"><ele>519.0</ele><time>2026-04-08T10:12:11.201Z</time></trkpt><trkpt lat="45.9888459" lon="13.702191"><ele>516.0</ele><time>2026-04-08T10:12:12.191Z</time></trkpt><trkpt lat="45.9888539" lon="13.7018882"><ele>513.0</ele><time>2026-04-08T10:12:13.191Z</time></trkpt><trkpt lat="45.9888586" lon="13.7015944"><ele>513.0</ele><time>2026-04-08T10:12:14.206Z</time></trkpt><trkpt lat="45.9888632" lon="13.7012899"><ele>513.0</ele><time>2026-04-08T10:12:15.19Z</time></trkpt><trkpt lat="45.9888712" lon="13.700997"><ele>513.0</ele><time>2026-04-08T10:12:16.182Z</time></trkpt><trkpt lat="45.9888751" lon="13.7007079"><ele>510.0</ele><time>2026-04-08T10:12:17.195Z</time></trkpt><trkpt lat="45.9888661" lon="13.7004335"><ele>507.0</ele><time>2026-04-08T10:12:18.19Z</time></trkpt><trkpt lat="45.9888428" lon="13.7001811"><ele>504.0</ele><time>2026-04-08T10:12:19.207Z</time></trkpt><trkpt lat="45.9887842" lon="13.6999394"><ele>502.33333333333337</ele><time>2026-04-08T10:12:20.173Z</time></trkpt><trkpt lat="45.9887074" lon="13.699702"><ele>500.6666666666667</ele><time>2026-04-08T10:12:21.196Z</time></trkpt><trkpt lat="45.9886038" lon="13.6994803"><ele>499.0</ele><time>2026-04-08T10:12:22.203Z</time></trkpt><trkpt lat="45.9884742" lon="13.699278"><ele>494.0</ele><time>2026-04-08T10:12:23.194Z</time></trkpt><trkpt lat="45.988334" lon="13.6990889"><ele>489.0</ele><time>2026-04-08T10:12:24.185Z</time></trkpt><trkpt lat="45.9881957" lon="13.6989052"><ele>484.0</ele><time>2026-04-08T10:12:25.191Z</time></trkpt><trkpt lat="45.988047" lon="13.6987066"><ele>481.6666666666667</ele><time>2026-04-08T10:12:26.168Z</time></trkpt><trkpt lat="45.9878966" lon="13.6985176"><ele>479.33333333333337</ele><time>2026-04-08T10:12:27.195Z</time></trkpt><trkpt lat="45.987753" lon="13.6983353"><ele>477.0</ele><time>2026-04-08T10:12:28.198Z</time></trkpt><trkpt lat="45.98761" lon="13.6981498"><ele>475.33333333333337</ele><time>2026-04-08T10:12:29.214Z</time></trkpt><trkpt lat="45.9874731" lon="13.6979646"><ele>473.6666666666667</ele><time>2026-04-08T10:12:30.191Z</time></trkpt><trkpt lat="45.9873343" lon="13.6977856"><ele>472.0</ele><time>2026-04-08T10:12:31.203Z</time></trkpt><trkpt lat="45.9871947" lon="13.6976101"><ele>470.33333333333337</ele><time>2026-04-08T10:12:32.191Z</time></trkpt><trkpt lat="45.9870579" lon="13.6974456"><ele>468.66666666666663</ele><time>2026-04-08T10:12:33.189Z</time></trkpt><trkpt lat="45.9869186" lon="13.6972817"><ele>467.0</ele><time>2026-04-08T10:12:34.186Z</time></trkpt><trkpt lat="45.986777" lon="13.6971196"><ele>467.0</ele><time>2026-04-08T10:12:35.198Z</time></trkpt><trkpt lat="45.9866271" lon="13.6969513"><ele>467.0</ele><time>2026-04-08T10:12:36.19Z</time></trkpt><trkpt lat="45.9864747" lon="13.6967683"><ele>467.0</ele><time>2026-04-08T10:12:37.188Z</time></trkpt><trkpt lat="45.9863202" lon="13.6965834"><ele>465.3333333333333</ele><time>2026-04-08T10:12:38.189Z</time></trkpt><trkpt lat="45.986176" lon="13.6963853"><ele>463.66666666666663</ele><time>2026-04-08T10:12:39.196Z</time></trkpt><trkpt lat="45.9860526" lon="13.6961574"><ele>462.0</ele><time>2026-04-08T10:12:40.2Z</time></trkpt><trkpt lat="45.9859599" lon="13.69591"><ele>462.0</ele><time>2026-04-08T10:12:41.223Z</time></trkpt><trkpt lat="45.9858848" lon="13.695632"><ele>462.0</ele><time>2026-04-08T10:12:42.173Z</time></trkpt><trkpt lat="45.9858289" lon="13.6953465"><ele>462.0</ele><time>2026-04-08T10:12:43.192Z</time></trkpt><trkpt lat="45.9857748" lon="13.6950601"><ele>460.0</ele><time>2026-04-08T10:12:44.192Z</time></trkpt><trkpt lat="45.9857179" lon="13.694768"><ele>458.0</ele><time>2026-04-08T10:12:45.193Z</time></trkpt><trkpt lat="45.9856523" lon="13.6944821"><ele>456.0</ele><time>2026-04-08T10:12:46.188Z</time></trkpt><trkpt lat="45.9855821" lon="13.6941936"><ele>455.0</ele><time>2026-04-08T10:12:47.196Z</time></trkpt><trkpt lat="45.9855035" lon="13.6939099"><ele>454.0</ele><time>2026-04-08T10:12:48.205Z</time></trkpt><trkpt lat="45.9854266" lon="13.6936248"><ele>453.0</ele><time>2026-04-08T10:12:49.201Z</time></trkpt><trkpt lat="45.9853398" lon="13.6933501"><ele>452.33333333333337</ele><time>2026-04-08T10:12:50.201Z</time></trkpt><trkpt lat="45.9852373" lon="13.693086"><ele>451.6666666666667</ele><time>2026-04-08T10:12:51.182Z</time></trkpt><trkpt lat="45.9851365" lon="13.6928131"><ele>451.0</ele><time>2026-04-08T10:12:52.184Z</time></trkpt><trkpt lat="45.985039" lon="13.6925363"><ele>450.0</ele><time>2026-04-08T10:12:53.199Z</time></trkpt><trkpt lat="45.9849418" lon="13.6922592"><ele>449.0</ele><time>2026-04-08T10:12:54.188Z</time></trkpt><trkpt lat="45.9848461" lon="13.6919761"><ele>448.0</ele><time>2026-04-08T10:12:55.169Z</time></trkpt><trkpt lat="45.9847498" lon="13.6916923"><ele>446.6666666666667</ele><time>2026-04-08T10:12:56.195Z</time></trkpt><trkpt lat="45.984652" lon="13.691414"><ele>445.33333333333337</ele><time>2026-04-08T10:12:57.199Z</time></trkpt><trkpt lat="45.9845558" lon="13.6911375"><ele>444.0</ele><time>2026-04-08T10:12:58.203Z</time></trkpt><trkpt lat="45.9844591" lon="13.6908633"><ele>442.66666666666663</ele><time>2026-04-08T10:12:59.18Z</time></trkpt><trkpt lat="45.9843581" lon="13.6905934"><ele>441.3333333333333</ele><time>2026-04-08T10:13:00.191Z</time></trkpt><trkpt lat="45.984245" lon="13.690335"><ele>440.0</ele><time>2026-04-08T10:13:01.185Z</time></trkpt><trkpt lat="45.9841147" lon="13.690093"><ele>440.0</ele><time>2026-04-08T10:13:02.19Z</time></trkpt><trkpt lat="45.9839623" lon="13.6898687"><ele>440.0</ele><time>2026-04-08T10:13:03.21Z</time></trkpt><trkpt lat="45.9837982" lon="13.68967"><ele>440.0</ele><time>2026-04-08T10:13:04.189Z</time></trkpt><trkpt lat="45.9836257" lon="13.6894802"><ele>439.0</ele><time>2026-04-08T10:13:05.202Z</time></trkpt><trkpt lat="45.9834555" lon="13.6892956"><ele>438.0</ele><time>2026-04-08T10:13:06.197Z</time></trkpt><trkpt lat="45.9832811" lon="13.6891197"><ele>437.0</ele><time>2026-04-08T10:13:07.195Z</time></trkpt><trkpt lat="45.9831029" lon="13.6889528"><ele>436.3333333333333</ele><time>2026-04-08T10:13:08.194Z</time></trkpt><trkpt lat="45.9829223" lon="13.6887908"><ele>435.66666666666663</ele><time>2026-04-08T10:13:09.172Z</time></trkpt><trkpt lat="45.9827338" lon="13.6886338"><ele>435.0</ele><time>2026-04-08T10:13:10.188Z</time></trkpt><trkpt lat="45.9825495" lon="13.6884766"><ele>435.0</ele><time>2026-04-08T10:13:11.173Z</time></trkpt><trkpt lat="45.9823648" lon="13.6883169"><ele>435.0</ele><time>2026-04-08T10:13:12.171Z</time></trkpt><trkpt lat="45.9821905" lon="13.6881451"><ele>435.0</ele><time>2026-04-08T10:13:13.199Z</time></trkpt><trkpt lat="45.9820252" lon="13.6879583"><ele>436.0</ele><time>2026-04-08T10:13:14.191Z</time></trkpt><trkpt lat="45.9818703" lon="13.6877542"><ele>437.0</ele><time>2026-04-08T10:13:15.194Z</time></trkpt><trkpt lat="45.9817299" lon="13.6875238"><ele>438.0</ele><time>2026-04-08T10:13:16.188Z</time></trkpt><trkpt lat="45.9816082" lon="13.6872749"><ele>437.66666666666663</ele><time>2026-04-08T10:13:17.183Z</time></trkpt><trkpt lat="45.9815028" lon="13.6870112"><ele>437.3333333333333</ele><time>2026-04-08T10:13:18.182Z</time></trkpt><trkpt lat="45.9814165" lon="13.6867345"><ele>437.0</ele><time>2026-04-08T10:13:19.198Z</time></trkpt><trkpt lat="45.9813411" lon="13.6864462"><ele>437.0</ele><time>2026-04-08T10:13:20.213Z</time></trkpt><trkpt lat="45.9812797" lon="13.6861501"><ele>437.0</ele><time>2026-04-08T10:13:21.19Z</time></trkpt><trkpt lat="45.9812215" lon="13.6858521"><ele>437.0</ele><time>2026-04-08T10:13:22.214Z</time></trkpt><trkpt lat="45.9811608" lon="13.6855548"><ele>436.3333333333333</ele><time>2026-04-08T10:13:23.207Z</time></trkpt><trkpt lat="45.9810941" lon="13.6852659"><ele>435.66666666666663</ele><time>2026-04-08T10:13:24.188Z</time></trkpt><trkpt lat="45.9810363" lon="13.6849791"><ele>435.0</ele><time>2026-04-08T10:13:25.198Z</time></trkpt><trkpt lat="45.9809901" lon="13.6846815"><ele>433.33333333333337</ele><time>2026-04-08T10:13:26.191Z</time></trkpt><trkpt lat="45.9809493" lon="13.6843818"><ele>431.6666666666667</ele><time>2026-04-08T10:13:27.163Z</time></trkpt><trkpt lat="45.980943" lon="13.6840624"><ele>430.0</ele><time>2026-04-08T10:13:28.19Z</time></trkpt><trkpt lat="45.9809688" lon="13.683741"><ele>427.6666666666667</ele><time>2026-04-08T10:13:29.183Z</time></trkpt><trkpt lat="45.9810183" lon="13.6834268"><ele>425.33333333333337</ele><time>2026-04-08T10:13:30.185Z</time></trkpt><trkpt lat="45.9811031" lon="13.6831259"><ele>423.0</ele><time>2026-04-08T10:13:31.178Z</time></trkpt><trkpt lat="45.981221" lon="13.6828443"><ele>424.5</ele><time>2026-04-08T10:13:32.176Z</time></trkpt><trkpt lat="45.981364" lon="13.682587"><ele>426.0</ele><time>2026-04-08T10:13:33.181Z</time></trkpt><trkpt lat="45.9815382" lon="13.6823599"><ele>417.5</ele><time>2026-04-08T10:13:34.181Z</time></trkpt><trkpt lat="45.9817216" lon="13.6821446"><ele>409.0</ele><time>2026-04-08T10:13:35.191Z</time></trkpt><trkpt lat="45.9818998" lon="13.681924"><ele>409.0</ele><time>2026-04-08T10:13:36.171Z</time></trkpt><trkpt lat="45.9820766" lon="13.6817119"><ele>409.0</ele><time>2026-04-08T10:13:37.182Z</time></trkpt><trkpt lat="45.9822407" lon="13.6815095"><ele>409.0</ele><time>2026-04-08T10:13:38.165Z</time></trkpt><trkpt lat="45.9824063" lon="13.6813035"><ele>403.6666666666667</ele><time>2026-04-08T10:13:39.192Z</time></trkpt><trkpt lat="45.9825672" lon="13.6810973"><ele>398.33333333333337</ele><time>2026-04-08T10:13:40.186Z</time></trkpt><trkpt lat="45.982724" lon="13.6808928"><ele>393.0</ele><time>2026-04-08T10:13:41.181Z</time></trkpt><trkpt lat="45.9828711" lon="13.6806829"><ele>393.0</ele><time>2026-04-08T10:13:42.183Z</time></trkpt><trkpt lat="45.9830131" lon="13.6804672"><ele>393.0</ele><time>2026-04-08T10:13:43.19Z</time></trkpt><trkpt lat="45.9831436" lon="13.6802572"><ele>393.0</ele><time>2026-04-08T10:13:44.164Z</time></trkpt><trkpt lat="45.9832748" lon="13.6800554"><ele>389.6666666666667</ele><time>2026-04-08T10:13:45.174Z</time></trkpt><trkpt lat="45.9834144" lon="13.6798656"><ele>386.33333333333337</ele><time>2026-04-08T10:13:46.185Z</time></trkpt><trkpt lat="45.9835568" lon="13.6796862"><ele>383.0</ele><time>2026-04-08T10:13:47.193Z</time></trkpt><trkpt lat="45.9836999" lon="13.6795173"><ele>389.0</ele><time>2026-04-08T10:13:48.18Z</time></trkpt><trkpt lat="45.9838439" lon="13.6793609"><ele>395.0</ele><time>2026-04-08T10:13:49.176Z</time></trkpt><trkpt lat="45.9839913" lon="13.6792247"><ele>401.0</ele><time>2026-04-08T10:13:50.198Z</time></trkpt><trkpt lat="45.9841468" lon="13.6791057"><ele>395.0</ele><time>2026-04-08T10:13:51.183Z</time></trkpt><trkpt lat="45.9843016" lon="13.6790025"><ele>389.0</ele><time>2026-04-08T10:13:52.186Z</time></trkpt><trkpt lat="45.9844563" lon="13.6789072"><ele>383.0</ele><time>2026-04-08T10:13:53.186Z</time></trkpt><trkpt lat="45.9846083" lon="13.6788059"><ele>383.0</ele><time>2026-04-08T10:13:54.176Z</time></trkpt><trkpt lat="45.9847613" lon="13.6787065"><ele>383.0</ele><time>2026-04-08T10:13:55.182Z</time></trkpt><trkpt lat="45.9849102" lon="13.678604"><ele>383.0</ele><time>2026-04-08T10:13:56.153Z</time></trkpt><trkpt lat="45.9850584" lon="13.6785019"><ele>384.33333333333337</ele><time>2026-04-08T10:13:57.162Z</time></trkpt><trkpt lat="45.9852086" lon="13.6783979"><ele>385.6666666666667</ele><time>2026-04-08T10:13:58.184Z</time></trkpt><trkpt lat="45.9853652" lon="13.6782818"><ele>387.0</ele><time>2026-04-08T10:13:59.18Z</time></trkpt><trkpt lat="45.9855274" lon="13.6781534"><ele>387.0</ele><time>2026-04-08T10:14:00.173Z</time></trkpt><trkpt lat="45.9856983" lon="13.6780157"><ele>387.0</ele><time>2026-04-08T10:14:01.168Z</time></trkpt><trkpt lat="45.9858679" lon="13.6778736"><ele>387.0</ele><time>2026-04-08T10:14:02.187Z</time></trkpt><trkpt lat="45.9860418" lon="13.6777236"><ele>384.0</ele><time>2026-04-08T10:14:03.193Z</time></trkpt><trkpt lat="45.9862128" lon="13.6775621"><ele>381.0</ele><time>2026-04-08T10:14:04.185Z</time></trkpt><trkpt lat="45.9863834" lon="13.6773992"><ele>378.0</ele><time>2026-04-08T10:14:05.181Z</time></trkpt><trkpt lat="45.9865465" lon="13.6772233"><ele>375.6666666666667</ele><time>2026-04-08T10:14:06.177Z</time></trkpt><trkpt lat="45.9867049" lon="13.6770376"><ele>373.33333333333337</ele><time>2026-04-08T10:14:07.174Z</time></trkpt><trkpt lat="45.9868579" lon="13.676843"><ele>371.0</ele><time>2026-04-08T10:14:08.174Z</time></trkpt><trkpt lat="45.9870137" lon="13.6766481"><ele>371.0</ele><time>2026-04-08T10:14:09.188Z</time></trkpt><trkpt lat="45.9871646" lon="13.6764518"><ele>371.0</ele><time>2026-04-08T10:14:10.178Z</time></trkpt><trkpt lat="45.9873116" lon="13.6762528"><ele>371.0</ele><time>2026-04-08T10:14:11.193Z</time></trkpt><trkpt lat="45.9874455" lon="13.6760388"><ele>362.5</ele><time>2026-04-08T10:14:12.286Z</time></trkpt><trkpt lat="45.9876618" lon="13.6755452"><ele>354.0</ele><time>2026-04-08T10:14:14.202Z</time></trkpt><trkpt lat="45.9877622" lon="13.6752843"><ele>357.6666666666667</ele><time>2026-04-08T10:14:15.208Z</time></trkpt><trkpt lat="45.987874" lon="13.675043"><ele>361.33333333333337</ele><time>2026-04-08T10:14:16.189Z</time></trkpt><trkpt lat="45.9879967" lon="13.6748104"><ele>365.0</ele><time>2026-04-08T10:14:17.18Z</time></trkpt><trkpt lat="45.9881265" lon="13.6745852"><ele>361.33333333333337</ele><time>2026-04-08T10:14:18.182Z</time></trkpt><trkpt lat="45.9882582" lon="13.6743641"><ele>357.6666666666667</ele><time>2026-04-08T10:14:19.272Z</time></trkpt><trkpt lat="45.9883892" lon="13.6741458"><ele>354.0</ele><time>2026-04-08T10:14:20.281Z</time></trkpt><trkpt lat="45.9885224" lon="13.673929"><ele>361.5</ele><time>2026-04-08T10:14:21.288Z</time></trkpt><trkpt lat="45.9887936" lon="13.6735048"><ele>369.0</ele><time>2026-04-08T10:14:23.197Z</time></trkpt><trkpt lat="45.9889346" lon="13.6733085"><ele>369.0</ele><time>2026-04-08T10:14:24.182Z</time></trkpt><trkpt lat="45.9890897" lon="13.6731356"><ele>369.0</ele><time>2026-04-08T10:14:25.278Z</time></trkpt><trkpt lat="45.9892619" lon="13.6729959"><ele>369.0</ele><time>2026-04-08T10:14:26.292Z</time></trkpt><trkpt lat="45.9894393" lon="13.6728682"><ele>365.0</ele><time>2026-04-08T10:14:27.287Z</time></trkpt><trkpt lat="45.989607" lon="13.6727379"><ele>361.0</ele><time>2026-04-08T10:14:28.281Z</time></trkpt><trkpt lat="45.9898626" lon="13.6724659"><ele>361.0</ele><time>2026-04-08T10:14:30.163Z</time></trkpt><trkpt lat="45.9899375" lon="13.672282"><ele>361.0</ele><time>2026-04-08T10:14:31.272Z</time></trkpt><trkpt lat="45.9899591" lon="13.6720593"><ele>361.0</ele><time>2026-04-08T10:14:32.276Z</time></trkpt><trkpt lat="45.9899433" lon="13.6718243"><ele>360.0</ele><time>2026-04-08T10:14:33.272Z</time></trkpt><trkpt lat="45.9898812" lon="13.6715877"><ele>359.0</ele><time>2026-04-08T10:14:34.29Z</time></trkpt><trkpt lat="45.9896651" lon="13.6711579"><ele>351.0</ele><time>2026-04-08T10:14:36.171Z</time></trkpt><trkpt lat="45.9895238" lon="13.6709889"><ele>343.0</ele><time>2026-04-08T10:14:37.166Z</time></trkpt><trkpt lat="45.9893599" lon="13.670845"><ele>335.0</ele><time>2026-04-08T10:14:38.289Z</time></trkpt><trkpt lat="45.9891932" lon="13.6707106"><ele>335.6666666666667</ele><time>2026-04-08T10:14:39.289Z</time></trkpt><trkpt lat="45.9890184" lon="13.6705764"><ele>336.3333333333333</ele><time>2026-04-08T10:14:40.277Z</time></trkpt><trkpt lat="45.9888319" lon="13.6704637"><ele>337.0</ele><time>2026-04-08T10:14:41.287Z</time></trkpt><trkpt lat="45.9884582" lon="13.6702268"><ele>344.3333333333333</ele><time>2026-04-08T10:14:43.182Z</time></trkpt><trkpt lat="45.9882758" lon="13.6700792"><ele>351.6666666666667</ele><time>2026-04-08T10:14:44.293Z</time></trkpt><trkpt lat="45.9881167" lon="13.6698885"><ele>359.0</ele><time>2026-04-08T10:14:45.284Z</time></trkpt><trkpt lat="45.9879754" lon="13.6696708"><ele>351.6666666666667</ele><time>2026-04-08T10:14:46.252Z</time></trkpt><trkpt lat="45.9878412" lon="13.6694388"><ele>344.3333333333333</ele><time>2026-04-08T10:14:47.261Z</time></trkpt><trkpt lat="45.9877085" lon="13.6692131"><ele>337.0</ele><time>2026-04-08T10:14:48.268Z</time></trkpt><trkpt lat="45.987577" lon="13.6689991"><ele>336.66666666666663</ele><time>2026-04-08T10:14:49.255Z</time></trkpt><trkpt lat="45.9874287" lon="13.6688069"><ele>336.3333333333333</ele><time>2026-04-08T10:14:50.24Z</time></trkpt><trkpt lat="45.9872688" lon="13.6686278"><ele>336.0</ele><time>2026-04-08T10:14:51.267Z</time></trkpt><trkpt lat="45.987103" lon="13.668459"><ele>336.0</ele><time>2026-04-08T10:14:52.279Z</time></trkpt><trkpt lat="45.9869413" lon="13.6682983"><ele>336.0</ele><time>2026-04-08T10:14:53.281Z</time></trkpt><trkpt lat="45.9867826" lon="13.6681324"><ele>336.0</ele><time>2026-04-08T10:14:54.271Z</time></trkpt><trkpt lat="45.9866218" lon="13.6679642"><ele>336.6666666666667</ele><time>2026-04-08T10:14:55.248Z</time></trkpt><trkpt lat="45.9864726" lon="13.6677771"><ele>337.33333333333337</ele><time>2026-04-08T10:14:56.271Z</time></trkpt><trkpt lat="45.986323" lon="13.667587"><ele>338.0</ele><time>2026-04-08T10:14:57.268Z</time></trkpt><trkpt lat="45.9861774" lon="13.6673897"><ele>338.0</ele><time>2026-04-08T10:14:58.266Z</time></trkpt><trkpt lat="45.9860382" lon="13.6671857"><ele>338.0</ele><time>2026-04-08T10:14:59.276Z</time></trkpt><trkpt lat="45.985904" lon="13.6669748"><ele>338.0</ele><time>2026-04-08T10:15:00.265Z</time></trkpt><trkpt lat="45.985774" lon="13.6667505"><ele>342.33333333333337</ele><time>2026-04-08T10:15:01.25Z</time></trkpt><trkpt lat="45.9856466" lon="13.6665292"><ele>346.6666666666667</ele><time>2026-04-08T10:15:02.259Z</time></trkpt><trkpt lat="45.9855205" lon="13.6663062"><ele>351.0</ele><time>2026-04-08T10:15:03.262Z</time></trkpt><trkpt lat="45.9853955" lon="13.6661066"><ele>350.0</ele><time>2026-04-08T10:15:04.262Z</time></trkpt><trkpt lat="45.985265" lon="13.6659253"><ele>349.0</ele><time>2026-04-08T10:15:05.277Z</time></trkpt><trkpt lat="45.9851229" lon="13.6657963"><ele>348.0</ele><time>2026-04-08T10:15:06.268Z</time></trkpt><trkpt lat="45.9849579" lon="13.6657362"><ele>348.0</ele><time>2026-04-08T10:15:07.252Z</time></trkpt><trkpt lat="45.9847795" lon="13.6657222"><ele>348.0</ele><time>2026-04-08T10:15:08.235Z</time></trkpt><trkpt lat="45.9845906" lon="13.6657263"><ele>348.0</ele><time>2026-04-08T10:15:09.264Z</time></trkpt><trkpt lat="45.9844062" lon="13.6657186"><ele>348.0</ele><time>2026-04-08T10:15:10.257Z</time></trkpt><trkpt lat="45.9842284" lon="13.6656823"><ele>348.0</ele><time>2026-04-08T10:15:11.263Z</time></trkpt><trkpt lat="45.9840713" lon="13.6655896"><ele>348.0</ele><time>2026-04-08T10:15:12.266Z</time></trkpt><trkpt lat="45.9839401" lon="13.665455"><ele>348.3333333333333</ele><time>2026-04-08T10:15:13.272Z</time></trkpt><trkpt lat="45.9838483" lon="13.6652869"><ele>348.66666666666663</ele><time>2026-04-08T10:15:14.27Z</time></trkpt><trkpt lat="45.9837901" lon="13.665083"><ele>349.0</ele><time>2026-04-08T10:15:15.247Z</time></trkpt><trkpt lat="45.9837791" lon="13.6648504"><ele>344.3333333333333</ele><time>2026-04-08T10:15:16.254Z</time></trkpt><trkpt lat="45.9838175" lon="13.6646118"><ele>339.6666666666667</ele><time>2026-04-08T10:15:17.278Z</time></trkpt><trkpt lat="45.9838755" lon="13.6643832"><ele>335.0</ele><time>2026-04-08T10:15:18.245Z</time></trkpt><trkpt lat="45.9839691" lon="13.6641729"><ele>334.0</ele><time>2026-04-08T10:15:19.245Z</time></trkpt><trkpt lat="45.9840676" lon="13.6639608"><ele>333.0</ele><time>2026-04-08T10:15:20.268Z</time></trkpt><trkpt lat="45.9841764" lon="13.6637419"><ele>332.0</ele><time>2026-04-08T10:15:21.254Z</time></trkpt><trkpt lat="45.9842879" lon="13.6635233"><ele>332.0</ele><time>2026-04-08T10:15:22.265Z</time></trkpt><trkpt lat="45.9843932" lon="13.6633187"><ele>332.0</ele><time>2026-04-08T10:15:23.255Z</time></trkpt><trkpt lat="45.9845015" lon="13.663138"><ele>332.0</ele><time>2026-04-08T10:15:24.254Z</time></trkpt><trkpt lat="45.9846039" lon="13.6630005"><ele>332.0</ele><time>2026-04-08T10:15:25.255Z</time></trkpt><trkpt lat="45.9847023" lon="13.6629159"><ele>332.0</ele><time>2026-04-08T10:15:26.254Z</time></trkpt><trkpt lat="45.9847999" lon="13.6628854"><ele>332.0</ele><time>2026-04-08T10:15:27.279Z</time></trkpt><trkpt lat="45.9848873" lon="13.6629123"><ele>332.0</ele><time>2026-04-08T10:15:28.269Z</time></trkpt><trkpt lat="45.9849515" lon="13.6629244"><ele>332.0</ele><time>2026-04-08T10:15:29.294Z</time></trkpt><trkpt lat="45.9850325" lon="13.6628344"><ele>333.8</ele><time>2026-04-08T10:15:31.265Z</time></trkpt><trkpt lat="45.9850238" lon="13.6626795"><ele>335.6</ele><time>2026-04-08T10:15:33.27Z</time></trkpt><trkpt lat="45.984997" lon="13.6625894"><ele>337.40000000000003</ele><time>2026-04-08T10:15:34.249Z</time></trkpt><trkpt lat="45.984999" lon="13.6624852"><ele>339.20000000000005</ele><time>2026-04-08T10:15:35.26Z</time></trkpt><trkpt lat="45.98504" lon="13.6623586"><ele>341.0</ele><time>2026-04-08T10:15:36.271Z</time></trkpt><trkpt lat="45.9851099" lon="13.6622161"><ele>341.0</ele><time>2026-04-08T10:15:37.272Z</time></trkpt><trkpt lat="45.9852183" lon="13.662085"><ele>341.0</ele><time>2026-04-08T10:15:38.268Z</time></trkpt><trkpt lat="45.9853589" lon="13.6619531"><ele>341.0</ele><time>2026-04-08T10:15:39.264Z</time></trkpt><trkpt lat="45.9855175" lon="13.6618386"><ele>338.6666666666667</ele><time>2026-04-08T10:15:40.266Z</time></trkpt><trkpt lat="45.9856981" lon="13.6617444"><ele>336.3333333333333</ele><time>2026-04-08T10:15:41.272Z</time></trkpt><trkpt lat="45.98588" lon="13.6616525"><ele>334.0</ele><time>2026-04-08T10:15:42.269Z</time></trkpt><trkpt lat="45.9860527" lon="13.6615487"><ele>334.0</ele><time>2026-04-08T10:15:43.262Z</time></trkpt><trkpt lat="45.9862141" lon="13.6614309"><ele>334.0</ele><time>2026-04-08T10:15:44.281Z</time></trkpt><trkpt lat="45.9863641" lon="13.6612876"><ele>334.0</ele><time>2026-04-08T10:15:45.256Z</time></trkpt><trkpt lat="45.9864918" lon="13.6611058"><ele>328.0</ele><time>2026-04-08T10:15:46.252Z</time></trkpt><trkpt lat="45.9865847" lon="13.6608896"><ele>322.0</ele><time>2026-04-08T10:15:47.289Z</time></trkpt><trkpt lat="45.9866381" lon="13.660657"><ele>316.0</ele><time>2026-04-08T10:15:48.264Z</time></trkpt><trkpt lat="45.9866466" lon="13.6604031"><ele>316.0</ele><time>2026-04-08T10:15:49.255Z</time></trkpt><trkpt lat="45.9866223" lon="13.6601351"><ele>316.0</ele><time>2026-04-08T10:15:50.274Z</time></trkpt><trkpt lat="45.9865735" lon="13.6598725"><ele>316.0</ele><time>2026-04-08T10:15:51.27Z</time></trkpt><trkpt lat="45.9865207" lon="13.6596253"><ele>314.0</ele><time>2026-04-08T10:15:52.267Z</time></trkpt><trkpt lat="45.9864903" lon="13.6593973"><ele>312.0</ele><time>2026-04-08T10:15:53.262Z</time></trkpt><trkpt lat="45.9865002" lon="13.6591848"><ele>310.0</ele><time>2026-04-08T10:15:54.271Z</time></trkpt><trkpt lat="45.9865573" lon="13.6589948"><ele>310.0</ele><time>2026-04-08T10:15:55.245Z</time></trkpt><trkpt lat="45.9866752" lon="13.6588254"><ele>310.0</ele><time>2026-04-08T10:15:56.244Z</time></trkpt><trkpt lat="45.9868241" lon="13.6586768"><ele>310.0</ele><time>2026-04-08T10:15:57.264Z</time></trkpt><trkpt lat="45.9869948" lon="13.6585262"><ele>312.66666666666663</ele><time>2026-04-08T10:15:58.233Z</time></trkpt><trkpt lat="45.9871615" lon="13.6583523"><ele>315.3333333333333</ele><time>2026-04-08T10:15:59.266Z</time></trkpt><trkpt lat="45.9873199" lon="13.6581594"><ele>318.0</ele><time>2026-04-08T10:16:00.256Z</time></trkpt><trkpt lat="45.9874823" lon="13.6579512"><ele>316.0</ele><time>2026-04-08T10:16:01.261Z</time></trkpt><trkpt lat="45.9876464" lon="13.6577386"><ele>314.0</ele><time>2026-04-08T10:16:02.242Z</time></trkpt><trkpt lat="45.9878056" lon="13.6575243"><ele>312.0</ele><time>2026-04-08T10:16:03.25Z</time></trkpt><trkpt lat="45.9879583" lon="13.6572916"><ele>312.0</ele><time>2026-04-08T10:16:04.241Z</time></trkpt><trkpt lat="45.9880891" lon="13.6570513"><ele>312.0</ele><time>2026-04-08T10:16:05.27Z</time></trkpt><trkpt lat="45.9881975" lon="13.6568181"><ele>312.0</ele><time>2026-04-08T10:16:06.258Z</time></trkpt><trkpt lat="45.9883018" lon="13.6566114"><ele>310.0</ele><time>2026-04-08T10:16:07.244Z</time></trkpt><trkpt lat="45.9884203" lon="13.6564393"><ele>308.0</ele><time>2026-04-08T10:16:08.265Z</time></trkpt><trkpt lat="45.9885581" lon="13.6563269"><ele>306.0</ele><time>2026-04-08T10:16:09.26Z</time></trkpt><trkpt lat="45.9887169" lon="13.6562841"><ele>306.0</ele><time>2026-04-08T10:16:10.287Z</time></trkpt><trkpt lat="45.9888875" lon="13.6562732"><ele>306.0</ele><time>2026-04-08T10:16:11.248Z</time></trkpt><trkpt lat="45.9890712" lon="13.6562661"><ele>306.0</ele><time>2026-04-08T10:16:12.275Z</time></trkpt><trkpt lat="45.9892632" lon="13.6562251"><ele>309.3333333333333</ele><time>2026-04-08T10:16:13.253Z</time></trkpt><trkpt lat="45.9894568" lon="13.6561655"><ele>312.66666666666663</ele><time>2026-04-08T10:16:14.261Z</time></trkpt><trkpt lat="45.9896219" lon="13.6560677"><ele>316.0</ele><time>2026-04-08T10:16:15.239Z</time></trkpt><trkpt lat="45.9897387" lon="13.6559539"><ele>316.0</ele><time>2026-04-08T10:16:16.262Z</time></trkpt><trkpt lat="45.9898184" lon="13.6558251"><ele>316.0</ele><time>2026-04-08T10:16:17.254Z</time></trkpt><trkpt lat="45.9898513" lon="13.6556677"><ele>316.0</ele><time>2026-04-08T10:16:18.242Z</time></trkpt><trkpt lat="45.9898238" lon="13.6555188"><ele>316.0</ele><time>2026-04-08T10:16:19.263Z</time></trkpt><trkpt lat="45.9897254" lon="13.655396"><ele>316.0</ele><time>2026-04-08T10:16:20.256Z</time></trkpt><trkpt lat="45.9895872" lon="13.6553407"><ele>316.0</ele><time>2026-04-08T10:16:21.247Z</time></trkpt><trkpt lat="45.9894374" lon="13.6553545"><ele>316.0</ele><time>2026-04-08T10:16:22.247Z</time></trkpt><trkpt lat="45.9893021" lon="13.6554502"><ele>316.0</ele><time>2026-04-08T10:16:23.243Z</time></trkpt><trkpt lat="45.9891476" lon="13.6555753"><ele>307.66666666666663</ele><time>2026-04-08T10:16:24.258Z</time></trkpt><trkpt lat="45.9889828" lon="13.6557056"><ele>299.3333333333333</ele><time>2026-04-08T10:16:25.258Z</time></trkpt><trkpt lat="45.9888064" lon="13.6558183"><ele>291.0</ele><time>2026-04-08T10:16:26.258Z</time></trkpt><trkpt lat="45.9886142" lon="13.6558688"><ele>291.0</ele><time>2026-04-08T10:16:27.267Z</time></trkpt><trkpt lat="45.9884459" lon="13.6559394"><ele>291.0</ele><time>2026-04-08T10:16:28.234Z</time></trkpt><trkpt lat="45.9882907" lon="13.6560909"><ele>291.0</ele><time>2026-04-08T10:16:29.262Z</time></trkpt><trkpt lat="45.9881554" lon="13.6563092"><ele>293.5</ele><time>2026-04-08T10:16:30.262Z</time></trkpt><trkpt lat="45.9880146" lon="13.6565536"><ele>296.0</ele><time>2026-04-08T10:16:31.252Z</time></trkpt><trkpt lat="45.9878478" lon="13.6567858"><ele>292.6666666666667</ele><time>2026-04-08T10:16:32.263Z</time></trkpt><trkpt lat="45.987679" lon="13.6569921"><ele>289.3333333333333</ele><time>2026-04-08T10:16:33.258Z</time></trkpt><trkpt lat="45.987498" lon="13.6571722"><ele>286.0</ele><time>2026-04-08T10:16:34.26Z</time></trkpt><trkpt lat="45.9873123" lon="13.6573366"><ele>286.0</ele><time>2026-04-08T10:16:35.256Z</time></trkpt><trkpt lat="45.9871163" lon="13.6574709"><ele>286.0</ele><time>2026-04-08T10:16:36.261Z</time></trkpt><trkpt lat="45.9869161" lon="13.657585"><ele>286.0</ele><time>2026-04-08T10:16:37.269Z</time></trkpt><trkpt lat="45.9867155" lon="13.6577293"><ele>285.0</ele><time>2026-04-08T10:16:38.254Z</time></trkpt><trkpt lat="45.986525" lon="13.657913"><ele>284.0</ele><time>2026-04-08T10:16:39.255Z</time></trkpt><trkpt lat="45.9863389" lon="13.6581186"><ele>284.0</ele><time>2026-04-08T10:16:40.244Z</time></trkpt><trkpt lat="45.9861603" lon="13.6583356"><ele>284.0</ele><time>2026-04-08T10:16:41.228Z</time></trkpt><trkpt lat="45.9859831" lon="13.6585739"><ele>275.5</ele><time>2026-04-08T10:16:42.255Z</time></trkpt><trkpt lat="45.9858116" lon="13.6588306"><ele>267.0</ele><time>2026-04-08T10:16:43.256Z</time></trkpt><trkpt lat="45.9856487" lon="13.6590886"><ele>267.0</ele><time>2026-04-08T10:16:44.28Z</time></trkpt><trkpt lat="45.9854907" lon="13.6593467"><ele>267.0</ele><time>2026-04-08T10:16:45.262Z</time></trkpt><trkpt lat="45.9853318" lon="13.6595928"><ele>271.5</ele><time>2026-04-08T10:16:46.262Z</time></trkpt><trkpt lat="45.9851611" lon="13.6598172"><ele>276.0</ele><time>2026-04-08T10:16:47.258Z</time></trkpt><trkpt lat="45.9849768" lon="13.6600236"><ele>263.0</ele><time>2026-04-08T10:16:48.248Z</time></trkpt><trkpt lat="45.9846094" lon="13.6604257"><ele>263.0</ele><time>2026-04-08T10:16:50.262Z</time></trkpt><trkpt lat="45.9844503" lon="13.6606563"><ele>263.0</ele><time>2026-04-08T10:16:51.246Z</time></trkpt><trkpt lat="45.9843126" lon="13.6609002"><ele>263.0</ele><time>2026-04-08T10:16:52.253Z</time></trkpt><trkpt lat="45.9841916" lon="13.6611358"><ele>261.0</ele><time>2026-04-08T10:16:53.262Z</time></trkpt><trkpt lat="45.9840779" lon="13.6613653"><ele>259.0</ele><time>2026-04-08T10:16:54.253Z</time></trkpt><trkpt lat="45.9839463" lon="13.6615636"><ele>257.0</ele><time>2026-04-08T10:16:55.252Z</time></trkpt><trkpt lat="45.9837832" lon="13.6617106"><ele>257.0</ele><time>2026-04-08T10:16:56.252Z</time></trkpt><trkpt lat="45.9835953" lon="13.6618164"><ele>257.0</ele><time>2026-04-08T10:16:57.236Z</time></trkpt><trkpt lat="45.9833938" lon="13.6618957"><ele>257.0</ele><time>2026-04-08T10:16:58.228Z</time></trkpt><trkpt lat="45.9831827" lon="13.6619471"><ele>246.66666666666669</ele><time>2026-04-08T10:16:59.238Z</time></trkpt><trkpt lat="45.982961" lon="13.6619402"><ele>236.33333333333331</ele><time>2026-04-08T10:17:00.233Z</time></trkpt><trkpt lat="45.9827383" lon="13.6618851"><ele>226.0</ele><time>2026-04-08T10:17:01.233Z</time></trkpt><trkpt lat="45.9825191" lon="13.661811"><ele>222.0</ele><time>2026-04-08T10:17:02.226Z</time></trkpt><trkpt lat="45.9823003" lon="13.6617237"><ele>218.0</ele><time>2026-04-08T10:17:03.243Z</time></trkpt><trkpt lat="45.9820849" lon="13.6616384"><ele>218.0</ele><time>2026-04-08T10:17:04.242Z</time></trkpt><trkpt lat="45.9818747" lon="13.6615564"><ele>218.0</ele><time>2026-04-08T10:17:05.247Z</time></trkpt><trkpt lat="45.9816854" lon="13.6614642"><ele>218.0</ele><time>2026-04-08T10:17:06.23Z</time></trkpt><trkpt lat="45.9815186" lon="13.6613665"><ele>218.25</ele><time>2026-04-08T10:17:07.237Z</time></trkpt><trkpt lat="45.9813733" lon="13.6612904"><ele>218.5</ele><time>2026-04-08T10:17:08.241Z</time></trkpt><trkpt lat="45.9812484" lon="13.6612597"><ele>218.75</ele><time>2026-04-08T10:17:09.253Z</time></trkpt><trkpt lat="45.9811322" lon="13.6612997"><ele>219.0</ele><time>2026-04-08T10:17:10.234Z</time></trkpt><trkpt lat="45.9810275" lon="13.6613877"><ele>219.0</ele><time>2026-04-08T10:17:11.235Z</time></trkpt><trkpt lat="45.9809229" lon="13.6614581"><ele>219.0</ele><time>2026-04-08T10:17:12.255Z</time></trkpt><trkpt lat="45.9808112" lon="13.6614165"><ele>219.0</ele><time>2026-04-08T10:17:13.247Z</time></trkpt><trkpt lat="45.9807239" lon="13.6612814"><ele>219.0</ele><time>2026-04-08T10:17:14.262Z</time></trkpt><trkpt lat="45.9806567" lon="13.6610898"><ele>212.66666666666669</ele><time>2026-04-08T10:17:15.263Z</time></trkpt><trkpt lat="45.9805903" lon="13.6608593"><ele>206.33333333333334</ele><time>2026-04-08T10:17:16.252Z</time></trkpt><trkpt lat="45.9805042" lon="13.6606271"><ele>200.0</ele><time>2026-04-08T10:17:17.269Z</time></trkpt><trkpt lat="45.9803638" lon="13.6604134"><ele>197.33333333333334</ele><time>2026-04-08T10:17:18.258Z</time></trkpt><trkpt lat="45.9801795" lon="13.6602458"><ele>194.66666666666669</ele><time>2026-04-08T10:17:19.244Z</time></trkpt><trkpt lat="45.9800055" lon="13.6601095"><ele>192.0</ele><time>2026-04-08T10:17:20.255Z</time></trkpt><trkpt lat="45.9798477" lon="13.6599837"><ele>192.0</ele><time>2026-04-08T10:17:21.262Z</time></trkpt><trkpt lat="45.9797455" lon="13.6598582"><ele>192.0</ele><time>2026-04-08T10:17:22.257Z</time></trkpt><trkpt lat="45.9797207" lon="13.6597205"><ele>192.0</ele><time>2026-04-08T10:17:23.27Z</time></trkpt><trkpt lat="45.9797553" lon="13.6595751"><ele>192.0</ele><time>2026-04-08T10:17:24.245Z</time></trkpt><trkpt lat="45.9798383" lon="13.6593929"><ele>190.66666666666666</ele><time>2026-04-08T10:17:25.247Z</time></trkpt><trkpt lat="45.9799464" lon="13.6591804"><ele>189.33333333333331</ele><time>2026-04-08T10:17:26.24Z</time></trkpt><trkpt lat="45.9800522" lon="13.6589629"><ele>188.0</ele><time>2026-04-08T10:17:27.245Z</time></trkpt><trkpt lat="45.980136" lon="13.6587559"><ele>178.33333333333331</ele><time>2026-04-08T10:17:28.227Z</time></trkpt><trkpt lat="45.9801844" lon="13.6585354"><ele>168.66666666666666</ele><time>2026-04-08T10:17:29.263Z</time></trkpt><trkpt lat="45.9801643" lon="13.6583131"><ele>159.0</ele><time>2026-04-08T10:17:30.244Z</time></trkpt><trkpt lat="45.9800867" lon="13.6580895"><ele>160.0</ele><time>2026-04-08T10:17:31.236Z</time></trkpt><trkpt lat="45.9799735" lon="13.6579008"><ele>161.0</ele><time>2026-04-08T10:17:32.259Z</time></trkpt><trkpt lat="45.9798244" lon="13.6577865"><ele>162.0</ele><time>2026-04-08T10:17:33.252Z</time></trkpt><trkpt lat="45.9796499" lon="13.6576976"><ele>162.0</ele><time>2026-04-08T10:17:34.255Z</time></trkpt><trkpt lat="45.9794735" lon="13.6575854"><ele>162.0</ele><time>2026-04-08T10:17:35.228Z</time></trkpt><trkpt lat="45.9793174" lon="13.6574226"><ele>162.0</ele><time>2026-04-08T10:17:36.232Z</time></trkpt><trkpt lat="45.9791783" lon="13.6571927"><ele>161.33333333333334</ele><time>2026-04-08T10:17:37.237Z</time></trkpt><trkpt lat="45.9790622" lon="13.6569297"><ele>160.66666666666669</ele><time>2026-04-08T10:17:38.252Z</time></trkpt><trkpt lat="45.9789603" lon="13.6566376"><ele>160.0</ele><time>2026-04-08T10:17:39.25Z</time></trkpt><trkpt lat="45.9788691" lon="13.6563638"><ele>153.66666666666669</ele><time>2026-04-08T10:17:40.248Z</time></trkpt><trkpt lat="45.9787749" lon="13.6560967"><ele>147.33333333333334</ele><time>2026-04-08T10:17:41.266Z</time></trkpt><trkpt lat="45.9786752" lon="13.6558376"><ele>141.0</ele><time>2026-04-08T10:17:42.25Z</time></trkpt><trkpt lat="45.9785732" lon="13.655582"><ele>141.0</ele><time>2026-04-08T10:17:43.26Z</time></trkpt><trkpt lat="45.9784771" lon="13.6553309"><ele>141.0</ele><time>2026-04-08T10:17:44.268Z</time></trkpt><trkpt lat="45.9783864" lon="13.6550828"><ele>141.0</ele><time>2026-04-08T10:17:45.253Z</time></trkpt><trkpt lat="45.9783043" lon="13.6548317"><ele>140.0</ele><time>2026-04-08T10:17:46.255Z</time></trkpt><trkpt lat="45.9782311" lon="13.6545813"><ele>139.0</ele><time>2026-04-08T10:17:47.249Z</time></trkpt><trkpt lat="45.9781625" lon="13.6543336"><ele>138.0</ele><time>2026-04-08T10:17:48.247Z</time></trkpt><trkpt lat="45.9781021" lon="13.6540835"><ele>138.0</ele><time>2026-04-08T10:17:49.253Z</time></trkpt><trkpt lat="45.9780431" lon="13.6538377"><ele>138.0</ele><time>2026-04-08T10:17:50.224Z</time></trkpt><trkpt lat="45.9779937" lon="13.6535951"><ele>138.0</ele><time>2026-04-08T10:17:51.247Z</time></trkpt><trkpt lat="45.9779353" lon="13.6533713"><ele>129.33333333333334</ele><time>2026-04-08T10:17:52.253Z</time></trkpt><trkpt lat="45.9778531" lon="13.6531615"><ele>120.66666666666667</ele><time>2026-04-08T10:17:53.255Z</time></trkpt><trkpt lat="45.9777359" lon="13.6529802"><ele>112.0</ele><time>2026-04-08T10:17:54.27Z</time></trkpt><trkpt lat="45.9775928" lon="13.6528204"><ele>117.33333333333334</ele><time>2026-04-08T10:17:55.255Z</time></trkpt><trkpt lat="45.9774392" lon="13.652675"><ele>122.66666666666666</ele><time>2026-04-08T10:17:56.247Z</time></trkpt><trkpt lat="45.9772857" lon="13.6525352"><ele>128.0</ele><time>2026-04-08T10:17:57.245Z</time></trkpt><trkpt lat="45.9771402" lon="13.6523982"><ele>128.0</ele><time>2026-04-08T10:17:58.249Z</time></trkpt><trkpt lat="45.976994" lon="13.6522667"><ele>128.0</ele><time>2026-04-08T10:17:59.242Z</time></trkpt><trkpt lat="45.976851" lon="13.6521419"><ele>128.0</ele><time>2026-04-08T10:18:00.242Z</time></trkpt><trkpt lat="45.976716" lon="13.6520164"><ele>123.66666666666666</ele><time>2026-04-08T10:18:01.246Z</time></trkpt><trkpt lat="45.9765826" lon="13.6518908"><ele>119.33333333333334</ele><time>2026-04-08T10:18:02.262Z</time></trkpt><trkpt lat="45.9764513" lon="13.6517674"><ele>115.0</ele><time>2026-04-08T10:18:03.259Z</time></trkpt><trkpt lat="45.9763186" lon="13.6516604"><ele>115.0</ele><time>2026-04-08T10:18:04.253Z</time></trkpt><trkpt lat="45.9761903" lon="13.6515693"><ele>115.0</ele><time>2026-04-08T10:18:05.247Z</time></trkpt><trkpt lat="45.9760665" lon="13.6514852"><ele>115.0</ele><time>2026-04-08T10:18:06.255Z</time></trkpt><trkpt lat="45.975958" lon="13.6514124"><ele>115.0</ele><time>2026-04-08T10:18:07.251Z</time></trkpt><trkpt lat="45.9758647" lon="13.6513534"><ele>114.0</ele><time>2026-04-08T10:18:08.257Z</time></trkpt><trkpt lat="45.975791" lon="13.6513034"><ele>113.0</ele><time>2026-04-08T10:18:09.243Z</time></trkpt><trkpt lat="45.9757319" lon="13.6512495"><ele>112.0</ele><time>2026-04-08T10:18:10.254Z</time></trkpt><trkpt lat="45.9756952" lon="13.6511572"><ele>111.0</ele><time>2026-04-08T10:18:14.243Z</time></trkpt><trkpt lat="45.9757335" lon="13.6509899"><ele>110.0</ele><time>2026-04-08T10:18:16.242Z</time></trkpt><trkpt lat="45.9757672" lon="13.6508416"><ele>110.0</ele><time>2026-04-08T10:18:17.233Z</time></trkpt><trkpt lat="45.9757987" lon="13.6506684"><ele>110.0</ele><time>2026-04-08T10:18:18.265Z</time></trkpt><trkpt lat="45.9758263" lon="13.650475"><ele>110.0</ele><time>2026-04-08T10:18:19.222Z</time></trkpt><trkpt lat="45.9758465" lon="13.6502575"><ele>110.0</ele><time>2026-04-08T10:18:20.224Z</time></trkpt><trkpt lat="45.9758587" lon="13.6500357"><ele>107.5</ele><time>2026-04-08T10:18:21.248Z</time></trkpt><trkpt lat="45.975849" lon="13.6498215"><ele>105.0</ele><time>2026-04-08T10:18:22.225Z</time></trkpt><trkpt lat="45.9758236" lon="13.6496322"><ele>102.5</ele><time>2026-04-08T10:18:23.242Z</time></trkpt><trkpt lat="45.9757745" lon="13.6494712"><ele>100.0</ele><time>2026-04-08T10:18:24.247Z</time></trkpt><trkpt lat="45.9757159" lon="13.6493502"><ele>100.0</ele><time>2026-04-08T10:18:25.243Z</time></trkpt><trkpt lat="45.9756606" lon="13.6492232"><ele>100.0</ele><time>2026-04-08T10:18:27.237Z</time></trkpt><trkpt lat="45.9756076" lon="13.6491266"><ele>100.0</ele><time>2026-04-08T10:18:29.236Z</time></trkpt><trkpt lat="45.9755301" lon="13.6490434"><ele>100.0</ele><time>2026-04-08T10:18:30.254Z</time></trkpt><trkpt lat="45.9754407" lon="13.6489488"><ele>100.0</ele><time>2026-04-08T10:18:31.235Z</time></trkpt><trkpt lat="45.9753526" lon="13.6488464"><ele>100.0</ele><time>2026-04-08T10:18:32.229Z</time></trkpt><trkpt lat="45.975263" lon="13.6487697"><ele>100.0</ele><time>2026-04-08T10:18:33.25Z</time></trkpt><trkpt lat="45.9751699" lon="13.6487164"><ele>100.0</ele><time>2026-04-08T10:18:34.254Z</time></trkpt><trkpt lat="45.9750764" lon="13.648681"><ele>100.0</ele><time>2026-04-08T10:18:35.232Z</time></trkpt><trkpt lat="45.9749836" lon="13.6486518"><ele>100.0</ele><time>2026-04-08T10:18:36.256Z</time></trkpt><trkpt lat="45.9748955" lon="13.6486311"><ele>99.85714285714286</ele><time>2026-04-08T10:18:37.242Z</time></trkpt><trkpt lat="45.9748139" lon="13.6486155"><ele>99.71428571428572</ele><time>2026-04-08T10:18:38.232Z</time></trkpt><trkpt lat="45.9747349" lon="13.6486031"><ele>99.57142857142858</ele><time>2026-04-08T10:18:39.235Z</time></trkpt><trkpt lat="45.9746614" lon="13.6485996"><ele>99.42857142857143</ele><time>2026-04-08T10:18:40.245Z</time></trkpt><trkpt lat="45.9745909" lon="13.6485955"><ele>99.28571428571428</ele><time>2026-04-08T10:18:41.246Z</time></trkpt><trkpt lat="45.9745205" lon="13.6485936"><ele>99.14285714285715</ele><time>2026-04-08T10:18:42.244Z</time></trkpt><trkpt lat="45.9744514" lon="13.6485988"><ele>99.0</ele><time>2026-04-08T10:18:43.25Z</time></trkpt><trkpt lat="45.974386" lon="13.6486104"><ele>99.0</ele><time>2026-04-08T10:18:44.249Z</time></trkpt><trkpt lat="45.9743175" lon="13.6486203"><ele>99.0</ele><time>2026-04-08T10:18:45.261Z</time></trkpt><trkpt lat="45.9742527" lon="13.6486344"><ele>99.0</ele><time>2026-04-08T10:18:46.261Z</time></trkpt><trkpt lat="45.9741843" lon="13.6486475"><ele>99.0</ele><time>2026-04-08T10:18:47.253Z</time></trkpt><trkpt lat="45.9741132" lon="13.6486645"><ele>99.0</ele><time>2026-04-08T10:18:48.251Z</time></trkpt><trkpt lat="45.9740406" lon="13.6486827"><ele>99.0</ele><time>2026-04-08T10:18:49.253Z</time></trkpt><trkpt lat="45.9739672" lon="13.6487035"><ele>99.0</ele><time>2026-04-08T10:18:50.243Z</time></trkpt><trkpt lat="45.9738943" lon="13.6487258"><ele>99.33333333333333</ele><time>2026-04-08T10:18:51.254Z</time></trkpt><trkpt lat="45.9738145" lon="13.6487493"><ele>99.66666666666666</ele><time>2026-04-08T10:18:52.25Z</time></trkpt><trkpt lat="45.9737341" lon="13.6487583"><ele>100.0</ele><time>2026-04-08T10:18:53.233Z</time></trkpt><trkpt lat="45.9736563" lon="13.6487528"><ele>100.33333333333333</ele><time>2026-04-08T10:18:54.25Z</time></trkpt><trkpt lat="45.9735856" lon="13.6487346"><ele>100.66666666666666</ele><time>2026-04-08T10:18:55.247Z</time></trkpt><trkpt lat="45.9735137" lon="13.64871"><ele>101.0</ele><time>2026-04-08T10:18:56.234Z</time></trkpt><trkpt lat="45.9734404" lon="13.6486858"><ele>100.99999999999999</ele><time>2026-04-08T10:18:57.218Z</time></trkpt><trkpt lat="45.9733667" lon="13.6486601"><ele>101.0</ele><time>2026-04-08T10:18:58.225Z</time></trkpt><trkpt lat="45.9732944" lon="13.6486323"><ele>101.0</ele><time>2026-04-08T10:18:59.234Z</time></trkpt><trkpt lat="45.9732223" lon="13.6485991"><ele>101.0</ele><time>2026-04-08T10:19:00.246Z</time></trkpt><trkpt lat="45.973146" lon="13.6485585"><ele>100.99999999999999</ele><time>2026-04-08T10:19:01.232Z</time></trkpt><trkpt lat="45.9730836" lon="13.648515"><ele>101.0</ele><time>2026-04-08T10:19:02.222Z</time></trkpt><trkpt lat="45.9730175" lon="13.6484637"><ele>100.71428571428571</ele><time>2026-04-08T10:19:03.236Z</time></trkpt><trkpt lat="45.9729549" lon="13.6484054"><ele>100.42857142857142</ele><time>2026-04-08T10:19:04.235Z</time></trkpt><trkpt lat="45.9728923" lon="13.648355"><ele>100.14285714285714</ele><time>2026-04-08T10:19:05.238Z</time></trkpt><trkpt lat="45.9728292" lon="13.6483021"><ele>99.85714285714286</ele><time>2026-04-08T10:19:06.237Z</time></trkpt><trkpt lat="45.972763" lon="13.6482484"><ele>99.57142857142857</ele><time>2026-04-08T10:19:07.261Z</time></trkpt><trkpt lat="45.9727004" lon="13.6481983"><ele>99.28571428571429</ele><time>2026-04-08T10:19:08.234Z</time></trkpt><trkpt lat="45.9726336" lon="13.6481427"><ele>99.0</ele><time>2026-04-08T10:19:09.252Z</time></trkpt><trkpt lat="45.9725682" lon="13.6480821"><ele>99.33333333333333</ele><time>2026-04-08T10:19:10.259Z</time></trkpt><trkpt lat="45.9725027" lon="13.6480089"><ele>99.66666666666666</ele><time>2026-04-08T10:19:11.25Z</time></trkpt><trkpt lat="45.9724367" lon="13.6479379"><ele>100.0</ele><time>2026-04-08T10:19:12.228Z</time></trkpt><trkpt lat="45.972369" lon="13.6478652"><ele>100.33333333333333</ele><time>2026-04-08T10:19:13.252Z</time></trkpt><trkpt lat="45.9723016" lon="13.6477923"><ele>100.66666666666666</ele><time>2026-04-08T10:19:14.239Z</time></trkpt><trkpt lat="45.9722348" lon="13.6477084"><ele>101.0</ele><time>2026-04-08T10:19:15.253Z</time></trkpt><trkpt lat="45.9721699" lon="13.64763"><ele>100.33333333333333</ele><time>2026-04-08T10:19:16.247Z</time></trkpt><trkpt lat="45.9721102" lon="13.6475478"><ele>99.66666666666666</ele><time>2026-04-08T10:19:17.236Z</time></trkpt><trkpt lat="45.9720582" lon="13.6474606"><ele>99.0</ele><time>2026-04-08T10:19:18.248Z</time></trkpt><trkpt lat="45.9720075" lon="13.6473716"><ele>98.33333333333334</ele><time>2026-04-08T10:19:19.253Z</time></trkpt><trkpt lat="45.9719737" lon="13.6472698"><ele>97.66666666666667</ele><time>2026-04-08T10:19:20.247Z</time></trkpt><trkpt lat="45.9719552" lon="13.6471533"><ele>97.0</ele><time>2026-04-08T10:19:21.235Z</time></trkpt><trkpt lat="45.971939" lon="13.6470423"><ele>96.16666666666667</ele><time>2026-04-08T10:19:22.233Z</time></trkpt><trkpt lat="45.9719222" lon="13.6469319"><ele>95.33333333333334</ele><time>2026-04-08T10:19:23.231Z</time></trkpt><trkpt lat="45.9719018" lon="13.6468245"><ele>94.5</ele><time>2026-04-08T10:19:24.262Z</time></trkpt><trkpt lat="45.9718694" lon="13.6467148"><ele>93.66666666666667</ele><time>2026-04-08T10:19:25.256Z</time></trkpt><trkpt lat="45.9718309" lon="13.6465986"><ele>92.83333333333334</ele><time>2026-04-08T10:19:26.254Z</time></trkpt><trkpt lat="45.9717879" lon="13.6464962"><ele>92.0</ele><time>2026-04-08T10:19:27.243Z</time></trkpt><trkpt lat="45.9717359" lon="13.6463901"><ele>92.19999999999999</ele><time>2026-04-08T10:19:28.23Z</time></trkpt><trkpt lat="45.9716774" lon="13.6462882"><ele>92.4</ele><time>2026-04-08T10:19:29.23Z</time></trkpt><trkpt lat="45.9716121" lon="13.6461954"><ele>92.6</ele><time>2026-04-08T10:19:30.259Z</time></trkpt><trkpt lat="45.9715439" lon="13.6461005"><ele>92.80000000000001</ele><time>2026-04-08T10:19:31.243Z</time></trkpt><trkpt lat="45.971476" lon="13.6460095"><ele>93.0</ele><time>2026-04-08T10:19:32.26Z</time></trkpt><trkpt lat="45.971406" lon="13.6459181"><ele>92.4</ele><time>2026-04-08T10:19:33.221Z</time></trkpt><trkpt lat="45.9713396" lon="13.6458246"><ele>91.80000000000001</ele><time>2026-04-08T10:19:34.252Z</time></trkpt><trkpt lat="45.9712648" lon="13.6457355"><ele>91.2</ele><time>2026-04-08T10:19:35.248Z</time></trkpt><trkpt lat="45.9711943" lon="13.645651"><ele>90.6</ele><time>2026-04-08T10:19:36.248Z</time></trkpt><trkpt lat="45.9711249" lon="13.645569"><ele>90.0</ele><time>2026-04-08T10:19:37.256Z</time></trkpt><trkpt lat="45.9710589" lon="13.6454939"><ele>90.0</ele><time>2026-04-08T10:19:38.257Z</time></trkpt><trkpt lat="45.9709934" lon="13.6454224"><ele>90.0</ele><time>2026-04-08T10:19:39.25Z</time></trkpt><trkpt lat="45.9709289" lon="13.6453484"><ele>90.0</ele><time>2026-04-08T10:19:40.251Z</time></trkpt><trkpt lat="45.970868" lon="13.6452769"><ele>90.0</ele><time>2026-04-08T10:19:41.241Z</time></trkpt><trkpt lat="45.9708064" lon="13.6452095"><ele>90.0</ele><time>2026-04-08T10:19:42.216Z</time></trkpt><trkpt lat="45.9707463" lon="13.645137"><ele>90.0</ele><time>2026-04-08T10:19:43.234Z</time></trkpt><trkpt lat="45.9706881" lon="13.6450624"><ele>90.33333333333333</ele><time>2026-04-08T10:19:44.245Z</time></trkpt><trkpt lat="45.9706297" lon="13.6449873"><ele>90.66666666666667</ele><time>2026-04-08T10:19:45.243Z</time></trkpt><trkpt lat="45.9705755" lon="13.6449112"><ele>91.0</ele><time>2026-04-08T10:19:46.253Z</time></trkpt><trkpt lat="45.9705184" lon="13.6448298"><ele>91.33333333333334</ele><time>2026-04-08T10:19:47.236Z</time></trkpt><trkpt lat="45.9704674" lon="13.6447464"><ele>91.66666666666667</ele><time>2026-04-08T10:19:48.235Z</time></trkpt><trkpt lat="45.9704216" lon="13.6446566"><ele>92.0</ele><time>2026-04-08T10:19:49.224Z</time></trkpt><trkpt lat="45.9703778" lon="13.6445612"><ele>92.0</ele><time>2026-04-08T10:19:50.226Z</time></trkpt><trkpt lat="45.970336" lon="13.6444649"><ele>92.0</ele><time>2026-04-08T10:19:51.238Z</time></trkpt><trkpt lat="45.9702947" lon="13.6443678"><ele>92.0</ele><time>2026-04-08T10:19:52.236Z</time></trkpt><trkpt lat="45.9702654" lon="13.6442684"><ele>92.0</ele><time>2026-04-08T10:19:53.248Z</time></trkpt><trkpt lat="45.9702417" lon="13.6441669"><ele>92.0</ele><time>2026-04-08T10:19:54.248Z</time></trkpt><trkpt lat="45.9702156" lon="13.6440716"><ele>92.0</ele><time>2026-04-08T10:19:55.24Z</time></trkpt><trkpt lat="45.9701895" lon="13.6439772"><ele>92.0</ele><time>2026-04-08T10:19:56.247Z</time></trkpt><trkpt lat="45.9701647" lon="13.6438796"><ele>92.0</ele><time>2026-04-08T10:19:57.248Z</time></trkpt><trkpt lat="45.9701443" lon="13.6437814"><ele>92.0</ele><time>2026-04-08T10:19:58.242Z</time></trkpt><trkpt lat="45.9701227" lon="13.6436841"><ele>92.0</ele><time>2026-04-08T10:19:59.226Z</time></trkpt><trkpt lat="45.9700987" lon="13.6435975"><ele>92.0</ele><time>2026-04-08T10:20:00.221Z</time></trkpt><trkpt lat="45.9700708" lon="13.6435057"><ele>92.0</ele><time>2026-04-08T10:20:01.242Z</time></trkpt><trkpt lat="45.9700387" lon="13.6434095"><ele>92.0</ele><time>2026-04-08T10:20:02.221Z</time></trkpt><trkpt lat="45.9700075" lon="13.6433181"><ele>92.0</ele><time>2026-04-08T10:20:03.243Z</time></trkpt><trkpt lat="45.9699725" lon="13.6432219"><ele>92.0</ele><time>2026-04-08T10:20:04.216Z</time></trkpt><trkpt lat="45.9699309" lon="13.6431339"><ele>92.0</ele><time>2026-04-08T10:20:05.247Z</time></trkpt><trkpt lat="45.9698792" lon="13.6430469"><ele>92.0</ele><time>2026-04-08T10:20:06.244Z</time></trkpt><trkpt lat="45.9698232" lon="13.6429513"><ele>92.0</ele><time>2026-04-08T10:20:07.242Z</time></trkpt><trkpt lat="45.9697673" lon="13.6428464"><ele>92.0</ele><time>2026-04-08T10:20:08.223Z</time></trkpt><trkpt lat="45.9697093" lon="13.6427405"><ele>92.0</ele><time>2026-04-08T10:20:09.232Z</time></trkpt><trkpt lat="45.9696555" lon="13.6426337"><ele>91.6</ele><time>2026-04-08T10:20:10.251Z</time></trkpt><trkpt lat="45.9695979" lon="13.642532"><ele>91.19999999999999</ele><time>2026-04-08T10:20:11.25Z</time></trkpt><trkpt lat="45.9695414" lon="13.6424267"><ele>90.8</ele><time>2026-04-08T10:20:12.244Z</time></trkpt><trkpt lat="45.9694839" lon="13.6423284"><ele>90.4</ele><time>2026-04-08T10:20:13.24Z</time></trkpt><trkpt lat="45.9694284" lon="13.6422279"><ele>90.0</ele><time>2026-04-08T10:20:14.243Z</time></trkpt><trkpt lat="45.9693715" lon="13.6421313"><ele>90.0</ele><time>2026-04-08T10:20:15.245Z</time></trkpt><trkpt lat="45.96931" lon="13.6420297"><ele>90.0</ele><time>2026-04-08T10:20:16.249Z</time></trkpt><trkpt lat="45.9692502" lon="13.6419372"><ele>90.0</ele><time>2026-04-08T10:20:17.243Z</time></trkpt><trkpt lat="45.9691884" lon="13.6418499"><ele>90.0</ele><time>2026-04-08T10:20:18.249Z</time></trkpt><trkpt lat="45.9691265" lon="13.6417621"><ele>90.0</ele><time>2026-04-08T10:20:19.246Z</time></trkpt><trkpt lat="45.9690678" lon="13.6416793"><ele>90.0</ele><time>2026-04-08T10:20:20.234Z</time></trkpt><trkpt lat="45.9690022" lon="13.6416037"><ele>90.16666666666667</ele><time>2026-04-08T10:20:21.222Z</time></trkpt><trkpt lat="45.9689316" lon="13.641548"><ele>90.33333333333333</ele><time>2026-04-08T10:20:22.228Z</time></trkpt><trkpt lat="45.968854" lon="13.6415115"><ele>90.5</ele><time>2026-04-08T10:20:23.229Z</time></trkpt><trkpt lat="45.9687786" lon="13.6414926"><ele>90.66666666666666</ele><time>2026-04-08T10:20:24.224Z</time></trkpt><trkpt lat="45.9687037" lon="13.6414849"><ele>90.83333333333333</ele><time>2026-04-08T10:20:25.246Z</time></trkpt><trkpt lat="45.9686301" lon="13.6414856"><ele>91.0</ele><time>2026-04-08T10:20:26.236Z</time></trkpt><trkpt lat="45.9685526" lon="13.641497"><ele>91.0</ele><time>2026-04-08T10:20:27.238Z</time></trkpt><trkpt lat="45.9684703" lon="13.6415119"><ele>91.0</ele><time>2026-04-08T10:20:28.205Z</time></trkpt><trkpt lat="45.9683855" lon="13.6415336"><ele>91.0</ele><time>2026-04-08T10:20:29.235Z</time></trkpt><trkpt lat="45.9683029" lon="13.6415479"><ele>91.0</ele><time>2026-04-08T10:20:30.229Z</time></trkpt><trkpt lat="45.9682231" lon="13.6415625"><ele>91.0</ele><time>2026-04-08T10:20:31.239Z</time></trkpt><trkpt lat="45.9681477" lon="13.6415784"><ele>91.0</ele><time>2026-04-08T10:20:32.24Z</time></trkpt><trkpt lat="45.9680381" lon="13.6415938"><ele>91.5</ele><time>2026-04-08T10:20:34.226Z</time></trkpt><trkpt lat="45.9679328" lon="13.641585"><ele>92.0</ele><time>2026-04-08T10:20:36.237Z</time></trkpt><trkpt lat="45.9678678" lon="13.6415669"><ele>92.5</ele><time>2026-04-08T10:20:37.22Z</time></trkpt><trkpt lat="45.9677905" lon="13.6415498"><ele>93.0</ele><time>2026-04-08T10:20:38.247Z</time></trkpt><trkpt lat="45.9677199" lon="13.6415272"><ele>93.5</ele><time>2026-04-08T10:20:39.234Z</time></trkpt><trkpt lat="45.9676274" lon="13.6415148"><ele>94.0</ele><time>2026-04-08T10:20:41.224Z</time></trkpt><trkpt lat="45.9675629" lon="13.6415008"><ele>94.0</ele><time>2026-04-08T10:20:46.212Z</time></trkpt><trkpt lat="45.9675604" lon="13.6415986"><ele>94.0</ele><time>2026-04-08T10:20:49.244Z</time></trkpt><trkpt lat="45.9676153" lon="13.6416512"><ele>94.0</ele><time>2026-04-08T10:20:51.223Z</time></trkpt><trkpt lat="45.9677073" lon="13.6416524"><ele>94.0</ele><time>2026-04-08T10:20:54.24Z</time></trkpt><trkpt lat="45.9677921" lon="13.6416567"><ele>94.0</ele><time>2026-04-08T10:20:57.211Z</time></trkpt><trkpt lat="45.9678567" lon="13.6416653"><ele>94.0</ele><time>2026-04-08T10:25:50.145Z</time></trkpt><trkpt lat="45.9679322" lon="13.641689"><ele>94.0</ele><time>2026-04-08T10:25:52.154Z</time></trkpt><trkpt lat="45.9680069" lon="13.641726"><ele>94.0</ele><time>2026-04-08T10:25:54.136Z</time></trkpt><trkpt lat="45.9680824" lon="13.6417198"><ele>94.0</ele><time>2026-04-08T10:25:56.131Z</time></trkpt><trkpt lat="45.9681532" lon="13.6416607"><ele>94.0</ele><time>2026-04-08T10:25:59.148Z</time></trkpt><trkpt lat="45.9682684" lon="13.6415874"><ele>94.0</ele><time>2026-04-08T10:26:01.147Z</time></trkpt><trkpt lat="45.9683503" lon="13.6415605"><ele>94.0</ele><time>2026-04-08T10:26:02.137Z</time></trkpt><trkpt lat="45.9684349" lon="13.6415381"><ele>93.5</ele><time>2026-04-08T10:26:03.147Z</time></trkpt><trkpt lat="45.9685194" lon="13.6415137"><ele>93.0</ele><time>2026-04-08T10:26:04.143Z</time></trkpt><trkpt lat="45.9686049" lon="13.6414913"><ele>92.5</ele><time>2026-04-08T10:26:05.157Z</time></trkpt><trkpt lat="45.9686802" lon="13.6414725"><ele>92.0</ele><time>2026-04-08T10:26:06.153Z</time></trkpt><trkpt lat="45.9687584" lon="13.641468"><ele>91.5</ele><time>2026-04-08T10:26:07.135Z</time></trkpt><trkpt lat="45.9688354" lon="13.6414892"><ele>91.0</ele><time>2026-04-08T10:26:08.134Z</time></trkpt><trkpt lat="45.9689146" lon="13.6415296"><ele>91.0</ele><time>2026-04-08T10:26:09.158Z</time></trkpt><trkpt lat="45.9690824" lon="13.6416819"><ele>91.0</ele><time>2026-04-08T10:26:11.159Z</time></trkpt><trkpt lat="45.9692342" lon="13.6418758"><ele>91.0</ele><time>2026-04-08T10:26:13.152Z</time></trkpt><trkpt lat="45.9693231" lon="13.6419882"><ele>90.66666666666666</ele><time>2026-04-08T10:26:14.146Z</time></trkpt><trkpt lat="45.9694157" lon="13.6421228"><ele>90.33333333333333</ele><time>2026-04-08T10:26:15.152Z</time></trkpt><trkpt lat="45.9695955" lon="13.6424235"><ele>90.0</ele><time>2026-04-08T10:26:17.144Z</time></trkpt><trkpt lat="45.9696743" lon="13.642565"><ele>90.0</ele><time>2026-04-08T10:26:18.151Z</time></trkpt><trkpt lat="45.9697359" lon="13.6426719"><ele>90.0</ele><time>2026-04-08T10:26:19.142Z</time></trkpt><trkpt lat="45.9697848" lon="13.6427723"><ele>90.0</ele><time>2026-04-08T10:26:20.145Z</time></trkpt><trkpt lat="45.9698293" lon="13.6428638"><ele>90.0</ele><time>2026-04-08T10:26:21.152Z</time></trkpt><trkpt lat="45.9698701" lon="13.6429462"><ele>90.0</ele><time>2026-04-08T10:26:22.152Z</time></trkpt><trkpt lat="45.9699087" lon="13.6430267"><ele>90.0</ele><time>2026-04-08T10:26:23.149Z</time></trkpt><trkpt lat="45.9699462" lon="13.6431071"><ele>90.0</ele><time>2026-04-08T10:26:24.139Z</time></trkpt><trkpt lat="45.9699829" lon="13.6432724"><ele>90.0</ele><time>2026-04-08T10:26:26.163Z</time></trkpt><trkpt lat="45.9700067" lon="13.6434431"><ele>90.0</ele><time>2026-04-08T10:26:28.132Z</time></trkpt><trkpt lat="45.9700843" lon="13.6435888"><ele>90.0</ele><time>2026-04-08T10:26:30.145Z</time></trkpt><trkpt lat="45.9701251" lon="13.64367"><ele>90.0</ele><time>2026-04-08T10:26:31.149Z</time></trkpt><trkpt lat="45.970163" lon="13.6437579"><ele>90.0</ele><time>2026-04-08T10:26:32.141Z</time></trkpt><trkpt lat="45.9701923" lon="13.6438567"><ele>90.0</ele><time>2026-04-08T10:26:33.14Z</time></trkpt><trkpt lat="45.9702109" lon="13.6439632"><ele>90.0</ele><time>2026-04-08T10:26:34.151Z</time></trkpt><trkpt lat="45.9702312" lon="13.6440633"><ele>90.0</ele><time>2026-04-08T10:26:35.147Z</time></trkpt><trkpt lat="45.9702537" lon="13.6441733"><ele>90.0</ele><time>2026-04-08T10:26:36.142Z</time></trkpt><trkpt lat="45.9702776" lon="13.6442807"><ele>90.0</ele><time>2026-04-08T10:26:37.146Z</time></trkpt><trkpt lat="45.9703076" lon="13.6443792"><ele>90.28571428571428</ele><time>2026-04-08T10:26:38.147Z</time></trkpt><trkpt lat="45.9703384" lon="13.6444736"><ele>90.57142857142858</ele><time>2026-04-08T10:26:39.153Z</time></trkpt><trkpt lat="45.9703744" lon="13.6445647"><ele>90.85714285714286</ele><time>2026-04-08T10:26:40.151Z</time></trkpt><trkpt lat="45.9704096" lon="13.6446456"><ele>91.14285714285714</ele><time>2026-04-08T10:26:41.146Z</time></trkpt><trkpt lat="45.9704468" lon="13.6447231"><ele>91.42857142857142</ele><time>2026-04-08T10:26:42.147Z</time></trkpt><trkpt lat="45.9704833" lon="13.6447986"><ele>91.71428571428572</ele><time>2026-04-08T10:26:43.138Z</time></trkpt><trkpt lat="45.9705264" lon="13.6448694"><ele>92.0</ele><time>2026-04-08T10:26:44.157Z</time></trkpt><trkpt lat="45.970576" lon="13.644941"><ele>92.0</ele><time>2026-04-08T10:26:45.152Z</time></trkpt><trkpt lat="45.9706269" lon="13.6450184"><ele>92.0</ele><time>2026-04-08T10:26:46.144Z</time></trkpt><trkpt lat="45.9706802" lon="13.6450973"><ele>92.0</ele><time>2026-04-08T10:26:47.151Z</time></trkpt><trkpt lat="45.97074" lon="13.6451765"><ele>92.0</ele><time>2026-04-08T10:26:48.141Z</time></trkpt><trkpt lat="45.9708058" lon="13.6452494"><ele>92.0</ele><time>2026-04-08T10:26:49.137Z</time></trkpt><trkpt lat="45.9708686" lon="13.645326"><ele>92.0</ele><time>2026-04-08T10:26:50.14Z</time></trkpt><trkpt lat="45.9709357" lon="13.6454018"><ele>91.66666666666667</ele><time>2026-04-08T10:26:51.134Z</time></trkpt><trkpt lat="45.9710032" lon="13.6454735"><ele>91.33333333333334</ele><time>2026-04-08T10:26:52.144Z</time></trkpt><trkpt lat="45.971067" lon="13.6455488"><ele>91.0</ele><time>2026-04-08T10:26:53.143Z</time></trkpt><trkpt lat="45.9711255" lon="13.6456224"><ele>90.66666666666667</ele><time>2026-04-08T10:26:54.15Z</time></trkpt><trkpt lat="45.9711929" lon="13.6456939"><ele>90.33333333333333</ele><time>2026-04-08T10:26:55.139Z</time></trkpt><trkpt lat="45.9712581" lon="13.645768"><ele>90.0</ele><time>2026-04-08T10:26:56.149Z</time></trkpt><trkpt lat="45.9713284" lon="13.6458363"><ele>90.0</ele><time>2026-04-08T10:26:57.136Z</time></trkpt><trkpt lat="45.9713941" lon="13.6459133"><ele>90.0</ele><time>2026-04-08T10:26:58.146Z</time></trkpt><trkpt lat="45.9715267" lon="13.6460705"><ele>90.0</ele><time>2026-04-08T10:27:00.129Z</time></trkpt><trkpt lat="45.9715893" lon="13.6461557"><ele>90.0</ele><time>2026-04-08T10:27:01.15Z</time></trkpt><trkpt lat="45.9716439" lon="13.6462388"><ele>90.0</ele><time>2026-04-08T10:27:02.152Z</time></trkpt><trkpt lat="45.9716994" lon="13.6463251"><ele>90.33333333333333</ele><time>2026-04-08T10:27:03.133Z</time></trkpt><trkpt lat="45.9717526" lon="13.6464117"><ele>90.66666666666667</ele><time>2026-04-08T10:27:04.165Z</time></trkpt><trkpt lat="45.9717997" lon="13.6464994"><ele>91.0</ele><time>2026-04-08T10:27:05.133Z</time></trkpt><trkpt lat="45.9718413" lon="13.6465948"><ele>91.33333333333334</ele><time>2026-04-08T10:27:06.146Z</time></trkpt><trkpt lat="45.9718725" lon="13.6467057"><ele>91.66666666666667</ele><time>2026-04-08T10:27:07.144Z</time></trkpt><trkpt lat="45.9719015" lon="13.6468185"><ele>92.0</ele><time>2026-04-08T10:27:08.156Z</time></trkpt><trkpt lat="45.9719224" lon="13.6469314"><ele>92.71428571428572</ele><time>2026-04-08T10:27:09.136Z</time></trkpt><trkpt lat="45.9719432" lon="13.6470384"><ele>93.42857142857142</ele><time>2026-04-08T10:27:10.147Z</time></trkpt><trkpt lat="45.9719595" lon="13.6471418"><ele>94.14285714285714</ele><time>2026-04-08T10:27:11.137Z</time></trkpt><trkpt lat="45.9719711" lon="13.6472344"><ele>94.85714285714286</ele><time>2026-04-08T10:27:12.137Z</time></trkpt><trkpt lat="45.9719806" lon="13.6473267"><ele>95.57142857142858</ele><time>2026-04-08T10:27:13.138Z</time></trkpt><trkpt lat="45.9720069" lon="13.6474214"><ele>96.28571428571428</ele><time>2026-04-08T10:27:14.16Z</time></trkpt><trkpt lat="45.9720444" lon="13.647509"><ele>97.0</ele><time>2026-04-08T10:27:15.145Z</time></trkpt><trkpt lat="45.9720922" lon="13.6475846"><ele>97.00000000000001</ele><time>2026-04-08T10:27:16.141Z</time></trkpt><trkpt lat="45.9721458" lon="13.6476556"><ele>97.0</ele><time>2026-04-08T10:27:17.136Z</time></trkpt><trkpt lat="45.9722043" lon="13.6477308"><ele>97.0</ele><time>2026-04-08T10:27:18.151Z</time></trkpt><trkpt lat="45.9722591" lon="13.647803"><ele>97.0</ele><time>2026-04-08T10:27:19.138Z</time></trkpt><trkpt lat="45.9723218" lon="13.6478704"><ele>97.00000000000001</ele><time>2026-04-08T10:27:20.142Z</time></trkpt><trkpt lat="45.9723837" lon="13.6479364"><ele>97.0</ele><time>2026-04-08T10:27:21.146Z</time></trkpt><trkpt lat="45.9724509" lon="13.6480053"><ele>97.33333333333334</ele><time>2026-04-08T10:27:22.151Z</time></trkpt><trkpt lat="45.9725186" lon="13.6480809"><ele>97.66666666666667</ele><time>2026-04-08T10:27:23.153Z</time></trkpt><trkpt lat="45.9725912" lon="13.6481473"><ele>98.0</ele><time>2026-04-08T10:27:24.136Z</time></trkpt><trkpt lat="45.9726635" lon="13.6482068"><ele>98.33333333333334</ele><time>2026-04-08T10:27:25.143Z</time></trkpt><trkpt lat="45.9727326" lon="13.6482626"><ele>98.66666666666667</ele><time>2026-04-08T10:27:26.156Z</time></trkpt><trkpt lat="45.9728001" lon="13.6483168"><ele>99.0</ele><time>2026-04-08T10:27:27.154Z</time></trkpt><trkpt lat="45.9728663" lon="13.64837"><ele>99.0</ele><time>2026-04-08T10:27:28.152Z</time></trkpt><trkpt lat="45.9729293" lon="13.6484282"><ele>99.0</ele><time>2026-04-08T10:27:29.147Z</time></trkpt><trkpt lat="45.9729956" lon="13.6484823"><ele>99.0</ele><time>2026-04-08T10:27:30.148Z</time></trkpt><trkpt lat="45.9730652" lon="13.6485323"><ele>99.0</ele><time>2026-04-08T10:27:31.157Z</time></trkpt><trkpt lat="45.9731371" lon="13.6485807"><ele>99.0</ele><time>2026-04-08T10:27:32.143Z</time></trkpt><trkpt lat="45.9732072" lon="13.648627"><ele>99.0</ele><time>2026-04-08T10:27:33.147Z</time></trkpt><trkpt lat="45.9732736" lon="13.6486667"><ele>99.33333333333333</ele><time>2026-04-08T10:27:34.157Z</time></trkpt><trkpt lat="45.973345" lon="13.6486998"><ele>99.66666666666666</ele><time>2026-04-08T10:27:35.15Z</time></trkpt><trkpt lat="45.9734305" lon="13.6487276"><ele>100.0</ele><time>2026-04-08T10:27:36.136Z</time></trkpt><trkpt lat="45.9735188" lon="13.6487574"><ele>100.33333333333333</ele><time>2026-04-08T10:27:37.142Z</time></trkpt><trkpt lat="45.973605" lon="13.6487817"><ele>100.66666666666666</ele><time>2026-04-08T10:27:38.145Z</time></trkpt><trkpt lat="45.9736902" lon="13.6487991"><ele>101.0</ele><time>2026-04-08T10:27:39.147Z</time></trkpt><trkpt lat="45.9737784" lon="13.648799"><ele>100.99999999999999</ele><time>2026-04-08T10:27:40.134Z</time></trkpt><trkpt lat="45.9738606" lon="13.6487817"><ele>101.0</ele><time>2026-04-08T10:27:41.143Z</time></trkpt><trkpt lat="45.9739435" lon="13.6487541"><ele>101.0</ele><time>2026-04-08T10:27:42.163Z</time></trkpt><trkpt lat="45.9740315" lon="13.6487206"><ele>101.0</ele><time>2026-04-08T10:27:43.143Z</time></trkpt><trkpt lat="45.9741177" lon="13.6486971"><ele>100.99999999999999</ele><time>2026-04-08T10:27:44.139Z</time></trkpt><trkpt lat="45.9742058" lon="13.648664"><ele>101.0</ele><time>2026-04-08T10:27:45.163Z</time></trkpt><trkpt lat="45.9743003" lon="13.6486454"><ele>101.16666666666666</ele><time>2026-04-08T10:27:46.157Z</time></trkpt><trkpt lat="45.9743886" lon="13.6486258"><ele>101.33333333333333</ele><time>2026-04-08T10:27:47.153Z</time></trkpt><trkpt lat="45.9744722" lon="13.6486066"><ele>101.5</ele><time>2026-04-08T10:27:48.159Z</time></trkpt><trkpt lat="45.9745588" lon="13.6486067"><ele>101.66666666666666</ele><time>2026-04-08T10:27:49.143Z</time></trkpt><trkpt lat="45.9746426" lon="13.6486162"><ele>101.83333333333333</ele><time>2026-04-08T10:27:50.164Z</time></trkpt><trkpt lat="45.9747302" lon="13.648635"><ele>102.0</ele><time>2026-04-08T10:27:51.161Z</time></trkpt><trkpt lat="45.9748164" lon="13.6486543"><ele>102.0</ele><time>2026-04-08T10:27:52.134Z</time></trkpt><trkpt lat="45.9749003" lon="13.6486717"><ele>102.0</ele><time>2026-04-08T10:27:53.16Z</time></trkpt><trkpt lat="45.9749894" lon="13.6486915"><ele>102.0</ele><time>2026-04-08T10:27:54.147Z</time></trkpt><trkpt lat="45.9750837" lon="13.6487178"><ele>102.0</ele><time>2026-04-08T10:27:55.146Z</time></trkpt><trkpt lat="45.9751846" lon="13.6487686"><ele>102.0</ele><time>2026-04-08T10:27:56.163Z</time></trkpt><trkpt lat="45.9752894" lon="13.6488429"><ele>101.6</ele><time>2026-04-08T10:27:57.165Z</time></trkpt><trkpt lat="45.9753859" lon="13.6489369"><ele>101.19999999999999</ele><time>2026-04-08T10:27:58.15Z</time></trkpt><trkpt lat="45.9754614" lon="13.6490355"><ele>100.8</ele><time>2026-04-08T10:27:59.161Z</time></trkpt><trkpt lat="45.9755151" lon="13.6491128"><ele>100.4</ele><time>2026-04-08T10:28:00.155Z</time></trkpt><trkpt lat="45.9755734" lon="13.6492013"><ele>100.0</ele><time>2026-04-08T10:28:02.158Z</time></trkpt><trkpt lat="45.9756707" lon="13.6494071"><ele>99.75</ele><time>2026-04-08T10:28:04.148Z</time></trkpt><trkpt lat="45.9757364" lon="13.6495778"><ele>99.5</ele><time>2026-04-08T10:28:05.156Z</time></trkpt><trkpt lat="45.9757809" lon="13.6497437"><ele>99.25</ele><time>2026-04-08T10:28:06.155Z</time></trkpt><trkpt lat="45.9758148" lon="13.6499333"><ele>99.0</ele><time>2026-04-08T10:28:07.154Z</time></trkpt><trkpt lat="45.9758254" lon="13.6501239"><ele>99.0</ele><time>2026-04-08T10:28:08.156Z</time></trkpt><trkpt lat="45.9758106" lon="13.6502884"><ele>99.0</ele><time>2026-04-08T10:28:09.157Z</time></trkpt><trkpt lat="45.9757929" lon="13.6504185"><ele>99.0</ele><time>2026-04-08T10:28:10.147Z</time></trkpt><trkpt lat="45.9757695" lon="13.6505154"><ele>99.0</ele><time>2026-04-08T10:28:11.138Z</time></trkpt><trkpt lat="45.9757442" lon="13.6506005"><ele>99.0</ele><time>2026-04-08T10:28:13.164Z</time></trkpt><trkpt lat="45.9757095" lon="13.6507204"><ele>99.0</ele><time>2026-04-08T10:29:04.158Z</time></trkpt><trkpt lat="45.9756945" lon="13.6508231"><ele>101.75</ele><time>2026-04-08T10:29:05.142Z</time></trkpt><trkpt lat="45.9756954" lon="13.6511019"><ele>104.5</ele><time>2026-04-08T10:29:07.164Z</time></trkpt><trkpt lat="45.9757234" lon="13.6512389"><ele>107.25</ele><time>2026-04-08T10:29:08.158Z</time></trkpt><trkpt lat="45.9757794" lon="13.6513604"><ele>110.0</ele><time>2026-04-08T10:29:09.144Z</time></trkpt><trkpt lat="45.975857" lon="13.6514654"><ele>111.66666666666666</ele><time>2026-04-08T10:29:10.155Z</time></trkpt><trkpt lat="45.9759746" lon="13.6515704"><ele>113.33333333333334</ele><time>2026-04-08T10:29:11.139Z</time></trkpt><trkpt lat="45.9761447" lon="13.6516863"><ele>115.0</ele><time>2026-04-08T10:29:12.15Z</time></trkpt><trkpt lat="45.9763359" lon="13.6518162"><ele>115.0</ele><time>2026-04-08T10:29:13.162Z</time></trkpt><trkpt lat="45.9765127" lon="13.6519567"><ele>115.0</ele><time>2026-04-08T10:29:14.144Z</time></trkpt><trkpt lat="45.9766775" lon="13.6521115"><ele>115.0</ele><time>2026-04-08T10:29:15.153Z</time></trkpt><trkpt lat="45.9770137" lon="13.652434"><ele>121.5</ele><time>2026-04-08T10:29:17.147Z</time></trkpt><trkpt lat="45.9773545" lon="13.6527394"><ele>128.0</ele><time>2026-04-08T10:29:19.146Z</time></trkpt><trkpt lat="45.9775091" lon="13.6528965"><ele>122.66666666666666</ele><time>2026-04-08T10:29:20.161Z</time></trkpt><trkpt lat="45.977656" lon="13.6530595"><ele>117.33333333333334</ele><time>2026-04-08T10:29:21.149Z</time></trkpt><trkpt lat="45.9777899" lon="13.6532252"><ele>112.0</ele><time>2026-04-08T10:29:22.152Z</time></trkpt><trkpt lat="45.9778958" lon="13.6534271"><ele>120.66666666666667</ele><time>2026-04-08T10:29:23.141Z</time></trkpt><trkpt lat="45.9779761" lon="13.6536601"><ele>129.33333333333334</ele><time>2026-04-08T10:29:24.148Z</time></trkpt><trkpt lat="45.9780429" lon="13.6539283"><ele>138.0</ele><time>2026-04-08T10:29:25.157Z</time></trkpt><trkpt lat="45.9781047" lon="13.6542151"><ele>141.33333333333334</ele><time>2026-04-08T10:29:26.153Z</time></trkpt><trkpt lat="45.9781698" lon="13.6545089"><ele>144.66666666666669</ele><time>2026-04-08T10:29:27.151Z</time></trkpt><trkpt lat="45.9782544" lon="13.6548136"><ele>148.0</ele><time>2026-04-08T10:29:28.152Z</time></trkpt><trkpt lat="45.9783587" lon="13.6551134"><ele>141.0</ele><time>2026-04-08T10:29:29.166Z</time></trkpt><trkpt lat="45.9787136" lon="13.6560344"><ele>150.5</ele><time>2026-04-08T10:29:32.148Z</time></trkpt><trkpt lat="45.9788375" lon="13.6563577"><ele>160.0</ele><time>2026-04-08T10:29:33.164Z</time></trkpt><trkpt lat="45.9789577" lon="13.6566698"><ele>160.0</ele><time>2026-04-08T10:29:34.159Z</time></trkpt><trkpt lat="45.9790667" lon="13.6569523"><ele>160.0</ele><time>2026-04-08T10:29:35.174Z</time></trkpt><trkpt lat="45.9791757" lon="13.6572014"><ele>160.0</ele><time>2026-04-08T10:29:36.151Z</time></trkpt><trkpt lat="45.9794646" lon="13.6576034"><ele>160.66666666666669</ele><time>2026-04-08T10:29:38.156Z</time></trkpt><trkpt lat="45.9796432" lon="13.6577468"><ele>161.33333333333334</ele><time>2026-04-08T10:29:39.152Z</time></trkpt><trkpt lat="45.9798159" lon="13.6578626"><ele>162.0</ele><time>2026-04-08T10:29:40.16Z</time></trkpt><trkpt lat="45.9799599" lon="13.6579962"><ele>161.0</ele><time>2026-04-08T10:29:41.165Z</time></trkpt><trkpt lat="45.9800616" lon="13.6581578"><ele>160.0</ele><time>2026-04-08T10:29:42.16Z</time></trkpt><trkpt lat="45.9801381" lon="13.6583573"><ele>159.0</ele><time>2026-04-08T10:29:43.151Z</time></trkpt><trkpt lat="45.9801656" lon="13.658559"><ele>162.66666666666666</ele><time>2026-04-08T10:29:44.157Z</time></trkpt><trkpt lat="45.980136" lon="13.6587525"><ele>166.33333333333331</ele><time>2026-04-08T10:29:45.162Z</time></trkpt><trkpt lat="45.9800591" lon="13.6589467"><ele>170.0</ele><time>2026-04-08T10:29:46.157Z</time></trkpt><trkpt lat="45.9799573" lon="13.659167"><ele>176.0</ele><time>2026-04-08T10:29:47.155Z</time></trkpt><trkpt lat="45.9798546" lon="13.6593856"><ele>182.0</ele><time>2026-04-08T10:29:48.155Z</time></trkpt><trkpt lat="45.9797683" lon="13.6595835"><ele>188.0</ele><time>2026-04-08T10:29:49.168Z</time></trkpt><trkpt lat="45.9797298" lon="13.659745"><ele>187.33333333333331</ele><time>2026-04-08T10:29:50.147Z</time></trkpt><trkpt lat="45.9797381" lon="13.659882"><ele>186.66666666666666</ele><time>2026-04-08T10:29:51.246Z</time></trkpt><trkpt lat="45.9798819" lon="13.6601337"><ele>186.0</ele><time>2026-04-08T10:29:53.14Z</time></trkpt><trkpt lat="45.9800253" lon="13.6602673"><ele>190.66666666666669</ele><time>2026-04-08T10:29:54.15Z</time></trkpt><trkpt lat="45.9802015" lon="13.6604121"><ele>195.33333333333334</ele><time>2026-04-08T10:29:55.145Z</time></trkpt><trkpt lat="45.9803565" lon="13.6605595"><ele>200.0</ele><time>2026-04-08T10:29:56.162Z</time></trkpt><trkpt lat="45.9804734" lon="13.660744"><ele>200.0</ele><time>2026-04-08T10:29:57.148Z</time></trkpt><trkpt lat="45.9805584" lon="13.6609757"><ele>200.0</ele><time>2026-04-08T10:29:58.144Z</time></trkpt><trkpt lat="45.9806361" lon="13.6612127"><ele>200.0</ele><time>2026-04-08T10:29:59.165Z</time></trkpt><trkpt lat="45.9807089" lon="13.6614025"><ele>206.33333333333334</ele><time>2026-04-08T10:30:00.154Z</time></trkpt><trkpt lat="45.9808669" lon="13.661564"><ele>212.66666666666669</ele><time>2026-04-08T10:30:02.152Z</time></trkpt><trkpt lat="45.9809727" lon="13.6615179"><ele>219.0</ele><time>2026-04-08T10:30:03.142Z</time></trkpt><trkpt lat="45.9811029" lon="13.6614193"><ele>219.0</ele><time>2026-04-08T10:30:04.152Z</time></trkpt><trkpt lat="45.9812762" lon="13.6613483"><ele>219.0</ele><time>2026-04-08T10:30:05.148Z</time></trkpt><trkpt lat="45.9814164" lon="13.6613947"><ele>219.0</ele><time>2026-04-08T10:30:06.164Z</time></trkpt><trkpt lat="45.9815715" lon="13.661503"><ele>218.66666666666669</ele><time>2026-04-08T10:30:07.148Z</time></trkpt><trkpt lat="45.9817434" lon="13.6616016"><ele>218.33333333333334</ele><time>2026-04-08T10:30:08.151Z</time></trkpt><trkpt lat="45.9819499" lon="13.6616881"><ele>218.0</ele><time>2026-04-08T10:30:09.144Z</time></trkpt><trkpt lat="45.9821703" lon="13.6617696"><ele>222.0</ele><time>2026-04-08T10:30:10.149Z</time></trkpt><trkpt lat="45.9826055" lon="13.6619263"><ele>226.0</ele><time>2026-04-08T10:30:12.162Z</time></trkpt><trkpt lat="45.982804" lon="13.6619799"><ele>236.33333333333331</ele><time>2026-04-08T10:30:13.144Z</time></trkpt><trkpt lat="45.9830066" lon="13.6620274"><ele>246.66666666666669</ele><time>2026-04-08T10:30:14.146Z</time></trkpt><trkpt lat="45.9832081" lon="13.662033"><ele>257.0</ele><time>2026-04-08T10:30:15.149Z</time></trkpt><trkpt lat="45.9833903" lon="13.6620154"><ele>257.0</ele><time>2026-04-08T10:30:16.16Z</time></trkpt><trkpt lat="45.9835607" lon="13.6619765"><ele>257.0</ele><time>2026-04-08T10:30:17.19Z</time></trkpt><trkpt lat="45.9837211" lon="13.6618976"><ele>257.0</ele><time>2026-04-08T10:30:18.145Z</time></trkpt><trkpt lat="45.9840095" lon="13.6616843"><ele>257.0</ele><time>2026-04-08T10:30:20.152Z</time></trkpt><trkpt lat="45.9841242" lon="13.6615223"><ele>257.0</ele><time>2026-04-08T10:30:21.143Z</time></trkpt><trkpt lat="45.9842203" lon="13.6613137"><ele>257.0</ele><time>2026-04-08T10:30:22.153Z</time></trkpt><trkpt lat="45.9843117" lon="13.661105"><ele>259.0</ele><time>2026-04-08T10:30:23.147Z</time></trkpt><trkpt lat="45.9844088" lon="13.6608946"><ele>261.0</ele><time>2026-04-08T10:30:24.144Z</time></trkpt><trkpt lat="45.984514" lon="13.6607013"><ele>263.0</ele><time>2026-04-08T10:30:25.159Z</time></trkpt><trkpt lat="45.9847421" lon="13.6603679"><ele>267.33333333333337</ele><time>2026-04-08T10:30:27.17Z</time></trkpt><trkpt lat="45.9848658" lon="13.6602335"><ele>271.6666666666667</ele><time>2026-04-08T10:30:28.151Z</time></trkpt><trkpt lat="45.9849947" lon="13.6601028"><ele>276.0</ele><time>2026-04-08T10:30:29.144Z</time></trkpt><trkpt lat="45.9852781" lon="13.6597747"><ele>276.0</ele><time>2026-04-08T10:30:31.154Z</time></trkpt><trkpt lat="45.9854323" lon="13.6595507"><ele>276.0</ele><time>2026-04-08T10:30:32.164Z</time></trkpt><trkpt lat="45.9855962" lon="13.6592947"><ele>271.5</ele><time>2026-04-08T10:30:33.144Z</time></trkpt><trkpt lat="45.9857733" lon="13.6590113"><ele>267.0</ele><time>2026-04-08T10:30:34.15Z</time></trkpt><trkpt lat="45.9859637" lon="13.6587388"><ele>275.5</ele><time>2026-04-08T10:30:35.146Z</time></trkpt><trkpt lat="45.9861518" lon="13.6584771"><ele>284.0</ele><time>2026-04-08T10:30:36.147Z</time></trkpt><trkpt lat="45.9865049" lon="13.6580184"><ele>284.6666666666667</ele><time>2026-04-08T10:30:38.149Z</time></trkpt><trkpt lat="45.986684" lon="13.6578282"><ele>285.3333333333333</ele><time>2026-04-08T10:30:39.154Z</time></trkpt><trkpt lat="45.9868695" lon="13.6576706"><ele>286.0</ele><time>2026-04-08T10:30:40.159Z</time></trkpt><trkpt lat="45.9870758" lon="13.6575442"><ele>286.0</ele><time>2026-04-08T10:30:41.16Z</time></trkpt><trkpt lat="45.9872872" lon="13.6574185"><ele>286.0</ele><time>2026-04-08T10:30:42.151Z</time></trkpt><trkpt lat="45.9875005" lon="13.6572612"><ele>291.0</ele><time>2026-04-08T10:30:43.155Z</time></trkpt><trkpt lat="45.9877111" lon="13.6570572"><ele>296.0</ele><time>2026-04-08T10:30:44.159Z</time></trkpt><trkpt lat="45.9878999" lon="13.6568245"><ele>296.0</ele><time>2026-04-08T10:30:45.154Z</time></trkpt><trkpt lat="45.9880597" lon="13.6565812"><ele>296.0</ele><time>2026-04-08T10:30:46.156Z</time></trkpt><trkpt lat="45.9881858" lon="13.6563644"><ele>296.0</ele><time>2026-04-08T10:30:47.151Z</time></trkpt><trkpt lat="45.9882829" lon="13.6561873"><ele>294.33333333333337</ele><time>2026-04-08T10:30:48.147Z</time></trkpt><trkpt lat="45.9883893" lon="13.6560385"><ele>292.6666666666667</ele><time>2026-04-08T10:30:49.154Z</time></trkpt><trkpt lat="45.9885226" lon="13.6559295"><ele>291.0</ele><time>2026-04-08T10:30:50.147Z</time></trkpt><trkpt lat="45.9886928" lon="13.6558592"><ele>291.0</ele><time>2026-04-08T10:30:51.166Z</time></trkpt><trkpt lat="45.9888746" lon="13.6557584"><ele>291.0</ele><time>2026-04-08T10:30:52.177Z</time></trkpt><trkpt lat="45.989051" lon="13.6556284"><ele>291.0</ele><time>2026-04-08T10:30:53.175Z</time></trkpt><trkpt lat="45.9892072" lon="13.6554935"><ele>292.75</ele><time>2026-04-08T10:30:54.149Z</time></trkpt><trkpt lat="45.9893392" lon="13.6553856"><ele>294.5</ele><time>2026-04-08T10:30:55.158Z</time></trkpt><trkpt lat="45.9894629" lon="13.6552947"><ele>296.25</ele><time>2026-04-08T10:30:56.159Z</time></trkpt><trkpt lat="45.9895802" lon="13.6552735"><ele>298.0</ele><time>2026-04-08T10:30:57.147Z</time></trkpt><trkpt lat="45.9896785" lon="13.6553445"><ele>304.0</ele><time>2026-04-08T10:30:58.188Z</time></trkpt><trkpt lat="45.9897555" lon="13.6554784"><ele>310.0</ele><time>2026-04-08T10:30:59.168Z</time></trkpt><trkpt lat="45.989746" lon="13.6558286"><ele>316.0</ele><time>2026-04-08T10:31:01.151Z</time></trkpt><trkpt lat="45.98963" lon="13.6559955"><ele>316.0</ele><time>2026-04-08T10:31:02.155Z</time></trkpt><trkpt lat="45.9894778" lon="13.6561162"><ele>316.0</ele><time>2026-04-08T10:31:03.173Z</time></trkpt><trkpt lat="45.9890981" lon="13.6562859"><ele>312.66666666666663</ele><time>2026-04-08T10:31:05.172Z</time></trkpt><trkpt lat="45.988877" lon="13.6563046"><ele>309.3333333333333</ele><time>2026-04-08T10:31:06.149Z</time></trkpt><trkpt lat="45.9886741" lon="13.656283"><ele>306.0</ele><time>2026-04-08T10:31:07.164Z</time></trkpt><trkpt lat="45.9885154" lon="13.6563001"><ele>306.0</ele><time>2026-04-08T10:31:08.162Z</time></trkpt><trkpt lat="45.9883896" lon="13.6563882"><ele>306.0</ele><time>2026-04-08T10:31:09.164Z</time></trkpt><trkpt lat="45.9882688" lon="13.656564"><ele>306.0</ele><time>2026-04-08T10:31:10.158Z</time></trkpt><trkpt lat="45.9881589" lon="13.656828"><ele>312.0</ele><time>2026-04-08T10:31:11.148Z</time></trkpt><trkpt lat="45.9878778" lon="13.657428"><ele>312.0</ele><time>2026-04-08T10:31:13.17Z</time></trkpt><trkpt lat="45.9876845" lon="13.6577076"><ele>312.0</ele><time>2026-04-08T10:31:14.148Z</time></trkpt><trkpt lat="45.9874789" lon="13.657983"><ele>315.0</ele><time>2026-04-08T10:31:15.16Z</time></trkpt><trkpt lat="45.9872695" lon="13.6582554"><ele>318.0</ele><time>2026-04-08T10:31:16.156Z</time></trkpt><trkpt lat="45.9870609" lon="13.6585031"><ele>314.0</ele><time>2026-04-08T10:31:17.162Z</time></trkpt><trkpt lat="45.9868714" lon="13.6586916"><ele>310.0</ele><time>2026-04-08T10:31:18.162Z</time></trkpt><trkpt lat="45.9866043" lon="13.658982"><ele>310.0</ele><time>2026-04-08T10:31:20.154Z</time></trkpt><trkpt lat="45.9865201" lon="13.6591703"><ele>310.0</ele><time>2026-04-08T10:31:21.154Z</time></trkpt><trkpt lat="45.9864655" lon="13.6593798"><ele>310.0</ele><time>2026-04-08T10:31:22.18Z</time></trkpt><trkpt lat="45.986493" lon="13.6596373"><ele>312.0</ele><time>2026-04-08T10:31:23.194Z</time></trkpt><trkpt lat="45.9865791" lon="13.6599222"><ele>314.0</ele><time>2026-04-08T10:31:24.149Z</time></trkpt><trkpt lat="45.9866462" lon="13.6601959"><ele>316.0</ele><time>2026-04-08T10:31:25.166Z</time></trkpt><trkpt lat="45.9866505" lon="13.6604781"><ele>316.0</ele><time>2026-04-08T10:31:26.15Z</time></trkpt><trkpt lat="45.9866145" lon="13.6607386"><ele>316.0</ele><time>2026-04-08T10:31:27.174Z</time></trkpt><trkpt lat="45.9865218" lon="13.6609848"><ele>316.0</ele><time>2026-04-08T10:31:28.174Z</time></trkpt><trkpt lat="45.9863802" lon="13.6612032"><ele>315.3333333333333</ele><time>2026-04-08T10:31:29.163Z</time></trkpt><trkpt lat="45.9862138" lon="13.6613815"><ele>314.6666666666667</ele><time>2026-04-08T10:31:30.172Z</time></trkpt><trkpt lat="45.9860242" lon="13.6615168"><ele>314.0</ele><time>2026-04-08T10:31:31.165Z</time></trkpt><trkpt lat="45.9858169" lon="13.6616295"><ele>314.0</ele><time>2026-04-08T10:31:32.185Z</time></trkpt><trkpt lat="45.9855972" lon="13.6617573"><ele>314.0</ele><time>2026-04-08T10:31:33.159Z</time></trkpt><trkpt lat="45.985207" lon="13.6620339"><ele>316.0</ele><time>2026-04-08T10:31:35.17Z</time></trkpt><trkpt lat="45.9850641" lon="13.6621775"><ele>318.0</ele><time>2026-04-08T10:31:36.154Z</time></trkpt><trkpt lat="45.9849751" lon="13.6622945"><ele>320.0</ele><time>2026-04-08T10:31:37.153Z</time></trkpt><trkpt lat="45.9849388" lon="13.662411"><ele>322.0</ele><time>2026-04-08T10:31:38.164Z</time></trkpt><trkpt lat="45.9849302" lon="13.6625268"><ele>322.0</ele><time>2026-04-08T10:31:39.207Z</time></trkpt><trkpt lat="45.9848987" lon="13.6626297"><ele>322.0</ele><time>2026-04-08T10:31:40.179Z</time></trkpt><trkpt lat="45.9848181" lon="13.6627317"><ele>322.0</ele><time>2026-04-08T10:31:41.17Z</time></trkpt><trkpt lat="45.9847023" lon="13.6628156"><ele>322.0</ele><time>2026-04-08T10:31:42.173Z</time></trkpt><trkpt lat="45.9845718" lon="13.662915"><ele>325.0</ele><time>2026-04-08T10:31:43.182Z</time></trkpt><trkpt lat="45.9844605" lon="13.663084"><ele>328.0</ele><time>2026-04-08T10:31:44.185Z</time></trkpt><trkpt lat="45.9843516" lon="13.6632943"><ele>331.0</ele><time>2026-04-08T10:31:45.17Z</time></trkpt><trkpt lat="45.9841266" lon="13.6637812"><ele>331.0</ele><time>2026-04-08T10:31:47.169Z</time></trkpt><trkpt lat="45.9840088" lon="13.6640242"><ele>331.0</ele><time>2026-04-08T10:31:48.181Z</time></trkpt><trkpt lat="45.9839065" lon="13.6642537"><ele>331.0</ele><time>2026-04-08T10:31:49.169Z</time></trkpt><trkpt lat="45.9838252" lon="13.6644722"><ele>332.3333333333333</ele><time>2026-04-08T10:31:50.177Z</time></trkpt><trkpt lat="45.9837745" lon="13.6646958"><ele>333.6666666666667</ele><time>2026-04-08T10:31:51.172Z</time></trkpt><trkpt lat="45.9837565" lon="13.6649219"><ele>335.0</ele><time>2026-04-08T10:31:52.169Z</time></trkpt><trkpt lat="45.9837931" lon="13.6651392"><ele>339.6666666666667</ele><time>2026-04-08T10:31:53.165Z</time></trkpt><trkpt lat="45.9838685" lon="13.6653369"><ele>344.3333333333333</ele><time>2026-04-08T10:31:54.168Z</time></trkpt><trkpt lat="45.9839798" lon="13.6655113"><ele>349.0</ele><time>2026-04-08T10:31:55.177Z</time></trkpt><trkpt lat="45.9841332" lon="13.6656412"><ele>348.66666666666663</ele><time>2026-04-08T10:31:56.17Z</time></trkpt><trkpt lat="45.9843146" lon="13.6657367"><ele>348.3333333333333</ele><time>2026-04-08T10:31:57.162Z</time></trkpt><trkpt lat="45.9845176" lon="13.6657792"><ele>348.0</ele><time>2026-04-08T10:31:58.153Z</time></trkpt><trkpt lat="45.9847033" lon="13.665785"><ele>348.0</ele><time>2026-04-08T10:31:59.168Z</time></trkpt><trkpt lat="45.9848737" lon="13.6657855"><ele>348.0</ele><time>2026-04-08T10:32:00.153Z</time></trkpt><trkpt lat="45.9850208" lon="13.6658188"><ele>348.0</ele><time>2026-04-08T10:32:01.171Z</time></trkpt><trkpt lat="45.985164" lon="13.6659185"><ele>349.5</ele><time>2026-04-08T10:32:02.154Z</time></trkpt><trkpt lat="45.9853015" lon="13.6660343"><ele>351.0</ele><time>2026-04-08T10:32:03.159Z</time></trkpt><trkpt lat="45.9857425" lon="13.6667476"><ele>344.5</ele><time>2026-04-08T10:32:06.154Z</time></trkpt><trkpt lat="45.9859113" lon="13.66702"><ele>338.0</ele><time>2026-04-08T10:32:07.156Z</time></trkpt><trkpt lat="45.9860846" lon="13.6672925"><ele>338.0</ele><time>2026-04-08T10:32:08.158Z</time></trkpt><trkpt lat="45.9862678" lon="13.667557"><ele>338.0</ele><time>2026-04-08T10:32:09.162Z</time></trkpt><trkpt lat="45.9864721" lon="13.6678198"><ele>337.0</ele><time>2026-04-08T10:32:10.163Z</time></trkpt><trkpt lat="45.9866763" lon="13.6680638"><ele>336.0</ele><time>2026-04-08T10:32:11.173Z</time></trkpt><trkpt lat="45.9868809" lon="13.6682879"><ele>336.0</ele><time>2026-04-08T10:32:12.161Z</time></trkpt><trkpt lat="45.9870926" lon="13.6684992"><ele>336.0</ele><time>2026-04-08T10:32:13.162Z</time></trkpt><trkpt lat="45.9872968" lon="13.6687116"><ele>336.5</ele><time>2026-04-08T10:32:14.171Z</time></trkpt><trkpt lat="45.9874873" lon="13.6689312"><ele>337.0</ele><time>2026-04-08T10:32:15.153Z</time></trkpt><trkpt lat="45.987666" lon="13.6691672"><ele>337.0</ele><time>2026-04-08T10:32:16.151Z</time></trkpt><trkpt lat="45.9878357" lon="13.6694401"><ele>337.0</ele><time>2026-04-08T10:32:17.234Z</time></trkpt><trkpt lat="45.9880051" lon="13.6697227"><ele>365.0</ele><time>2026-04-08T10:32:18.176Z</time></trkpt><trkpt lat="45.9885947" lon="13.6704414"><ele>365.0</ele><time>2026-04-08T10:32:21.153Z</time></trkpt><trkpt lat="45.9888279" lon="13.6705794"><ele>365.0</ele><time>2026-04-08T10:32:22.18Z</time></trkpt><trkpt lat="45.9890461" lon="13.6707054"><ele>363.0</ele><time>2026-04-08T10:32:23.167Z</time></trkpt><trkpt lat="45.9892457" lon="13.6708324"><ele>361.0</ele><time>2026-04-08T10:32:24.164Z</time></trkpt><trkpt lat="45.9894215" lon="13.670977"><ele>359.0</ele><time>2026-04-08T10:32:25.158Z</time></trkpt><trkpt lat="45.9895715" lon="13.6711347"><ele>359.0</ele><time>2026-04-08T10:32:26.155Z</time></trkpt><trkpt lat="45.9896966" lon="13.6712939"><ele>359.0</ele><time>2026-04-08T10:32:27.183Z</time></trkpt><trkpt lat="45.9898058" lon="13.6714807"><ele>359.0</ele><time>2026-04-08T10:32:28.196Z</time></trkpt><trkpt lat="45.9898927" lon="13.6717014"><ele>359.6666666666667</ele><time>2026-04-08T10:32:29.164Z</time></trkpt><trkpt lat="45.9899265" lon="13.6719415"><ele>360.3333333333333</ele><time>2026-04-08T10:32:30.164Z</time></trkpt><trkpt lat="45.9898976" lon="13.6721652"><ele>361.0</ele><time>2026-04-08T10:32:31.166Z</time></trkpt><trkpt lat="45.9898331" lon="13.6723643"><ele>361.0</ele><time>2026-04-08T10:32:32.163Z</time></trkpt><trkpt lat="45.989729" lon="13.6725316"><ele>361.0</ele><time>2026-04-08T10:32:33.155Z</time></trkpt><trkpt lat="45.9895775" lon="13.6726696"><ele>361.0</ele><time>2026-04-08T10:32:34.194Z</time></trkpt><trkpt lat="45.9893794" lon="13.6728153"><ele>365.0</ele><time>2026-04-08T10:32:35.154Z</time></trkpt><trkpt lat="45.9891597" lon="13.6729696"><ele>369.0</ele><time>2026-04-08T10:32:36.168Z</time></trkpt><trkpt lat="45.9889435" lon="13.6731513"><ele>369.0</ele><time>2026-04-08T10:32:37.159Z</time></trkpt><trkpt lat="45.9887381" lon="13.6733897"><ele>369.0</ele><time>2026-04-08T10:32:38.158Z</time></trkpt><trkpt lat="45.988539" lon="13.67369"><ele>375.5</ele><time>2026-04-08T10:32:39.158Z</time></trkpt><trkpt lat="45.9883352" lon="13.6740249"><ele>382.0</ele><time>2026-04-08T10:32:40.163Z</time></trkpt><trkpt lat="45.9881271" lon="13.6743554"><ele>373.5</ele><time>2026-04-08T10:32:41.169Z</time></trkpt><trkpt lat="45.9879419" lon="13.6746727"><ele>365.0</ele><time>2026-04-08T10:32:42.151Z</time></trkpt><trkpt lat="45.987782" lon="13.6749812"><ele>359.5</ele><time>2026-04-08T10:32:43.178Z</time></trkpt><trkpt lat="45.9876494" lon="13.675289"><ele>354.0</ele><time>2026-04-08T10:32:44.178Z</time></trkpt><trkpt lat="45.9875277" lon="13.6755916"><ele>359.6666666666667</ele><time>2026-04-08T10:32:45.157Z</time></trkpt><trkpt lat="45.9874104" lon="13.6758583"><ele>365.33333333333337</ele><time>2026-04-08T10:32:46.149Z</time></trkpt><trkpt lat="45.9872819" lon="13.6761176"><ele>371.0</ele><time>2026-04-08T10:32:47.181Z</time></trkpt><trkpt lat="45.9871248" lon="13.6763625"><ele>371.0</ele><time>2026-04-08T10:32:48.167Z</time></trkpt><trkpt lat="45.9869397" lon="13.6765995"><ele>371.0</ele><time>2026-04-08T10:32:49.17Z</time></trkpt><trkpt lat="45.98675" lon="13.6768419"><ele>374.5</ele><time>2026-04-08T10:32:50.154Z</time></trkpt><trkpt lat="45.9865544" lon="13.6770868"><ele>378.0</ele><time>2026-04-08T10:32:51.16Z</time></trkpt><trkpt lat="45.98635" lon="13.6773186"><ele>378.0</ele><time>2026-04-08T10:32:52.154Z</time></trkpt><trkpt lat="45.9861379" lon="13.6775389"><ele>378.0</ele><time>2026-04-08T10:32:53.177Z</time></trkpt><trkpt lat="45.9859147" lon="13.6777524"><ele>382.5</ele><time>2026-04-08T10:32:54.153Z</time></trkpt><trkpt lat="45.9856795" lon="13.6779571"><ele>387.0</ele><time>2026-04-08T10:32:55.157Z</time></trkpt><trkpt lat="45.9852117" lon="13.6783149"><ele>385.0</ele><time>2026-04-08T10:32:57.158Z</time></trkpt><trkpt lat="45.9849786" lon="13.6784774"><ele>383.0</ele><time>2026-04-08T10:32:58.166Z</time></trkpt><trkpt lat="45.9847503" lon="13.6786345"><ele>383.0</ele><time>2026-04-08T10:32:59.208Z</time></trkpt><trkpt lat="45.984287" lon="13.678943"><ele>401.0</ele><time>2026-04-08T10:33:01.161Z</time></trkpt><trkpt lat="45.9838134" lon="13.6793037"><ele>392.0</ele><time>2026-04-08T10:33:03.168Z</time></trkpt><trkpt lat="45.9835893" lon="13.6795328"><ele>383.0</ele><time>2026-04-08T10:33:04.179Z</time></trkpt><trkpt lat="45.9833722" lon="13.679796"><ele>388.0</ele><time>2026-04-08T10:33:05.162Z</time></trkpt><trkpt lat="45.9831601" lon="13.6800825"><ele>393.0</ele><time>2026-04-08T10:33:06.154Z</time></trkpt><trkpt lat="45.9829513" lon="13.6803986"><ele>393.0</ele><time>2026-04-08T10:33:07.148Z</time></trkpt><trkpt lat="45.9827434" lon="13.6807205"><ele>393.0</ele><time>2026-04-08T10:33:08.153Z</time></trkpt><trkpt lat="45.9825248" lon="13.6810283"><ele>401.0</ele><time>2026-04-08T10:33:09.17Z</time></trkpt><trkpt lat="45.9822887" lon="13.6813273"><ele>409.0</ele><time>2026-04-08T10:33:10.17Z</time></trkpt><trkpt lat="45.9820501" lon="13.6816235"><ele>409.0</ele><time>2026-04-08T10:33:11.159Z</time></trkpt><trkpt lat="45.9818276" lon="13.6819008"><ele>409.0</ele><time>2026-04-08T10:33:12.183Z</time></trkpt><trkpt lat="45.9816184" lon="13.682159"><ele>417.5</ele><time>2026-04-08T10:33:13.178Z</time></trkpt><trkpt lat="45.981427" lon="13.6824115"><ele>426.0</ele><time>2026-04-08T10:33:14.157Z</time></trkpt><trkpt lat="45.9812618" lon="13.6826724"><ele>423.0</ele><time>2026-04-08T10:33:15.266Z</time></trkpt><trkpt lat="45.9810038" lon="13.6832499"><ele>423.0</ele><time>2026-04-08T10:33:17.151Z</time></trkpt><trkpt lat="45.9809254" lon="13.6835638"><ele>423.0</ele><time>2026-04-08T10:33:18.156Z</time></trkpt><trkpt lat="45.9808793" lon="13.6839064"><ele>426.5</ele><time>2026-04-08T10:33:19.17Z</time></trkpt><trkpt lat="45.9808856" lon="13.6842671"><ele>430.0</ele><time>2026-04-08T10:33:20.168Z</time></trkpt><trkpt lat="45.9809246" lon="13.6846229"><ele>432.5</ele><time>2026-04-08T10:33:21.223Z</time></trkpt><trkpt lat="45.9809897" lon="13.6849645"><ele>435.0</ele><time>2026-04-08T10:33:22.162Z</time></trkpt><trkpt lat="45.9810644" lon="13.6853042"><ele>435.0</ele><time>2026-04-08T10:33:23.168Z</time></trkpt><trkpt lat="45.981137" lon="13.6856245"><ele>435.0</ele><time>2026-04-08T10:33:24.166Z</time></trkpt><trkpt lat="45.9811931" lon="13.6859273"><ele>435.66666666666663</ele><time>2026-04-08T10:33:25.154Z</time></trkpt><trkpt lat="45.9812502" lon="13.6862239"><ele>436.3333333333333</ele><time>2026-04-08T10:33:26.165Z</time></trkpt><trkpt lat="45.9813123" lon="13.6865236"><ele>437.0</ele><time>2026-04-08T10:33:27.161Z</time></trkpt><trkpt lat="45.9813948" lon="13.6868273"><ele>437.3333333333333</ele><time>2026-04-08T10:33:28.167Z</time></trkpt><trkpt lat="45.9814875" lon="13.68711"><ele>437.66666666666663</ele><time>2026-04-08T10:33:29.164Z</time></trkpt><trkpt lat="45.9815967" lon="13.6873629"><ele>438.0</ele><time>2026-04-08T10:33:30.171Z</time></trkpt><trkpt lat="45.9817255" lon="13.6876059"><ele>437.0</ele><time>2026-04-08T10:33:31.165Z</time></trkpt><trkpt lat="45.9818622" lon="13.6878236"><ele>436.0</ele><time>2026-04-08T10:33:32.155Z</time></trkpt><trkpt lat="45.9820104" lon="13.6880186"><ele>435.0</ele><time>2026-04-08T10:33:33.17Z</time></trkpt><trkpt lat="45.9821856" lon="13.6882063"><ele>435.0</ele><time>2026-04-08T10:33:34.164Z</time></trkpt><trkpt lat="45.9823906" lon="13.6883894"><ele>435.0</ele><time>2026-04-08T10:33:35.176Z</time></trkpt><trkpt lat="45.9826087" lon="13.6885711"><ele>435.0</ele><time>2026-04-08T10:33:36.172Z</time></trkpt><trkpt lat="45.98283" lon="13.6887575"><ele>435.0</ele><time>2026-04-08T10:33:37.165Z</time></trkpt><trkpt lat="45.9830449" lon="13.6889452"><ele>435.0</ele><time>2026-04-08T10:33:38.148Z</time></trkpt><trkpt lat="45.9832485" lon="13.6891368"><ele>435.0</ele><time>2026-04-08T10:33:39.16Z</time></trkpt><trkpt lat="45.9834394" lon="13.6893331"><ele>437.5</ele><time>2026-04-08T10:33:40.192Z</time></trkpt><trkpt lat="45.9836222" lon="13.689531"><ele>440.0</ele><time>2026-04-08T10:33:41.156Z</time></trkpt><trkpt lat="45.9837972" lon="13.6897282"><ele>440.0</ele><time>2026-04-08T10:33:42.153Z</time></trkpt><trkpt lat="45.9839589" lon="13.6899307"><ele>440.0</ele><time>2026-04-08T10:33:43.163Z</time></trkpt><trkpt lat="45.9841048" lon="13.6901368"><ele>440.0</ele><time>2026-04-08T10:33:44.153Z</time></trkpt><trkpt lat="45.9842248" lon="13.6903592"><ele>442.0</ele><time>2026-04-08T10:33:45.182Z</time></trkpt><trkpt lat="45.9844223" lon="13.6908517"><ele>444.0</ele><time>2026-04-08T10:33:47.169Z</time></trkpt><trkpt lat="45.9845144" lon="13.6911038"><ele>444.0</ele><time>2026-04-08T10:33:48.17Z</time></trkpt><trkpt lat="45.9846924" lon="13.6915784"><ele>444.0</ele><time>2026-04-08T10:33:50.151Z</time></trkpt><trkpt lat="45.9847685" lon="13.6918019"><ele>445.0</ele><time>2026-04-08T10:33:51.194Z</time></trkpt><trkpt lat="45.9848383" lon="13.6920112"><ele>446.0</ele><time>2026-04-08T10:33:52.17Z</time></trkpt><trkpt lat="45.9848985" lon="13.6922079"><ele>447.0</ele><time>2026-04-08T10:33:53.156Z</time></trkpt><trkpt lat="45.984953" lon="13.6923872"><ele>448.0</ele><time>2026-04-08T10:33:54.157Z</time></trkpt><trkpt lat="45.9850124" lon="13.6925477"><ele>448.59999999999997</ele><time>2026-04-08T10:33:55.178Z</time></trkpt><trkpt lat="45.985065" lon="13.6926955"><ele>449.19999999999993</ele><time>2026-04-08T10:33:56.151Z</time></trkpt><trkpt lat="45.9851135" lon="13.6928302"><ele>449.8</ele><time>2026-04-08T10:33:57.196Z</time></trkpt><trkpt lat="45.9851641" lon="13.6929542"><ele>450.4</ele><time>2026-04-08T10:33:58.147Z</time></trkpt><trkpt lat="45.9852086" lon="13.6930759"><ele>451.0</ele><time>2026-04-08T10:33:59.193Z</time></trkpt><trkpt lat="45.9852498" lon="13.6931941"><ele>451.0</ele><time>2026-04-08T10:34:00.162Z</time></trkpt><trkpt lat="45.9852891" lon="13.6933105"><ele>451.0</ele><time>2026-04-08T10:34:01.169Z</time></trkpt><trkpt lat="45.9853576" lon="13.6935469"><ele>451.0</ele><time>2026-04-08T10:34:03.15Z</time></trkpt><trkpt lat="45.9853808" lon="13.6936455"><ele>451.0</ele><time>2026-04-08T10:34:04.158Z</time></trkpt><trkpt lat="45.9854031" lon="13.6937774"><ele>451.0</ele><time>2026-04-08T10:34:06.164Z</time></trkpt><trkpt lat="45.9854094" lon="13.6938684"><ele>451.00000000000006</ele><time>2026-04-08T10:34:09.167Z</time></trkpt><trkpt lat="45.9853674" lon="13.6937256"><ele>451.0</ele><time>2026-04-08T10:34:14.166Z</time></trkpt><trkpt lat="45.98535" lon="13.6936116"><ele>451.0</ele><time>2026-04-08T10:34:15.162Z</time></trkpt><trkpt lat="45.9853287" lon="13.6934964"><ele>451.0</ele><time>2026-04-08T10:34:16.156Z</time></trkpt><trkpt lat="45.9853027" lon="13.6933764"><ele>451.00000000000006</ele><time>2026-04-08T10:34:17.162Z</time></trkpt><trkpt lat="45.9852665" lon="13.6932627"><ele>451.0</ele><time>2026-04-08T10:34:18.163Z</time></trkpt><trkpt lat="45.9852357" lon="13.6931515"><ele>451.00000000000006</ele><time>2026-04-08T10:34:19.165Z</time></trkpt><trkpt lat="45.9851994" lon="13.6930451"><ele>451.0</ele><time>2026-04-08T10:34:20.163Z</time></trkpt><trkpt lat="45.9851621" lon="13.6929417"><ele>451.0</ele><time>2026-04-08T10:34:21.187Z</time></trkpt><trkpt lat="45.9851252" lon="13.6928436"><ele>451.0</ele><time>2026-04-08T10:34:22.166Z</time></trkpt><trkpt lat="45.9850907" lon="13.6927446"><ele>451.00000000000006</ele><time>2026-04-08T10:34:23.153Z</time></trkpt><trkpt lat="45.9850631" lon="13.6926521"><ele>451.0</ele><time>2026-04-08T10:34:24.174Z</time></trkpt><trkpt lat="45.985022" lon="13.6925314"><ele>451.0</ele><time>2026-04-08T10:34:26.167Z</time></trkpt><trkpt lat="45.9850473" lon="13.6926471"><ele>451.0</ele><time>2026-04-08T10:34:37.184Z</time></trkpt><trkpt lat="45.9850899" lon="13.6927567"><ele>451.0</ele><time>2026-04-08T10:34:38.179Z</time></trkpt><trkpt lat="45.9851363" lon="13.6928989"><ele>451.0</ele><time>2026-04-08T10:34:39.159Z</time></trkpt><trkpt lat="45.985253" lon="13.6932446"><ele>451.0</ele><time>2026-04-08T10:34:41.175Z</time></trkpt><trkpt lat="45.9853188" lon="13.6934374"><ele>451.0</ele><time>2026-04-08T10:34:42.173Z</time></trkpt><trkpt lat="45.9853892" lon="13.6936451"><ele>451.0</ele><time>2026-04-08T10:34:43.202Z</time></trkpt><trkpt lat="45.9854656" lon="13.693875"><ele>451.6666666666667</ele><time>2026-04-08T10:34:44.154Z</time></trkpt><trkpt lat="45.9855402" lon="13.694118"><ele>452.33333333333337</ele><time>2026-04-08T10:34:45.166Z</time></trkpt><trkpt lat="45.9856107" lon="13.6943645"><ele>453.0</ele><time>2026-04-08T10:34:46.172Z</time></trkpt><trkpt lat="45.9856718" lon="13.6946044"><ele>454.0</ele><time>2026-04-08T10:34:47.158Z</time></trkpt><trkpt lat="45.9857193" lon="13.6948366"><ele>455.0</ele><time>2026-04-08T10:34:48.153Z</time></trkpt><trkpt lat="45.9857603" lon="13.6950675"><ele>456.0</ele><time>2026-04-08T10:34:49.165Z</time></trkpt><trkpt lat="45.9858015" lon="13.6952948"><ele>454.5</ele><time>2026-04-08T10:34:50.19Z</time></trkpt><trkpt lat="45.9858455" lon="13.6955196"><ele>453.0</ele><time>2026-04-08T10:34:51.196Z</time></trkpt><trkpt lat="45.985944" lon="13.6959624"><ele>456.0</ele><time>2026-04-08T10:34:53.171Z</time></trkpt><trkpt lat="45.9860251" lon="13.6961731"><ele>459.0</ele><time>2026-04-08T10:34:54.163Z</time></trkpt><trkpt lat="45.9861221" lon="13.6963525"><ele>462.0</ele><time>2026-04-08T10:34:55.166Z</time></trkpt><trkpt lat="45.9862212" lon="13.6965053"><ele>462.0</ele><time>2026-04-08T10:34:56.175Z</time></trkpt><trkpt lat="45.9863213" lon="13.6966371"><ele>462.0</ele><time>2026-04-08T10:34:57.161Z</time></trkpt><trkpt lat="45.9864276" lon="13.6967656"><ele>462.0</ele><time>2026-04-08T10:34:58.15Z</time></trkpt><trkpt lat="45.986534" lon="13.696887"><ele>462.0</ele><time>2026-04-08T10:34:59.163Z</time></trkpt><trkpt lat="45.9866401" lon="13.6970036"><ele>463.25</ele><time>2026-04-08T10:35:00.173Z</time></trkpt><trkpt lat="45.9867412" lon="13.6971254"><ele>464.5</ele><time>2026-04-08T10:35:01.155Z</time></trkpt><trkpt lat="45.9868447" lon="13.697242"><ele>465.75</ele><time>2026-04-08T10:35:02.15Z</time></trkpt><trkpt lat="45.9869433" lon="13.6973586"><ele>467.0</ele><time>2026-04-08T10:35:03.174Z</time></trkpt><trkpt lat="45.9870494" lon="13.6974794"><ele>467.0</ele><time>2026-04-08T10:35:04.164Z</time></trkpt><trkpt lat="45.987156" lon="13.6976052"><ele>467.0</ele><time>2026-04-08T10:35:05.159Z</time></trkpt><trkpt lat="45.9872633" lon="13.6977364"><ele>467.0</ele><time>2026-04-08T10:35:06.161Z</time></trkpt><trkpt lat="45.9873721" lon="13.6978755"><ele>467.0</ele><time>2026-04-08T10:35:07.171Z</time></trkpt><trkpt lat="45.9874789" lon="13.6980173"><ele>470.3333333333333</ele><time>2026-04-08T10:35:08.162Z</time></trkpt><trkpt lat="45.9875828" lon="13.6981623"><ele>473.66666666666663</ele><time>2026-04-08T10:35:09.159Z</time></trkpt><trkpt lat="45.9876907" lon="13.6983166"><ele>477.0</ele><time>2026-04-08T10:35:10.171Z</time></trkpt><trkpt lat="45.987807" lon="13.6984801"><ele>479.33333333333337</ele><time>2026-04-08T10:35:11.17Z</time></trkpt><trkpt lat="45.9879335" lon="13.6986503"><ele>481.6666666666667</ele><time>2026-04-08T10:35:12.159Z</time></trkpt><trkpt lat="45.9880709" lon="13.6988319"><ele>484.0</ele><time>2026-04-08T10:35:13.151Z</time></trkpt><trkpt lat="45.9882099" lon="13.699023"><ele>488.0</ele><time>2026-04-08T10:35:14.153Z</time></trkpt><trkpt lat="45.9883508" lon="13.6992119"><ele>492.0</ele><time>2026-04-08T10:35:15.16Z</time></trkpt><trkpt lat="45.9884849" lon="13.6993976"><ele>496.0</ele><time>2026-04-08T10:35:16.162Z</time></trkpt><trkpt lat="45.9886048" lon="13.6995868"><ele>497.0</ele><time>2026-04-08T10:35:17.16Z</time></trkpt><trkpt lat="45.9887057" lon="13.6997968"><ele>498.0</ele><time>2026-04-08T10:35:18.157Z</time></trkpt><trkpt lat="45.9887853" lon="13.700029"><ele>499.0</ele><time>2026-04-08T10:35:19.152Z</time></trkpt><trkpt lat="45.9888407" lon="13.7002872"><ele>500.6666666666667</ele><time>2026-04-08T10:35:20.166Z</time></trkpt><trkpt lat="45.9888477" lon="13.7005777"><ele>502.33333333333337</ele><time>2026-04-08T10:35:21.155Z</time></trkpt><trkpt lat="45.9888383" lon="13.700873"><ele>504.0</ele><time>2026-04-08T10:35:22.167Z</time></trkpt><trkpt lat="45.9888251" lon="13.7011778"><ele>508.5</ele><time>2026-04-08T10:35:23.161Z</time></trkpt><trkpt lat="45.988812" lon="13.7015033"><ele>513.0</ele><time>2026-04-08T10:35:24.17Z</time></trkpt><trkpt lat="45.9888061" lon="13.7018382"><ele>513.0</ele><time>2026-04-08T10:35:25.165Z</time></trkpt><trkpt lat="45.9888007" lon="13.7021762"><ele>513.0</ele><time>2026-04-08T10:35:26.176Z</time></trkpt><trkpt lat="45.988799" lon="13.7024913"><ele>522.0</ele><time>2026-04-08T10:35:27.158Z</time></trkpt><trkpt lat="45.98878" lon="13.7033341"><ele>523.3333333333334</ele><time>2026-04-08T10:35:30.167Z</time></trkpt><trkpt lat="45.9887487" lon="13.7036101"><ele>524.6666666666667</ele><time>2026-04-08T10:35:31.171Z</time></trkpt><trkpt lat="45.9886978" lon="13.7038752"><ele>526.0</ele><time>2026-04-08T10:35:32.186Z</time></trkpt><trkpt lat="45.9886255" lon="13.7041361"><ele>526.0</ele><time>2026-04-08T10:35:33.173Z</time></trkpt><trkpt lat="45.9885412" lon="13.7043812"><ele>526.0</ele><time>2026-04-08T10:35:34.16Z</time></trkpt><trkpt lat="45.988435" lon="13.7045968"><ele>526.0</ele><time>2026-04-08T10:35:35.154Z</time></trkpt><trkpt lat="45.9883173" lon="13.7047948"><ele>525.3333333333334</ele><time>2026-04-08T10:35:36.151Z</time></trkpt><trkpt lat="45.9881833" lon="13.7049652"><ele>524.6666666666666</ele><time>2026-04-08T10:35:37.152Z</time></trkpt><trkpt lat="45.988027" lon="13.7051073"><ele>524.0</ele><time>2026-04-08T10:35:38.153Z</time></trkpt><trkpt lat="45.9878556" lon="13.7052358"><ele>535.5</ele><time>2026-04-08T10:35:39.169Z</time></trkpt><trkpt lat="45.9875186" lon="13.7053781"><ele>547.0</ele><time>2026-04-08T10:35:41.181Z</time></trkpt><trkpt lat="45.9873414" lon="13.7053695"><ele>547.0</ele><time>2026-04-08T10:35:42.159Z</time></trkpt><trkpt lat="45.9871558" lon="13.7053335"><ele>547.0</ele><time>2026-04-08T10:35:43.16Z</time></trkpt><trkpt lat="45.9869526" lon="13.705322"><ele>547.0</ele><time>2026-04-08T10:35:44.161Z</time></trkpt><trkpt lat="45.9867284" lon="13.7053609"><ele>548.5</ele><time>2026-04-08T10:35:45.164Z</time></trkpt><trkpt lat="45.9865002" lon="13.7054215"><ele>550.0</ele><time>2026-04-08T10:35:46.151Z</time></trkpt><trkpt lat="45.986275" lon="13.7054702"><ele>550.0</ele><time>2026-04-08T10:35:47.161Z</time></trkpt><trkpt lat="45.9860741" lon="13.7055265"><ele>550.0</ele><time>2026-04-08T10:35:48.153Z</time></trkpt><trkpt lat="45.9859351" lon="13.7055704"><ele>550.0</ele><time>2026-04-08T10:35:49.163Z</time></trkpt><trkpt lat="45.9857011" lon="13.7058108"><ele>546.0</ele><time>2026-04-08T10:35:51.148Z</time></trkpt><trkpt lat="45.9856018" lon="13.7059948"><ele>542.0</ele><time>2026-04-08T10:35:52.163Z</time></trkpt><trkpt lat="45.9855002" lon="13.7062299"><ele>538.0</ele><time>2026-04-08T10:35:53.157Z</time></trkpt><trkpt lat="45.9853902" lon="13.706473"><ele>547.0</ele><time>2026-04-08T10:35:54.152Z</time></trkpt><trkpt lat="45.9852625" lon="13.7067024"><ele>556.0</ele><time>2026-04-08T10:35:55.166Z</time></trkpt><trkpt lat="45.9851367" lon="13.7069183"><ele>565.0</ele><time>2026-04-08T10:35:56.177Z</time></trkpt><trkpt lat="45.9850271" lon="13.7071362"><ele>563.6666666666667</ele><time>2026-04-08T10:35:57.168Z</time></trkpt><trkpt lat="45.9849442" lon="13.7073732"><ele>562.3333333333334</ele><time>2026-04-08T10:35:58.159Z</time></trkpt><trkpt lat="45.9848816" lon="13.707638"><ele>561.0</ele><time>2026-04-08T10:35:59.155Z</time></trkpt><trkpt lat="45.9848302" lon="13.7079003"><ele>561.0</ele><time>2026-04-08T10:36:00.165Z</time></trkpt><trkpt lat="45.98478" lon="13.7081452"><ele>561.0</ele><time>2026-04-08T10:36:01.173Z</time></trkpt><trkpt lat="45.9847308" lon="13.7083621"><ele>561.0</ele><time>2026-04-08T10:36:02.156Z</time></trkpt><trkpt lat="45.9846883" lon="13.7085375"><ele>563.0</ele><time>2026-04-08T10:36:03.153Z</time></trkpt><trkpt lat="45.9846417" lon="13.708691"><ele>565.0</ele><time>2026-04-08T10:36:04.161Z</time></trkpt><trkpt lat="45.984593" lon="13.7088332"><ele>567.0</ele><time>2026-04-08T10:36:05.203Z</time></trkpt><trkpt lat="45.9845545" lon="13.708981"><ele>569.0</ele><time>2026-04-08T10:36:06.176Z</time></trkpt><trkpt lat="45.9845165" lon="13.7091237"><ele>571.0</ele><time>2026-04-08T10:36:07.167Z</time></trkpt><trkpt lat="45.9844949" lon="13.7092835"><ele>572.75</ele><time>2026-04-08T10:36:08.172Z</time></trkpt><trkpt lat="45.984486" lon="13.7094672"><ele>574.5</ele><time>2026-04-08T10:36:09.17Z</time></trkpt><trkpt lat="45.984482" lon="13.7096682"><ele>576.25</ele><time>2026-04-08T10:36:10.167Z</time></trkpt><trkpt lat="45.9844729" lon="13.7098699"><ele>578.0</ele><time>2026-04-08T10:36:11.173Z</time></trkpt><trkpt lat="45.9844591" lon="13.7100597"><ele>578.0</ele><time>2026-04-08T10:36:12.169Z</time></trkpt><trkpt lat="45.9844412" lon="13.710232"><ele>578.0</ele><time>2026-04-08T10:36:13.167Z</time></trkpt><trkpt lat="45.9844125" lon="13.7104065"><ele>578.0</ele><time>2026-04-08T10:36:14.195Z</time></trkpt><trkpt lat="45.9843855" lon="13.7105861"><ele>578.0</ele><time>2026-04-08T10:36:15.168Z</time></trkpt><trkpt lat="45.9843459" lon="13.7107689"><ele>578.25</ele><time>2026-04-08T10:36:16.164Z</time></trkpt><trkpt lat="45.9843026" lon="13.7109538"><ele>578.5</ele><time>2026-04-08T10:36:17.177Z</time></trkpt><trkpt lat="45.9842507" lon="13.7111264"><ele>578.75</ele><time>2026-04-08T10:36:18.161Z</time></trkpt><trkpt lat="45.9841866" lon="13.7112866"><ele>579.0</ele><time>2026-04-08T10:36:19.172Z</time></trkpt><trkpt lat="45.9841157" lon="13.7114304"><ele>577.5</ele><time>2026-04-08T10:36:20.177Z</time></trkpt><trkpt lat="45.984026" lon="13.7115604"><ele>576.0</ele><time>2026-04-08T10:36:21.172Z</time></trkpt><trkpt lat="45.9839324" lon="13.7116709"><ele>574.5</ele><time>2026-04-08T10:36:22.153Z</time></trkpt><trkpt lat="45.9838271" lon="13.7117711"><ele>573.0</ele><time>2026-04-08T10:36:23.162Z</time></trkpt><trkpt lat="45.9837055" lon="13.7118605"><ele>577.6666666666666</ele><time>2026-04-08T10:36:24.166Z</time></trkpt><trkpt lat="45.9835493" lon="13.7119599"><ele>582.3333333333333</ele><time>2026-04-08T10:36:25.162Z</time></trkpt><trkpt lat="45.9833484" lon="13.7120636"><ele>587.0</ele><time>2026-04-08T10:36:26.179Z</time></trkpt><trkpt lat="45.9831409" lon="13.7121621"><ele>587.0</ele><time>2026-04-08T10:36:27.189Z</time></trkpt><trkpt lat="45.9829227" lon="13.7122672"><ele>587.0</ele><time>2026-04-08T10:36:28.17Z</time></trkpt><trkpt lat="45.9827102" lon="13.7123723"><ele>584.6666666666666</ele><time>2026-04-08T10:36:29.17Z</time></trkpt><trkpt lat="45.9824981" lon="13.7124436"><ele>582.3333333333334</ele><time>2026-04-08T10:36:30.168Z</time></trkpt><trkpt lat="45.9822976" lon="13.7124886"><ele>580.0</ele><time>2026-04-08T10:36:31.158Z</time></trkpt><trkpt lat="45.9821006" lon="13.7125337"><ele>580.0</ele><time>2026-04-08T10:36:32.167Z</time></trkpt><trkpt lat="45.9819029" lon="13.7126134"><ele>580.0</ele><time>2026-04-08T10:36:33.179Z</time></trkpt><trkpt lat="45.9817071" lon="13.7127324"><ele>580.0</ele><time>2026-04-08T10:36:34.176Z</time></trkpt><trkpt lat="45.9815049" lon="13.7128828"><ele>587.3333333333334</ele><time>2026-04-08T10:36:35.154Z</time></trkpt><trkpt lat="45.9813104" lon="13.7130408"><ele>594.6666666666666</ele><time>2026-04-08T10:36:36.156Z</time></trkpt><trkpt lat="45.9811406" lon="13.7132261"><ele>602.0</ele><time>2026-04-08T10:36:37.179Z</time></trkpt><trkpt lat="45.9810008" lon="13.7134413"><ele>604.3333333333333</ele><time>2026-04-08T10:36:38.169Z</time></trkpt><trkpt lat="45.9808677" lon="13.7136717"><ele>606.6666666666666</ele><time>2026-04-08T10:36:39.157Z</time></trkpt><trkpt lat="45.980735" lon="13.7138968"><ele>609.0</ele><time>2026-04-08T10:36:40.161Z</time></trkpt><trkpt lat="45.9805937" lon="13.7140765"><ele>609.0</ele><time>2026-04-08T10:36:41.162Z</time></trkpt><trkpt lat="45.9804153" lon="13.7142043"><ele>609.0</ele><time>2026-04-08T10:36:42.16Z</time></trkpt><trkpt lat="45.9802162" lon="13.7143099"><ele>609.0</ele><time>2026-04-08T10:36:43.182Z</time></trkpt><trkpt lat="45.9800234" lon="13.7144355"><ele>612.5</ele><time>2026-04-08T10:36:44.166Z</time></trkpt><trkpt lat="45.9798365" lon="13.7146034"><ele>616.0</ele><time>2026-04-08T10:36:45.162Z</time></trkpt><trkpt lat="45.9796323" lon="13.7147872"><ele>616.0</ele><time>2026-04-08T10:36:46.173Z</time></trkpt><trkpt lat="45.979424" lon="13.7149814"><ele>616.0</ele><time>2026-04-08T10:36:47.168Z</time></trkpt><trkpt lat="45.9792189" lon="13.7151698"><ele>618.5</ele><time>2026-04-08T10:36:48.161Z</time></trkpt><trkpt lat="45.979022" lon="13.7153614"><ele>621.0</ele><time>2026-04-08T10:36:49.172Z</time></trkpt><trkpt lat="45.9788353" lon="13.7155542"><ele>621.0</ele><time>2026-04-08T10:36:50.164Z</time></trkpt><trkpt lat="45.9786679" lon="13.7157708"><ele>621.0</ele><time>2026-04-08T10:36:51.155Z</time></trkpt><trkpt lat="45.9785199" lon="13.715972"><ele>621.0</ele><time>2026-04-08T10:36:52.16Z</time></trkpt><trkpt lat="45.9783672" lon="13.7161139"><ele>624.5</ele><time>2026-04-08T10:36:53.16Z</time></trkpt><trkpt lat="45.9780029" lon="13.7162307"><ele>628.0</ele><time>2026-04-08T10:36:55.158Z</time></trkpt><trkpt lat="45.9778225" lon="13.7162936"><ele>628.0</ele><time>2026-04-08T10:36:56.161Z</time></trkpt><trkpt lat="45.9776379" lon="13.7164248"><ele>628.0</ele><time>2026-04-08T10:36:57.168Z</time></trkpt><trkpt lat="45.9774415" lon="13.7166282"><ele>628.0</ele><time>2026-04-08T10:36:58.162Z</time></trkpt><trkpt lat="45.977253" lon="13.7168383"><ele>631.0</ele><time>2026-04-08T10:36:59.168Z</time></trkpt><trkpt lat="45.9770439" lon="13.7170376"><ele>634.0</ele><time>2026-04-08T10:37:00.171Z</time></trkpt><trkpt lat="45.9768213" lon="13.7172074"><ele>631.5</ele><time>2026-04-08T10:37:01.174Z</time></trkpt><trkpt lat="45.9766069" lon="13.7173614"><ele>629.0</ele><time>2026-04-08T10:37:02.162Z</time></trkpt><trkpt lat="45.9763887" lon="13.7175211"><ele>629.0</ele><time>2026-04-08T10:37:03.18Z</time></trkpt><trkpt lat="45.9761684" lon="13.7177012"><ele>629.0</ele><time>2026-04-08T10:37:04.162Z</time></trkpt><trkpt lat="45.9759503" lon="13.7178981"><ele>632.0</ele><time>2026-04-08T10:37:05.172Z</time></trkpt><trkpt lat="45.9757428" lon="13.7181243"><ele>635.0</ele><time>2026-04-08T10:37:06.157Z</time></trkpt><trkpt lat="45.9755573" lon="13.7183935"><ele>636.5</ele><time>2026-04-08T10:37:07.168Z</time></trkpt><trkpt lat="45.9753696" lon="13.7186733"><ele>638.0</ele><time>2026-04-08T10:37:08.168Z</time></trkpt><trkpt lat="45.9749556" lon="13.7191855"><ele>644.0</ele><time>2026-04-08T10:37:10.17Z</time></trkpt><trkpt lat="45.9747356" lon="13.719426"><ele>650.0</ele><time>2026-04-08T10:37:11.163Z</time></trkpt><trkpt lat="45.9745174" lon="13.7196489"><ele>650.0</ele><time>2026-04-08T10:37:12.169Z</time></trkpt><trkpt lat="45.9743084" lon="13.7198804"><ele>650.0</ele><time>2026-04-08T10:37:13.178Z</time></trkpt><trkpt lat="45.9739098" lon="13.7204042"><ele>650.0</ele><time>2026-04-08T10:37:15.158Z</time></trkpt><trkpt lat="45.9737179" lon="13.7206907"><ele>650.0</ele><time>2026-04-08T10:37:16.17Z</time></trkpt><trkpt lat="45.9735325" lon="13.7209794"><ele>658.0</ele><time>2026-04-08T10:37:17.181Z</time></trkpt><trkpt lat="45.9731819" lon="13.7214487"><ele>658.0</ele><time>2026-04-08T10:37:19.178Z</time></trkpt><trkpt lat="45.9729787" lon="13.7216172"><ele>658.0</ele><time>2026-04-08T10:37:20.18Z</time></trkpt><trkpt lat="45.9727676" lon="13.7217459"><ele>658.0</ele><time>2026-04-08T10:37:21.174Z</time></trkpt><trkpt lat="45.972563" lon="13.7218512"><ele>658.0</ele><time>2026-04-08T10:37:22.165Z</time></trkpt><trkpt lat="45.9723621" lon="13.7219586"><ele>658.0</ele><time>2026-04-08T10:37:23.174Z</time></trkpt><trkpt lat="45.9721731" lon="13.7221251"><ele>662.5</ele><time>2026-04-08T10:37:24.166Z</time></trkpt><trkpt lat="45.9719731" lon="13.7223427"><ele>667.0</ele><time>2026-04-08T10:37:25.169Z</time></trkpt><trkpt lat="45.9717717" lon="13.7225734"><ele>672.0</ele><time>2026-04-08T10:37:26.169Z</time></trkpt><trkpt lat="45.971579" lon="13.7228037"><ele>677.0</ele><time>2026-04-08T10:37:27.175Z</time></trkpt><trkpt lat="45.9714014" lon="13.7230293"><ele>677.0</ele><time>2026-04-08T10:37:28.18Z</time></trkpt><trkpt lat="45.9712315" lon="13.7232665"><ele>677.0</ele><time>2026-04-08T10:37:29.174Z</time></trkpt><trkpt lat="45.971078" lon="13.7235266"><ele>676.5</ele><time>2026-04-08T10:37:30.18Z</time></trkpt><trkpt lat="45.9709269" lon="13.7238068"><ele>676.0</ele><time>2026-04-08T10:37:31.214Z</time></trkpt><trkpt lat="45.9707658" lon="13.7240817"><ele>676.0</ele><time>2026-04-08T10:37:32.177Z</time></trkpt><trkpt lat="45.9706072" lon="13.7243513"><ele>676.0</ele><time>2026-04-08T10:37:33.182Z</time></trkpt><trkpt lat="45.9704636" lon="13.7245675"><ele>679.6666666666667</ele><time>2026-04-08T10:37:34.196Z</time></trkpt><trkpt lat="45.9703311" lon="13.7247534"><ele>683.3333333333334</ele><time>2026-04-08T10:37:35.174Z</time></trkpt><trkpt lat="45.9702418" lon="13.7249259"><ele>687.0</ele><time>2026-04-08T10:37:36.173Z</time></trkpt><trkpt lat="45.9701965" lon="13.7251121"><ele>689.25</ele><time>2026-04-08T10:37:37.17Z</time></trkpt><trkpt lat="45.9702067" lon="13.7253211"><ele>691.5</ele><time>2026-04-08T10:37:38.183Z</time></trkpt><trkpt lat="45.9702745" lon="13.7254982"><ele>693.75</ele><time>2026-04-08T10:37:39.182Z</time></trkpt><trkpt lat="45.9703909" lon="13.725653"><ele>696.0</ele><time>2026-04-08T10:37:40.178Z</time></trkpt><trkpt lat="45.9705515" lon="13.7258152"><ele>696.0</ele><time>2026-04-08T10:37:41.177Z</time></trkpt><trkpt lat="45.970723" lon="13.7259586"><ele>696.0</ele><time>2026-04-08T10:37:42.171Z</time></trkpt><trkpt lat="45.9709301" lon="13.7260963"><ele>696.0</ele><time>2026-04-08T10:37:43.166Z</time></trkpt><trkpt lat="45.971147" lon="13.7262401"><ele>700.5</ele><time>2026-04-08T10:37:44.166Z</time></trkpt><trkpt lat="45.9713635" lon="13.7264091"><ele>705.0</ele><time>2026-04-08T10:37:45.176Z</time></trkpt><trkpt lat="45.9715693" lon="13.7265802"><ele>650.0</ele><time>2026-04-08T10:37:46.172Z</time></trkpt><trkpt lat="45.9739098" lon="13.7204042"><ele>650.0</ele><time>2026-04-08T10:37:15.158Z</time></trkpt><trkpt lat="45.9737179" lon="13.7206907"><ele>650.0</ele><time>2026-04-08T10:37:16.17Z</time></trkpt><trkpt lat="45.9735325" lon="13.7209794"><ele>658.0</ele><time>2026-04-08T10:37:17.181Z</time></trkpt><trkpt lat="45.9731819" lon="13.7214487"><ele>658.0</ele><time>2026-04-08T10:37:19.178Z</time></trkpt><trkpt lat="45.9729787" lon="13.7216172"><ele>658.0</ele><time>2026-04-08T10:37:20.18Z</time></trkpt><trkpt lat="45.9727676" lon="13.7217459"><ele>658.0</ele><time>2026-04-08T10:37:21.174Z</time></trkpt><trkpt lat="45.972563" lon="13.7218512"><ele>658.0</ele><time>2026-04-08T10:37:22.165Z</time></trkpt><trkpt lat="45.9723621" lon="13.7219586"><ele>658.0</ele><time>2026-04-08T10:37:23.174Z</time></trkpt><trkpt lat="45.9721731" lon="13.7221251"><ele>662.5</ele><time>2026-04-08T10:37:24.166Z</time></trkpt><trkpt lat="45.9719731" lon="13.7223427"><ele>667.0</ele><time>2026-04-08T10:37:25.169Z</time></trkpt><trkpt lat="45.9717717" lon="13.7225734"><ele>672.0</ele><time>2026-04-08T10:37:26.169Z</time></trkpt><trkpt lat="45.971579" lon="13.7228037"><ele>677.0</ele><time>2026-04-08T10:37:27.175Z</time></trkpt><trkpt lat="45.9714014" lon="13.7230293"><ele>677.0</ele><time>2026-04-08T10:37:28.18Z</time></trkpt><trkpt lat="45.9712315" lon="13.7232665"><ele>677.0</ele><time>2026-04-08T10:37:29.174Z</time></trkpt><trkpt lat="45.971078" lon="13.7235266"><ele>676.5</ele><time>2026-04-08T10:37:30.18Z</time></trkpt><trkpt lat="45.9709269" lon="13.7238068"><ele>676.0</ele><time>2026-04-08T10:37:31.214Z</time></trkpt><trkpt lat="45.9707658" lon="13.7240817"><ele>676.0</ele><time>2026-04-08T10:37:32.177Z</time></trkpt><trkpt lat="45.9706072" lon="13.7243513"><ele>676.0</ele><time>2026-04-08T10:37:33.182Z</time></trkpt><trkpt lat="45.9704636" lon="13.7245675"><ele>679.6666666666667</ele><time>2026-04-08T10:37:34.196Z</time></trkpt><trkpt lat="45.9703311" lon="13.7247534"><ele>683.3333333333334</ele><time>2026-04-08T10:37:35.174Z</time></trkpt><trkpt lat="45.9702418" lon="13.7249259"><ele>687.0</ele><time>2026-04-08T10:37:36.173Z</time></trkpt><trkpt lat="45.9701965" lon="13.7251121"><ele>689.25</ele><time>2026-04-08T10:37:37.17Z</time></trkpt><trkpt lat="45.9702067" lon="13.7253211"><ele>691.5</ele><time>2026-04-08T10:37:38.183Z</time></trkpt><trkpt lat="45.9702745" lon="13.7254982"><ele>693.75</ele><time>2026-04-08T10:37:39.182Z</time></trkpt><trkpt lat="45.9703909" lon="13.725653"><ele>696.0</ele><time>2026-04-08T10:37:40.178Z</time></trkpt><trkpt lat="45.9705515" lon="13.7258152"><ele>696.0</ele><time>2026-04-08T10:37:41.177Z</time></trkpt><trkpt lat="45.970723" lon="13.7259586"><ele>696.0</ele><time>2026-04-08T10:37:42.171Z</time></trkpt><trkpt lat="45.9709301" lon="13.7260963"><ele>696.0</ele><time>2026-04-08T10:37:43.166Z</time></trkpt><trkpt lat="45.971147" lon="13.7262401"><ele>700.5</ele><time>2026-04-08T10:37:44.166Z</time></trkpt><trkpt lat="45.9713635" lon="13.7264091"><ele>705.0</ele><time>2026-04-08T10:37:45.176Z</time></trkpt><trkpt lat="45.9715693" lon="13.7265802"><ele>703.5</ele><time>2026-04-08T10:37:46.172Z</time></trkpt><trkpt lat="45.9717675" lon="13.7267756"><ele>702.0</ele><time>2026-04-08T10:37:47.178Z</time></trkpt><trkpt lat="45.9719659" lon="13.7269831"><ele>707.0</ele><time>2026-04-08T10:37:48.174Z</time></trkpt><trkpt lat="45.9721571" lon="13.7271761"><ele>712.0</ele><time>2026-04-08T10:37:49.195Z</time></trkpt><trkpt lat="45.9723577" lon="13.7273355"><ele>712.3333333333334</ele><time>2026-04-08T10:37:50.164Z</time></trkpt><trkpt lat="45.972553" lon="13.7274623"><ele>712.6666666666666</ele><time>2026-04-08T10:37:51.171Z</time></trkpt><trkpt lat="45.9727105" lon="13.7275892"><ele>713.0</ele><time>2026-04-08T10:37:52.187Z</time></trkpt><trkpt lat="45.9728517" lon="13.7277509"><ele>715.3333333333333</ele><time>2026-04-08T10:37:53.17Z</time></trkpt><trkpt lat="45.9729906" lon="13.7279481"><ele>717.6666666666666</ele><time>2026-04-08T10:37:54.189Z</time></trkpt><trkpt lat="45.9731453" lon="13.7281476"><ele>720.0</ele><time>2026-04-08T10:37:55.188Z</time></trkpt><trkpt lat="45.9733188" lon="13.7283469"><ele>719.6666666666666</ele><time>2026-04-08T10:37:56.181Z</time></trkpt><trkpt lat="45.9735106" lon="13.728534"><ele>719.3333333333333</ele><time>2026-04-08T10:37:57.17Z</time></trkpt><trkpt lat="45.9736901" lon="13.7286962"><ele>719.0</ele><time>2026-04-08T10:37:58.167Z</time></trkpt><trkpt lat="45.973849" lon="13.7288381"><ele>721.0</ele><time>2026-04-08T10:37:59.188Z</time></trkpt><trkpt lat="45.973969" lon="13.7289939"><ele>723.0</ele><time>2026-04-08T10:38:00.181Z</time></trkpt><trkpt lat="45.9740477" lon="13.7291595"><ele>725.0</ele><time>2026-04-08T10:38:01.193Z</time></trkpt><trkpt lat="45.9740753" lon="13.729353"><ele>727.0</ele><time>2026-04-08T10:38:02.171Z</time></trkpt><trkpt lat="45.9740624" lon="13.7295619"><ele>731.6666666666667</ele><time>2026-04-08T10:38:03.164Z</time></trkpt><trkpt lat="45.9740068" lon="13.7297708"><ele>736.3333333333334</ele><time>2026-04-08T10:38:04.169Z</time></trkpt><trkpt lat="45.9739033" lon="13.7299789"><ele>741.0</ele><time>2026-04-08T10:38:05.168Z</time></trkpt><trkpt lat="45.9737575" lon="13.7301901"><ele>740.3333333333334</ele><time>2026-04-08T10:38:06.173Z</time></trkpt><trkpt lat="45.9736041" lon="13.7304058"><ele>739.6666666666667</ele><time>2026-04-08T10:38:07.185Z</time></trkpt><trkpt lat="45.9734609" lon="13.7306689"><ele>739.0</ele><time>2026-04-08T10:38:08.179Z</time></trkpt><trkpt lat="45.9733466" lon="13.7309894"><ele>743.5</ele><time>2026-04-08T10:38:09.194Z</time></trkpt><trkpt lat="45.9732441" lon="13.7313361"><ele>748.0</ele><time>2026-04-08T10:38:10.193Z</time></trkpt><trkpt lat="45.9731496" lon="13.7316778"><ele>751.0</ele><time>2026-04-08T10:38:11.177Z</time></trkpt><trkpt lat="45.9730835" lon="13.7320041"><ele>754.0</ele><time>2026-04-08T10:38:12.169Z</time></trkpt><trkpt lat="45.9730277" lon="13.7322888"><ele>757.0</ele><time>2026-04-08T10:38:13.17Z</time></trkpt><trkpt lat="45.972938" lon="13.7325289"><ele>759.3333333333334</ele><time>2026-04-08T10:38:14.183Z</time></trkpt><trkpt lat="45.9728208" lon="13.7327409"><ele>761.6666666666666</ele><time>2026-04-08T10:38:15.207Z</time></trkpt><trkpt lat="45.9726832" lon="13.7329081"><ele>764.0</ele><time>2026-04-08T10:38:16.178Z</time></trkpt><trkpt lat="45.972557" lon="13.7330395"><ele>763.25</ele><time>2026-04-08T10:38:17.186Z</time></trkpt><trkpt lat="45.9724584" lon="13.7331536"><ele>762.5</ele><time>2026-04-08T10:38:18.207Z</time></trkpt><trkpt lat="45.9723973" lon="13.7332909"><ele>761.75</ele><time>2026-04-08T10:38:19.195Z</time></trkpt><trkpt lat="45.9723681" lon="13.7334628"><ele>761.0</ele><time>2026-04-08T10:38:20.183Z</time></trkpt><trkpt lat="45.9723481" lon="13.7336447"><ele>761.0</ele><time>2026-04-08T10:38:21.197Z</time></trkpt><trkpt lat="45.972363" lon="13.7338202"><ele>761.0</ele><time>2026-04-08T10:38:22.186Z</time></trkpt><trkpt lat="45.9724021" lon="13.7340032"><ele>761.0</ele><time>2026-04-08T10:38:23.193Z</time></trkpt><trkpt lat="45.9724516" lon="13.734191"><ele>761.0</ele><time>2026-04-08T10:38:24.169Z</time></trkpt><trkpt lat="45.9725197" lon="13.7343674"><ele>762.5</ele><time>2026-04-08T10:38:25.169Z</time></trkpt><trkpt lat="45.9725706" lon="13.7345531"><ele>764.0</ele><time>2026-04-08T10:38:26.172Z</time></trkpt><trkpt lat="45.9725952" lon="13.7347278"><ele>765.5</ele><time>2026-04-08T10:38:27.205Z</time></trkpt><trkpt lat="45.9725887" lon="13.7349069"><ele>767.0</ele><time>2026-04-08T10:38:28.193Z</time></trkpt><trkpt lat="45.9725648" lon="13.7350874"><ele>769.0</ele><time>2026-04-08T10:38:29.191Z</time></trkpt><trkpt lat="45.9725428" lon="13.7352807"><ele>771.0</ele><time>2026-04-08T10:38:30.19Z</time></trkpt><trkpt lat="45.9725271" lon="13.7354757"><ele>773.0</ele><time>2026-04-08T10:38:31.18Z</time></trkpt><trkpt lat="45.9725307" lon="13.7356656"><ele>775.0</ele><time>2026-04-08T10:38:32.173Z</time></trkpt><trkpt lat="45.9725599" lon="13.7358597"><ele>775.0</ele><time>2026-04-08T10:38:33.185Z</time></trkpt><trkpt lat="45.9726004" lon="13.7360521"><ele>775.0</ele><time>2026-04-08T10:38:34.183Z</time></trkpt><trkpt lat="45.9726486" lon="13.736227"><ele>775.0</ele><time>2026-04-08T10:38:35.19Z</time></trkpt><trkpt lat="45.9726992" lon="13.7363887"><ele>775.0</ele><time>2026-04-08T10:38:36.187Z</time></trkpt><trkpt lat="45.9727605" lon="13.7365332"><ele>776.25</ele><time>2026-04-08T10:38:37.172Z</time></trkpt><trkpt lat="45.9728292" lon="13.7366679"><ele>777.5</ele><time>2026-04-08T10:38:38.179Z</time></trkpt><trkpt lat="45.972897" lon="13.7368016"><ele>778.75</ele><time>2026-04-08T10:38:39.183Z</time></trkpt><trkpt lat="45.9729585" lon="13.7369415"><ele>780.0</ele><time>2026-04-08T10:38:40.19Z</time></trkpt><trkpt lat="45.9730101" lon="13.7370938"><ele>780.0</ele><time>2026-04-08T10:38:41.173Z</time></trkpt><trkpt lat="45.9730425" lon="13.7372577"><ele>780.0</ele><time>2026-04-08T10:38:42.176Z</time></trkpt><trkpt lat="45.9730544" lon="13.737427"><ele>780.0</ele><time>2026-04-08T10:38:43.189Z</time></trkpt><trkpt lat="45.9730319" lon="13.7375953"><ele>780.0</ele><time>2026-04-08T10:38:44.182Z</time></trkpt><trkpt lat="45.9729876" lon="13.7377514"><ele>780.5</ele><time>2026-04-08T10:38:45.188Z</time></trkpt><trkpt lat="45.9729338" lon="13.7378969"><ele>781.0</ele><time>2026-04-08T10:38:46.173Z</time></trkpt><trkpt lat="45.9728712" lon="13.7380414"><ele>781.5</ele><time>2026-04-08T10:38:47.171Z</time></trkpt><trkpt lat="45.9728002" lon="13.7381939"><ele>782.0</ele><time>2026-04-08T10:38:48.19Z</time></trkpt><trkpt lat="45.9727237" lon="13.7383399"><ele>782.0</ele><time>2026-04-08T10:38:49.179Z</time></trkpt><trkpt lat="45.9726472" lon="13.7384921"><ele>782.0</ele><time>2026-04-08T10:38:50.201Z</time></trkpt><trkpt lat="45.9725736" lon="13.7386431"><ele>782.0</ele><time>2026-04-08T10:38:51.193Z</time></trkpt><trkpt lat="45.9725065" lon="13.7387969"><ele>782.0</ele><time>2026-04-08T10:38:52.182Z</time></trkpt><trkpt lat="45.9724439" lon="13.7389548"><ele>782.2</ele><time>2026-04-08T10:38:53.186Z</time></trkpt><trkpt lat="45.9723795" lon="13.7391191"><ele>782.4000000000001</ele><time>2026-04-08T10:38:54.199Z</time></trkpt><trkpt lat="45.9723284" lon="13.7392745"><ele>782.5999999999999</ele><time>2026-04-08T10:38:55.191Z</time></trkpt><trkpt lat="45.9722834" lon="13.7394099"><ele>782.8</ele><time>2026-04-08T10:38:56.183Z</time></trkpt><trkpt lat="45.9722471" lon="13.7395242"><ele>783.0</ele><time>2026-04-08T10:38:57.172Z</time></trkpt><trkpt lat="45.9722194" lon="13.7396442"><ele>783.5999999999999</ele><time>2026-04-08T10:38:58.188Z</time></trkpt><trkpt lat="45.9722024" lon="13.7397701"><ele>784.1999999999999</ele><time>2026-04-08T10:38:59.191Z</time></trkpt><trkpt lat="45.9721982" lon="13.7399052"><ele>784.8</ele><time>2026-04-08T10:39:00.187Z</time></trkpt><trkpt lat="45.9722102" lon="13.7400447"><ele>785.4</ele><time>2026-04-08T10:39:01.189Z</time></trkpt><trkpt lat="45.9722327" lon="13.7401808"><ele>786.0</ele><time>2026-04-08T10:39:02.19Z</time></trkpt><trkpt lat="45.972263" lon="13.7403096"><ele>786.1999999999999</ele><time>2026-04-08T10:39:03.189Z</time></trkpt><trkpt lat="45.972299" lon="13.7404436"><ele>786.4</ele><time>2026-04-08T10:39:04.187Z</time></trkpt><trkpt lat="45.9723465" lon="13.7405675"><ele>786.6</ele><time>2026-04-08T10:39:05.195Z</time></trkpt><trkpt lat="45.9724018" lon="13.7406868"><ele>786.8</ele><time>2026-04-08T10:39:06.201Z</time></trkpt><trkpt lat="45.9724602" lon="13.740809"><ele>787.0</ele><time>2026-04-08T10:39:07.181Z</time></trkpt><trkpt lat="45.9725262" lon="13.7409306"><ele>785.8</ele><time>2026-04-08T10:39:08.204Z</time></trkpt><trkpt lat="45.9725883" lon="13.7410566"><ele>784.6</ele><time>2026-04-08T10:39:09.201Z</time></trkpt><trkpt lat="45.9726524" lon="13.7411801"><ele>783.4</ele><time>2026-04-08T10:39:10.188Z</time></trkpt><trkpt lat="45.9727155" lon="13.7412959"><ele>782.1999999999999</ele><time>2026-04-08T10:39:11.188Z</time></trkpt><trkpt lat="45.9727779" lon="13.7414149"><ele>781.0</ele><time>2026-04-08T10:39:12.174Z</time></trkpt><trkpt lat="45.9728417" lon="13.7415363"><ele>781.0</ele><time>2026-04-08T10:39:13.184Z</time></trkpt><trkpt lat="45.972906" lon="13.741659"><ele>781.0</ele><time>2026-04-08T10:39:14.198Z</time></trkpt><trkpt lat="45.9729698" lon="13.7417876"><ele>781.0</ele><time>2026-04-08T10:39:15.174Z</time></trkpt><trkpt lat="45.9730299" lon="13.7419094"><ele>781.0</ele><time>2026-04-08T10:39:16.192Z</time></trkpt><trkpt lat="45.9730988" lon="13.7420224"><ele>781.0</ele><time>2026-04-08T10:39:17.203Z</time></trkpt><trkpt lat="45.9731683" lon="13.7421234"><ele>780.8</ele><time>2026-04-08T10:39:18.189Z</time></trkpt><trkpt lat="45.9732436" lon="13.7422071"><ele>780.5999999999999</ele><time>2026-04-08T10:39:19.181Z</time></trkpt><trkpt lat="45.9733373" lon="13.7422187"><ele>780.4</ele><time>2026-04-08T10:39:20.209Z</time></trkpt><trkpt lat="45.9734482" lon="13.7421953"><ele>780.2</ele><time>2026-04-08T10:39:21.23Z</time></trkpt><trkpt lat="45.973579" lon="13.7422163"><ele>780.0</ele><time>2026-04-08T10:39:22.201Z</time></trkpt><trkpt lat="45.9737312" lon="13.7422825"><ele>778.0</ele><time>2026-04-08T10:39:23.182Z</time></trkpt><trkpt lat="45.9738698" lon="13.7423776"><ele>776.0</ele><time>2026-04-08T10:39:24.202Z</time></trkpt><trkpt lat="45.9739997" lon="13.7425117"><ele>774.0</ele><time>2026-04-08T10:39:25.182Z</time></trkpt><trkpt lat="45.9741022" lon="13.7426972"><ele>772.6666666666667</ele><time>2026-04-08T10:39:26.192Z</time></trkpt><trkpt lat="45.9741961" lon="13.7429213"><ele>771.3333333333334</ele><time>2026-04-08T10:39:27.18Z</time></trkpt><trkpt lat="45.9742951" lon="13.743147"><ele>770.0</ele><time>2026-04-08T10:39:28.21Z</time></trkpt><trkpt lat="45.9744042" lon="13.7433746"><ele>769.0</ele><time>2026-04-08T10:39:29.196Z</time></trkpt><trkpt lat="45.9745062" lon="13.7436128"><ele>768.0</ele><time>2026-04-08T10:39:30.19Z</time></trkpt><trkpt lat="45.9746987" lon="13.7440529"><ele>768.0</ele><time>2026-04-08T10:39:32.184Z</time></trkpt><trkpt lat="45.974794" lon="13.7442264"><ele>768.0</ele><time>2026-04-08T10:39:33.207Z</time></trkpt><trkpt lat="45.9749058" lon="13.7443667"><ele>768.0</ele><time>2026-04-08T10:39:34.226Z</time></trkpt><trkpt lat="45.975192" lon="13.7444738"><ele>773.5</ele><time>2026-04-08T10:39:36.213Z</time></trkpt><trkpt lat="45.975493" lon="13.744322"><ele>779.0</ele><time>2026-04-08T10:39:38.188Z</time></trkpt><trkpt lat="45.9756506" lon="13.7441924"><ele>779.0</ele><time>2026-04-08T10:39:39.184Z</time></trkpt><trkpt lat="45.9757929" lon="13.7440796"><ele>779.0</ele><time>2026-04-08T10:39:40.181Z</time></trkpt><trkpt lat="45.975915" lon="13.7440176"><ele>779.0</ele><time>2026-04-08T10:39:41.182Z</time></trkpt><trkpt lat="45.9761883" lon="13.7440184"><ele>780.3333333333334</ele><time>2026-04-08T10:39:43.26Z</time></trkpt><trkpt lat="45.9763556" lon="13.7440269"><ele>781.6666666666667</ele><time>2026-04-08T10:39:44.193Z</time></trkpt><trkpt lat="45.9765354" lon="13.7440393"><ele>783.0</ele><time>2026-04-08T10:39:45.2Z</time></trkpt><trkpt lat="45.9767157" lon="13.7440665"><ele>785.5</ele><time>2026-04-08T10:39:46.186Z</time></trkpt><trkpt lat="45.9768664" lon="13.7441155"><ele>788.0</ele><time>2026-04-08T10:39:47.182Z</time></trkpt><trkpt lat="45.976986" lon="13.7442163"><ele>790.5</ele><time>2026-04-08T10:39:48.198Z</time></trkpt><trkpt lat="45.9770994" lon="13.7443682"><ele>793.0</ele><time>2026-04-08T10:39:49.196Z</time></trkpt><trkpt lat="45.9772131" lon="13.7445217"><ele>793.3333333333333</ele><time>2026-04-08T10:39:50.194Z</time></trkpt><trkpt lat="45.9773406" lon="13.7446481"><ele>793.6666666666667</ele><time>2026-04-08T10:39:51.196Z</time></trkpt><trkpt lat="45.9774748" lon="13.7447878"><ele>794.0</ele><time>2026-04-08T10:39:52.186Z</time></trkpt><trkpt lat="45.977619" lon="13.7449394"><ele>793.0</ele><time>2026-04-08T10:39:53.19Z</time></trkpt><trkpt lat="45.9777543" lon="13.7450956"><ele>792.0</ele><time>2026-04-08T10:39:54.199Z</time></trkpt><trkpt lat="45.9778996" lon="13.7452248"><ele>791.0</ele><time>2026-04-08T10:39:55.185Z</time></trkpt><trkpt lat="45.9783908" lon="13.7454851"><ele>793.6666666666667</ele><time>2026-04-08T10:39:58.191Z</time></trkpt><trkpt lat="45.9785269" lon="13.7456568"><ele>796.3333333333333</ele><time>2026-04-08T10:39:59.2Z</time></trkpt><trkpt lat="45.9786431" lon="13.7458416"><ele>799.0</ele><time>2026-04-08T10:40:00.198Z</time></trkpt><trkpt lat="45.9787408" lon="13.7459931"><ele>799.0</ele><time>2026-04-08T10:40:01.19Z</time></trkpt><trkpt lat="45.9788972" lon="13.7463034"><ele>799.0</ele><time>2026-04-08T10:40:03.19Z</time></trkpt><trkpt lat="45.9788998" lon="13.7465239"><ele>799.0</ele><time>2026-04-08T10:40:04.198Z</time></trkpt><trkpt lat="45.9788962" lon="13.7469879"><ele>799.0</ele><time>2026-04-08T10:40:06.231Z</time></trkpt><trkpt lat="45.9789187" lon="13.7472254"><ele>799.0</ele><time>2026-04-08T10:40:07.202Z</time></trkpt><trkpt lat="45.9789519" lon="13.7474182"><ele>799.0</ele><time>2026-04-08T10:40:08.188Z</time></trkpt><trkpt lat="45.9789732" lon="13.7475904"><ele>799.0</ele><time>2026-04-08T10:40:09.188Z</time></trkpt><trkpt lat="45.9789446" lon="13.7477535"><ele>799.0</ele><time>2026-04-08T10:40:10.205Z</time></trkpt><trkpt lat="45.9788583" lon="13.7479198"><ele>799.0</ele><time>2026-04-08T10:40:11.198Z</time></trkpt><trkpt lat="45.9787334" lon="13.7480661"><ele>799.0</ele><time>2026-04-08T10:40:12.194Z</time></trkpt><trkpt lat="45.9786043" lon="13.748231"><ele>799.0</ele><time>2026-04-08T10:40:13.192Z</time></trkpt><trkpt lat="45.9784978" lon="13.7484367"><ele>799.0</ele><time>2026-04-08T10:40:14.205Z</time></trkpt><trkpt lat="45.9784099" lon="13.7486861"><ele>799.0</ele><time>2026-04-08T10:40:15.196Z</time></trkpt><trkpt lat="45.9783497" lon="13.7489436"><ele>798.3333333333333</ele><time>2026-04-08T10:40:16.182Z</time></trkpt><trkpt lat="45.9783095" lon="13.7491818"><ele>797.6666666666667</ele><time>2026-04-08T10:40:17.202Z</time></trkpt><trkpt lat="45.9783018" lon="13.749399"><ele>797.0</ele><time>2026-04-08T10:40:18.193Z</time></trkpt><trkpt lat="45.978341" lon="13.7495994"><ele>795.0</ele><time>2026-04-08T10:40:19.207Z</time></trkpt><trkpt lat="45.9784191" lon="13.7497728"><ele>793.0</ele><time>2026-04-08T10:40:20.201Z</time></trkpt><trkpt lat="45.9785398" lon="13.7498938"><ele>791.0</ele><time>2026-04-08T10:40:21.194Z</time></trkpt><trkpt lat="45.9786933" lon="13.7499475"><ele>789.0</ele><time>2026-04-08T10:40:22.2Z</time></trkpt><trkpt lat="45.9788524" lon="13.7500071"><ele>787.5</ele><time>2026-04-08T10:40:23.211Z</time></trkpt><trkpt lat="45.9791396" lon="13.7502932"><ele>786.0</ele><time>2026-04-08T10:40:25.204Z</time></trkpt><trkpt lat="45.979277" lon="13.7505279"><ele>791.6666666666667</ele><time>2026-04-08T10:40:26.2Z</time></trkpt><trkpt lat="45.9793965" lon="13.7507934"><ele>797.3333333333334</ele><time>2026-04-08T10:40:27.186Z</time></trkpt><trkpt lat="45.9794982" lon="13.751067"><ele>803.0</ele><time>2026-04-08T10:40:28.201Z</time></trkpt><trkpt lat="45.9796947" lon="13.751607"><ele>803.0</ele><time>2026-04-08T10:40:30.194Z</time></trkpt><trkpt lat="45.9798177" lon="13.75183"><ele>803.0</ele><time>2026-04-08T10:40:31.193Z</time></trkpt><trkpt lat="45.9799571" lon="13.7520202"><ele>803.0</ele><time>2026-04-08T10:40:32.199Z</time></trkpt><trkpt lat="45.9801264" lon="13.7521753"><ele>804.3333333333334</ele><time>2026-04-08T10:40:33.187Z</time></trkpt><trkpt lat="45.9803119" lon="13.752305"><ele>805.6666666666667</ele><time>2026-04-08T10:40:34.195Z</time></trkpt><trkpt lat="45.9805044" lon="13.7524042"><ele>807.0</ele><time>2026-04-08T10:40:35.203Z</time></trkpt><trkpt lat="45.9806843" lon="13.7524814"><ele>807.0</ele><time>2026-04-08T10:40:36.201Z</time></trkpt><trkpt lat="45.9808389" lon="13.7525888"><ele>807.0</ele><time>2026-04-08T10:40:37.201Z</time></trkpt><trkpt lat="45.9809693" lon="13.7527619"><ele>807.0</ele><time>2026-04-08T10:40:38.191Z</time></trkpt><trkpt lat="45.9811038" lon="13.7529841"><ele>809.0</ele><time>2026-04-08T10:40:39.196Z</time></trkpt><trkpt lat="45.9812404" lon="13.7532246"><ele>811.0</ele><time>2026-04-08T10:40:40.219Z</time></trkpt><trkpt lat="45.981391" lon="13.7534633"><ele>813.0</ele><time>2026-04-08T10:40:41.197Z</time></trkpt><trkpt lat="45.9815424" lon="13.7536736"><ele>816.6666666666667</ele><time>2026-04-08T10:40:42.201Z</time></trkpt><trkpt lat="45.9816864" lon="13.7538495"><ele>820.3333333333334</ele><time>2026-04-08T10:40:43.213Z</time></trkpt><trkpt lat="45.9818221" lon="13.7540634"><ele>824.0</ele><time>2026-04-08T10:40:44.202Z</time></trkpt><trkpt lat="45.9819369" lon="13.7543321"><ele>823.0</ele><time>2026-04-08T10:40:45.202Z</time></trkpt><trkpt lat="45.982025" lon="13.7546425"><ele>822.0</ele><time>2026-04-08T10:40:46.198Z</time></trkpt><trkpt lat="45.9820885" lon="13.7549545"><ele>823.0</ele><time>2026-04-08T10:40:47.201Z</time></trkpt><trkpt lat="45.9821586" lon="13.7552131"><ele>824.0</ele><time>2026-04-08T10:40:48.199Z</time></trkpt><trkpt lat="45.9822346" lon="13.7554346"><ele>825.0</ele><time>2026-04-08T10:40:49.193Z</time></trkpt><trkpt lat="45.9823281" lon="13.7555976"><ele>825.0</ele><time>2026-04-08T10:40:50.198Z</time></trkpt><trkpt lat="45.9824577" lon="13.7557233"><ele>825.0</ele><time>2026-04-08T10:40:51.198Z</time></trkpt><trkpt lat="45.9826082" lon="13.7558144"><ele>825.0</ele><time>2026-04-08T10:40:52.204Z</time></trkpt><trkpt lat="45.9827908" lon="13.7558898"><ele>825.3333333333333</ele><time>2026-04-08T10:40:53.196Z</time></trkpt><trkpt lat="45.9829649" lon="13.7559981"><ele>825.6666666666666</ele><time>2026-04-08T10:40:54.198Z</time></trkpt><trkpt lat="45.9831384" lon="13.7561284"><ele>826.0</ele><time>2026-04-08T10:40:55.199Z</time></trkpt><trkpt lat="45.983299" lon="13.756284"><ele>831.3333333333333</ele><time>2026-04-08T10:40:56.198Z</time></trkpt><trkpt lat="45.9834543" lon="13.7564657"><ele>836.6666666666667</ele><time>2026-04-08T10:40:57.186Z</time></trkpt><trkpt lat="45.9835989" lon="13.7566387"><ele>842.0</ele><time>2026-04-08T10:40:58.199Z</time></trkpt><trkpt lat="45.9837345" lon="13.7567752"><ele>842.25</ele><time>2026-04-08T10:40:59.191Z</time></trkpt><trkpt lat="45.983852" lon="13.7568823"><ele>842.5</ele><time>2026-04-08T10:41:00.191Z</time></trkpt><trkpt lat="45.9839425" lon="13.7570075"><ele>842.75</ele><time>2026-04-08T10:41:01.203Z</time></trkpt><trkpt lat="45.9840097" lon="13.7571958"><ele>843.0</ele><time>2026-04-08T10:41:02.196Z</time></trkpt><trkpt lat="45.9840802" lon="13.7574171"><ele>843.0</ele><time>2026-04-08T10:41:03.202Z</time></trkpt><trkpt lat="45.9841642" lon="13.757626"><ele>843.0</ele><time>2026-04-08T10:41:04.203Z</time></trkpt><trkpt lat="45.9842775" lon="13.7578061"><ele>843.0</ele><time>2026-04-08T10:41:05.193Z</time></trkpt><trkpt lat="45.9843736" lon="13.7579632"><ele>842.75</ele><time>2026-04-08T10:41:06.203Z</time></trkpt><trkpt lat="45.9844354" lon="13.7581494"><ele>842.5</ele><time>2026-04-08T10:41:07.197Z</time></trkpt><trkpt lat="45.9844704" lon="13.7583515"><ele>842.25</ele><time>2026-04-08T10:41:08.218Z</time></trkpt><trkpt lat="45.9845173" lon="13.7585227"><ele>842.0</ele><time>2026-04-08T10:41:09.214Z</time></trkpt><trkpt lat="45.984627" lon="13.7586639"><ele>841.6666666666667</ele><time>2026-04-08T10:41:10.212Z</time></trkpt><trkpt lat="45.9847642" lon="13.7587765"><ele>841.3333333333333</ele><time>2026-04-08T10:41:11.204Z</time></trkpt><trkpt lat="45.9849105" lon="13.75888"><ele>841.0</ele><time>2026-04-08T10:41:12.192Z</time></trkpt><trkpt lat="45.985046" lon="13.7590017"><ele>841.0</ele><time>2026-04-08T10:41:13.202Z</time></trkpt><trkpt lat="45.9851577" lon="13.7591824"><ele>841.0</ele><time>2026-04-08T10:41:14.204Z</time></trkpt><trkpt lat="45.9852202" lon="13.7594023"><ele>841.0</ele><time>2026-04-08T10:41:15.192Z</time></trkpt><trkpt lat="45.9852781" lon="13.7595851"><ele>840.75</ele><time>2026-04-08T10:41:16.201Z</time></trkpt><trkpt lat="45.9853516" lon="13.7597336"><ele>840.5</ele><time>2026-04-08T10:41:17.193Z</time></trkpt><trkpt lat="45.9854534" lon="13.7598668"><ele>840.25</ele><time>2026-04-08T10:41:18.192Z</time></trkpt><trkpt lat="45.9856001" lon="13.7599626"><ele>840.0</ele><time>2026-04-08T10:41:19.202Z</time></trkpt><trkpt lat="45.9857645" lon="13.7600069"><ele>841.3333333333333</ele><time>2026-04-08T10:41:20.195Z</time></trkpt><trkpt lat="45.9859564" lon="13.7600224"><ele>842.6666666666666</ele><time>2026-04-08T10:41:21.204Z</time></trkpt><trkpt lat="45.9861537" lon="13.7600212"><ele>844.0</ele><time>2026-04-08T10:41:22.2Z</time></trkpt><trkpt lat="45.9863453" lon="13.760042"><ele>844.0</ele><time>2026-04-08T10:41:23.197Z</time></trkpt><trkpt lat="45.9865181" lon="13.7600987"><ele>844.0</ele><time>2026-04-08T10:41:24.199Z</time></trkpt><trkpt lat="45.9866824" lon="13.7601683"><ele>844.0</ele><time>2026-04-08T10:41:25.203Z</time></trkpt><trkpt lat="45.9868455" lon="13.760245"><ele>845.75</ele><time>2026-04-08T10:41:26.192Z</time></trkpt><trkpt lat="45.9870065" lon="13.7602901"><ele>847.5</ele><time>2026-04-08T10:41:27.201Z</time></trkpt><trkpt lat="45.9871396" lon="13.7603228"><ele>849.25</ele><time>2026-04-08T10:41:28.201Z</time></trkpt><trkpt lat="45.9872516" lon="13.7604435"><ele>851.0</ele><time>2026-04-08T10:41:29.197Z</time></trkpt><trkpt lat="45.9873458" lon="13.7606555"><ele>851.0</ele><time>2026-04-08T10:41:30.2Z</time></trkpt><trkpt lat="45.9874329" lon="13.7608832"><ele>851.0</ele><time>2026-04-08T10:41:31.207Z</time></trkpt><trkpt lat="45.9875082" lon="13.7610894"><ele>851.0</ele><time>2026-04-08T10:41:32.196Z</time></trkpt><trkpt lat="45.9876101" lon="13.7612284"><ele>854.6666666666667</ele><time>2026-04-08T10:41:33.2Z</time></trkpt><trkpt lat="45.9877389" lon="13.7613269"><ele>858.3333333333333</ele><time>2026-04-08T10:41:34.201Z</time></trkpt><trkpt lat="45.9879091" lon="13.761351"><ele>862.0</ele><time>2026-04-08T10:41:35.205Z</time></trkpt><trkpt lat="45.9880951" lon="13.7613801"><ele>862.0</ele><time>2026-04-08T10:41:36.219Z</time></trkpt><trkpt lat="45.9882721" lon="13.7614082"><ele>862.0</ele><time>2026-04-08T10:41:37.231Z</time></trkpt><trkpt lat="45.988434" lon="13.7614892"><ele>862.0</ele><time>2026-04-08T10:41:38.205Z</time></trkpt><trkpt lat="45.9885896" lon="13.7615993"><ele>864.3333333333333</ele><time>2026-04-08T10:41:39.206Z</time></trkpt><trkpt lat="45.9887263" lon="13.7617473"><ele>866.6666666666667</ele><time>2026-04-08T10:41:40.201Z</time></trkpt><trkpt lat="45.9888579" lon="13.7618904"><ele>869.0</ele><time>2026-04-08T10:41:41.2Z</time></trkpt><trkpt lat="45.9889997" lon="13.7619931"><ele>869.0</ele><time>2026-04-08T10:41:42.202Z</time></trkpt><trkpt lat="45.9891375" lon="13.7620954"><ele>869.0</ele><time>2026-04-08T10:41:43.208Z</time></trkpt><trkpt lat="45.9892552" lon="13.7622189"><ele>869.0</ele><time>2026-04-08T10:41:44.204Z</time></trkpt><trkpt lat="45.9893211" lon="13.7623953"><ele>869.0</ele><time>2026-04-08T10:41:45.214Z</time></trkpt><trkpt lat="45.989361" lon="13.7625955"><ele>866.0</ele><time>2026-04-08T10:41:46.199Z</time></trkpt><trkpt lat="45.9893798" lon="13.7628304"><ele>863.0</ele><time>2026-04-08T10:41:47.207Z</time></trkpt><trkpt lat="45.9893988" lon="13.7630845"><ele>860.0</ele><time>2026-04-08T10:41:48.216Z</time></trkpt><trkpt lat="45.9894151" lon="13.7633124"><ele>860.0</ele><time>2026-04-08T10:41:49.219Z</time></trkpt><trkpt lat="45.9894488" lon="13.7635207"><ele>860.0</ele><time>2026-04-08T10:41:50.197Z</time></trkpt><trkpt lat="45.9894589" lon="13.7637051"><ele>860.0</ele><time>2026-04-08T10:41:51.196Z</time></trkpt><trkpt lat="45.9894258" lon="13.7639163"><ele>860.0</ele><time>2026-04-08T10:41:52.207Z</time></trkpt><trkpt lat="45.9893405" lon="13.7641478"><ele>859.0</ele><time>2026-04-08T10:41:53.197Z</time></trkpt><trkpt lat="45.9892451" lon="13.7643973"><ele>858.0</ele><time>2026-04-08T10:41:54.203Z</time></trkpt><trkpt lat="45.989137" lon="13.7646574"><ele>857.0</ele><time>2026-04-08T10:41:55.228Z</time></trkpt><trkpt lat="45.9890198" lon="13.7649327"><ele>858.3333333333334</ele><time>2026-04-08T10:41:56.198Z</time></trkpt><trkpt lat="45.9888979" lon="13.7652115"><ele>859.6666666666667</ele><time>2026-04-08T10:41:57.212Z</time></trkpt><trkpt lat="45.9887733" lon="13.7654591"><ele>861.0</ele><time>2026-04-08T10:41:58.201Z</time></trkpt><trkpt lat="45.9886646" lon="13.765688"><ele>861.0</ele><time>2026-04-08T10:41:59.208Z</time></trkpt><trkpt lat="45.9885714" lon="13.765877"><ele>861.0</ele><time>2026-04-08T10:42:00.202Z</time></trkpt><trkpt lat="45.9885089" lon="13.7660745"><ele>861.0</ele><time>2026-04-08T10:42:01.209Z</time></trkpt><trkpt lat="45.9884848" lon="13.766307"><ele>861.6666666666667</ele><time>2026-04-08T10:42:02.206Z</time></trkpt><trkpt lat="45.9884791" lon="13.7665626"><ele>862.3333333333334</ele><time>2026-04-08T10:42:03.22Z</time></trkpt><trkpt lat="45.988465" lon="13.7667978"><ele>863.0</ele><time>2026-04-08T10:42:04.215Z</time></trkpt><trkpt lat="45.9884474" lon="13.7670164"><ele>861.0</ele><time>2026-04-08T10:42:05.208Z</time></trkpt><trkpt lat="45.9884891" lon="13.7672169"><ele>859.0</ele><time>2026-04-08T10:42:06.221Z</time></trkpt><trkpt lat="45.9885448" lon="13.7674307"><ele>857.0</ele><time>2026-04-08T10:42:07.204Z</time></trkpt><trkpt lat="45.988634" lon="13.7676293"><ele>853.3333333333334</ele><time>2026-04-08T10:42:08.231Z</time></trkpt><trkpt lat="45.9887359" lon="13.7678478"><ele>849.6666666666667</ele><time>2026-04-08T10:42:09.23Z</time></trkpt><trkpt lat="45.9888122" lon="13.7680504"><ele>846.0</ele><time>2026-04-08T10:42:10.21Z</time></trkpt><trkpt lat="45.988832" lon="13.7682708"><ele>846.0</ele><time>2026-04-08T10:42:11.225Z</time></trkpt><trkpt lat="45.9888393" lon="13.768496"><ele>846.0</ele><time>2026-04-08T10:42:12.207Z</time></trkpt><trkpt lat="45.9888844" lon="13.7686636"><ele>846.0</ele><time>2026-04-08T10:42:13.213Z</time></trkpt><trkpt lat="45.9891347" lon="13.7689247"><ele>846.6666666666667</ele><time>2026-04-08T10:42:15.208Z</time></trkpt><trkpt lat="45.9893025" lon="13.7690353"><ele>847.3333333333334</ele><time>2026-04-08T10:42:16.224Z</time></trkpt><trkpt lat="45.9894814" lon="13.7691567"><ele>848.0</ele><time>2026-04-08T10:42:17.221Z</time></trkpt><trkpt lat="45.9896584" lon="13.7692724"><ele>848.3333333333334</ele><time>2026-04-08T10:42:18.221Z</time></trkpt><trkpt lat="45.9898087" lon="13.7693963"><ele>848.6666666666667</ele><time>2026-04-08T10:42:19.218Z</time></trkpt><trkpt lat="45.9899359" lon="13.7695403"><ele>849.0</ele><time>2026-04-08T10:42:20.217Z</time></trkpt><trkpt lat="45.9900638" lon="13.7697024"><ele>848.3333333333333</ele><time>2026-04-08T10:42:21.208Z</time></trkpt><trkpt lat="45.990188" lon="13.7698551"><ele>847.6666666666666</ele><time>2026-04-08T10:42:22.214Z</time></trkpt><trkpt lat="45.9903035" lon="13.7700277"><ele>847.0</ele><time>2026-04-08T10:42:23.208Z</time></trkpt><trkpt lat="45.9903842" lon="13.7702355"><ele>847.0</ele><time>2026-04-08T10:42:24.209Z</time></trkpt><trkpt lat="45.9904292" lon="13.7704659"><ele>847.0</ele><time>2026-04-08T10:42:25.208Z</time></trkpt><trkpt lat="45.9904641" lon="13.7706948"><ele>847.0</ele><time>2026-04-08T10:42:26.215Z</time></trkpt><trkpt lat="45.9905147" lon="13.7709059"><ele>848.0</ele><time>2026-04-08T10:42:27.213Z</time></trkpt><trkpt lat="45.9905991" lon="13.7710983"><ele>849.0</ele><time>2026-04-08T10:42:28.202Z</time></trkpt><trkpt lat="45.9907184" lon="13.7712642"><ele>850.0</ele><time>2026-04-08T10:42:29.21Z</time></trkpt><trkpt lat="45.9908581" lon="13.7714294"><ele>850.3333333333333</ele><time>2026-04-08T10:42:30.206Z</time></trkpt><trkpt lat="45.9909918" lon="13.7716086"><ele>850.6666666666667</ele><time>2026-04-08T10:42:31.212Z</time></trkpt><trkpt lat="45.9910781" lon="13.7718072"><ele>851.0</ele><time>2026-04-08T10:42:32.21Z</time></trkpt><trkpt lat="45.9911524" lon="13.7719812"><ele>851.0</ele><time>2026-04-08T10:42:33.205Z</time></trkpt><trkpt lat="45.9913847" lon="13.7721955"><ele>851.0</ele><time>2026-04-08T10:42:35.217Z</time></trkpt><trkpt lat="45.9915631" lon="13.7722563"><ele>851.6666666666667</ele><time>2026-04-08T10:42:36.219Z</time></trkpt><trkpt lat="45.9917544" lon="13.7723489"><ele>852.3333333333333</ele><time>2026-04-08T10:42:37.213Z</time></trkpt><trkpt lat="45.9919598" lon="13.772454"><ele>853.0</ele><time>2026-04-08T10:42:38.231Z</time></trkpt><trkpt lat="45.9921746" lon="13.7725627"><ele>853.0</ele><time>2026-04-08T10:42:39.21Z</time></trkpt><trkpt lat="45.9923997" lon="13.7726778"><ele>853.0</ele><time>2026-04-08T10:42:40.22Z</time></trkpt><trkpt lat="45.9926261" lon="13.772817"><ele>859.5</ele><time>2026-04-08T10:42:41.211Z</time></trkpt><trkpt lat="45.9928482" lon="13.7729689"><ele>866.0</ele><time>2026-04-08T10:42:42.203Z</time></trkpt><trkpt lat="45.9930451" lon="13.7731311"><ele>866.0</ele><time>2026-04-08T10:42:43.211Z</time></trkpt><trkpt lat="45.9932133" lon="13.7732986"><ele>866.0</ele><time>2026-04-08T10:42:44.2Z</time></trkpt><trkpt lat="45.9933429" lon="13.7734753"><ele>866.0</ele><time>2026-04-08T10:42:45.204Z</time></trkpt><trkpt lat="45.9934868" lon="13.7738928"><ele>869.0</ele><time>2026-04-08T10:42:47.212Z</time></trkpt><trkpt lat="45.9935471" lon="13.7740981"><ele>872.0</ele><time>2026-04-08T10:42:48.196Z</time></trkpt><trkpt lat="45.9936394" lon="13.7742686"><ele>875.0</ele><time>2026-04-08T10:42:49.211Z</time></trkpt><trkpt lat="45.993772" lon="13.7744172"><ele>875.6666666666667</ele><time>2026-04-08T10:42:50.212Z</time></trkpt><trkpt lat="45.9939247" lon="13.7745976"><ele>876.3333333333333</ele><time>2026-04-08T10:42:51.205Z</time></trkpt><trkpt lat="45.994066" lon="13.7748018"><ele>877.0</ele><time>2026-04-08T10:42:52.203Z</time></trkpt><trkpt lat="45.9942119" lon="13.7749876"><ele>877.3333333333333</ele><time>2026-04-08T10:42:53.21Z</time></trkpt><trkpt lat="45.9943701" lon="13.7751529"><ele>877.6666666666667</ele><time>2026-04-08T10:42:54.201Z</time></trkpt><trkpt lat="45.9945423" lon="13.7753333"><ele>878.0</ele><time>2026-04-08T10:42:55.216Z</time></trkpt><trkpt lat="45.9947256" lon="13.7755308"><ele>880.0</ele><time>2026-04-08T10:42:56.22Z</time></trkpt><trkpt lat="45.9948941" lon="13.7757186"><ele>882.0</ele><time>2026-04-08T10:42:57.222Z</time></trkpt><trkpt lat="45.9950694" lon="13.7758558"><ele>884.0</ele><time>2026-04-08T10:42:58.214Z</time></trkpt><trkpt lat="45.9952383" lon="13.7759619"><ele>886.6666666666667</ele><time>2026-04-08T10:42:59.218Z</time></trkpt><trkpt lat="45.9954068" lon="13.7760475"><ele>889.3333333333333</ele><time>2026-04-08T10:43:00.2Z</time></trkpt><trkpt lat="45.9955736" lon="13.7761563"><ele>892.0</ele><time>2026-04-08T10:43:01.214Z</time></trkpt><trkpt lat="45.9957561" lon="13.7763381"><ele>891.0</ele><time>2026-04-08T10:43:02.206Z</time></trkpt><trkpt lat="45.9959485" lon="13.7765533"><ele>890.0</ele><time>2026-04-08T10:43:03.216Z</time></trkpt><trkpt lat="45.9961367" lon="13.7767639"><ele>890.3333333333334</ele><time>2026-04-08T10:43:04.205Z</time></trkpt><trkpt lat="45.9963155" lon="13.776979"><ele>890.6666666666667</ele><time>2026-04-08T10:43:05.218Z</time></trkpt><trkpt lat="45.9964712" lon="13.7771623"><ele>891.0</ele><time>2026-04-08T10:43:06.217Z</time></trkpt><trkpt lat="45.9965905" lon="13.7773106"><ele>891.0</ele><time>2026-04-08T10:43:07.207Z</time></trkpt><trkpt lat="45.9966584" lon="13.7774528"><ele>891.0</ele><time>2026-04-08T10:43:08.207Z</time></trkpt><trkpt lat="45.9966879" lon="13.7776281"><ele>891.0</ele><time>2026-04-08T10:43:09.221Z</time></trkpt><trkpt lat="45.9966828" lon="13.7778307"><ele>891.0</ele><time>2026-04-08T10:43:10.221Z</time></trkpt><trkpt lat="45.9966789" lon="13.7780159"><ele>892.3333333333333</ele><time>2026-04-08T10:43:11.209Z</time></trkpt><trkpt lat="45.9967354" lon="13.7782129"><ele>893.6666666666666</ele><time>2026-04-08T10:43:12.229Z</time></trkpt><trkpt lat="45.9968479" lon="13.7784155"><ele>895.0</ele><time>2026-04-08T10:43:13.21Z</time></trkpt><trkpt lat="45.996995" lon="13.7786256"><ele>898.0</ele><time>2026-04-08T10:43:14.22Z</time></trkpt><trkpt lat="45.9971672" lon="13.7788219"><ele>901.0</ele><time>2026-04-08T10:43:15.234Z</time></trkpt><trkpt lat="45.9973555" lon="13.7789946"><ele>904.0</ele><time>2026-04-08T10:43:16.222Z</time></trkpt><trkpt lat="45.9975444" lon="13.779148"><ele>907.3333333333333</ele><time>2026-04-08T10:43:17.216Z</time></trkpt><trkpt lat="45.9977168" lon="13.7792917"><ele>910.6666666666667</ele><time>2026-04-08T10:43:18.218Z</time></trkpt><trkpt lat="45.9978624" lon="13.779422"><ele>914.0</ele><time>2026-04-08T10:43:19.211Z</time></trkpt><trkpt lat="45.9980063" lon="13.7795246"><ele>918.3333333333334</ele><time>2026-04-08T10:43:20.211Z</time></trkpt><trkpt lat="45.9981662" lon="13.7795637"><ele>922.6666666666667</ele><time>2026-04-08T10:43:21.218Z</time></trkpt><trkpt lat="45.9983447" lon="13.7795275"><ele>927.0</ele><time>2026-04-08T10:43:22.22Z</time></trkpt><trkpt lat="45.9985398" lon="13.7794252"><ele>922.6666666666667</ele><time>2026-04-08T10:43:23.222Z</time></trkpt><trkpt lat="45.998733" lon="13.779301"><ele>918.3333333333334</ele><time>2026-04-08T10:43:24.214Z</time></trkpt><trkpt lat="45.9989129" lon="13.7791876"><ele>914.0</ele><time>2026-04-08T10:43:25.209Z</time></trkpt><trkpt lat="45.9990831" lon="13.7791128"><ele>916.0</ele><time>2026-04-08T10:43:26.199Z</time></trkpt><trkpt lat="45.9994448" lon="13.7790371"><ele>918.0</ele><time>2026-04-08T10:43:28.209Z</time></trkpt><trkpt lat="45.9996174" lon="13.7790034"><ele>918.0</ele><time>2026-04-08T10:43:29.205Z</time></trkpt><trkpt lat="45.9997963" lon="13.7789444"><ele>918.0</ele><time>2026-04-08T10:43:30.213Z</time></trkpt><trkpt lat="45.9999949" lon="13.7788402"><ele>918.0</ele><time>2026-04-08T10:43:31.217Z</time></trkpt><trkpt lat="46.0001778" lon="13.7787098"><ele>918.0</ele><time>2026-04-08T10:43:32.207Z</time></trkpt><trkpt lat="46.0003424" lon="13.7785806"><ele>918.0</ele><time>2026-04-08T10:43:33.201Z</time></trkpt><trkpt lat="46.0005011" lon="13.7784717"><ele>918.0</ele><time>2026-04-08T10:43:34.215Z</time></trkpt><trkpt lat="46.0006624" lon="13.7783931"><ele>920.0</ele><time>2026-04-08T10:43:35.215Z</time></trkpt><trkpt lat="46.0010043" lon="13.7783311"><ele>922.0</ele><time>2026-04-08T10:43:37.21Z</time></trkpt><trkpt lat="46.0011709" lon="13.7783775"><ele>922.0</ele><time>2026-04-08T10:43:38.219Z</time></trkpt><trkpt lat="46.0013475" lon="13.7784157"><ele>922.0</ele><time>2026-04-08T10:43:39.209Z</time></trkpt><trkpt lat="46.0015629" lon="13.7783807"><ele>922.0</ele><time>2026-04-08T10:43:40.225Z</time></trkpt><trkpt lat="46.0017708" lon="13.7783434"><ele>921.6666666666666</ele><time>2026-04-08T10:43:41.218Z</time></trkpt><trkpt lat="46.001947" lon="13.7783443"><ele>921.3333333333333</ele><time>2026-04-08T10:43:42.211Z</time></trkpt><trkpt lat="46.0021087" lon="13.7783862"><ele>921.0</ele><time>2026-04-08T10:43:43.219Z</time></trkpt><trkpt lat="46.0022449" lon="13.7784775"><ele>924.0</ele><time>2026-04-08T10:43:44.222Z</time></trkpt><trkpt lat="46.0023722" lon="13.7786064"><ele>927.0</ele><time>2026-04-08T10:43:45.208Z</time></trkpt><trkpt lat="46.0024949" lon="13.7787327"><ele>930.0</ele><time>2026-04-08T10:43:46.205Z</time></trkpt><trkpt lat="46.0026208" lon="13.7787779"><ele>933.0</ele><time>2026-04-08T10:43:47.208Z</time></trkpt><trkpt lat="46.0027512" lon="13.7788165"><ele>933.0</ele><time>2026-04-08T10:43:48.223Z</time></trkpt><trkpt lat="46.0028538" lon="13.7789418"><ele>933.0</ele><time>2026-04-08T10:43:49.218Z</time></trkpt><trkpt lat="46.0029256" lon="13.7791115"><ele>933.0</ele><time>2026-04-08T10:43:50.225Z</time></trkpt><trkpt lat="46.0029628" lon="13.7793149"><ele>933.0</ele><time>2026-04-08T10:43:51.217Z</time></trkpt><trkpt lat="46.0029941" lon="13.7795506"><ele>935.3333333333333</ele><time>2026-04-08T10:43:52.214Z</time></trkpt><trkpt lat="46.0030329" lon="13.779789"><ele>937.6666666666666</ele><time>2026-04-08T10:43:53.219Z</time></trkpt><trkpt lat="46.0030575" lon="13.780013"><ele>940.0</ele><time>2026-04-08T10:43:54.211Z</time></trkpt><trkpt lat="46.0029995" lon="13.7802413"><ele>940.3333333333333</ele><time>2026-04-08T10:43:55.204Z</time></trkpt><trkpt lat="46.0029176" lon="13.7804907"><ele>940.6666666666667</ele><time>2026-04-08T10:43:56.212Z</time></trkpt><trkpt lat="46.002842" lon="13.7807365"><ele>941.0</ele><time>2026-04-08T10:43:57.226Z</time></trkpt><trkpt lat="46.0027866" lon="13.7809598"><ele>940.5</ele><time>2026-04-08T10:43:58.205Z</time></trkpt><trkpt lat="46.0027618" lon="13.781168"><ele>940.0</ele><time>2026-04-08T10:43:59.206Z</time></trkpt><trkpt lat="46.0027757" lon="13.781357"><ele>939.5</ele><time>2026-04-08T10:44:00.206Z</time></trkpt><trkpt lat="46.0028602" lon="13.7815161"><ele>939.0</ele><time>2026-04-08T10:44:01.215Z</time></trkpt><trkpt lat="46.0029927" lon="13.781664"><ele>939.0</ele><time>2026-04-08T10:44:02.202Z</time></trkpt><trkpt lat="46.0031308" lon="13.7818285"><ele>939.0</ele><time>2026-04-08T10:44:03.218Z</time></trkpt><trkpt lat="46.0032672" lon="13.7819987"><ele>939.0</ele><time>2026-04-08T10:44:04.218Z</time></trkpt><trkpt lat="46.0034165" lon="13.7821254"><ele>938.3333333333333</ele><time>2026-04-08T10:44:05.21Z</time></trkpt><trkpt lat="46.0035948" lon="13.7821963"><ele>937.6666666666666</ele><time>2026-04-08T10:44:06.22Z</time></trkpt><trkpt lat="46.0038044" lon="13.782262"><ele>937.0</ele><time>2026-04-08T10:44:07.218Z</time></trkpt><trkpt lat="46.0040196" lon="13.7823376"><ele>939.0</ele><time>2026-04-08T10:44:08.208Z</time></trkpt><trkpt lat="46.0042356" lon="13.7824244"><ele>941.0</ele><time>2026-04-08T10:44:09.216Z</time></trkpt><trkpt lat="46.0044556" lon="13.7825247"><ele>941.0</ele><time>2026-04-08T10:44:10.246Z</time></trkpt><trkpt lat="46.0046519" lon="13.7826215"><ele>941.0</ele><time>2026-04-08T10:44:11.207Z</time></trkpt><trkpt lat="46.0048275" lon="13.7826614"><ele>941.0</ele><time>2026-04-08T10:44:12.244Z</time></trkpt><trkpt lat="46.0050416" lon="13.7826087"><ele>942.0</ele><time>2026-04-08T10:44:13.22Z</time></trkpt><trkpt lat="46.0054953" lon="13.782485"><ele>942.0</ele><time>2026-04-08T10:44:15.206Z</time></trkpt><trkpt lat="46.0057355" lon="13.7824195"><ele>942.0</ele><time>2026-04-08T10:44:16.205Z</time></trkpt><trkpt lat="46.0062078" lon="13.782237"><ele>944.5</ele><time>2026-04-08T10:44:18.196Z</time></trkpt><trkpt lat="46.0064135" lon="13.7821333"><ele>947.0</ele><time>2026-04-08T10:44:19.202Z</time></trkpt><trkpt lat="46.0067421" lon="13.7820124"><ele>947.6666666666667</ele><time>2026-04-08T10:44:21.225Z</time></trkpt><trkpt lat="46.0068726" lon="13.7820527"><ele>948.3333333333333</ele><time>2026-04-08T10:44:22.206Z</time></trkpt><trkpt lat="46.0070176" lon="13.7821642"><ele>949.0</ele><time>2026-04-08T10:44:23.215Z</time></trkpt><trkpt lat="46.0071673" lon="13.7823401"><ele>949.0</ele><time>2026-04-08T10:44:24.226Z</time></trkpt><trkpt lat="46.007322" lon="13.7825155"><ele>949.0</ele><time>2026-04-08T10:44:25.222Z</time></trkpt><trkpt lat="46.0074683" lon="13.7826674"><ele>949.0</ele><time>2026-04-08T10:44:26.209Z</time></trkpt><trkpt lat="46.0076274" lon="13.7827844"><ele>946.6666666666666</ele><time>2026-04-08T10:44:27.202Z</time></trkpt><trkpt lat="46.0078075" lon="13.7828127"><ele>944.3333333333333</ele><time>2026-04-08T10:44:28.204Z</time></trkpt><trkpt lat="46.0080156" lon="13.7827593"><ele>942.0</ele><time>2026-04-08T10:44:29.217Z</time></trkpt><trkpt lat="46.0082246" lon="13.7827013"><ele>939.6666666666667</ele><time>2026-04-08T10:44:30.203Z</time></trkpt><trkpt lat="46.0084284" lon="13.7826718"><ele>937.3333333333334</ele><time>2026-04-08T10:44:31.205Z</time></trkpt><trkpt lat="46.008615" lon="13.7826701"><ele>935.0</ele><time>2026-04-08T10:44:32.202Z</time></trkpt><trkpt lat="46.0087913" lon="13.7827145"><ele>936.6666666666667</ele><time>2026-04-08T10:44:33.208Z</time></trkpt><trkpt lat="46.0089418" lon="13.7828061"><ele>938.3333333333333</ele><time>2026-04-08T10:44:34.209Z</time></trkpt><trkpt lat="46.0090672" lon="13.7829651"><ele>940.0</ele><time>2026-04-08T10:44:35.206Z</time></trkpt><trkpt lat="46.0091884" lon="13.7831581"><ele>940.0</ele><time>2026-04-08T10:44:36.206Z</time></trkpt><trkpt lat="46.0093084" lon="13.7833746"><ele>940.0</ele><time>2026-04-08T10:44:37.217Z</time></trkpt><trkpt lat="46.0094072" lon="13.7835739"><ele>940.0</ele><time>2026-04-08T10:44:38.215Z</time></trkpt><trkpt lat="46.0095099" lon="13.7837222"><ele>944.0</ele><time>2026-04-08T10:44:39.23Z</time></trkpt><trkpt lat="46.0096363" lon="13.7837987"><ele>948.0</ele><time>2026-04-08T10:44:40.214Z</time></trkpt><trkpt lat="46.0097956" lon="13.7838119"><ele>952.0</ele><time>2026-04-08T10:44:41.216Z</time></trkpt><trkpt lat="46.0099765" lon="13.7837643"><ele>947.0</ele><time>2026-04-08T10:44:42.221Z</time></trkpt><trkpt lat="46.0101634" lon="13.7836673"><ele>942.0</ele><time>2026-04-08T10:44:43.204Z</time></trkpt><trkpt lat="46.0104836" lon="13.7833638"><ele>939.25</ele><time>2026-04-08T10:44:45.208Z</time></trkpt><trkpt lat="46.0106059" lon="13.7832522"><ele>936.5</ele><time>2026-04-08T10:44:46.209Z</time></trkpt><trkpt lat="46.0107388" lon="13.7832173"><ele>933.75</ele><time>2026-04-08T10:44:47.209Z</time></trkpt><trkpt lat="46.0108798" lon="13.7832212"><ele>931.0</ele><time>2026-04-08T10:44:48.212Z</time></trkpt><trkpt lat="46.0110031" lon="13.7832666"><ele>931.0</ele><time>2026-04-08T10:44:49.239Z</time></trkpt><trkpt lat="46.0110869" lon="13.7833719"><ele>931.0</ele><time>2026-04-08T10:44:50.235Z</time></trkpt><trkpt lat="46.0111397" lon="13.7835032"><ele>931.0</ele><time>2026-04-08T10:44:51.219Z</time></trkpt><trkpt lat="46.011159" lon="13.783668"><ele>931.0</ele><time>2026-04-08T10:44:52.234Z</time></trkpt><trkpt lat="46.0111385" lon="13.783852"><ele>932.3333333333333</ele><time>2026-04-08T10:44:53.209Z</time></trkpt><trkpt lat="46.0111059" lon="13.7840488"><ele>933.6666666666667</ele><time>2026-04-08T10:44:54.22Z</time></trkpt><trkpt lat="46.0110687" lon="13.7842663"><ele>935.0</ele><time>2026-04-08T10:44:55.215Z</time></trkpt><trkpt lat="46.0110293" lon="13.784484"><ele>936.3333333333334</ele><time>2026-04-08T10:44:56.224Z</time></trkpt><trkpt lat="46.0109918" lon="13.7847062"><ele>937.6666666666667</ele><time>2026-04-08T10:44:57.25Z</time></trkpt><trkpt lat="46.0109529" lon="13.7849303"><ele>939.0</ele><time>2026-04-08T10:44:58.208Z</time></trkpt><trkpt lat="46.0109223" lon="13.7851546"><ele>938.0</ele><time>2026-04-08T10:44:59.219Z</time></trkpt><trkpt lat="46.0108971" lon="13.7853639"><ele>937.0</ele><time>2026-04-08T10:45:00.229Z</time></trkpt><trkpt lat="46.0108846" lon="13.7855514"><ele>936.0</ele><time>2026-04-08T10:45:01.228Z</time></trkpt><trkpt lat="46.0108987" lon="13.7857163"><ele>935.0</ele><time>2026-04-08T10:45:02.228Z</time></trkpt><trkpt lat="46.0109383" lon="13.7858706"><ele>935.0</ele><time>2026-04-08T10:45:03.228Z</time></trkpt><trkpt lat="46.0109989" lon="13.7859967"><ele>935.0</ele><time>2026-04-08T10:45:04.22Z</time></trkpt><trkpt lat="46.0111003" lon="13.7861127"><ele>935.0</ele><time>2026-04-08T10:45:05.218Z</time></trkpt><trkpt lat="46.0112107" lon="13.786228"><ele>935.0</ele><time>2026-04-08T10:45:06.224Z</time></trkpt><trkpt lat="46.0113314" lon="13.786351"><ele>935.3333333333334</ele><time>2026-04-08T10:45:07.219Z</time></trkpt><trkpt lat="46.0114637" lon="13.7864783"><ele>935.6666666666667</ele><time>2026-04-08T10:45:08.217Z</time></trkpt><trkpt lat="46.0115978" lon="13.7865986"><ele>936.0</ele><time>2026-04-08T10:45:09.21Z</time></trkpt><trkpt lat="46.0117402" lon="13.786718"><ele>936.0</ele><time>2026-04-08T10:45:10.234Z</time></trkpt><trkpt lat="46.0118872" lon="13.7868379"><ele>936.0</ele><time>2026-04-08T10:45:11.212Z</time></trkpt><trkpt lat="46.0120317" lon="13.7869569"><ele>936.0</ele><time>2026-04-08T10:45:12.232Z</time></trkpt><trkpt lat="46.0121795" lon="13.7870798"><ele>934.6666666666667</ele><time>2026-04-08T10:45:13.22Z</time></trkpt><trkpt lat="46.0123204" lon="13.7872149"><ele>933.3333333333334</ele><time>2026-04-08T10:45:14.216Z</time></trkpt><trkpt lat="46.0124496" lon="13.7873658"><ele>932.0</ele><time>2026-04-08T10:45:15.214Z</time></trkpt><trkpt lat="46.0125752" lon="13.7875104"><ele>933.0</ele><time>2026-04-08T10:45:16.227Z</time></trkpt><trkpt lat="46.0126896" lon="13.7876473"><ele>934.0</ele><time>2026-04-08T10:45:17.22Z</time></trkpt><trkpt lat="46.0128069" lon="13.7877794"><ele>935.0</ele><time>2026-04-08T10:45:18.223Z</time></trkpt><trkpt lat="46.0129094" lon="13.7879133"><ele>936.0</ele><time>2026-04-08T10:45:19.215Z</time></trkpt><trkpt lat="46.0129926" lon="13.7880605"><ele>936.0</ele><time>2026-04-08T10:45:20.231Z</time></trkpt><trkpt lat="46.013041" lon="13.7882419"><ele>936.0</ele><time>2026-04-08T10:45:21.218Z</time></trkpt><trkpt lat="46.0130618" lon="13.7884328"><ele>936.0</ele><time>2026-04-08T10:45:22.231Z</time></trkpt><trkpt lat="46.0130693" lon="13.7886056"><ele>936.0</ele><time>2026-04-08T10:45:23.225Z</time></trkpt><trkpt lat="46.0130705" lon="13.7887622"><ele>936.75</ele><time>2026-04-08T10:45:24.232Z</time></trkpt><trkpt lat="46.0130661" lon="13.788935"><ele>937.5</ele><time>2026-04-08T10:45:25.226Z</time></trkpt><trkpt lat="46.0130602" lon="13.7891366"><ele>938.25</ele><time>2026-04-08T10:45:26.204Z</time></trkpt><trkpt lat="46.0130512" lon="13.7893549"><ele>939.0</ele><time>2026-04-08T10:45:27.214Z</time></trkpt><trkpt lat="46.0130206" lon="13.7895671"><ele>939.3333333333333</ele><time>2026-04-08T10:45:28.222Z</time></trkpt><trkpt lat="46.0129533" lon="13.7897548"><ele>939.6666666666666</ele><time>2026-04-08T10:45:29.22Z</time></trkpt><trkpt lat="46.0128494" lon="13.7899189"><ele>940.0</ele><time>2026-04-08T10:45:30.225Z</time></trkpt><trkpt lat="46.0127291" lon="13.7900935"><ele>940.5</ele><time>2026-04-08T10:45:31.208Z</time></trkpt><trkpt lat="46.0124505" lon="13.7904383"><ele>941.0</ele><time>2026-04-08T10:45:33.21Z</time></trkpt><trkpt lat="46.0123006" lon="13.7905756"><ele>941.0</ele><time>2026-04-08T10:45:34.217Z</time></trkpt><trkpt lat="46.0121408" lon="13.7906775"><ele>941.0</ele><time>2026-04-08T10:45:35.207Z</time></trkpt><trkpt lat="46.0119958" lon="13.7907512"><ele>941.0</ele><time>2026-04-08T10:45:36.219Z</time></trkpt><trkpt lat="46.0118626" lon="13.7908387"><ele>941.0</ele><time>2026-04-08T10:45:37.221Z</time></trkpt><trkpt lat="46.0117414" lon="13.790971"><ele>941.0</ele><time>2026-04-08T10:45:38.226Z</time></trkpt><trkpt lat="46.0116526" lon="13.791129"><ele>941.0</ele><time>2026-04-08T10:45:39.22Z</time></trkpt><trkpt lat="46.0115989" lon="13.7912833"><ele>941.0</ele><time>2026-04-08T10:45:40.23Z</time></trkpt><trkpt lat="46.0115782" lon="13.7913961"><ele>941.8</ele><time>2026-04-08T10:45:41.224Z</time></trkpt><trkpt lat="46.0116129" lon="13.7915376"><ele>942.5999999999999</ele><time>2026-04-08T10:45:43.205Z</time></trkpt><trkpt lat="46.0116962" lon="13.7916674"><ele>943.4</ele><time>2026-04-08T10:45:45.213Z</time></trkpt><trkpt lat="46.0118082" lon="13.7918064"><ele>944.2</ele><time>2026-04-08T10:45:47.215Z</time></trkpt><trkpt lat="46.011857" lon="13.7918764"><ele>945.0</ele><time>2026-04-08T10:45:48.226Z</time></trkpt><trkpt lat="46.0119135" lon="13.7919456"><ele>945.3333333333334</ele><time>2026-04-08T10:45:49.215Z</time></trkpt><trkpt lat="46.0119764" lon="13.7920182"><ele>945.6666666666667</ele><time>2026-04-08T10:45:50.218Z</time></trkpt><trkpt lat="46.0120447" lon="13.7920773"><ele>946.0</ele><time>2026-04-08T10:45:51.244Z</time></trkpt><trkpt lat="46.0121273" lon="13.7921197"><ele>946.3333333333334</ele><time>2026-04-08T10:45:52.237Z</time></trkpt><trkpt lat="46.0122172" lon="13.7921318"><ele>946.6666666666667</ele><time>2026-04-08T10:45:53.206Z</time></trkpt><trkpt lat="46.0123132" lon="13.7921213"><ele>947.0</ele><time>2026-04-08T10:45:54.227Z</time></trkpt><trkpt lat="46.0124171" lon="13.7920962"><ele>946.6666666666667</ele><time>2026-04-08T10:45:55.216Z</time></trkpt><trkpt lat="46.0125301" lon="13.7920628"><ele>946.3333333333333</ele><time>2026-04-08T10:45:56.206Z</time></trkpt><trkpt lat="46.0127766" lon="13.7919949"><ele>946.0</ele><time>2026-04-08T10:45:58.217Z</time></trkpt><trkpt lat="46.0129037" lon="13.7919574"><ele>946.0</ele><time>2026-04-08T10:45:59.214Z</time></trkpt><trkpt lat="46.0130248" lon="13.7919254"><ele>946.0</ele><time>2026-04-08T10:46:00.221Z</time></trkpt><trkpt lat="46.013257" lon="13.7918431"><ele>946.0</ele><time>2026-04-08T10:46:02.224Z</time></trkpt><trkpt lat="46.0133733" lon="13.7917916"><ele>947.0</ele><time>2026-04-08T10:46:03.216Z</time></trkpt><trkpt lat="46.0134753" lon="13.7917253"><ele>947.9999999999999</ele><time>2026-04-08T10:46:04.222Z</time></trkpt><trkpt lat="46.013561" lon="13.7916431"><ele>948.9999999999999</ele><time>2026-04-08T10:46:05.222Z</time></trkpt><trkpt lat="46.0136357" lon="13.7915442"><ele>950.0</ele><time>2026-04-08T10:46:06.239Z</time></trkpt><trkpt lat="46.0137037" lon="13.7914233"><ele>951.0</ele><time>2026-04-08T10:46:07.233Z</time></trkpt><trkpt lat="46.0137732" lon="13.7912874"><ele>951.0</ele><time>2026-04-08T10:46:08.205Z</time></trkpt><trkpt lat="46.0138471" lon="13.7911338"><ele>951.0</ele><time>2026-04-08T10:46:09.21Z</time></trkpt><trkpt lat="46.0139173" lon="13.7909598"><ele>951.0</ele><time>2026-04-08T10:46:10.24Z</time></trkpt><trkpt lat="46.0139838" lon="13.7907669"><ele>951.0</ele><time>2026-04-08T10:46:11.226Z</time></trkpt><trkpt lat="46.0140517" lon="13.7905704"><ele>953.0</ele><time>2026-04-08T10:46:12.206Z</time></trkpt><trkpt lat="46.0141206" lon="13.7903688"><ele>955.0</ele><time>2026-04-08T10:46:13.216Z</time></trkpt><trkpt lat="46.0141895" lon="13.7901607"><ele>957.0</ele><time>2026-04-08T10:46:14.219Z</time></trkpt><trkpt lat="46.0142619" lon="13.7899585"><ele>952.3333333333333</ele><time>2026-04-08T10:46:15.219Z</time></trkpt><trkpt lat="46.0143405" lon="13.7897677"><ele>947.6666666666666</ele><time>2026-04-08T10:46:16.207Z</time></trkpt><trkpt lat="46.0144215" lon="13.7895849"><ele>943.0</ele><time>2026-04-08T10:46:17.221Z</time></trkpt><trkpt lat="46.0144979" lon="13.7894032"><ele>942.75</ele><time>2026-04-08T10:46:18.224Z</time></trkpt><trkpt lat="46.0145681" lon="13.7892343"><ele>942.5</ele><time>2026-04-08T10:46:19.215Z</time></trkpt><trkpt lat="46.0146316" lon="13.7890798"><ele>942.25</ele><time>2026-04-08T10:46:20.2Z</time></trkpt><trkpt lat="46.0146969" lon="13.788962"><ele>942.0</ele><time>2026-04-08T10:46:21.217Z</time></trkpt><trkpt lat="46.0147569" lon="13.7888759"><ele>942.0</ele><time>2026-04-08T10:46:22.217Z</time></trkpt><trkpt lat="46.0148134" lon="13.7888097"><ele>942.0</ele><time>2026-04-08T10:46:23.217Z</time></trkpt><trkpt lat="46.0148975" lon="13.7886867"><ele>942.0</ele><time>2026-04-08T10:46:25.215Z</time></trkpt><trkpt lat="46.0149516" lon="13.7886291"><ele>942.0</ele><time>2026-04-08T10:46:26.239Z</time></trkpt><trkpt lat="46.0150186" lon="13.7885671"><ele>942.0</ele><time>2026-04-08T10:46:27.217Z</time></trkpt><trkpt lat="46.0150936" lon="13.7885175"><ele>942.0</ele><time>2026-04-08T10:46:28.225Z</time></trkpt><trkpt lat="46.0151755" lon="13.7884736"><ele>941.3333333333333</ele><time>2026-04-08T10:46:29.22Z</time></trkpt><trkpt lat="46.0153872" lon="13.7884388"><ele>940.6666666666666</ele><time>2026-04-08T10:46:31.206Z</time></trkpt><trkpt lat="46.0155218" lon="13.7884882"><ele>940.0</ele><time>2026-04-08T10:46:32.217Z</time></trkpt><trkpt lat="46.0156578" lon="13.7885727"><ele>940.0</ele><time>2026-04-08T10:46:33.218Z</time></trkpt><trkpt lat="46.015779" lon="13.7886568"><ele>940.0</ele><time>2026-04-08T10:46:34.217Z</time></trkpt><trkpt lat="46.0158914" lon="13.7886987"><ele>940.0</ele><time>2026-04-08T10:46:35.223Z</time></trkpt><trkpt lat="46.016014" lon="13.7886795"><ele>940.0</ele><time>2026-04-08T10:46:36.206Z</time></trkpt><trkpt lat="46.0161446" lon="13.788602"><ele>943.3333333333333</ele><time>2026-04-08T10:46:37.228Z</time></trkpt><trkpt lat="46.0162683" lon="13.7884585"><ele>946.6666666666667</ele><time>2026-04-08T10:46:38.216Z</time></trkpt><trkpt lat="46.0163944" lon="13.7882848"><ele>950.0</ele><time>2026-04-08T10:46:39.211Z</time></trkpt><trkpt lat="46.0165231" lon="13.7881427"><ele>951.0</ele><time>2026-04-08T10:46:40.209Z</time></trkpt><trkpt lat="46.0166724" lon="13.7880545"><ele>952.0</ele><time>2026-04-08T10:46:41.224Z</time></trkpt><trkpt lat="46.0167978" lon="13.7879764"><ele>953.0</ele><time>2026-04-08T10:46:42.221Z</time></trkpt><trkpt lat="46.016894" lon="13.7878616"><ele>954.0</ele><time>2026-04-08T10:46:43.206Z</time></trkpt><trkpt lat="46.0169511" lon="13.7876698"><ele>956.0</ele><time>2026-04-08T10:46:44.217Z</time></trkpt><trkpt lat="46.0169859" lon="13.7874404"><ele>958.0</ele><time>2026-04-08T10:46:45.211Z</time></trkpt><trkpt lat="46.0170238" lon="13.7872202"><ele>960.0</ele><time>2026-04-08T10:46:46.211Z</time></trkpt><trkpt lat="46.01706" lon="13.7870277"><ele>960.0</ele><time>2026-04-08T10:46:47.217Z</time></trkpt><trkpt lat="46.0171147" lon="13.7868631"><ele>960.0</ele><time>2026-04-08T10:46:48.217Z</time></trkpt><trkpt lat="46.0172065" lon="13.7867536"><ele>960.0</ele><time>2026-04-08T10:46:49.227Z</time></trkpt><trkpt lat="46.0173258" lon="13.786712"><ele>960.0</ele><time>2026-04-08T10:46:50.208Z</time></trkpt><trkpt lat="46.0174587" lon="13.7867451"><ele>963.6666666666667</ele><time>2026-04-08T10:46:51.21Z</time></trkpt><trkpt lat="46.0175884" lon="13.7867884"><ele>967.3333333333334</ele><time>2026-04-08T10:46:52.216Z</time></trkpt><trkpt lat="46.0177406" lon="13.7867909"><ele>971.0</ele><time>2026-04-08T10:46:53.21Z</time></trkpt><trkpt lat="46.0179246" lon="13.7867352"><ele>971.0</ele><time>2026-04-08T10:46:54.245Z</time></trkpt><trkpt lat="46.0181103" lon="13.7866674"><ele>971.0</ele><time>2026-04-08T10:46:55.207Z</time></trkpt><trkpt lat="46.018267" lon="13.7865763"><ele>971.0</ele><time>2026-04-08T10:46:56.215Z</time></trkpt><trkpt lat="46.018402" lon="13.7864603"><ele>971.25</ele><time>2026-04-08T10:46:57.218Z</time></trkpt><trkpt lat="46.0185196" lon="13.7863567"><ele>971.5</ele><time>2026-04-08T10:46:58.229Z</time></trkpt><trkpt lat="46.0186427" lon="13.7862683"><ele>971.75</ele><time>2026-04-08T10:46:59.22Z</time></trkpt><trkpt lat="46.0187783" lon="13.786196"><ele>972.0</ele><time>2026-04-08T10:47:00.209Z</time></trkpt><trkpt lat="46.018932" lon="13.7861384"><ele>972.0</ele><time>2026-04-08T10:47:01.229Z</time></trkpt><trkpt lat="46.0191026" lon="13.7860883"><ele>972.0</ele><time>2026-04-08T10:47:02.219Z</time></trkpt><trkpt lat="46.0192845" lon="13.7860373"><ele>972.0</ele><time>2026-04-08T10:47:03.221Z</time></trkpt><trkpt lat="46.019467" lon="13.7859886"><ele>968.3333333333333</ele><time>2026-04-08T10:47:04.209Z</time></trkpt><trkpt lat="46.0196387" lon="13.78596"><ele>964.6666666666666</ele><time>2026-04-08T10:47:05.205Z</time></trkpt><trkpt lat="46.0197967" lon="13.785952"><ele>961.0</ele><time>2026-04-08T10:47:06.206Z</time></trkpt><trkpt lat="46.019941" lon="13.7859815"><ele>969.75</ele><time>2026-04-08T10:47:07.214Z</time></trkpt><trkpt lat="46.0200691" lon="13.7860563"><ele>978.5</ele><time>2026-04-08T10:47:08.23Z</time></trkpt><trkpt lat="46.0201918" lon="13.7861731"><ele>987.25</ele><time>2026-04-08T10:47:09.228Z</time></trkpt><trkpt lat="46.0203124" lon="13.7862807"><ele>996.0</ele><time>2026-04-08T10:47:10.222Z</time></trkpt><trkpt lat="46.0204649" lon="13.7863385"><ele>996.0</ele><time>2026-04-08T10:47:11.204Z</time></trkpt><trkpt lat="46.0206585" lon="13.786337"><ele>996.0</ele><time>2026-04-08T10:47:12.208Z</time></trkpt><trkpt lat="46.02086" lon="13.7863142"><ele>996.0</ele><time>2026-04-08T10:47:13.203Z</time></trkpt><trkpt lat="46.0210729" lon="13.7862834"><ele>988.6666666666667</ele><time>2026-04-08T10:47:14.217Z</time></trkpt><trkpt lat="46.0212888" lon="13.7862474"><ele>981.3333333333334</ele><time>2026-04-08T10:47:15.218Z</time></trkpt><trkpt lat="46.0215009" lon="13.7862176"><ele>974.0</ele><time>2026-04-08T10:47:16.216Z</time></trkpt><trkpt lat="46.0217145" lon="13.7862185"><ele>969.3333333333334</ele><time>2026-04-08T10:47:17.289Z</time></trkpt><trkpt lat="46.0219223" lon="13.7862286"><ele>964.6666666666667</ele><time>2026-04-08T10:47:18.208Z</time></trkpt><trkpt lat="46.0221339" lon="13.7862677"><ele>960.0</ele><time>2026-04-08T10:47:19.198Z</time></trkpt><trkpt lat="46.0223416" lon="13.7863182"><ele>958.6666666666667</ele><time>2026-04-08T10:47:20.215Z</time></trkpt><trkpt lat="46.0225528" lon="13.7863622"><ele>957.3333333333334</ele><time>2026-04-08T10:47:21.212Z</time></trkpt><trkpt lat="46.0227658" lon="13.7863808"><ele>956.0</ele><time>2026-04-08T10:47:22.228Z</time></trkpt><trkpt lat="46.0229688" lon="13.786369"><ele>956.0</ele><time>2026-04-08T10:47:23.202Z</time></trkpt><trkpt lat="46.0231525" lon="13.7863526"><ele>956.0</ele><time>2026-04-08T10:47:24.222Z</time></trkpt><trkpt lat="46.0233148" lon="13.7863709"><ele>956.0</ele><time>2026-04-08T10:47:25.221Z</time></trkpt><trkpt lat="46.0234629" lon="13.7864182"><ele>951.0</ele><time>2026-04-08T10:47:26.207Z</time></trkpt><trkpt lat="46.0235883" lon="13.7865248"><ele>946.0</ele><time>2026-04-08T10:47:27.207Z</time></trkpt><trkpt lat="46.023837" lon="13.7867978"><ele>948.3333333333333</ele><time>2026-04-08T10:47:29.216Z</time></trkpt><trkpt lat="46.0240029" lon="13.786927"><ele>950.6666666666667</ele><time>2026-04-08T10:47:30.213Z</time></trkpt><trkpt lat="46.0241839" lon="13.7870687"><ele>953.0</ele><time>2026-04-08T10:47:31.2Z</time></trkpt><trkpt lat="46.0243661" lon="13.7872061"><ele>953.0</ele><time>2026-04-08T10:47:32.2Z</time></trkpt><trkpt lat="46.0245542" lon="13.7873128"><ele>953.0</ele><time>2026-04-08T10:47:33.219Z</time></trkpt><trkpt lat="46.0247466" lon="13.7873556"><ele>953.0</ele><time>2026-04-08T10:47:34.261Z</time></trkpt><trkpt lat="46.024953" lon="13.7873757"><ele>943.3333333333334</ele><time>2026-04-08T10:47:35.214Z</time></trkpt><trkpt lat="46.0251629" lon="13.7873663"><ele>933.6666666666667</ele><time>2026-04-08T10:47:36.203Z</time></trkpt><trkpt lat="46.0253627" lon="13.7872911"><ele>924.0</ele><time>2026-04-08T10:47:37.295Z</time></trkpt><trkpt lat="46.0255178" lon="13.7871769"><ele>924.0</ele><time>2026-04-08T10:47:38.236Z</time></trkpt><trkpt lat="46.0256422" lon="13.78708"><ele>924.0</ele><time>2026-04-08T10:47:39.239Z</time></trkpt><trkpt lat="46.0257358" lon="13.7870313"><ele>924.0</ele><time>2026-04-08T10:47:40.229Z</time></trkpt><trkpt lat="46.0258479" lon="13.7870361"><ele>924.0</ele><time>2026-04-08T10:47:41.24Z</time></trkpt><trkpt lat="46.0259666" lon="13.7870946"><ele>920.0</ele><time>2026-04-08T10:47:42.249Z</time></trkpt><trkpt lat="46.0260858" lon="13.7872115"><ele>916.0</ele><time>2026-04-08T10:47:43.221Z</time></trkpt><trkpt lat="46.0262136" lon="13.7873312"><ele>912.0</ele><time>2026-04-08T10:47:44.221Z</time></trkpt><trkpt lat="46.0263764" lon="13.7874372"><ele>912.0</ele><time>2026-04-08T10:47:45.21Z</time></trkpt><trkpt lat="46.0265481" lon="13.7875242"><ele>912.0</ele><time>2026-04-08T10:47:46.212Z</time></trkpt><trkpt lat="46.0267199" lon="13.787653"><ele>912.0</ele><time>2026-04-08T10:47:47.205Z</time></trkpt><trkpt lat="46.027012" lon="13.7879257"><ele>914.3333333333334</ele><time>2026-04-08T10:47:49.209Z</time></trkpt><trkpt lat="46.0271036" lon="13.7880192"><ele>916.6666666666667</ele><time>2026-04-08T10:47:50.241Z</time></trkpt><trkpt lat="46.0271727" lon="13.7880748"><ele>919.0</ele><time>2026-04-08T10:47:51.209Z</time></trkpt><trkpt lat="46.0272591" lon="13.7881264"><ele>921.3333333333334</ele><time>2026-04-08T10:47:53.24Z</time></trkpt><trkpt lat="46.0273285" lon="13.7881108"><ele>923.6666666666667</ele><time>2026-04-08T10:47:59.214Z</time></trkpt><trkpt lat="46.0274118" lon="13.7881682"><ele>926.0</ele><time>2026-04-08T10:50:55.135Z</time></trkpt><trkpt lat="46.027503" lon="13.7882326"><ele>914.25</ele><time>2026-04-08T10:50:56.142Z</time></trkpt><trkpt lat="46.0276077" lon="13.7882937"><ele>902.5</ele><time>2026-04-08T10:50:57.127Z</time></trkpt><trkpt lat="46.0277202" lon="13.7883607"><ele>890.75</ele><time>2026-04-08T10:50:58.127Z</time></trkpt><trkpt lat="46.0278271" lon="13.7883974"><ele>879.0</ele><time>2026-04-08T10:50:59.134Z</time></trkpt><trkpt lat="46.0279384" lon="13.7884281"><ele>879.0</ele><time>2026-04-08T10:51:00.155Z</time></trkpt><trkpt lat="46.0280548" lon="13.7884616"><ele>879.0</ele><time>2026-04-08T10:51:01.131Z</time></trkpt><trkpt lat="46.0281789" lon="13.7884863"><ele>879.0</ele><time>2026-04-08T10:51:02.127Z</time></trkpt><trkpt lat="46.028299" lon="13.7885118"><ele>879.0</ele><time>2026-04-08T10:51:03.135Z</time></trkpt><trkpt lat="46.0284138" lon="13.7885421"><ele>882.5</ele><time>2026-04-08T10:51:04.138Z</time></trkpt><trkpt lat="46.0285253" lon="13.7885632"><ele>886.0</ele><time>2026-04-08T10:51:05.132Z</time></trkpt><trkpt lat="46.0286456" lon="13.7885828"><ele>889.5</ele><time>2026-04-08T10:51:06.13Z</time></trkpt><trkpt lat="46.0287524" lon="13.7886056"><ele>893.0</ele><time>2026-04-08T10:51:07.135Z</time></trkpt><trkpt lat="46.0288645" lon="13.7886247"><ele>893.0</ele><time>2026-04-08T10:51:08.127Z</time></trkpt><trkpt lat="46.0289858" lon="13.7886384"><ele>893.0</ele><time>2026-04-08T10:51:09.13Z</time></trkpt><trkpt lat="46.0291149" lon="13.7886584"><ele>893.0</ele><time>2026-04-08T10:51:10.158Z</time></trkpt><trkpt lat="46.0292373" lon="13.7886781"><ele>893.0</ele><time>2026-04-08T10:51:11.152Z</time></trkpt><trkpt lat="46.0293577" lon="13.7887046"><ele>889.25</ele><time>2026-04-08T10:51:12.158Z</time></trkpt><trkpt lat="46.0294757" lon="13.7887401"><ele>885.5</ele><time>2026-04-08T10:51:13.131Z</time></trkpt><trkpt lat="46.0295936" lon="13.7887737"><ele>881.75</ele><time>2026-04-08T10:51:14.126Z</time></trkpt><trkpt lat="46.0297145" lon="13.7888075"><ele>878.0</ele><time>2026-04-08T10:51:15.137Z</time></trkpt><trkpt lat="46.0298335" lon="13.7888424"><ele>878.0</ele><time>2026-04-08T10:51:16.14Z</time></trkpt><trkpt lat="46.0299527" lon="13.7888715"><ele>878.0</ele><time>2026-04-08T10:51:17.145Z</time></trkpt><trkpt lat="46.0300682" lon="13.7888911"><ele>878.0</ele><time>2026-04-08T10:51:18.129Z</time></trkpt><trkpt lat="46.0301796" lon="13.7889045"><ele>878.0</ele><time>2026-04-08T10:51:19.141Z</time></trkpt><trkpt lat="46.0302949" lon="13.7889054"><ele>873.8</ele><time>2026-04-08T10:51:20.132Z</time></trkpt><trkpt lat="46.0304035" lon="13.7888967"><ele>869.5999999999999</ele><time>2026-04-08T10:51:21.161Z</time></trkpt><trkpt lat="46.0305112" lon="13.7888915"><ele>865.4000000000001</ele><time>2026-04-08T10:51:22.144Z</time></trkpt><trkpt lat="46.0306243" lon="13.788887"><ele>861.2</ele><time>2026-04-08T10:51:23.148Z</time></trkpt><trkpt lat="46.0307375" lon="13.7888953"><ele>857.0</ele><time>2026-04-08T10:51:24.133Z</time></trkpt><trkpt lat="46.0308523" lon="13.7889067"><ele>854.6</ele><time>2026-04-08T10:51:25.131Z</time></trkpt><trkpt lat="46.0309647" lon="13.788911"><ele>852.2</ele><time>2026-04-08T10:51:26.143Z</time></trkpt><trkpt lat="46.0310778" lon="13.7889132"><ele>849.8</ele><time>2026-04-08T10:51:27.146Z</time></trkpt><trkpt lat="46.0311879" lon="13.7889149"><ele>847.4</ele><time>2026-04-08T10:51:28.146Z</time></trkpt><trkpt lat="46.0312947" lon="13.7889185"><ele>845.0</ele><time>2026-04-08T10:51:29.136Z</time></trkpt><trkpt lat="46.0314014" lon="13.7889231"><ele>845.0</ele><time>2026-04-08T10:51:30.13Z</time></trkpt><trkpt lat="46.0315092" lon="13.7889309"><ele>845.0</ele><time>2026-04-08T10:51:31.129Z</time></trkpt><trkpt lat="46.0316164" lon="13.7889427"><ele>845.0</ele><time>2026-04-08T10:51:32.135Z</time></trkpt><trkpt lat="46.0317208" lon="13.7889714"><ele>845.0</ele><time>2026-04-08T10:51:33.139Z</time></trkpt><trkpt lat="46.0318258" lon="13.7890195"><ele>845.0</ele><time>2026-04-08T10:51:34.145Z</time></trkpt><trkpt lat="46.0319184" lon="13.789061"><ele>841.25</ele><time>2026-04-08T10:51:35.143Z</time></trkpt><trkpt lat="46.0320246" lon="13.7891092"><ele>837.5</ele><time>2026-04-08T10:51:36.16Z</time></trkpt><trkpt lat="46.0321429" lon="13.789137"><ele>833.75</ele><time>2026-04-08T10:51:37.144Z</time></trkpt><trkpt lat="46.0322691" lon="13.7891345"><ele>830.0</ele><time>2026-04-08T10:51:38.154Z</time></trkpt><trkpt lat="46.0323995" lon="13.789127"><ele>826.0</ele><time>2026-04-08T10:51:39.135Z</time></trkpt><trkpt lat="46.0325392" lon="13.7891112"><ele>822.0</ele><time>2026-04-08T10:51:40.129Z</time></trkpt><trkpt lat="46.0326744" lon="13.7890898"><ele>818.0</ele><time>2026-04-08T10:51:41.15Z</time></trkpt><trkpt lat="46.0328068" lon="13.7890796"><ele>814.0</ele><time>2026-04-08T10:51:42.144Z</time></trkpt><trkpt lat="46.0329335" lon="13.7890749"><ele>814.0</ele><time>2026-04-08T10:51:43.15Z</time></trkpt><trkpt lat="46.0330497" lon="13.7890697"><ele>814.0</ele><time>2026-04-08T10:51:44.138Z</time></trkpt><trkpt lat="46.0331593" lon="13.7890778"><ele>814.0</ele><time>2026-04-08T10:51:45.15Z</time></trkpt><trkpt lat="46.0332655" lon="13.7890871"><ele>814.0</ele><time>2026-04-08T10:51:46.138Z</time></trkpt><trkpt lat="46.0333629" lon="13.7891039"><ele>814.0</ele><time>2026-04-08T10:51:47.145Z</time></trkpt><trkpt lat="46.0334683" lon="13.7891203"><ele>810.6</ele><time>2026-04-08T10:51:48.14Z</time></trkpt><trkpt lat="46.0335728" lon="13.7891408"><ele>807.2</ele><time>2026-04-08T10:51:49.145Z</time></trkpt><trkpt lat="46.0336867" lon="13.7891628"><ele>803.8000000000001</ele><time>2026-04-08T10:51:50.14Z</time></trkpt><trkpt lat="46.0337967" lon="13.7891753"><ele>800.4000000000001</ele><time>2026-04-08T10:51:51.149Z</time></trkpt><trkpt lat="46.0339107" lon="13.7891913"><ele>797.0</ele><time>2026-04-08T10:51:52.146Z</time></trkpt><trkpt lat="46.0340215" lon="13.7892054"><ele>797.0</ele><time>2026-04-08T10:51:53.142Z</time></trkpt><trkpt lat="46.0341285" lon="13.7892187"><ele>797.0</ele><time>2026-04-08T10:51:54.149Z</time></trkpt><trkpt lat="46.034229" lon="13.7892413"><ele>797.0</ele><time>2026-04-08T10:51:55.15Z</time></trkpt><trkpt lat="46.034324" lon="13.7892587"><ele>797.0</ele><time>2026-04-08T10:51:56.145Z</time></trkpt><trkpt lat="46.0344191" lon="13.7892663"><ele>797.0</ele><time>2026-04-08T10:51:57.143Z</time></trkpt><trkpt lat="46.0345055" lon="13.7892767"><ele>794.4000000000001</ele><time>2026-04-08T10:51:58.14Z</time></trkpt><trkpt lat="46.034587" lon="13.7892929"><ele>791.8000000000001</ele><time>2026-04-08T10:51:59.146Z</time></trkpt><trkpt lat="46.0346778" lon="13.7893116"><ele>789.2</ele><time>2026-04-08T10:52:00.144Z</time></trkpt><trkpt lat="46.0347682" lon="13.7893339"><ele>786.6</ele><time>2026-04-08T10:52:01.138Z</time></trkpt><trkpt lat="46.0348587" lon="13.7893715"><ele>784.0</ele><time>2026-04-08T10:52:02.14Z</time></trkpt><trkpt lat="46.0349483" lon="13.7894288"><ele>789.75</ele><time>2026-04-08T10:52:03.142Z</time></trkpt><trkpt lat="46.0350355" lon="13.7895016"><ele>795.5</ele><time>2026-04-08T10:52:04.151Z</time></trkpt><trkpt lat="46.0351322" lon="13.7895894"><ele>801.25</ele><time>2026-04-08T10:52:05.148Z</time></trkpt><trkpt lat="46.035235" lon="13.7896725"><ele>807.0</ele><time>2026-04-08T10:52:06.15Z</time></trkpt><trkpt lat="46.0353418" lon="13.7897481"><ele>807.0</ele><time>2026-04-08T10:52:07.148Z</time></trkpt><trkpt lat="46.0354554" lon="13.7898191"><ele>807.0</ele><time>2026-04-08T10:52:08.132Z</time></trkpt><trkpt lat="46.0355724" lon="13.7898866"><ele>807.0</ele><time>2026-04-08T10:52:09.152Z</time></trkpt><trkpt lat="46.0356921" lon="13.789956"><ele>807.0</ele><time>2026-04-08T10:52:10.134Z</time></trkpt><trkpt lat="46.0358142" lon="13.7900221"><ele>806.25</ele><time>2026-04-08T10:52:11.146Z</time></trkpt><trkpt lat="46.0359325" lon="13.7900802"><ele>805.5</ele><time>2026-04-08T10:52:12.152Z</time></trkpt><trkpt lat="46.0360532" lon="13.7901363"><ele>804.75</ele><time>2026-04-08T10:52:13.139Z</time></trkpt><trkpt lat="46.0361713" lon="13.7901927"><ele>804.0</ele><time>2026-04-08T10:52:14.153Z</time></trkpt><trkpt lat="46.0362888" lon="13.7902456"><ele>804.0</ele><time>2026-04-08T10:52:15.153Z</time></trkpt><trkpt lat="46.0364119" lon="13.790296"><ele>804.0</ele><time>2026-04-08T10:52:16.167Z</time></trkpt><trkpt lat="46.0365359" lon="13.7903399"><ele>804.0</ele><time>2026-04-08T10:52:17.141Z</time></trkpt><trkpt lat="46.0366565" lon="13.7903953"><ele>804.0</ele><time>2026-04-08T10:52:18.144Z</time></trkpt><trkpt lat="46.0367708" lon="13.7904489"><ele>796.25</ele><time>2026-04-08T10:52:19.143Z</time></trkpt><trkpt lat="46.0368899" lon="13.7905047"><ele>788.5</ele><time>2026-04-08T10:52:20.138Z</time></trkpt><trkpt lat="46.0370103" lon="13.7905591"><ele>780.75</ele><time>2026-04-08T10:52:21.143Z</time></trkpt><trkpt lat="46.0371336" lon="13.7906221"><ele>773.0</ele><time>2026-04-08T10:52:22.157Z</time></trkpt><trkpt lat="46.0372537" lon="13.7906784"><ele>773.0</ele><time>2026-04-08T10:52:23.14Z</time></trkpt><trkpt lat="46.0373703" lon="13.7907417"><ele>773.0</ele><time>2026-04-08T10:52:24.158Z</time></trkpt><trkpt lat="46.0374865" lon="13.790804"><ele>773.0</ele><time>2026-04-08T10:52:25.141Z</time></trkpt><trkpt lat="46.0376107" lon="13.7908731"><ele>773.0</ele><time>2026-04-08T10:52:26.167Z</time></trkpt><trkpt lat="46.0377289" lon="13.790951"><ele>772.5</ele><time>2026-04-08T10:52:27.151Z</time></trkpt><trkpt lat="46.0378442" lon="13.791036"><ele>772.0</ele><time>2026-04-08T10:52:28.162Z</time></trkpt><trkpt lat="46.0379564" lon="13.7911252"><ele>771.5</ele><time>2026-04-08T10:52:29.145Z</time></trkpt><trkpt lat="46.0380716" lon="13.7912141"><ele>771.0</ele><time>2026-04-08T10:52:30.162Z</time></trkpt><trkpt lat="46.0381811" lon="13.7912964"><ele>771.0</ele><time>2026-04-08T10:52:31.145Z</time></trkpt><trkpt lat="46.0382818" lon="13.7913813"><ele>771.0</ele><time>2026-04-08T10:52:32.154Z</time></trkpt><trkpt lat="46.0383684" lon="13.7914856"><ele>771.0</ele><time>2026-04-08T10:52:33.159Z</time></trkpt><trkpt lat="46.0384509" lon="13.7915806"><ele>771.0</ele><time>2026-04-08T10:52:34.148Z</time></trkpt><trkpt lat="46.0385362" lon="13.7916563"><ele>771.0</ele><time>2026-04-08T10:52:35.149Z</time></trkpt><trkpt lat="46.0386436" lon="13.7917034"><ele>762.75</ele><time>2026-04-08T10:52:36.14Z</time></trkpt><trkpt lat="46.0387742" lon="13.7917207"><ele>754.5</ele><time>2026-04-08T10:52:37.143Z</time></trkpt><trkpt lat="46.0389229" lon="13.7917385"><ele>746.25</ele><time>2026-04-08T10:52:38.146Z</time></trkpt><trkpt lat="46.0390693" lon="13.7917637"><ele>738.0</ele><time>2026-04-08T10:52:39.148Z</time></trkpt><trkpt lat="46.0392085" lon="13.7917922"><ele>738.25</ele><time>2026-04-08T10:52:40.145Z</time></trkpt><trkpt lat="46.0393387" lon="13.7918478"><ele>738.5</ele><time>2026-04-08T10:52:41.161Z</time></trkpt><trkpt lat="46.0394684" lon="13.7919074"><ele>738.75</ele><time>2026-04-08T10:52:42.155Z</time></trkpt><trkpt lat="46.0395958" lon="13.7919611"><ele>739.0</ele><time>2026-04-08T10:52:43.155Z</time></trkpt><trkpt lat="46.0397286" lon="13.792013"><ele>739.0</ele><time>2026-04-08T10:52:44.147Z</time></trkpt><trkpt lat="46.0398637" lon="13.7920578"><ele>739.0</ele><time>2026-04-08T10:52:45.155Z</time></trkpt><trkpt lat="46.0400009" lon="13.7921113"><ele>739.0</ele><time>2026-04-08T10:52:46.164Z</time></trkpt><trkpt lat="46.0401258" lon="13.7921804"><ele>739.0</ele><time>2026-04-08T10:52:47.181Z</time></trkpt><trkpt lat="46.0402564" lon="13.7922381"><ele>733.5</ele><time>2026-04-08T10:52:48.179Z</time></trkpt><trkpt lat="46.0403927" lon="13.7922868"><ele>728.0</ele><time>2026-04-08T10:52:49.162Z</time></trkpt><trkpt lat="46.0405361" lon="13.7923454"><ele>722.5</ele><time>2026-04-08T10:52:50.151Z</time></trkpt><trkpt lat="46.0406731" lon="13.7924022"><ele>717.0</ele><time>2026-04-08T10:52:51.147Z</time></trkpt><trkpt lat="46.0408015" lon="13.7924528"><ele>714.0</ele><time>2026-04-08T10:52:52.145Z</time></trkpt><trkpt lat="46.0409257" lon="13.7925197"><ele>711.0</ele><time>2026-04-08T10:52:53.153Z</time></trkpt><trkpt lat="46.0410445" lon="13.7925973"><ele>708.0</ele><time>2026-04-08T10:52:54.157Z</time></trkpt><trkpt lat="46.0411659" lon="13.7926726"><ele>705.0</ele><time>2026-04-08T10:52:55.152Z</time></trkpt><trkpt lat="46.0412901" lon="13.7927439"><ele>703.75</ele><time>2026-04-08T10:52:56.159Z</time></trkpt><trkpt lat="46.0414151" lon="13.7928069"><ele>702.5</ele><time>2026-04-08T10:52:57.158Z</time></trkpt><trkpt lat="46.0415458" lon="13.7928601"><ele>701.25</ele><time>2026-04-08T10:52:58.152Z</time></trkpt><trkpt lat="46.0416806" lon="13.7929025"><ele>700.0</ele><time>2026-04-08T10:52:59.153Z</time></trkpt><trkpt lat="46.0418093" lon="13.792949"><ele>700.0</ele><time>2026-04-08T10:53:00.165Z</time></trkpt><trkpt lat="46.0419453" lon="13.7930216"><ele>700.0</ele><time>2026-04-08T10:53:01.163Z</time></trkpt><trkpt lat="46.0420967" lon="13.7931167"><ele>700.0</ele><time>2026-04-08T10:53:02.151Z</time></trkpt><trkpt lat="46.0422529" lon="13.7932207"><ele>700.0</ele><time>2026-04-08T10:53:03.148Z</time></trkpt><trkpt lat="46.0424072" lon="13.793319"><ele>700.0</ele><time>2026-04-08T10:53:04.143Z</time></trkpt><trkpt lat="46.0425701" lon="13.7933884"><ele>700.0</ele><time>2026-04-08T10:53:05.151Z</time></trkpt><trkpt lat="46.0427424" lon="13.7934138"><ele>689.3333333333334</ele><time>2026-04-08T10:53:06.142Z</time></trkpt><trkpt lat="46.0429139" lon="13.7934058"><ele>678.6666666666666</ele><time>2026-04-08T10:53:07.15Z</time></trkpt><trkpt lat="46.0430758" lon="13.793378"><ele>668.0</ele><time>2026-04-08T10:53:08.152Z</time></trkpt><trkpt lat="46.043237" lon="13.7933236"><ele>659.5</ele><time>2026-04-08T10:53:09.138Z</time></trkpt><trkpt lat="46.0433988" lon="13.7932858"><ele>651.0</ele><time>2026-04-08T10:53:10.149Z</time></trkpt><trkpt lat="46.0437355" lon="13.7933063"><ele>651.0</ele><time>2026-04-08T10:53:12.15Z</time></trkpt><trkpt lat="46.0439083" lon="13.7933788"><ele>651.0</ele><time>2026-04-08T10:53:13.144Z</time></trkpt><trkpt lat="46.0440777" lon="13.7934495"><ele>651.0</ele><time>2026-04-08T10:53:14.163Z</time></trkpt><trkpt lat="46.0442452" lon="13.7935023"><ele>653.3333333333334</ele><time>2026-04-08T10:53:15.152Z</time></trkpt><trkpt lat="46.0444199" lon="13.7935121"><ele>655.6666666666667</ele><time>2026-04-08T10:53:16.16Z</time></trkpt><trkpt lat="46.0445976" lon="13.7934923"><ele>658.0</ele><time>2026-04-08T10:53:17.143Z</time></trkpt><trkpt lat="46.0447842" lon="13.7934624"><ele>647.0</ele><time>2026-04-08T10:53:18.156Z</time></trkpt><trkpt lat="46.0449754" lon="13.7934287"><ele>636.0</ele><time>2026-04-08T10:53:19.171Z</time></trkpt><trkpt lat="46.0451662" lon="13.793403"><ele>625.0</ele><time>2026-04-08T10:53:20.17Z</time></trkpt><trkpt lat="46.0453581" lon="13.793396"><ele>625.0</ele><time>2026-04-08T10:53:21.167Z</time></trkpt><trkpt lat="46.0455479" lon="13.7934079"><ele>625.0</ele><time>2026-04-08T10:53:22.149Z</time></trkpt><trkpt lat="46.045728" lon="13.7934268"><ele>625.0</ele><time>2026-04-08T10:53:23.163Z</time></trkpt><trkpt lat="46.0458826" lon="13.7934705"><ele>626.4</ele><time>2026-04-08T10:53:24.145Z</time></trkpt><trkpt lat="46.0460002" lon="13.7935169"><ele>627.8</ele><time>2026-04-08T10:53:25.163Z</time></trkpt><trkpt lat="46.0460948" lon="13.7935436"><ele>629.2</ele><time>2026-04-08T10:53:26.167Z</time></trkpt><trkpt lat="46.0461908" lon="13.7935767"><ele>630.6</ele><time>2026-04-08T10:53:27.172Z</time></trkpt><trkpt lat="46.0462722" lon="13.7936045"><ele>632.0</ele><time>2026-04-08T10:53:28.149Z</time></trkpt><trkpt lat="46.0463429" lon="13.7936245"><ele>632.0</ele><time>2026-04-08T10:53:29.158Z</time></trkpt><trkpt lat="46.0464201" lon="13.7936239"><ele>632.0</ele><time>2026-04-08T10:53:30.158Z</time></trkpt><trkpt lat="46.0464992" lon="13.7935923"><ele>632.0</ele><time>2026-04-08T10:53:31.158Z</time></trkpt><trkpt lat="46.0465757" lon="13.7935227"><ele>632.0</ele><time>2026-04-08T10:53:32.166Z</time></trkpt><trkpt lat="46.0466438" lon="13.793399"><ele>632.0</ele><time>2026-04-08T10:53:33.161Z</time></trkpt><trkpt lat="46.0467045" lon="13.7932588"><ele>626.5</ele><time>2026-04-08T10:53:34.165Z</time></trkpt><trkpt lat="46.046764" lon="13.7931081"><ele>621.0</ele><time>2026-04-08T10:53:35.167Z</time></trkpt><trkpt lat="46.046824" lon="13.7929576"><ele>615.5</ele><time>2026-04-08T10:53:36.166Z</time></trkpt><trkpt lat="46.0468845" lon="13.7928069"><ele>610.0</ele><time>2026-04-08T10:53:37.166Z</time></trkpt><trkpt lat="46.0469445" lon="13.7926589"><ele>609.0</ele><time>2026-04-08T10:53:38.163Z</time></trkpt><trkpt lat="46.0470054" lon="13.7925098"><ele>608.0</ele><time>2026-04-08T10:53:39.168Z</time></trkpt><trkpt lat="46.0470621" lon="13.7923731"><ele>607.0</ele><time>2026-04-08T10:53:40.157Z</time></trkpt><trkpt lat="46.0471212" lon="13.7922601"><ele>606.0</ele><time>2026-04-08T10:53:41.177Z</time></trkpt><trkpt lat="46.0471849" lon="13.7921779"><ele>605.0</ele><time>2026-04-08T10:53:42.166Z</time></trkpt><trkpt lat="46.0472642" lon="13.7921372"><ele>605.0</ele><time>2026-04-08T10:53:43.176Z</time></trkpt><trkpt lat="46.0473489" lon="13.7921457"><ele>605.0</ele><time>2026-04-08T10:53:44.16Z</time></trkpt><trkpt lat="46.0474358" lon="13.7921735"><ele>605.0</ele><time>2026-04-08T10:53:45.169Z</time></trkpt><trkpt lat="46.0475135" lon="13.7921763"><ele>605.0</ele><time>2026-04-08T10:53:46.163Z</time></trkpt><trkpt lat="46.0475703" lon="13.7921348"><ele>605.0</ele><time>2026-04-08T10:53:47.166Z</time></trkpt><trkpt lat="46.0476216" lon="13.7920638"><ele>605.0</ele><time>2026-04-08T10:53:49.177Z</time></trkpt><trkpt lat="46.0476896" lon="13.7920543"><ele>604.4</ele><time>2026-04-08T10:53:59.153Z</time></trkpt><trkpt lat="46.0477668" lon="13.7920755"><ele>603.8</ele><time>2026-04-08T10:54:00.166Z</time></trkpt><trkpt lat="46.0478683" lon="13.7921369"><ele>603.2</ele><time>2026-04-08T10:54:01.173Z</time></trkpt><trkpt lat="46.0479773" lon="13.7922234"><ele>602.6</ele><time>2026-04-08T10:54:02.178Z</time></trkpt><trkpt lat="46.0480882" lon="13.792321"><ele>602.0</ele><time>2026-04-08T10:54:03.164Z</time></trkpt><trkpt lat="46.0481939" lon="13.792427"><ele>602.0</ele><time>2026-04-08T10:54:04.165Z</time></trkpt><trkpt lat="46.0482908" lon="13.7925318"><ele>602.0</ele><time>2026-04-08T10:54:05.168Z</time></trkpt><trkpt lat="46.0483859" lon="13.7926297"><ele>602.0</ele><time>2026-04-08T10:54:06.167Z</time></trkpt><trkpt lat="46.0484744" lon="13.792732"><ele>602.0</ele><time>2026-04-08T10:54:07.169Z</time></trkpt><trkpt lat="46.0485574" lon="13.7928295"><ele>603.0</ele><time>2026-04-08T10:54:08.169Z</time></trkpt><trkpt lat="46.0486533" lon="13.7929247"><ele>604.0</ele><time>2026-04-08T10:54:09.179Z</time></trkpt><trkpt lat="46.0487552" lon="13.793013"><ele>605.0</ele><time>2026-04-08T10:54:10.163Z</time></trkpt><trkpt lat="46.0488593" lon="13.7930968"><ele>606.0</ele><time>2026-04-08T10:54:11.171Z</time></trkpt><trkpt lat="46.048962" lon="13.7931832"><ele>606.0</ele><time>2026-04-08T10:54:12.168Z</time></trkpt><trkpt lat="46.0490703" lon="13.7932665"><ele>606.0</ele><time>2026-04-08T10:54:13.164Z</time></trkpt><trkpt lat="46.0491796" lon="13.7933568"><ele>606.0</ele><time>2026-04-08T10:54:14.168Z</time></trkpt><trkpt lat="46.0492913" lon="13.793439"><ele>606.0</ele><time>2026-04-08T10:54:15.161Z</time></trkpt><trkpt lat="46.0493994" lon="13.7935262"><ele>606.5</ele><time>2026-04-08T10:54:16.166Z</time></trkpt><trkpt lat="46.0495074" lon="13.7936163"><ele>607.0</ele><time>2026-04-08T10:54:17.166Z</time></trkpt><trkpt lat="46.0496153" lon="13.793703"><ele>607.5</ele><time>2026-04-08T10:54:18.162Z</time></trkpt><trkpt lat="46.0497208" lon="13.7937919"><ele>608.0</ele><time>2026-04-08T10:54:19.164Z</time></trkpt><trkpt lat="46.0498308" lon="13.7938828"><ele>608.0</ele><time>2026-04-08T10:54:20.169Z</time></trkpt><trkpt lat="46.0499369" lon="13.7939711"><ele>608.0</ele><time>2026-04-08T10:54:21.181Z</time></trkpt><trkpt lat="46.0500415" lon="13.7940606"><ele>608.0</ele><time>2026-04-08T10:54:22.173Z</time></trkpt><trkpt lat="46.0501467" lon="13.7941484"><ele>608.0</ele><time>2026-04-08T10:54:23.173Z</time></trkpt><trkpt lat="46.0502477" lon="13.7942343"><ele>608.0</ele><time>2026-04-08T10:54:24.161Z</time></trkpt><trkpt lat="46.0503537" lon="13.7943261"><ele>608.0</ele><time>2026-04-08T10:54:25.172Z</time></trkpt><trkpt lat="46.0504589" lon="13.7944164"><ele>608.0</ele><time>2026-04-08T10:54:26.162Z</time></trkpt><trkpt lat="46.0505643" lon="13.7945168"><ele>608.0</ele><time>2026-04-08T10:54:27.163Z</time></trkpt><trkpt lat="46.0506691" lon="13.7946252"><ele>608.75</ele><time>2026-04-08T10:54:28.167Z</time></trkpt><trkpt lat="46.0507743" lon="13.7947367"><ele>609.5</ele><time>2026-04-08T10:54:29.167Z</time></trkpt><trkpt lat="46.0508835" lon="13.7948486"><ele>610.25</ele><time>2026-04-08T10:54:30.169Z</time></trkpt><trkpt lat="46.0509879" lon="13.7949716"><ele>611.0</ele><time>2026-04-08T10:54:31.186Z</time></trkpt><trkpt lat="46.0510945" lon="13.7951068"><ele>611.75</ele><time>2026-04-08T10:54:32.173Z</time></trkpt><trkpt lat="46.0512145" lon="13.7952389"><ele>612.5</ele><time>2026-04-08T10:54:33.18Z</time></trkpt><trkpt lat="46.0513438" lon="13.7953369"><ele>613.25</ele><time>2026-04-08T10:54:34.162Z</time></trkpt><trkpt lat="46.0514943" lon="13.7953705"><ele>614.0</ele><time>2026-04-08T10:54:35.191Z</time></trkpt><trkpt lat="46.0516541" lon="13.7953558"><ele>614.0</ele><time>2026-04-08T10:54:36.156Z</time></trkpt><trkpt lat="46.0518122" lon="13.7953603"><ele>614.0</ele><time>2026-04-08T10:54:37.167Z</time></trkpt><trkpt lat="46.0519526" lon="13.7954182"><ele>614.0</ele><time>2026-04-08T10:54:38.167Z</time></trkpt><trkpt lat="46.0520813" lon="13.7955229"><ele>614.0</ele><time>2026-04-08T10:54:39.187Z</time></trkpt><trkpt lat="46.0521899" lon="13.7956485"><ele>614.0</ele><time>2026-04-08T10:54:40.17Z</time></trkpt><trkpt lat="46.0522641" lon="13.7957889"><ele>614.0</ele><time>2026-04-08T10:54:41.173Z</time></trkpt><trkpt lat="46.0523265" lon="13.7959057"><ele>614.0</ele><time>2026-04-08T10:54:42.156Z</time></trkpt><trkpt lat="46.0523824" lon="13.7960022"><ele>614.6</ele><time>2026-04-08T10:54:43.186Z</time></trkpt><trkpt lat="46.0524295" lon="13.796084"><ele>615.2</ele><time>2026-04-08T10:54:44.16Z</time></trkpt><trkpt lat="46.0525087" lon="13.796207"><ele>615.8000000000001</ele><time>2026-04-08T10:54:46.163Z</time></trkpt><trkpt lat="46.0525462" lon="13.796284"><ele>616.4</ele><time>2026-04-08T10:54:48.165Z</time></trkpt><trkpt lat="46.0526282" lon="13.7963883"><ele>617.0</ele><time>2026-04-08T10:54:57.162Z</time></trkpt><trkpt lat="46.0526861" lon="13.79648"><ele>617.25</ele><time>2026-04-08T10:54:58.186Z</time></trkpt><trkpt lat="46.0527506" lon="13.7965718"><ele>617.5</ele><time>2026-04-08T10:54:59.174Z</time></trkpt><trkpt lat="46.0528162" lon="13.7966826"><ele>617.75</ele><time>2026-04-08T10:55:00.162Z</time></trkpt><trkpt lat="46.0529006" lon="13.7968144"><ele>618.0</ele><time>2026-04-08T10:55:01.165Z</time></trkpt><trkpt lat="46.053005" lon="13.7969542"><ele>619.0</ele><time>2026-04-08T10:55:02.17Z</time></trkpt><trkpt lat="46.0531008" lon="13.7970961"><ele>620.0</ele><time>2026-04-08T10:55:03.163Z</time></trkpt><trkpt lat="46.0532004" lon="13.7972387"><ele>621.0</ele><time>2026-04-08T10:55:04.16Z</time></trkpt><trkpt lat="46.0532935" lon="13.7973942"><ele>622.0</ele><time>2026-04-08T10:55:05.16Z</time></trkpt><trkpt lat="46.0533867" lon="13.7975558"><ele>625.0</ele><time>2026-04-08T10:55:06.175Z</time></trkpt><trkpt lat="46.0534782" lon="13.7977138"><ele>628.0</ele><time>2026-04-08T10:55:07.16Z</time></trkpt><trkpt lat="46.0535771" lon="13.7978452"><ele>631.0</ele><time>2026-04-08T10:55:08.17Z</time></trkpt><trkpt lat="46.0536977" lon="13.7979468"><ele>634.0</ele><time>2026-04-08T10:55:09.181Z</time></trkpt><trkpt lat="46.0538697" lon="13.7979872"><ele>634.0</ele><time>2026-04-08T10:55:10.159Z</time></trkpt><trkpt lat="46.0540661" lon="13.7980249"><ele>634.0</ele><time>2026-04-08T10:55:11.162Z</time></trkpt><trkpt lat="46.0542587" lon="13.7980741"><ele>634.0</ele><time>2026-04-08T10:55:12.182Z</time></trkpt><trkpt lat="46.054458" lon="13.7981401"><ele>634.0</ele><time>2026-04-08T10:55:13.171Z</time></trkpt><trkpt lat="46.0546607" lon="13.7981841"><ele>634.0</ele><time>2026-04-08T10:55:14.175Z</time></trkpt><trkpt lat="46.0548584" lon="13.7982128"><ele>634.0</ele><time>2026-04-08T10:55:15.161Z</time></trkpt><trkpt lat="46.0550538" lon="13.7982304"><ele>634.0</ele><time>2026-04-08T10:55:16.168Z</time></trkpt><trkpt lat="46.0552382" lon="13.7982302"><ele>634.0</ele><time>2026-04-08T10:55:17.165Z</time></trkpt><trkpt lat="46.0554055" lon="13.7982133"><ele>634.0</ele><time>2026-04-08T10:55:18.186Z</time></trkpt><trkpt lat="46.0555571" lon="13.79819"><ele>636.0</ele><time>2026-04-08T10:55:19.249Z</time></trkpt><trkpt lat="46.0557989" lon="13.7980515"><ele>638.0</ele><time>2026-04-08T10:55:21.171Z</time></trkpt><trkpt lat="46.0559005" lon="13.7979134"><ele>640.0</ele><time>2026-04-08T10:55:22.193Z</time></trkpt><trkpt lat="46.0560025" lon="13.7977675"><ele>641.5</ele><time>2026-04-08T10:55:23.19Z</time></trkpt><trkpt lat="46.0561198" lon="13.7976386"><ele>643.0</ele><time>2026-04-08T10:55:24.154Z</time></trkpt><trkpt lat="46.0564691" lon="13.7974784"><ele>643.0</ele><time>2026-04-08T10:55:26.176Z</time></trkpt><trkpt lat="46.0566758" lon="13.797443"><ele>643.0</ele><time>2026-04-08T10:55:27.163Z</time></trkpt><trkpt lat="46.0568898" lon="13.7974131"><ele>643.0</ele><time>2026-04-08T10:55:28.161Z</time></trkpt><trkpt lat="46.0570996" lon="13.7973516"><ele>643.0</ele><time>2026-04-08T10:55:29.182Z</time></trkpt><trkpt lat="46.0573196" lon="13.7972512"><ele>643.0</ele><time>2026-04-08T10:55:30.182Z</time></trkpt><trkpt lat="46.0575446" lon="13.7971313"><ele>642.5</ele><time>2026-04-08T10:55:31.16Z</time></trkpt><trkpt lat="46.0577623" lon="13.7970103"><ele>642.0</ele><time>2026-04-08T10:55:32.173Z</time></trkpt><trkpt lat="46.0579811" lon="13.7968966"><ele>643.0</ele><time>2026-04-08T10:55:33.169Z</time></trkpt><trkpt lat="46.0581886" lon="13.7968009"><ele>644.0</ele><time>2026-04-08T10:55:34.176Z</time></trkpt><trkpt lat="46.0583892" lon="13.796714"><ele>645.0</ele><time>2026-04-08T10:55:35.171Z</time></trkpt><trkpt lat="46.0585917" lon="13.7966329"><ele>645.0</ele><time>2026-04-08T10:55:36.183Z</time></trkpt><trkpt lat="46.0587965" lon="13.7965551"><ele>645.0</ele><time>2026-04-08T10:55:37.171Z</time></trkpt><trkpt lat="46.0590038" lon="13.79647"><ele>645.0</ele><time>2026-04-08T10:55:38.191Z</time></trkpt><trkpt lat="46.0592167" lon="13.796392"><ele>643.5</ele><time>2026-04-08T10:55:39.179Z</time></trkpt><trkpt lat="46.0594364" lon="13.7963449"><ele>642.0</ele><time>2026-04-08T10:55:40.174Z</time></trkpt><trkpt lat="46.0596638" lon="13.7963141"><ele>642.0</ele><time>2026-04-08T10:55:41.178Z</time></trkpt><trkpt lat="46.0598992" lon="13.7962926"><ele>642.0</ele><time>2026-04-08T10:55:42.18Z</time></trkpt><trkpt lat="46.0601414" lon="13.7962802"><ele>644.5</ele><time>2026-04-08T10:55:43.181Z</time></trkpt><trkpt lat="46.0603833" lon="13.796279"><ele>647.0</ele><time>2026-04-08T10:55:44.19Z</time></trkpt><trkpt lat="46.0606164" lon="13.7962819"><ele>647.6666666666666</ele><time>2026-04-08T10:55:45.179Z</time></trkpt><trkpt lat="46.060841" lon="13.7962784"><ele>648.3333333333334</ele><time>2026-04-08T10:55:46.173Z</time></trkpt><trkpt lat="46.0610621" lon="13.7962241"><ele>649.0</ele><time>2026-04-08T10:55:47.181Z</time></trkpt><trkpt lat="46.0612864" lon="13.796155"><ele>649.0</ele><time>2026-04-08T10:55:48.183Z</time></trkpt><trkpt lat="46.0615172" lon="13.7961007"><ele>649.0</ele><time>2026-04-08T10:55:49.18Z</time></trkpt><trkpt lat="46.0617543" lon="13.7960846"><ele>645.5</ele><time>2026-04-08T10:55:50.175Z</time></trkpt><trkpt lat="46.0619959" lon="13.7960966"><ele>642.0</ele><time>2026-04-08T10:55:51.181Z</time></trkpt><trkpt lat="46.0622314" lon="13.7961013"><ele>642.0</ele><time>2026-04-08T10:55:52.176Z</time></trkpt><trkpt lat="46.0624648" lon="13.796112"><ele>642.0</ele><time>2026-04-08T10:55:53.169Z</time></trkpt><trkpt lat="46.0626917" lon="13.796138"><ele>642.0</ele><time>2026-04-08T10:55:54.167Z</time></trkpt><trkpt lat="46.0629164" lon="13.7961706"><ele>642.0</ele><time>2026-04-08T10:55:55.164Z</time></trkpt><trkpt lat="46.0631388" lon="13.7961841"><ele>642.0</ele><time>2026-04-08T10:55:56.186Z</time></trkpt><trkpt lat="46.0633656" lon="13.7961634"><ele>643.5</ele><time>2026-04-08T10:55:57.169Z</time></trkpt><trkpt lat="46.0636008" lon="13.7961305"><ele>645.0</ele><time>2026-04-08T10:55:58.174Z</time></trkpt><trkpt lat="46.063834" lon="13.7960968"><ele>645.0</ele><time>2026-04-08T10:55:59.185Z</time></trkpt><trkpt lat="46.064069" lon="13.7960798"><ele>645.0</ele><time>2026-04-08T10:56:00.166Z</time></trkpt><trkpt lat="46.0643066" lon="13.7960793"><ele>645.5</ele><time>2026-04-08T10:56:01.181Z</time></trkpt><trkpt lat="46.0645432" lon="13.7961027"><ele>646.0</ele><time>2026-04-08T10:56:02.17Z</time></trkpt><trkpt lat="46.0647632" lon="13.7961462"><ele>646.0</ele><time>2026-04-08T10:56:03.169Z</time></trkpt><trkpt lat="46.0649442" lon="13.7961836"><ele>646.0</ele><time>2026-04-08T10:56:04.182Z</time></trkpt><trkpt lat="46.0650871" lon="13.7962185"><ele>646.0</ele><time>2026-04-08T10:56:05.175Z</time></trkpt><trkpt lat="46.0651947" lon="13.7962403"><ele>646.0</ele><time>2026-04-08T10:56:06.175Z</time></trkpt><trkpt lat="46.0652779" lon="13.7962503"><ele>644.8</ele><time>2026-04-08T10:56:07.183Z</time></trkpt><trkpt lat="46.0653562" lon="13.7962512"><ele>643.5999999999999</ele><time>2026-04-08T10:56:09.172Z</time></trkpt><trkpt lat="46.0654645" lon="13.7962436"><ele>642.4</ele><time>2026-04-08T10:57:03.176Z</time></trkpt><trkpt lat="46.0655768" lon="13.7962471"><ele>641.2</ele><time>2026-04-08T10:57:04.206Z</time></trkpt><trkpt lat="46.0657148" lon="13.7962337"><ele>640.0</ele><time>2026-04-08T10:57:05.192Z</time></trkpt><trkpt lat="46.0658812" lon="13.7961768"><ele>639.6666666666667</ele><time>2026-04-08T10:57:06.202Z</time></trkpt><trkpt lat="46.0660669" lon="13.7960923"><ele>639.3333333333334</ele><time>2026-04-08T10:57:07.185Z</time></trkpt><trkpt lat="46.066259" lon="13.7959783"><ele>639.0</ele><time>2026-04-08T10:57:08.188Z</time></trkpt><trkpt lat="46.0664425" lon="13.7958477"><ele>638.3333333333334</ele><time>2026-04-08T10:57:09.187Z</time></trkpt><trkpt lat="46.0666067" lon="13.7957006"><ele>637.6666666666667</ele><time>2026-04-08T10:57:10.173Z</time></trkpt><trkpt lat="46.0667671" lon="13.7955656"><ele>637.0</ele><time>2026-04-08T10:57:11.178Z</time></trkpt><trkpt lat="46.0669358" lon="13.7954611"><ele>638.3333333333334</ele><time>2026-04-08T10:57:12.199Z</time></trkpt><trkpt lat="46.0671278" lon="13.7954205"><ele>639.6666666666666</ele><time>2026-04-08T10:57:13.207Z</time></trkpt><trkpt lat="46.0673365" lon="13.7954104"><ele>641.0</ele><time>2026-04-08T10:57:14.189Z</time></trkpt><trkpt lat="46.0675483" lon="13.7954168"><ele>641.5</ele><time>2026-04-08T10:57:15.188Z</time></trkpt><trkpt lat="46.0677693" lon="13.7954004"><ele>642.0</ele><time>2026-04-08T10:57:16.204Z</time></trkpt><trkpt lat="46.0680088" lon="13.7953537"><ele>642.0</ele><time>2026-04-08T10:57:17.186Z</time></trkpt><trkpt lat="46.06825" lon="13.7952841"><ele>642.0</ele><time>2026-04-08T10:57:18.182Z</time></trkpt><trkpt lat="46.068493" lon="13.7951931"><ele>639.5</ele><time>2026-04-08T10:57:19.199Z</time></trkpt><trkpt lat="46.0687376" lon="13.7950854"><ele>637.0</ele><time>2026-04-08T10:57:20.198Z</time></trkpt><trkpt lat="46.0689847" lon="13.7949788"><ele>638.5</ele><time>2026-04-08T10:57:21.19Z</time></trkpt><trkpt lat="46.0692286" lon="13.7948927"><ele>640.0</ele><time>2026-04-08T10:57:22.188Z</time></trkpt><trkpt lat="46.0694701" lon="13.794822"><ele>640.0</ele><time>2026-04-08T10:57:23.196Z</time></trkpt><trkpt lat="46.0696957" lon="13.7947482"><ele>640.0</ele><time>2026-04-08T10:57:24.191Z</time></trkpt><trkpt lat="46.0698867" lon="13.7946901"><ele>640.0</ele><time>2026-04-08T10:57:25.181Z</time></trkpt><trkpt lat="46.0700703" lon="13.7946699"><ele>641.0</ele><time>2026-04-08T10:57:26.178Z</time></trkpt><trkpt lat="46.0702595" lon="13.7946916"><ele>642.0</ele><time>2026-04-08T10:57:27.198Z</time></trkpt><trkpt lat="46.0704664" lon="13.794737"><ele>643.0</ele><time>2026-04-08T10:57:28.184Z</time></trkpt><trkpt lat="46.0707024" lon="13.7947759"><ele>642.0</ele><time>2026-04-08T10:57:29.176Z</time></trkpt><trkpt lat="46.0709521" lon="13.794807"><ele>641.0</ele><time>2026-04-08T10:57:30.19Z</time></trkpt><trkpt lat="46.0712095" lon="13.7948291"><ele>641.0</ele><time>2026-04-08T10:57:31.19Z</time></trkpt><trkpt lat="46.0714606" lon="13.7948491"><ele>641.0</ele><time>2026-04-08T10:57:32.191Z</time></trkpt><trkpt lat="46.0717093" lon="13.7948705"><ele>639.0</ele><time>2026-04-08T10:57:33.203Z</time></trkpt><trkpt lat="46.0719594" lon="13.7948912"><ele>637.0</ele><time>2026-04-08T10:57:34.19Z</time></trkpt><trkpt lat="46.0722045" lon="13.7949041"><ele>637.0</ele><time>2026-04-08T10:57:35.197Z</time></trkpt><trkpt lat="46.0724357" lon="13.7948954"><ele>637.0</ele><time>2026-04-08T10:57:36.2Z</time></trkpt><trkpt lat="46.0726601" lon="13.7948676"><ele>637.3333333333334</ele><time>2026-04-08T10:57:37.195Z</time></trkpt><trkpt lat="46.0728769" lon="13.7948552"><ele>637.6666666666666</ele><time>2026-04-08T10:57:38.191Z</time></trkpt><trkpt lat="46.073092" lon="13.7949061"><ele>638.0</ele><time>2026-04-08T10:57:39.183Z</time></trkpt><trkpt lat="46.0733158" lon="13.7950008"><ele>638.3333333333333</ele><time>2026-04-08T10:57:40.179Z</time></trkpt><trkpt lat="46.0735301" lon="13.7950999"><ele>638.6666666666666</ele><time>2026-04-08T10:57:41.196Z</time></trkpt><trkpt lat="46.0737363" lon="13.7951987"><ele>639.0</ele><time>2026-04-08T10:57:42.197Z</time></trkpt><trkpt lat="46.073923" lon="13.795324"><ele>639.0</ele><time>2026-04-08T10:57:43.209Z</time></trkpt><trkpt lat="46.0740932" lon="13.7954704"><ele>639.0</ele><time>2026-04-08T10:57:44.176Z</time></trkpt><trkpt lat="46.0742494" lon="13.7956155"><ele>639.0</ele><time>2026-04-08T10:57:45.205Z</time></trkpt><trkpt lat="46.074396" lon="13.7957305"><ele>636.6666666666666</ele><time>2026-04-08T10:57:46.19Z</time></trkpt><trkpt lat="46.074561" lon="13.7958132"><ele>634.3333333333333</ele><time>2026-04-08T10:57:47.203Z</time></trkpt><trkpt lat="46.0747404" lon="13.7958595"><ele>632.0</ele><time>2026-04-08T10:57:48.177Z</time></trkpt><trkpt lat="46.074935" lon="13.7958759"><ele>630.6666666666666</ele><time>2026-04-08T10:57:49.172Z</time></trkpt><trkpt lat="46.0751278" lon="13.7958862"><ele>629.3333333333334</ele><time>2026-04-08T10:57:50.196Z</time></trkpt><trkpt lat="46.0753185" lon="13.7958831"><ele>628.0</ele><time>2026-04-08T10:57:51.21Z</time></trkpt><trkpt lat="46.0755047" lon="13.7958684"><ele>628.0</ele><time>2026-04-08T10:57:52.191Z</time></trkpt><trkpt lat="46.0756796" lon="13.7958495"><ele>628.0</ele><time>2026-04-08T10:57:53.189Z</time></trkpt><trkpt lat="46.0758584" lon="13.7958463"><ele>628.0</ele><time>2026-04-08T10:57:54.195Z</time></trkpt><trkpt lat="46.076041" lon="13.7958529"><ele>628.3333333333334</ele><time>2026-04-08T10:57:55.204Z</time></trkpt><trkpt lat="46.0762249" lon="13.7958738"><ele>628.6666666666666</ele><time>2026-04-08T10:57:56.174Z</time></trkpt><trkpt lat="46.0764091" lon="13.7959012"><ele>629.0</ele><time>2026-04-08T10:57:57.188Z</time></trkpt><trkpt lat="46.0765947" lon="13.7959258"><ele>627.3333333333333</ele><time>2026-04-08T10:57:58.196Z</time></trkpt><trkpt lat="46.0767742" lon="13.7959344"><ele>625.6666666666666</ele><time>2026-04-08T10:57:59.191Z</time></trkpt><trkpt lat="46.0769425" lon="13.7959073"><ele>624.0</ele><time>2026-04-08T10:58:00.194Z</time></trkpt><trkpt lat="46.0771037" lon="13.795859"><ele>624.0</ele><time>2026-04-08T10:58:01.191Z</time></trkpt><trkpt lat="46.0772605" lon="13.7958458"><ele>624.0</ele><time>2026-04-08T10:58:02.192Z</time></trkpt><trkpt lat="46.0774212" lon="13.7958509"><ele>624.0</ele><time>2026-04-08T10:58:03.197Z</time></trkpt><trkpt lat="46.0775798" lon="13.7958618"><ele>624.3333333333334</ele><time>2026-04-08T10:58:04.18Z</time></trkpt><trkpt lat="46.0777379" lon="13.7958883"><ele>624.6666666666667</ele><time>2026-04-08T10:58:05.191Z</time></trkpt><trkpt lat="46.0778943" lon="13.7959296"><ele>625.0</ele><time>2026-04-08T10:58:06.195Z</time></trkpt><trkpt lat="46.0780518" lon="13.7959782"><ele>624.3333333333334</ele><time>2026-04-08T10:58:07.194Z</time></trkpt><trkpt lat="46.0782035" lon="13.7960266"><ele>623.6666666666666</ele><time>2026-04-08T10:58:08.193Z</time></trkpt><trkpt lat="46.0783489" lon="13.7960939"><ele>623.0</ele><time>2026-04-08T10:58:09.19Z</time></trkpt><trkpt lat="46.0784953" lon="13.7961859"><ele>623.0</ele><time>2026-04-08T10:58:10.187Z</time></trkpt><trkpt lat="46.0786403" lon="13.7962874"><ele>623.0</ele><time>2026-04-08T10:58:11.19Z</time></trkpt><trkpt lat="46.0787912" lon="13.7963661"><ele>623.0</ele><time>2026-04-08T10:58:12.203Z</time></trkpt><trkpt lat="46.0789565" lon="13.7964148"><ele>622.3333333333333</ele><time>2026-04-08T10:58:13.192Z</time></trkpt><trkpt lat="46.0791362" lon="13.7964442"><ele>621.6666666666666</ele><time>2026-04-08T10:58:14.195Z</time></trkpt><trkpt lat="46.0793163" lon="13.7964563"><ele>621.0</ele><time>2026-04-08T10:58:15.186Z</time></trkpt><trkpt lat="46.0795043" lon="13.7964625"><ele>621.0</ele><time>2026-04-08T10:58:16.179Z</time></trkpt><trkpt lat="46.0796967" lon="13.7964685"><ele>621.0</ele><time>2026-04-08T10:58:17.185Z</time></trkpt><trkpt lat="46.0798897" lon="13.7964735"><ele>621.0</ele><time>2026-04-08T10:58:18.189Z</time></trkpt><trkpt lat="46.0800839" lon="13.7964685"><ele>620.0</ele><time>2026-04-08T10:58:19.217Z</time></trkpt><trkpt lat="46.0802799" lon="13.7964669"><ele>619.0</ele><time>2026-04-08T10:58:20.178Z</time></trkpt><trkpt lat="46.0804795" lon="13.796467"><ele>618.0</ele><time>2026-04-08T10:58:21.191Z</time></trkpt><trkpt lat="46.0806801" lon="13.7964844"><ele>616.0</ele><time>2026-04-08T10:58:22.181Z</time></trkpt><trkpt lat="46.0808794" lon="13.7965227"><ele>614.0</ele><time>2026-04-08T10:58:23.19Z</time></trkpt><trkpt lat="46.0810755" lon="13.7965988"><ele>612.0</ele><time>2026-04-08T10:58:24.181Z</time></trkpt><trkpt lat="46.0812692" lon="13.7966894"><ele>612.0</ele><time>2026-04-08T10:58:25.213Z</time></trkpt><trkpt lat="46.0814606" lon="13.7967737"><ele>612.0</ele><time>2026-04-08T10:58:26.188Z</time></trkpt><trkpt lat="46.0816389" lon="13.7968445"><ele>612.0</ele><time>2026-04-08T10:58:27.198Z</time></trkpt><trkpt lat="46.0818059" lon="13.7969132"><ele>611.3333333333334</ele><time>2026-04-08T10:58:28.191Z</time></trkpt><trkpt lat="46.0819676" lon="13.7969683"><ele>610.6666666666667</ele><time>2026-04-08T10:58:29.186Z</time></trkpt><trkpt lat="46.0821174" lon="13.7969948"><ele>610.0</ele><time>2026-04-08T10:58:30.194Z</time></trkpt><trkpt lat="46.082264" lon="13.7970015"><ele>610.0</ele><time>2026-04-08T10:58:31.196Z</time></trkpt><trkpt lat="46.0824055" lon="13.796991"><ele>610.0</ele><time>2026-04-08T10:58:32.186Z</time></trkpt><trkpt lat="46.0825383" lon="13.7969932"><ele>610.0</ele><time>2026-04-08T10:58:33.194Z</time></trkpt><trkpt lat="46.0826706" lon="13.7970034"><ele>610.0</ele><time>2026-04-08T10:58:34.188Z</time></trkpt><trkpt lat="46.0828059" lon="13.7970196"><ele>609.75</ele><time>2026-04-08T10:58:35.203Z</time></trkpt><trkpt lat="46.0829398" lon="13.7970327"><ele>609.5</ele><time>2026-04-08T10:58:36.197Z</time></trkpt><trkpt lat="46.083077" lon="13.7970495"><ele>609.25</ele><time>2026-04-08T10:58:37.191Z</time></trkpt><trkpt lat="46.0832143" lon="13.7970685"><ele>609.0</ele><time>2026-04-08T10:58:38.189Z</time></trkpt><trkpt lat="46.083357" lon="13.7970828"><ele>609.0</ele><time>2026-04-08T10:58:39.216Z</time></trkpt><trkpt lat="46.0834998" lon="13.7970908"><ele>609.0</ele><time>2026-04-08T10:58:40.188Z</time></trkpt><trkpt lat="46.0836443" lon="13.7971064"><ele>609.0</ele><time>2026-04-08T10:58:41.195Z</time></trkpt><trkpt lat="46.0837858" lon="13.7971253"><ele>609.0</ele><time>2026-04-08T10:58:42.188Z</time></trkpt><trkpt lat="46.0839267" lon="13.7971584"><ele>609.0</ele><time>2026-04-08T10:58:43.192Z</time></trkpt><trkpt lat="46.0840663" lon="13.7971543"><ele>609.0</ele><time>2026-04-08T10:58:44.183Z</time></trkpt><trkpt lat="46.0842064" lon="13.7970877"><ele>609.0</ele><time>2026-04-08T10:58:45.196Z</time></trkpt><trkpt lat="46.0843591" lon="13.7970271"><ele>609.0</ele><time>2026-04-08T10:58:46.201Z</time></trkpt><trkpt lat="46.0845259" lon="13.7970023"><ele>609.3333333333334</ele><time>2026-04-08T10:58:47.192Z</time></trkpt><trkpt lat="46.0847017" lon="13.7970256"><ele>609.6666666666667</ele><time>2026-04-08T10:58:48.199Z</time></trkpt><trkpt lat="46.0848804" lon="13.7970839"><ele>610.0</ele><time>2026-04-08T10:58:49.203Z</time></trkpt><trkpt lat="46.0850556" lon="13.7971563"><ele>610.0</ele><time>2026-04-08T10:58:50.183Z</time></trkpt><trkpt lat="46.0852287" lon="13.7972115"><ele>610.0</ele><time>2026-04-08T10:58:51.189Z</time></trkpt><trkpt lat="46.0854112" lon="13.7972418"><ele>610.0</ele><time>2026-04-08T10:58:52.187Z</time></trkpt><trkpt lat="46.0856005" lon="13.7972395"><ele>610.3333333333334</ele><time>2026-04-08T10:58:53.19Z</time></trkpt><trkpt lat="46.0857786" lon="13.7972378"><ele>610.6666666666666</ele><time>2026-04-08T10:58:54.191Z</time></trkpt><trkpt lat="46.085949" lon="13.7972595"><ele>611.0</ele><time>2026-04-08T10:58:55.199Z</time></trkpt><trkpt lat="46.0861047" lon="13.7972653"><ele>611.0</ele><time>2026-04-08T10:58:56.197Z</time></trkpt><trkpt lat="46.0862481" lon="13.7972395"><ele>611.0</ele><time>2026-04-08T10:58:57.192Z</time></trkpt><trkpt lat="46.0863926" lon="13.7972459"><ele>611.0</ele><time>2026-04-08T10:58:58.183Z</time></trkpt><trkpt lat="46.0865335" lon="13.7972944"><ele>611.0</ele><time>2026-04-08T10:58:59.186Z</time></trkpt><trkpt lat="46.0866674" lon="13.797335"><ele>611.5</ele><time>2026-04-08T10:59:00.186Z</time></trkpt><trkpt lat="46.0867992" lon="13.7973258"><ele>612.0</ele><time>2026-04-08T10:59:01.204Z</time></trkpt><trkpt lat="46.0869222" lon="13.7972747"><ele>612.5</ele><time>2026-04-08T10:59:02.206Z</time></trkpt><trkpt lat="46.087029" lon="13.7971775"><ele>613.0</ele><time>2026-04-08T10:59:03.203Z</time></trkpt><trkpt lat="46.087123" lon="13.7970378"><ele>613.0</ele><time>2026-04-08T10:59:04.186Z</time></trkpt><trkpt lat="46.087188" lon="13.7968732"><ele>613.0</ele><time>2026-04-08T10:59:05.191Z</time></trkpt><trkpt lat="46.0872385" lon="13.7967071"><ele>613.0</ele><time>2026-04-08T10:59:06.203Z</time></trkpt><trkpt lat="46.0872995" lon="13.79656"><ele>613.0</ele><time>2026-04-08T10:59:07.203Z</time></trkpt><trkpt lat="46.0873983" lon="13.7964416"><ele>612.0</ele><time>2026-04-08T10:59:08.218Z</time></trkpt><trkpt lat="46.087517" lon="13.7963848"><ele>611.0</ele><time>2026-04-08T10:59:09.199Z</time></trkpt><trkpt lat="46.0876603" lon="13.7963707"><ele>610.0</ele><time>2026-04-08T10:59:10.186Z</time></trkpt><trkpt lat="46.0878114" lon="13.7963764"><ele>609.0</ele><time>2026-04-08T10:59:11.186Z</time></trkpt><trkpt lat="46.0879653" lon="13.7963954"><ele>609.0</ele><time>2026-04-08T10:59:12.212Z</time></trkpt><trkpt lat="46.088116" lon="13.7964019"><ele>609.0</ele><time>2026-04-08T10:59:13.21Z</time></trkpt><trkpt lat="46.0882737" lon="13.7963984"><ele>609.0</ele><time>2026-04-08T10:59:14.187Z</time></trkpt><trkpt lat="46.0884285" lon="13.7964383"><ele>607.3333333333334</ele><time>2026-04-08T10:59:15.205Z</time></trkpt><trkpt lat="46.088575" lon="13.7965314"><ele>605.6666666666667</ele><time>2026-04-08T10:59:16.203Z</time></trkpt><trkpt lat="46.0887248" lon="13.7965933"><ele>604.0</ele><time>2026-04-08T10:59:17.207Z</time></trkpt><trkpt lat="46.0888811" lon="13.7965926"><ele>604.0</ele><time>2026-04-08T10:59:18.207Z</time></trkpt><trkpt lat="46.0890305" lon="13.7965479"><ele>604.0</ele><time>2026-04-08T10:59:19.197Z</time></trkpt><trkpt lat="46.0891714" lon="13.7964706"><ele>604.0</ele><time>2026-04-08T10:59:20.195Z</time></trkpt><trkpt lat="46.0893154" lon="13.7963866"><ele>604.5</ele><time>2026-04-08T10:59:21.206Z</time></trkpt><trkpt lat="46.0894566" lon="13.7963703"><ele>605.0</ele><time>2026-04-08T10:59:22.194Z</time></trkpt><trkpt lat="46.089574" lon="13.7964463"><ele>605.5</ele><time>2026-04-08T10:59:23.203Z</time></trkpt><trkpt lat="46.0896687" lon="13.7965834"><ele>606.0</ele><time>2026-04-08T10:59:24.2Z</time></trkpt><trkpt lat="46.0897348" lon="13.7967544"><ele>606.25</ele><time>2026-04-08T10:59:25.2Z</time></trkpt><trkpt lat="46.089781" lon="13.796947"><ele>606.5</ele><time>2026-04-08T10:59:26.206Z</time></trkpt><trkpt lat="46.0898394" lon="13.7971281"><ele>606.75</ele><time>2026-04-08T10:59:27.201Z</time></trkpt><trkpt lat="46.0899054" lon="13.7972791"><ele>607.0</ele><time>2026-04-08T10:59:28.197Z</time></trkpt><trkpt lat="46.0900127" lon="13.7973879"><ele>607.0</ele><time>2026-04-08T10:59:29.193Z</time></trkpt><trkpt lat="46.0901705" lon="13.7974558"><ele>607.0</ele><time>2026-04-08T10:59:30.192Z</time></trkpt><trkpt lat="46.0903342" lon="13.7975188"><ele>607.0</ele><time>2026-04-08T10:59:31.204Z</time></trkpt><trkpt lat="46.0904977" lon="13.7975752"><ele>607.0</ele><time>2026-04-08T10:59:32.202Z</time></trkpt><trkpt lat="46.0906598" lon="13.797614"><ele>607.0</ele><time>2026-04-08T10:59:33.212Z</time></trkpt><trkpt lat="46.0908272" lon="13.7975911"><ele>607.0</ele><time>2026-04-08T10:59:34.203Z</time></trkpt><trkpt lat="46.0909913" lon="13.7975213"><ele>606.6666666666667</ele><time>2026-04-08T10:59:35.204Z</time></trkpt><trkpt lat="46.0911534" lon="13.7974366"><ele>606.3333333333334</ele><time>2026-04-08T10:59:36.2Z</time></trkpt><trkpt lat="46.0913083" lon="13.7973873"><ele>606.0</ele><time>2026-04-08T10:59:37.201Z</time></trkpt><trkpt lat="46.0914561" lon="13.7974219"><ele>605.25</ele><time>2026-04-08T10:59:38.194Z</time></trkpt><trkpt lat="46.0916019" lon="13.7974677"><ele>604.5</ele><time>2026-04-08T10:59:39.195Z</time></trkpt><trkpt lat="46.0917446" lon="13.7974711"><ele>603.75</ele><time>2026-04-08T10:59:40.21Z</time></trkpt><trkpt lat="46.0918784" lon="13.7974176"><ele>603.0</ele><time>2026-04-08T10:59:41.203Z</time></trkpt><trkpt lat="46.092012" lon="13.7973775"><ele>603.0</ele><time>2026-04-08T10:59:42.186Z</time></trkpt><trkpt lat="46.0921315" lon="13.7974061"><ele>603.0</ele><time>2026-04-08T10:59:43.189Z</time></trkpt><trkpt lat="46.092233" lon="13.7975201"><ele>603.0</ele><time>2026-04-08T10:59:44.217Z</time></trkpt><trkpt lat="46.0923247" lon="13.7976576"><ele>603.0</ele><time>2026-04-08T10:59:45.195Z</time></trkpt><trkpt lat="46.0924244" lon="13.7977754"><ele>601.6666666666666</ele><time>2026-04-08T10:59:46.195Z</time></trkpt><trkpt lat="46.0925504" lon="13.7978604"><ele>600.3333333333333</ele><time>2026-04-08T10:59:47.203Z</time></trkpt><trkpt lat="46.0927019" lon="13.7978985"><ele>599.0</ele><time>2026-04-08T10:59:48.22Z</time></trkpt><trkpt lat="46.0928708" lon="13.7979116"><ele>599.0</ele><time>2026-04-08T10:59:49.209Z</time></trkpt><trkpt lat="46.0930359" lon="13.7979727"><ele>599.0</ele><time>2026-04-08T10:59:50.198Z</time></trkpt><trkpt lat="46.0931655" lon="13.7981069"><ele>599.0</ele><time>2026-04-08T10:59:51.204Z</time></trkpt><trkpt lat="46.0932751" lon="13.7982812"><ele>601.6666666666666</ele><time>2026-04-08T10:59:52.23Z</time></trkpt><trkpt lat="46.0933693" lon="13.7984964"><ele>604.3333333333334</ele><time>2026-04-08T10:59:53.211Z</time></trkpt><trkpt lat="46.0934308" lon="13.7987123"><ele>607.0</ele><time>2026-04-08T10:59:54.207Z</time></trkpt><trkpt lat="46.0934761" lon="13.7988922"><ele>607.5</ele><time>2026-04-08T10:59:55.199Z</time></trkpt><trkpt lat="46.0935181" lon="13.7990425"><ele>608.0</ele><time>2026-04-08T10:59:56.208Z</time></trkpt><trkpt lat="46.0935771" lon="13.7991743"><ele>608.5</ele><time>2026-04-08T10:59:57.215Z</time></trkpt><trkpt lat="46.0936572" lon="13.7992994"><ele>609.0</ele><time>2026-04-08T10:59:58.199Z</time></trkpt><trkpt lat="46.0937582" lon="13.799396"><ele>609.0</ele><time>2026-04-08T10:59:59.193Z</time></trkpt><trkpt lat="46.0938656" lon="13.7994803"><ele>609.0</ele><time>2026-04-08T11:00:00.197Z</time></trkpt><trkpt lat="46.0939815" lon="13.7995988"><ele>609.0</ele><time>2026-04-08T11:00:01.213Z</time></trkpt><trkpt lat="46.0940888" lon="13.7997382"><ele>609.0</ele><time>2026-04-08T11:00:02.202Z</time></trkpt><trkpt lat="46.0942066" lon="13.7998808"><ele>609.0</ele><time>2026-04-08T11:00:03.207Z</time></trkpt><trkpt lat="46.0943289" lon="13.8000025"><ele>609.0</ele><time>2026-04-08T11:00:04.201Z</time></trkpt><trkpt lat="46.0944743" lon="13.8000921"><ele>609.0</ele><time>2026-04-08T11:00:05.207Z</time></trkpt><trkpt lat="46.0946158" lon="13.8001554"><ele>606.3333333333334</ele><time>2026-04-08T11:00:06.197Z</time></trkpt><trkpt lat="46.0947509" lon="13.8002354"><ele>603.6666666666667</ele><time>2026-04-08T11:00:07.207Z</time></trkpt><trkpt lat="46.0948731" lon="13.800361"><ele>601.0</ele><time>2026-04-08T11:00:08.213Z</time></trkpt><trkpt lat="46.0949913" lon="13.8005264"><ele>601.0</ele><time>2026-04-08T11:00:09.198Z</time></trkpt><trkpt lat="46.0951125" lon="13.8006965"><ele>601.0</ele><time>2026-04-08T11:00:10.214Z</time></trkpt><trkpt lat="46.0952353" lon="13.800846"><ele>601.0</ele><time>2026-04-08T11:00:11.205Z</time></trkpt><trkpt lat="46.0953513" lon="13.8009646"><ele>601.0</ele><time>2026-04-08T11:00:12.207Z</time></trkpt><trkpt lat="46.0954846" lon="13.8010256"><ele>601.0</ele><time>2026-04-08T11:00:13.202Z</time></trkpt><trkpt lat="46.0956399" lon="13.8010221"><ele>601.0</ele><time>2026-04-08T11:00:14.212Z</time></trkpt><trkpt lat="46.0958095" lon="13.8010042"><ele>594.3333333333334</ele><time>2026-04-08T11:00:15.2Z</time></trkpt><trkpt lat="46.0959753" lon="13.8009881"><ele>587.6666666666666</ele><time>2026-04-08T11:00:16.205Z</time></trkpt><trkpt lat="46.0961532" lon="13.8009739"><ele>581.0</ele><time>2026-04-08T11:00:17.198Z</time></trkpt><trkpt lat="46.0963282" lon="13.8009549"><ele>581.0</ele><time>2026-04-08T11:00:18.2Z</time></trkpt><trkpt lat="46.0964966" lon="13.8009095"><ele>581.0</ele><time>2026-04-08T11:00:19.221Z</time></trkpt><trkpt lat="46.0966588" lon="13.8008269"><ele>581.0</ele><time>2026-04-08T11:00:20.204Z</time></trkpt><trkpt lat="46.0968192" lon="13.8007525"><ele>579.0</ele><time>2026-04-08T11:00:21.209Z</time></trkpt><trkpt lat="46.0969581" lon="13.8007169"><ele>577.0</ele><time>2026-04-08T11:00:22.205Z</time></trkpt><trkpt lat="46.0970854" lon="13.8007448"><ele>575.0</ele><time>2026-04-08T11:00:23.195Z</time></trkpt><trkpt lat="46.0971992" lon="13.8008267"><ele>573.0</ele><time>2026-04-08T11:00:24.216Z</time></trkpt><trkpt lat="46.0972905" lon="13.8009624"><ele>572.5</ele><time>2026-04-08T11:00:25.196Z</time></trkpt><trkpt lat="46.0973654" lon="13.8011144"><ele>572.0</ele><time>2026-04-08T11:00:26.213Z</time></trkpt><trkpt lat="46.0974588" lon="13.8012706"><ele>571.5</ele><time>2026-04-08T11:00:27.198Z</time></trkpt><trkpt lat="46.0975855" lon="13.8014041"><ele>571.0</ele><time>2026-04-08T11:00:28.206Z</time></trkpt><trkpt lat="46.097717" lon="13.8015258"><ele>571.0</ele><time>2026-04-08T11:00:29.206Z</time></trkpt><trkpt lat="46.097872" lon="13.8016089"><ele>571.0</ele><time>2026-04-08T11:00:30.194Z</time></trkpt><trkpt lat="46.0980499" lon="13.8016588"><ele>571.0</ele><time>2026-04-08T11:00:31.228Z</time></trkpt><trkpt lat="46.0982357" lon="13.8016529"><ele>572.0</ele><time>2026-04-08T11:00:32.207Z</time></trkpt><trkpt lat="46.0984151" lon="13.8015978"><ele>573.0</ele><time>2026-04-08T11:00:33.231Z</time></trkpt><trkpt lat="46.0985828" lon="13.8015216"><ele>574.0</ele><time>2026-04-08T11:00:34.204Z</time></trkpt><trkpt lat="46.0987351" lon="13.8014461"><ele>574.0</ele><time>2026-04-08T11:00:35.199Z</time></trkpt><trkpt lat="46.0988743" lon="13.8014443"><ele>574.0</ele><time>2026-04-08T11:00:36.197Z</time></trkpt><trkpt lat="46.0991639" lon="13.8015295"><ele>574.0</ele><time>2026-04-08T11:00:38.2Z</time></trkpt><trkpt lat="46.0993334" lon="13.8015108"><ele>575.0</ele><time>2026-04-08T11:00:39.194Z</time></trkpt><trkpt lat="46.0997011" lon="13.8014956"><ele>576.0</ele><time>2026-04-08T11:00:41.217Z</time></trkpt><trkpt lat="46.0998903" lon="13.801526"><ele>576.0</ele><time>2026-04-08T11:00:42.203Z</time></trkpt><trkpt lat="46.1000738" lon="13.8015568"><ele>576.0</ele><time>2026-04-08T11:00:43.23Z</time></trkpt><trkpt lat="46.100251" lon="13.8015781"><ele>576.0</ele><time>2026-04-08T11:00:44.208Z</time></trkpt><trkpt lat="46.1004388" lon="13.8015782"><ele>576.0</ele><time>2026-04-08T11:00:45.213Z</time></trkpt><trkpt lat="46.1006252" lon="13.8015722"><ele>576.0</ele><time>2026-04-08T11:00:46.204Z</time></trkpt><trkpt lat="46.1008063" lon="13.8015633"><ele>576.0</ele><time>2026-04-08T11:00:47.213Z</time></trkpt><trkpt lat="46.1009836" lon="13.8015903"><ele>572.5</ele><time>2026-04-08T11:00:48.21Z</time></trkpt><trkpt lat="46.1011541" lon="13.8016666"><ele>569.0</ele><time>2026-04-08T11:00:49.196Z</time></trkpt><trkpt lat="46.1014929" lon="13.8018682"><ele>570.6666666666666</ele><time>2026-04-08T11:00:51.207Z</time></trkpt><trkpt lat="46.1016723" lon="13.801965"><ele>572.3333333333334</ele><time>2026-04-08T11:00:52.21Z</time></trkpt><trkpt lat="46.101861" lon="13.8020175"><ele>574.0</ele><time>2026-04-08T11:00:53.209Z</time></trkpt><trkpt lat="46.1020551" lon="13.8020352"><ele>574.0</ele><time>2026-04-08T11:00:54.206Z</time></trkpt><trkpt lat="46.1022533" lon="13.8020716"><ele>574.0</ele><time>2026-04-08T11:00:55.206Z</time></trkpt><trkpt lat="46.1024422" lon="13.8021262"><ele>574.0</ele><time>2026-04-08T11:00:56.209Z</time></trkpt><trkpt lat="46.1026328" lon="13.8021574"><ele>572.3333333333334</ele><time>2026-04-08T11:00:57.216Z</time></trkpt><trkpt lat="46.1028289" lon="13.8021479"><ele>570.6666666666666</ele><time>2026-04-08T11:00:58.209Z</time></trkpt><trkpt lat="46.1030139" lon="13.8021098"><ele>569.0</ele><time>2026-04-08T11:00:59.195Z</time></trkpt><trkpt lat="46.1031712" lon="13.8020835"><ele>567.6666666666666</ele><time>2026-04-08T11:01:00.211Z</time></trkpt><trkpt lat="46.1033112" lon="13.8020908"><ele>566.3333333333334</ele><time>2026-04-08T11:01:01.21Z</time></trkpt><trkpt lat="46.1035717" lon="13.8022187"><ele>565.0</ele><time>2026-04-08T11:01:03.213Z</time></trkpt><trkpt lat="46.1036963" lon="13.8022979"><ele>565.0</ele><time>2026-04-08T11:01:04.201Z</time></trkpt><trkpt lat="46.1038321" lon="13.8023093"><ele>565.0</ele><time>2026-04-08T11:01:05.213Z</time></trkpt><trkpt lat="46.1039728" lon="13.802279"><ele>565.0</ele><time>2026-04-08T11:01:06.199Z</time></trkpt><trkpt lat="46.104122" lon="13.802251"><ele>565.0</ele><time>2026-04-08T11:01:07.213Z</time></trkpt><trkpt lat="46.1042622" lon="13.8022801"><ele>563.0</ele><time>2026-04-08T11:01:08.218Z</time></trkpt><trkpt lat="46.1043446" lon="13.8024297"><ele>561.0</ele><time>2026-04-08T11:01:09.21Z</time></trkpt><trkpt lat="46.1044312" lon="13.8025805"><ele>559.0</ele><time>2026-04-08T11:01:10.204Z</time></trkpt><trkpt lat="46.1045479" lon="13.8027069"><ele>557.0</ele><time>2026-04-08T11:01:11.204Z</time></trkpt><trkpt lat="46.1046913" lon="13.8028207"><ele>557.0</ele><time>2026-04-08T11:01:12.206Z</time></trkpt><trkpt lat="46.1048441" lon="13.8029374"><ele>557.0</ele><time>2026-04-08T11:01:13.21Z</time></trkpt><trkpt lat="46.1049939" lon="13.8030538"><ele>557.0</ele><time>2026-04-08T11:01:14.211Z</time></trkpt><trkpt lat="46.1051678" lon="13.803143"><ele>557.6666666666666</ele><time>2026-04-08T11:01:15.205Z</time></trkpt><trkpt lat="46.1053557" lon="13.8031923"><ele>558.3333333333334</ele><time>2026-04-08T11:01:16.204Z</time></trkpt><trkpt lat="46.1055514" lon="13.8031969"><ele>559.0</ele><time>2026-04-08T11:01:17.208Z</time></trkpt><trkpt lat="46.1057467" lon="13.8032171"><ele>559.0</ele><time>2026-04-08T11:01:18.221Z</time></trkpt><trkpt lat="46.1059351" lon="13.8032611"><ele>559.0</ele><time>2026-04-08T11:01:19.215Z</time></trkpt><trkpt lat="46.1061191" lon="13.8033289"><ele>559.0</ele><time>2026-04-08T11:01:20.227Z</time></trkpt><trkpt lat="46.1063003" lon="13.8034063"><ele>559.0</ele><time>2026-04-08T11:01:21.206Z</time></trkpt><trkpt lat="46.1064836" lon="13.8034834"><ele>559.0</ele><time>2026-04-08T11:01:22.221Z</time></trkpt><trkpt lat="46.1066608" lon="13.8035329"><ele>559.0</ele><time>2026-04-08T11:01:23.234Z</time></trkpt><trkpt lat="46.1068335" lon="13.8035446"><ele>562.5</ele><time>2026-04-08T11:01:24.231Z</time></trkpt><trkpt lat="46.106992" lon="13.8035655"><ele>566.0</ele><time>2026-04-08T11:01:25.229Z</time></trkpt><trkpt lat="46.1071292" lon="13.8036216"><ele>569.5</ele><time>2026-04-08T11:01:26.213Z</time></trkpt><trkpt lat="46.1072399" lon="13.8037379"><ele>573.0</ele><time>2026-04-08T11:01:27.231Z</time></trkpt><trkpt lat="46.1073346" lon="13.8038941"><ele>569.25</ele><time>2026-04-08T11:01:28.216Z</time></trkpt><trkpt lat="46.107421" lon="13.8040422"><ele>565.5</ele><time>2026-04-08T11:01:29.238Z</time></trkpt><trkpt lat="46.1075313" lon="13.8041405"><ele>561.75</ele><time>2026-04-08T11:01:30.233Z</time></trkpt><trkpt lat="46.1076611" lon="13.8041629"><ele>558.0</ele><time>2026-04-08T11:01:31.233Z</time></trkpt><trkpt lat="46.1077977" lon="13.8041258"><ele>558.0</ele><time>2026-04-08T11:01:32.253Z</time></trkpt><trkpt lat="46.1079461" lon="13.8040582"><ele>558.0</ele><time>2026-04-08T11:01:33.27Z</time></trkpt><trkpt lat="46.1080902" lon="13.8039853"><ele>558.0</ele><time>2026-04-08T11:01:34.248Z</time></trkpt><trkpt lat="46.1082248" lon="13.8039076"><ele>552.25</ele><time>2026-04-08T11:01:35.223Z</time></trkpt><trkpt lat="46.1083468" lon="13.8038421"><ele>546.5</ele><time>2026-04-08T11:01:36.211Z</time></trkpt><trkpt lat="46.1084552" lon="13.803815"><ele>540.75</ele><time>2026-04-08T11:01:37.243Z</time></trkpt><trkpt lat="46.1086521" lon="13.8037817"><ele>535.0</ele><time>2026-04-08T11:01:39.257Z</time></trkpt><trkpt lat="46.1087241" lon="13.8037323"><ele>535.0</ele><time>2026-04-08T11:01:40.244Z</time></trkpt><trkpt lat="46.1087991" lon="13.8036631"><ele>535.0</ele><time>2026-04-08T11:01:41.241Z</time></trkpt><trkpt lat="46.1088684" lon="13.8035529"><ele>535.0</ele><time>2026-04-08T11:01:42.269Z</time></trkpt><trkpt lat="46.1089404" lon="13.8034342"><ele>535.0</ele><time>2026-04-08T11:01:43.258Z</time></trkpt><trkpt lat="46.1090266" lon="13.8033363"><ele>535.0</ele><time>2026-04-08T11:01:44.25Z</time></trkpt><trkpt lat="46.1092075" lon="13.8031147"><ele>534.6</ele><time>2026-04-08T11:01:46.238Z</time></trkpt><trkpt lat="46.1092846" lon="13.8030041"><ele>534.2</ele><time>2026-04-08T11:01:47.234Z</time></trkpt><trkpt lat="46.1093672" lon="13.8029105"><ele>533.8</ele><time>2026-04-08T11:01:48.224Z</time></trkpt><trkpt lat="46.1094659" lon="13.8028503"><ele>533.4</ele><time>2026-04-08T11:01:49.227Z</time></trkpt><trkpt lat="46.1095805" lon="13.8027987"><ele>533.0</ele><time>2026-04-08T11:01:50.22Z</time></trkpt><trkpt lat="46.1096615" lon="13.802738"><ele>532.0</ele><time>2026-04-08T11:01:51.214Z</time></trkpt><trkpt lat="46.1097231" lon="13.8026538"><ele>531.0</ele><time>2026-04-08T11:01:52.136Z</time></trkpt><trkpt lat="46.1097954" lon="13.8025343"><ele>530.0</ele><time>2026-04-08T11:01:53.127Z</time></trkpt><trkpt lat="46.1098762" lon="13.8023843"><ele>529.0</ele><time>2026-04-08T11:01:54.223Z</time></trkpt><trkpt lat="46.1099625" lon="13.8022879"><ele>528.0</ele><time>2026-04-08T11:01:55.231Z</time></trkpt><trkpt lat="46.1100636" lon="13.8022006"><ele>528.0</ele><time>2026-04-08T11:01:56.239Z</time></trkpt><trkpt lat="46.1101721" lon="13.8021282"><ele>528.0</ele><time>2026-04-08T11:01:57.227Z</time></trkpt><trkpt lat="46.1102952" lon="13.8020609"><ele>528.0</ele><time>2026-04-08T11:01:58.209Z</time></trkpt><trkpt lat="46.1104267" lon="13.8019771"><ele>528.0</ele><time>2026-04-08T11:01:59.115Z</time></trkpt><trkpt lat="46.1105693" lon="13.8019019"><ele>528.0</ele><time>2026-04-08T11:02:00.116Z</time></trkpt><trkpt lat="46.1107231" lon="13.8018337"><ele>528.0</ele><time>2026-04-08T11:02:01.114Z</time></trkpt><trkpt lat="46.1108737" lon="13.8017895"><ele>528.0</ele><time>2026-04-08T11:02:02.213Z</time></trkpt><trkpt lat="46.111003" lon="13.8017936"><ele>528.0</ele><time>2026-04-08T11:02:03.127Z</time></trkpt><trkpt lat="46.1111138" lon="13.8017881"><ele>528.6</ele><time>2026-04-08T11:02:04.226Z</time></trkpt><trkpt lat="46.1112025" lon="13.8017381"><ele>529.1999999999999</ele><time>2026-04-08T11:02:05.221Z</time></trkpt><trkpt lat="46.1112748" lon="13.80166"><ele>529.8</ele><time>2026-04-08T11:02:06.131Z</time></trkpt><trkpt lat="46.1113557" lon="13.8015474"><ele>530.4</ele><time>2026-04-08T11:02:07.121Z</time></trkpt><trkpt lat="46.111445" lon="13.8014087"><ele>531.0</ele><time>2026-04-08T11:02:08.115Z</time></trkpt><trkpt lat="46.1115436" lon="13.8012624"><ele>535.5</ele><time>2026-04-08T11:02:09.117Z</time></trkpt><trkpt lat="46.1116484" lon="13.8011285"><ele>540.0</ele><time>2026-04-08T11:02:10.121Z</time></trkpt><trkpt lat="46.1117545" lon="13.8010351"><ele>544.5</ele><time>2026-04-08T11:02:11.119Z</time></trkpt><trkpt lat="46.1118658" lon="13.8010003"><ele>549.0</ele><time>2026-04-08T11:02:12.113Z</time></trkpt><trkpt lat="46.1119995" lon="13.8009885"><ele>535.25</ele><time>2026-04-08T11:02:13.127Z</time></trkpt><trkpt lat="46.112153" lon="13.8010171"><ele>521.5</ele><time>2026-04-08T11:02:14.127Z</time></trkpt><trkpt lat="46.1122863" lon="13.8010741"><ele>507.75</ele><time>2026-04-08T11:02:15.138Z</time></trkpt><trkpt lat="46.11242" lon="13.8011362"><ele>494.0</ele><time>2026-04-08T11:02:16.123Z</time></trkpt><trkpt lat="46.1125267" lon="13.8011959"><ele>490.99999999999994</ele><time>2026-04-08T11:02:17.114Z</time></trkpt><trkpt lat="46.1126039" lon="13.8012568"><ele>488.0</ele><time>2026-04-08T11:02:18.118Z</time></trkpt><trkpt lat="46.1126652" lon="13.8012803"><ele>485.0</ele><time>2026-04-08T11:02:19.121Z</time></trkpt><trkpt lat="46.1127427" lon="13.8012494"><ele>482.0</ele><time>2026-04-08T11:02:20.132Z</time></trkpt><trkpt lat="46.1128289" lon="13.8012134"><ele>478.99999999999994</ele><time>2026-04-08T11:02:21.132Z</time></trkpt><trkpt lat="46.1129259" lon="13.8012026"><ele>476.0</ele><time>2026-04-08T11:02:22.118Z</time></trkpt><trkpt lat="46.1130138" lon="13.8011943"><ele>475.99999999999994</ele><time>2026-04-08T11:02:23.123Z</time></trkpt><trkpt lat="46.1131205" lon="13.8011653"><ele>476.0</ele><time>2026-04-08T11:02:25.118Z</time></trkpt><trkpt lat="46.1132039" lon="13.8011213"><ele>476.0</ele><time>2026-04-08T11:02:27.133Z</time></trkpt><trkpt lat="46.1132768" lon="13.8010886"><ele>476.0</ele><time>2026-04-08T11:02:28.117Z</time></trkpt><trkpt lat="46.1133474" lon="13.8010541"><ele>475.99999999999994</ele><time>2026-04-08T11:02:29.126Z</time></trkpt><trkpt lat="46.11341" lon="13.8010337"><ele>476.0</ele><time>2026-04-08T11:02:30.117Z</time></trkpt><trkpt lat="46.1134662" lon="13.8009547"><ele>484.8</ele><time>2026-04-08T11:02:36.163Z</time></trkpt><trkpt lat="46.1135259" lon="13.8009007"><ele>493.6</ele><time>2026-04-08T11:02:38.121Z</time></trkpt><trkpt lat="46.1135981" lon="13.800841"><ele>502.4</ele><time>2026-04-08T11:02:39.124Z</time></trkpt><trkpt lat="46.1136751" lon="13.8007634"><ele>511.2</ele><time>2026-04-08T11:02:40.127Z</time></trkpt><trkpt lat="46.1137599" lon="13.8006597"><ele>520.0</ele><time>2026-04-08T11:02:41.113Z</time></trkpt><trkpt lat="46.1138599" lon="13.8005418"><ele>520.0</ele><time>2026-04-08T11:02:42.131Z</time></trkpt><trkpt lat="46.1139579" lon="13.8004205"><ele>520.0</ele><time>2026-04-08T11:02:43.121Z</time></trkpt><trkpt lat="46.1140439" lon="13.8003051"><ele>520.0</ele><time>2026-04-08T11:02:44.12Z</time></trkpt><trkpt lat="46.1141129" lon="13.8001895"><ele>520.0</ele><time>2026-04-08T11:02:45.124Z</time></trkpt><trkpt lat="46.1141708" lon="13.8000634"><ele>520.6</ele><time>2026-04-08T11:02:46.136Z</time></trkpt><trkpt lat="46.1142439" lon="13.7999665"><ele>521.2</ele><time>2026-04-08T11:02:47.132Z</time></trkpt><trkpt lat="46.1143352" lon="13.7999004"><ele>521.8</ele><time>2026-04-08T11:02:48.13Z</time></trkpt><trkpt lat="46.1144292" lon="13.7998564"><ele>522.4</ele><time>2026-04-08T11:02:49.13Z</time></trkpt><trkpt lat="46.114534" lon="13.7998074"><ele>523.0</ele><time>2026-04-08T11:02:50.132Z</time></trkpt><trkpt lat="46.1146652" lon="13.7997516"><ele>523.0</ele><time>2026-04-08T11:02:51.119Z</time></trkpt><trkpt lat="46.1147881" lon="13.7996735"><ele>523.0</ele><time>2026-04-08T11:02:52.143Z</time></trkpt><trkpt lat="46.1148951" lon="13.799583"><ele>523.0</ele><time>2026-04-08T11:02:53.13Z</time></trkpt><trkpt lat="46.1149895" lon="13.7994734"><ele>523.0</ele><time>2026-04-08T11:02:54.134Z</time></trkpt><trkpt lat="46.1150865" lon="13.7993451"><ele>522.1999999999999</ele><time>2026-04-08T11:02:55.117Z</time></trkpt><trkpt lat="46.1151704" lon="13.7992191"><ele>521.4</ele><time>2026-04-08T11:02:56.115Z</time></trkpt><trkpt lat="46.1152603" lon="13.7991144"><ele>520.5999999999999</ele><time>2026-04-08T11:02:57.113Z</time></trkpt><trkpt lat="46.1153654" lon="13.7990617"><ele>519.8</ele><time>2026-04-08T11:02:58.119Z</time></trkpt><trkpt lat="46.1154617" lon="13.7990364"><ele>519.0</ele><time>2026-04-08T11:02:59.119Z</time></trkpt><trkpt lat="46.1155695" lon="13.7990031"><ele>519.0</ele><time>2026-04-08T11:03:00.118Z</time></trkpt><trkpt lat="46.1156663" lon="13.7989468"><ele>519.0</ele><time>2026-04-08T11:03:01.126Z</time></trkpt><trkpt lat="46.1157591" lon="13.798843"><ele>519.0</ele><time>2026-04-08T11:03:02.133Z</time></trkpt><trkpt lat="46.1158644" lon="13.7987151"><ele>519.0</ele><time>2026-04-08T11:03:03.129Z</time></trkpt><trkpt lat="46.1159714" lon="13.7985692"><ele>515.0</ele><time>2026-04-08T11:03:04.12Z</time></trkpt><trkpt lat="46.1160921" lon="13.7984155"><ele>511.0</ele><time>2026-04-08T11:03:05.12Z</time></trkpt><trkpt lat="46.116207" lon="13.7982801"><ele>507.0</ele><time>2026-04-08T11:03:06.128Z</time></trkpt><trkpt lat="46.116335" lon="13.7981583"><ele>507.0</ele><time>2026-04-08T11:03:07.131Z</time></trkpt><trkpt lat="46.1164592" lon="13.7980421"><ele>507.0</ele><time>2026-04-08T11:03:08.131Z</time></trkpt><trkpt lat="46.1167086" lon="13.7977978"><ele>507.0</ele><time>2026-04-08T11:03:10.13Z</time></trkpt><trkpt lat="46.1168295" lon="13.7976675"><ele>502.25</ele><time>2026-04-08T11:03:11.127Z</time></trkpt><trkpt lat="46.1169442" lon="13.7975174"><ele>497.5</ele><time>2026-04-08T11:03:12.113Z</time></trkpt><trkpt lat="46.1170463" lon="13.7973834"><ele>492.75</ele><time>2026-04-08T11:03:13.124Z</time></trkpt><trkpt lat="46.1171384" lon="13.7972379"><ele>488.0</ele><time>2026-04-08T11:03:14.135Z</time></trkpt><trkpt lat="46.1172149" lon="13.797087"><ele>488.0</ele><time>2026-04-08T11:03:15.127Z</time></trkpt><trkpt lat="46.1172669" lon="13.7969128"><ele>488.0</ele><time>2026-04-08T11:03:16.131Z</time></trkpt><trkpt lat="46.117303" lon="13.796709"><ele>488.0</ele><time>2026-04-08T11:03:17.12Z</time></trkpt><trkpt lat="46.1173275" lon="13.7965012"><ele>488.0</ele><time>2026-04-08T11:03:18.122Z</time></trkpt><trkpt lat="46.1173471" lon="13.7963368"><ele>492.99999999999994</ele><time>2026-04-08T11:03:19.129Z</time></trkpt><trkpt lat="46.1173823" lon="13.7962098"><ele>498.0</ele><time>2026-04-08T11:03:20.118Z</time></trkpt><trkpt lat="46.117461" lon="13.7961153"><ele>503.0</ele><time>2026-04-08T11:03:21.135Z</time></trkpt><trkpt lat="46.1175385" lon="13.7960519"><ele>508.0</ele><time>2026-04-08T11:03:22.135Z</time></trkpt><trkpt lat="46.1176071" lon="13.7960585"><ele>513.0</ele><time>2026-04-08T11:03:23.133Z</time></trkpt><trkpt lat="46.1176953" lon="13.7960612"><ele>518.0</ele><time>2026-04-08T11:03:24.118Z</time></trkpt><trkpt lat="46.117794" lon="13.7960231"><ele>513.0</ele><time>2026-04-08T11:03:25.125Z</time></trkpt><trkpt lat="46.1178773" lon="13.7960029"><ele>508.0</ele><time>2026-04-08T11:03:26.133Z</time></trkpt><trkpt lat="46.1179544" lon="13.7959859"><ele>503.0</ele><time>2026-04-08T11:03:27.121Z</time></trkpt><trkpt lat="46.1180425" lon="13.7959614"><ele>498.0</ele><time>2026-04-08T11:03:28.137Z</time></trkpt><trkpt lat="46.1181092" lon="13.7959125"><ele>492.99999999999994</ele><time>2026-04-08T11:03:29.13Z</time></trkpt><trkpt lat="46.1181528" lon="13.7958101"><ele>488.0</ele><time>2026-04-08T11:03:30.129Z</time></trkpt><trkpt lat="46.1181798" lon="13.7957003"><ele>488.0</ele><time>2026-04-08T11:03:31.127Z</time></trkpt><trkpt lat="46.1182306" lon="13.7956017"><ele>487.99999999999994</ele><time>2026-04-08T11:03:32.121Z</time></trkpt><trkpt lat="46.1182945" lon="13.7955341"><ele>487.99999999999994</ele><time>2026-04-08T11:03:33.142Z</time></trkpt><trkpt lat="46.1183843" lon="13.795494"><ele>488.0</ele><time>2026-04-08T11:03:34.126Z</time></trkpt><trkpt lat="46.1184716" lon="13.7954791"><ele>488.0</ele><time>2026-04-08T11:03:35.135Z</time></trkpt><trkpt lat="46.1185794" lon="13.7954658"><ele>488.2</ele><time>2026-04-08T11:03:36.129Z</time></trkpt><trkpt lat="46.1186804" lon="13.7954316"><ele>488.4</ele><time>2026-04-08T11:03:37.126Z</time></trkpt><trkpt lat="46.1187742" lon="13.7953729"><ele>488.59999999999997</ele><time>2026-04-08T11:03:38.151Z</time></trkpt><trkpt lat="46.1188349" lon="13.7952745"><ele>488.79999999999995</ele><time>2026-04-08T11:03:39.129Z</time></trkpt><trkpt lat="46.1188777" lon="13.7951392"><ele>489.0</ele><time>2026-04-08T11:03:40.119Z</time></trkpt><trkpt lat="46.1189296" lon="13.7950152"><ele>489.0</ele><time>2026-04-08T11:03:41.124Z</time></trkpt><trkpt lat="46.1189929" lon="13.7949264"><ele>489.0</ele><time>2026-04-08T11:03:42.119Z</time></trkpt><trkpt lat="46.1191052" lon="13.7948763"><ele>489.0</ele><time>2026-04-08T11:03:43.127Z</time></trkpt><trkpt lat="46.1192312" lon="13.7948571"><ele>489.0</ele><time>2026-04-08T11:03:44.123Z</time></trkpt><trkpt lat="46.1193554" lon="13.7948362"><ele>480.75</ele><time>2026-04-08T11:03:45.131Z</time></trkpt><trkpt lat="46.1194786" lon="13.7948305"><ele>472.5</ele><time>2026-04-08T11:03:46.145Z</time></trkpt><trkpt lat="46.1196122" lon="13.7948566"><ele>464.25</ele><time>2026-04-08T11:03:47.144Z</time></trkpt><trkpt lat="46.1197376" lon="13.7949081"><ele>456.0</ele><time>2026-04-08T11:03:48.123Z</time></trkpt><trkpt lat="46.1198662" lon="13.7949511"><ele>449.5</ele><time>2026-04-08T11:03:49.135Z</time></trkpt><trkpt lat="46.1199957" lon="13.7949267"><ele>443.0</ele><time>2026-04-08T11:03:50.14Z</time></trkpt><trkpt lat="46.1201311" lon="13.7948503"><ele>436.5</ele><time>2026-04-08T11:03:51.136Z</time></trkpt><trkpt lat="46.1202593" lon="13.7947646"><ele>430.0</ele><time>2026-04-08T11:03:52.127Z</time></trkpt><trkpt lat="46.1204083" lon="13.7946736"><ele>430.0</ele><time>2026-04-08T11:03:53.117Z</time></trkpt><trkpt lat="46.1205681" lon="13.7945751"><ele>430.0</ele><time>2026-04-08T11:03:54.124Z</time></trkpt><trkpt lat="46.1207358" lon="13.7944951"><ele>430.0</ele><time>2026-04-08T11:03:55.119Z</time></trkpt><trkpt lat="46.1209072" lon="13.7944275"><ele>435.33333333333337</ele><time>2026-04-08T11:03:56.133Z</time></trkpt><trkpt lat="46.121077" lon="13.7943491"><ele>440.66666666666663</ele><time>2026-04-08T11:03:57.13Z</time></trkpt><trkpt lat="46.1212331" lon="13.7942522"><ele>446.0</ele><time>2026-04-08T11:03:58.116Z</time></trkpt><trkpt lat="46.1213882" lon="13.7941322"><ele>446.0</ele><time>2026-04-08T11:03:59.115Z</time></trkpt><trkpt lat="46.121546" lon="13.7939949"><ele>446.0</ele><time>2026-04-08T11:04:00.118Z</time></trkpt><trkpt lat="46.1217018" lon="13.7938442"><ele>446.0</ele><time>2026-04-08T11:04:01.118Z</time></trkpt><trkpt lat="46.1218641" lon="13.7936712"><ele>447.3333333333333</ele><time>2026-04-08T11:04:02.116Z</time></trkpt><trkpt lat="46.1220271" lon="13.7934888"><ele>448.66666666666663</ele><time>2026-04-08T11:04:03.119Z</time></trkpt><trkpt lat="46.1221853" lon="13.7932993"><ele>450.0</ele><time>2026-04-08T11:04:04.127Z</time></trkpt><trkpt lat="46.122339" lon="13.79312"><ele>446.66666666666663</ele><time>2026-04-08T11:04:05.123Z</time></trkpt><trkpt lat="46.1224846" lon="13.7929338"><ele>443.3333333333333</ele><time>2026-04-08T11:04:06.119Z</time></trkpt><trkpt lat="46.1226174" lon="13.7927359"><ele>440.0</ele><time>2026-04-08T11:04:07.129Z</time></trkpt><trkpt lat="46.1227274" lon="13.7925515"><ele>440.0</ele><time>2026-04-08T11:04:08.121Z</time></trkpt><trkpt lat="46.1228132" lon="13.7924016"><ele>440.0</ele><time>2026-04-08T11:04:09.131Z</time></trkpt><trkpt lat="46.1228855" lon="13.7922697"><ele>440.0</ele><time>2026-04-08T11:04:10.132Z</time></trkpt><trkpt lat="46.122944" lon="13.7921296"><ele>440.0</ele><time>2026-04-08T11:04:11.129Z</time></trkpt><trkpt lat="46.1229851" lon="13.7919592"><ele>446.3333333333333</ele><time>2026-04-08T11:04:12.13Z</time></trkpt><trkpt lat="46.1230153" lon="13.7917375"><ele>452.66666666666663</ele><time>2026-04-08T11:04:13.122Z</time></trkpt><trkpt lat="46.1230522" lon="13.7914887"><ele>459.0</ele><time>2026-04-08T11:04:14.116Z</time></trkpt><trkpt lat="46.1230726" lon="13.7912476"><ele>459.0</ele><time>2026-04-08T11:04:15.124Z</time></trkpt><trkpt lat="46.1230841" lon="13.7910201"><ele>459.0</ele><time>2026-04-08T11:04:16.128Z</time></trkpt><trkpt lat="46.1230993" lon="13.7908127"><ele>459.0</ele><time>2026-04-08T11:04:17.127Z</time></trkpt><trkpt lat="46.1231232" lon="13.7906549"><ele>459.0</ele><time>2026-04-08T11:04:18.128Z</time></trkpt><trkpt lat="46.1231632" lon="13.7905497"><ele>445.0</ele><time>2026-04-08T11:04:19.124Z</time></trkpt><trkpt lat="46.1232854" lon="13.7904851"><ele>431.0</ele><time>2026-04-08T11:04:21.121Z</time></trkpt><trkpt lat="46.1233875" lon="13.7904835"><ele>417.0</ele><time>2026-04-08T11:04:22.129Z</time></trkpt><trkpt lat="46.123494" lon="13.7904833"><ele>403.0</ele><time>2026-04-08T11:04:23.122Z</time></trkpt><trkpt lat="46.1236123" lon="13.7904734"><ele>403.0</ele><time>2026-04-08T11:04:24.129Z</time></trkpt><trkpt lat="46.123709" lon="13.7904232"><ele>403.0</ele><time>2026-04-08T11:04:25.123Z</time></trkpt><trkpt lat="46.1237972" lon="13.790296"><ele>403.0</ele><time>2026-04-08T11:04:26.12Z</time></trkpt><trkpt lat="46.1238813" lon="13.7901262"><ele>403.0</ele><time>2026-04-08T11:04:27.139Z</time></trkpt><trkpt lat="46.1239508" lon="13.7899751"><ele>401.4</ele><time>2026-04-08T11:04:28.12Z</time></trkpt><trkpt lat="46.1240236" lon="13.7898567"><ele>399.79999999999995</ele><time>2026-04-08T11:04:29.135Z</time></trkpt><trkpt lat="46.1241155" lon="13.7898535"><ele>398.2</ele><time>2026-04-08T11:04:30.127Z</time></trkpt><trkpt lat="46.1242143" lon="13.7899246"><ele>396.6</ele><time>2026-04-08T11:04:31.115Z</time></trkpt><trkpt lat="46.1243027" lon="13.7900132"><ele>395.0</ele><time>2026-04-08T11:04:32.125Z</time></trkpt><trkpt lat="46.1243798" lon="13.7900845"><ele>394.99999999999994</ele><time>2026-04-08T11:04:33.119Z</time></trkpt><trkpt lat="46.1244381" lon="13.7901457"><ele>395.0</ele><time>2026-04-08T11:04:34.135Z</time></trkpt><trkpt lat="46.124518" lon="13.7901486"><ele>395.0</ele><time>2026-04-08T11:04:35.124Z</time></trkpt><trkpt lat="46.1245952" lon="13.7901141"><ele>395.0</ele><time>2026-04-08T11:04:36.119Z</time></trkpt><trkpt lat="46.124657" lon="13.7900425"><ele>394.99999999999994</ele><time>2026-04-08T11:04:37.126Z</time></trkpt><trkpt lat="46.1247079" lon="13.7899386"><ele>395.0</ele><time>2026-04-08T11:04:38.131Z</time></trkpt><trkpt lat="46.1248112" lon="13.7897351"><ele>396.0</ele><time>2026-04-08T11:04:39.12Z</time></trkpt><trkpt lat="46.1249508" lon="13.7894603"><ele>397.0</ele><time>2026-04-08T11:04:40.122Z</time></trkpt><trkpt lat="46.1251357" lon="13.7891454"><ele>397.0</ele><time>2026-04-08T11:04:41.123Z</time></trkpt><trkpt lat="46.125331" lon="13.7888447"><ele>397.0</ele><time>2026-04-08T11:04:42.12Z</time></trkpt><trkpt lat="46.1255289" lon="13.7885535"><ele>385.0</ele><time>2026-04-08T11:04:43.14Z</time></trkpt><trkpt lat="46.1257169" lon="13.7882601"><ele>373.0</ele><time>2026-04-08T11:04:44.124Z</time></trkpt><trkpt lat="46.1258908" lon="13.7879638"><ele>386.5</ele><time>2026-04-08T11:04:45.143Z</time></trkpt><trkpt lat="46.1260473" lon="13.7876763"><ele>400.0</ele><time>2026-04-08T11:04:46.127Z</time></trkpt><trkpt lat="46.1261906" lon="13.7874183"><ele>400.0</ele><time>2026-04-08T11:04:47.135Z</time></trkpt><trkpt lat="46.1263089" lon="13.7871954"><ele>400.0</ele><time>2026-04-08T11:04:48.116Z</time></trkpt><trkpt lat="46.1264214" lon="13.787014"><ele>400.0</ele><time>2026-04-08T11:04:49.134Z</time></trkpt><trkpt lat="46.1265231" lon="13.786852"><ele>391.0</ele><time>2026-04-08T11:04:50.122Z</time></trkpt><trkpt lat="46.126602" lon="13.7867164"><ele>382.0</ele><time>2026-04-08T11:04:51.146Z</time></trkpt><trkpt lat="46.1266431" lon="13.7865737"><ele>373.0</ele><time>2026-04-08T11:04:52.121Z</time></trkpt><trkpt lat="46.1266462" lon="13.7864184"><ele>364.0</ele><time>2026-04-08T11:04:53.132Z</time></trkpt><trkpt lat="46.1265928" lon="13.7862504"><ele>363.5</ele><time>2026-04-08T11:04:54.125Z</time></trkpt><trkpt lat="46.1265176" lon="13.7860883"><ele>363.0</ele><time>2026-04-08T11:04:55.118Z</time></trkpt><trkpt lat="46.1264925" lon="13.7859015"><ele>362.5</ele><time>2026-04-08T11:04:56.13Z</time></trkpt><trkpt lat="46.1265354" lon="13.7856732"><ele>362.0</ele><time>2026-04-08T11:04:57.118Z</time></trkpt><trkpt lat="46.1265929" lon="13.7854279"><ele>363.0</ele><time>2026-04-08T11:04:58.118Z</time></trkpt><trkpt lat="46.1266529" lon="13.7851634"><ele>364.0</ele><time>2026-04-08T11:04:59.126Z</time></trkpt><trkpt lat="46.1266968" lon="13.7848991"><ele>365.0</ele><time>2026-04-08T11:05:00.122Z</time></trkpt><trkpt lat="46.1267284" lon="13.7846704"><ele>365.0</ele><time>2026-04-08T11:05:01.116Z</time></trkpt><trkpt lat="46.1267947" lon="13.7844605"><ele>365.0</ele><time>2026-04-08T11:05:02.123Z</time></trkpt><trkpt lat="46.1268908" lon="13.7842486"><ele>365.0</ele><time>2026-04-08T11:05:03.13Z</time></trkpt><trkpt lat="46.127021" lon="13.7840123"><ele>359.6666666666667</ele><time>2026-04-08T11:05:04.128Z</time></trkpt><trkpt lat="46.1271589" lon="13.7837783"><ele>354.3333333333333</ele><time>2026-04-08T11:05:05.137Z</time></trkpt><trkpt lat="46.1272938" lon="13.7835392"><ele>349.0</ele><time>2026-04-08T11:05:06.126Z</time></trkpt><trkpt lat="46.127412" lon="13.7832979"><ele>349.0</ele><time>2026-04-08T11:05:07.133Z</time></trkpt><trkpt lat="46.1276278" lon="13.7828272"><ele>349.0</ele><time>2026-04-08T11:05:09.138Z</time></trkpt><trkpt lat="46.12773" lon="13.7826155"><ele>354.5</ele><time>2026-04-08T11:05:10.129Z</time></trkpt><trkpt lat="46.1278122" lon="13.7824188"><ele>360.0</ele><time>2026-04-08T11:05:11.126Z</time></trkpt><trkpt lat="46.1278686" lon="13.7822477"><ele>365.5</ele><time>2026-04-08T11:05:12.138Z</time></trkpt><trkpt lat="46.1279344" lon="13.7821241"><ele>371.0</ele><time>2026-04-08T11:05:13.121Z</time></trkpt><trkpt lat="46.12801" lon="13.7820328"><ele>371.0</ele><time>2026-04-08T11:05:14.117Z</time></trkpt><trkpt lat="46.1281192" lon="13.7820124"><ele>371.0</ele><time>2026-04-08T11:05:15.121Z</time></trkpt><trkpt lat="46.1282356" lon="13.7820164"><ele>371.0</ele><time>2026-04-08T11:05:16.144Z</time></trkpt><trkpt lat="46.1283591" lon="13.7819812"><ele>371.0</ele><time>2026-04-08T11:05:17.122Z</time></trkpt><trkpt lat="46.1284835" lon="13.7819043"><ele>365.5</ele><time>2026-04-08T11:05:18.122Z</time></trkpt><trkpt lat="46.1285696" lon="13.7817756"><ele>360.0</ele><time>2026-04-08T11:05:19.14Z</time></trkpt><trkpt lat="46.1286697" lon="13.7816482"><ele>354.5</ele><time>2026-04-08T11:05:20.119Z</time></trkpt><trkpt lat="46.1287886" lon="13.7815587"><ele>349.0</ele><time>2026-04-08T11:05:21.132Z</time></trkpt><trkpt lat="46.1289229" lon="13.7815022"><ele>342.3333333333333</ele><time>2026-04-08T11:05:22.122Z</time></trkpt><trkpt lat="46.1290696" lon="13.7814187"><ele>335.6666666666667</ele><time>2026-04-08T11:05:23.129Z</time></trkpt><trkpt lat="46.1292149" lon="13.7813117"><ele>329.0</ele><time>2026-04-08T11:05:24.122Z</time></trkpt><trkpt lat="46.1293359" lon="13.7811355"><ele>335.33333333333337</ele><time>2026-04-08T11:05:25.13Z</time></trkpt><trkpt lat="46.129446" lon="13.7809354"><ele>341.6666666666667</ele><time>2026-04-08T11:05:26.124Z</time></trkpt><trkpt lat="46.1295793" lon="13.7807577"><ele>348.0</ele><time>2026-04-08T11:05:27.136Z</time></trkpt><trkpt lat="46.1297266" lon="13.7805997"><ele>348.0</ele><time>2026-04-08T11:05:28.124Z</time></trkpt><trkpt lat="46.1298686" lon="13.7804693"><ele>348.0</ele><time>2026-04-08T11:05:29.122Z</time></trkpt><trkpt lat="46.1300001" lon="13.7803823"><ele>348.0</ele><time>2026-04-08T11:05:30.134Z</time></trkpt><trkpt lat="46.1301328" lon="13.7803668"><ele>348.0</ele><time>2026-04-08T11:05:31.123Z</time></trkpt><trkpt lat="46.1302748" lon="13.7804335"><ele>337.6666666666667</ele><time>2026-04-08T11:05:32.129Z</time></trkpt><trkpt lat="46.1304447" lon="13.7805231"><ele>327.33333333333337</ele><time>2026-04-08T11:05:33.119Z</time></trkpt><trkpt lat="46.1306377" lon="13.7806292"><ele>317.0</ele><time>2026-04-08T11:05:34.121Z</time></trkpt><trkpt lat="46.1308299" lon="13.7807377"><ele>314.6666666666667</ele><time>2026-04-08T11:05:35.122Z</time></trkpt><trkpt lat="46.1310087" lon="13.780843"><ele>312.3333333333333</ele><time>2026-04-08T11:05:36.155Z</time></trkpt><trkpt lat="46.1311621" lon="13.7809262"><ele>310.0</ele><time>2026-04-08T11:05:37.12Z</time></trkpt><trkpt lat="46.1313704" lon="13.7808857"><ele>310.0</ele><time>2026-04-08T11:05:39.133Z</time></trkpt><trkpt lat="46.1314884" lon="13.7807715"><ele>310.0</ele><time>2026-04-08T11:05:40.125Z</time></trkpt><trkpt lat="46.1316984" lon="13.7804021"><ele>310.0</ele><time>2026-04-08T11:05:42.116Z</time></trkpt><trkpt lat="46.1317768" lon="13.780204"><ele>310.0</ele><time>2026-04-08T11:05:43.136Z</time></trkpt><trkpt lat="46.1318196" lon="13.7800392"><ele>310.0</ele><time>2026-04-08T11:05:44.131Z</time></trkpt><trkpt lat="46.1318396" lon="13.7798483"><ele>310.0</ele><time>2026-04-08T11:05:45.119Z</time></trkpt><trkpt lat="46.1318384" lon="13.7796181"><ele>310.0</ele><time>2026-04-08T11:05:46.119Z</time></trkpt><trkpt lat="46.1318324" lon="13.7793696"><ele>310.0</ele><time>2026-04-08T11:05:47.133Z</time></trkpt><trkpt lat="46.131844" lon="13.779147"><ele>310.0</ele><time>2026-04-08T11:05:48.122Z</time></trkpt><trkpt lat="46.1318824" lon="13.7789726"><ele>312.0</ele><time>2026-04-08T11:05:49.13Z</time></trkpt><trkpt lat="46.1319536" lon="13.7788652"><ele>314.0</ele><time>2026-04-08T11:05:50.126Z</time></trkpt><trkpt lat="46.1320483" lon="13.7787799"><ele>316.0</ele><time>2026-04-08T11:05:51.134Z</time></trkpt><trkpt lat="46.132178" lon="13.7786923"><ele>318.0</ele><time>2026-04-08T11:05:52.13Z</time></trkpt><trkpt lat="46.1323266" lon="13.7786157"><ele>315.25</ele><time>2026-04-08T11:05:53.122Z</time></trkpt><trkpt lat="46.1324628" lon="13.7785702"><ele>312.5</ele><time>2026-04-08T11:05:54.128Z</time></trkpt><trkpt lat="46.1325858" lon="13.7785308"><ele>309.75</ele><time>2026-04-08T11:05:55.125Z</time></trkpt><trkpt lat="46.1327094" lon="13.7784782"><ele>307.0</ele><time>2026-04-08T11:05:56.122Z</time></trkpt><trkpt lat="46.1328287" lon="13.7783438"><ele>307.0</ele><time>2026-04-08T11:05:57.122Z</time></trkpt><trkpt lat="46.1329484" lon="13.7781319"><ele>307.0</ele><time>2026-04-08T11:05:58.126Z</time></trkpt><trkpt lat="46.1330658" lon="13.7779165"><ele>307.0</ele><time>2026-04-08T11:05:59.116Z</time></trkpt><trkpt lat="46.1331902" lon="13.7777072"><ele>300.66666666666663</ele><time>2026-04-08T11:06:00.132Z</time></trkpt><trkpt lat="46.1333171" lon="13.777509"><ele>294.3333333333333</ele><time>2026-04-08T11:06:01.134Z</time></trkpt><trkpt lat="46.1334319" lon="13.7773207"><ele>288.0</ele><time>2026-04-08T11:06:02.131Z</time></trkpt><trkpt lat="46.1335234" lon="13.777139"><ele>288.0</ele><time>2026-04-08T11:06:03.135Z</time></trkpt><trkpt lat="46.1335821" lon="13.7769451"><ele>288.0</ele><time>2026-04-08T11:06:04.123Z</time></trkpt><trkpt lat="46.1336154" lon="13.7767696"><ele>288.0</ele><time>2026-04-08T11:06:05.118Z</time></trkpt><trkpt lat="46.1336516" lon="13.7766228"><ele>288.0</ele><time>2026-04-08T11:06:06.13Z</time></trkpt><trkpt lat="46.1337486" lon="13.7765075"><ele>292.75</ele><time>2026-04-08T11:06:07.115Z</time></trkpt><trkpt lat="46.1338571" lon="13.7764395"><ele>297.5</ele><time>2026-04-08T11:06:08.125Z</time></trkpt><trkpt lat="46.1339791" lon="13.7763448"><ele>302.25</ele><time>2026-04-08T11:06:09.126Z</time></trkpt><trkpt lat="46.134087" lon="13.7762198"><ele>307.0</ele><time>2026-04-08T11:06:10.114Z</time></trkpt><trkpt lat="46.1341884" lon="13.7761027"><ele>300.3333333333333</ele><time>2026-04-08T11:06:11.129Z</time></trkpt><trkpt lat="46.1343023" lon="13.7760208"><ele>293.6666666666667</ele><time>2026-04-08T11:06:12.117Z</time></trkpt><trkpt lat="46.1344551" lon="13.7759776"><ele>287.0</ele><time>2026-04-08T11:06:13.124Z</time></trkpt><trkpt lat="46.1346245" lon="13.7759557"><ele>287.0</ele><time>2026-04-08T11:06:14.112Z</time></trkpt><trkpt lat="46.1347888" lon="13.7759408"><ele>287.0</ele><time>2026-04-08T11:06:15.131Z</time></trkpt><trkpt lat="46.1349448" lon="13.7759164"><ele>287.0</ele><time>2026-04-08T11:06:16.12Z</time></trkpt><trkpt lat="46.135086" lon="13.7758448"><ele>281.75</ele><time>2026-04-08T11:06:17.124Z</time></trkpt><trkpt lat="46.135195" lon="13.7757379"><ele>276.5</ele><time>2026-04-08T11:06:18.124Z</time></trkpt><trkpt lat="46.135316" lon="13.7756355"><ele>271.25</ele><time>2026-04-08T11:06:19.121Z</time></trkpt><trkpt lat="46.135452" lon="13.7755255"><ele>266.0</ele><time>2026-04-08T11:06:20.116Z</time></trkpt><trkpt lat="46.1355908" lon="13.7754309"><ele>266.0</ele><time>2026-04-08T11:06:21.125Z</time></trkpt><trkpt lat="46.1357098" lon="13.7753047"><ele>266.0</ele><time>2026-04-08T11:06:22.141Z</time></trkpt><trkpt lat="46.13583" lon="13.7751426"><ele>266.0</ele><time>2026-04-08T11:06:23.14Z</time></trkpt><trkpt lat="46.1359789" lon="13.7749415"><ele>265.33333333333337</ele><time>2026-04-08T11:06:24.135Z</time></trkpt><trkpt lat="46.1361325" lon="13.7747193"><ele>264.6666666666667</ele><time>2026-04-08T11:06:25.12Z</time></trkpt><trkpt lat="46.1362903" lon="13.7744778"><ele>264.0</ele><time>2026-04-08T11:06:26.124Z</time></trkpt><trkpt lat="46.1364302" lon="13.7742092"><ele>253.0</ele><time>2026-04-08T11:06:27.124Z</time></trkpt><trkpt lat="46.1365539" lon="13.7739326"><ele>242.0</ele><time>2026-04-08T11:06:28.122Z</time></trkpt><trkpt lat="46.1366814" lon="13.7736702"><ele>249.66666666666669</ele><time>2026-04-08T11:06:29.116Z</time></trkpt><trkpt lat="46.136812" lon="13.7734513"><ele>257.3333333333333</ele><time>2026-04-08T11:06:30.115Z</time></trkpt><trkpt lat="46.1369353" lon="13.7732604"><ele>265.0</ele><time>2026-04-08T11:06:31.125Z</time></trkpt><trkpt lat="46.1370673" lon="13.773103"><ele>265.0</ele><time>2026-04-08T11:06:32.13Z</time></trkpt><trkpt lat="46.1372516" lon="13.7729752"><ele>265.0</ele><time>2026-04-08T11:06:33.117Z</time></trkpt><trkpt lat="46.1374417" lon="13.7728781"><ele>265.0</ele><time>2026-04-08T11:06:34.123Z</time></trkpt><trkpt lat="46.1376245" lon="13.7728162"><ele>259.0</ele><time>2026-04-08T11:06:35.113Z</time></trkpt><trkpt lat="46.1377983" lon="13.7727564"><ele>253.0</ele><time>2026-04-08T11:06:36.13Z</time></trkpt><trkpt lat="46.1379476" lon="13.7727141"><ele>247.0</ele><time>2026-04-08T11:06:37.123Z</time></trkpt><trkpt lat="46.1380796" lon="13.7726645"><ele>247.0</ele><time>2026-04-08T11:06:38.115Z</time></trkpt><trkpt lat="46.1381963" lon="13.7725679"><ele>247.0</ele><time>2026-04-08T11:06:39.153Z</time></trkpt><trkpt lat="46.1382779" lon="13.7724053"><ele>247.0</ele><time>2026-04-08T11:06:40.116Z</time></trkpt><trkpt lat="46.1383593" lon="13.7722166"><ele>247.0</ele><time>2026-04-08T11:06:41.13Z</time></trkpt><trkpt lat="46.1384578" lon="13.7720304"><ele>244.66666666666666</ele><time>2026-04-08T11:06:42.13Z</time></trkpt><trkpt lat="46.1385904" lon="13.7718974"><ele>242.33333333333331</ele><time>2026-04-08T11:06:43.135Z</time></trkpt><trkpt lat="46.1387261" lon="13.7717617"><ele>240.0</ele><time>2026-04-08T11:06:44.125Z</time></trkpt><trkpt lat="46.1388669" lon="13.7716181"><ele>240.0</ele><time>2026-04-08T11:06:45.134Z</time></trkpt><trkpt lat="46.1390056" lon="13.7714809"><ele>240.0</ele><time>2026-04-08T11:06:46.119Z</time></trkpt><trkpt lat="46.139126" lon="13.771378"><ele>240.0</ele><time>2026-04-08T11:06:47.122Z</time></trkpt><trkpt lat="46.1392265" lon="13.771302"><ele>240.0</ele><time>2026-04-08T11:06:48.128Z</time></trkpt><trkpt lat="46.1393233" lon="13.7712181"><ele>238.75</ele><time>2026-04-08T11:06:49.121Z</time></trkpt><trkpt lat="46.1393914" lon="13.7710974"><ele>237.5</ele><time>2026-04-08T11:06:50.124Z</time></trkpt><trkpt lat="46.1394337" lon="13.7709665"><ele>236.25</ele><time>2026-04-08T11:06:51.121Z</time></trkpt><trkpt lat="46.1394717" lon="13.7708075"><ele>235.0</ele><time>2026-04-08T11:06:52.123Z</time></trkpt><trkpt lat="46.1395268" lon="13.7706337"><ele>235.0</ele><time>2026-04-08T11:06:53.114Z</time></trkpt><trkpt lat="46.1395987" lon="13.7704519"><ele>235.0</ele><time>2026-04-08T11:06:54.131Z</time></trkpt><trkpt lat="46.1396813" lon="13.7702553"><ele>235.0</ele><time>2026-04-08T11:06:55.138Z</time></trkpt><trkpt lat="46.1397721" lon="13.7700432"><ele>237.33333333333331</ele><time>2026-04-08T11:06:56.138Z</time></trkpt><trkpt lat="46.1398586" lon="13.7698259"><ele>239.66666666666669</ele><time>2026-04-08T11:06:57.129Z</time></trkpt><trkpt lat="46.1399497" lon="13.7696454"><ele>242.0</ele><time>2026-04-08T11:06:58.115Z</time></trkpt><trkpt lat="46.1400558" lon="13.7694816"><ele>238.75</ele><time>2026-04-08T11:06:59.121Z</time></trkpt><trkpt lat="46.1401632" lon="13.7693227"><ele>235.5</ele><time>2026-04-08T11:07:00.128Z</time></trkpt><trkpt lat="46.1402654" lon="13.769174"><ele>232.25</ele><time>2026-04-08T11:07:01.13Z</time></trkpt><trkpt lat="46.1403728" lon="13.7690336"><ele>229.0</ele><time>2026-04-08T11:07:02.12Z</time></trkpt><trkpt lat="46.1404977" lon="13.7689556"><ele>229.0</ele><time>2026-04-08T11:07:03.121Z</time></trkpt><trkpt lat="46.1406235" lon="13.7689297"><ele>229.0</ele><time>2026-04-08T11:07:04.117Z</time></trkpt><trkpt lat="46.1407356" lon="13.7689217"><ele>229.0</ele><time>2026-04-08T11:07:05.119Z</time></trkpt><trkpt lat="46.1408438" lon="13.7689183"><ele>229.0</ele><time>2026-04-08T11:07:06.134Z</time></trkpt><trkpt lat="46.140948" lon="13.7689081"><ele>224.39999999999998</ele><time>2026-04-08T11:07:07.119Z</time></trkpt><trkpt lat="46.1410444" lon="13.7688767"><ele>219.79999999999998</ele><time>2026-04-08T11:07:08.116Z</time></trkpt><trkpt lat="46.1411308" lon="13.7688272"><ele>215.2</ele><time>2026-04-08T11:07:09.12Z</time></trkpt><trkpt lat="46.1412064" lon="13.7687495"><ele>210.60000000000002</ele><time>2026-04-08T11:07:10.125Z</time></trkpt><trkpt lat="46.1412798" lon="13.7686619"><ele>206.0</ele><time>2026-04-08T11:07:11.128Z</time></trkpt><trkpt lat="46.1413528" lon="13.7685603"><ele>204.60000000000002</ele><time>2026-04-08T11:07:12.114Z</time></trkpt><trkpt lat="46.1414225" lon="13.7684609"><ele>203.2</ele><time>2026-04-08T11:07:13.126Z</time></trkpt><trkpt lat="46.1414962" lon="13.7683626"><ele>201.8</ele><time>2026-04-08T11:07:14.122Z</time></trkpt><trkpt lat="46.1415718" lon="13.768259"><ele>200.39999999999998</ele><time>2026-04-08T11:07:15.132Z</time></trkpt><trkpt lat="46.1416484" lon="13.7681507"><ele>199.0</ele><time>2026-04-08T11:07:16.115Z</time></trkpt><trkpt lat="46.1417227" lon="13.7680333"><ele>199.0</ele><time>2026-04-08T11:07:17.125Z</time></trkpt><trkpt lat="46.1417888" lon="13.7679063"><ele>199.0</ele><time>2026-04-08T11:07:18.125Z</time></trkpt><trkpt lat="46.1418472" lon="13.7677715"><ele>199.0</ele><time>2026-04-08T11:07:19.119Z</time></trkpt><trkpt lat="46.1419047" lon="13.7676373"><ele>199.0</ele><time>2026-04-08T11:07:20.116Z</time></trkpt><trkpt lat="46.1419691" lon="13.7675076"><ele>199.0</ele><time>2026-04-08T11:07:21.126Z</time></trkpt><trkpt lat="46.1420392" lon="13.7673892"><ele>198.39999999999998</ele><time>2026-04-08T11:07:22.124Z</time></trkpt><trkpt lat="46.142117" lon="13.7672731"><ele>197.8</ele><time>2026-04-08T11:07:23.119Z</time></trkpt><trkpt lat="46.1421939" lon="13.7671559"><ele>197.2</ele><time>2026-04-08T11:07:24.122Z</time></trkpt><trkpt lat="46.1422688" lon="13.7670374"><ele>196.60000000000002</ele><time>2026-04-08T11:07:25.122Z</time></trkpt><trkpt lat="46.1423453" lon="13.7669232"><ele>196.0</ele><time>2026-04-08T11:07:26.127Z</time></trkpt><trkpt lat="46.1424217" lon="13.7668038"><ele>196.0</ele><time>2026-04-08T11:07:27.12Z</time></trkpt><trkpt lat="46.1424969" lon="13.7666787"><ele>196.0</ele><time>2026-04-08T11:07:28.119Z</time></trkpt><trkpt lat="46.1425633" lon="13.7665452"><ele>196.0</ele><time>2026-04-08T11:07:29.12Z</time></trkpt><trkpt lat="46.1426184" lon="13.7664052"><ele>196.0</ele><time>2026-04-08T11:07:30.133Z</time></trkpt><trkpt lat="46.1426537" lon="13.7662535"><ele>196.0</ele><time>2026-04-08T11:07:31.122Z</time></trkpt><trkpt lat="46.1426782" lon="13.7660972"><ele>196.0</ele><time>2026-04-08T11:07:32.12Z</time></trkpt><trkpt lat="46.142707" lon="13.7659376"><ele>196.0</ele><time>2026-04-08T11:07:33.115Z</time></trkpt><trkpt lat="46.1427416" lon="13.7657881"><ele>196.0</ele><time>2026-04-08T11:07:34.116Z</time></trkpt><trkpt lat="46.1427802" lon="13.7656459"><ele>196.0</ele><time>2026-04-08T11:07:35.128Z</time></trkpt><trkpt lat="46.1428303" lon="13.7655069"><ele>196.8</ele><time>2026-04-08T11:07:36.125Z</time></trkpt><trkpt lat="46.142884" lon="13.7653748"><ele>197.60000000000002</ele><time>2026-04-08T11:07:37.12Z</time></trkpt><trkpt lat="46.1429427" lon="13.7652482"><ele>198.4</ele><time>2026-04-08T11:07:38.127Z</time></trkpt><trkpt lat="46.1430033" lon="13.7651231"><ele>199.2</ele><time>2026-04-08T11:07:39.117Z</time></trkpt><trkpt lat="46.1430669" lon="13.7649957"><ele>200.0</ele><time>2026-04-08T11:07:40.133Z</time></trkpt><trkpt lat="46.1431254" lon="13.7648662"><ele>199.4</ele><time>2026-04-08T11:07:41.115Z</time></trkpt><trkpt lat="46.143184" lon="13.7647351"><ele>198.8</ele><time>2026-04-08T11:07:42.127Z</time></trkpt><trkpt lat="46.1432459" lon="13.7646053"><ele>198.2</ele><time>2026-04-08T11:07:43.121Z</time></trkpt><trkpt lat="46.1433079" lon="13.7644742"><ele>197.6</ele><time>2026-04-08T11:07:44.117Z</time></trkpt><trkpt lat="46.1433675" lon="13.7643381"><ele>197.0</ele><time>2026-04-08T11:07:45.121Z</time></trkpt><trkpt lat="46.1434331" lon="13.7642042"><ele>197.0</ele><time>2026-04-08T11:07:46.121Z</time></trkpt><trkpt lat="46.1434943" lon="13.7640693"><ele>197.0</ele><time>2026-04-08T11:07:47.121Z</time></trkpt><trkpt lat="46.1435566" lon="13.7639309"><ele>197.0</ele><time>2026-04-08T11:07:48.12Z</time></trkpt><trkpt lat="46.143619" lon="13.7637915"><ele>197.0</ele><time>2026-04-08T11:07:49.131Z</time></trkpt><trkpt lat="46.1436804" lon="13.7636499"><ele>199.75</ele><time>2026-04-08T11:07:50.124Z</time></trkpt><trkpt lat="46.143747" lon="13.7635084"><ele>202.5</ele><time>2026-04-08T11:07:51.123Z</time></trkpt><trkpt lat="46.1438123" lon="13.7633588"><ele>205.25</ele><time>2026-04-08T11:07:52.123Z</time></trkpt><trkpt lat="46.1438735" lon="13.7632107"><ele>208.0</ele><time>2026-04-08T11:07:53.122Z</time></trkpt><trkpt lat="46.1439388" lon="13.7630669"><ele>208.0</ele><time>2026-04-08T11:07:54.12Z</time></trkpt><trkpt lat="46.1440023" lon="13.7629254"><ele>208.0</ele><time>2026-04-08T11:07:55.112Z</time></trkpt><trkpt lat="46.1440669" lon="13.7627842"><ele>208.0</ele><time>2026-04-08T11:07:56.126Z</time></trkpt><trkpt lat="46.1441305" lon="13.7626408"><ele>208.0</ele><time>2026-04-08T11:07:57.121Z</time></trkpt><trkpt lat="46.1441948" lon="13.7625016"><ele>203.75</ele><time>2026-04-08T11:07:58.125Z</time></trkpt><trkpt lat="46.1442594" lon="13.7623596"><ele>199.5</ele><time>2026-04-08T11:07:59.115Z</time></trkpt><trkpt lat="46.1443259" lon="13.7622165"><ele>195.25</ele><time>2026-04-08T11:08:00.113Z</time></trkpt><trkpt lat="46.1443834" lon="13.7620705"><ele>191.0</ele><time>2026-04-08T11:08:01.118Z</time></trkpt><trkpt lat="46.1444307" lon="13.7619226"><ele>193.0</ele><time>2026-04-08T11:08:02.118Z</time></trkpt><trkpt lat="46.1444781" lon="13.7617737"><ele>195.0</ele><time>2026-04-08T11:08:03.133Z</time></trkpt><trkpt lat="46.1445312" lon="13.7616233"><ele>197.0</ele><time>2026-04-08T11:08:04.122Z</time></trkpt><trkpt lat="46.1445915" lon="13.7614749"><ele>199.0</ele><time>2026-04-08T11:08:05.113Z</time></trkpt><trkpt lat="46.1446611" lon="13.761337"><ele>199.0</ele><time>2026-04-08T11:08:06.117Z</time></trkpt><trkpt lat="46.1447377" lon="13.7612099"><ele>199.0</ele><time>2026-04-08T11:08:07.122Z</time></trkpt><trkpt lat="46.1448215" lon="13.7610887"><ele>199.0</ele><time>2026-04-08T11:08:08.124Z</time></trkpt><trkpt lat="46.1449169" lon="13.7609802"><ele>199.0</ele><time>2026-04-08T11:08:09.111Z</time></trkpt><trkpt lat="46.1450108" lon="13.7608797"><ele>195.75</ele><time>2026-04-08T11:08:10.123Z</time></trkpt><trkpt lat="46.1451018" lon="13.7607801"><ele>192.5</ele><time>2026-04-08T11:08:11.116Z</time></trkpt><trkpt lat="46.1451887" lon="13.7606776"><ele>189.25</ele><time>2026-04-08T11:08:12.119Z</time></trkpt><trkpt lat="46.1452748" lon="13.7605741"><ele>186.0</ele><time>2026-04-08T11:08:13.122Z</time></trkpt><trkpt lat="46.1453655" lon="13.7604704"><ele>186.0</ele><time>2026-04-08T11:08:14.115Z</time></trkpt><trkpt lat="46.1454543" lon="13.7603579"><ele>186.0</ele><time>2026-04-08T11:08:15.121Z</time></trkpt><trkpt lat="46.1455435" lon="13.7602471"><ele>186.0</ele><time>2026-04-08T11:08:16.133Z</time></trkpt><trkpt lat="46.1456299" lon="13.7601326"><ele>186.0</ele><time>2026-04-08T11:08:17.121Z</time></trkpt><trkpt lat="46.1457133" lon="13.7600121"><ele>186.25</ele><time>2026-04-08T11:08:18.126Z</time></trkpt><trkpt lat="46.1457949" lon="13.7598875"><ele>186.5</ele><time>2026-04-08T11:08:19.12Z</time></trkpt><trkpt lat="46.1458771" lon="13.7597588"><ele>186.75</ele><time>2026-04-08T11:08:20.127Z</time></trkpt><trkpt lat="46.1459588" lon="13.7596258"><ele>187.0</ele><time>2026-04-08T11:08:21.133Z</time></trkpt><trkpt lat="46.1460396" lon="13.7594895"><ele>190.25</ele><time>2026-04-08T11:08:22.133Z</time></trkpt><trkpt lat="46.1461224" lon="13.7593499"><ele>193.5</ele><time>2026-04-08T11:08:23.125Z</time></trkpt><trkpt lat="46.1462036" lon="13.7592117"><ele>196.75</ele><time>2026-04-08T11:08:24.114Z</time></trkpt><trkpt lat="46.146284" lon="13.7590817"><ele>200.0</ele><time>2026-04-08T11:08:25.116Z</time></trkpt><trkpt lat="46.1463601" lon="13.758958"><ele>200.0</ele><time>2026-04-08T11:08:26.121Z</time></trkpt><trkpt lat="46.1464335" lon="13.7588317"><ele>200.0</ele><time>2026-04-08T11:08:27.113Z</time></trkpt><trkpt lat="46.1465024" lon="13.7587059"><ele>200.0</ele><time>2026-04-08T11:08:28.12Z</time></trkpt><trkpt lat="46.1465695" lon="13.7585802"><ele>200.0</ele><time>2026-04-08T11:08:29.128Z</time></trkpt><trkpt lat="46.1466352" lon="13.7584542"><ele>200.0</ele><time>2026-04-08T11:08:30.132Z</time></trkpt><trkpt lat="46.1467013" lon="13.7583228"><ele>197.5</ele><time>2026-04-08T11:08:31.126Z</time></trkpt><trkpt lat="46.146767" lon="13.7581871"><ele>195.0</ele><time>2026-04-08T11:08:32.135Z</time></trkpt><trkpt lat="46.1468279" lon="13.7580466"><ele>192.5</ele><time>2026-04-08T11:08:33.135Z</time></trkpt><trkpt lat="46.146887" lon="13.7579103"><ele>190.0</ele><time>2026-04-08T11:08:34.123Z</time></trkpt><trkpt lat="46.1469524" lon="13.7577746"><ele>192.0</ele><time>2026-04-08T11:08:35.115Z</time></trkpt><trkpt lat="46.147023" lon="13.7576334"><ele>194.0</ele><time>2026-04-08T11:08:36.122Z</time></trkpt><trkpt lat="46.1470908" lon="13.7574876"><ele>196.0</ele><time>2026-04-08T11:08:37.13Z</time></trkpt><trkpt lat="46.1471593" lon="13.7573293"><ele>198.0</ele><time>2026-04-08T11:08:38.123Z</time></trkpt><trkpt lat="46.1472307" lon="13.7571533"><ele>198.0</ele><time>2026-04-08T11:08:39.118Z</time></trkpt><trkpt lat="46.1473004" lon="13.7569633"><ele>198.0</ele><time>2026-04-08T11:08:40.117Z</time></trkpt><trkpt lat="46.1473641" lon="13.7567503"><ele>198.0</ele><time>2026-04-08T11:08:41.114Z</time></trkpt><trkpt lat="46.1474144" lon="13.7565276"><ele>196.5</ele><time>2026-04-08T11:08:42.126Z</time></trkpt><trkpt lat="46.1474665" lon="13.7563186"><ele>195.0</ele><time>2026-04-08T11:08:43.132Z</time></trkpt><trkpt lat="46.1475144" lon="13.7561282"><ele>193.5</ele><time>2026-04-08T11:08:44.119Z</time></trkpt><trkpt lat="46.1475532" lon="13.7559608"><ele>192.0</ele><time>2026-04-08T11:08:45.113Z</time></trkpt><trkpt lat="46.1475835" lon="13.7558435"><ele>192.0</ele><time>2026-04-08T11:08:46.126Z</time></trkpt><trkpt lat="46.1476309" lon="13.7557766"><ele>192.0</ele><time>2026-04-08T11:08:47.118Z</time></trkpt><trkpt lat="46.1477553" lon="13.7557791"><ele>192.0</ele><time>2026-04-08T11:08:49.128Z</time></trkpt><trkpt lat="46.1478096" lon="13.7559228"><ele>192.0</ele><time>2026-04-08T11:08:51.132Z</time></trkpt><trkpt lat="46.1477951" lon="13.756044"><ele>192.0</ele><time>2026-04-08T11:08:52.121Z</time></trkpt><trkpt lat="46.1477691" lon="13.7562022"><ele>189.75</ele><time>2026-04-08T11:08:53.136Z</time></trkpt><trkpt lat="46.1477397" lon="13.7563822"><ele>187.5</ele><time>2026-04-08T11:08:54.116Z</time></trkpt><trkpt lat="46.1477148" lon="13.7565671"><ele>185.25</ele><time>2026-04-08T11:08:55.121Z</time></trkpt><trkpt lat="46.147702" lon="13.7567399"><ele>183.0</ele><time>2026-04-08T11:08:56.13Z</time></trkpt><trkpt lat="46.1477158" lon="13.7569122"><ele>181.75</ele><time>2026-04-08T11:08:57.122Z</time></trkpt><trkpt lat="46.1477452" lon="13.7570946"><ele>180.5</ele><time>2026-04-08T11:08:58.117Z</time></trkpt><trkpt lat="46.1477758" lon="13.7572696"><ele>179.25</ele><time>2026-04-08T11:08:59.127Z</time></trkpt><trkpt lat="46.1478058" lon="13.7574346"><ele>178.0</ele><time>2026-04-08T11:09:00.114Z</time></trkpt><trkpt lat="46.1478139" lon="13.7575983"><ele>179.0</ele><time>2026-04-08T11:09:01.146Z</time></trkpt><trkpt lat="46.1478052" lon="13.7577778"><ele>180.0</ele><time>2026-04-08T11:09:02.119Z</time></trkpt><trkpt lat="46.1477887" lon="13.7579547"><ele>181.0</ele><time>2026-04-08T11:09:03.118Z</time></trkpt><trkpt lat="46.1477642" lon="13.7581261"><ele>182.0</ele><time>2026-04-08T11:09:04.126Z</time></trkpt><trkpt lat="46.1477242" lon="13.7582871"><ele>182.0</ele><time>2026-04-08T11:09:05.122Z</time></trkpt><trkpt lat="46.1476614" lon="13.7584395"><ele>182.0</ele><time>2026-04-08T11:09:06.127Z</time></trkpt><trkpt lat="46.1475762" lon="13.758589"><ele>182.0</ele><time>2026-04-08T11:09:07.113Z</time></trkpt><trkpt lat="46.1474723" lon="13.758756"><ele>182.0</ele><time>2026-04-08T11:09:08.127Z</time></trkpt><trkpt lat="46.147368" lon="13.7589256"><ele>181.33333333333331</ele><time>2026-04-08T11:09:09.127Z</time></trkpt><trkpt lat="46.1472654" lon="13.7591015"><ele>180.66666666666666</ele><time>2026-04-08T11:09:10.125Z</time></trkpt><trkpt lat="46.1471579" lon="13.7592667"><ele>180.0</ele><time>2026-04-08T11:09:11.145Z</time></trkpt><trkpt lat="46.1470438" lon="13.759409"><ele>180.0</ele><time>2026-04-08T11:09:12.129Z</time></trkpt><trkpt lat="46.1469259" lon="13.7595139"><ele>180.0</ele><time>2026-04-08T11:09:13.137Z</time></trkpt><trkpt lat="46.1468172" lon="13.759618"><ele>180.0</ele><time>2026-04-08T11:09:14.138Z</time></trkpt><trkpt lat="46.1467195" lon="13.7597302"><ele>180.0</ele><time>2026-04-08T11:09:15.136Z</time></trkpt><trkpt lat="46.1466288" lon="13.759839"><ele>179.8</ele><time>2026-04-08T11:09:16.116Z</time></trkpt><trkpt lat="46.1465396" lon="13.7599519"><ele>179.6</ele><time>2026-04-08T11:09:17.125Z</time></trkpt><trkpt lat="46.1464654" lon="13.7600615"><ele>179.39999999999998</ele><time>2026-04-08T11:09:18.117Z</time></trkpt><trkpt lat="46.1464152" lon="13.7601572"><ele>179.2</ele><time>2026-04-08T11:09:19.126Z</time></trkpt><trkpt lat="46.1464004" lon="13.7602563"><ele>179.0</ele><time>2026-04-08T11:09:20.13Z</time></trkpt><trkpt lat="46.1464291" lon="13.7603516"><ele>179.0</ele><time>2026-04-08T11:09:21.117Z</time></trkpt><trkpt lat="46.1464871" lon="13.7604427"><ele>179.0</ele><time>2026-04-08T11:09:22.14Z</time></trkpt><trkpt lat="46.1465606" lon="13.7605224"><ele>179.0</ele><time>2026-04-08T11:09:23.122Z</time></trkpt><trkpt lat="46.1466356" lon="13.7606098"><ele>179.0</ele><time>2026-04-08T11:09:24.144Z</time></trkpt><trkpt lat="46.1467012" lon="13.7606895"><ele>179.0</ele><time>2026-04-08T11:09:25.128Z</time></trkpt><trkpt lat="46.1467601" lon="13.76076"><ele>179.0</ele><time>2026-04-08T11:09:26.132Z</time></trkpt><trkpt lat="46.1468136" lon="13.76082"><ele>178.66666666666666</ele><time>2026-04-08T11:09:28.124Z</time></trkpt><trkpt lat="46.1468858" lon="13.7608831"><ele>178.33333333333331</ele><time>2026-04-08T11:11:34.12Z</time></trkpt><trkpt lat="46.1469449" lon="13.7609566"><ele>178.0</ele><time>2026-04-08T11:11:35.132Z</time></trkpt><trkpt lat="46.1470058" lon="13.761033"><ele>177.66666666666666</ele><time>2026-04-08T11:11:36.128Z</time></trkpt><trkpt lat="46.1470515" lon="13.7611019"><ele>177.33333333333334</ele><time>2026-04-08T11:11:37.139Z</time></trkpt><trkpt lat="46.147123" lon="13.7611962"><ele>177.0</ele><time>2026-04-08T11:11:39.117Z</time></trkpt><trkpt lat="46.1471838" lon="13.761239"><ele>177.0</ele><time>2026-04-08T11:11:45.12Z</time></trkpt><trkpt lat="46.1472601" lon="13.7612013"><ele>177.0</ele><time>2026-04-08T11:11:47.134Z</time></trkpt><trkpt lat="46.147335" lon="13.7611115"><ele>177.0</ele><time>2026-04-08T11:11:48.124Z</time></trkpt><trkpt lat="46.147424" lon="13.7610047"><ele>177.0</ele><time>2026-04-08T11:11:49.115Z</time></trkpt><trkpt lat="46.1475335" lon="13.7608751"><ele>177.0</ele><time>2026-04-08T11:11:50.131Z</time></trkpt><trkpt lat="46.1476682" lon="13.7607341"><ele>180.0</ele><time>2026-04-08T11:11:51.128Z</time></trkpt><trkpt lat="46.1478258" lon="13.7606014"><ele>183.0</ele><time>2026-04-08T11:11:52.12Z</time></trkpt><trkpt lat="46.1479898" lon="13.7604736"><ele>186.0</ele><time>2026-04-08T11:11:53.121Z</time></trkpt><trkpt lat="46.1481441" lon="13.7603108"><ele>187.33333333333334</ele><time>2026-04-08T11:11:54.117Z</time></trkpt><trkpt lat="46.1482867" lon="13.7601269"><ele>188.66666666666669</ele><time>2026-04-08T11:11:55.128Z</time></trkpt><trkpt lat="46.1484306" lon="13.759928"><ele>190.0</ele><time>2026-04-08T11:11:56.119Z</time></trkpt><trkpt lat="46.1485668" lon="13.7597216"><ele>190.0</ele><time>2026-04-08T11:11:57.132Z</time></trkpt><trkpt lat="46.1487029" lon="13.7595247"><ele>190.0</ele><time>2026-04-08T11:11:58.117Z</time></trkpt><trkpt lat="46.1488208" lon="13.7593362"><ele>190.0</ele><time>2026-04-08T11:11:59.126Z</time></trkpt><trkpt lat="46.148907" lon="13.7591415"><ele>185.0</ele><time>2026-04-08T11:12:00.117Z</time></trkpt><trkpt lat="46.1489611" lon="13.7589221"><ele>180.0</ele><time>2026-04-08T11:12:01.117Z</time></trkpt><trkpt lat="46.1489979" lon="13.7586793"><ele>175.0</ele><time>2026-04-08T11:12:02.118Z</time></trkpt><trkpt lat="46.149023" lon="13.758435"><ele>175.0</ele><time>2026-04-08T11:12:03.122Z</time></trkpt><trkpt lat="46.1490258" lon="13.7581908"><ele>175.0</ele><time>2026-04-08T11:12:04.114Z</time></trkpt><trkpt lat="46.1489788" lon="13.7579577"><ele>175.0</ele><time>2026-04-08T11:12:05.119Z</time></trkpt><trkpt lat="46.1489124" lon="13.7577474"><ele>174.5</ele><time>2026-04-08T11:12:06.121Z</time></trkpt><trkpt lat="46.1488606" lon="13.7575503"><ele>174.0</ele><time>2026-04-08T11:12:07.109Z</time></trkpt><trkpt lat="46.1488637" lon="13.7573667"><ele>173.5</ele><time>2026-04-08T11:12:08.123Z</time></trkpt><trkpt lat="46.1489202" lon="13.7571795"><ele>173.0</ele><time>2026-04-08T11:12:09.185Z</time></trkpt><trkpt lat="46.1490173" lon="13.7569885"><ele>176.33333333333331</ele><time>2026-04-08T11:12:10.121Z</time></trkpt><trkpt lat="46.1491186" lon="13.7568018"><ele>179.66666666666666</ele><time>2026-04-08T11:12:11.12Z</time></trkpt><trkpt lat="46.1491829" lon="13.7565964"><ele>183.0</ele><time>2026-04-08T11:12:12.122Z</time></trkpt><trkpt lat="46.1492007" lon="13.7563532"><ele>183.0</ele><time>2026-04-08T11:12:13.137Z</time></trkpt><trkpt lat="46.1491886" lon="13.7561065"><ele>183.0</ele><time>2026-04-08T11:12:14.121Z</time></trkpt><trkpt lat="46.1491825" lon="13.7558655"><ele>183.0</ele><time>2026-04-08T11:12:15.136Z</time></trkpt><trkpt lat="46.1492206" lon="13.7556379"><ele>182.25</ele><time>2026-04-08T11:12:16.129Z</time></trkpt><trkpt lat="46.1492393" lon="13.7554156"><ele>181.5</ele><time>2026-04-08T11:12:17.125Z</time></trkpt><trkpt lat="46.1492531" lon="13.7552045"><ele>180.75</ele><time>2026-04-08T11:12:18.122Z</time></trkpt><trkpt lat="46.1492778" lon="13.755"><ele>180.0</ele><time>2026-04-08T11:12:19.119Z</time></trkpt><trkpt lat="46.1493454" lon="13.7548026"><ele>179.0</ele><time>2026-04-08T11:12:20.114Z</time></trkpt><trkpt lat="46.1494431" lon="13.7545746"><ele>178.0</ele><time>2026-04-08T11:12:21.115Z</time></trkpt><trkpt lat="46.1495532" lon="13.7543243"><ele>177.0</ele><time>2026-04-08T11:12:22.125Z</time></trkpt><trkpt lat="46.1496616" lon="13.7540511"><ele>180.33333333333334</ele><time>2026-04-08T11:12:23.129Z</time></trkpt><trkpt lat="46.1497706" lon="13.7537818"><ele>183.66666666666669</ele><time>2026-04-08T11:12:24.125Z</time></trkpt><trkpt lat="46.1498637" lon="13.7535242"><ele>187.0</ele><time>2026-04-08T11:12:25.131Z</time></trkpt><trkpt lat="46.1499286" lon="13.7532723"><ele>187.0</ele><time>2026-04-08T11:12:26.125Z</time></trkpt><trkpt lat="46.1499553" lon="13.7530368"><ele>187.0</ele><time>2026-04-08T11:12:27.123Z</time></trkpt><trkpt lat="46.1499666" lon="13.7528176"><ele>187.0</ele><time>2026-04-08T11:12:28.12Z</time></trkpt><trkpt lat="46.1499974" lon="13.7526062"><ele>182.33333333333334</ele><time>2026-04-08T11:12:29.12Z</time></trkpt><trkpt lat="46.1500788" lon="13.7523905"><ele>177.66666666666666</ele><time>2026-04-08T11:12:30.113Z</time></trkpt><trkpt lat="46.1501945" lon="13.7521934"><ele>173.0</ele><time>2026-04-08T11:12:31.114Z</time></trkpt><trkpt lat="46.1503386" lon="13.7520126"><ele>170.0</ele><time>2026-04-08T11:12:32.124Z</time></trkpt><trkpt lat="46.1504712" lon="13.7518123"><ele>167.0</ele><time>2026-04-08T11:12:33.122Z</time></trkpt><trkpt lat="46.1505875" lon="13.7515869"><ele>164.0</ele><time>2026-04-08T11:12:34.11Z</time></trkpt><trkpt lat="46.1506799" lon="13.7513097"><ele>170.66666666666666</ele><time>2026-04-08T11:12:35.119Z</time></trkpt><trkpt lat="46.1507682" lon="13.7510188"><ele>177.33333333333334</ele><time>2026-04-08T11:12:36.122Z</time></trkpt><trkpt lat="46.1508674" lon="13.750722"><ele>184.0</ele><time>2026-04-08T11:12:37.128Z</time></trkpt><trkpt lat="46.1509677" lon="13.7504318"><ele>180.0</ele><time>2026-04-08T11:12:38.115Z</time></trkpt><trkpt lat="46.1510627" lon="13.75015"><ele>176.0</ele><time>2026-04-08T11:12:39.127Z</time></trkpt><trkpt lat="46.1511423" lon="13.7498841"><ele>172.0</ele><time>2026-04-08T11:12:40.12Z</time></trkpt><trkpt lat="46.1512101" lon="13.7496271"><ele>170.66666666666669</ele><time>2026-04-08T11:12:41.116Z</time></trkpt><trkpt lat="46.151258" lon="13.7493526"><ele>169.33333333333334</ele><time>2026-04-08T11:12:42.117Z</time></trkpt><trkpt lat="46.1512775" lon="13.7490562"><ele>168.0</ele><time>2026-04-08T11:12:43.139Z</time></trkpt><trkpt lat="46.1512757" lon="13.7487321"><ele>166.66666666666666</ele><time>2026-04-08T11:12:44.122Z</time></trkpt><trkpt lat="46.1512737" lon="13.7484142"><ele>165.33333333333331</ele><time>2026-04-08T11:12:45.121Z</time></trkpt><trkpt lat="46.1512752" lon="13.7481257"><ele>164.0</ele><time>2026-04-08T11:12:46.126Z</time></trkpt><trkpt lat="46.1512566" lon="13.74786"><ele>164.66666666666666</ele><time>2026-04-08T11:12:47.124Z</time></trkpt><trkpt lat="46.1512216" lon="13.7476161"><ele>165.33333333333334</ele><time>2026-04-08T11:12:48.122Z</time></trkpt><trkpt lat="46.1511782" lon="13.7473779"><ele>166.0</ele><time>2026-04-08T11:12:49.119Z</time></trkpt><trkpt lat="46.1511498" lon="13.7471365"><ele>166.0</ele><time>2026-04-08T11:12:50.156Z</time></trkpt><trkpt lat="46.1511531" lon="13.746906"><ele>166.0</ele><time>2026-04-08T11:12:51.125Z</time></trkpt><trkpt lat="46.1511695" lon="13.7466723"><ele>166.0</ele><time>2026-04-08T11:12:52.118Z</time></trkpt><trkpt lat="46.1511834" lon="13.7464514"><ele>165.75</ele><time>2026-04-08T11:12:53.128Z</time></trkpt><trkpt lat="46.1511918" lon="13.7462292"><ele>165.5</ele><time>2026-04-08T11:12:54.137Z</time></trkpt><trkpt lat="46.1512076" lon="13.7460309"><ele>165.25</ele><time>2026-04-08T11:12:55.121Z</time></trkpt><trkpt lat="46.1512306" lon="13.7458411"><ele>165.0</ele><time>2026-04-08T11:12:56.138Z</time></trkpt><trkpt lat="46.1512637" lon="13.7456613"><ele>164.5</ele><time>2026-04-08T11:12:57.123Z</time></trkpt><trkpt lat="46.151305" lon="13.7454989"><ele>164.0</ele><time>2026-04-08T11:12:58.125Z</time></trkpt><trkpt lat="46.1513524" lon="13.7453396"><ele>163.5</ele><time>2026-04-08T11:12:59.131Z</time></trkpt><trkpt lat="46.1513991" lon="13.7451811"><ele>163.0</ele><time>2026-04-08T11:13:00.147Z</time></trkpt><trkpt lat="46.1514473" lon="13.7450214"><ele>162.8</ele><time>2026-04-08T11:13:01.119Z</time></trkpt><trkpt lat="46.1514985" lon="13.7448702"><ele>162.60000000000002</ele><time>2026-04-08T11:13:02.119Z</time></trkpt><trkpt lat="46.1515554" lon="13.7447289"><ele>162.39999999999998</ele><time>2026-04-08T11:13:03.13Z</time></trkpt><trkpt lat="46.1516131" lon="13.7445953"><ele>162.2</ele><time>2026-04-08T11:13:04.119Z</time></trkpt><trkpt lat="46.1516705" lon="13.7444623"><ele>162.0</ele><time>2026-04-08T11:13:05.135Z</time></trkpt><trkpt lat="46.151727" lon="13.7443328"><ele>163.6</ele><time>2026-04-08T11:13:06.123Z</time></trkpt><trkpt lat="46.1517823" lon="13.7441959"><ele>165.2</ele><time>2026-04-08T11:13:07.12Z</time></trkpt><trkpt lat="46.1518316" lon="13.7440547"><ele>166.8</ele><time>2026-04-08T11:13:08.128Z</time></trkpt><trkpt lat="46.1518762" lon="13.7439152"><ele>168.4</ele><time>2026-04-08T11:13:09.125Z</time></trkpt><trkpt lat="46.1519155" lon="13.7437688"><ele>170.0</ele><time>2026-04-08T11:13:10.119Z</time></trkpt><trkpt lat="46.1519595" lon="13.743624"><ele>169.0</ele><time>2026-04-08T11:13:11.134Z</time></trkpt><trkpt lat="46.152" lon="13.7434794"><ele>168.0</ele><time>2026-04-08T11:13:12.137Z</time></trkpt><trkpt lat="46.1520411" lon="13.7433334"><ele>167.0</ele><time>2026-04-08T11:13:13.13Z</time></trkpt><trkpt lat="46.1520827" lon="13.743186"><ele>166.0</ele><time>2026-04-08T11:13:14.12Z</time></trkpt><trkpt lat="46.1521239" lon="13.7430341"><ele>165.0</ele><time>2026-04-08T11:13:15.124Z</time></trkpt><trkpt lat="46.1521658" lon="13.7428769"><ele>165.0</ele><time>2026-04-08T11:13:16.123Z</time></trkpt><trkpt lat="46.1522085" lon="13.7427172"><ele>165.0</ele><time>2026-04-08T11:13:17.146Z</time></trkpt><trkpt lat="46.1522513" lon="13.7425576"><ele>165.0</ele><time>2026-04-08T11:13:18.132Z</time></trkpt><trkpt lat="46.1522959" lon="13.7423946"><ele>165.0</ele><time>2026-04-08T11:13:19.131Z</time></trkpt><trkpt lat="46.1523443" lon="13.7422404"><ele>164.8</ele><time>2026-04-08T11:13:20.134Z</time></trkpt><trkpt lat="46.1523966" lon="13.7420945"><ele>164.6</ele><time>2026-04-08T11:13:21.134Z</time></trkpt><trkpt lat="46.1524562" lon="13.7419749"><ele>164.39999999999998</ele><time>2026-04-08T11:13:22.121Z</time></trkpt><trkpt lat="46.1525158" lon="13.7418879"><ele>164.2</ele><time>2026-04-08T11:13:23.125Z</time></trkpt><trkpt lat="46.1525858" lon="13.7418297"><ele>164.0</ele><time>2026-04-08T11:13:24.126Z</time></trkpt><trkpt lat="46.1526718" lon="13.7418325"><ele>165.75</ele><time>2026-04-08T11:13:25.143Z</time></trkpt><trkpt lat="46.1527675" lon="13.7418925"><ele>167.5</ele><time>2026-04-08T11:13:26.124Z</time></trkpt><trkpt lat="46.1528587" lon="13.7419753"><ele>169.25</ele><time>2026-04-08T11:13:27.123Z</time></trkpt><trkpt lat="46.1529402" lon="13.7420918"><ele>171.0</ele><time>2026-04-08T11:13:28.132Z</time></trkpt><trkpt lat="46.1530205" lon="13.7422329"><ele>171.0</ele><time>2026-04-08T11:13:29.115Z</time></trkpt><trkpt lat="46.1531037" lon="13.7423806"><ele>171.0</ele><time>2026-04-08T11:13:30.116Z</time></trkpt><trkpt lat="46.1531848" lon="13.7425151"><ele>171.0</ele><time>2026-04-08T11:13:31.123Z</time></trkpt><trkpt lat="46.1532648" lon="13.7426669"><ele>171.0</ele><time>2026-04-08T11:13:32.145Z</time></trkpt><trkpt lat="46.1533327" lon="13.7428233"><ele>174.0</ele><time>2026-04-08T11:13:33.133Z</time></trkpt><trkpt lat="46.1533871" lon="13.7429842"><ele>177.0</ele><time>2026-04-08T11:13:34.127Z</time></trkpt><trkpt lat="46.15343" lon="13.7431488"><ele>180.0</ele><time>2026-04-08T11:13:35.134Z</time></trkpt><trkpt lat="46.1534672" lon="13.7433155"><ele>183.0</ele><time>2026-04-08T11:13:36.13Z</time></trkpt><trkpt lat="46.1534942" lon="13.743485"><ele>183.25</ele><time>2026-04-08T11:13:37.127Z</time></trkpt><trkpt lat="46.1534962" lon="13.7436625"><ele>183.5</ele><time>2026-04-08T11:13:38.132Z</time></trkpt><trkpt lat="46.1534957" lon="13.7438539"><ele>183.75</ele><time>2026-04-08T11:13:39.14Z</time></trkpt><trkpt lat="46.1534986" lon="13.7440506"><ele>184.0</ele><time>2026-04-08T11:13:40.151Z</time></trkpt><trkpt lat="46.1535069" lon="13.7442453"><ele>184.25</ele><time>2026-04-08T11:13:41.129Z</time></trkpt><trkpt lat="46.1535295" lon="13.7444438"><ele>184.5</ele><time>2026-04-08T11:13:42.126Z</time></trkpt><trkpt lat="46.1535728" lon="13.7446435"><ele>184.75</ele><time>2026-04-08T11:13:43.114Z</time></trkpt><trkpt lat="46.1536332" lon="13.7448535"><ele>185.0</ele><time>2026-04-08T11:13:44.123Z</time></trkpt><trkpt lat="46.1537082" lon="13.745083"><ele>188.66666666666666</ele><time>2026-04-08T11:13:45.119Z</time></trkpt><trkpt lat="46.1537863" lon="13.7453257"><ele>192.33333333333331</ele><time>2026-04-08T11:13:46.119Z</time></trkpt><trkpt lat="46.1538727" lon="13.745577"><ele>196.0</ele><time>2026-04-08T11:13:47.129Z</time></trkpt><trkpt lat="46.153961" lon="13.7458258"><ele>188.0</ele><time>2026-04-08T11:13:48.137Z</time></trkpt><trkpt lat="46.1540475" lon="13.7460641"><ele>180.0</ele><time>2026-04-08T11:13:49.121Z</time></trkpt><trkpt lat="46.1541343" lon="13.7462792"><ele>172.0</ele><time>2026-04-08T11:13:50.128Z</time></trkpt><trkpt lat="46.1542273" lon="13.7464756"><ele>172.0</ele><time>2026-04-08T11:13:51.112Z</time></trkpt><trkpt lat="46.1543303" lon="13.7466506"><ele>172.0</ele><time>2026-04-08T11:13:52.123Z</time></trkpt><trkpt lat="46.1544529" lon="13.7467932"><ele>172.0</ele><time>2026-04-08T11:13:53.116Z</time></trkpt><trkpt lat="46.1545977" lon="13.7469049"><ele>169.33333333333334</ele><time>2026-04-08T11:13:54.118Z</time></trkpt><trkpt lat="46.1547494" lon="13.7469807"><ele>166.66666666666666</ele><time>2026-04-08T11:13:55.145Z</time></trkpt><trkpt lat="46.1548924" lon="13.7470516"><ele>164.0</ele><time>2026-04-08T11:13:56.121Z</time></trkpt><trkpt lat="46.1550335" lon="13.7471198"><ele>164.0</ele><time>2026-04-08T11:13:57.128Z</time></trkpt><trkpt lat="46.1551705" lon="13.747197"><ele>164.0</ele><time>2026-04-08T11:13:58.121Z</time></trkpt><trkpt lat="46.1553159" lon="13.7472707"><ele>164.0</ele><time>2026-04-08T11:13:59.12Z</time></trkpt><trkpt lat="46.1554587" lon="13.7473458"><ele>164.0</ele><time>2026-04-08T11:14:00.128Z</time></trkpt><trkpt lat="46.1556005" lon="13.7474119"><ele>164.0</ele><time>2026-04-08T11:14:01.116Z</time></trkpt><trkpt lat="46.1557507" lon="13.7474622"><ele>164.0</ele><time>2026-04-08T11:14:02.116Z</time></trkpt><trkpt lat="46.1558958" lon="13.7475103"><ele>163.5</ele><time>2026-04-08T11:14:03.117Z</time></trkpt><trkpt lat="46.1560324" lon="13.7475671"><ele>163.0</ele><time>2026-04-08T11:14:04.126Z</time></trkpt><trkpt lat="46.1561733" lon="13.7476194"><ele>162.5</ele><time>2026-04-08T11:14:05.126Z</time></trkpt><trkpt lat="46.1563185" lon="13.747675"><ele>162.0</ele><time>2026-04-08T11:14:06.123Z</time></trkpt><trkpt lat="46.1564684" lon="13.747731"><ele>161.0</ele><time>2026-04-08T11:14:07.121Z</time></trkpt><trkpt lat="46.1566199" lon="13.747788"><ele>160.0</ele><time>2026-04-08T11:14:08.124Z</time></trkpt><trkpt lat="46.1567705" lon="13.7478482"><ele>159.0</ele><time>2026-04-08T11:14:09.132Z</time></trkpt><trkpt lat="46.1569191" lon="13.7479083"><ele>159.0</ele><time>2026-04-08T11:14:10.123Z</time></trkpt><trkpt lat="46.1570652" lon="13.7479663"><ele>159.0</ele><time>2026-04-08T11:14:11.123Z</time></trkpt><trkpt lat="46.1572131" lon="13.7480308"><ele>159.0</ele><time>2026-04-08T11:14:12.118Z</time></trkpt><trkpt lat="46.1573636" lon="13.7480965"><ele>158.0</ele><time>2026-04-08T11:14:13.133Z</time></trkpt><trkpt lat="46.1575167" lon="13.7481586"><ele>157.0</ele><time>2026-04-08T11:14:14.127Z</time></trkpt><trkpt lat="46.1576676" lon="13.7482186"><ele>156.0</ele><time>2026-04-08T11:14:15.118Z</time></trkpt><trkpt lat="46.1578162" lon="13.7482789"><ele>156.0</ele><time>2026-04-08T11:14:16.122Z</time></trkpt><trkpt lat="46.157963" lon="13.7483363"><ele>156.0</ele><time>2026-04-08T11:14:17.124Z</time></trkpt><trkpt lat="46.1581111" lon="13.7483961"><ele>156.0</ele><time>2026-04-08T11:14:18.121Z</time></trkpt><trkpt lat="46.1582566" lon="13.7484571"><ele>156.25</ele><time>2026-04-08T11:14:19.126Z</time></trkpt><trkpt lat="46.1584024" lon="13.7485173"><ele>156.5</ele><time>2026-04-08T11:14:20.124Z</time></trkpt><trkpt lat="46.1585456" lon="13.7485769"><ele>156.75</ele><time>2026-04-08T11:14:21.116Z</time></trkpt><trkpt lat="46.1586866" lon="13.7486375"><ele>157.0</ele><time>2026-04-08T11:14:22.138Z</time></trkpt><trkpt lat="46.1588268" lon="13.7486988"><ele>158.0</ele><time>2026-04-08T11:14:23.118Z</time></trkpt><trkpt lat="46.1589709" lon="13.7487566"><ele>159.0</ele><time>2026-04-08T11:14:24.122Z</time></trkpt><trkpt lat="46.1591126" lon="13.7488121"><ele>160.0</ele><time>2026-04-08T11:14:25.122Z</time></trkpt><trkpt lat="46.1592547" lon="13.7488719"><ele>161.0</ele><time>2026-04-08T11:14:26.122Z</time></trkpt><trkpt lat="46.1593961" lon="13.7489322"><ele>161.66666666666666</ele><time>2026-04-08T11:14:27.123Z</time></trkpt><trkpt lat="46.1595355" lon="13.7489917"><ele>162.33333333333334</ele><time>2026-04-08T11:14:28.124Z</time></trkpt><trkpt lat="46.1596798" lon="13.7490513"><ele>163.0</ele><time>2026-04-08T11:14:29.123Z</time></trkpt><trkpt lat="46.1598294" lon="13.7491215"><ele>162.66666666666669</ele><time>2026-04-08T11:14:30.115Z</time></trkpt><trkpt lat="46.1599817" lon="13.7491919"><ele>162.33333333333334</ele><time>2026-04-08T11:14:31.125Z</time></trkpt><trkpt lat="46.1601393" lon="13.749257"><ele>162.0</ele><time>2026-04-08T11:14:32.136Z</time></trkpt><trkpt lat="46.160297" lon="13.749323"><ele>165.0</ele><time>2026-04-08T11:14:33.121Z</time></trkpt><trkpt lat="46.1604552" lon="13.7493878"><ele>168.0</ele><time>2026-04-08T11:14:34.122Z</time></trkpt><trkpt lat="46.1606126" lon="13.7494553"><ele>171.0</ele><time>2026-04-08T11:14:35.145Z</time></trkpt><trkpt lat="46.160768" lon="13.7495218"><ele>171.0</ele><time>2026-04-08T11:14:36.128Z</time></trkpt><trkpt lat="46.1609221" lon="13.7495852"><ele>171.0</ele><time>2026-04-08T11:14:37.126Z</time></trkpt><trkpt lat="46.1610781" lon="13.7496529"><ele>171.0</ele><time>2026-04-08T11:14:38.122Z</time></trkpt><trkpt lat="46.1612289" lon="13.7497319"><ele>171.0</ele><time>2026-04-08T11:14:39.125Z</time></trkpt><trkpt lat="46.1613785" lon="13.7498325"><ele>171.0</ele><time>2026-04-08T11:14:40.125Z</time></trkpt><trkpt lat="46.1616896" lon="13.7500882"><ele>174.0</ele><time>2026-04-08T11:14:42.121Z</time></trkpt><trkpt lat="46.1618483" lon="13.7502515"><ele>177.0</ele><time>2026-04-08T11:14:43.132Z</time></trkpt><trkpt lat="46.1620086" lon="13.7504338"><ele>180.0</ele><time>2026-04-08T11:14:44.125Z</time></trkpt><trkpt lat="46.1621661" lon="13.7506377"><ele>180.0</ele><time>2026-04-08T11:14:45.123Z</time></trkpt><trkpt lat="46.1623182" lon="13.750854"><ele>180.0</ele><time>2026-04-08T11:14:46.121Z</time></trkpt><trkpt lat="46.1624641" lon="13.751073"><ele>180.0</ele><time>2026-04-08T11:14:47.127Z</time></trkpt><trkpt lat="46.1627462" lon="13.7514638"><ele>181.33333333333334</ele><time>2026-04-08T11:14:49.118Z</time></trkpt><trkpt lat="46.1628744" lon="13.7516404"><ele>182.66666666666669</ele><time>2026-04-08T11:14:50.118Z</time></trkpt><trkpt lat="46.1629892" lon="13.7518152"><ele>184.0</ele><time>2026-04-08T11:14:51.136Z</time></trkpt><trkpt lat="46.1630913" lon="13.7519999"><ele>186.0</ele><time>2026-04-08T11:14:52.14Z</time></trkpt><trkpt lat="46.1631643" lon="13.7522078"><ele>188.0</ele><time>2026-04-08T11:14:53.131Z</time></trkpt><trkpt lat="46.1632292" lon="13.7524112"><ele>190.0</ele><time>2026-04-08T11:14:54.123Z</time></trkpt><trkpt lat="46.1633101" lon="13.7526011"><ele>308.0</ele><time>2026-04-08T11:14:55.118Z</time></trkpt><trkpt lat="46.163862" lon="13.7530476"><ele>308.0</ele><time>2026-04-08T11:14:59.178Z</time></trkpt><trkpt lat="46.1640285" lon="13.7530865"><ele>308.0</ele><time>2026-04-08T11:15:00.123Z</time></trkpt><trkpt lat="46.1642102" lon="13.7531828"><ele>308.0</ele><time>2026-04-08T11:15:01.122Z</time></trkpt><trkpt lat="46.1643841" lon="13.7532243"><ele>272.6666666666667</ele><time>2026-04-08T11:15:02.143Z</time></trkpt><trkpt lat="46.1645493" lon="13.7532294"><ele>237.33333333333331</ele><time>2026-04-08T11:15:03.128Z</time></trkpt><trkpt lat="46.164732" lon="13.7532876"><ele>202.0</ele><time>2026-04-08T11:15:04.125Z</time></trkpt><trkpt lat="46.1649141" lon="13.7533598"><ele>203.33333333333331</ele><time>2026-04-08T11:15:05.12Z</time></trkpt><trkpt lat="46.16509" lon="13.7534509"><ele>204.66666666666669</ele><time>2026-04-08T11:15:06.114Z</time></trkpt><trkpt lat="46.1652671" lon="13.7535731"><ele>206.0</ele><time>2026-04-08T11:15:07.129Z</time></trkpt><trkpt lat="46.1654396" lon="13.7537264"><ele>206.0</ele><time>2026-04-08T11:15:08.12Z</time></trkpt><trkpt lat="46.165607" lon="13.7539103"><ele>206.0</ele><time>2026-04-08T11:15:09.12Z</time></trkpt><trkpt lat="46.1657725" lon="13.7540933"><ele>206.0</ele><time>2026-04-08T11:15:10.126Z</time></trkpt><trkpt lat="46.1659351" lon="13.7542951"><ele>202.33333333333334</ele><time>2026-04-08T11:15:11.133Z</time></trkpt><trkpt lat="46.1661052" lon="13.7544988"><ele>198.66666666666669</ele><time>2026-04-08T11:15:12.124Z</time></trkpt><trkpt lat="46.1662775" lon="13.7546826"><ele>195.0</ele><time>2026-04-08T11:15:13.125Z</time></trkpt><trkpt lat="46.1664539" lon="13.7548345"><ele>185.0</ele><time>2026-04-08T11:15:14.121Z</time></trkpt><trkpt lat="46.1666308" lon="13.7549492"><ele>175.0</ele><time>2026-04-08T11:15:15.133Z</time></trkpt><trkpt lat="46.1668134" lon="13.7550033"><ele>165.0</ele><time>2026-04-08T11:15:16.129Z</time></trkpt><trkpt lat="46.1670157" lon="13.7550152"><ele>165.0</ele><time>2026-04-08T11:15:17.12Z</time></trkpt><trkpt lat="46.1672348" lon="13.7549987"><ele>165.0</ele><time>2026-04-08T11:15:18.119Z</time></trkpt><trkpt lat="46.1674624" lon="13.7549523"><ele>165.0</ele><time>2026-04-08T11:15:19.125Z</time></trkpt><trkpt lat="46.1676925" lon="13.7548927"><ele>162.5</ele><time>2026-04-08T11:15:20.12Z</time></trkpt><trkpt lat="46.1679199" lon="13.7548416"><ele>160.0</ele><time>2026-04-08T11:15:21.149Z</time></trkpt><trkpt lat="46.168157" lon="13.754795"><ele>161.0</ele><time>2026-04-08T11:15:22.146Z</time></trkpt><trkpt lat="46.1683913" lon="13.7547485"><ele>162.0</ele><time>2026-04-08T11:15:23.147Z</time></trkpt><trkpt lat="46.1686246" lon="13.7547068"><ele>162.0</ele><time>2026-04-08T11:15:24.125Z</time></trkpt><trkpt lat="46.1688578" lon="13.7546692"><ele>162.0</ele><time>2026-04-08T11:15:25.144Z</time></trkpt><trkpt lat="46.169088" lon="13.7546188"><ele>166.0</ele><time>2026-04-08T11:15:26.13Z</time></trkpt><trkpt lat="46.169321" lon="13.7545573"><ele>170.0</ele><time>2026-04-08T11:15:27.12Z</time></trkpt><trkpt lat="46.1695489" lon="13.7544743"><ele>167.5</ele><time>2026-04-08T11:15:28.133Z</time></trkpt><trkpt lat="46.1697671" lon="13.754361"><ele>165.0</ele><time>2026-04-08T11:15:29.119Z</time></trkpt><trkpt lat="46.1701497" lon="13.7540315"><ele>165.0</ele><time>2026-04-08T11:15:31.125Z</time></trkpt><trkpt lat="46.1704526" lon="13.7535647"><ele>165.0</ele><time>2026-04-08T11:15:33.114Z</time></trkpt><trkpt lat="46.1705735" lon="13.7532983"><ele>166.0</ele><time>2026-04-08T11:15:34.13Z</time></trkpt><trkpt lat="46.1706653" lon="13.753016"><ele>167.0</ele><time>2026-04-08T11:15:35.139Z</time></trkpt><trkpt lat="46.1707339" lon="13.7527107"><ele>168.0</ele><time>2026-04-08T11:15:36.118Z</time></trkpt><trkpt lat="46.1707664" lon="13.752399"><ele>168.0</ele><time>2026-04-08T11:15:37.123Z</time></trkpt><trkpt lat="46.1707654" lon="13.7520819"><ele>168.0</ele><time>2026-04-08T11:15:38.123Z</time></trkpt><trkpt lat="46.1707388" lon="13.7517664"><ele>168.0</ele><time>2026-04-08T11:15:39.122Z</time></trkpt><trkpt lat="46.170695" lon="13.7514555"><ele>163.33333333333334</ele><time>2026-04-08T11:15:40.141Z</time></trkpt><trkpt lat="46.1706465" lon="13.7511535"><ele>158.66666666666669</ele><time>2026-04-08T11:15:41.129Z</time></trkpt><trkpt lat="46.1705843" lon="13.7508522"><ele>154.0</ele><time>2026-04-08T11:15:42.12Z</time></trkpt><trkpt lat="46.1705237" lon="13.7505521"><ele>154.33333333333334</ele><time>2026-04-08T11:15:43.12Z</time></trkpt><trkpt lat="46.1704669" lon="13.7502636"><ele>154.66666666666666</ele><time>2026-04-08T11:15:44.125Z</time></trkpt><trkpt lat="46.1704181" lon="13.7499851"><ele>155.0</ele><time>2026-04-08T11:15:45.133Z</time></trkpt><trkpt lat="46.1703756" lon="13.7497015"><ele>155.0</ele><time>2026-04-08T11:15:46.133Z</time></trkpt><trkpt lat="46.1703508" lon="13.7494164"><ele>155.0</ele><time>2026-04-08T11:15:47.139Z</time></trkpt><trkpt lat="46.1703375" lon="13.749129"><ele>155.0</ele><time>2026-04-08T11:15:48.122Z</time></trkpt><trkpt lat="46.170338" lon="13.7488372"><ele>156.33333333333331</ele><time>2026-04-08T11:15:49.124Z</time></trkpt><trkpt lat="46.1703457" lon="13.748542"><ele>157.66666666666666</ele><time>2026-04-08T11:15:50.143Z</time></trkpt><trkpt lat="46.1703602" lon="13.7482421"><ele>159.0</ele><time>2026-04-08T11:15:51.131Z</time></trkpt><trkpt lat="46.1703842" lon="13.7479444"><ele>158.33333333333334</ele><time>2026-04-08T11:15:52.13Z</time></trkpt><trkpt lat="46.1704161" lon="13.7476487"><ele>157.66666666666669</ele><time>2026-04-08T11:15:53.139Z</time></trkpt><trkpt lat="46.1704581" lon="13.7473615"><ele>157.0</ele><time>2026-04-08T11:15:54.16Z</time></trkpt><trkpt lat="46.1705066" lon="13.7470678"><ele>157.33333333333334</ele><time>2026-04-08T11:15:55.137Z</time></trkpt><trkpt lat="46.1705663" lon="13.746783"><ele>157.66666666666666</ele><time>2026-04-08T11:15:56.122Z</time></trkpt><trkpt lat="46.1706396" lon="13.7465089"><ele>158.0</ele><time>2026-04-08T11:15:57.125Z</time></trkpt><trkpt lat="46.1707237" lon="13.7462456"><ele>158.66666666666666</ele><time>2026-04-08T11:15:58.126Z</time></trkpt><trkpt lat="46.1708264" lon="13.745995"><ele>159.33333333333334</ele><time>2026-04-08T11:15:59.128Z</time></trkpt><trkpt lat="46.1709435" lon="13.7457608"><ele>160.0</ele><time>2026-04-08T11:16:00.14Z</time></trkpt><trkpt lat="46.1710779" lon="13.7455431"><ele>160.0</ele><time>2026-04-08T11:16:01.133Z</time></trkpt><trkpt lat="46.1712164" lon="13.7453416"><ele>160.0</ele><time>2026-04-08T11:16:02.13Z</time></trkpt><trkpt lat="46.171363" lon="13.7451629"><ele>160.0</ele><time>2026-04-08T11:16:03.145Z</time></trkpt><trkpt lat="46.1715188" lon="13.744986"><ele>160.66666666666669</ele><time>2026-04-08T11:16:04.126Z</time></trkpt><trkpt lat="46.1716735" lon="13.7448176"><ele>161.33333333333334</ele><time>2026-04-08T11:16:05.124Z</time></trkpt><trkpt lat="46.1718298" lon="13.7446478"><ele>162.0</ele><time>2026-04-08T11:16:06.125Z</time></trkpt><trkpt lat="46.1719885" lon="13.7444763"><ele>162.66666666666666</ele><time>2026-04-08T11:16:07.123Z</time></trkpt><trkpt lat="46.1721482" lon="13.7443018"><ele>163.33333333333331</ele><time>2026-04-08T11:16:08.12Z</time></trkpt><trkpt lat="46.1723045" lon="13.7441278"><ele>164.0</ele><time>2026-04-08T11:16:09.129Z</time></trkpt><trkpt lat="46.1724607" lon="13.7439476"><ele>164.66666666666666</ele><time>2026-04-08T11:16:10.138Z</time></trkpt><trkpt lat="46.1726114" lon="13.7437684"><ele>165.33333333333334</ele><time>2026-04-08T11:16:11.127Z</time></trkpt><trkpt lat="46.1727669" lon="13.7435954"><ele>166.0</ele><time>2026-04-08T11:16:12.135Z</time></trkpt><trkpt lat="46.1729259" lon="13.7434211"><ele>166.0</ele><time>2026-04-08T11:16:13.118Z</time></trkpt><trkpt lat="46.1730907" lon="13.7432506"><ele>166.0</ele><time>2026-04-08T11:16:14.134Z</time></trkpt><trkpt lat="46.1732537" lon="13.7430815"><ele>166.0</ele><time>2026-04-08T11:16:15.121Z</time></trkpt><trkpt lat="46.1734175" lon="13.7429162"><ele>166.0</ele><time>2026-04-08T11:16:16.119Z</time></trkpt><trkpt lat="46.1735827" lon="13.7427517"><ele>166.0</ele><time>2026-04-08T11:16:17.126Z</time></trkpt><trkpt lat="46.1737504" lon="13.7425896"><ele>166.0</ele><time>2026-04-08T11:16:18.124Z</time></trkpt><trkpt lat="46.1739191" lon="13.7424266"><ele>165.33333333333334</ele><time>2026-04-08T11:16:19.13Z</time></trkpt><trkpt lat="46.1740882" lon="13.7422622"><ele>164.66666666666666</ele><time>2026-04-08T11:16:20.142Z</time></trkpt><trkpt lat="46.1742593" lon="13.7421011"><ele>164.0</ele><time>2026-04-08T11:16:21.128Z</time></trkpt><trkpt lat="46.1744335" lon="13.7419432"><ele>163.66666666666666</ele><time>2026-04-08T11:16:22.135Z</time></trkpt><trkpt lat="46.1746076" lon="13.7417861"><ele>163.33333333333334</ele><time>2026-04-08T11:16:23.14Z</time></trkpt><trkpt lat="46.1747833" lon="13.7416288"><ele>163.0</ele><time>2026-04-08T11:16:24.127Z</time></trkpt><trkpt lat="46.1749548" lon="13.7414705"><ele>163.33333333333334</ele><time>2026-04-08T11:16:25.128Z</time></trkpt><trkpt lat="46.1751204" lon="13.7413136"><ele>163.66666666666666</ele><time>2026-04-08T11:16:26.124Z</time></trkpt><trkpt lat="46.1752834" lon="13.7411636"><ele>164.0</ele><time>2026-04-08T11:16:27.135Z</time></trkpt><trkpt lat="46.1754491" lon="13.741022"><ele>164.0</ele><time>2026-04-08T11:16:28.125Z</time></trkpt><trkpt lat="46.1756128" lon="13.7409007"><ele>164.0</ele><time>2026-04-08T11:16:29.15Z</time></trkpt><trkpt lat="46.1757685" lon="13.7408128"><ele>164.0</ele><time>2026-04-08T11:16:30.13Z</time></trkpt><trkpt lat="46.1759083" lon="13.74075"><ele>164.39999999999998</ele><time>2026-04-08T11:16:31.129Z</time></trkpt><trkpt lat="46.1760339" lon="13.7407247"><ele>164.8</ele><time>2026-04-08T11:16:32.136Z</time></trkpt><trkpt lat="46.1761507" lon="13.740746"><ele>165.2</ele><time>2026-04-08T11:16:33.143Z</time></trkpt><trkpt lat="46.1762549" lon="13.7407514"><ele>165.60000000000002</ele><time>2026-04-08T11:16:34.128Z</time></trkpt><trkpt lat="46.1763393" lon="13.740698"><ele>166.0</ele><time>2026-04-08T11:16:35.125Z</time></trkpt><trkpt lat="46.1764221" lon="13.7405817"><ele>166.25</ele><time>2026-04-08T11:16:36.135Z</time></trkpt><trkpt lat="46.1765262" lon="13.7404857"><ele>166.5</ele><time>2026-04-08T11:16:37.133Z</time></trkpt><trkpt lat="46.1766695" lon="13.7404251"><ele>166.75</ele><time>2026-04-08T11:16:38.139Z</time></trkpt><trkpt lat="46.1768376" lon="13.7403678"><ele>167.0</ele><time>2026-04-08T11:16:39.148Z</time></trkpt><trkpt lat="46.1770139" lon="13.7403166"><ele>167.0</ele><time>2026-04-08T11:16:40.123Z</time></trkpt><trkpt lat="46.1772008" lon="13.7402622"><ele>167.0</ele><time>2026-04-08T11:16:41.129Z</time></trkpt><trkpt lat="46.1773897" lon="13.7402093"><ele>167.0</ele><time>2026-04-08T11:16:42.134Z</time></trkpt><trkpt lat="46.1775865" lon="13.7401621"><ele>167.33333333333331</ele><time>2026-04-08T11:16:43.121Z</time></trkpt><trkpt lat="46.1777889" lon="13.7401148"><ele>167.66666666666666</ele><time>2026-04-08T11:16:44.136Z</time></trkpt><trkpt lat="46.1779995" lon="13.7400696"><ele>168.0</ele><time>2026-04-08T11:16:45.133Z</time></trkpt><trkpt lat="46.1782046" lon="13.7400121"><ele>168.0</ele><time>2026-04-08T11:16:46.125Z</time></trkpt><trkpt lat="46.1784045" lon="13.7399604"><ele>168.0</ele><time>2026-04-08T11:16:47.132Z</time></trkpt><trkpt lat="46.1786022" lon="13.7399079"><ele>168.0</ele><time>2026-04-08T11:16:48.148Z</time></trkpt><trkpt lat="46.178798" lon="13.7398396"><ele>168.0</ele><time>2026-04-08T11:16:49.129Z</time></trkpt><trkpt lat="46.1789841" lon="13.7397664"><ele>168.0</ele><time>2026-04-08T11:16:50.12Z</time></trkpt><trkpt lat="46.1791552" lon="13.7396867"><ele>168.0</ele><time>2026-04-08T11:16:51.119Z</time></trkpt><trkpt lat="46.1793193" lon="13.7396126"><ele>170.33333333333334</ele><time>2026-04-08T11:16:52.154Z</time></trkpt><trkpt lat="46.179485" lon="13.7395587"><ele>172.66666666666669</ele><time>2026-04-08T11:16:53.147Z</time></trkpt><trkpt lat="46.1796464" lon="13.7395255"><ele>175.0</ele><time>2026-04-08T11:16:54.128Z</time></trkpt><trkpt lat="46.1797941" lon="13.7394993"><ele>176.25</ele><time>2026-04-08T11:16:55.124Z</time></trkpt><trkpt lat="46.1799257" lon="13.7394845"><ele>177.5</ele><time>2026-04-08T11:16:56.141Z</time></trkpt><trkpt lat="46.1800413" lon="13.7394762"><ele>178.75</ele><time>2026-04-08T11:16:57.123Z</time></trkpt><trkpt lat="46.1801498" lon="13.7394853"><ele>180.0</ele><time>2026-04-08T11:16:58.134Z</time></trkpt><trkpt lat="46.1802501" lon="13.7395037"><ele>180.0</ele><time>2026-04-08T11:16:59.127Z</time></trkpt><trkpt lat="46.1803447" lon="13.7395247"><ele>180.0</ele><time>2026-04-08T11:17:00.138Z</time></trkpt><trkpt lat="46.1804323" lon="13.739556"><ele>180.0</ele><time>2026-04-08T11:17:01.135Z</time></trkpt><trkpt lat="46.1805093" lon="13.7396168"><ele>180.0</ele><time>2026-04-08T11:17:02.124Z</time></trkpt><trkpt lat="46.1805734" lon="13.7397163"><ele>180.0</ele><time>2026-04-08T11:17:03.132Z</time></trkpt><trkpt lat="46.1806182" lon="13.739851"><ele>180.0</ele><time>2026-04-08T11:17:04.13Z</time></trkpt><trkpt lat="46.1806278" lon="13.7400004"><ele>180.0</ele><time>2026-04-08T11:17:05.132Z</time></trkpt><trkpt lat="46.180636" lon="13.7401535"><ele>180.0</ele><time>2026-04-08T11:17:06.133Z</time></trkpt><trkpt lat="46.1806724" lon="13.7402878"><ele>180.0</ele><time>2026-04-08T11:17:07.131Z</time></trkpt><trkpt lat="46.1807227" lon="13.740411"><ele>180.0</ele><time>2026-04-08T11:17:08.145Z</time></trkpt><trkpt lat="46.1807789" lon="13.7405192"><ele>181.8</ele><time>2026-04-08T11:17:09.13Z</time></trkpt><trkpt lat="46.1808469" lon="13.7405937"><ele>183.6</ele><time>2026-04-08T11:17:10.128Z</time></trkpt><trkpt lat="46.1809347" lon="13.7406203"><ele>185.39999999999998</ele><time>2026-04-08T11:17:11.142Z</time></trkpt><trkpt lat="46.1810314" lon="13.7406052"><ele>187.2</ele><time>2026-04-08T11:17:12.126Z</time></trkpt><trkpt lat="46.1811309" lon="13.7405736"><ele>189.0</ele><time>2026-04-08T11:17:13.127Z</time></trkpt><trkpt lat="46.1812311" lon="13.7405436"><ele>189.0</ele><time>2026-04-08T11:17:14.129Z</time></trkpt><trkpt lat="46.1813255" lon="13.7405183"><ele>189.0</ele><time>2026-04-08T11:17:15.141Z</time></trkpt><trkpt lat="46.1814132" lon="13.7404879"><ele>189.0</ele><time>2026-04-08T11:17:16.14Z</time></trkpt><trkpt lat="46.1815041" lon="13.740468"><ele>189.0</ele><time>2026-04-08T11:17:17.128Z</time></trkpt><trkpt lat="46.1815923" lon="13.7404459"><ele>189.0</ele><time>2026-04-08T11:17:18.128Z</time></trkpt><trkpt lat="46.1816735" lon="13.7404201"><ele>189.5</ele><time>2026-04-08T11:17:19.126Z</time></trkpt><trkpt lat="46.1817464" lon="13.7403905"><ele>190.0</ele><time>2026-04-08T11:17:20.134Z</time></trkpt><trkpt lat="46.1818165" lon="13.7403677"><ele>190.5</ele><time>2026-04-08T11:17:21.146Z</time></trkpt><trkpt lat="46.1818895" lon="13.7403628"><ele>191.0</ele><time>2026-04-08T11:17:22.137Z</time></trkpt><trkpt lat="46.1819698" lon="13.7403572"><ele>191.5</ele><time>2026-04-08T11:17:23.157Z</time></trkpt><trkpt lat="46.1820568" lon="13.7403492"><ele>192.0</ele><time>2026-04-08T11:17:24.135Z</time></trkpt><trkpt lat="46.1821509" lon="13.7403612"><ele>192.0</ele><time>2026-04-08T11:17:25.146Z</time></trkpt><trkpt lat="46.1822586" lon="13.7404057"><ele>192.0</ele><time>2026-04-08T11:17:26.135Z</time></trkpt><trkpt lat="46.1823754" lon="13.7404808"><ele>192.0</ele><time>2026-04-08T11:17:27.133Z</time></trkpt><trkpt lat="46.1824995" lon="13.7405705"><ele>192.0</ele><time>2026-04-08T11:17:28.134Z</time></trkpt><trkpt lat="46.1826292" lon="13.7406654"><ele>191.66666666666666</ele><time>2026-04-08T11:17:29.133Z</time></trkpt><trkpt lat="46.1827632" lon="13.7407648"><ele>191.33333333333331</ele><time>2026-04-08T11:17:30.129Z</time></trkpt><trkpt lat="46.1828938" lon="13.7408547"><ele>191.0</ele><time>2026-04-08T11:17:31.135Z</time></trkpt><trkpt lat="46.1831468" lon="13.7409533"><ele>189.60000000000002</ele><time>2026-04-08T11:17:33.14Z</time></trkpt><trkpt lat="46.1832643" lon="13.740956"><ele>188.2</ele><time>2026-04-08T11:17:34.131Z</time></trkpt><trkpt lat="46.1833753" lon="13.7409202"><ele>186.8</ele><time>2026-04-08T11:17:35.137Z</time></trkpt><trkpt lat="46.1834772" lon="13.7408819"><ele>185.39999999999998</ele><time>2026-04-08T11:17:36.129Z</time></trkpt><trkpt lat="46.1835759" lon="13.7408633"><ele>184.0</ele><time>2026-04-08T11:17:37.124Z</time></trkpt><trkpt lat="46.1836658" lon="13.7408769"><ele>184.0</ele><time>2026-04-08T11:17:38.125Z</time></trkpt><trkpt lat="46.1837431" lon="13.7408931"><ele>184.0</ele><time>2026-04-08T11:17:39.132Z</time></trkpt><trkpt lat="46.1838179" lon="13.7409001"><ele>184.0</ele><time>2026-04-08T11:17:40.135Z</time></trkpt><trkpt lat="46.1838875" lon="13.740897"><ele>184.0</ele><time>2026-04-08T11:17:41.127Z</time></trkpt><trkpt lat="46.1839522" lon="13.7408969"><ele>184.0</ele><time>2026-04-08T11:17:42.126Z</time></trkpt><trkpt lat="46.1840647" lon="13.7408403"><ele>184.0</ele><time>2026-04-08T11:17:44.133Z</time></trkpt><trkpt lat="46.1841308" lon="13.7406958"><ele>184.5</ele><time>2026-04-08T11:17:46.125Z</time></trkpt><trkpt lat="46.1841306" lon="13.7405893"><ele>185.0</ele><time>2026-04-08T11:17:47.135Z</time></trkpt><trkpt lat="46.184124" lon="13.7404786"><ele>185.5</ele><time>2026-04-08T11:17:48.123Z</time></trkpt><trkpt lat="46.1841077" lon="13.740355"><ele>186.0</ele><time>2026-04-08T11:17:49.131Z</time></trkpt><trkpt lat="46.1841017" lon="13.7402507"><ele>186.5</ele><time>2026-04-08T11:17:50.138Z</time></trkpt><trkpt lat="46.1840904" lon="13.7401259"><ele>187.0</ele><time>2026-04-08T11:17:51.144Z</time></trkpt><trkpt lat="46.1840825" lon="13.7399995"><ele>185.5</ele><time>2026-04-08T11:17:52.127Z</time></trkpt><trkpt lat="46.1840794" lon="13.7398759"><ele>184.0</ele><time>2026-04-08T11:17:53.133Z</time></trkpt><trkpt lat="46.1840885" lon="13.7397548"><ele>182.5</ele><time>2026-04-08T11:17:54.141Z</time></trkpt><trkpt lat="46.1841076" lon="13.7396355"><ele>181.0</ele><time>2026-04-08T11:17:55.14Z</time></trkpt><trkpt lat="46.1841356" lon="13.7395252"><ele>179.5</ele><time>2026-04-08T11:17:56.15Z</time></trkpt><trkpt lat="46.1841688" lon="13.7394242"><ele>178.0</ele><time>2026-04-08T11:17:57.125Z</time></trkpt><trkpt lat="46.1842047" lon="13.7393295"><ele>178.0</ele><time>2026-04-08T11:17:58.125Z</time></trkpt><trkpt lat="46.1842468" lon="13.7392365"><ele>178.0</ele><time>2026-04-08T11:17:59.148Z</time></trkpt><trkpt lat="46.1842917" lon="13.739147"><ele>178.0</ele><time>2026-04-08T11:18:00.134Z</time></trkpt><trkpt lat="46.1843394" lon="13.7390664"><ele>178.0</ele><time>2026-04-08T11:18:01.133Z</time></trkpt><trkpt lat="46.1843938" lon="13.7389911"><ele>178.0</ele><time>2026-04-08T11:18:02.138Z</time></trkpt><trkpt lat="46.1844536" lon="13.7389196"><ele>178.0</ele><time>2026-04-08T11:18:03.132Z</time></trkpt><trkpt lat="46.1845202" lon="13.7388567"><ele>178.0</ele><time>2026-04-08T11:18:04.136Z</time></trkpt><trkpt lat="46.184587" lon="13.7387865"><ele>178.0</ele><time>2026-04-08T11:18:05.135Z</time></trkpt><trkpt lat="46.1846509" lon="13.7387049"><ele>178.0</ele><time>2026-04-08T11:18:06.127Z</time></trkpt><trkpt lat="46.184714" lon="13.738624"><ele>178.0</ele><time>2026-04-08T11:18:07.141Z</time></trkpt><trkpt lat="46.1847712" lon="13.7385303"><ele>178.0</ele><time>2026-04-08T11:18:08.133Z</time></trkpt><trkpt lat="46.1848195" lon="13.7384184"><ele>178.0</ele><time>2026-04-08T11:18:09.128Z</time></trkpt><trkpt lat="46.1848469" lon="13.7383045"><ele>178.8</ele><time>2026-04-08T11:18:10.143Z</time></trkpt><trkpt lat="46.1848342" lon="13.7381976"><ele>179.60000000000002</ele><time>2026-04-08T11:18:11.139Z</time></trkpt><trkpt lat="46.1847859" lon="13.7380923"><ele>180.39999999999998</ele><time>2026-04-08T11:18:12.133Z</time></trkpt><trkpt lat="46.1847097" lon="13.7379986"><ele>181.2</ele><time>2026-04-08T11:18:13.141Z</time></trkpt><trkpt lat="46.1846325" lon="13.7379135"><ele>182.0</ele><time>2026-04-08T11:18:14.135Z</time></trkpt><trkpt lat="46.1845563" lon="13.7378246"><ele>182.0</ele><time>2026-04-08T11:18:15.128Z</time></trkpt><trkpt lat="46.1844873" lon="13.7377402"><ele>182.0</ele><time>2026-04-08T11:18:16.146Z</time></trkpt><trkpt lat="46.1844214" lon="13.7376388"><ele>182.0</ele><time>2026-04-08T11:18:17.142Z</time></trkpt><trkpt lat="46.1843555" lon="13.7375398"><ele>182.0</ele><time>2026-04-08T11:18:18.138Z</time></trkpt><trkpt lat="46.1842964" lon="13.7374405"><ele>182.0</ele><time>2026-04-08T11:18:19.138Z</time></trkpt><trkpt lat="46.1842323" lon="13.7373418"><ele>181.8</ele><time>2026-04-08T11:18:20.14Z</time></trkpt><trkpt lat="46.1841659" lon="13.7372387"><ele>181.6</ele><time>2026-04-08T11:18:21.138Z</time></trkpt><trkpt lat="46.1841008" lon="13.7371319"><ele>181.4</ele><time>2026-04-08T11:18:22.141Z</time></trkpt><trkpt lat="46.184038" lon="13.7370196"><ele>181.20000000000002</ele><time>2026-04-08T11:18:23.132Z</time></trkpt><trkpt lat="46.1839739" lon="13.7369137"><ele>181.0</ele><time>2026-04-08T11:18:24.134Z</time></trkpt><trkpt lat="46.183911" lon="13.7368093"><ele>181.66666666666669</ele><time>2026-04-08T11:18:25.151Z</time></trkpt><trkpt lat="46.1838471" lon="13.7367031"><ele>182.33333333333334</ele><time>2026-04-08T11:18:26.148Z</time></trkpt><trkpt lat="46.1837884" lon="13.736602"><ele>183.0</ele><time>2026-04-08T11:18:27.141Z</time></trkpt><trkpt lat="46.1837287" lon="13.7365051"><ele>183.66666666666666</ele><time>2026-04-08T11:18:28.128Z</time></trkpt><trkpt lat="46.1836708" lon="13.7364143"><ele>184.33333333333331</ele><time>2026-04-08T11:18:29.143Z</time></trkpt><trkpt lat="46.1836133" lon="13.7363238"><ele>185.0</ele><time>2026-04-08T11:18:30.15Z</time></trkpt><trkpt lat="46.1835566" lon="13.736239"><ele>185.0</ele><time>2026-04-08T11:18:31.14Z</time></trkpt><trkpt lat="46.1834988" lon="13.7361591"><ele>185.0</ele><time>2026-04-08T11:18:32.136Z</time></trkpt><trkpt lat="46.183441" lon="13.7360816"><ele>185.0</ele><time>2026-04-08T11:18:33.132Z</time></trkpt><trkpt lat="46.1833822" lon="13.7360084"><ele>185.0</ele><time>2026-04-08T11:18:34.134Z</time></trkpt><trkpt lat="46.1833241" lon="13.735938"><ele>185.0</ele><time>2026-04-08T11:18:35.142Z</time></trkpt><trkpt lat="46.1832689" lon="13.7358679"><ele>185.0</ele><time>2026-04-08T11:18:36.136Z</time></trkpt><trkpt lat="46.1832195" lon="13.7357897"><ele>185.5</ele><time>2026-04-08T11:18:37.146Z</time></trkpt><trkpt lat="46.1831795" lon="13.7356951"><ele>186.0</ele><time>2026-04-08T11:18:38.132Z</time></trkpt><trkpt lat="46.18315" lon="13.7355889"><ele>186.5</ele><time>2026-04-08T11:18:39.146Z</time></trkpt><trkpt lat="46.1831333" lon="13.7354783"><ele>187.0</ele><time>2026-04-08T11:18:40.138Z</time></trkpt><trkpt lat="46.1831185" lon="13.7353663"><ele>187.5</ele><time>2026-04-08T11:18:41.141Z</time></trkpt><trkpt lat="46.1831068" lon="13.7352537"><ele>188.0</ele><time>2026-04-08T11:18:42.152Z</time></trkpt><trkpt lat="46.183094" lon="13.7351586"><ele>189.16666666666666</ele><time>2026-04-08T11:18:43.13Z</time></trkpt><trkpt lat="46.1830828" lon="13.735065"><ele>190.33333333333331</ele><time>2026-04-08T11:18:44.134Z</time></trkpt><trkpt lat="46.1830739" lon="13.7349699"><ele>191.5</ele><time>2026-04-08T11:18:45.144Z</time></trkpt><trkpt lat="46.1830642" lon="13.7348787"><ele>192.66666666666666</ele><time>2026-04-08T11:18:46.136Z</time></trkpt><trkpt lat="46.183045" lon="13.734716"><ele>193.83333333333334</ele><time>2026-04-08T11:18:48.163Z</time></trkpt><trkpt lat="46.1830327" lon="13.7345336"><ele>195.0</ele><time>2026-04-08T11:18:50.135Z</time></trkpt><trkpt lat="46.1830173" lon="13.7344346"><ele>195.14285714285714</ele><time>2026-04-08T11:18:51.14Z</time></trkpt><trkpt lat="46.1830014" lon="13.7343326"><ele>195.28571428571428</ele><time>2026-04-08T11:18:52.139Z</time></trkpt><trkpt lat="46.1829841" lon="13.7342301"><ele>195.42857142857144</ele><time>2026-04-08T11:18:53.16Z</time></trkpt><trkpt lat="46.18297" lon="13.7341318"><ele>195.57142857142856</ele><time>2026-04-08T11:18:54.145Z</time></trkpt><trkpt lat="46.1829584" lon="13.7340297"><ele>195.71428571428572</ele><time>2026-04-08T11:18:55.144Z</time></trkpt><trkpt lat="46.1829495" lon="13.733932"><ele>195.85714285714286</ele><time>2026-04-08T11:18:56.139Z</time></trkpt><trkpt lat="46.1829356" lon="13.733833"><ele>196.0</ele><time>2026-04-08T11:18:57.15Z</time></trkpt><trkpt lat="46.1829206" lon="13.7337345"><ele>195.99999999999997</ele><time>2026-04-08T11:18:58.141Z</time></trkpt><trkpt lat="46.1829065" lon="13.7336422"><ele>196.0</ele><time>2026-04-08T11:18:59.139Z</time></trkpt><trkpt lat="46.1828772" lon="13.7334911"><ele>196.0</ele><time>2026-04-08T11:19:01.137Z</time></trkpt><trkpt lat="46.1828611" lon="13.733381"><ele>196.0</ele><time>2026-04-08T11:19:03.138Z</time></trkpt><trkpt lat="46.1828455" lon="13.7332546"><ele>195.99999999999997</ele><time>2026-04-08T11:19:05.139Z</time></trkpt><trkpt lat="46.182832" lon="13.733161"><ele>196.0</ele><time>2026-04-08T11:19:06.138Z</time></trkpt><trkpt lat="46.1828146" lon="13.7330489"><ele>195.99999999999997</ele><time>2026-04-08T11:19:07.143Z</time></trkpt><trkpt lat="46.1827988" lon="13.7329383"><ele>196.0</ele><time>2026-04-08T11:19:08.158Z</time></trkpt><trkpt lat="46.1827754" lon="13.7328131"><ele>196.0</ele><time>2026-04-08T11:19:09.134Z</time></trkpt><trkpt lat="46.182753" lon="13.7326879"><ele>196.0</ele><time>2026-04-08T11:19:10.154Z</time></trkpt><trkpt lat="46.1827296" lon="13.7325704"><ele>195.99999999999997</ele><time>2026-04-08T11:19:11.136Z</time></trkpt><trkpt lat="46.1827066" lon="13.73246"><ele>196.0</ele><time>2026-04-08T11:19:12.137Z</time></trkpt><trkpt lat="46.1826821" lon="13.7323501"><ele>195.66666666666666</ele><time>2026-04-08T11:19:13.153Z</time></trkpt><trkpt lat="46.182652" lon="13.7322398"><ele>195.33333333333331</ele><time>2026-04-08T11:19:14.158Z</time></trkpt><trkpt lat="46.1826221" lon="13.7321363"><ele>195.0</ele><time>2026-04-08T11:19:15.134Z</time></trkpt><trkpt lat="46.1825865" lon="13.7320316"><ele>194.66666666666669</ele><time>2026-04-08T11:19:16.139Z</time></trkpt><trkpt lat="46.1825411" lon="13.7319273"><ele>194.33333333333334</ele><time>2026-04-08T11:19:17.138Z</time></trkpt><trkpt lat="46.182495" lon="13.7318225"><ele>194.0</ele><time>2026-04-08T11:19:18.143Z</time></trkpt><trkpt lat="46.1824513" lon="13.7317214"><ele>193.79999999999998</ele><time>2026-04-08T11:19:19.168Z</time></trkpt><trkpt lat="46.1824088" lon="13.7316217"><ele>193.6</ele><time>2026-04-08T11:19:20.163Z</time></trkpt><trkpt lat="46.1823252" lon="13.7314196"><ele>193.4</ele><time>2026-04-08T11:19:22.144Z</time></trkpt><trkpt lat="46.1822793" lon="13.7313173"><ele>193.2</ele><time>2026-04-08T11:19:23.148Z</time></trkpt><trkpt lat="46.1822418" lon="13.7312109"><ele>193.0</ele><time>2026-04-08T11:19:24.15Z</time></trkpt><trkpt lat="46.1822163" lon="13.7310962"><ele>192.4</ele><time>2026-04-08T11:19:25.161Z</time></trkpt><trkpt lat="46.1822258" lon="13.7309513"><ele>191.8</ele><time>2026-04-08T11:19:26.154Z</time></trkpt><trkpt lat="46.1822515" lon="13.7308172"><ele>191.2</ele><time>2026-04-08T11:19:27.143Z</time></trkpt><trkpt lat="46.1822836" lon="13.7306926"><ele>190.6</ele><time>2026-04-08T11:19:28.14Z</time></trkpt><trkpt lat="46.1823253" lon="13.7305735"><ele>190.0</ele><time>2026-04-08T11:19:29.144Z</time></trkpt><trkpt lat="46.1824" lon="13.7304853"><ele>190.0</ele><time>2026-04-08T11:19:30.135Z</time></trkpt><trkpt lat="46.1824981" lon="13.7304497"><ele>190.0</ele><time>2026-04-08T11:19:31.146Z</time></trkpt><trkpt lat="46.182595" lon="13.7304331"><ele>190.0</ele><time>2026-04-08T11:19:32.157Z</time></trkpt><trkpt lat="46.1826949" lon="13.7304209"><ele>190.0</ele><time>2026-04-08T11:19:33.139Z</time></trkpt><trkpt lat="46.182785" lon="13.7303843"><ele>190.0</ele><time>2026-04-08T11:19:34.145Z</time></trkpt><trkpt lat="46.1828615" lon="13.7303113"><ele>187.6</ele><time>2026-04-08T11:19:35.143Z</time></trkpt><trkpt lat="46.1829062" lon="13.7301959"><ele>185.2</ele><time>2026-04-08T11:19:36.139Z</time></trkpt><trkpt lat="46.1828834" lon="13.7300948"><ele>182.8</ele><time>2026-04-08T11:19:37.134Z</time></trkpt><trkpt lat="46.1828085" lon="13.7300189"><ele>180.4</ele><time>2026-04-08T11:19:38.134Z</time></trkpt><trkpt lat="46.1827123" lon="13.7300261"><ele>178.0</ele><time>2026-04-08T11:19:39.159Z</time></trkpt><trkpt lat="46.1826227" lon="13.7300832"><ele>178.0</ele><time>2026-04-08T11:19:40.141Z</time></trkpt><trkpt lat="46.1825305" lon="13.7301435"><ele>178.0</ele><time>2026-04-08T11:19:41.141Z</time></trkpt><trkpt lat="46.1824245" lon="13.730176"><ele>178.0</ele><time>2026-04-08T11:19:42.139Z</time></trkpt><trkpt lat="46.1823086" lon="13.7301574"><ele>178.0</ele><time>2026-04-08T11:19:43.149Z</time></trkpt><trkpt lat="46.1822018" lon="13.730098"><ele>178.0</ele><time>2026-04-08T11:19:44.137Z</time></trkpt><trkpt lat="46.1821047" lon="13.729997"><ele>177.5</ele><time>2026-04-08T11:19:45.143Z</time></trkpt><trkpt lat="46.1820112" lon="13.7298928"><ele>177.0</ele><time>2026-04-08T11:19:46.152Z</time></trkpt><trkpt lat="46.1819248" lon="13.7297773"><ele>176.5</ele><time>2026-04-08T11:19:47.16Z</time></trkpt><trkpt lat="46.1818545" lon="13.7296493"><ele>176.0</ele><time>2026-04-08T11:19:48.147Z</time></trkpt><trkpt lat="46.1818015" lon="13.7295089"><ele>174.4</ele><time>2026-04-08T11:19:49.147Z</time></trkpt><trkpt lat="46.1817582" lon="13.7293665"><ele>172.8</ele><time>2026-04-08T11:19:50.15Z</time></trkpt><trkpt lat="46.1817227" lon="13.729212"><ele>171.20000000000002</ele><time>2026-04-08T11:19:51.147Z</time></trkpt><trkpt lat="46.1816855" lon="13.7290661"><ele>169.60000000000002</ele><time>2026-04-08T11:19:52.15Z</time></trkpt><trkpt lat="46.1816481" lon="13.7289236"><ele>168.0</ele><time>2026-04-08T11:19:53.148Z</time></trkpt><trkpt lat="46.1816127" lon="13.7287803"><ele>168.0</ele><time>2026-04-08T11:19:54.14Z</time></trkpt><trkpt lat="46.1815798" lon="13.7286389"><ele>168.0</ele><time>2026-04-08T11:19:55.144Z</time></trkpt><trkpt lat="46.1815516" lon="13.7285092"><ele>168.0</ele><time>2026-04-08T11:19:56.153Z</time></trkpt><trkpt lat="46.1815286" lon="13.7284128"><ele>168.0</ele><time>2026-04-08T11:19:57.149Z</time></trkpt><trkpt lat="46.1815316" lon="13.7282504"><ele>168.0</ele><time>2026-04-08T11:19:59.164Z</time></trkpt><trkpt lat="46.1814884" lon="13.7280942"><ele>167.60000000000002</ele><time>2026-04-08T11:20:01.146Z</time></trkpt><trkpt lat="46.1814413" lon="13.7279906"><ele>167.20000000000002</ele><time>2026-04-08T11:20:02.146Z</time></trkpt><trkpt lat="46.1814054" lon="13.727874"><ele>166.8</ele><time>2026-04-08T11:20:03.159Z</time></trkpt><trkpt lat="46.1813783" lon="13.7277409"><ele>166.4</ele><time>2026-04-08T11:20:04.168Z</time></trkpt><trkpt lat="46.1813541" lon="13.7276106"><ele>166.0</ele><time>2026-04-08T11:20:05.143Z</time></trkpt><trkpt lat="46.1813249" lon="13.7274933"><ele>165.60000000000002</ele><time>2026-04-08T11:20:06.177Z</time></trkpt><trkpt lat="46.1812752" lon="13.7274031"><ele>165.2</ele><time>2026-04-08T11:20:07.14Z</time></trkpt><trkpt lat="46.1811916" lon="13.7273001"><ele>164.8</ele><time>2026-04-08T11:20:09.145Z</time></trkpt><trkpt lat="46.181109" lon="13.7272209"><ele>164.39999999999998</ele><time>2026-04-08T11:20:18.164Z</time></trkpt><trkpt lat="46.1810414" lon="13.7270653"><ele>164.0</ele><time>2026-04-08T11:20:20.147Z</time></trkpt><trkpt lat="46.1810284" lon="13.72693"><ele>164.75</ele><time>2026-04-08T11:20:21.144Z</time></trkpt><trkpt lat="46.1810344" lon="13.7267739"><ele>165.5</ele><time>2026-04-08T11:20:22.161Z</time></trkpt><trkpt lat="46.1810443" lon="13.7266003"><ele>166.25</ele><time>2026-04-08T11:20:23.154Z</time></trkpt><trkpt lat="46.1810537" lon="13.7264113"><ele>167.0</ele><time>2026-04-08T11:20:24.164Z</time></trkpt><trkpt lat="46.1810664" lon="13.7262245"><ele>167.0</ele><time>2026-04-08T11:20:25.149Z</time></trkpt><trkpt lat="46.1810936" lon="13.7260628"><ele>167.0</ele><time>2026-04-08T11:20:26.151Z</time></trkpt><trkpt lat="46.1811239" lon="13.7259389"><ele>167.0</ele><time>2026-04-08T11:20:27.151Z</time></trkpt><trkpt lat="46.1811621" lon="13.7258361"><ele>167.0</ele><time>2026-04-08T11:20:28.145Z</time></trkpt><trkpt lat="46.18121" lon="13.725749"><ele>167.0</ele><time>2026-04-08T11:20:29.144Z</time></trkpt><trkpt lat="46.1812687" lon="13.7256566"><ele>166.39999999999998</ele><time>2026-04-08T11:20:30.148Z</time></trkpt><trkpt lat="46.1813078" lon="13.7255451"><ele>165.79999999999998</ele><time>2026-04-08T11:20:31.159Z</time></trkpt><trkpt lat="46.1813275" lon="13.7254075"><ele>165.2</ele><time>2026-04-08T11:20:32.152Z</time></trkpt><trkpt lat="46.1813589" lon="13.7252644"><ele>164.6</ele><time>2026-04-08T11:20:33.155Z</time></trkpt><trkpt lat="46.1814266" lon="13.7251147"><ele>164.0</ele><time>2026-04-08T11:20:34.177Z</time></trkpt><trkpt lat="46.1815201" lon="13.7249744"><ele>161.0</ele><time>2026-04-08T11:20:35.173Z</time></trkpt><trkpt lat="46.1816361" lon="13.7248328"><ele>158.0</ele><time>2026-04-08T11:20:36.181Z</time></trkpt><trkpt lat="46.1818789" lon="13.7245491"><ele>158.0</ele><time>2026-04-08T11:20:38.145Z</time></trkpt><trkpt lat="46.1820042" lon="13.7244087"><ele>158.0</ele><time>2026-04-08T11:20:39.155Z</time></trkpt><trkpt lat="46.1821289" lon="13.7242677"><ele>158.0</ele><time>2026-04-08T11:20:40.154Z</time></trkpt><trkpt lat="46.1822451" lon="13.7241156"><ele>158.0</ele><time>2026-04-08T11:20:41.146Z</time></trkpt><trkpt lat="46.1823425" lon="13.7239416"><ele>158.0</ele><time>2026-04-08T11:20:42.16Z</time></trkpt><trkpt lat="46.1824219" lon="13.7237348"><ele>158.0</ele><time>2026-04-08T11:20:43.156Z</time></trkpt><trkpt lat="46.1824872" lon="13.7234872"><ele>158.0</ele><time>2026-04-08T11:20:44.176Z</time></trkpt><trkpt lat="46.1825487" lon="13.723211"><ele>158.0</ele><time>2026-04-08T11:20:45.143Z</time></trkpt><trkpt lat="46.1826147" lon="13.7228846"><ele>158.0</ele><time>2026-04-08T11:20:46.145Z</time></trkpt><trkpt lat="46.1826865" lon="13.7225072"><ele>158.0</ele><time>2026-04-08T11:20:47.139Z</time></trkpt><trkpt lat="46.1827657" lon="13.7221187"><ele>158.0</ele><time>2026-04-08T11:20:48.154Z</time></trkpt><trkpt lat="46.1828608" lon="13.7217364"><ele>158.5</ele><time>2026-04-08T11:20:49.149Z</time></trkpt><trkpt lat="46.1829512" lon="13.7213366"><ele>159.0</ele><time>2026-04-08T11:20:50.161Z</time></trkpt><trkpt lat="46.1830361" lon="13.720927"><ele>159.0</ele><time>2026-04-08T11:20:51.154Z</time></trkpt><trkpt lat="46.1831169" lon="13.7205165"><ele>159.0</ele><time>2026-04-08T11:20:52.156Z</time></trkpt><trkpt lat="46.183201" lon="13.7201139"><ele>159.5</ele><time>2026-04-08T11:20:53.144Z</time></trkpt><trkpt lat="46.1832803" lon="13.7197174"><ele>160.0</ele><time>2026-04-08T11:20:54.16Z</time></trkpt><trkpt lat="46.1833522" lon="13.71933"><ele>160.0</ele><time>2026-04-08T11:20:55.179Z</time></trkpt><trkpt lat="46.1834275" lon="13.7189664"><ele>160.0</ele><time>2026-04-08T11:20:56.14Z</time></trkpt><trkpt lat="46.1834982" lon="13.7186321"><ele>159.66666666666669</ele><time>2026-04-08T11:20:57.152Z</time></trkpt><trkpt lat="46.1835623" lon="13.7183304"><ele>159.33333333333334</ele><time>2026-04-08T11:20:58.151Z</time></trkpt><trkpt lat="46.1836172" lon="13.7180386"><ele>159.0</ele><time>2026-04-08T11:20:59.164Z</time></trkpt><trkpt lat="46.1836488" lon="13.7177559"><ele>158.5</ele><time>2026-04-08T11:21:00.154Z</time></trkpt><trkpt lat="46.1836422" lon="13.717489"><ele>158.0</ele><time>2026-04-08T11:21:01.151Z</time></trkpt><trkpt lat="46.1835134" lon="13.7170721"><ele>158.0</ele><time>2026-04-08T11:21:03.153Z</time></trkpt><trkpt lat="46.1834341" lon="13.7169052"><ele>158.0</ele><time>2026-04-08T11:21:04.155Z</time></trkpt><trkpt lat="46.1833485" lon="13.7167535"><ele>158.0</ele><time>2026-04-08T11:21:05.154Z</time></trkpt><trkpt lat="46.1832612" lon="13.7166065"><ele>158.0</ele><time>2026-04-08T11:21:06.157Z</time></trkpt><trkpt lat="46.183176" lon="13.7164589"><ele>158.25</ele><time>2026-04-08T11:21:07.167Z</time></trkpt><trkpt lat="46.1830932" lon="13.7163167"><ele>158.5</ele><time>2026-04-08T11:21:08.169Z</time></trkpt><trkpt lat="46.1830098" lon="13.7161763"><ele>158.75</ele><time>2026-04-08T11:21:09.162Z</time></trkpt><trkpt lat="46.1829291" lon="13.7160337"><ele>159.0</ele><time>2026-04-08T11:21:10.209Z</time></trkpt><trkpt lat="46.1828503" lon="13.7158972"><ele>160.5</ele><time>2026-04-08T11:21:11.157Z</time></trkpt><trkpt lat="46.1827774" lon="13.7157615"><ele>162.0</ele><time>2026-04-08T11:21:12.185Z</time></trkpt><trkpt lat="46.1827132" lon="13.7156059"><ele>163.5</ele><time>2026-04-08T11:21:13.169Z</time></trkpt><trkpt lat="46.1826648" lon="13.7154321"><ele>165.0</ele><time>2026-04-08T11:21:14.182Z</time></trkpt><trkpt lat="46.1826396" lon="13.7152429"><ele>166.66666666666666</ele><time>2026-04-08T11:21:15.16Z</time></trkpt><trkpt lat="46.1826497" lon="13.7150366"><ele>168.33333333333331</ele><time>2026-04-08T11:21:16.151Z</time></trkpt><trkpt lat="46.1827033" lon="13.7148156"><ele>170.0</ele><time>2026-04-08T11:21:17.154Z</time></trkpt><trkpt lat="46.1827686" lon="13.7146182"><ele>170.0</ele><time>2026-04-08T11:21:18.154Z</time></trkpt><trkpt lat="46.1828457" lon="13.7144444"><ele>170.0</ele><time>2026-04-08T11:21:19.163Z</time></trkpt><trkpt lat="46.182916" lon="13.7142783"><ele>170.0</ele><time>2026-04-08T11:21:20.153Z</time></trkpt><trkpt lat="46.1829854" lon="13.7141146"><ele>170.0</ele><time>2026-04-08T11:21:21.147Z</time></trkpt><trkpt lat="46.1830434" lon="13.7139579"><ele>170.5</ele><time>2026-04-08T11:21:22.174Z</time></trkpt><trkpt lat="46.1830886" lon="13.7138008"><ele>171.0</ele><time>2026-04-08T11:21:23.152Z</time></trkpt><trkpt lat="46.1831223" lon="13.7136412"><ele>171.5</ele><time>2026-04-08T11:21:24.148Z</time></trkpt><trkpt lat="46.1831406" lon="13.7134812"><ele>172.0</ele><time>2026-04-08T11:21:25.191Z</time></trkpt><trkpt lat="46.1831454" lon="13.7133209"><ele>172.83333333333334</ele><time>2026-04-08T11:21:26.171Z</time></trkpt><trkpt lat="46.1831265" lon="13.7131804"><ele>173.66666666666669</ele><time>2026-04-08T11:21:27.155Z</time></trkpt><trkpt lat="46.1830963" lon="13.7130647"><ele>174.5</ele><time>2026-04-08T11:21:28.15Z</time></trkpt><trkpt lat="46.1830705" lon="13.7129565"><ele>175.33333333333334</ele><time>2026-04-08T11:21:29.156Z</time></trkpt><trkpt lat="46.183069" lon="13.7128517"><ele>176.16666666666666</ele><time>2026-04-08T11:21:30.151Z</time></trkpt><trkpt lat="46.1830857" lon="13.712743"><ele>177.0</ele><time>2026-04-08T11:21:31.161Z</time></trkpt><trkpt lat="46.1830952" lon="13.7126306"><ele>177.39999999999998</ele><time>2026-04-08T11:21:32.168Z</time></trkpt><trkpt lat="46.1830667" lon="13.7125169"><ele>177.79999999999998</ele><time>2026-04-08T11:21:33.151Z</time></trkpt><trkpt lat="46.1830071" lon="13.7124302"><ele>178.2</ele><time>2026-04-08T11:21:34.164Z</time></trkpt><trkpt lat="46.1829219" lon="13.7123981"><ele>178.6</ele><time>2026-04-08T11:21:35.16Z</time></trkpt><trkpt lat="46.1828334" lon="13.7124203"><ele>179.0</ele><time>2026-04-08T11:21:36.149Z</time></trkpt><trkpt lat="46.1827304" lon="13.7124522"><ele>179.0</ele><time>2026-04-08T11:21:37.151Z</time></trkpt><trkpt lat="46.1826086" lon="13.7124302"><ele>179.0</ele><time>2026-04-08T11:21:38.172Z</time></trkpt><trkpt lat="46.1824584" lon="13.7123638"><ele>179.0</ele><time>2026-04-08T11:21:39.153Z</time></trkpt><trkpt lat="46.1822796" lon="13.7123016"><ele>180.0</ele><time>2026-04-08T11:21:40.155Z</time></trkpt><trkpt lat="46.182081" lon="13.7122322"><ele>181.0</ele><time>2026-04-08T11:21:41.145Z</time></trkpt><trkpt lat="46.1818799" lon="13.7121528"><ele>182.0</ele><time>2026-04-08T11:21:42.15Z</time></trkpt><trkpt lat="46.1816698" lon="13.7120781"><ele>182.66666666666666</ele><time>2026-04-08T11:21:43.173Z</time></trkpt><trkpt lat="46.1814712" lon="13.7120099"><ele>183.33333333333334</ele><time>2026-04-08T11:21:44.157Z</time></trkpt><trkpt lat="46.181278" lon="13.7119471"><ele>184.0</ele><time>2026-04-08T11:21:45.165Z</time></trkpt><trkpt lat="46.1810938" lon="13.7118845"><ele>185.0</ele><time>2026-04-08T11:21:46.164Z</time></trkpt><trkpt lat="46.1809141" lon="13.7118148"><ele>186.0</ele><time>2026-04-08T11:21:47.171Z</time></trkpt><trkpt lat="46.180738" lon="13.7117506"><ele>187.0</ele><time>2026-04-08T11:21:48.149Z</time></trkpt><trkpt lat="46.180564" lon="13.7116861"><ele>187.66666666666669</ele><time>2026-04-08T11:21:49.167Z</time></trkpt><trkpt lat="46.1803949" lon="13.7116268"><ele>188.33333333333334</ele><time>2026-04-08T11:21:50.18Z</time></trkpt><trkpt lat="46.1802296" lon="13.7115677"><ele>189.0</ele><time>2026-04-08T11:21:51.152Z</time></trkpt><trkpt lat="46.1800697" lon="13.7115116"><ele>189.0</ele><time>2026-04-08T11:21:52.176Z</time></trkpt><trkpt lat="46.1799136" lon="13.7114556"><ele>189.0</ele><time>2026-04-08T11:21:53.152Z</time></trkpt><trkpt lat="46.1797642" lon="13.7114044"><ele>189.0</ele><time>2026-04-08T11:21:54.164Z</time></trkpt><trkpt lat="46.1796211" lon="13.7113525"><ele>189.25</ele><time>2026-04-08T11:21:55.166Z</time></trkpt><trkpt lat="46.1794808" lon="13.7112951"><ele>189.5</ele><time>2026-04-08T11:21:56.152Z</time></trkpt><trkpt lat="46.1793384" lon="13.7112424"><ele>189.75</ele><time>2026-04-08T11:21:57.158Z</time></trkpt><trkpt lat="46.1791973" lon="13.7111914"><ele>190.0</ele><time>2026-04-08T11:21:58.162Z</time></trkpt><trkpt lat="46.1790543" lon="13.7111451"><ele>190.5</ele><time>2026-04-08T11:21:59.17Z</time></trkpt><trkpt lat="46.1789142" lon="13.7110984"><ele>191.0</ele><time>2026-04-08T11:22:00.175Z</time></trkpt><trkpt lat="46.1787765" lon="13.7110458"><ele>191.5</ele><time>2026-04-08T11:22:01.154Z</time></trkpt><trkpt lat="46.1786385" lon="13.7109911"><ele>192.0</ele><time>2026-04-08T11:22:02.149Z</time></trkpt><trkpt lat="46.178502" lon="13.7109343"><ele>192.75</ele><time>2026-04-08T11:22:03.163Z</time></trkpt><trkpt lat="46.1783694" lon="13.7108782"><ele>193.5</ele><time>2026-04-08T11:22:04.154Z</time></trkpt><trkpt lat="46.1782453" lon="13.71081"><ele>194.25</ele><time>2026-04-08T11:22:05.152Z</time></trkpt><trkpt lat="46.1781226" lon="13.7107436"><ele>195.0</ele><time>2026-04-08T11:22:06.161Z</time></trkpt><trkpt lat="46.1780018" lon="13.7106689"><ele>195.0</ele><time>2026-04-08T11:22:07.149Z</time></trkpt><trkpt lat="46.1778871" lon="13.7105908"><ele>195.0</ele><time>2026-04-08T11:22:08.184Z</time></trkpt><trkpt lat="46.1777851" lon="13.7105136"><ele>195.0</ele><time>2026-04-08T11:22:09.153Z</time></trkpt><trkpt lat="46.1776992" lon="13.7104395"><ele>195.0</ele><time>2026-04-08T11:22:10.166Z</time></trkpt><trkpt lat="46.1776199" lon="13.7103686"><ele>195.0</ele><time>2026-04-08T11:22:11.168Z</time></trkpt><trkpt lat="46.1775435" lon="13.7102984"><ele>195.2</ele><time>2026-04-08T11:22:12.154Z</time></trkpt><trkpt lat="46.1774641" lon="13.7102182"><ele>195.4</ele><time>2026-04-08T11:22:13.182Z</time></trkpt><trkpt lat="46.177384" lon="13.7101396"><ele>195.60000000000002</ele><time>2026-04-08T11:22:14.166Z</time></trkpt><trkpt lat="46.1773053" lon="13.7100565"><ele>195.8</ele><time>2026-04-08T11:22:15.17Z</time></trkpt><trkpt lat="46.1772241" lon="13.7099663"><ele>196.0</ele><time>2026-04-08T11:22:16.166Z</time></trkpt><trkpt lat="46.1771436" lon="13.7098766"><ele>196.0</ele><time>2026-04-08T11:22:17.163Z</time></trkpt><trkpt lat="46.1770684" lon="13.7097889"><ele>196.0</ele><time>2026-04-08T11:22:18.166Z</time></trkpt><trkpt lat="46.1769953" lon="13.7096995"><ele>196.0</ele><time>2026-04-08T11:22:19.173Z</time></trkpt><trkpt lat="46.176922" lon="13.7096091"><ele>196.0</ele><time>2026-04-08T11:22:20.167Z</time></trkpt><trkpt lat="46.1768463" lon="13.7095191"><ele>196.0</ele><time>2026-04-08T11:22:21.155Z</time></trkpt><trkpt lat="46.1767703" lon="13.7094264"><ele>196.20000000000002</ele><time>2026-04-08T11:22:22.158Z</time></trkpt><trkpt lat="46.1766956" lon="13.7093324"><ele>196.4</ele><time>2026-04-08T11:22:23.16Z</time></trkpt><trkpt lat="46.1766193" lon="13.709243"><ele>196.6</ele><time>2026-04-08T11:22:24.168Z</time></trkpt><trkpt lat="46.1765478" lon="13.7091512"><ele>196.8</ele><time>2026-04-08T11:22:25.168Z</time></trkpt><trkpt lat="46.1764771" lon="13.7090617"><ele>197.0</ele><time>2026-04-08T11:22:26.166Z</time></trkpt><trkpt lat="46.1764112" lon="13.7089732"><ele>197.00000000000003</ele><time>2026-04-08T11:22:27.16Z</time></trkpt><trkpt lat="46.1763554" lon="13.7088859"><ele>197.0</ele><time>2026-04-08T11:22:28.161Z</time></trkpt><trkpt lat="46.1763117" lon="13.7088075"><ele>197.0</ele><time>2026-04-08T11:22:29.156Z</time></trkpt><trkpt lat="46.1762748" lon="13.7087335"><ele>197.0</ele><time>2026-04-08T11:22:30.155Z</time></trkpt><trkpt lat="46.1761981" lon="13.708614"><ele>197.00000000000003</ele><time>2026-04-08T11:22:32.16Z</time></trkpt><trkpt lat="46.1760953" lon="13.7085394"><ele>197.0</ele><time>2026-04-08T11:22:34.19Z</time></trkpt><trkpt lat="46.1759676" lon="13.7084922"><ele>197.14285714285714</ele><time>2026-04-08T11:22:36.167Z</time></trkpt><trkpt lat="46.1758986" lon="13.7084664"><ele>197.28571428571428</ele><time>2026-04-08T11:22:37.17Z</time></trkpt><trkpt lat="46.1758326" lon="13.7084356"><ele>197.42857142857144</ele><time>2026-04-08T11:22:38.166Z</time></trkpt><trkpt lat="46.1757712" lon="13.7083993"><ele>197.57142857142856</ele><time>2026-04-08T11:22:39.184Z</time></trkpt><trkpt lat="46.1757124" lon="13.7083601"><ele>197.7142857142857</ele><time>2026-04-08T11:22:40.149Z</time></trkpt><trkpt lat="46.1756519" lon="13.7083156"><ele>197.85714285714286</ele><time>2026-04-08T11:22:41.158Z</time></trkpt><trkpt lat="46.1755877" lon="13.708272"><ele>198.0</ele><time>2026-04-08T11:22:42.165Z</time></trkpt><trkpt lat="46.1755302" lon="13.7082243"><ele>198.0</ele><time>2026-04-08T11:22:43.168Z</time></trkpt><trkpt lat="46.1754757" lon="13.708168"><ele>198.0</ele><time>2026-04-08T11:22:44.165Z</time></trkpt><trkpt lat="46.1754271" lon="13.7081043"><ele>198.0</ele><time>2026-04-08T11:22:45.161Z</time></trkpt><trkpt lat="46.1753818" lon="13.7080323"><ele>198.0</ele><time>2026-04-08T11:22:46.175Z</time></trkpt><trkpt lat="46.1753333" lon="13.7079659"><ele>198.0</ele><time>2026-04-08T11:22:47.168Z</time></trkpt><trkpt lat="46.1752804" lon="13.7079058"><ele>198.0</ele><time>2026-04-08T11:22:48.163Z</time></trkpt><trkpt lat="46.1752271" lon="13.7078453"><ele>198.0</ele><time>2026-04-08T11:22:49.184Z</time></trkpt><trkpt lat="46.175175" lon="13.7077813"><ele>198.0</ele><time>2026-04-08T11:22:50.162Z</time></trkpt><trkpt lat="46.1751078" lon="13.707737"><ele>198.0</ele><time>2026-04-08T11:22:51.17Z</time></trkpt><trkpt lat="46.1750354" lon="13.7076987"><ele>198.0</ele><time>2026-04-08T11:22:52.155Z</time></trkpt><trkpt lat="46.1749604" lon="13.7076716"><ele>198.0</ele><time>2026-04-08T11:22:53.169Z</time></trkpt><trkpt lat="46.1748776" lon="13.7076552"><ele>198.0</ele><time>2026-04-08T11:22:54.159Z</time></trkpt><trkpt lat="46.1747853" lon="13.7076467"><ele>198.0</ele><time>2026-04-08T11:22:55.158Z</time></trkpt><trkpt lat="46.1747006" lon="13.7076368"><ele>198.0</ele><time>2026-04-08T11:22:56.154Z</time></trkpt><trkpt lat="46.1746221" lon="13.7076384"><ele>198.0</ele><time>2026-04-08T11:22:57.174Z</time></trkpt><trkpt lat="46.1745401" lon="13.7076509"><ele>198.0</ele><time>2026-04-08T11:22:58.164Z</time></trkpt><trkpt lat="46.1744575" lon="13.7076811"><ele>198.0</ele><time>2026-04-08T11:22:59.167Z</time></trkpt><trkpt lat="46.1743734" lon="13.7077152"><ele>198.0</ele><time>2026-04-08T11:23:00.162Z</time></trkpt><trkpt lat="46.1742904" lon="13.7077498"><ele>198.0</ele><time>2026-04-08T11:23:01.151Z</time></trkpt><trkpt lat="46.1742082" lon="13.7077774"><ele>197.83333333333334</ele><time>2026-04-08T11:23:02.158Z</time></trkpt><trkpt lat="46.1741266" lon="13.7078054"><ele>197.66666666666669</ele><time>2026-04-08T11:23:03.153Z</time></trkpt><trkpt lat="46.1740475" lon="13.707826"><ele>197.5</ele><time>2026-04-08T11:23:04.156Z</time></trkpt><trkpt lat="46.173967" lon="13.7078457"><ele>197.33333333333334</ele><time>2026-04-08T11:23:05.165Z</time></trkpt><trkpt lat="46.1738873" lon="13.7078665"><ele>197.16666666666669</ele><time>2026-04-08T11:23:06.17Z</time></trkpt><trkpt lat="46.173804" lon="13.7078825"><ele>197.0</ele><time>2026-04-08T11:23:07.166Z</time></trkpt><trkpt lat="46.1737221" lon="13.7078976"><ele>197.00000000000003</ele><time>2026-04-08T11:23:08.206Z</time></trkpt><trkpt lat="46.1736542" lon="13.7079079"><ele>197.0</ele><time>2026-04-08T11:23:09.163Z</time></trkpt><trkpt lat="46.1735755" lon="13.7079102"><ele>197.0</ele><time>2026-04-08T11:23:11.174Z</time></trkpt><trkpt lat="46.1734869" lon="13.7079492"><ele>197.0</ele><time>2026-04-08T11:30:39.191Z</time></trkpt><trkpt lat="46.17341" lon="13.7079701"><ele>197.00000000000003</ele><time>2026-04-08T11:30:40.178Z</time></trkpt><trkpt lat="46.1733163" lon="13.7079877"><ele>197.0</ele><time>2026-04-08T11:30:41.189Z</time></trkpt><trkpt lat="46.1732118" lon="13.7080066"><ele>201.8</ele><time>2026-04-08T11:30:42.184Z</time></trkpt><trkpt lat="46.1731129" lon="13.7080333"><ele>206.6</ele><time>2026-04-08T11:30:43.186Z</time></trkpt><trkpt lat="46.1730247" lon="13.708092"><ele>211.40000000000003</ele><time>2026-04-08T11:30:44.186Z</time></trkpt><trkpt lat="46.1729555" lon="13.7081856"><ele>216.20000000000002</ele><time>2026-04-08T11:30:45.18Z</time></trkpt><trkpt lat="46.1729302" lon="13.7083113"><ele>221.0</ele><time>2026-04-08T11:30:46.176Z</time></trkpt><trkpt lat="46.1729577" lon="13.7084559"><ele>214.66666666666669</ele><time>2026-04-08T11:30:47.19Z</time></trkpt><trkpt lat="46.1731044" lon="13.7087445"><ele>208.33333333333331</ele><time>2026-04-08T11:30:49.177Z</time></trkpt><trkpt lat="46.1731657" lon="13.7089035"><ele>202.0</ele><time>2026-04-08T11:30:50.183Z</time></trkpt><trkpt lat="46.1731982" lon="13.7090991"><ele>202.0</ele><time>2026-04-08T11:30:51.18Z</time></trkpt><trkpt lat="46.1732073" lon="13.7093174"><ele>202.0</ele><time>2026-04-08T11:30:52.187Z</time></trkpt><trkpt lat="46.1732155" lon="13.7095013"><ele>202.0</ele><time>2026-04-08T11:30:53.191Z</time></trkpt><trkpt lat="46.1732142" lon="13.709646"><ele>202.0</ele><time>2026-04-08T11:30:54.176Z</time></trkpt><trkpt lat="46.1731714" lon="13.7097376"><ele>210.6</ele><time>2026-04-08T11:30:55.189Z</time></trkpt><trkpt lat="46.1730606" lon="13.7096988"><ele>219.2</ele><time>2026-04-08T11:30:57.187Z</time></trkpt><trkpt lat="46.1730333" lon="13.7095811"><ele>227.8</ele><time>2026-04-08T11:30:58.18Z</time></trkpt><trkpt lat="46.1730395" lon="13.7094267"><ele>236.4</ele><time>2026-04-08T11:30:59.183Z</time></trkpt><trkpt lat="46.1730515" lon="13.7092485"><ele>245.0</ele><time>2026-04-08T11:31:00.177Z</time></trkpt><trkpt lat="46.1730545" lon="13.7090737"><ele>245.0</ele><time>2026-04-08T11:31:01.178Z</time></trkpt><trkpt lat="46.1730358" lon="13.7089046"><ele>245.0</ele><time>2026-04-08T11:31:02.25Z</time></trkpt><trkpt lat="46.1729868" lon="13.7087309"><ele>245.0</ele><time>2026-04-08T11:31:03.187Z</time></trkpt><trkpt lat="46.172901" lon="13.708534"><ele>245.0</ele><time>2026-04-08T11:31:04.177Z</time></trkpt><trkpt lat="46.1728003" lon="13.7083293"><ele>239.0</ele><time>2026-04-08T11:31:05.186Z</time></trkpt><trkpt lat="46.1727217" lon="13.7081448"><ele>233.0</ele><time>2026-04-08T11:31:06.193Z</time></trkpt><trkpt lat="46.1726313" lon="13.7079892"><ele>227.0</ele><time>2026-04-08T11:31:07.182Z</time></trkpt><trkpt lat="46.1725119" lon="13.7078941"><ele>221.0</ele><time>2026-04-08T11:31:08.187Z</time></trkpt><trkpt lat="46.1723613" lon="13.7078608"><ele>222.0</ele><time>2026-04-08T11:31:09.181Z</time></trkpt><trkpt lat="46.1722012" lon="13.7078647"><ele>223.0</ele><time>2026-04-08T11:31:10.184Z</time></trkpt><trkpt lat="46.1720265" lon="13.7079319"><ele>224.0</ele><time>2026-04-08T11:31:11.177Z</time></trkpt><trkpt lat="46.17184" lon="13.7080348"><ele>224.0</ele><time>2026-04-08T11:31:12.204Z</time></trkpt><trkpt lat="46.1716594" lon="13.7081572"><ele>224.0</ele><time>2026-04-08T11:31:13.182Z</time></trkpt><trkpt lat="46.1714978" lon="13.7082819"><ele>224.0</ele><time>2026-04-08T11:31:14.188Z</time></trkpt><trkpt lat="46.1713537" lon="13.7083947"><ele>224.0</ele><time>2026-04-08T11:31:15.188Z</time></trkpt><trkpt lat="46.1711839" lon="13.7084538"><ele>224.0</ele><time>2026-04-08T11:31:16.2Z</time></trkpt><trkpt lat="46.1709989" lon="13.7084992"><ele>224.0</ele><time>2026-04-08T11:31:17.189Z</time></trkpt><trkpt lat="46.1707995" lon="13.7085495"><ele>222.66666666666669</ele><time>2026-04-08T11:31:18.184Z</time></trkpt><trkpt lat="46.1705832" lon="13.7086149"><ele>221.33333333333331</ele><time>2026-04-08T11:31:19.201Z</time></trkpt><trkpt lat="46.1703632" lon="13.7086941"><ele>220.0</ele><time>2026-04-08T11:31:20.179Z</time></trkpt><trkpt lat="46.1701361" lon="13.7087865"><ele>220.0</ele><time>2026-04-08T11:31:21.185Z</time></trkpt><trkpt lat="46.1699036" lon="13.7088797"><ele>220.0</ele><time>2026-04-08T11:31:22.18Z</time></trkpt><trkpt lat="46.1696687" lon="13.7089652"><ele>219.0</ele><time>2026-04-08T11:31:23.179Z</time></trkpt><trkpt lat="46.1694351" lon="13.7090434"><ele>218.0</ele><time>2026-04-08T11:31:24.19Z</time></trkpt><trkpt lat="46.1692" lon="13.7091285"><ele>216.5</ele><time>2026-04-08T11:31:25.18Z</time></trkpt><trkpt lat="46.1689597" lon="13.7092083"><ele>215.0</ele><time>2026-04-08T11:31:26.191Z</time></trkpt><trkpt lat="46.1687181" lon="13.7092604"><ele>215.0</ele><time>2026-04-08T11:31:27.18Z</time></trkpt><trkpt lat="46.1684804" lon="13.7092944"><ele>215.0</ele><time>2026-04-08T11:31:28.185Z</time></trkpt><trkpt lat="46.1682454" lon="13.7093305"><ele>214.5</ele><time>2026-04-08T11:31:29.184Z</time></trkpt><trkpt lat="46.1680109" lon="13.7093718"><ele>214.0</ele><time>2026-04-08T11:31:30.191Z</time></trkpt><trkpt lat="46.1677799" lon="13.7094158"><ele>214.0</ele><time>2026-04-08T11:31:31.179Z</time></trkpt><trkpt lat="46.167557" lon="13.7094571"><ele>214.0</ele><time>2026-04-08T11:31:32.177Z</time></trkpt><trkpt lat="46.1670958" lon="13.7095365"><ele>214.5</ele><time>2026-04-08T11:31:34.188Z</time></trkpt><trkpt lat="46.16686" lon="13.7095757"><ele>215.0</ele><time>2026-04-08T11:31:35.181Z</time></trkpt><trkpt lat="46.1666302" lon="13.7095895"><ele>215.66666666666669</ele><time>2026-04-08T11:31:36.181Z</time></trkpt><trkpt lat="46.166412" lon="13.7095755"><ele>216.33333333333331</ele><time>2026-04-08T11:31:37.183Z</time></trkpt><trkpt lat="46.1662084" lon="13.7095666"><ele>217.0</ele><time>2026-04-08T11:31:38.186Z</time></trkpt><trkpt lat="46.1660067" lon="13.7095888"><ele>217.0</ele><time>2026-04-08T11:31:39.187Z</time></trkpt><trkpt lat="46.1658172" lon="13.7096414"><ele>217.0</ele><time>2026-04-08T11:31:40.198Z</time></trkpt><trkpt lat="46.1656241" lon="13.7097046"><ele>217.0</ele><time>2026-04-08T11:31:41.181Z</time></trkpt><trkpt lat="46.1654363" lon="13.7097655"><ele>218.5</ele><time>2026-04-08T11:31:42.181Z</time></trkpt><trkpt lat="46.1650595" lon="13.7098907"><ele>220.0</ele><time>2026-04-08T11:31:44.195Z</time></trkpt><trkpt lat="46.1648757" lon="13.7099644"><ele>223.5</ele><time>2026-04-08T11:31:45.181Z</time></trkpt><trkpt lat="46.1645172" lon="13.7101034"><ele>227.0</ele><time>2026-04-08T11:31:47.182Z</time></trkpt><trkpt lat="46.1643421" lon="13.7101348"><ele>227.0</ele><time>2026-04-08T11:31:48.195Z</time></trkpt><trkpt lat="46.1641712" lon="13.7101448"><ele>227.0</ele><time>2026-04-08T11:31:49.186Z</time></trkpt><trkpt lat="46.1640106" lon="13.7101276"><ele>227.0</ele><time>2026-04-08T11:31:50.194Z</time></trkpt><trkpt lat="46.1638549" lon="13.7100888"><ele>229.0</ele><time>2026-04-08T11:31:51.188Z</time></trkpt><trkpt lat="46.1637079" lon="13.7100395"><ele>231.0</ele><time>2026-04-08T11:31:52.188Z</time></trkpt><trkpt lat="46.1635714" lon="13.7099795"><ele>233.0</ele><time>2026-04-08T11:31:53.188Z</time></trkpt><trkpt lat="46.1634394" lon="13.7099298"><ele>235.0</ele><time>2026-04-08T11:31:54.187Z</time></trkpt><trkpt lat="46.1633119" lon="13.7098983"><ele>235.0</ele><time>2026-04-08T11:31:55.186Z</time></trkpt><trkpt lat="46.1631982" lon="13.7099136"><ele>235.0</ele><time>2026-04-08T11:31:56.183Z</time></trkpt><trkpt lat="46.1630917" lon="13.7099722"><ele>235.0</ele><time>2026-04-08T11:31:57.22Z</time></trkpt><trkpt lat="46.1629806" lon="13.7100802"><ele>235.0</ele><time>2026-04-08T11:31:58.199Z</time></trkpt><trkpt lat="46.1628682" lon="13.7101894"><ele>234.0</ele><time>2026-04-08T11:31:59.183Z</time></trkpt><trkpt lat="46.1627491" lon="13.7102747"><ele>233.0</ele><time>2026-04-08T11:32:00.193Z</time></trkpt><trkpt lat="46.1626224" lon="13.7103585"><ele>232.0</ele><time>2026-04-08T11:32:01.182Z</time></trkpt><trkpt lat="46.1624976" lon="13.7104481"><ele>231.0</ele><time>2026-04-08T11:32:02.199Z</time></trkpt><trkpt lat="46.1623675" lon="13.7105342"><ele>236.0</ele><time>2026-04-08T11:32:03.194Z</time></trkpt><trkpt lat="46.1622444" lon="13.7106272"><ele>241.0</ele><time>2026-04-08T11:32:04.203Z</time></trkpt><trkpt lat="46.1621353" lon="13.710739"><ele>246.0</ele><time>2026-04-08T11:32:05.191Z</time></trkpt><trkpt lat="46.1620354" lon="13.7108926"><ele>251.0</ele><time>2026-04-08T11:32:06.197Z</time></trkpt><trkpt lat="46.1619376" lon="13.7110585"><ele>245.33333333333334</ele><time>2026-04-08T11:32:07.183Z</time></trkpt><trkpt lat="46.1618312" lon="13.7112347"><ele>239.66666666666669</ele><time>2026-04-08T11:32:08.19Z</time></trkpt><trkpt lat="46.1617161" lon="13.7114124"><ele>234.0</ele><time>2026-04-08T11:32:09.181Z</time></trkpt><trkpt lat="46.1615838" lon="13.7115915"><ele>233.33333333333331</ele><time>2026-04-08T11:32:10.196Z</time></trkpt><trkpt lat="46.1614486" lon="13.7117826"><ele>232.66666666666666</ele><time>2026-04-08T11:32:11.195Z</time></trkpt><trkpt lat="46.1613077" lon="13.7119908"><ele>232.0</ele><time>2026-04-08T11:32:12.184Z</time></trkpt><trkpt lat="46.1611666" lon="13.7122048"><ele>232.0</ele><time>2026-04-08T11:32:13.178Z</time></trkpt><trkpt lat="46.161029" lon="13.7124156"><ele>232.0</ele><time>2026-04-08T11:32:14.196Z</time></trkpt><trkpt lat="46.1608908" lon="13.7126229"><ele>232.0</ele><time>2026-04-08T11:32:15.189Z</time></trkpt><trkpt lat="46.1607522" lon="13.7128228"><ele>231.33333333333331</ele><time>2026-04-08T11:32:16.195Z</time></trkpt><trkpt lat="46.1606044" lon="13.7130177"><ele>230.66666666666669</ele><time>2026-04-08T11:32:17.182Z</time></trkpt><trkpt lat="46.1604523" lon="13.7131975"><ele>230.0</ele><time>2026-04-08T11:32:18.2Z</time></trkpt><trkpt lat="46.1602979" lon="13.7133646"><ele>230.0</ele><time>2026-04-08T11:32:19.181Z</time></trkpt><trkpt lat="46.1601509" lon="13.7135147"><ele>230.0</ele><time>2026-04-08T11:32:20.182Z</time></trkpt><trkpt lat="46.1600034" lon="13.7136642"><ele>230.0</ele><time>2026-04-08T11:32:21.186Z</time></trkpt><trkpt lat="46.1598429" lon="13.7138006"><ele>223.5</ele><time>2026-04-08T11:32:22.181Z</time></trkpt><trkpt lat="46.1594905" lon="13.7140298"><ele>217.0</ele><time>2026-04-08T11:32:24.188Z</time></trkpt><trkpt lat="46.1593107" lon="13.7141221"><ele>217.0</ele><time>2026-04-08T11:32:25.183Z</time></trkpt><trkpt lat="46.1591172" lon="13.7141788"><ele>217.0</ele><time>2026-04-08T11:32:26.19Z</time></trkpt><trkpt lat="46.1589163" lon="13.7142165"><ele>217.0</ele><time>2026-04-08T11:32:27.201Z</time></trkpt><trkpt lat="46.1587186" lon="13.7142616"><ele>216.66666666666666</ele><time>2026-04-08T11:32:28.186Z</time></trkpt><trkpt lat="46.1585312" lon="13.7143092"><ele>216.33333333333331</ele><time>2026-04-08T11:32:29.194Z</time></trkpt><trkpt lat="46.1583533" lon="13.7143682"><ele>216.0</ele><time>2026-04-08T11:32:30.186Z</time></trkpt><trkpt lat="46.1581877" lon="13.7144348"><ele>213.0</ele><time>2026-04-08T11:32:31.185Z</time></trkpt><trkpt lat="46.1580196" lon="13.7145269"><ele>210.0</ele><time>2026-04-08T11:32:32.191Z</time></trkpt><trkpt lat="46.1578516" lon="13.7146472"><ele>207.0</ele><time>2026-04-08T11:32:33.195Z</time></trkpt><trkpt lat="46.1576812" lon="13.714794"><ele>207.0</ele><time>2026-04-08T11:32:34.188Z</time></trkpt><trkpt lat="46.1575095" lon="13.7149862"><ele>207.0</ele><time>2026-04-08T11:32:35.179Z</time></trkpt><trkpt lat="46.1573457" lon="13.715187"><ele>207.0</ele><time>2026-04-08T11:32:36.19Z</time></trkpt><trkpt lat="46.1571844" lon="13.7153973"><ele>208.0</ele><time>2026-04-08T11:32:37.19Z</time></trkpt><trkpt lat="46.1570209" lon="13.715606"><ele>209.0</ele><time>2026-04-08T11:32:38.182Z</time></trkpt><trkpt lat="46.1568606" lon="13.7158029"><ele>210.0</ele><time>2026-04-08T11:32:39.186Z</time></trkpt><trkpt lat="46.1567106" lon="13.7159933"><ele>208.0</ele><time>2026-04-08T11:32:40.182Z</time></trkpt><trkpt lat="46.1565674" lon="13.7161775"><ele>206.0</ele><time>2026-04-08T11:32:41.19Z</time></trkpt><trkpt lat="46.1564236" lon="13.7163518"><ele>204.0</ele><time>2026-04-08T11:32:42.203Z</time></trkpt><trkpt lat="46.1562734" lon="13.7165009"><ele>204.0</ele><time>2026-04-08T11:32:43.179Z</time></trkpt><trkpt lat="46.156116" lon="13.7166167"><ele>204.0</ele><time>2026-04-08T11:32:44.187Z</time></trkpt><trkpt lat="46.1559528" lon="13.7166982"><ele>204.0</ele><time>2026-04-08T11:32:45.174Z</time></trkpt><trkpt lat="46.155774" lon="13.7167456"><ele>203.0</ele><time>2026-04-08T11:32:46.191Z</time></trkpt><trkpt lat="46.1555734" lon="13.716768"><ele>202.0</ele><time>2026-04-08T11:32:47.186Z</time></trkpt><trkpt lat="46.155341" lon="13.7167939"><ele>201.0</ele><time>2026-04-08T11:32:48.2Z</time></trkpt><trkpt lat="46.155091" lon="13.7168224"><ele>199.5</ele><time>2026-04-08T11:32:49.184Z</time></trkpt><trkpt lat="46.1548174" lon="13.7168401"><ele>198.0</ele><time>2026-04-08T11:32:50.177Z</time></trkpt><trkpt lat="46.1545369" lon="13.7168385"><ele>198.0</ele><time>2026-04-08T11:32:51.175Z</time></trkpt><trkpt lat="46.1542587" lon="13.7168374"><ele>198.0</ele><time>2026-04-08T11:32:52.193Z</time></trkpt><trkpt lat="46.1539862" lon="13.7168398"><ele>196.5</ele><time>2026-04-08T11:32:53.181Z</time></trkpt><trkpt lat="46.1537322" lon="13.7168503"><ele>195.0</ele><time>2026-04-08T11:32:54.192Z</time></trkpt><trkpt lat="46.1534863" lon="13.7168515"><ele>195.0</ele><time>2026-04-08T11:32:55.187Z</time></trkpt><trkpt lat="46.1532493" lon="13.7168379"><ele>195.0</ele><time>2026-04-08T11:32:56.183Z</time></trkpt><trkpt lat="46.1530253" lon="13.716804"><ele>196.0</ele><time>2026-04-08T11:32:57.18Z</time></trkpt><trkpt lat="46.1528166" lon="13.7167211"><ele>197.0</ele><time>2026-04-08T11:32:58.17Z</time></trkpt><trkpt lat="46.1526229" lon="13.7166095"><ele>198.0</ele><time>2026-04-08T11:32:59.196Z</time></trkpt><trkpt lat="46.1522646" lon="13.7163552"><ele>198.0</ele><time>2026-04-08T11:33:01.176Z</time></trkpt><trkpt lat="46.1520984" lon="13.7162241"><ele>198.0</ele><time>2026-04-08T11:33:02.186Z</time></trkpt><trkpt lat="46.1519405" lon="13.7160995"><ele>198.0</ele><time>2026-04-08T11:33:03.172Z</time></trkpt><trkpt lat="46.1517842" lon="13.7159884"><ele>194.33333333333334</ele><time>2026-04-08T11:33:04.177Z</time></trkpt><trkpt lat="46.15163" lon="13.7158798"><ele>190.66666666666669</ele><time>2026-04-08T11:33:05.175Z</time></trkpt><trkpt lat="46.1514813" lon="13.7157813"><ele>187.0</ele><time>2026-04-08T11:33:06.18Z</time></trkpt><trkpt lat="46.1513355" lon="13.7156947"><ele>187.0</ele><time>2026-04-08T11:33:07.175Z</time></trkpt><trkpt lat="46.1511955" lon="13.7156274"><ele>187.0</ele><time>2026-04-08T11:33:08.189Z</time></trkpt><trkpt lat="46.1510566" lon="13.7155744"><ele>187.0</ele><time>2026-04-08T11:33:09.186Z</time></trkpt><trkpt lat="46.1509212" lon="13.7155506"><ele>187.0</ele><time>2026-04-08T11:33:10.196Z</time></trkpt><trkpt lat="46.1507923" lon="13.7155378"><ele>186.75</ele><time>2026-04-08T11:33:11.189Z</time></trkpt><trkpt lat="46.1506684" lon="13.7155241"><ele>186.5</ele><time>2026-04-08T11:33:12.208Z</time></trkpt><trkpt lat="46.1505389" lon="13.7155131"><ele>186.25</ele><time>2026-04-08T11:33:13.18Z</time></trkpt><trkpt lat="46.1504086" lon="13.7155067"><ele>186.0</ele><time>2026-04-08T11:33:14.189Z</time></trkpt><trkpt lat="46.1502736" lon="13.7155133"><ele>186.0</ele><time>2026-04-08T11:33:15.191Z</time></trkpt><trkpt lat="46.1501331" lon="13.715532"><ele>186.0</ele><time>2026-04-08T11:33:16.179Z</time></trkpt><trkpt lat="46.1499901" lon="13.7155588"><ele>186.0</ele><time>2026-04-08T11:33:17.174Z</time></trkpt><trkpt lat="46.1498462" lon="13.7155904"><ele>186.0</ele><time>2026-04-08T11:33:18.176Z</time></trkpt><trkpt lat="46.1496984" lon="13.7156228"><ele>184.66666666666666</ele><time>2026-04-08T11:33:19.179Z</time></trkpt><trkpt lat="46.1495492" lon="13.7156465"><ele>183.33333333333331</ele><time>2026-04-08T11:33:20.189Z</time></trkpt><trkpt lat="46.1493923" lon="13.715655"><ele>182.0</ele><time>2026-04-08T11:33:21.189Z</time></trkpt><trkpt lat="46.1492362" lon="13.7156571"><ele>182.0</ele><time>2026-04-08T11:33:22.2Z</time></trkpt><trkpt lat="46.1490823" lon="13.7156588"><ele>182.0</ele><time>2026-04-08T11:33:23.179Z</time></trkpt><trkpt lat="46.1489295" lon="13.7156663"><ele>182.0</ele><time>2026-04-08T11:33:24.182Z</time></trkpt><trkpt lat="46.1487815" lon="13.7157"><ele>181.33333333333331</ele><time>2026-04-08T11:33:25.181Z</time></trkpt><trkpt lat="46.148633" lon="13.7157579"><ele>180.66666666666666</ele><time>2026-04-08T11:33:26.177Z</time></trkpt><trkpt lat="46.1484857" lon="13.7158257"><ele>180.0</ele><time>2026-04-08T11:33:27.184Z</time></trkpt><trkpt lat="46.148344" lon="13.7158867"><ele>180.0</ele><time>2026-04-08T11:33:28.184Z</time></trkpt><trkpt lat="46.1482141" lon="13.7159435"><ele>180.0</ele><time>2026-04-08T11:33:29.203Z</time></trkpt><trkpt lat="46.1480852" lon="13.715992"><ele>180.0</ele><time>2026-04-08T11:33:30.179Z</time></trkpt><trkpt lat="46.1479579" lon="13.7160153"><ele>180.0</ele><time>2026-04-08T11:33:31.19Z</time></trkpt><trkpt lat="46.1478338" lon="13.7160175"><ele>179.5</ele><time>2026-04-08T11:33:32.184Z</time></trkpt><trkpt lat="46.1477144" lon="13.7159961"><ele>179.0</ele><time>2026-04-08T11:33:33.174Z</time></trkpt><trkpt lat="46.1475942" lon="13.7159592"><ele>178.5</ele><time>2026-04-08T11:33:34.179Z</time></trkpt><trkpt lat="46.1474735" lon="13.7158903"><ele>178.0</ele><time>2026-04-08T11:33:35.181Z</time></trkpt><trkpt lat="46.1473364" lon="13.7157791"><ele>177.33333333333334</ele><time>2026-04-08T11:33:36.197Z</time></trkpt><trkpt lat="46.1471853" lon="13.7156486"><ele>176.66666666666666</ele><time>2026-04-08T11:33:37.183Z</time></trkpt><trkpt lat="46.1470289" lon="13.7155198"><ele>176.0</ele><time>2026-04-08T11:33:38.205Z</time></trkpt><trkpt lat="46.146885" lon="13.7154362"><ele>176.0</ele><time>2026-04-08T11:33:39.188Z</time></trkpt><trkpt lat="46.1467331" lon="13.71544"><ele>176.0</ele><time>2026-04-08T11:33:40.181Z</time></trkpt><trkpt lat="46.1465743" lon="13.7155006"><ele>176.0</ele><time>2026-04-08T11:33:41.176Z</time></trkpt><trkpt lat="46.1464109" lon="13.7156215"><ele>174.33333333333331</ele><time>2026-04-08T11:33:42.188Z</time></trkpt><trkpt lat="46.1462575" lon="13.7157733"><ele>172.66666666666666</ele><time>2026-04-08T11:33:43.192Z</time></trkpt><trkpt lat="46.1461058" lon="13.7159438"><ele>171.0</ele><time>2026-04-08T11:33:44.183Z</time></trkpt><trkpt lat="46.1459577" lon="13.7161293"><ele>171.0</ele><time>2026-04-08T11:33:45.182Z</time></trkpt><trkpt lat="46.1458321" lon="13.716288"><ele>171.0</ele><time>2026-04-08T11:33:46.181Z</time></trkpt><trkpt lat="46.1457192" lon="13.7163885"><ele>171.0</ele><time>2026-04-08T11:33:47.187Z</time></trkpt><trkpt lat="46.1455931" lon="13.7164169"><ele>171.0</ele><time>2026-04-08T11:33:48.175Z</time></trkpt><trkpt lat="46.145449" lon="13.7163842"><ele>172.0</ele><time>2026-04-08T11:33:49.177Z</time></trkpt><trkpt lat="46.1452863" lon="13.7163071"><ele>173.0</ele><time>2026-04-08T11:33:50.189Z</time></trkpt><trkpt lat="46.1451088" lon="13.7162203"><ele>174.0</ele><time>2026-04-08T11:33:51.192Z</time></trkpt><trkpt lat="46.1449169" lon="13.7161368"><ele>176.0</ele><time>2026-04-08T11:33:52.183Z</time></trkpt><trkpt lat="46.1447146" lon="13.7160688"><ele>178.0</ele><time>2026-04-08T11:33:53.174Z</time></trkpt><trkpt lat="46.1445038" lon="13.7160223"><ele>180.0</ele><time>2026-04-08T11:33:54.187Z</time></trkpt><trkpt lat="46.1443063" lon="13.7160233"><ele>180.0</ele><time>2026-04-08T11:33:55.185Z</time></trkpt><trkpt lat="46.1441311" lon="13.7160398"><ele>180.0</ele><time>2026-04-08T11:33:56.192Z</time></trkpt><trkpt lat="46.1439656" lon="13.7160339"><ele>180.0</ele><time>2026-04-08T11:33:57.187Z</time></trkpt><trkpt lat="46.1438008" lon="13.7159915"><ele>178.33333333333334</ele><time>2026-04-08T11:33:58.194Z</time></trkpt><trkpt lat="46.1436492" lon="13.71588"><ele>176.66666666666669</ele><time>2026-04-08T11:33:59.173Z</time></trkpt><trkpt lat="46.1435066" lon="13.7157181"><ele>175.0</ele><time>2026-04-08T11:34:00.183Z</time></trkpt><trkpt lat="46.1433674" lon="13.7155256"><ele>175.0</ele><time>2026-04-08T11:34:01.197Z</time></trkpt><trkpt lat="46.1432283" lon="13.715344"><ele>175.0</ele><time>2026-04-08T11:34:02.187Z</time></trkpt><trkpt lat="46.1430903" lon="13.7151831"><ele>175.0</ele><time>2026-04-08T11:34:03.193Z</time></trkpt><trkpt lat="46.1429383" lon="13.7150567"><ele>176.0</ele><time>2026-04-08T11:34:04.176Z</time></trkpt><trkpt lat="46.1425666" lon="13.7149838"><ele>177.0</ele><time>2026-04-08T11:34:06.204Z</time></trkpt><trkpt lat="46.1423542" lon="13.7149787"><ele>175.66666666666666</ele><time>2026-04-08T11:34:07.18Z</time></trkpt><trkpt lat="46.1421345" lon="13.7149832"><ele>174.33333333333331</ele><time>2026-04-08T11:34:08.175Z</time></trkpt><trkpt lat="46.1419261" lon="13.7149807"><ele>173.0</ele><time>2026-04-08T11:34:09.181Z</time></trkpt><trkpt lat="46.1417251" lon="13.7149635"><ele>172.0</ele><time>2026-04-08T11:34:10.176Z</time></trkpt><trkpt lat="46.1415316" lon="13.7148883"><ele>171.0</ele><time>2026-04-08T11:34:11.174Z</time></trkpt><trkpt lat="46.1411542" lon="13.7146291"><ele>171.0</ele><time>2026-04-08T11:34:13.175Z</time></trkpt><trkpt lat="46.1409592" lon="13.7145188"><ele>171.0</ele><time>2026-04-08T11:34:14.177Z</time></trkpt><trkpt lat="46.1407718" lon="13.714446"><ele>171.0</ele><time>2026-04-08T11:34:15.188Z</time></trkpt><trkpt lat="46.1406016" lon="13.7143865"><ele>170.0</ele><time>2026-04-08T11:34:16.183Z</time></trkpt><trkpt lat="46.1404465" lon="13.7143481"><ele>169.0</ele><time>2026-04-08T11:34:17.18Z</time></trkpt><trkpt lat="46.1403005" lon="13.7143734"><ele>168.0</ele><time>2026-04-08T11:34:18.19Z</time></trkpt><trkpt lat="46.1401641" lon="13.7144664"><ele>168.0</ele><time>2026-04-08T11:34:19.172Z</time></trkpt><trkpt lat="46.1400473" lon="13.7146286"><ele>168.0</ele><time>2026-04-08T11:34:20.177Z</time></trkpt><trkpt lat="46.1397821" lon="13.714909"><ele>168.0</ele><time>2026-04-08T11:34:22.192Z</time></trkpt><trkpt lat="46.1396011" lon="13.7149544"><ele>168.0</ele><time>2026-04-08T11:34:23.183Z</time></trkpt><trkpt lat="46.1392103" lon="13.7148885"><ele>174.0</ele><time>2026-04-08T11:34:25.182Z</time></trkpt><trkpt lat="46.1390073" lon="13.7148487"><ele>180.0</ele><time>2026-04-08T11:34:26.189Z</time></trkpt><trkpt lat="46.1388134" lon="13.7148483"><ele>186.0</ele><time>2026-04-08T11:34:27.201Z</time></trkpt><trkpt lat="46.1386379" lon="13.7149039"><ele>186.0</ele><time>2026-04-08T11:34:28.179Z</time></trkpt><trkpt lat="46.1384856" lon="13.7150254"><ele>186.0</ele><time>2026-04-08T11:34:29.182Z</time></trkpt><trkpt lat="46.1383653" lon="13.7152187"><ele>186.0</ele><time>2026-04-08T11:34:30.174Z</time></trkpt><trkpt lat="46.1382614" lon="13.7154334"><ele>188.66666666666669</ele><time>2026-04-08T11:34:31.185Z</time></trkpt><trkpt lat="46.1381529" lon="13.7156806"><ele>191.33333333333334</ele><time>2026-04-08T11:34:32.18Z</time></trkpt><trkpt lat="46.1380254" lon="13.71592"><ele>194.0</ele><time>2026-04-08T11:34:33.17Z</time></trkpt><trkpt lat="46.1378789" lon="13.7161724"><ele>189.0</ele><time>2026-04-08T11:34:34.173Z</time></trkpt><trkpt lat="46.1461058" lon="13.7159438"><ele>183.0</ele><time>2026-04-08T11:33:44.183Z</time></trkpt><trkpt lat="46.1459577" lon="13.7161293"><ele>177.0</ele><time>2026-04-08T11:33:45.182Z</time></trkpt><trkpt lat="46.1458321" lon="13.716288"><ele>171.0</ele><time>2026-04-08T11:33:46.181Z</time></trkpt><trkpt lat="46.1457192" lon="13.7163885"><ele>171.75</ele><time>2026-04-08T11:33:47.187Z</time></trkpt><trkpt lat="46.1455931" lon="13.7164169"><ele>172.5</ele><time>2026-04-08T11:33:48.175Z</time></trkpt><trkpt lat="46.145449" lon="13.7163842"><ele>173.25</ele><time>2026-04-08T11:33:49.177Z</time></trkpt><trkpt lat="46.1452863" lon="13.7163071"><ele>174.0</ele><time>2026-04-08T11:33:50.189Z</time></trkpt><trkpt lat="46.1451088" lon="13.7162203"><ele>174.0</ele><time>2026-04-08T11:33:51.192Z</time></trkpt><trkpt lat="46.1449169" lon="13.7161368"><ele>174.0</ele><time>2026-04-08T11:33:52.183Z</time></trkpt><trkpt lat="46.1447146" lon="13.7160688"><ele>174.0</ele><time>2026-04-08T11:33:53.174Z</time></trkpt><trkpt lat="46.1445038" lon="13.7160223"><ele>174.33333333333334</ele><time>2026-04-08T11:33:54.187Z</time></trkpt><trkpt lat="46.1443063" lon="13.7160233"><ele>174.66666666666669</ele><time>2026-04-08T11:33:55.185Z</time></trkpt><trkpt lat="46.1441311" lon="13.7160398"><ele>175.0</ele><time>2026-04-08T11:33:56.192Z</time></trkpt><trkpt lat="46.1439656" lon="13.7160339"><ele>175.0</ele><time>2026-04-08T11:33:57.187Z</time></trkpt><trkpt lat="46.1438008" lon="13.7159915"><ele>175.0</ele><time>2026-04-08T11:33:58.194Z</time></trkpt><trkpt lat="46.1436492" lon="13.71588"><ele>175.0</ele><time>2026-04-08T11:33:59.173Z</time></trkpt><trkpt lat="46.1435066" lon="13.7157181"><ele>175.0</ele><time>2026-04-08T11:34:00.183Z</time></trkpt><trkpt lat="46.1433674" lon="13.7155256"><ele>175.0</ele><time>2026-04-08T11:34:01.197Z</time></trkpt><trkpt lat="46.1432283" lon="13.715344"><ele>175.0</ele><time>2026-04-08T11:34:02.187Z</time></trkpt><trkpt lat="46.1430903" lon="13.7151831"><ele>176.0</ele><time>2026-04-08T11:34:03.193Z</time></trkpt><trkpt lat="46.1429383" lon="13.7150567"><ele>177.0</ele><time>2026-04-08T11:34:04.176Z</time></trkpt><trkpt lat="46.1425666" lon="13.7149838"><ele>175.66666666666666</ele><time>2026-04-08T11:34:06.204Z</time></trkpt><trkpt lat="46.1423542" lon="13.7149787"><ele>174.33333333333331</ele><time>2026-04-08T11:34:07.18Z</time></trkpt><trkpt lat="46.1421345" lon="13.7149832"><ele>173.0</ele><time>2026-04-08T11:34:08.175Z</time></trkpt><trkpt lat="46.1419261" lon="13.7149807"><ele>173.0</ele><time>2026-04-08T11:34:09.181Z</time></trkpt><trkpt lat="46.1417251" lon="13.7149635"><ele>173.0</ele><time>2026-04-08T11:34:10.176Z</time></trkpt><trkpt lat="46.1415316" lon="13.7148883"><ele>173.0</ele><time>2026-04-08T11:34:11.174Z</time></trkpt><trkpt lat="46.1411542" lon="13.7146291"><ele>172.33333333333331</ele><time>2026-04-08T11:34:13.175Z</time></trkpt><trkpt lat="46.1409592" lon="13.7145188"><ele>171.66666666666666</ele><time>2026-04-08T11:34:14.177Z</time></trkpt><trkpt lat="46.1407718" lon="13.714446"><ele>171.0</ele><time>2026-04-08T11:34:15.188Z</time></trkpt><trkpt lat="46.1406016" lon="13.7143865"><ele>170.0</ele><time>2026-04-08T11:34:16.183Z</time></trkpt><trkpt lat="46.1404465" lon="13.7143481"><ele>169.0</ele><time>2026-04-08T11:34:17.18Z</time></trkpt><trkpt lat="46.1403005" lon="13.7143734"><ele>168.0</ele><time>2026-04-08T11:34:18.19Z</time></trkpt><trkpt lat="46.1401641" lon="13.7144664"><ele>168.0</ele><time>2026-04-08T11:34:19.172Z</time></trkpt><trkpt lat="46.1400473" lon="13.7146286"><ele>168.0</ele><time>2026-04-08T11:34:20.177Z</time></trkpt><trkpt lat="46.1397821" lon="13.714909"><ele>168.0</ele><time>2026-04-08T11:34:22.192Z</time></trkpt><trkpt lat="46.1396011" lon="13.7149544"><ele>168.0</ele><time>2026-04-08T11:34:23.183Z</time></trkpt><trkpt lat="46.1392103" lon="13.7148885"><ele>174.0</ele><time>2026-04-08T11:34:25.182Z</time></trkpt><trkpt lat="46.1390073" lon="13.7148487"><ele>180.0</ele><time>2026-04-08T11:34:26.189Z</time></trkpt><trkpt lat="46.1388134" lon="13.7148483"><ele>186.0</ele><time>2026-04-08T11:34:27.201Z</time></trkpt><trkpt lat="46.1386379" lon="13.7149039"><ele>186.0</ele><time>2026-04-08T11:34:28.179Z</time></trkpt><trkpt lat="46.1384856" lon="13.7150254"><ele>186.0</ele><time>2026-04-08T11:34:29.182Z</time></trkpt><trkpt lat="46.1383653" lon="13.7152187"><ele>186.0</ele><time>2026-04-08T11:34:30.174Z</time></trkpt><trkpt lat="46.1382614" lon="13.7154334"><ele>188.66666666666669</ele><time>2026-04-08T11:34:31.185Z</time></trkpt><trkpt lat="46.1381529" lon="13.7156806"><ele>191.33333333333334</ele><time>2026-04-08T11:34:32.18Z</time></trkpt><trkpt lat="46.1380254" lon="13.71592"><ele>194.0</ele><time>2026-04-08T11:34:33.17Z</time></trkpt><trkpt lat="46.1378789" lon="13.7161724"><ele>179.0</ele><time>2026-04-08T11:34:34.173Z</time></trkpt><trkpt lat="46.1377136" lon="13.7164257"><ele>164.0</ele><time>2026-04-08T11:34:35.174Z</time></trkpt><trkpt lat="46.1375416" lon="13.7166689"><ele>172.33333333333331</ele><time>2026-04-08T11:34:36.183Z</time></trkpt><trkpt lat="46.1373812" lon="13.7168892"><ele>180.66666666666666</ele><time>2026-04-08T11:34:37.196Z</time></trkpt><trkpt lat="46.13725" lon="13.7170698"><ele>189.0</ele><time>2026-04-08T11:34:38.186Z</time></trkpt><trkpt lat="46.1371522" lon="13.7172414"><ele>189.0</ele><time>2026-04-08T11:34:39.174Z</time></trkpt><trkpt lat="46.1370945" lon="13.7174529"><ele>189.0</ele><time>2026-04-08T11:34:40.166Z</time></trkpt><trkpt lat="46.1370959" lon="13.7177247"><ele>189.0</ele><time>2026-04-08T11:34:41.167Z</time></trkpt><trkpt lat="46.1370912" lon="13.71802"><ele>182.0</ele><time>2026-04-08T11:34:42.17Z</time></trkpt><trkpt lat="46.1370587" lon="13.7183313"><ele>175.0</ele><time>2026-04-08T11:34:43.168Z</time></trkpt><trkpt lat="46.1370073" lon="13.7186221"><ele>168.0</ele><time>2026-04-08T11:34:44.171Z</time></trkpt><trkpt lat="46.1369488" lon="13.7188786"><ele>158.5</ele><time>2026-04-08T11:34:45.182Z</time></trkpt><trkpt lat="46.1368117" lon="13.7192517"><ele>149.0</ele><time>2026-04-08T11:34:47.186Z</time></trkpt><trkpt lat="46.136688" lon="13.7193995"><ele>145.0</ele><time>2026-04-08T11:34:48.185Z</time></trkpt><trkpt lat="46.1365241" lon="13.7195254"><ele>141.0</ele><time>2026-04-08T11:34:49.176Z</time></trkpt><trkpt lat="46.1363533" lon="13.7196386"><ele>137.0</ele><time>2026-04-08T11:34:50.172Z</time></trkpt><trkpt lat="46.13619" lon="13.7197393"><ele>137.0</ele><time>2026-04-08T11:34:51.179Z</time></trkpt><trkpt lat="46.1360397" lon="13.7198007"><ele>137.0</ele><time>2026-04-08T11:34:52.184Z</time></trkpt><trkpt lat="46.1358778" lon="13.7198164"><ele>137.0</ele><time>2026-04-08T11:34:53.19Z</time></trkpt><trkpt lat="46.1357211" lon="13.7197563"><ele>136.33333333333331</ele><time>2026-04-08T11:34:54.172Z</time></trkpt><trkpt lat="46.13557" lon="13.7196502"><ele>135.66666666666666</ele><time>2026-04-08T11:34:55.169Z</time></trkpt><trkpt lat="46.1354222" lon="13.7195266"><ele>135.0</ele><time>2026-04-08T11:34:56.181Z</time></trkpt><trkpt lat="46.1352688" lon="13.7194315"><ele>137.0</ele><time>2026-04-08T11:34:57.187Z</time></trkpt><trkpt lat="46.1350925" lon="13.7193512"><ele>139.0</ele><time>2026-04-08T11:34:58.188Z</time></trkpt><trkpt lat="46.1349161" lon="13.7192363"><ele>141.0</ele><time>2026-04-08T11:34:59.2Z</time></trkpt><trkpt lat="46.1347549" lon="13.7191042"><ele>136.0</ele><time>2026-04-08T11:35:00.201Z</time></trkpt><trkpt lat="46.1346191" lon="13.7189849"><ele>131.0</ele><time>2026-04-08T11:35:01.172Z</time></trkpt><trkpt lat="46.1344959" lon="13.7188796"><ele>126.0</ele><time>2026-04-08T11:35:02.174Z</time></trkpt><trkpt lat="46.1342929" lon="13.7185888"><ele>128.0</ele><time>2026-04-08T11:35:04.189Z</time></trkpt><trkpt lat="46.1341842" lon="13.7184115"><ele>130.0</ele><time>2026-04-08T11:35:05.171Z</time></trkpt><trkpt lat="46.134044" lon="13.7181994"><ele>132.0</ele><time>2026-04-08T11:35:06.19Z</time></trkpt><trkpt lat="46.1338767" lon="13.7179635"><ele>136.5</ele><time>2026-04-08T11:35:07.175Z</time></trkpt><trkpt lat="46.1337015" lon="13.7177085"><ele>141.0</ele><time>2026-04-08T11:35:08.179Z</time></trkpt><trkpt lat="46.1335185" lon="13.7174663"><ele>141.0</ele><time>2026-04-08T11:35:09.175Z</time></trkpt><trkpt lat="46.1333258" lon="13.7172354"><ele>141.0</ele><time>2026-04-08T11:35:10.17Z</time></trkpt><trkpt lat="46.1331262" lon="13.7170187"><ele>143.0</ele><time>2026-04-08T11:35:11.185Z</time></trkpt><trkpt lat="46.1329099" lon="13.7168198"><ele>145.0</ele><time>2026-04-08T11:35:12.172Z</time></trkpt><trkpt lat="46.1326919" lon="13.7166545"><ele>145.0</ele><time>2026-04-08T11:35:13.19Z</time></trkpt><trkpt lat="46.1324843" lon="13.7165105"><ele>145.0</ele><time>2026-04-08T11:35:14.175Z</time></trkpt><trkpt lat="46.1322831" lon="13.7163834"><ele>145.66666666666669</ele><time>2026-04-08T11:35:15.166Z</time></trkpt><trkpt lat="46.1320899" lon="13.7162588"><ele>146.33333333333334</ele><time>2026-04-08T11:35:16.183Z</time></trkpt><trkpt lat="46.1319085" lon="13.7160954"><ele>147.0</ele><time>2026-04-08T11:35:17.179Z</time></trkpt><trkpt lat="46.1317295" lon="13.715893"><ele>135.5</ele><time>2026-04-08T11:35:18.166Z</time></trkpt><trkpt lat="46.131535" lon="13.7156908"><ele>124.0</ele><time>2026-04-08T11:35:19.178Z</time></trkpt><trkpt lat="46.1313242" lon="13.7155123"><ele>124.0</ele><time>2026-04-08T11:35:20.17Z</time></trkpt><trkpt lat="46.1311027" lon="13.7153605"><ele>124.0</ele><time>2026-04-08T11:35:21.166Z</time></trkpt><trkpt lat="46.1308829" lon="13.7152315"><ele>123.66666666666667</ele><time>2026-04-08T11:35:22.172Z</time></trkpt><trkpt lat="46.1306763" lon="13.7151066"><ele>123.33333333333334</ele><time>2026-04-08T11:35:23.165Z</time></trkpt><trkpt lat="46.1304853" lon="13.714952"><ele>123.0</ele><time>2026-04-08T11:35:24.184Z</time></trkpt><trkpt lat="46.1303056" lon="13.7147602"><ele>123.0</ele><time>2026-04-08T11:35:25.18Z</time></trkpt><trkpt lat="46.1301336" lon="13.7145352"><ele>123.0</ele><time>2026-04-08T11:35:26.183Z</time></trkpt><trkpt lat="46.1299474" lon="13.7143042"><ele>124.0</ele><time>2026-04-08T11:35:27.172Z</time></trkpt><trkpt lat="46.1297376" lon="13.7140873"><ele>125.0</ele><time>2026-04-08T11:35:28.184Z</time></trkpt><trkpt lat="46.1295092" lon="13.7138827"><ele>125.0</ele><time>2026-04-08T11:35:29.175Z</time></trkpt><trkpt lat="46.1292629" lon="13.7136693"><ele>125.0</ele><time>2026-04-08T11:35:30.175Z</time></trkpt><trkpt lat="46.1290217" lon="13.7134558"><ele>130.0</ele><time>2026-04-08T11:35:31.181Z</time></trkpt><trkpt lat="46.1287898" lon="13.7132519"><ele>135.0</ele><time>2026-04-08T11:35:32.173Z</time></trkpt><trkpt lat="46.1285659" lon="13.7130595"><ele>135.0</ele><time>2026-04-08T11:35:33.179Z</time></trkpt><trkpt lat="46.1283419" lon="13.7128844"><ele>135.0</ele><time>2026-04-08T11:35:34.183Z</time></trkpt><trkpt lat="46.128106" lon="13.7127271"><ele>142.0</ele><time>2026-04-08T11:35:35.169Z</time></trkpt><trkpt lat="46.1278774" lon="13.7125995"><ele>149.0</ele><time>2026-04-08T11:35:36.171Z</time></trkpt><trkpt lat="46.1276582" lon="13.7125119"><ele>149.0</ele><time>2026-04-08T11:35:37.17Z</time></trkpt><trkpt lat="46.1274595" lon="13.712448"><ele>149.0</ele><time>2026-04-08T11:35:38.173Z</time></trkpt><trkpt lat="46.1272866" lon="13.7123922"><ele>149.0</ele><time>2026-04-08T11:35:39.179Z</time></trkpt><trkpt lat="46.1271368" lon="13.7123031"><ele>144.33333333333331</ele><time>2026-04-08T11:35:40.168Z</time></trkpt><trkpt lat="46.1269982" lon="13.7121803"><ele>139.66666666666666</ele><time>2026-04-08T11:35:41.168Z</time></trkpt><trkpt lat="46.126889" lon="13.7120214"><ele>135.0</ele><time>2026-04-08T11:35:42.188Z</time></trkpt><trkpt lat="46.1268437" lon="13.7118034"><ele>135.0</ele><time>2026-04-08T11:35:43.179Z</time></trkpt><trkpt lat="46.1268716" lon="13.7115769"><ele>135.0</ele><time>2026-04-08T11:35:44.169Z</time></trkpt><trkpt lat="46.1269294" lon="13.7113348"><ele>135.0</ele><time>2026-04-08T11:35:45.18Z</time></trkpt><trkpt lat="46.1270125" lon="13.7110722"><ele>136.0</ele><time>2026-04-08T11:35:46.17Z</time></trkpt><trkpt lat="46.1271022" lon="13.7107648"><ele>137.0</ele><time>2026-04-08T11:35:47.2Z</time></trkpt><trkpt lat="46.1271843" lon="13.7104358"><ele>136.5</ele><time>2026-04-08T11:35:48.197Z</time></trkpt><trkpt lat="46.127257" lon="13.7101116"><ele>136.0</ele><time>2026-04-08T11:35:49.183Z</time></trkpt><trkpt lat="46.1273217" lon="13.7097984"><ele>136.0</ele><time>2026-04-08T11:35:50.181Z</time></trkpt><trkpt lat="46.1273718" lon="13.709494"><ele>136.0</ele><time>2026-04-08T11:35:51.176Z</time></trkpt><trkpt lat="46.1273847" lon="13.709163"><ele>136.0</ele><time>2026-04-08T11:35:52.175Z</time></trkpt><trkpt lat="46.1273591" lon="13.7087964"><ele>136.0</ele><time>2026-04-08T11:35:53.174Z</time></trkpt><trkpt lat="46.1273293" lon="13.7084156"><ele>136.0</ele><time>2026-04-08T11:35:54.175Z</time></trkpt><trkpt lat="46.1273026" lon="13.7080283"><ele>132.5</ele><time>2026-04-08T11:35:55.172Z</time></trkpt><trkpt lat="46.1272663" lon="13.7076311"><ele>129.0</ele><time>2026-04-08T11:35:56.178Z</time></trkpt><trkpt lat="46.12721" lon="13.7072199"><ele>132.0</ele><time>2026-04-08T11:35:57.188Z</time></trkpt><trkpt lat="46.1271363" lon="13.706803"><ele>135.0</ele><time>2026-04-08T11:35:58.174Z</time></trkpt><trkpt lat="46.1270481" lon="13.7063916"><ele>142.5</ele><time>2026-04-08T11:35:59.171Z</time></trkpt><trkpt lat="46.1269507" lon="13.7060054"><ele>150.0</ele><time>2026-04-08T11:36:00.186Z</time></trkpt><trkpt lat="46.1268543" lon="13.7056382"><ele>149.0</ele><time>2026-04-08T11:36:01.179Z</time></trkpt><trkpt lat="46.1266928" lon="13.7050064"><ele>149.0</ele><time>2026-04-08T11:36:03.179Z</time></trkpt><trkpt lat="46.1266009" lon="13.7047165"><ele>149.0</ele><time>2026-04-08T11:36:04.169Z</time></trkpt><trkpt lat="46.1264721" lon="13.7044403"><ele>145.0</ele><time>2026-04-08T11:36:05.172Z</time></trkpt><trkpt lat="46.1263275" lon="13.7041576"><ele>141.0</ele><time>2026-04-08T11:36:06.169Z</time></trkpt><trkpt lat="46.1261856" lon="13.7038685"><ele>141.0</ele><time>2026-04-08T11:36:07.174Z</time></trkpt><trkpt lat="46.12607" lon="13.7035822"><ele>141.0</ele><time>2026-04-08T11:36:08.175Z</time></trkpt><trkpt lat="46.1259853" lon="13.7033065"><ele>141.0</ele><time>2026-04-08T11:36:09.178Z</time></trkpt><trkpt lat="46.1259168" lon="13.7030491"><ele>138.33333333333334</ele><time>2026-04-08T11:36:10.172Z</time></trkpt><trkpt lat="46.1258547" lon="13.7027992"><ele>135.66666666666669</ele><time>2026-04-08T11:36:11.174Z</time></trkpt><trkpt lat="46.1257827" lon="13.7025649"><ele>133.0</ele><time>2026-04-08T11:36:12.182Z</time></trkpt><trkpt lat="46.1256651" lon="13.7023523"><ele>132.0</ele><time>2026-04-08T11:36:13.163Z</time></trkpt><trkpt lat="46.1255234" lon="13.7021521"><ele>131.0</ele><time>2026-04-08T11:36:14.193Z</time></trkpt><trkpt lat="46.1253845" lon="13.7019283"><ele>130.0</ele><time>2026-04-08T11:36:15.174Z</time></trkpt><trkpt lat="46.1252492" lon="13.7017146"><ele>130.0</ele><time>2026-04-08T11:36:16.174Z</time></trkpt><trkpt lat="46.1251083" lon="13.7014977"><ele>130.0</ele><time>2026-04-08T11:36:17.17Z</time></trkpt><trkpt lat="46.1249778" lon="13.7012711"><ele>130.0</ele><time>2026-04-08T11:36:18.173Z</time></trkpt><trkpt lat="46.1248507" lon="13.7010325"><ele>127.66666666666667</ele><time>2026-04-08T11:36:19.185Z</time></trkpt><trkpt lat="46.1247314" lon="13.7008009"><ele>125.33333333333334</ele><time>2026-04-08T11:36:20.172Z</time></trkpt><trkpt lat="46.1246075" lon="13.7005899"><ele>123.0</ele><time>2026-04-08T11:36:21.17Z</time></trkpt><trkpt lat="46.1243526" lon="13.7002125"><ele>128.0</ele><time>2026-04-08T11:36:23.165Z</time></trkpt><trkpt lat="46.1242311" lon="13.7000314"><ele>133.0</ele><time>2026-04-08T11:36:24.187Z</time></trkpt><trkpt lat="46.1241059" lon="13.6998596"><ele>138.0</ele><time>2026-04-08T11:36:25.169Z</time></trkpt><trkpt lat="46.1239784" lon="13.6996954"><ele>138.0</ele><time>2026-04-08T11:36:26.178Z</time></trkpt><trkpt lat="46.1238442" lon="13.6995401"><ele>138.0</ele><time>2026-04-08T11:36:27.174Z</time></trkpt><trkpt lat="46.1237095" lon="13.6993833"><ele>138.0</ele><time>2026-04-08T11:36:28.167Z</time></trkpt><trkpt lat="46.1235787" lon="13.6992372"><ele>136.75</ele><time>2026-04-08T11:36:29.166Z</time></trkpt><trkpt lat="46.1234531" lon="13.6991035"><ele>135.5</ele><time>2026-04-08T11:36:30.167Z</time></trkpt><trkpt lat="46.1233342" lon="13.6989893"><ele>134.25</ele><time>2026-04-08T11:36:31.181Z</time></trkpt><trkpt lat="46.1232168" lon="13.6989018"><ele>133.0</ele><time>2026-04-08T11:36:32.18Z</time></trkpt><trkpt lat="46.1230987" lon="13.6988565"><ele>131.0</ele><time>2026-04-08T11:36:33.168Z</time></trkpt><trkpt lat="46.1229918" lon="13.698833"><ele>129.0</ele><time>2026-04-08T11:36:34.174Z</time></trkpt><trkpt lat="46.1228922" lon="13.6988145"><ele>127.00000000000001</ele><time>2026-04-08T11:36:35.267Z</time></trkpt><trkpt lat="46.1227978" lon="13.6987986"><ele>125.0</ele><time>2026-04-08T11:36:36.169Z</time></trkpt><trkpt lat="46.1227032" lon="13.6987845"><ele>123.0</ele><time>2026-04-08T11:36:37.173Z</time></trkpt><trkpt lat="46.1226119" lon="13.6987737"><ele>123.0</ele><time>2026-04-08T11:36:38.188Z</time></trkpt><trkpt lat="46.1225098" lon="13.6987639"><ele>123.00000000000001</ele><time>2026-04-08T11:36:39.185Z</time></trkpt><trkpt lat="46.1224069" lon="13.6987472"><ele>123.00000000000001</ele><time>2026-04-08T11:36:40.185Z</time></trkpt><trkpt lat="46.1223005" lon="13.6987206"><ele>123.0</ele><time>2026-04-08T11:36:41.163Z</time></trkpt><trkpt lat="46.1221895" lon="13.6986857"><ele>123.0</ele><time>2026-04-08T11:36:42.174Z</time></trkpt><trkpt lat="46.1220738" lon="13.6986557"><ele>127.5</ele><time>2026-04-08T11:36:43.165Z</time></trkpt><trkpt lat="46.1219563" lon="13.6986271"><ele>132.0</ele><time>2026-04-08T11:36:44.166Z</time></trkpt><trkpt lat="46.1218353" lon="13.6986113"><ele>136.5</ele><time>2026-04-08T11:36:45.17Z</time></trkpt><trkpt lat="46.1217097" lon="13.6985915"><ele>141.0</ele><time>2026-04-08T11:36:46.178Z</time></trkpt><trkpt lat="46.1215838" lon="13.6985666"><ele>140.5</ele><time>2026-04-08T11:36:47.163Z</time></trkpt><trkpt lat="46.1214592" lon="13.6985438"><ele>140.0</ele><time>2026-04-08T11:36:48.171Z</time></trkpt><trkpt lat="46.1213312" lon="13.698519"><ele>139.5</ele><time>2026-04-08T11:36:49.182Z</time></trkpt><trkpt lat="46.121194" lon="13.6984936"><ele>139.0</ele><time>2026-04-08T11:36:50.176Z</time></trkpt><trkpt lat="46.1210458" lon="13.6984652"><ele>139.0</ele><time>2026-04-08T11:36:51.166Z</time></trkpt><trkpt lat="46.1208789" lon="13.6984421"><ele>139.0</ele><time>2026-04-08T11:36:52.164Z</time></trkpt><trkpt lat="46.1207081" lon="13.6984198"><ele>139.0</ele><time>2026-04-08T11:36:53.172Z</time></trkpt><trkpt lat="46.1205374" lon="13.6984014"><ele>137.0</ele><time>2026-04-08T11:36:54.161Z</time></trkpt><trkpt lat="46.1203641" lon="13.6983842"><ele>135.0</ele><time>2026-04-08T11:36:55.166Z</time></trkpt><trkpt lat="46.1201972" lon="13.6983652"><ele>133.0</ele><time>2026-04-08T11:36:56.171Z</time></trkpt><trkpt lat="46.1200346" lon="13.6983469"><ele>133.0</ele><time>2026-04-08T11:36:57.165Z</time></trkpt><trkpt lat="46.1198726" lon="13.6983219"><ele>133.0</ele><time>2026-04-08T11:36:58.162Z</time></trkpt><trkpt lat="46.1197148" lon="13.6982926"><ele>133.0</ele><time>2026-04-08T11:36:59.162Z</time></trkpt><trkpt lat="46.1195595" lon="13.6982562"><ele>133.0</ele><time>2026-04-08T11:37:00.156Z</time></trkpt><trkpt lat="46.1194029" lon="13.6982128"><ele>133.0</ele><time>2026-04-08T11:37:01.166Z</time></trkpt><trkpt lat="46.1192461" lon="13.6981721"><ele>133.0</ele><time>2026-04-08T11:37:02.18Z</time></trkpt><trkpt lat="46.1190871" lon="13.6981248"><ele>133.33333333333334</ele><time>2026-04-08T11:37:03.168Z</time></trkpt><trkpt lat="46.118927" lon="13.6980733"><ele>133.66666666666666</ele><time>2026-04-08T11:37:04.168Z</time></trkpt><trkpt lat="46.1187668" lon="13.6980156"><ele>134.0</ele><time>2026-04-08T11:37:05.168Z</time></trkpt><trkpt lat="46.1186168" lon="13.6979722"><ele>134.0</ele><time>2026-04-08T11:37:06.18Z</time></trkpt><trkpt lat="46.118474" lon="13.6979232"><ele>134.0</ele><time>2026-04-08T11:37:07.166Z</time></trkpt><trkpt lat="46.1183384" lon="13.69787"><ele>134.0</ele><time>2026-04-08T11:37:08.161Z</time></trkpt><trkpt lat="46.118206" lon="13.6978172"><ele>134.0</ele><time>2026-04-08T11:37:09.161Z</time></trkpt><trkpt lat="46.1180725" lon="13.6977753"><ele>137.66666666666666</ele><time>2026-04-08T11:37:10.175Z</time></trkpt><trkpt lat="46.1179418" lon="13.6977283"><ele>141.33333333333334</ele><time>2026-04-08T11:37:11.162Z</time></trkpt><trkpt lat="46.1178078" lon="13.6976712"><ele>145.0</ele><time>2026-04-08T11:37:12.167Z</time></trkpt><trkpt lat="46.1175525" lon="13.6975148"><ele>145.0</ele><time>2026-04-08T11:37:14.171Z</time></trkpt><trkpt lat="46.1174228" lon="13.6974292"><ele>145.0</ele><time>2026-04-08T11:37:15.159Z</time></trkpt><trkpt lat="46.1172859" lon="13.6973602"><ele>145.0</ele><time>2026-04-08T11:37:16.156Z</time></trkpt><trkpt lat="46.1171412" lon="13.6973157"><ele>145.0</ele><time>2026-04-08T11:37:17.174Z</time></trkpt><trkpt lat="46.1169994" lon="13.6972756"><ele>144.75</ele><time>2026-04-08T11:37:18.182Z</time></trkpt><trkpt lat="46.1168603" lon="13.6972267"><ele>144.5</ele><time>2026-04-08T11:37:19.164Z</time></trkpt><trkpt lat="46.1167246" lon="13.697155"><ele>144.25</ele><time>2026-04-08T11:37:20.161Z</time></trkpt><trkpt lat="46.1165937" lon="13.6970543"><ele>144.0</ele><time>2026-04-08T11:37:21.16Z</time></trkpt><trkpt lat="46.1164638" lon="13.6969373"><ele>138.33333333333334</ele><time>2026-04-08T11:37:22.157Z</time></trkpt><trkpt lat="46.1163315" lon="13.696819"><ele>132.66666666666669</ele><time>2026-04-08T11:37:23.161Z</time></trkpt><trkpt lat="46.1162031" lon="13.6966982"><ele>127.0</ele><time>2026-04-08T11:37:24.168Z</time></trkpt><trkpt lat="46.1160697" lon="13.6965765"><ele>127.0</ele><time>2026-04-08T11:37:25.171Z</time></trkpt><trkpt lat="46.1159386" lon="13.696445"><ele>127.0</ele><time>2026-04-08T11:37:26.179Z</time></trkpt><trkpt lat="46.1158046" lon="13.6963093"><ele>127.0</ele><time>2026-04-08T11:37:27.164Z</time></trkpt><trkpt lat="46.1155423" lon="13.6959818"><ele>124.33333333333334</ele><time>2026-04-08T11:37:29.167Z</time></trkpt><trkpt lat="46.1154238" lon="13.6958022"><ele>121.66666666666666</ele><time>2026-04-08T11:37:30.177Z</time></trkpt><trkpt lat="46.1153106" lon="13.6956218"><ele>119.0</ele><time>2026-04-08T11:37:31.175Z</time></trkpt><trkpt lat="46.1152015" lon="13.6954432"><ele>119.0</ele><time>2026-04-08T11:37:32.153Z</time></trkpt><trkpt lat="46.1150999" lon="13.6952591"><ele>119.0</ele><time>2026-04-08T11:37:33.16Z</time></trkpt><trkpt lat="46.1150063" lon="13.6950655"><ele>119.0</ele><time>2026-04-08T11:37:34.164Z</time></trkpt><trkpt lat="46.1148492" lon="13.6946658"><ele>119.5</ele><time>2026-04-08T11:37:36.161Z</time></trkpt><trkpt lat="46.1147836" lon="13.6944734"><ele>120.0</ele><time>2026-04-08T11:37:37.162Z</time></trkpt><trkpt lat="46.1147171" lon="13.6942858"><ele>120.5</ele><time>2026-04-08T11:37:38.158Z</time></trkpt><trkpt lat="46.1146523" lon="13.6941047"><ele>121.0</ele><time>2026-04-08T11:37:39.157Z</time></trkpt><trkpt lat="46.1145791" lon="13.6939396"><ele>121.0</ele><time>2026-04-08T11:37:40.165Z</time></trkpt><trkpt lat="46.1145048" lon="13.6937915"><ele>121.0</ele><time>2026-04-08T11:37:41.176Z</time></trkpt><trkpt lat="46.1144115" lon="13.6936763"><ele>121.0</ele><time>2026-04-08T11:37:42.158Z</time></trkpt><trkpt lat="46.1143146" lon="13.6935575"><ele>121.0</ele><time>2026-04-08T11:37:43.157Z</time></trkpt><trkpt lat="46.1142222" lon="13.6934306"><ele>122.25</ele><time>2026-04-08T11:37:44.173Z</time></trkpt><trkpt lat="46.1141409" lon="13.6932883"><ele>123.5</ele><time>2026-04-08T11:37:45.157Z</time></trkpt><trkpt lat="46.1140805" lon="13.6931253"><ele>124.75</ele><time>2026-04-08T11:37:46.168Z</time></trkpt><trkpt lat="46.1140441" lon="13.692958"><ele>126.0</ele><time>2026-04-08T11:37:47.159Z</time></trkpt><trkpt lat="46.1140185" lon="13.6927772"><ele>129.25</ele><time>2026-04-08T11:37:48.16Z</time></trkpt><trkpt lat="46.1139909" lon="13.692601"><ele>132.5</ele><time>2026-04-08T11:37:49.173Z</time></trkpt><trkpt lat="46.1139746" lon="13.6924265"><ele>135.75</ele><time>2026-04-08T11:37:50.158Z</time></trkpt><trkpt lat="46.1139763" lon="13.6922563"><ele>139.0</ele><time>2026-04-08T11:37:51.169Z</time></trkpt><trkpt lat="46.1140006" lon="13.6920759"><ele>139.0</ele><time>2026-04-08T11:37:52.157Z</time></trkpt><trkpt lat="46.1140342" lon="13.6918905"><ele>139.0</ele><time>2026-04-08T11:37:53.158Z</time></trkpt><trkpt lat="46.1140733" lon="13.6917092"><ele>139.0</ele><time>2026-04-08T11:37:54.16Z</time></trkpt><trkpt lat="46.1141208" lon="13.6915295"><ele>139.0</ele><time>2026-04-08T11:37:55.161Z</time></trkpt><trkpt lat="46.1141552" lon="13.6913727"><ele>139.0</ele><time>2026-04-08T11:37:56.167Z</time></trkpt><trkpt lat="46.1141829" lon="13.6912322"><ele>139.0</ele><time>2026-04-08T11:37:57.167Z</time></trkpt><trkpt lat="46.1142006" lon="13.6911028"><ele>139.0</ele><time>2026-04-08T11:37:58.178Z</time></trkpt><trkpt lat="46.1142172" lon="13.69099"><ele>139.0</ele><time>2026-04-08T11:37:59.151Z</time></trkpt><trkpt lat="46.1142335" lon="13.6908881"><ele>139.0</ele><time>2026-04-08T11:38:00.164Z</time></trkpt><trkpt lat="46.1142497" lon="13.6907841"><ele>139.0</ele><time>2026-04-08T11:38:01.169Z</time></trkpt><trkpt lat="46.1142599" lon="13.6906722"><ele>138.16666666666669</ele><time>2026-04-08T11:38:02.165Z</time></trkpt><trkpt lat="46.1142721" lon="13.6905646"><ele>137.33333333333334</ele><time>2026-04-08T11:38:03.162Z</time></trkpt><trkpt lat="46.1142845" lon="13.6904432"><ele>136.5</ele><time>2026-04-08T11:38:04.164Z</time></trkpt><trkpt lat="46.114309" lon="13.6903111"><ele>135.66666666666666</ele><time>2026-04-08T11:38:05.156Z</time></trkpt><trkpt lat="46.1143351" lon="13.6901762"><ele>134.83333333333331</ele><time>2026-04-08T11:38:06.192Z</time></trkpt><trkpt lat="46.1143675" lon="13.6900499"><ele>134.0</ele><time>2026-04-08T11:38:07.165Z</time></trkpt><trkpt lat="46.1143876" lon="13.6899238"><ele>134.0</ele><time>2026-04-08T11:38:08.17Z</time></trkpt><trkpt lat="46.114389" lon="13.6897801"><ele>134.0</ele><time>2026-04-08T11:38:09.162Z</time></trkpt><trkpt lat="46.1143773" lon="13.6896287"><ele>134.0</ele><time>2026-04-08T11:38:10.176Z</time></trkpt><trkpt lat="46.1143516" lon="13.6894746"><ele>134.0</ele><time>2026-04-08T11:38:11.159Z</time></trkpt><trkpt lat="46.1143139" lon="13.6893317"><ele>134.0</ele><time>2026-04-08T11:38:12.166Z</time></trkpt><trkpt lat="46.1142723" lon="13.6892111"><ele>133.6</ele><time>2026-04-08T11:38:13.155Z</time></trkpt><trkpt lat="46.1142097" lon="13.6890979"><ele>133.2</ele><time>2026-04-08T11:38:14.161Z</time></trkpt><trkpt lat="46.1141541" lon="13.689009"><ele>132.79999999999998</ele><time>2026-04-08T11:38:15.168Z</time></trkpt><trkpt lat="46.1140788" lon="13.6888879"><ele>132.4</ele><time>2026-04-08T11:38:17.157Z</time></trkpt><trkpt lat="46.1140057" lon="13.6887678"><ele>132.0</ele><time>2026-04-08T11:38:19.152Z</time></trkpt><trkpt lat="46.1139644" lon="13.6886962"><ele>133.0</ele><time>2026-04-08T11:38:20.177Z</time></trkpt><trkpt lat="46.1139227" lon="13.6886128"><ele>134.0</ele><time>2026-04-08T11:38:21.178Z</time></trkpt><trkpt lat="46.1138686" lon="13.6885219"><ele>135.0</ele><time>2026-04-08T11:38:22.162Z</time></trkpt><trkpt lat="46.1138156" lon="13.6884225"><ele>136.0</ele><time>2026-04-08T11:38:23.17Z</time></trkpt><trkpt lat="46.1137663" lon="13.6883178"><ele>137.0</ele><time>2026-04-08T11:38:24.181Z</time></trkpt><trkpt lat="46.1137243" lon="13.6882037"><ele>138.0</ele><time>2026-04-08T11:38:25.179Z</time></trkpt><trkpt lat="46.1136932" lon="13.6880893"><ele>135.85714285714286</ele><time>2026-04-08T11:38:26.162Z</time></trkpt><trkpt lat="46.1136833" lon="13.6879718"><ele>133.71428571428572</ele><time>2026-04-08T11:38:27.174Z</time></trkpt><trkpt lat="46.1136855" lon="13.6878554"><ele>131.57142857142858</ele><time>2026-04-08T11:38:28.161Z</time></trkpt><trkpt lat="46.1136919" lon="13.6877485"><ele>129.42857142857144</ele><time>2026-04-08T11:38:29.173Z</time></trkpt><trkpt lat="46.1137033" lon="13.6876559"><ele>127.28571428571429</ele><time>2026-04-08T11:38:30.166Z</time></trkpt><trkpt lat="46.1137226" lon="13.6875593"><ele>125.14285714285717</ele><time>2026-04-08T11:38:31.18Z</time></trkpt><trkpt lat="46.1137513" lon="13.6874568"><ele>123.00000000000001</ele><time>2026-04-08T11:38:32.16Z</time></trkpt><trkpt lat="46.1137866" lon="13.6873546"><ele>123.0</ele><time>2026-04-08T11:38:33.168Z</time></trkpt><trkpt lat="46.113823" lon="13.6872529"><ele>123.0</ele><time>2026-04-08T11:38:34.166Z</time></trkpt><trkpt lat="46.1138673" lon="13.6871493"><ele>123.0</ele><time>2026-04-08T11:38:35.158Z</time></trkpt><trkpt lat="46.1139202" lon="13.6870438"><ele>123.0</ele><time>2026-04-08T11:38:36.158Z</time></trkpt><trkpt lat="46.1139766" lon="13.6869412"><ele>123.0</ele><time>2026-04-08T11:38:37.175Z</time></trkpt><trkpt lat="46.1140382" lon="13.6868429"><ele>123.0</ele><time>2026-04-08T11:38:38.172Z</time></trkpt><trkpt lat="46.1141125" lon="13.6867575"><ele>127.25</ele><time>2026-04-08T11:38:39.172Z</time></trkpt><trkpt lat="46.1142019" lon="13.6866728"><ele>131.5</ele><time>2026-04-08T11:38:40.17Z</time></trkpt><trkpt lat="46.1143123" lon="13.6865932"><ele>135.75</ele><time>2026-04-08T11:38:41.155Z</time></trkpt><trkpt lat="46.1144388" lon="13.6865324"><ele>140.0</ele><time>2026-04-08T11:38:42.168Z</time></trkpt><trkpt lat="46.1145617" lon="13.6864851"><ele>140.0</ele><time>2026-04-08T11:38:43.157Z</time></trkpt><trkpt lat="46.1146824" lon="13.6864431"><ele>140.0</ele><time>2026-04-08T11:38:44.163Z</time></trkpt><trkpt lat="46.1147941" lon="13.6864074"><ele>140.0</ele><time>2026-04-08T11:38:45.169Z</time></trkpt><trkpt lat="46.1148979" lon="13.6863718"><ele>140.0</ele><time>2026-04-08T11:38:46.172Z</time></trkpt><trkpt lat="46.1149903" lon="13.6863218"><ele>140.0</ele><time>2026-04-08T11:38:47.164Z</time></trkpt><trkpt lat="46.1150522" lon="13.6862388"><ele>142.5</ele><time>2026-04-08T11:38:48.165Z</time></trkpt><trkpt lat="46.1150783" lon="13.6861458"><ele>145.0</ele><time>2026-04-08T11:38:49.173Z</time></trkpt><trkpt lat="46.1150671" lon="13.6860315"><ele>147.5</ele><time>2026-04-08T11:38:50.156Z</time></trkpt><trkpt lat="46.115029" lon="13.685933"><ele>150.0</ele><time>2026-04-08T11:38:51.162Z</time></trkpt><trkpt lat="46.1149686" lon="13.6858568"><ele>152.5</ele><time>2026-04-08T11:38:52.155Z</time></trkpt><trkpt lat="46.114891" lon="13.6857922"><ele>155.0</ele><time>2026-04-08T11:38:53.168Z</time></trkpt><trkpt lat="46.1148136" lon="13.6857398"><ele>156.4</ele><time>2026-04-08T11:38:54.181Z</time></trkpt><trkpt lat="46.1147236" lon="13.6857298"><ele>157.8</ele><time>2026-04-08T11:38:55.169Z</time></trkpt><trkpt lat="46.1146307" lon="13.6857624"><ele>159.2</ele><time>2026-04-08T11:38:56.154Z</time></trkpt><trkpt lat="46.1145307" lon="13.6858048"><ele>160.6</ele><time>2026-04-08T11:38:57.182Z</time></trkpt><trkpt lat="46.1144229" lon="13.6858579"><ele>162.0</ele><time>2026-04-08T11:38:58.162Z</time></trkpt><trkpt lat="46.1142905" lon="13.6859044"><ele>162.0</ele><time>2026-04-08T11:38:59.168Z</time></trkpt><trkpt lat="46.1141634" lon="13.6859549"><ele>162.0</ele><time>2026-04-08T11:39:00.16Z</time></trkpt><trkpt lat="46.1140367" lon="13.6860188"><ele>162.0</ele><time>2026-04-08T11:39:01.162Z</time></trkpt><trkpt lat="46.1139048" lon="13.6860917"><ele>162.0</ele><time>2026-04-08T11:39:02.174Z</time></trkpt><trkpt lat="46.1137671" lon="13.6861661"><ele>155.33333333333334</ele><time>2026-04-08T11:39:03.163Z</time></trkpt><trkpt lat="46.1136175" lon="13.6862421"><ele>148.66666666666669</ele><time>2026-04-08T11:39:04.156Z</time></trkpt><trkpt lat="46.113466" lon="13.6863025"><ele>142.0</ele><time>2026-04-08T11:39:05.158Z</time></trkpt><trkpt lat="46.1133125" lon="13.6863359"><ele>140.75</ele><time>2026-04-08T11:39:06.158Z</time></trkpt><trkpt lat="46.1131681" lon="13.6863443"><ele>139.5</ele><time>2026-04-08T11:39:07.171Z</time></trkpt><trkpt lat="46.1130309" lon="13.6863262"><ele>138.25</ele><time>2026-04-08T11:39:08.159Z</time></trkpt><trkpt lat="46.1128951" lon="13.6862982"><ele>137.0</ele><time>2026-04-08T11:39:09.159Z</time></trkpt><trkpt lat="46.1127484" lon="13.6862742"><ele>137.0</ele><time>2026-04-08T11:39:10.171Z</time></trkpt><trkpt lat="46.112578" lon="13.686238"><ele>137.0</ele><time>2026-04-08T11:39:11.158Z</time></trkpt><trkpt lat="46.1123627" lon="13.6861572"><ele>137.0</ele><time>2026-04-08T11:39:12.165Z</time></trkpt><trkpt lat="46.1121317" lon="13.6860692"><ele>136.0</ele><time>2026-04-08T11:39:13.162Z</time></trkpt><trkpt lat="46.111918" lon="13.6859772"><ele>135.0</ele><time>2026-04-08T11:39:14.151Z</time></trkpt><trkpt lat="46.1117266" lon="13.6858812"><ele>134.0</ele><time>2026-04-08T11:39:15.163Z</time></trkpt><trkpt lat="46.1115515" lon="13.685806"><ele>134.0</ele><time>2026-04-08T11:39:16.157Z</time></trkpt><trkpt lat="46.1113995" lon="13.6857359"><ele>134.0</ele><time>2026-04-08T11:39:17.158Z</time></trkpt><trkpt lat="46.1112672" lon="13.6856281"><ele>134.0</ele><time>2026-04-08T11:39:18.162Z</time></trkpt><trkpt lat="46.1111425" lon="13.6854806"><ele>134.0</ele><time>2026-04-08T11:39:19.158Z</time></trkpt><trkpt lat="46.1110349" lon="13.6853289"><ele>134.0</ele><time>2026-04-08T11:39:20.174Z</time></trkpt><trkpt lat="46.1109379" lon="13.6851747"><ele>134.0</ele><time>2026-04-08T11:39:21.154Z</time></trkpt><trkpt lat="46.110842" lon="13.6850305"><ele>134.0</ele><time>2026-04-08T11:39:22.185Z</time></trkpt><trkpt lat="46.1107443" lon="13.6848876"><ele>131.75</ele><time>2026-04-08T11:39:23.17Z</time></trkpt><trkpt lat="46.1106488" lon="13.6847422"><ele>129.5</ele><time>2026-04-08T11:39:24.167Z</time></trkpt><trkpt lat="46.1105513" lon="13.6845892"><ele>127.25</ele><time>2026-04-08T11:39:25.165Z</time></trkpt><trkpt lat="46.1104499" lon="13.6844292"><ele>125.0</ele><time>2026-04-08T11:39:26.155Z</time></trkpt><trkpt lat="46.1103415" lon="13.6842494"><ele>135.66666666666666</ele><time>2026-04-08T11:39:27.169Z</time></trkpt><trkpt lat="46.1102064" lon="13.6840315"><ele>146.33333333333334</ele><time>2026-04-08T11:39:28.157Z</time></trkpt><trkpt lat="46.1100541" lon="13.6837796"><ele>157.0</ele><time>2026-04-08T11:39:29.166Z</time></trkpt><trkpt lat="46.1099124" lon="13.6835438"><ele>155.0</ele><time>2026-04-08T11:39:30.163Z</time></trkpt><trkpt lat="46.1097873" lon="13.6833283"><ele>153.0</ele><time>2026-04-08T11:39:31.175Z</time></trkpt><trkpt lat="46.1096749" lon="13.6831314"><ele>151.0</ele><time>2026-04-08T11:39:32.155Z</time></trkpt><trkpt lat="46.1095656" lon="13.6829487"><ele>151.0</ele><time>2026-04-08T11:39:33.172Z</time></trkpt><trkpt lat="46.1094671" lon="13.6827836"><ele>151.0</ele><time>2026-04-08T11:39:34.167Z</time></trkpt><trkpt lat="46.1093705" lon="13.6826197"><ele>151.0</ele><time>2026-04-08T11:39:35.176Z</time></trkpt><trkpt lat="46.1092751" lon="13.6824526"><ele>154.0</ele><time>2026-04-08T11:39:36.174Z</time></trkpt><trkpt lat="46.1091834" lon="13.6822817"><ele>157.0</ele><time>2026-04-08T11:39:37.157Z</time></trkpt><trkpt lat="46.1090984" lon="13.6821118"><ele>160.0</ele><time>2026-04-08T11:39:38.163Z</time></trkpt><trkpt lat="46.1089391" lon="13.6817632"><ele>160.0</ele><time>2026-04-08T11:39:40.176Z</time></trkpt><trkpt lat="46.1088636" lon="13.6815837"><ele>160.0</ele><time>2026-04-08T11:39:41.163Z</time></trkpt><trkpt lat="46.1087914" lon="13.6814043"><ele>160.0</ele><time>2026-04-08T11:39:42.16Z</time></trkpt><trkpt lat="46.1087166" lon="13.6812306"><ele>160.0</ele><time>2026-04-08T11:39:43.169Z</time></trkpt><trkpt lat="46.1086395" lon="13.6810461"><ele>165.25</ele><time>2026-04-08T11:39:44.162Z</time></trkpt><trkpt lat="46.1085632" lon="13.680856"><ele>170.5</ele><time>2026-04-08T11:39:45.176Z</time></trkpt><trkpt lat="46.1084896" lon="13.6806704"><ele>175.75</ele><time>2026-04-08T11:39:46.155Z</time></trkpt><trkpt lat="46.1084174" lon="13.680491"><ele>181.0</ele><time>2026-04-08T11:39:47.169Z</time></trkpt><trkpt lat="46.1083427" lon="13.6803081"><ele>183.25</ele><time>2026-04-08T11:39:48.168Z</time></trkpt><trkpt lat="46.1082708" lon="13.6801299"><ele>185.5</ele><time>2026-04-08T11:39:49.163Z</time></trkpt><trkpt lat="46.1081965" lon="13.6799477"><ele>187.75</ele><time>2026-04-08T11:39:50.163Z</time></trkpt><trkpt lat="46.1081214" lon="13.6797555"><ele>190.0</ele><time>2026-04-08T11:39:51.166Z</time></trkpt><trkpt lat="46.1080464" lon="13.6795684"><ele>188.5</ele><time>2026-04-08T11:39:52.177Z</time></trkpt><trkpt lat="46.1079749" lon="13.6793845"><ele>187.0</ele><time>2026-04-08T11:39:53.17Z</time></trkpt><trkpt lat="46.107916" lon="13.6792045"><ele>185.5</ele><time>2026-04-08T11:39:54.172Z</time></trkpt><trkpt lat="46.1078687" lon="13.6790274"><ele>184.0</ele><time>2026-04-08T11:39:55.169Z</time></trkpt><trkpt lat="46.1078378" lon="13.6788415"><ele>184.0</ele><time>2026-04-08T11:39:56.172Z</time></trkpt><trkpt lat="46.1078298" lon="13.6786393"><ele>184.0</ele><time>2026-04-08T11:39:57.17Z</time></trkpt><trkpt lat="46.1078387" lon="13.6784238"><ele>184.0</ele><time>2026-04-08T11:39:58.176Z</time></trkpt><trkpt lat="46.1078625" lon="13.6782163"><ele>184.0</ele><time>2026-04-08T11:39:59.171Z</time></trkpt><trkpt lat="46.1078995" lon="13.6779991"><ele>184.66666666666669</ele><time>2026-04-08T11:40:00.18Z</time></trkpt><trkpt lat="46.1079408" lon="13.6777783"><ele>185.33333333333334</ele><time>2026-04-08T11:40:01.179Z</time></trkpt><trkpt lat="46.1079812" lon="13.6775559"><ele>186.0</ele><time>2026-04-08T11:40:02.185Z</time></trkpt><trkpt lat="46.1080283" lon="13.6773349"><ele>186.66666666666666</ele><time>2026-04-08T11:40:03.172Z</time></trkpt><trkpt lat="46.1080726" lon="13.6771096"><ele>187.33333333333331</ele><time>2026-04-08T11:40:04.166Z</time></trkpt><trkpt lat="46.1081078" lon="13.6768776"><ele>188.0</ele><time>2026-04-08T11:40:05.167Z</time></trkpt><trkpt lat="46.1081402" lon="13.6766034"><ele>185.66666666666666</ele><time>2026-04-08T11:40:06.163Z</time></trkpt><trkpt lat="46.1081739" lon="13.6763"><ele>183.33333333333334</ele><time>2026-04-08T11:40:07.156Z</time></trkpt><trkpt lat="46.1082112" lon="13.6760164"><ele>181.0</ele><time>2026-04-08T11:40:08.166Z</time></trkpt><trkpt lat="46.1082431" lon="13.6757735"><ele>182.5</ele><time>2026-04-08T11:40:09.156Z</time></trkpt><trkpt lat="46.1082623" lon="13.6755525"><ele>184.0</ele><time>2026-04-08T11:40:10.161Z</time></trkpt><trkpt lat="46.1082856" lon="13.6753524"><ele>185.5</ele><time>2026-04-08T11:40:11.155Z</time></trkpt><trkpt lat="46.1083079" lon="13.6751578"><ele>187.0</ele><time>2026-04-08T11:40:12.167Z</time></trkpt><trkpt lat="46.1083271" lon="13.674964"><ele>187.0</ele><time>2026-04-08T11:40:13.165Z</time></trkpt><trkpt lat="46.1083486" lon="13.6747703"><ele>187.0</ele><time>2026-04-08T11:40:14.183Z</time></trkpt><trkpt lat="46.1083733" lon="13.6745781"><ele>187.0</ele><time>2026-04-08T11:40:15.176Z</time></trkpt><trkpt lat="46.1083955" lon="13.6743893"><ele>187.0</ele><time>2026-04-08T11:40:16.176Z</time></trkpt><trkpt lat="46.1084186" lon="13.6741985"><ele>186.5</ele><time>2026-04-08T11:40:17.177Z</time></trkpt><trkpt lat="46.1084404" lon="13.6740089"><ele>186.0</ele><time>2026-04-08T11:40:18.164Z</time></trkpt><trkpt lat="46.1084572" lon="13.6738189"><ele>185.5</ele><time>2026-04-08T11:40:19.162Z</time></trkpt><trkpt lat="46.1084764" lon="13.6736266"><ele>185.0</ele><time>2026-04-08T11:40:20.179Z</time></trkpt><trkpt lat="46.1084964" lon="13.6734346"><ele>184.5</ele><time>2026-04-08T11:40:21.173Z</time></trkpt><trkpt lat="46.108508" lon="13.673239"><ele>184.0</ele><time>2026-04-08T11:40:22.165Z</time></trkpt><trkpt lat="46.1085122" lon="13.6730371"><ele>183.5</ele><time>2026-04-08T11:40:23.17Z</time></trkpt><trkpt lat="46.1085074" lon="13.6728373"><ele>183.0</ele><time>2026-04-08T11:40:24.16Z</time></trkpt><trkpt lat="46.1084956" lon="13.6726385"><ele>184.0</ele><time>2026-04-08T11:40:25.179Z</time></trkpt><trkpt lat="46.1084809" lon="13.6724439"><ele>185.0</ele><time>2026-04-08T11:40:26.163Z</time></trkpt><trkpt lat="46.1084599" lon="13.6722543"><ele>186.0</ele><time>2026-04-08T11:40:27.171Z</time></trkpt><trkpt lat="46.1084385" lon="13.6720711"><ele>187.0</ele><time>2026-04-08T11:40:28.156Z</time></trkpt><trkpt lat="46.1084153" lon="13.6719005"><ele>187.6</ele><time>2026-04-08T11:40:29.153Z</time></trkpt><trkpt lat="46.1083896" lon="13.671744"><ele>188.2</ele><time>2026-04-08T11:40:30.162Z</time></trkpt><trkpt lat="46.1083535" lon="13.6715918"><ele>188.8</ele><time>2026-04-08T11:40:31.18Z</time></trkpt><trkpt lat="46.1083099" lon="13.6714459"><ele>189.4</ele><time>2026-04-08T11:40:32.167Z</time></trkpt><trkpt lat="46.1082634" lon="13.6713145"><ele>190.0</ele><time>2026-04-08T11:40:33.169Z</time></trkpt><trkpt lat="46.1082174" lon="13.6711846"><ele>189.0</ele><time>2026-04-08T11:40:34.169Z</time></trkpt><trkpt lat="46.1081707" lon="13.6710551"><ele>188.0</ele><time>2026-04-08T11:40:35.168Z</time></trkpt><trkpt lat="46.1081262" lon="13.6709274"><ele>187.0</ele><time>2026-04-08T11:40:36.16Z</time></trkpt><trkpt lat="46.1080866" lon="13.6707928"><ele>186.0</ele><time>2026-04-08T11:40:37.17Z</time></trkpt><trkpt lat="46.1080491" lon="13.6706536"><ele>185.0</ele><time>2026-04-08T11:40:38.182Z</time></trkpt><trkpt lat="46.1080119" lon="13.6705051"><ele>185.0</ele><time>2026-04-08T11:40:39.174Z</time></trkpt><trkpt lat="46.1079857" lon="13.670347"><ele>185.0</ele><time>2026-04-08T11:40:40.167Z</time></trkpt><trkpt lat="46.1079694" lon="13.6701947"><ele>185.0</ele><time>2026-04-08T11:40:41.166Z</time></trkpt><trkpt lat="46.1079599" lon="13.6700391"><ele>185.0</ele><time>2026-04-08T11:40:42.176Z</time></trkpt><trkpt lat="46.1079539" lon="13.6698778"><ele>185.0</ele><time>2026-04-08T11:40:43.176Z</time></trkpt><trkpt lat="46.1079409" lon="13.6697175"><ele>184.5</ele><time>2026-04-08T11:40:44.167Z</time></trkpt><trkpt lat="46.107929" lon="13.6695534"><ele>184.0</ele><time>2026-04-08T11:40:45.171Z</time></trkpt><trkpt lat="46.107919" lon="13.6693771"><ele>183.5</ele><time>2026-04-08T11:40:46.177Z</time></trkpt><trkpt lat="46.107908" lon="13.6691827"><ele>183.0</ele><time>2026-04-08T11:40:47.162Z</time></trkpt><trkpt lat="46.1079001" lon="13.6689727"><ele>181.66666666666666</ele><time>2026-04-08T11:40:48.189Z</time></trkpt><trkpt lat="46.1078889" lon="13.6687526"><ele>180.33333333333331</ele><time>2026-04-08T11:40:49.169Z</time></trkpt><trkpt lat="46.107878" lon="13.6685166"><ele>179.0</ele><time>2026-04-08T11:40:50.172Z</time></trkpt><trkpt lat="46.1078647" lon="13.6682624"><ele>178.0</ele><time>2026-04-08T11:40:51.18Z</time></trkpt><trkpt lat="46.107851" lon="13.6679963"><ele>177.0</ele><time>2026-04-08T11:40:52.165Z</time></trkpt><trkpt lat="46.1078394" lon="13.6677333"><ele>176.0</ele><time>2026-04-08T11:40:53.172Z</time></trkpt><trkpt lat="46.1078422" lon="13.6674794"><ele>175.0</ele><time>2026-04-08T11:40:54.159Z</time></trkpt><trkpt lat="46.107877" lon="13.6672139"><ele>174.0</ele><time>2026-04-08T11:40:55.172Z</time></trkpt><trkpt lat="46.1079696" lon="13.666953"><ele>173.0</ele><time>2026-04-08T11:40:56.179Z</time></trkpt><trkpt lat="46.1081094" lon="13.6667088"><ele>175.0</ele><time>2026-04-08T11:40:57.175Z</time></trkpt><trkpt lat="46.1082785" lon="13.6664652"><ele>177.0</ele><time>2026-04-08T11:40:58.161Z</time></trkpt><trkpt lat="46.1084453" lon="13.6662315"><ele>175.66666666666666</ele><time>2026-04-08T11:40:59.162Z</time></trkpt><trkpt lat="46.1086017" lon="13.6660061"><ele>174.33333333333331</ele><time>2026-04-08T11:41:00.153Z</time></trkpt><trkpt lat="46.1087431" lon="13.665782"><ele>173.0</ele><time>2026-04-08T11:41:01.165Z</time></trkpt><trkpt lat="46.1088592" lon="13.6655441"><ele>173.0</ele><time>2026-04-08T11:41:02.17Z</time></trkpt><trkpt lat="46.1089273" lon="13.6652811"><ele>173.0</ele><time>2026-04-08T11:41:03.163Z</time></trkpt><trkpt lat="46.1089464" lon="13.6649765"><ele>173.0</ele><time>2026-04-08T11:41:04.16Z</time></trkpt><trkpt lat="46.1088865" lon="13.6642942"><ele>171.5</ele><time>2026-04-08T11:41:06.164Z</time></trkpt><trkpt lat="46.1088369" lon="13.6639428"><ele>170.0</ele><time>2026-04-08T11:41:07.175Z</time></trkpt><trkpt lat="46.1087849" lon="13.6635977"><ele>170.0</ele><time>2026-04-08T11:41:08.161Z</time></trkpt><trkpt lat="46.1087361" lon="13.6632824"><ele>170.0</ele><time>2026-04-08T11:41:09.17Z</time></trkpt><trkpt lat="46.1086729" lon="13.6627035"><ele>170.0</ele><time>2026-04-08T11:41:11.155Z</time></trkpt><trkpt lat="46.1086409" lon="13.6624342"><ele>170.0</ele><time>2026-04-08T11:41:12.183Z</time></trkpt><trkpt lat="46.108617" lon="13.6621777"><ele>170.0</ele><time>2026-04-08T11:41:13.172Z</time></trkpt><trkpt lat="46.1086045" lon="13.6619418"><ele>171.66666666666666</ele><time>2026-04-08T11:41:14.187Z</time></trkpt><trkpt lat="46.108605" lon="13.6617139"><ele>173.33333333333334</ele><time>2026-04-08T11:41:15.169Z</time></trkpt><trkpt lat="46.1086076" lon="13.6614922"><ele>175.0</ele><time>2026-04-08T11:41:16.175Z</time></trkpt><trkpt lat="46.108608" lon="13.6612781"><ele>174.33333333333334</ele><time>2026-04-08T11:41:17.161Z</time></trkpt><trkpt lat="46.1086072" lon="13.6610698"><ele>173.66666666666666</ele><time>2026-04-08T11:41:18.152Z</time></trkpt><trkpt lat="46.1086022" lon="13.6608538"><ele>173.0</ele><time>2026-04-08T11:41:19.161Z</time></trkpt><trkpt lat="46.1085784" lon="13.6606316"><ele>173.0</ele><time>2026-04-08T11:41:20.168Z</time></trkpt><trkpt lat="46.1085356" lon="13.6604142"><ele>173.0</ele><time>2026-04-08T11:41:21.176Z</time></trkpt><trkpt lat="46.1084797" lon="13.6601986"><ele>173.0</ele><time>2026-04-08T11:41:22.168Z</time></trkpt><trkpt lat="46.1084272" lon="13.6599905"><ele>172.0</ele><time>2026-04-08T11:41:23.166Z</time></trkpt><trkpt lat="46.1083772" lon="13.6597843"><ele>171.0</ele><time>2026-04-08T11:41:24.157Z</time></trkpt><trkpt lat="46.108321" lon="13.6595672"><ele>170.0</ele><time>2026-04-08T11:41:25.175Z</time></trkpt><trkpt lat="46.1082478" lon="13.6593575"><ele>164.5</ele><time>2026-04-08T11:41:26.167Z</time></trkpt><trkpt lat="46.1080361" lon="13.6589916"><ele>159.0</ele><time>2026-04-08T11:41:28.152Z</time></trkpt><trkpt lat="46.1078787" lon="13.6587792"><ele>158.0</ele><time>2026-04-08T11:41:29.161Z</time></trkpt><trkpt lat="46.1076842" lon="13.6585213"><ele>157.0</ele><time>2026-04-08T11:41:30.169Z</time></trkpt><trkpt lat="46.1074792" lon="13.658223"><ele>146.5</ele><time>2026-04-08T11:41:31.181Z</time></trkpt><trkpt lat="46.1072622" lon="13.6578943"><ele>136.0</ele><time>2026-04-08T11:41:32.152Z</time></trkpt><trkpt lat="46.1070433" lon="13.65757"><ele>134.5</ele><time>2026-04-08T11:41:33.165Z</time></trkpt><trkpt lat="46.1068309" lon="13.6572559"><ele>133.0</ele><time>2026-04-08T11:41:34.162Z</time></trkpt><trkpt lat="46.1066151" lon="13.6569493"><ele>124.0</ele><time>2026-04-08T11:41:35.164Z</time></trkpt><trkpt lat="46.1064123" lon="13.6566296"><ele>115.0</ele><time>2026-04-08T11:41:36.155Z</time></trkpt><trkpt lat="46.1062169" lon="13.6563121"><ele>120.0</ele><time>2026-04-08T11:41:37.179Z</time></trkpt><trkpt lat="46.1060409" lon="13.6559957"><ele>125.0</ele><time>2026-04-08T11:41:38.169Z</time></trkpt><trkpt lat="46.1058741" lon="13.6556822"><ele>121.0</ele><time>2026-04-08T11:41:39.173Z</time></trkpt><trkpt lat="46.1057095" lon="13.6553864"><ele>117.0</ele><time>2026-04-08T11:41:40.156Z</time></trkpt><trkpt lat="46.1055372" lon="13.655113"><ele>117.0</ele><time>2026-04-08T11:41:41.166Z</time></trkpt><trkpt lat="46.1053499" lon="13.6548628"><ele>117.0</ele><time>2026-04-08T11:41:42.164Z</time></trkpt><trkpt lat="46.1051302" lon="13.6546455"><ele>118.5</ele><time>2026-04-08T11:41:43.16Z</time></trkpt><trkpt lat="46.1049008" lon="13.6544488"><ele>120.0</ele><time>2026-04-08T11:41:44.15Z</time></trkpt><trkpt lat="46.1046759" lon="13.6542607"><ele>120.0</ele><time>2026-04-08T11:41:45.167Z</time></trkpt><trkpt lat="46.10445" lon="13.6540635"><ele>120.0</ele><time>2026-04-08T11:41:46.151Z</time></trkpt><trkpt lat="46.1042296" lon="13.6538477"><ele>118.0</ele><time>2026-04-08T11:41:47.154Z</time></trkpt><trkpt lat="46.1040151" lon="13.6536309"><ele>116.0</ele><time>2026-04-08T11:41:48.178Z</time></trkpt><trkpt lat="46.1038049" lon="13.6534186"><ele>116.0</ele><time>2026-04-08T11:41:49.159Z</time></trkpt><trkpt lat="46.1035944" lon="13.6532144"><ele>116.0</ele><time>2026-04-08T11:41:50.166Z</time></trkpt><trkpt lat="46.1033939" lon="13.6530257"><ele>115.33333333333333</ele><time>2026-04-08T11:41:51.167Z</time></trkpt><trkpt lat="46.1032062" lon="13.6528481"><ele>114.66666666666666</ele><time>2026-04-08T11:41:52.171Z</time></trkpt><trkpt lat="46.1030266" lon="13.6526659"><ele>114.0</ele><time>2026-04-08T11:41:53.156Z</time></trkpt><trkpt lat="46.1028495" lon="13.652471"><ele>114.0</ele><time>2026-04-08T11:41:54.165Z</time></trkpt><trkpt lat="46.1025078" lon="13.6520291"><ele>113.33333333333334</ele><time>2026-04-08T11:41:56.154Z</time></trkpt><trkpt lat="46.1023372" lon="13.65181"><ele>112.66666666666667</ele><time>2026-04-08T11:41:57.166Z</time></trkpt><trkpt lat="46.1021778" lon="13.6515951"><ele>112.0</ele><time>2026-04-08T11:41:58.176Z</time></trkpt><trkpt lat="46.1020322" lon="13.6513824"><ele>112.0</ele><time>2026-04-08T11:41:59.169Z</time></trkpt><trkpt lat="46.1018986" lon="13.6511972"><ele>112.0</ele><time>2026-04-08T11:42:00.156Z</time></trkpt><trkpt lat="46.1017738" lon="13.6510257"><ele>112.0</ele><time>2026-04-08T11:42:01.172Z</time></trkpt><trkpt lat="46.1016521" lon="13.650868"><ele>111.33333333333334</ele><time>2026-04-08T11:42:02.167Z</time></trkpt><trkpt lat="46.1015396" lon="13.6507132"><ele>110.66666666666666</ele><time>2026-04-08T11:42:03.16Z</time></trkpt><trkpt lat="46.1014326" lon="13.650559"><ele>110.0</ele><time>2026-04-08T11:42:04.157Z</time></trkpt><trkpt lat="46.1013314" lon="13.6504099"><ele>110.25</ele><time>2026-04-08T11:42:05.165Z</time></trkpt><trkpt lat="46.1012309" lon="13.6502622"><ele>110.5</ele><time>2026-04-08T11:42:06.196Z</time></trkpt><trkpt lat="46.1011354" lon="13.6501095"><ele>110.75</ele><time>2026-04-08T11:42:07.168Z</time></trkpt><trkpt lat="46.1010438" lon="13.6499541"><ele>111.0</ele><time>2026-04-08T11:42:08.156Z</time></trkpt><trkpt lat="46.1009454" lon="13.6498022"><ele>111.0</ele><time>2026-04-08T11:42:09.168Z</time></trkpt><trkpt lat="46.1008545" lon="13.6496411"><ele>111.0</ele><time>2026-04-08T11:42:10.164Z</time></trkpt><trkpt lat="46.1007741" lon="13.6494653"><ele>111.0</ele><time>2026-04-08T11:42:11.164Z</time></trkpt><trkpt lat="46.1007145" lon="13.6492725"><ele>111.0</ele><time>2026-04-08T11:42:12.162Z</time></trkpt><trkpt lat="46.1006716" lon="13.6490752"><ele>111.75</ele><time>2026-04-08T11:42:13.166Z</time></trkpt><trkpt lat="46.1006388" lon="13.6488725"><ele>112.5</ele><time>2026-04-08T11:42:14.17Z</time></trkpt><trkpt lat="46.1006044" lon="13.6486694"><ele>113.25</ele><time>2026-04-08T11:42:15.168Z</time></trkpt><trkpt lat="46.10058" lon="13.6484628"><ele>114.0</ele><time>2026-04-08T11:42:16.161Z</time></trkpt><trkpt lat="46.1005644" lon="13.6482632"><ele>114.0</ele><time>2026-04-08T11:42:17.169Z</time></trkpt><trkpt lat="46.1005555" lon="13.6480628"><ele>114.0</ele><time>2026-04-08T11:42:18.169Z</time></trkpt><trkpt lat="46.1005578" lon="13.6478586"><ele>114.0</ele><time>2026-04-08T11:42:19.167Z</time></trkpt><trkpt lat="46.1005729" lon="13.6476505"><ele>114.0</ele><time>2026-04-08T11:42:20.154Z</time></trkpt><trkpt lat="46.1005919" lon="13.6474122"><ele>114.66666666666666</ele><time>2026-04-08T11:42:21.167Z</time></trkpt><trkpt lat="46.1006059" lon="13.6471511"><ele>115.33333333333333</ele><time>2026-04-08T11:42:22.159Z</time></trkpt><trkpt lat="46.1006096" lon="13.646867"><ele>116.0</ele><time>2026-04-08T11:42:23.159Z</time></trkpt><trkpt lat="46.1006093" lon="13.6465635"><ele>116.0</ele><time>2026-04-08T11:42:24.153Z</time></trkpt><trkpt lat="46.1006002" lon="13.6462546"><ele>116.0</ele><time>2026-04-08T11:42:25.172Z</time></trkpt><trkpt lat="46.1005744" lon="13.6459377"><ele>116.0</ele><time>2026-04-08T11:42:26.162Z</time></trkpt><trkpt lat="46.100535" lon="13.6456253"><ele>115.33333333333333</ele><time>2026-04-08T11:42:27.154Z</time></trkpt><trkpt lat="46.1004831" lon="13.6453168"><ele>114.66666666666666</ele><time>2026-04-08T11:42:28.168Z</time></trkpt><trkpt lat="46.1004257" lon="13.6450132"><ele>114.0</ele><time>2026-04-08T11:42:29.15Z</time></trkpt><trkpt lat="46.1003695" lon="13.6447129"><ele>114.33333333333334</ele><time>2026-04-08T11:42:30.174Z</time></trkpt><trkpt lat="46.1003138" lon="13.6444146"><ele>114.66666666666667</ele><time>2026-04-08T11:42:31.162Z</time></trkpt><trkpt lat="46.1002546" lon="13.6441215"><ele>115.0</ele><time>2026-04-08T11:42:32.155Z</time></trkpt><trkpt lat="46.1001957" lon="13.6438246"><ele>114.66666666666667</ele><time>2026-04-08T11:42:33.151Z</time></trkpt><trkpt lat="46.1001386" lon="13.6435304"><ele>114.33333333333334</ele><time>2026-04-08T11:42:34.162Z</time></trkpt><trkpt lat="46.100079" lon="13.6432333"><ele>114.0</ele><time>2026-04-08T11:42:35.149Z</time></trkpt><trkpt lat="46.1000167" lon="13.6429355"><ele>115.0</ele><time>2026-04-08T11:42:36.167Z</time></trkpt><trkpt lat="46.0999564" lon="13.6426403"><ele>116.0</ele><time>2026-04-08T11:42:37.148Z</time></trkpt><trkpt lat="46.0998888" lon="13.6423455"><ele>117.0</ele><time>2026-04-08T11:42:38.164Z</time></trkpt><trkpt lat="46.0998093" lon="13.6420475"><ele>112.0</ele><time>2026-04-08T11:42:39.16Z</time></trkpt><trkpt lat="46.099712" lon="13.6417489"><ele>107.0</ele><time>2026-04-08T11:42:40.173Z</time></trkpt><trkpt lat="46.0995997" lon="13.6414613"><ele>107.0</ele><time>2026-04-08T11:42:41.149Z</time></trkpt><trkpt lat="46.0994695" lon="13.6411948"><ele>107.0</ele><time>2026-04-08T11:42:42.17Z</time></trkpt><trkpt lat="46.0993145" lon="13.6409608"><ele>105.5</ele><time>2026-04-08T11:42:43.157Z</time></trkpt><trkpt lat="46.0991418" lon="13.6407444"><ele>104.0</ele><time>2026-04-08T11:42:44.161Z</time></trkpt><trkpt lat="46.0989553" lon="13.6405279"><ele>104.0</ele><time>2026-04-08T11:42:45.145Z</time></trkpt><trkpt lat="46.0987676" lon="13.6403126"><ele>104.0</ele><time>2026-04-08T11:42:46.156Z</time></trkpt><trkpt lat="46.0985797" lon="13.6400956"><ele>106.0</ele><time>2026-04-08T11:42:47.166Z</time></trkpt><trkpt lat="46.098399" lon="13.6398803"><ele>108.0</ele><time>2026-04-08T11:42:48.149Z</time></trkpt><trkpt lat="46.0982192" lon="13.6396843"><ele>111.5</ele><time>2026-04-08T11:42:49.157Z</time></trkpt><trkpt lat="46.0978265" lon="13.6394156"><ele>115.0</ele><time>2026-04-08T11:42:51.156Z</time></trkpt><trkpt lat="46.0976227" lon="13.6393255"><ele>115.0</ele><time>2026-04-08T11:42:52.16Z</time></trkpt><trkpt lat="46.097426" lon="13.6392279"><ele>115.0</ele><time>2026-04-08T11:42:53.166Z</time></trkpt><trkpt lat="46.0972395" lon="13.6391195"><ele>115.0</ele><time>2026-04-08T11:42:54.154Z</time></trkpt><trkpt lat="46.0970648" lon="13.6390234"><ele>112.0</ele><time>2026-04-08T11:42:55.169Z</time></trkpt><trkpt lat="46.0968956" lon="13.6389574"><ele>109.0</ele><time>2026-04-08T11:42:56.156Z</time></trkpt><trkpt lat="46.0967319" lon="13.6389256"><ele>106.0</ele><time>2026-04-08T11:42:57.169Z</time></trkpt><trkpt lat="46.096569" lon="13.6389273"><ele>106.0</ele><time>2026-04-08T11:42:58.174Z</time></trkpt><trkpt lat="46.096407" lon="13.6389406"><ele>106.0</ele><time>2026-04-08T11:42:59.172Z</time></trkpt><trkpt lat="46.0962451" lon="13.6389663"><ele>106.0</ele><time>2026-04-08T11:43:00.149Z</time></trkpt><trkpt lat="46.0960799" lon="13.6389887"><ele>106.0</ele><time>2026-04-08T11:43:01.177Z</time></trkpt><trkpt lat="46.0959109" lon="13.6390166"><ele>106.0</ele><time>2026-04-08T11:43:02.151Z</time></trkpt><trkpt lat="46.095739" lon="13.6390489"><ele>106.0</ele><time>2026-04-08T11:43:03.152Z</time></trkpt><trkpt lat="46.0955617" lon="13.6390794"><ele>105.66666666666667</ele><time>2026-04-08T11:43:04.162Z</time></trkpt><trkpt lat="46.0953864" lon="13.6390914"><ele>105.33333333333334</ele><time>2026-04-08T11:43:05.159Z</time></trkpt><trkpt lat="46.0952086" lon="13.6390883"><ele>105.0</ele><time>2026-04-08T11:43:06.158Z</time></trkpt><trkpt lat="46.0950309" lon="13.6390634"><ele>104.66666666666666</ele><time>2026-04-08T11:43:07.163Z</time></trkpt><trkpt lat="46.0948537" lon="13.6390232"><ele>104.33333333333333</ele><time>2026-04-08T11:43:08.163Z</time></trkpt><trkpt lat="46.0946752" lon="13.6389824"><ele>104.0</ele><time>2026-04-08T11:43:09.166Z</time></trkpt><trkpt lat="46.094496" lon="13.6389375"><ele>104.0</ele><time>2026-04-08T11:43:10.183Z</time></trkpt><trkpt lat="46.0943205" lon="13.6388717"><ele>104.0</ele><time>2026-04-08T11:43:11.17Z</time></trkpt><trkpt lat="46.0941554" lon="13.6387443"><ele>104.0</ele><time>2026-04-08T11:43:12.17Z</time></trkpt><trkpt lat="46.0939959" lon="13.6385585"><ele>101.5</ele><time>2026-04-08T11:43:13.176Z</time></trkpt><trkpt lat="46.0938404" lon="13.6383309"><ele>99.0</ele><time>2026-04-08T11:43:14.158Z</time></trkpt><trkpt lat="46.0936808" lon="13.6380825"><ele>99.0</ele><time>2026-04-08T11:43:15.171Z</time></trkpt><trkpt lat="46.0935172" lon="13.6378485"><ele>99.0</ele><time>2026-04-08T11:43:16.16Z</time></trkpt><trkpt lat="46.0933492" lon="13.6376269"><ele>98.66666666666666</ele><time>2026-04-08T11:43:17.17Z</time></trkpt><trkpt lat="46.0931761" lon="13.6374176"><ele>98.33333333333333</ele><time>2026-04-08T11:43:18.187Z</time></trkpt><trkpt lat="46.0930076" lon="13.6372179"><ele>98.0</ele><time>2026-04-08T11:43:19.154Z</time></trkpt><trkpt lat="46.0928429" lon="13.6370173"><ele>101.0</ele><time>2026-04-08T11:43:20.187Z</time></trkpt><trkpt lat="46.0926813" lon="13.6368218"><ele>104.0</ele><time>2026-04-08T11:43:21.164Z</time></trkpt><trkpt lat="46.0925174" lon="13.636617"><ele>107.0</ele><time>2026-04-08T11:43:22.152Z</time></trkpt><trkpt lat="46.0923606" lon="13.6363987"><ele>107.0</ele><time>2026-04-08T11:43:23.159Z</time></trkpt><trkpt lat="46.0922114" lon="13.6361741"><ele>107.0</ele><time>2026-04-08T11:43:24.162Z</time></trkpt><trkpt lat="46.0920607" lon="13.635948"><ele>107.0</ele><time>2026-04-08T11:43:25.154Z</time></trkpt><trkpt lat="46.0919054" lon="13.6357253"><ele>107.33333333333333</ele><time>2026-04-08T11:43:26.158Z</time></trkpt><trkpt lat="46.0917458" lon="13.6355067"><ele>107.66666666666666</ele><time>2026-04-08T11:43:27.169Z</time></trkpt><trkpt lat="46.0915822" lon="13.6352946"><ele>108.0</ele><time>2026-04-08T11:43:28.168Z</time></trkpt><trkpt lat="46.0914208" lon="13.6350803"><ele>106.66666666666666</ele><time>2026-04-08T11:43:29.146Z</time></trkpt><trkpt lat="46.0912611" lon="13.6348714"><ele>105.33333333333333</ele><time>2026-04-08T11:43:30.166Z</time></trkpt><trkpt lat="46.0911002" lon="13.6346607"><ele>104.0</ele><time>2026-04-08T11:43:31.162Z</time></trkpt><trkpt lat="46.0909347" lon="13.6344588"><ele>105.33333333333333</ele><time>2026-04-08T11:43:32.155Z</time></trkpt><trkpt lat="46.090757" lon="13.6342854"><ele>106.66666666666666</ele><time>2026-04-08T11:43:33.156Z</time></trkpt><trkpt lat="46.0905718" lon="13.6341391"><ele>108.0</ele><time>2026-04-08T11:43:34.153Z</time></trkpt><trkpt lat="46.090382" lon="13.6340014"><ele>108.0</ele><time>2026-04-08T11:43:35.173Z</time></trkpt><trkpt lat="46.0901973" lon="13.6338664"><ele>108.0</ele><time>2026-04-08T11:43:36.165Z</time></trkpt><trkpt lat="46.0900072" lon="13.6337303"><ele>108.0</ele><time>2026-04-08T11:43:37.16Z</time></trkpt><trkpt lat="46.0898134" lon="13.6336005"><ele>108.66666666666666</ele><time>2026-04-08T11:43:38.15Z</time></trkpt><trkpt lat="46.08962" lon="13.6334711"><ele>109.33333333333333</ele><time>2026-04-08T11:43:39.161Z</time></trkpt><trkpt lat="46.0894265" lon="13.6333487"><ele>110.0</ele><time>2026-04-08T11:43:40.156Z</time></trkpt><trkpt lat="46.0892338" lon="13.6332284"><ele>106.33333333333333</ele><time>2026-04-08T11:43:41.166Z</time></trkpt><trkpt lat="46.0890528" lon="13.6331158"><ele>102.66666666666666</ele><time>2026-04-08T11:43:42.163Z</time></trkpt><trkpt lat="46.088888" lon="13.633028"><ele>99.0</ele><time>2026-04-08T11:43:43.172Z</time></trkpt><trkpt lat="46.0887425" lon="13.6329712"><ele>99.0</ele><time>2026-04-08T11:43:44.15Z</time></trkpt><trkpt lat="46.0886069" lon="13.6329179"><ele>99.0</ele><time>2026-04-08T11:43:45.164Z</time></trkpt><trkpt lat="46.0884767" lon="13.6328626"><ele>99.0</ele><time>2026-04-08T11:43:46.158Z</time></trkpt><trkpt lat="46.0883494" lon="13.6327975"><ele>99.0</ele><time>2026-04-08T11:43:47.159Z</time></trkpt><trkpt lat="46.088223" lon="13.6327396"><ele>101.25</ele><time>2026-04-08T11:43:48.157Z</time></trkpt><trkpt lat="46.0880989" lon="13.6326825"><ele>103.5</ele><time>2026-04-08T11:43:49.159Z</time></trkpt><trkpt lat="46.0879803" lon="13.6326313"><ele>105.75</ele><time>2026-04-08T11:43:50.151Z</time></trkpt><trkpt lat="46.0878628" lon="13.6325789"><ele>108.0</ele><time>2026-04-08T11:43:51.157Z</time></trkpt><trkpt lat="46.0877428" lon="13.6325263"><ele>108.0</ele><time>2026-04-08T11:43:52.161Z</time></trkpt><trkpt lat="46.0876197" lon="13.6324769"><ele>108.0</ele><time>2026-04-08T11:43:53.157Z</time></trkpt><trkpt lat="46.0874902" lon="13.6324251"><ele>108.0</ele><time>2026-04-08T11:43:54.146Z</time></trkpt><trkpt lat="46.087361" lon="13.6323676"><ele>108.0</ele><time>2026-04-08T11:43:55.156Z</time></trkpt><trkpt lat="46.0872282" lon="13.632311"><ele>106.25</ele><time>2026-04-08T11:43:56.149Z</time></trkpt><trkpt lat="46.0870934" lon="13.6322551"><ele>104.5</ele><time>2026-04-08T11:43:57.155Z</time></trkpt><trkpt lat="46.0869578" lon="13.6322005"><ele>102.75</ele><time>2026-04-08T11:43:58.165Z</time></trkpt><trkpt lat="46.0868205" lon="13.6321438"><ele>101.0</ele><time>2026-04-08T11:43:59.168Z</time></trkpt><trkpt lat="46.0866855" lon="13.6320879"><ele>101.5</ele><time>2026-04-08T11:44:00.142Z</time></trkpt><trkpt lat="46.0865503" lon="13.6320392"><ele>102.0</ele><time>2026-04-08T11:44:01.163Z</time></trkpt><trkpt lat="46.0864172" lon="13.6320106"><ele>102.5</ele><time>2026-04-08T11:44:02.153Z</time></trkpt><trkpt lat="46.0863023" lon="13.6320101"><ele>103.0</ele><time>2026-04-08T11:44:03.159Z</time></trkpt><trkpt lat="46.0862005" lon="13.632029"><ele>103.0</ele><time>2026-04-08T11:44:04.159Z</time></trkpt><trkpt lat="46.0861131" lon="13.6320613"><ele>103.0</ele><time>2026-04-08T11:44:05.167Z</time></trkpt><trkpt lat="46.0860228" lon="13.6320795"><ele>103.0</ele><time>2026-04-08T11:44:06.156Z</time></trkpt><trkpt lat="46.0859302" lon="13.6320819"><ele>103.0</ele><time>2026-04-08T11:44:07.155Z</time></trkpt><trkpt lat="46.0858361" lon="13.6320823"><ele>103.0</ele><time>2026-04-08T11:44:08.153Z</time></trkpt><trkpt lat="46.0857456" lon="13.6320812"><ele>102.4</ele><time>2026-04-08T11:44:09.162Z</time></trkpt><trkpt lat="46.0856604" lon="13.6320809"><ele>101.80000000000001</ele><time>2026-04-08T11:44:10.15Z</time></trkpt><trkpt lat="46.0855862" lon="13.6320892"><ele>101.2</ele><time>2026-04-08T11:44:11.164Z</time></trkpt><trkpt lat="46.0854824" lon="13.6321904"><ele>100.6</ele><time>2026-04-08T11:44:13.151Z</time></trkpt><trkpt lat="46.0854715" lon="13.6323103"><ele>100.0</ele><time>2026-04-08T11:44:14.15Z</time></trkpt><trkpt lat="46.0854785" lon="13.6324442"><ele>100.0</ele><time>2026-04-08T11:44:15.164Z</time></trkpt><trkpt lat="46.0854965" lon="13.6325716"><ele>100.0</ele><time>2026-04-08T11:44:16.162Z</time></trkpt><trkpt lat="46.0855285" lon="13.6328236"><ele>100.0</ele><time>2026-04-08T11:44:18.148Z</time></trkpt><trkpt lat="46.0855385" lon="13.6329477"><ele>100.0</ele><time>2026-04-08T11:44:19.164Z</time></trkpt><trkpt lat="46.0855403" lon="13.6330641"><ele>100.0</ele><time>2026-04-08T11:44:20.163Z</time></trkpt><trkpt lat="46.0855472" lon="13.6331868"><ele>100.2</ele><time>2026-04-08T11:44:21.151Z</time></trkpt><trkpt lat="46.0855315" lon="13.633301"><ele>100.4</ele><time>2026-04-08T11:44:22.144Z</time></trkpt><trkpt lat="46.0854903" lon="13.6334059"><ele>100.6</ele><time>2026-04-08T11:44:23.16Z</time></trkpt><trkpt lat="46.0854545" lon="13.6335259"><ele>100.8</ele><time>2026-04-08T11:44:24.149Z</time></trkpt><trkpt lat="46.0854236" lon="13.6336577"><ele>101.0</ele><time>2026-04-08T11:44:25.16Z</time></trkpt><trkpt lat="46.0854011" lon="13.633812"><ele>102.0</ele><time>2026-04-08T11:44:26.155Z</time></trkpt><trkpt lat="46.0853853" lon="13.6339548"><ele>103.0</ele><time>2026-04-08T11:44:27.154Z</time></trkpt><trkpt lat="46.0853674" lon="13.6340962"><ele>104.0</ele><time>2026-04-08T11:44:28.149Z</time></trkpt><trkpt lat="46.0853539" lon="13.6342152"><ele>105.0</ele><time>2026-04-08T11:44:29.148Z</time></trkpt><trkpt lat="46.0853151" lon="13.6343105"><ele>106.0</ele><time>2026-04-08T11:44:30.144Z</time></trkpt><trkpt lat="46.0852219" lon="13.6343641"><ele>106.0</ele><time>2026-04-08T11:44:31.153Z</time></trkpt><trkpt lat="46.0851194" lon="13.6344"><ele>106.0</ele><time>2026-04-08T11:44:32.147Z</time></trkpt><trkpt lat="46.0850027" lon="13.6344431"><ele>106.0</ele><time>2026-04-08T11:44:33.142Z</time></trkpt><trkpt lat="46.0848789" lon="13.6344995"><ele>106.0</ele><time>2026-04-08T11:44:34.164Z</time></trkpt><trkpt lat="46.0847476" lon="13.634576"><ele>106.0</ele><time>2026-04-08T11:44:35.158Z</time></trkpt><trkpt lat="46.0846106" lon="13.6346602"><ele>106.0</ele><time>2026-04-08T11:44:36.141Z</time></trkpt><trkpt lat="46.0844721" lon="13.6347385"><ele>106.0</ele><time>2026-04-08T11:44:37.146Z</time></trkpt><trkpt lat="46.0843271" lon="13.6348146"><ele>106.0</ele><time>2026-04-08T11:44:38.147Z</time></trkpt><trkpt lat="46.0841824" lon="13.6348783"><ele>106.0</ele><time>2026-04-08T11:44:39.157Z</time></trkpt><trkpt lat="46.0840441" lon="13.6349371"><ele>106.0</ele><time>2026-04-08T11:44:40.177Z</time></trkpt><trkpt lat="46.0839025" lon="13.6350065"><ele>106.0</ele><time>2026-04-08T11:44:41.161Z</time></trkpt><trkpt lat="46.0837673" lon="13.6350716"><ele>105.0</ele><time>2026-04-08T11:44:42.155Z</time></trkpt><trkpt lat="46.0836341" lon="13.6351395"><ele>104.0</ele><time>2026-04-08T11:44:43.16Z</time></trkpt><trkpt lat="46.0835023" lon="13.635215"><ele>103.0</ele><time>2026-04-08T11:44:44.154Z</time></trkpt><trkpt lat="46.0833727" lon="13.6352921"><ele>102.0</ele><time>2026-04-08T11:44:45.164Z</time></trkpt><trkpt lat="46.0832403" lon="13.635369"><ele>105.33333333333334</ele><time>2026-04-08T11:44:46.165Z</time></trkpt><trkpt lat="46.0831032" lon="13.6354556"><ele>108.66666666666667</ele><time>2026-04-08T11:44:47.174Z</time></trkpt><trkpt lat="46.0829559" lon="13.6355471"><ele>112.0</ele><time>2026-04-08T11:44:48.17Z</time></trkpt><trkpt lat="46.0827938" lon="13.6356254"><ele>112.0</ele><time>2026-04-08T11:44:49.166Z</time></trkpt><trkpt lat="46.0826173" lon="13.6356847"><ele>112.0</ele><time>2026-04-08T11:44:50.144Z</time></trkpt><trkpt lat="46.0824257" lon="13.635713"><ele>112.0</ele><time>2026-04-08T11:44:51.16Z</time></trkpt><trkpt lat="46.0822339" lon="13.6357135"><ele>110.66666666666667</ele><time>2026-04-08T11:44:52.154Z</time></trkpt><trkpt lat="46.0820471" lon="13.6357094"><ele>109.33333333333334</ele><time>2026-04-08T11:44:53.165Z</time></trkpt><trkpt lat="46.0818643" lon="13.6357061"><ele>108.0</ele><time>2026-04-08T11:44:54.16Z</time></trkpt><trkpt lat="46.0816908" lon="13.6357073"><ele>110.0</ele><time>2026-04-08T11:44:55.162Z</time></trkpt><trkpt lat="46.0815249" lon="13.6357108"><ele>112.0</ele><time>2026-04-08T11:44:56.17Z</time></trkpt><trkpt lat="46.0813593" lon="13.6357061"><ele>114.0</ele><time>2026-04-08T11:44:57.161Z</time></trkpt><trkpt lat="46.0811976" lon="13.6356842"><ele>114.0</ele><time>2026-04-08T11:44:58.158Z</time></trkpt><trkpt lat="46.08104" lon="13.6356334"><ele>114.0</ele><time>2026-04-08T11:44:59.168Z</time></trkpt><trkpt lat="46.080889" lon="13.6355517"><ele>114.0</ele><time>2026-04-08T11:45:00.144Z</time></trkpt><trkpt lat="46.0807396" lon="13.6354559"><ele>111.66666666666666</ele><time>2026-04-08T11:45:01.158Z</time></trkpt><trkpt lat="46.0805771" lon="13.6353593"><ele>109.33333333333333</ele><time>2026-04-08T11:45:02.156Z</time></trkpt><trkpt lat="46.0804034" lon="13.6352763"><ele>107.0</ele><time>2026-04-08T11:45:03.153Z</time></trkpt><trkpt lat="46.0802196" lon="13.635198"><ele>107.0</ele><time>2026-04-08T11:45:04.168Z</time></trkpt><trkpt lat="46.0800334" lon="13.6351317"><ele>107.0</ele><time>2026-04-08T11:45:05.162Z</time></trkpt><trkpt lat="46.0798534" lon="13.6350707"><ele>107.0</ele><time>2026-04-08T11:45:06.166Z</time></trkpt><trkpt lat="46.0796769" lon="13.6350072"><ele>108.66666666666666</ele><time>2026-04-08T11:45:07.149Z</time></trkpt><trkpt lat="46.0795169" lon="13.6349384"><ele>110.33333333333334</ele><time>2026-04-08T11:45:08.152Z</time></trkpt><trkpt lat="46.0793713" lon="13.6348761"><ele>112.0</ele><time>2026-04-08T11:45:09.152Z</time></trkpt><trkpt lat="46.0792316" lon="13.6348166"><ele>112.5</ele><time>2026-04-08T11:45:10.146Z</time></trkpt><trkpt lat="46.0790908" lon="13.6347589"><ele>113.0</ele><time>2026-04-08T11:45:11.158Z</time></trkpt><trkpt lat="46.0789567" lon="13.6346849"><ele>113.5</ele><time>2026-04-08T11:45:12.151Z</time></trkpt><trkpt lat="46.0788332" lon="13.6345773"><ele>114.0</ele><time>2026-04-08T11:45:13.158Z</time></trkpt><trkpt lat="46.0787142" lon="13.6344598"><ele>114.0</ele><time>2026-04-08T11:45:14.141Z</time></trkpt><trkpt lat="46.078597" lon="13.634321"><ele>114.0</ele><time>2026-04-08T11:45:15.151Z</time></trkpt><trkpt lat="46.0784815" lon="13.6341788"><ele>114.0</ele><time>2026-04-08T11:45:16.149Z</time></trkpt><trkpt lat="46.0783669" lon="13.6340385"><ele>114.5</ele><time>2026-04-08T11:45:17.157Z</time></trkpt><trkpt lat="46.0782541" lon="13.6338944"><ele>115.0</ele><time>2026-04-08T11:45:18.145Z</time></trkpt><trkpt lat="46.0781484" lon="13.6337493"><ele>115.5</ele><time>2026-04-08T11:45:19.157Z</time></trkpt><trkpt lat="46.078058" lon="13.6336121"><ele>116.0</ele><time>2026-04-08T11:45:20.158Z</time></trkpt><trkpt lat="46.077972" lon="13.6334774"><ele>116.0</ele><time>2026-04-08T11:45:21.152Z</time></trkpt><trkpt lat="46.0778897" lon="13.6333507"><ele>116.0</ele><time>2026-04-08T11:45:22.166Z</time></trkpt><trkpt lat="46.0778085" lon="13.6332292"><ele>116.0</ele><time>2026-04-08T11:45:23.168Z</time></trkpt><trkpt lat="46.077727" lon="13.6331115"><ele>116.0</ele><time>2026-04-08T11:45:24.156Z</time></trkpt><trkpt lat="46.0776462" lon="13.6329869"><ele>116.0</ele><time>2026-04-08T11:45:25.155Z</time></trkpt><trkpt lat="46.0775597" lon="13.6328638"><ele>116.0</ele><time>2026-04-08T11:45:26.149Z</time></trkpt><trkpt lat="46.0774665" lon="13.632743"><ele>116.0</ele><time>2026-04-08T11:45:27.152Z</time></trkpt><trkpt lat="46.0773639" lon="13.6326343"><ele>116.0</ele><time>2026-04-08T11:45:28.151Z</time></trkpt><trkpt lat="46.0772488" lon="13.6325385"><ele>115.75</ele><time>2026-04-08T11:45:29.147Z</time></trkpt><trkpt lat="46.0771268" lon="13.6324453"><ele>115.5</ele><time>2026-04-08T11:45:30.151Z</time></trkpt><trkpt lat="46.0769993" lon="13.6323488"><ele>115.25</ele><time>2026-04-08T11:45:31.154Z</time></trkpt><trkpt lat="46.0768634" lon="13.6322438"><ele>115.0</ele><time>2026-04-08T11:45:32.148Z</time></trkpt><trkpt lat="46.0767193" lon="13.6321171"><ele>114.66666666666667</ele><time>2026-04-08T11:45:33.157Z</time></trkpt><trkpt lat="46.0765786" lon="13.6320041"><ele>114.33333333333334</ele><time>2026-04-08T11:45:34.148Z</time></trkpt><trkpt lat="46.0764266" lon="13.6318996"><ele>114.0</ele><time>2026-04-08T11:45:35.16Z</time></trkpt><trkpt lat="46.0762834" lon="13.6317723"><ele>114.0</ele><time>2026-04-08T11:45:36.141Z</time></trkpt><trkpt lat="46.076144" lon="13.6316589"><ele>114.0</ele><time>2026-04-08T11:45:37.152Z</time></trkpt><trkpt lat="46.0759958" lon="13.6315623"><ele>114.0</ele><time>2026-04-08T11:45:38.161Z</time></trkpt><trkpt lat="46.0758607" lon="13.6314382"><ele>120.66666666666666</ele><time>2026-04-08T11:45:39.153Z</time></trkpt><trkpt lat="46.0757318" lon="13.6313327"><ele>127.33333333333333</ele><time>2026-04-08T11:45:40.147Z</time></trkpt><trkpt lat="46.0755943" lon="13.6312402"><ele>134.0</ele><time>2026-04-08T11:45:41.149Z</time></trkpt><trkpt lat="46.0754546" lon="13.6311464"><ele>127.0</ele><time>2026-04-08T11:45:42.148Z</time></trkpt><trkpt lat="46.0753127" lon="13.6310447"><ele>120.0</ele><time>2026-04-08T11:45:43.148Z</time></trkpt><trkpt lat="46.0751671" lon="13.630941"><ele>113.0</ele><time>2026-04-08T11:45:44.152Z</time></trkpt><trkpt lat="46.0750186" lon="13.6308364"><ele>116.33333333333333</ele><time>2026-04-08T11:45:45.151Z</time></trkpt><trkpt lat="46.0748664" lon="13.6307349"><ele>119.66666666666666</ele><time>2026-04-08T11:45:46.159Z</time></trkpt><trkpt lat="46.0747127" lon="13.6306339"><ele>123.0</ele><time>2026-04-08T11:45:47.146Z</time></trkpt><trkpt lat="46.0745568" lon="13.6305298"><ele>123.0</ele><time>2026-04-08T11:45:48.161Z</time></trkpt><trkpt lat="46.0744008" lon="13.6304262"><ele>123.0</ele><time>2026-04-08T11:45:49.164Z</time></trkpt><trkpt lat="46.0742447" lon="13.6303214"><ele>123.0</ele><time>2026-04-08T11:45:50.145Z</time></trkpt><trkpt lat="46.0740887" lon="13.6302229"><ele>113.5</ele><time>2026-04-08T11:45:51.157Z</time></trkpt><trkpt lat="46.073928" lon="13.6301437"><ele>104.0</ele><time>2026-04-08T11:45:52.163Z</time></trkpt><trkpt lat="46.073574" lon="13.6301297"><ele>104.0</ele><time>2026-04-08T11:45:54.147Z</time></trkpt><trkpt lat="46.0733864" lon="13.6301525"><ele>104.0</ele><time>2026-04-08T11:45:55.147Z</time></trkpt><trkpt lat="46.0731954" lon="13.6301886"><ele>104.0</ele><time>2026-04-08T11:45:56.144Z</time></trkpt><trkpt lat="46.0730058" lon="13.6302167"><ele>102.66666666666666</ele><time>2026-04-08T11:45:57.151Z</time></trkpt><trkpt lat="46.0728174" lon="13.6302559"><ele>101.33333333333334</ele><time>2026-04-08T11:45:58.146Z</time></trkpt><trkpt lat="46.0726298" lon="13.6302888"><ele>100.0</ele><time>2026-04-08T11:45:59.167Z</time></trkpt><trkpt lat="46.0724424" lon="13.6303184"><ele>104.66666666666667</ele><time>2026-04-08T11:46:00.141Z</time></trkpt><trkpt lat="46.0722569" lon="13.6303424"><ele>109.33333333333334</ele><time>2026-04-08T11:46:01.167Z</time></trkpt><trkpt lat="46.0720691" lon="13.6303594"><ele>114.0</ele><time>2026-04-08T11:46:02.16Z</time></trkpt><trkpt lat="46.0718813" lon="13.6303794"><ele>114.0</ele><time>2026-04-08T11:46:03.154Z</time></trkpt><trkpt lat="46.0716931" lon="13.6304053"><ele>114.0</ele><time>2026-04-08T11:46:04.155Z</time></trkpt><trkpt lat="46.0715077" lon="13.6304338"><ele>114.0</ele><time>2026-04-08T11:46:05.157Z</time></trkpt><trkpt lat="46.0713209" lon="13.630465"><ele>113.0</ele><time>2026-04-08T11:46:06.159Z</time></trkpt><trkpt lat="46.0711285" lon="13.6304968"><ele>112.0</ele><time>2026-04-08T11:46:07.154Z</time></trkpt><trkpt lat="46.0709363" lon="13.6305271"><ele>111.0</ele><time>2026-04-08T11:46:08.143Z</time></trkpt><trkpt lat="46.0707434" lon="13.6305483"><ele>110.66666666666666</ele><time>2026-04-08T11:46:09.15Z</time></trkpt><trkpt lat="46.0705511" lon="13.6305706"><ele>110.33333333333333</ele><time>2026-04-08T11:46:10.151Z</time></trkpt><trkpt lat="46.0703573" lon="13.6305899"><ele>110.0</ele><time>2026-04-08T11:46:11.139Z</time></trkpt><trkpt lat="46.0701599" lon="13.6306039"><ele>110.0</ele><time>2026-04-08T11:46:12.163Z</time></trkpt><trkpt lat="46.0699644" lon="13.630606"><ele>110.0</ele><time>2026-04-08T11:46:13.153Z</time></trkpt><trkpt lat="46.0697679" lon="13.6306142"><ele>110.0</ele><time>2026-04-08T11:46:14.15Z</time></trkpt><trkpt lat="46.0695688" lon="13.630626"><ele>110.66666666666666</ele><time>2026-04-08T11:46:15.147Z</time></trkpt><trkpt lat="46.0693722" lon="13.6306339"><ele>111.33333333333334</ele><time>2026-04-08T11:46:16.148Z</time></trkpt><trkpt lat="46.0691765" lon="13.6306363"><ele>112.0</ele><time>2026-04-08T11:46:17.158Z</time></trkpt><trkpt lat="46.0689803" lon="13.6306058"><ele>112.0</ele><time>2026-04-08T11:46:18.144Z</time></trkpt><trkpt lat="46.0687812" lon="13.6305647"><ele>112.0</ele><time>2026-04-08T11:46:19.142Z</time></trkpt><trkpt lat="46.0685833" lon="13.6305136"><ele>112.0</ele><time>2026-04-08T11:46:20.143Z</time></trkpt><trkpt lat="46.0683814" lon="13.6304595"><ele>112.0</ele><time>2026-04-08T11:46:21.165Z</time></trkpt><trkpt lat="46.0681769" lon="13.6304086"><ele>112.0</ele><time>2026-04-08T11:46:22.154Z</time></trkpt><trkpt lat="46.0679758" lon="13.6303456"><ele>112.0</ele><time>2026-04-08T11:46:23.149Z</time></trkpt><trkpt lat="46.067785" lon="13.6302375"><ele>117.5</ele><time>2026-04-08T11:46:24.141Z</time></trkpt><trkpt lat="46.0674319" lon="13.6299272"><ele>123.0</ele><time>2026-04-08T11:46:26.144Z</time></trkpt><trkpt lat="46.0672563" lon="13.6297733"><ele>123.0</ele><time>2026-04-08T11:46:27.153Z</time></trkpt><trkpt lat="46.0670724" lon="13.6296306"><ele>123.0</ele><time>2026-04-08T11:46:28.165Z</time></trkpt><trkpt lat="46.0668861" lon="13.6294969"><ele>123.0</ele><time>2026-04-08T11:46:29.16Z</time></trkpt><trkpt lat="46.0666985" lon="13.6293621"><ele>119.0</ele><time>2026-04-08T11:46:30.156Z</time></trkpt><trkpt lat="46.0665142" lon="13.6292297"><ele>115.0</ele><time>2026-04-08T11:46:31.154Z</time></trkpt><trkpt lat="46.0663354" lon="13.6290887"><ele>111.0</ele><time>2026-04-08T11:46:32.157Z</time></trkpt><trkpt lat="46.0661591" lon="13.6289456"><ele>111.0</ele><time>2026-04-08T11:46:33.171Z</time></trkpt><trkpt lat="46.0659746" lon="13.6288165"><ele>111.0</ele><time>2026-04-08T11:46:34.144Z</time></trkpt><trkpt lat="46.0657752" lon="13.6287269"><ele>111.0</ele><time>2026-04-08T11:46:35.153Z</time></trkpt><trkpt lat="46.0655533" lon="13.6286861"><ele>110.66666666666666</ele><time>2026-04-08T11:46:36.144Z</time></trkpt><trkpt lat="46.0653305" lon="13.6286821"><ele>110.33333333333333</ele><time>2026-04-08T11:46:37.157Z</time></trkpt><trkpt lat="46.06511" lon="13.6286806"><ele>110.0</ele><time>2026-04-08T11:46:38.163Z</time></trkpt><trkpt lat="46.0648905" lon="13.6286809"><ele>110.0</ele><time>2026-04-08T11:46:39.141Z</time></trkpt><trkpt lat="46.0646672" lon="13.6286788"><ele>110.0</ele><time>2026-04-08T11:46:40.149Z</time></trkpt><trkpt lat="46.0644416" lon="13.6286802"><ele>110.0</ele><time>2026-04-08T11:46:41.148Z</time></trkpt><trkpt lat="46.0642191" lon="13.6286799"><ele>110.0</ele><time>2026-04-08T11:46:42.142Z</time></trkpt><trkpt lat="46.0639911" lon="13.6286769"><ele>110.0</ele><time>2026-04-08T11:46:43.15Z</time></trkpt><trkpt lat="46.0637646" lon="13.6286744"><ele>110.0</ele><time>2026-04-08T11:46:44.141Z</time></trkpt><trkpt lat="46.0635385" lon="13.6286638"><ele>110.0</ele><time>2026-04-08T11:46:45.151Z</time></trkpt><trkpt lat="46.0633132" lon="13.628656"><ele>109.0</ele><time>2026-04-08T11:46:46.15Z</time></trkpt><trkpt lat="46.0630855" lon="13.6286493"><ele>108.0</ele><time>2026-04-08T11:46:47.152Z</time></trkpt><trkpt lat="46.0628597" lon="13.6286495"><ele>108.0</ele><time>2026-04-08T11:46:48.148Z</time></trkpt><trkpt lat="46.0626363" lon="13.6286483"><ele>108.0</ele><time>2026-04-08T11:46:49.141Z</time></trkpt><trkpt lat="46.0624087" lon="13.6286446"><ele>106.0</ele><time>2026-04-08T11:46:50.161Z</time></trkpt><trkpt lat="46.0621857" lon="13.6286395"><ele>104.0</ele><time>2026-04-08T11:46:51.145Z</time></trkpt><trkpt lat="46.061963" lon="13.6286354"><ele>102.0</ele><time>2026-04-08T11:46:52.142Z</time></trkpt><trkpt lat="46.0617444" lon="13.6286498"><ele>101.33333333333334</ele><time>2026-04-08T11:46:53.149Z</time></trkpt><trkpt lat="46.061533" lon="13.6286918"><ele>100.66666666666667</ele><time>2026-04-08T11:46:54.134Z</time></trkpt><trkpt lat="46.0613318" lon="13.6287911"><ele>100.0</ele><time>2026-04-08T11:46:55.15Z</time></trkpt><trkpt lat="46.0611401" lon="13.6289354"><ele>100.0</ele><time>2026-04-08T11:46:56.146Z</time></trkpt><trkpt lat="46.0609475" lon="13.6290917"><ele>100.0</ele><time>2026-04-08T11:46:57.145Z</time></trkpt><trkpt lat="46.0607591" lon="13.6292455"><ele>100.0</ele><time>2026-04-08T11:46:58.14Z</time></trkpt><trkpt lat="46.060567" lon="13.6293879"><ele>103.0</ele><time>2026-04-08T11:46:59.156Z</time></trkpt><trkpt lat="46.0603866" lon="13.6295094"><ele>106.0</ele><time>2026-04-08T11:47:00.147Z</time></trkpt><trkpt lat="46.0602064" lon="13.6295843"><ele>109.0</ele><time>2026-04-08T11:47:01.153Z</time></trkpt><trkpt lat="46.0600129" lon="13.6296086"><ele>110.66666666666667</ele><time>2026-04-08T11:47:02.149Z</time></trkpt><trkpt lat="46.0598347" lon="13.6295579"><ele>112.33333333333334</ele><time>2026-04-08T11:47:03.155Z</time></trkpt><trkpt lat="46.0596641" lon="13.6294392"><ele>114.0</ele><time>2026-04-08T11:47:04.148Z</time></trkpt><trkpt lat="46.0595033" lon="13.6292693"><ele>114.0</ele><time>2026-04-08T11:47:05.141Z</time></trkpt><trkpt lat="46.0593682" lon="13.6290494"><ele>114.0</ele><time>2026-04-08T11:47:06.175Z</time></trkpt><trkpt lat="46.0592285" lon="13.6287938"><ele>114.0</ele><time>2026-04-08T11:47:07.153Z</time></trkpt><trkpt lat="46.0590897" lon="13.6285279"><ele>116.5</ele><time>2026-04-08T11:47:08.148Z</time></trkpt><trkpt lat="46.0589463" lon="13.6282701"><ele>119.0</ele><time>2026-04-08T11:47:09.152Z</time></trkpt><trkpt lat="46.0588078" lon="13.6280201"><ele>111.5</ele><time>2026-04-08T11:47:10.15Z</time></trkpt><trkpt lat="46.0586643" lon="13.6278097"><ele>104.0</ele><time>2026-04-08T11:47:11.148Z</time></trkpt><trkpt lat="46.0583145" lon="13.6275391"><ele>108.0</ele><time>2026-04-08T11:47:13.136Z</time></trkpt><trkpt lat="46.0581374" lon="13.627444"><ele>112.0</ele><time>2026-04-08T11:47:14.164Z</time></trkpt><trkpt lat="46.0579797" lon="13.6273175"><ele>116.0</ele><time>2026-04-08T11:47:15.159Z</time></trkpt><trkpt lat="46.0578221" lon="13.6271553"><ele>116.0</ele><time>2026-04-08T11:47:16.14Z</time></trkpt><trkpt lat="46.0576634" lon="13.6269981"><ele>116.0</ele><time>2026-04-08T11:47:17.147Z</time></trkpt><trkpt lat="46.0575046" lon="13.6268466"><ele>116.0</ele><time>2026-04-08T11:47:18.16Z</time></trkpt><trkpt lat="46.0573391" lon="13.6267202"><ele>111.66666666666666</ele><time>2026-04-08T11:47:19.16Z</time></trkpt><trkpt lat="46.0571542" lon="13.6266313"><ele>107.33333333333334</ele><time>2026-04-08T11:47:20.138Z</time></trkpt><trkpt lat="46.0569621" lon="13.6266075"><ele>103.0</ele><time>2026-04-08T11:47:21.137Z</time></trkpt><trkpt lat="46.0567767" lon="13.6266162"><ele>105.33333333333334</ele><time>2026-04-08T11:47:22.146Z</time></trkpt><trkpt lat="46.0566051" lon="13.6266114"><ele>107.66666666666666</ele><time>2026-04-08T11:47:23.156Z</time></trkpt><trkpt lat="46.0564377" lon="13.6265733"><ele>110.0</ele><time>2026-04-08T11:47:24.136Z</time></trkpt><trkpt lat="46.0562912" lon="13.6264865"><ele>110.0</ele><time>2026-04-08T11:47:25.135Z</time></trkpt><trkpt lat="46.0561522" lon="13.6263717"><ele>110.0</ele><time>2026-04-08T11:47:26.146Z</time></trkpt><trkpt lat="46.0560157" lon="13.6262617"><ele>110.0</ele><time>2026-04-08T11:47:27.149Z</time></trkpt><trkpt lat="46.0558769" lon="13.6261556"><ele>114.0</ele><time>2026-04-08T11:47:28.15Z</time></trkpt><trkpt lat="46.055745" lon="13.626043"><ele>118.0</ele><time>2026-04-08T11:47:29.14Z</time></trkpt><trkpt lat="46.055618" lon="13.6259144"><ele>122.0</ele><time>2026-04-08T11:47:30.138Z</time></trkpt><trkpt lat="46.0555" lon="13.6257789"><ele>122.0</ele><time>2026-04-08T11:47:31.144Z</time></trkpt><trkpt lat="46.0553861" lon="13.625631"><ele>122.0</ele><time>2026-04-08T11:47:32.143Z</time></trkpt><trkpt lat="46.0552775" lon="13.625478"><ele>122.0</ele><time>2026-04-08T11:47:33.158Z</time></trkpt><trkpt lat="46.055175" lon="13.6253155"><ele>118.0</ele><time>2026-04-08T11:47:34.146Z</time></trkpt><trkpt lat="46.055086" lon="13.6251401"><ele>114.0</ele><time>2026-04-08T11:47:35.134Z</time></trkpt><trkpt lat="46.0550092" lon="13.6249573"><ele>110.0</ele><time>2026-04-08T11:47:36.138Z</time></trkpt><trkpt lat="46.0549407" lon="13.6247772"><ele>106.0</ele><time>2026-04-08T11:47:37.144Z</time></trkpt><trkpt lat="46.0548755" lon="13.6245987"><ele>111.0</ele><time>2026-04-08T11:47:38.156Z</time></trkpt><trkpt lat="46.0548139" lon="13.6244193"><ele>116.0</ele><time>2026-04-08T11:47:39.149Z</time></trkpt><trkpt lat="46.0547527" lon="13.6242348"><ele>121.0</ele><time>2026-04-08T11:47:40.148Z</time></trkpt><trkpt lat="46.0546961" lon="13.6240493"><ele>126.0</ele><time>2026-04-08T11:47:41.165Z</time></trkpt><trkpt lat="46.0546413" lon="13.623866"><ele>126.0</ele><time>2026-04-08T11:47:42.142Z</time></trkpt><trkpt lat="46.0545944" lon="13.6236842"><ele>126.0</ele><time>2026-04-08T11:47:43.148Z</time></trkpt><trkpt lat="46.0545588" lon="13.6235168"><ele>126.0</ele><time>2026-04-08T11:47:44.145Z</time></trkpt><trkpt lat="46.0545269" lon="13.62335"><ele>126.0</ele><time>2026-04-08T11:47:45.158Z</time></trkpt><trkpt lat="46.0544909" lon="13.6231872"><ele>122.25</ele><time>2026-04-08T11:47:46.154Z</time></trkpt><trkpt lat="46.054458" lon="13.6230295"><ele>118.5</ele><time>2026-04-08T11:47:47.168Z</time></trkpt><trkpt lat="46.0544233" lon="13.6228688"><ele>114.75</ele><time>2026-04-08T11:47:48.146Z</time></trkpt><trkpt lat="46.0543848" lon="13.6226991"><ele>111.0</ele><time>2026-04-08T11:47:49.172Z</time></trkpt><trkpt lat="46.0543474" lon="13.6225233"><ele>110.75</ele><time>2026-04-08T11:47:50.144Z</time></trkpt><trkpt lat="46.0543084" lon="13.6223434"><ele>110.5</ele><time>2026-04-08T11:47:51.151Z</time></trkpt><trkpt lat="46.0542711" lon="13.622177"><ele>110.25</ele><time>2026-04-08T11:47:52.142Z</time></trkpt><trkpt lat="46.0542368" lon="13.622007"><ele>110.0</ele><time>2026-04-08T11:47:53.158Z</time></trkpt><trkpt lat="46.0542073" lon="13.6218413"><ele>108.2</ele><time>2026-04-08T11:47:54.137Z</time></trkpt><trkpt lat="46.054184" lon="13.621685"><ele>106.4</ele><time>2026-04-08T11:47:55.146Z</time></trkpt><trkpt lat="46.0541659" lon="13.6215375"><ele>104.6</ele><time>2026-04-08T11:47:56.141Z</time></trkpt><trkpt lat="46.0541506" lon="13.6214019"><ele>102.8</ele><time>2026-04-08T11:47:57.159Z</time></trkpt><trkpt lat="46.0541333" lon="13.6212723"><ele>101.0</ele><time>2026-04-08T11:47:58.144Z</time></trkpt><trkpt lat="46.0541202" lon="13.6211384"><ele>105.16666666666666</ele><time>2026-04-08T11:47:59.147Z</time></trkpt><trkpt lat="46.0541063" lon="13.6210164"><ele>109.33333333333333</ele><time>2026-04-08T11:48:00.142Z</time></trkpt><trkpt lat="46.0540915" lon="13.6208424"><ele>113.5</ele><time>2026-04-08T11:48:02.147Z</time></trkpt><trkpt lat="46.0540829" lon="13.6207509"><ele>117.66666666666666</ele><time>2026-04-08T11:48:03.152Z</time></trkpt><trkpt lat="46.0540742" lon="13.6206485"><ele>121.83333333333333</ele><time>2026-04-08T11:48:04.159Z</time></trkpt><trkpt lat="46.0540625" lon="13.6205494"><ele>126.0</ele><time>2026-04-08T11:48:05.137Z</time></trkpt><trkpt lat="46.0540514" lon="13.6204503"><ele>126.0</ele><time>2026-04-08T11:48:06.146Z</time></trkpt><trkpt lat="46.0540422" lon="13.6203399"><ele>126.0</ele><time>2026-04-08T11:48:07.142Z</time></trkpt><trkpt lat="46.0540278" lon="13.6202111"><ele>126.0</ele><time>2026-04-08T11:48:08.142Z</time></trkpt><trkpt lat="46.0540112" lon="13.6200649"><ele>126.0</ele><time>2026-04-08T11:48:09.131Z</time></trkpt><trkpt lat="46.0539948" lon="13.6199107"><ele>126.0</ele><time>2026-04-08T11:48:10.152Z</time></trkpt><trkpt lat="46.0539769" lon="13.619766"><ele>124.0</ele><time>2026-04-08T11:48:11.135Z</time></trkpt><trkpt lat="46.0539596" lon="13.6196247"><ele>122.0</ele><time>2026-04-08T11:48:12.148Z</time></trkpt><trkpt lat="46.0539433" lon="13.6194811"><ele>120.0</ele><time>2026-04-08T11:48:13.149Z</time></trkpt><trkpt lat="46.0539274" lon="13.6193387"><ele>118.0</ele><time>2026-04-08T11:48:14.148Z</time></trkpt><trkpt lat="46.0539136" lon="13.6191943"><ele>116.0</ele><time>2026-04-08T11:48:15.139Z</time></trkpt><trkpt lat="46.0539003" lon="13.6190522"><ele>113.8</ele><time>2026-04-08T11:48:16.139Z</time></trkpt><trkpt lat="46.0538882" lon="13.6189014"><ele>111.6</ele><time>2026-04-08T11:48:17.139Z</time></trkpt><trkpt lat="46.053878" lon="13.6187517"><ele>109.4</ele><time>2026-04-08T11:48:18.133Z</time></trkpt><trkpt lat="46.0538679" lon="13.6186063"><ele>107.2</ele><time>2026-04-08T11:48:19.169Z</time></trkpt><trkpt lat="46.0538606" lon="13.6184637"><ele>105.0</ele><time>2026-04-08T11:48:20.131Z</time></trkpt><trkpt lat="46.053853" lon="13.6183241"><ele>103.4</ele><time>2026-04-08T11:48:21.139Z</time></trkpt><trkpt lat="46.0538431" lon="13.6181889"><ele>101.8</ele><time>2026-04-08T11:48:22.143Z</time></trkpt><trkpt lat="46.05383" lon="13.6180547"><ele>100.19999999999999</ele><time>2026-04-08T11:48:23.142Z</time></trkpt><trkpt lat="46.0538156" lon="13.6179187"><ele>98.6</ele><time>2026-04-08T11:48:24.144Z</time></trkpt><trkpt lat="46.0537917" lon="13.617783"><ele>97.0</ele><time>2026-04-08T11:48:25.154Z</time></trkpt><trkpt lat="46.0537644" lon="13.6176421"><ele>96.19999999999999</ele><time>2026-04-08T11:48:26.157Z</time></trkpt><trkpt lat="46.0537324" lon="13.6175053"><ele>95.4</ele><time>2026-04-08T11:48:27.146Z</time></trkpt><trkpt lat="46.0536953" lon="13.6173593"><ele>94.6</ele><time>2026-04-08T11:48:28.144Z</time></trkpt><trkpt lat="46.0536531" lon="13.6172078"><ele>93.80000000000001</ele><time>2026-04-08T11:48:29.138Z</time></trkpt><trkpt lat="46.0536121" lon="13.6170597"><ele>93.0</ele><time>2026-04-08T11:48:30.148Z</time></trkpt><trkpt lat="46.0535722" lon="13.6169047"><ele>92.75</ele><time>2026-04-08T11:48:31.136Z</time></trkpt><trkpt lat="46.0535372" lon="13.6167485"><ele>92.5</ele><time>2026-04-08T11:48:32.162Z</time></trkpt><trkpt lat="46.0535063" lon="13.61659"><ele>92.25</ele><time>2026-04-08T11:48:33.154Z</time></trkpt><trkpt lat="46.0534787" lon="13.6164348"><ele>92.0</ele><time>2026-04-08T11:48:34.164Z</time></trkpt><trkpt lat="46.0534505" lon="13.6162813"><ele>91.6</ele><time>2026-04-08T11:48:35.151Z</time></trkpt><trkpt lat="46.0534237" lon="13.6161319"><ele>91.19999999999999</ele><time>2026-04-08T11:48:36.145Z</time></trkpt><trkpt lat="46.0533987" lon="13.6159891"><ele>90.8</ele><time>2026-04-08T11:48:37.158Z</time></trkpt><trkpt lat="46.0533761" lon="13.6158483"><ele>90.4</ele><time>2026-04-08T11:48:38.153Z</time></trkpt><trkpt lat="46.0533536" lon="13.6157066"><ele>90.0</ele><time>2026-04-08T11:48:39.139Z</time></trkpt><trkpt lat="46.0533313" lon="13.6155708"><ele>90.0</ele><time>2026-04-08T11:48:40.155Z</time></trkpt><trkpt lat="46.0533145" lon="13.6154302"><ele>90.0</ele><time>2026-04-08T11:48:41.142Z</time></trkpt><trkpt lat="46.0532963" lon="13.6152879"><ele>90.0</ele><time>2026-04-08T11:48:42.149Z</time></trkpt><trkpt lat="46.0532815" lon="13.6151451"><ele>90.0</ele><time>2026-04-08T11:48:43.136Z</time></trkpt><trkpt lat="46.053268" lon="13.6150064"><ele>90.0</ele><time>2026-04-08T11:48:44.143Z</time></trkpt><trkpt lat="46.0532549" lon="13.6148646"><ele>90.6</ele><time>2026-04-08T11:48:45.152Z</time></trkpt><trkpt lat="46.0532428" lon="13.6147221"><ele>91.2</ele><time>2026-04-08T11:48:46.136Z</time></trkpt><trkpt lat="46.0532297" lon="13.614569"><ele>91.80000000000001</ele><time>2026-04-08T11:48:47.152Z</time></trkpt><trkpt lat="46.0532165" lon="13.6144161"><ele>92.4</ele><time>2026-04-08T11:48:48.161Z</time></trkpt><trkpt lat="46.0532008" lon="13.614259"><ele>93.0</ele><time>2026-04-08T11:48:49.148Z</time></trkpt><trkpt lat="46.053168" lon="13.6139383"><ele>93.0</ele><time>2026-04-08T11:48:51.143Z</time></trkpt><trkpt lat="46.053148" lon="13.6137759"><ele>93.0</ele><time>2026-04-08T11:48:52.149Z</time></trkpt><trkpt lat="46.053126" lon="13.6136109"><ele>93.0</ele><time>2026-04-08T11:48:53.142Z</time></trkpt><trkpt lat="46.0530925" lon="13.6134415"><ele>93.0</ele><time>2026-04-08T11:48:54.146Z</time></trkpt><trkpt lat="46.0530516" lon="13.6132662"><ele>93.0</ele><time>2026-04-08T11:48:55.157Z</time></trkpt><trkpt lat="46.0530021" lon="13.6130848"><ele>93.0</ele><time>2026-04-08T11:48:56.141Z</time></trkpt><trkpt lat="46.0529384" lon="13.6128851"><ele>93.0</ele><time>2026-04-08T11:48:57.155Z</time></trkpt><trkpt lat="46.0528737" lon="13.612682"><ele>93.0</ele><time>2026-04-08T11:48:58.143Z</time></trkpt><trkpt lat="46.0528157" lon="13.6124693"><ele>93.0</ele><time>2026-04-08T11:48:59.15Z</time></trkpt><trkpt lat="46.0527628" lon="13.6122458"><ele>93.0</ele><time>2026-04-08T11:49:00.132Z</time></trkpt><trkpt lat="46.0527132" lon="13.6120401"><ele>93.0</ele><time>2026-04-08T11:49:01.139Z</time></trkpt><trkpt lat="46.052665" lon="13.6118389"><ele>92.75</ele><time>2026-04-08T11:49:02.145Z</time></trkpt><trkpt lat="46.0526166" lon="13.6116435"><ele>92.5</ele><time>2026-04-08T11:49:03.138Z</time></trkpt><trkpt lat="46.0525731" lon="13.611464"><ele>92.25</ele><time>2026-04-08T11:49:04.146Z</time></trkpt><trkpt lat="46.052527" lon="13.6112882"><ele>92.0</ele><time>2026-04-08T11:49:05.157Z</time></trkpt><trkpt lat="46.0524809" lon="13.6111149"><ele>91.5</ele><time>2026-04-08T11:49:06.13Z</time></trkpt><trkpt lat="46.0524343" lon="13.6109408"><ele>91.0</ele><time>2026-04-08T11:49:07.137Z</time></trkpt><trkpt lat="46.0523822" lon="13.61077"><ele>90.5</ele><time>2026-04-08T11:49:08.134Z</time></trkpt><trkpt lat="46.05232" lon="13.6106093"><ele>90.0</ele><time>2026-04-08T11:49:09.147Z</time></trkpt><trkpt lat="46.0522557" lon="13.6104472"><ele>90.5</ele><time>2026-04-08T11:49:10.159Z</time></trkpt><trkpt lat="46.0521881" lon="13.6102858"><ele>91.0</ele><time>2026-04-08T11:49:11.153Z</time></trkpt><trkpt lat="46.0521127" lon="13.6101206"><ele>91.5</ele><time>2026-04-08T11:49:12.129Z</time></trkpt><trkpt lat="46.052033" lon="13.6099574"><ele>92.0</ele><time>2026-04-08T11:49:13.146Z</time></trkpt><trkpt lat="46.0519494" lon="13.6098066"><ele>92.0</ele><time>2026-04-08T11:49:14.141Z</time></trkpt><trkpt lat="46.0518623" lon="13.6096668"><ele>92.0</ele><time>2026-04-08T11:49:15.151Z</time></trkpt><trkpt lat="46.0517733" lon="13.6095257"><ele>92.0</ele><time>2026-04-08T11:49:16.127Z</time></trkpt><trkpt lat="46.05169" lon="13.6093956"><ele>92.0</ele><time>2026-04-08T11:49:17.127Z</time></trkpt><trkpt lat="46.0516079" lon="13.6092788"><ele>91.25</ele><time>2026-04-08T11:49:18.145Z</time></trkpt><trkpt lat="46.0515256" lon="13.6091581"><ele>90.5</ele><time>2026-04-08T11:49:19.142Z</time></trkpt><trkpt lat="46.0514463" lon="13.6090348"><ele>89.75</ele><time>2026-04-08T11:49:20.156Z</time></trkpt><trkpt lat="46.0513748" lon="13.6089012"><ele>89.0</ele><time>2026-04-08T11:49:21.137Z</time></trkpt><trkpt lat="46.051305" lon="13.6087525"><ele>88.75</ele><time>2026-04-08T11:49:22.15Z</time></trkpt><trkpt lat="46.0512392" lon="13.6086049"><ele>88.5</ele><time>2026-04-08T11:49:23.142Z</time></trkpt><trkpt lat="46.0511772" lon="13.6084455"><ele>88.25</ele><time>2026-04-08T11:49:24.132Z</time></trkpt><trkpt lat="46.0511122" lon="13.6082794"><ele>88.0</ele><time>2026-04-08T11:49:25.149Z</time></trkpt><trkpt lat="46.0510396" lon="13.608105"><ele>88.0</ele><time>2026-04-08T11:49:26.147Z</time></trkpt><trkpt lat="46.0509669" lon="13.6079383"><ele>88.0</ele><time>2026-04-08T11:49:27.135Z</time></trkpt><trkpt lat="46.050901" lon="13.6077816"><ele>88.0</ele><time>2026-04-08T11:49:28.159Z</time></trkpt><trkpt lat="46.0508373" lon="13.6076248"><ele>88.0</ele><time>2026-04-08T11:49:29.137Z</time></trkpt><trkpt lat="46.0507744" lon="13.6074659"><ele>89.0</ele><time>2026-04-08T11:49:30.15Z</time></trkpt><trkpt lat="46.0507097" lon="13.6073069"><ele>90.0</ele><time>2026-04-08T11:49:31.141Z</time></trkpt><trkpt lat="46.0506407" lon="13.6071381"><ele>91.0</ele><time>2026-04-08T11:49:32.136Z</time></trkpt><trkpt lat="46.0505622" lon="13.6069556"><ele>92.0</ele><time>2026-04-08T11:49:33.135Z</time></trkpt><trkpt lat="46.0504805" lon="13.6067583"><ele>92.33333333333334</ele><time>2026-04-08T11:49:34.159Z</time></trkpt><trkpt lat="46.0503909" lon="13.6065482"><ele>92.66666666666667</ele><time>2026-04-08T11:49:35.135Z</time></trkpt><trkpt lat="46.050304" lon="13.6063299"><ele>93.0</ele><time>2026-04-08T11:49:36.143Z</time></trkpt><trkpt lat="46.0502201" lon="13.6061231"><ele>91.0</ele><time>2026-04-08T11:49:37.132Z</time></trkpt><trkpt lat="46.0501405" lon="13.6059274"><ele>89.0</ele><time>2026-04-08T11:49:38.149Z</time></trkpt><trkpt lat="46.050066" lon="13.6057414"><ele>87.0</ele><time>2026-04-08T11:49:39.16Z</time></trkpt><trkpt lat="46.0499898" lon="13.6055626"><ele>86.75</ele><time>2026-04-08T11:49:40.161Z</time></trkpt><trkpt lat="46.0499175" lon="13.6053818"><ele>86.5</ele><time>2026-04-08T11:49:41.139Z</time></trkpt><trkpt lat="46.049851" lon="13.6052018"><ele>86.25</ele><time>2026-04-08T11:49:42.146Z</time></trkpt><trkpt lat="46.049787" lon="13.6050166"><ele>86.0</ele><time>2026-04-08T11:49:43.132Z</time></trkpt><trkpt lat="46.0497313" lon="13.6048281"><ele>86.0</ele><time>2026-04-08T11:49:44.126Z</time></trkpt><trkpt lat="46.0496815" lon="13.6046384"><ele>86.0</ele><time>2026-04-08T11:49:45.16Z</time></trkpt><trkpt lat="46.0496302" lon="13.6044422"><ele>86.0</ele><time>2026-04-08T11:49:46.156Z</time></trkpt><trkpt lat="46.0495762" lon="13.6042427"><ele>86.0</ele><time>2026-04-08T11:49:47.137Z</time></trkpt><trkpt lat="46.0495196" lon="13.6040283"><ele>86.33333333333334</ele><time>2026-04-08T11:49:48.145Z</time></trkpt><trkpt lat="46.0494569" lon="13.6038055"><ele>86.66666666666667</ele><time>2026-04-08T11:49:49.139Z</time></trkpt><trkpt lat="46.0493967" lon="13.6035712"><ele>87.0</ele><time>2026-04-08T11:49:50.137Z</time></trkpt><trkpt lat="46.049346" lon="13.6033327"><ele>88.5</ele><time>2026-04-08T11:49:51.143Z</time></trkpt><trkpt lat="46.0492777" lon="13.60304"><ele>90.0</ele><time>2026-04-08T11:49:52.173Z</time></trkpt><trkpt lat="46.0491945" lon="13.602723"><ele>92.33333333333334</ele><time>2026-04-08T11:49:53.159Z</time></trkpt><trkpt lat="46.0491179" lon="13.6024272"><ele>94.66666666666667</ele><time>2026-04-08T11:49:54.139Z</time></trkpt><trkpt lat="46.0490481" lon="13.6021648"><ele>97.0</ele><time>2026-04-08T11:49:55.141Z</time></trkpt><trkpt lat="46.0489837" lon="13.601932"><ele>97.0</ele><time>2026-04-08T11:49:56.141Z</time></trkpt><trkpt lat="46.0489233" lon="13.6017124"><ele>97.0</ele><time>2026-04-08T11:49:57.139Z</time></trkpt><trkpt lat="46.0488682" lon="13.6014989"><ele>97.0</ele><time>2026-04-08T11:49:58.127Z</time></trkpt><trkpt lat="46.0488226" lon="13.6013006"><ele>98.66666666666667</ele><time>2026-04-08T11:49:59.139Z</time></trkpt><trkpt lat="46.0487812" lon="13.6011035"><ele>100.33333333333334</ele><time>2026-04-08T11:50:00.137Z</time></trkpt><trkpt lat="46.0487566" lon="13.6008866"><ele>102.0</ele><time>2026-04-08T11:50:01.15Z</time></trkpt><trkpt lat="46.0487988" lon="13.6003943"><ele>107.33333333333334</ele><time>2026-04-08T11:50:03.135Z</time></trkpt><trkpt lat="46.048857" lon="13.6001554"><ele>112.66666666666667</ele><time>2026-04-08T11:50:04.128Z</time></trkpt><trkpt lat="46.048927" lon="13.5999242"><ele>118.0</ele><time>2026-04-08T11:50:05.133Z</time></trkpt><trkpt lat="46.0490011" lon="13.5997101"><ele>118.0</ele><time>2026-04-08T11:50:06.131Z</time></trkpt><trkpt lat="46.0490755" lon="13.5995163"><ele>118.0</ele><time>2026-04-08T11:50:07.155Z</time></trkpt><trkpt lat="46.0491439" lon="13.5993198"><ele>118.0</ele><time>2026-04-08T11:50:08.159Z</time></trkpt><trkpt lat="46.0492176" lon="13.5991108"><ele>116.33333333333334</ele><time>2026-04-08T11:50:09.133Z</time></trkpt><trkpt lat="46.0492992" lon="13.5988732"><ele>114.66666666666666</ele><time>2026-04-08T11:50:10.126Z</time></trkpt><trkpt lat="46.0493857" lon="13.5985964"><ele>113.0</ele><time>2026-04-08T11:50:11.142Z</time></trkpt><trkpt lat="46.0494802" lon="13.5982878"><ele>113.0</ele><time>2026-04-08T11:50:12.147Z</time></trkpt><trkpt lat="46.0495849" lon="13.5980024"><ele>113.0</ele><time>2026-04-08T11:50:13.135Z</time></trkpt><trkpt lat="46.0496822" lon="13.5977427"><ele>113.0</ele><time>2026-04-08T11:50:14.138Z</time></trkpt><trkpt lat="46.0497546" lon="13.5974892"><ele>118.0</ele><time>2026-04-08T11:50:15.132Z</time></trkpt><trkpt lat="46.0498146" lon="13.5972418"><ele>123.0</ele><time>2026-04-08T11:50:16.161Z</time></trkpt><trkpt lat="46.0498509" lon="13.5969943"><ele>128.0</ele><time>2026-04-08T11:50:17.137Z</time></trkpt><trkpt lat="46.0498615" lon="13.5967621"><ele>129.66666666666666</ele><time>2026-04-08T11:50:18.145Z</time></trkpt><trkpt lat="46.0498375" lon="13.5965339"><ele>131.33333333333334</ele><time>2026-04-08T11:50:19.137Z</time></trkpt><trkpt lat="46.0497998" lon="13.5963032"><ele>133.0</ele><time>2026-04-08T11:50:20.137Z</time></trkpt><trkpt lat="46.049752" lon="13.5960867"><ele>133.0</ele><time>2026-04-08T11:50:21.123Z</time></trkpt><trkpt lat="46.0496955" lon="13.5958739"><ele>133.0</ele><time>2026-04-08T11:50:22.129Z</time></trkpt><trkpt lat="46.049625" lon="13.5956691"><ele>133.0</ele><time>2026-04-08T11:50:23.128Z</time></trkpt><trkpt lat="46.0495524" lon="13.5954709"><ele>125.75</ele><time>2026-04-08T11:50:24.141Z</time></trkpt><trkpt lat="46.0494815" lon="13.5952731"><ele>118.5</ele><time>2026-04-08T11:50:25.135Z</time></trkpt><trkpt lat="46.0494058" lon="13.5950926"><ele>111.25</ele><time>2026-04-08T11:50:26.148Z</time></trkpt><trkpt lat="46.0493139" lon="13.5949335"><ele>104.0</ele><time>2026-04-08T11:50:27.142Z</time></trkpt><trkpt lat="46.0492085" lon="13.5947974"><ele>104.33333333333333</ele><time>2026-04-08T11:50:28.139Z</time></trkpt><trkpt lat="46.0490725" lon="13.5946916"><ele>104.66666666666666</ele><time>2026-04-08T11:50:29.136Z</time></trkpt><trkpt lat="46.0489069" lon="13.5945888"><ele>105.0</ele><time>2026-04-08T11:50:30.127Z</time></trkpt><trkpt lat="46.0487112" lon="13.5944662"><ele>105.0</ele><time>2026-04-08T11:50:31.134Z</time></trkpt><trkpt lat="46.0485128" lon="13.5943186"><ele>105.0</ele><time>2026-04-08T11:50:32.144Z</time></trkpt><trkpt lat="46.0483183" lon="13.5941681"><ele>105.0</ele><time>2026-04-08T11:50:33.138Z</time></trkpt><trkpt lat="46.0481241" lon="13.5940357"><ele>108.0</ele><time>2026-04-08T11:50:34.127Z</time></trkpt><trkpt lat="46.0479347" lon="13.5938999"><ele>111.0</ele><time>2026-04-08T11:50:35.128Z</time></trkpt><trkpt lat="46.0477515" lon="13.5937785"><ele>114.0</ele><time>2026-04-08T11:50:36.128Z</time></trkpt><trkpt lat="46.047583" lon="13.5936565"><ele>111.33333333333334</ele><time>2026-04-08T11:50:37.144Z</time></trkpt><trkpt lat="46.0474298" lon="13.5935433"><ele>108.66666666666667</ele><time>2026-04-08T11:50:38.128Z</time></trkpt><trkpt lat="46.0472845" lon="13.5934337"><ele>106.0</ele><time>2026-04-08T11:50:39.126Z</time></trkpt><trkpt lat="46.0470075" lon="13.5932179"><ele>106.0</ele><time>2026-04-08T11:50:41.128Z</time></trkpt><trkpt lat="46.0468707" lon="13.5931119"><ele>106.0</ele><time>2026-04-08T11:50:42.135Z</time></trkpt><trkpt lat="46.0467252" lon="13.5930081"><ele>106.0</ele><time>2026-04-08T11:50:43.129Z</time></trkpt><trkpt lat="46.046584" lon="13.592889"><ele>106.0</ele><time>2026-04-08T11:50:44.132Z</time></trkpt><trkpt lat="46.0464431" lon="13.5927797"><ele>106.0</ele><time>2026-04-08T11:50:45.128Z</time></trkpt><trkpt lat="46.0463032" lon="13.5926795"><ele>106.0</ele><time>2026-04-08T11:50:46.131Z</time></trkpt><trkpt lat="46.0461697" lon="13.5925714"><ele>106.0</ele><time>2026-04-08T11:50:47.131Z</time></trkpt><trkpt lat="46.0460405" lon="13.5924777"><ele>106.0</ele><time>2026-04-08T11:50:48.129Z</time></trkpt><trkpt lat="46.0459146" lon="13.5923908"><ele>106.0</ele><time>2026-04-08T11:50:49.129Z</time></trkpt><trkpt lat="46.0457797" lon="13.5922953"><ele>106.0</ele><time>2026-04-08T11:50:50.145Z</time></trkpt><trkpt lat="46.0456435" lon="13.5921946"><ele>104.75</ele><time>2026-04-08T11:50:51.139Z</time></trkpt><trkpt lat="46.0455141" lon="13.5921034"><ele>103.5</ele><time>2026-04-08T11:50:52.124Z</time></trkpt><trkpt lat="46.045404" lon="13.5920192"><ele>102.25</ele><time>2026-04-08T11:50:53.156Z</time></trkpt><trkpt lat="46.0453018" lon="13.5919404"><ele>101.0</ele><time>2026-04-08T11:50:54.139Z</time></trkpt><trkpt lat="46.0452065" lon="13.5918707"><ele>101.0</ele><time>2026-04-08T11:50:55.123Z</time></trkpt><trkpt lat="46.0451034" lon="13.5917992"><ele>101.0</ele><time>2026-04-08T11:50:56.139Z</time></trkpt><trkpt lat="46.0449853" lon="13.5917266"><ele>101.0</ele><time>2026-04-08T11:50:57.14Z</time></trkpt><trkpt lat="46.044864" lon="13.59165"><ele>101.0</ele><time>2026-04-08T11:50:58.129Z</time></trkpt><trkpt lat="46.0447351" lon="13.5915867"><ele>102.75</ele><time>2026-04-08T11:50:59.132Z</time></trkpt><trkpt lat="46.0446038" lon="13.5915603"><ele>104.5</ele><time>2026-04-08T11:51:00.139Z</time></trkpt><trkpt lat="46.044464" lon="13.5915755"><ele>106.25</ele><time>2026-04-08T11:51:01.142Z</time></trkpt><trkpt lat="46.0443182" lon="13.5916035"><ele>108.0</ele><time>2026-04-08T11:51:02.126Z</time></trkpt><trkpt lat="46.0441798" lon="13.5916244"><ele>113.0</ele><time>2026-04-08T11:51:03.135Z</time></trkpt><trkpt lat="46.0440501" lon="13.5916388"><ele>118.0</ele><time>2026-04-08T11:51:04.129Z</time></trkpt><trkpt lat="46.0439245" lon="13.5916532"><ele>123.0</ele><time>2026-04-08T11:51:05.133Z</time></trkpt><trkpt lat="46.0438007" lon="13.5916385"><ele>128.0</ele><time>2026-04-08T11:51:06.136Z</time></trkpt><trkpt lat="46.0436826" lon="13.5915779"><ele>128.0</ele><time>2026-04-08T11:51:07.125Z</time></trkpt><trkpt lat="46.0435705" lon="13.5914953"><ele>128.0</ele><time>2026-04-08T11:51:08.126Z</time></trkpt><trkpt lat="46.0434626" lon="13.5913981"><ele>128.0</ele><time>2026-04-08T11:51:09.134Z</time></trkpt><trkpt lat="46.0433451" lon="13.5912932"><ele>128.0</ele><time>2026-04-08T11:51:10.131Z</time></trkpt><trkpt lat="46.0432226" lon="13.5911769"><ele>126.0</ele><time>2026-04-08T11:51:11.128Z</time></trkpt><trkpt lat="46.0430975" lon="13.5910666"><ele>124.0</ele><time>2026-04-08T11:51:12.121Z</time></trkpt><trkpt lat="46.0429701" lon="13.5909571"><ele>122.0</ele><time>2026-04-08T11:51:13.126Z</time></trkpt><trkpt lat="46.042846" lon="13.5908546"><ele>120.0</ele><time>2026-04-08T11:51:14.129Z</time></trkpt><trkpt lat="46.0427227" lon="13.5907641"><ele>120.0</ele><time>2026-04-08T11:51:15.134Z</time></trkpt><trkpt lat="46.0425999" lon="13.5906755"><ele>120.0</ele><time>2026-04-08T11:51:16.124Z</time></trkpt><trkpt lat="46.0424768" lon="13.5905977"><ele>120.0</ele><time>2026-04-08T11:51:17.137Z</time></trkpt><trkpt lat="46.0423655" lon="13.5905195"><ele>120.0</ele><time>2026-04-08T11:51:18.125Z</time></trkpt><trkpt lat="46.0422591" lon="13.5904463"><ele>119.8</ele><time>2026-04-08T11:51:19.126Z</time></trkpt><trkpt lat="46.0421549" lon="13.5903823"><ele>119.6</ele><time>2026-04-08T11:51:20.13Z</time></trkpt><trkpt lat="46.0420486" lon="13.5903267"><ele>119.4</ele><time>2026-04-08T11:51:21.131Z</time></trkpt><trkpt lat="46.0419452" lon="13.5902901"><ele>119.2</ele><time>2026-04-08T11:51:22.132Z</time></trkpt><trkpt lat="46.041838" lon="13.5902827"><ele>119.0</ele><time>2026-04-08T11:51:23.134Z</time></trkpt><trkpt lat="46.0417233" lon="13.5902804"><ele>116.6</ele><time>2026-04-08T11:51:24.128Z</time></trkpt><trkpt lat="46.0416137" lon="13.5902976"><ele>114.2</ele><time>2026-04-08T11:51:25.136Z</time></trkpt><trkpt lat="46.0415067" lon="13.5903092"><ele>111.79999999999998</ele><time>2026-04-08T11:51:26.133Z</time></trkpt><trkpt lat="46.0414021" lon="13.5903222"><ele>109.39999999999999</ele><time>2026-04-08T11:51:27.128Z</time></trkpt><trkpt lat="46.0413038" lon="13.5903366"><ele>107.0</ele><time>2026-04-08T11:51:28.123Z</time></trkpt><trkpt lat="46.041213" lon="13.5903462"><ele>107.0</ele><time>2026-04-08T11:51:29.152Z</time></trkpt><trkpt lat="46.0411213" lon="13.5903533"><ele>106.99999999999999</ele><time>2026-04-08T11:51:30.125Z</time></trkpt><trkpt lat="46.0410314" lon="13.5903579"><ele>106.99999999999999</ele><time>2026-04-08T11:51:31.128Z</time></trkpt><trkpt lat="46.0409357" lon="13.5903752"><ele>107.0</ele><time>2026-04-08T11:51:32.128Z</time></trkpt><trkpt lat="46.0408396" lon="13.5904062"><ele>107.0</ele><time>2026-04-08T11:51:33.141Z</time></trkpt><trkpt lat="46.0407438" lon="13.5904372"><ele>105.49999999999999</ele><time>2026-04-08T11:51:34.14Z</time></trkpt><trkpt lat="46.0406531" lon="13.5904652"><ele>104.0</ele><time>2026-04-08T11:51:35.126Z</time></trkpt><trkpt lat="46.0405622" lon="13.5904958"><ele>102.5</ele><time>2026-04-08T11:51:36.129Z</time></trkpt><trkpt lat="46.0404777" lon="13.5905303"><ele>101.0</ele><time>2026-04-08T11:51:37.128Z</time></trkpt><trkpt lat="46.0403941" lon="13.5905617"><ele>99.49999999999999</ele><time>2026-04-08T11:51:38.129Z</time></trkpt><trkpt lat="46.0403259" lon="13.5905955"><ele>98.0</ele><time>2026-04-08T11:51:39.129Z</time></trkpt><trkpt lat="46.0402231" lon="13.5906552"><ele>98.0</ele><time>2026-04-08T11:51:41.135Z</time></trkpt><trkpt lat="46.0401459" lon="13.5906798"><ele>98.0</ele><time>2026-04-08T11:51:42.143Z</time></trkpt><trkpt lat="46.0400447" lon="13.5907274"><ele>98.0</ele><time>2026-04-08T11:51:43.13Z</time></trkpt><trkpt lat="46.0399537" lon="13.5908055"><ele>98.0</ele><time>2026-04-08T11:51:44.135Z</time></trkpt><trkpt lat="46.0398736" lon="13.5908936"><ele>98.0</ele><time>2026-04-08T11:51:45.141Z</time></trkpt><trkpt lat="46.0398035" lon="13.5909739"><ele>96.99999999999999</ele><time>2026-04-08T11:51:46.149Z</time></trkpt><trkpt lat="46.0397318" lon="13.5910569"><ele>96.0</ele><time>2026-04-08T11:51:47.129Z</time></trkpt><trkpt lat="46.0396633" lon="13.5911261"><ele>95.0</ele><time>2026-04-08T11:51:48.129Z</time></trkpt><trkpt lat="46.0395979" lon="13.5911948"><ele>94.0</ele><time>2026-04-08T11:51:49.142Z</time></trkpt><trkpt lat="46.0395275" lon="13.5912714"><ele>93.0</ele><time>2026-04-08T11:51:50.129Z</time></trkpt><trkpt lat="46.0394491" lon="13.5913541"><ele>92.0</ele><time>2026-04-08T11:51:51.138Z</time></trkpt><trkpt lat="46.0393727" lon="13.5914462"><ele>92.0</ele><time>2026-04-08T11:51:52.134Z</time></trkpt><trkpt lat="46.0392851" lon="13.591561"><ele>92.0</ele><time>2026-04-08T11:51:53.127Z</time></trkpt><trkpt lat="46.0391933" lon="13.5916927"><ele>92.0</ele><time>2026-04-08T11:51:54.131Z</time></trkpt><trkpt lat="46.0391065" lon="13.5918566"><ele>92.0</ele><time>2026-04-08T11:51:55.131Z</time></trkpt><trkpt lat="46.0390321" lon="13.5920661"><ele>87.66666666666667</ele><time>2026-04-08T11:51:56.134Z</time></trkpt><trkpt lat="46.0389832" lon="13.592315"><ele>83.33333333333333</ele><time>2026-04-08T11:51:57.128Z</time></trkpt><trkpt lat="46.0389704" lon="13.5925571"><ele>79.0</ele><time>2026-04-08T11:51:58.156Z</time></trkpt><trkpt lat="46.0389875" lon="13.592773"><ele>78.75</ele><time>2026-04-08T11:51:59.131Z</time></trkpt><trkpt lat="46.0390197" lon="13.5929838"><ele>78.5</ele><time>2026-04-08T11:52:00.145Z</time></trkpt><trkpt lat="46.0390512" lon="13.5931848"><ele>78.25</ele><time>2026-04-08T11:52:01.129Z</time></trkpt><trkpt lat="46.0390724" lon="13.5933797"><ele>78.0</ele><time>2026-04-08T11:52:02.132Z</time></trkpt><trkpt lat="46.03909" lon="13.5935757"><ele>78.75</ele><time>2026-04-08T11:52:03.135Z</time></trkpt><trkpt lat="46.0390972" lon="13.5937613"><ele>79.5</ele><time>2026-04-08T11:52:04.132Z</time></trkpt><trkpt lat="46.039081" lon="13.5939442"><ele>80.25</ele><time>2026-04-08T11:52:05.129Z</time></trkpt><trkpt lat="46.0390451" lon="13.5941232"><ele>81.0</ele><time>2026-04-08T11:52:06.144Z</time></trkpt><trkpt lat="46.0389948" lon="13.5942889"><ele>81.0</ele><time>2026-04-08T11:52:07.149Z</time></trkpt><trkpt lat="46.038936" lon="13.5944509"><ele>81.0</ele><time>2026-04-08T11:52:08.138Z</time></trkpt><trkpt lat="46.0388652" lon="13.5945989"><ele>81.0</ele><time>2026-04-08T11:52:09.13Z</time></trkpt><trkpt lat="46.0387857" lon="13.5947395"><ele>81.0</ele><time>2026-04-08T11:52:10.138Z</time></trkpt><trkpt lat="46.0386935" lon="13.594878"><ele>80.5</ele><time>2026-04-08T11:52:11.126Z</time></trkpt><trkpt lat="46.0385971" lon="13.5950196"><ele>80.0</ele><time>2026-04-08T11:52:12.142Z</time></trkpt><trkpt lat="46.0385019" lon="13.5951667"><ele>79.5</ele><time>2026-04-08T11:52:13.131Z</time></trkpt><trkpt lat="46.0383839" lon="13.5953445"><ele>79.0</ele><time>2026-04-08T11:52:14.145Z</time></trkpt><trkpt lat="46.0382363" lon="13.5955609"><ele>79.0</ele><time>2026-04-08T11:52:15.134Z</time></trkpt><trkpt lat="46.0380833" lon="13.5957821"><ele>79.0</ele><time>2026-04-08T11:52:16.127Z</time></trkpt><trkpt lat="46.0379436" lon="13.5959634"><ele>79.0</ele><time>2026-04-08T11:52:17.123Z</time></trkpt><trkpt lat="46.0378297" lon="13.5961228"><ele>84.66666666666666</ele><time>2026-04-08T11:52:18.138Z</time></trkpt><trkpt lat="46.0377225" lon="13.5962817"><ele>90.33333333333333</ele><time>2026-04-08T11:52:19.134Z</time></trkpt><trkpt lat="46.0376181" lon="13.5964586"><ele>96.0</ele><time>2026-04-08T11:52:20.128Z</time></trkpt><trkpt lat="46.0374992" lon="13.596686"><ele>89.5</ele><time>2026-04-08T11:52:21.126Z</time></trkpt><trkpt lat="46.0373749" lon="13.5969774"><ele>83.0</ele><time>2026-04-08T11:52:22.126Z</time></trkpt><trkpt lat="46.037246" lon="13.5972531"><ele>83.0</ele><time>2026-04-08T11:52:23.129Z</time></trkpt><trkpt lat="46.037126" lon="13.5975138"><ele>83.0</ele><time>2026-04-08T11:52:24.124Z</time></trkpt><trkpt lat="46.0369918" lon="13.5977239"><ele>83.0</ele><time>2026-04-08T11:52:25.125Z</time></trkpt><trkpt lat="46.0368152" lon="13.5978836"><ele>93.0</ele><time>2026-04-08T11:52:26.129Z</time></trkpt><trkpt lat="46.0366168" lon="13.5979985"><ele>103.0</ele><time>2026-04-08T11:52:27.132Z</time></trkpt><trkpt lat="46.0361533" lon="13.5981137"><ele>103.0</ele><time>2026-04-08T11:52:29.136Z</time></trkpt><trkpt lat="46.0358912" lon="13.5981463"><ele>103.0</ele><time>2026-04-08T11:52:30.129Z</time></trkpt><trkpt lat="46.0356313" lon="13.5981903"><ele>96.5</ele><time>2026-04-08T11:52:31.133Z</time></trkpt><trkpt lat="46.0353635" lon="13.5982621"><ele>90.0</ele><time>2026-04-08T11:52:32.131Z</time></trkpt><trkpt lat="46.0350891" lon="13.5983763"><ele>88.0</ele><time>2026-04-08T11:52:33.136Z</time></trkpt><trkpt lat="46.0348309" lon="13.5985004"><ele>86.0</ele><time>2026-04-08T11:52:34.143Z</time></trkpt><trkpt lat="46.0345897" lon="13.5986166"><ele>90.0</ele><time>2026-04-08T11:52:35.151Z</time></trkpt><trkpt lat="46.0343589" lon="13.5987238"><ele>94.0</ele><time>2026-04-08T11:52:36.134Z</time></trkpt><trkpt lat="46.0341223" lon="13.5987997"><ele>94.0</ele><time>2026-04-08T11:52:37.13Z</time></trkpt><trkpt lat="46.033884" lon="13.5988403"><ele>94.0</ele><time>2026-04-08T11:52:38.132Z</time></trkpt><trkpt lat="46.0336469" lon="13.5988478"><ele>94.0</ele><time>2026-04-08T11:52:39.128Z</time></trkpt><trkpt lat="46.0334205" lon="13.5988316"><ele>94.0</ele><time>2026-04-08T11:52:40.12Z</time></trkpt><trkpt lat="46.0332029" lon="13.5987953"><ele>94.0</ele><time>2026-04-08T11:52:41.119Z</time></trkpt><trkpt lat="46.0329911" lon="13.5987415"><ele>91.66666666666666</ele><time>2026-04-08T11:52:42.123Z</time></trkpt><trkpt lat="46.03278" lon="13.5986814"><ele>89.33333333333333</ele><time>2026-04-08T11:52:43.14Z</time></trkpt><trkpt lat="46.0325708" lon="13.5986322"><ele>87.0</ele><time>2026-04-08T11:52:44.124Z</time></trkpt><trkpt lat="46.0323659" lon="13.5985788"><ele>86.0</ele><time>2026-04-08T11:52:45.134Z</time></trkpt><trkpt lat="46.0321591" lon="13.5985314"><ele>85.0</ele><time>2026-04-08T11:52:46.136Z</time></trkpt><trkpt lat="46.0319541" lon="13.5984819"><ele>84.0</ele><time>2026-04-08T11:52:47.131Z</time></trkpt><trkpt lat="46.0317496" lon="13.5984333"><ele>86.33333333333333</ele><time>2026-04-08T11:52:48.134Z</time></trkpt><trkpt lat="46.0315486" lon="13.5983779"><ele>88.66666666666666</ele><time>2026-04-08T11:52:49.126Z</time></trkpt><trkpt lat="46.0313477" lon="13.5983275"><ele>91.0</ele><time>2026-04-08T11:52:50.128Z</time></trkpt><trkpt lat="46.0311524" lon="13.5982691"><ele>91.0</ele><time>2026-04-08T11:52:51.131Z</time></trkpt><trkpt lat="46.0309592" lon="13.5981981"><ele>91.0</ele><time>2026-04-08T11:52:52.124Z</time></trkpt><trkpt lat="46.0307615" lon="13.598119"><ele>91.0</ele><time>2026-04-08T11:52:53.122Z</time></trkpt><trkpt lat="46.0305647" lon="13.598016"><ele>89.66666666666666</ele><time>2026-04-08T11:52:54.125Z</time></trkpt><trkpt lat="46.0303691" lon="13.5979088"><ele>88.33333333333333</ele><time>2026-04-08T11:52:55.13Z</time></trkpt><trkpt lat="46.0301697" lon="13.5977978"><ele>87.0</ele><time>2026-04-08T11:52:56.127Z</time></trkpt><trkpt lat="46.0299611" lon="13.5977001"><ele>87.0</ele><time>2026-04-08T11:52:57.12Z</time></trkpt><trkpt lat="46.0297484" lon="13.5976207"><ele>87.0</ele><time>2026-04-08T11:52:58.127Z</time></trkpt><trkpt lat="46.0295256" lon="13.5975659"><ele>87.0</ele><time>2026-04-08T11:52:59.151Z</time></trkpt><trkpt lat="46.0292912" lon="13.5975455"><ele>86.33333333333333</ele><time>2026-04-08T11:53:00.13Z</time></trkpt><trkpt lat="46.0290681" lon="13.5975412"><ele>85.66666666666666</ele><time>2026-04-08T11:53:01.127Z</time></trkpt><trkpt lat="46.028851" lon="13.5975488"><ele>85.0</ele><time>2026-04-08T11:53:02.135Z</time></trkpt><trkpt lat="46.0286408" lon="13.5975787"><ele>85.0</ele><time>2026-04-08T11:53:03.147Z</time></trkpt><trkpt lat="46.0284386" lon="13.5976521"><ele>85.0</ele><time>2026-04-08T11:53:04.124Z</time></trkpt><trkpt lat="46.0282532" lon="13.5977567"><ele>85.0</ele><time>2026-04-08T11:53:05.133Z</time></trkpt><trkpt lat="46.0280698" lon="13.597877"><ele>83.66666666666666</ele><time>2026-04-08T11:53:06.135Z</time></trkpt><trkpt lat="46.0278878" lon="13.598017"><ele>82.33333333333333</ele><time>2026-04-08T11:53:07.134Z</time></trkpt><trkpt lat="46.0277206" lon="13.5981774"><ele>81.0</ele><time>2026-04-08T11:53:08.146Z</time></trkpt><trkpt lat="46.027567" lon="13.5983817"><ele>84.33333333333333</ele><time>2026-04-08T11:53:09.122Z</time></trkpt><trkpt lat="46.0274344" lon="13.5986178"><ele>87.66666666666666</ele><time>2026-04-08T11:53:10.123Z</time></trkpt><trkpt lat="46.0273187" lon="13.5988711"><ele>91.0</ele><time>2026-04-08T11:53:11.126Z</time></trkpt><trkpt lat="46.0272187" lon="13.5991339"><ele>91.33333333333333</ele><time>2026-04-08T11:53:12.125Z</time></trkpt><trkpt lat="46.027125" lon="13.5994039"><ele>91.66666666666667</ele><time>2026-04-08T11:53:13.128Z</time></trkpt><trkpt lat="46.0270325" lon="13.5996883"><ele>92.0</ele><time>2026-04-08T11:53:14.128Z</time></trkpt><trkpt lat="46.0269646" lon="13.5999974"><ele>89.0</ele><time>2026-04-08T11:53:15.123Z</time></trkpt><trkpt lat="46.0269403" lon="13.6003411"><ele>86.0</ele><time>2026-04-08T11:53:16.127Z</time></trkpt><trkpt lat="46.0269402" lon="13.6006949"><ele>86.0</ele><time>2026-04-08T11:53:17.138Z</time></trkpt><trkpt lat="46.0269225" lon="13.6010679"><ele>86.0</ele><time>2026-04-08T11:53:18.122Z</time></trkpt><trkpt lat="46.026894" lon="13.6014425"><ele>86.5</ele><time>2026-04-08T11:53:19.138Z</time></trkpt><trkpt lat="46.0268738" lon="13.6018141"><ele>87.0</ele><time>2026-04-08T11:53:20.129Z</time></trkpt><trkpt lat="46.02685" lon="13.6021791"><ele>88.0</ele><time>2026-04-08T11:53:21.127Z</time></trkpt><trkpt lat="46.0268102" lon="13.6025366"><ele>89.0</ele><time>2026-04-08T11:53:22.123Z</time></trkpt><trkpt lat="46.0267549" lon="13.6028897"><ele>92.5</ele><time>2026-04-08T11:53:23.125Z</time></trkpt><trkpt lat="46.0266606" lon="13.6032324"><ele>96.0</ele><time>2026-04-08T11:53:24.127Z</time></trkpt><trkpt lat="46.02653" lon="13.603556"><ele>90.5</ele><time>2026-04-08T11:53:25.128Z</time></trkpt><trkpt lat="46.0263936" lon="13.6038662"><ele>85.0</ele><time>2026-04-08T11:53:26.14Z</time></trkpt><trkpt lat="46.0260601" lon="13.6044312"><ele>86.0</ele><time>2026-04-08T11:53:28.128Z</time></trkpt><trkpt lat="46.0258641" lon="13.6046857"><ele>87.0</ele><time>2026-04-08T11:53:29.133Z</time></trkpt><trkpt lat="46.02565" lon="13.6049244"><ele>87.0</ele><time>2026-04-08T11:53:30.133Z</time></trkpt><trkpt lat="46.0254344" lon="13.6051689"><ele>87.0</ele><time>2026-04-08T11:53:31.163Z</time></trkpt><trkpt lat="46.0250121" lon="13.6056855"><ele>89.0</ele><time>2026-04-08T11:53:33.122Z</time></trkpt><trkpt lat="46.0247931" lon="13.6059433"><ele>91.0</ele><time>2026-04-08T11:53:34.128Z</time></trkpt><trkpt lat="46.0245786" lon="13.6061962"><ele>91.0</ele><time>2026-04-08T11:53:35.122Z</time></trkpt><trkpt lat="46.0243707" lon="13.6064462"><ele>91.0</ele><time>2026-04-08T11:53:36.138Z</time></trkpt><trkpt lat="46.0241679" lon="13.606687"><ele>93.5</ele><time>2026-04-08T11:53:37.121Z</time></trkpt><trkpt lat="46.0239662" lon="13.6069081"><ele>96.0</ele><time>2026-04-08T11:53:38.13Z</time></trkpt><trkpt lat="46.0237558" lon="13.6070771"><ele>96.0</ele><time>2026-04-08T11:53:39.124Z</time></trkpt><trkpt lat="46.0235289" lon="13.6071807"><ele>96.0</ele><time>2026-04-08T11:53:40.137Z</time></trkpt><trkpt lat="46.0232763" lon="13.607225"><ele>96.0</ele><time>2026-04-08T11:53:41.119Z</time></trkpt><trkpt lat="46.0230043" lon="13.6072296"><ele>96.0</ele><time>2026-04-08T11:53:42.138Z</time></trkpt><trkpt lat="46.0227308" lon="13.6072211"><ele>96.0</ele><time>2026-04-08T11:53:43.12Z</time></trkpt><trkpt lat="46.0224494" lon="13.6072175"><ele>96.0</ele><time>2026-04-08T11:53:44.125Z</time></trkpt><trkpt lat="46.0221578" lon="13.6072106"><ele>99.0</ele><time>2026-04-08T11:53:45.116Z</time></trkpt><trkpt lat="46.0215703" lon="13.6072053"><ele>99.0</ele><time>2026-04-08T11:53:47.12Z</time></trkpt><trkpt lat="46.0212844" lon="13.6072052"><ele>99.0</ele><time>2026-04-08T11:53:48.127Z</time></trkpt><trkpt lat="46.0210076" lon="13.6072083"><ele>107.0</ele><time>2026-04-08T11:53:49.117Z</time></trkpt><trkpt lat="46.0207288" lon="13.6072185"><ele>115.0</ele><time>2026-04-08T11:53:50.12Z</time></trkpt><trkpt lat="46.0201824" lon="13.6072199"><ele>120.0</ele><time>2026-04-08T11:53:52.123Z</time></trkpt><trkpt lat="46.019927" lon="13.6072266"><ele>125.0</ele><time>2026-04-08T11:53:53.126Z</time></trkpt><trkpt lat="46.0196952" lon="13.6072381"><ele>125.0</ele><time>2026-04-08T11:53:54.129Z</time></trkpt><trkpt lat="46.0194686" lon="13.6072238"><ele>125.0</ele><time>2026-04-08T11:53:55.119Z</time></trkpt><trkpt lat="46.0192597" lon="13.6071474"><ele>125.0</ele><time>2026-04-08T11:53:56.124Z</time></trkpt><trkpt lat="46.0190624" lon="13.6070076"><ele>111.0</ele><time>2026-04-08T11:53:57.12Z</time></trkpt><trkpt lat="46.0186498" lon="13.6067734"><ele>97.0</ele><time>2026-04-08T11:53:59.118Z</time></trkpt><trkpt lat="46.0182127" lon="13.6066767"><ele>93.33333333333334</ele><time>2026-04-08T11:54:01.125Z</time></trkpt><trkpt lat="46.0180129" lon="13.6066413"><ele>89.66666666666667</ele><time>2026-04-08T11:54:02.122Z</time></trkpt><trkpt lat="46.0178187" lon="13.6066204"><ele>86.0</ele><time>2026-04-08T11:54:03.118Z</time></trkpt><trkpt lat="46.0176204" lon="13.6066327"><ele>83.66666666666667</ele><time>2026-04-08T11:54:04.122Z</time></trkpt><trkpt lat="46.0174317" lon="13.6066815"><ele>81.33333333333333</ele><time>2026-04-08T11:54:05.131Z</time></trkpt><trkpt lat="46.0172466" lon="13.6067802"><ele>79.0</ele><time>2026-04-08T11:54:06.119Z</time></trkpt><trkpt lat="46.0170801" lon="13.6069353"><ele>82.0</ele><time>2026-04-08T11:54:07.129Z</time></trkpt><trkpt lat="46.0169209" lon="13.6071181"><ele>85.0</ele><time>2026-04-08T11:54:08.136Z</time></trkpt><trkpt lat="46.0167633" lon="13.6073107"><ele>88.0</ele><time>2026-04-08T11:54:09.123Z</time></trkpt><trkpt lat="46.016599" lon="13.6075158"><ele>89.33333333333333</ele><time>2026-04-08T11:54:10.121Z</time></trkpt><trkpt lat="46.0164423" lon="13.6077197"><ele>90.66666666666667</ele><time>2026-04-08T11:54:11.129Z</time></trkpt><trkpt lat="46.0163" lon="13.6079464"><ele>92.0</ele><time>2026-04-08T11:54:12.142Z</time></trkpt><trkpt lat="46.0161691" lon="13.6081916"><ele>94.5</ele><time>2026-04-08T11:54:13.123Z</time></trkpt><trkpt lat="46.0160359" lon="13.6084692"><ele>97.0</ele><time>2026-04-08T11:54:14.123Z</time></trkpt><trkpt lat="46.0159047" lon="13.608752"><ele>94.5</ele><time>2026-04-08T11:54:15.127Z</time></trkpt><trkpt lat="46.0157754" lon="13.6090342"><ele>92.0</ele><time>2026-04-08T11:54:16.126Z</time></trkpt><trkpt lat="46.0156724" lon="13.6093462"><ele>89.5</ele><time>2026-04-08T11:54:17.133Z</time></trkpt><trkpt lat="46.0156148" lon="13.6096924"><ele>87.0</ele><time>2026-04-08T11:54:18.142Z</time></trkpt><trkpt lat="46.0155719" lon="13.6100389"><ele>85.66666666666667</ele><time>2026-04-08T11:54:19.123Z</time></trkpt><trkpt lat="46.0155285" lon="13.6103445"><ele>84.33333333333334</ele><time>2026-04-08T11:54:20.118Z</time></trkpt><trkpt lat="46.0154648" lon="13.610634"><ele>83.0</ele><time>2026-04-08T11:54:21.12Z</time></trkpt><trkpt lat="46.0153628" lon="13.6108926"><ele>83.0</ele><time>2026-04-08T11:54:22.13Z</time></trkpt><trkpt lat="46.0152172" lon="13.6111232"><ele>83.0</ele><time>2026-04-08T11:54:23.122Z</time></trkpt><trkpt lat="46.0150721" lon="13.6113484"><ele>83.0</ele><time>2026-04-08T11:54:24.137Z</time></trkpt><trkpt lat="46.014921" lon="13.6115704"><ele>81.33333333333334</ele><time>2026-04-08T11:54:25.131Z</time></trkpt><trkpt lat="46.0147764" lon="13.6117925"><ele>79.66666666666667</ele><time>2026-04-08T11:54:26.124Z</time></trkpt><trkpt lat="46.0146038" lon="13.6119651"><ele>78.0</ele><time>2026-04-08T11:54:27.126Z</time></trkpt><trkpt lat="46.0143841" lon="13.6120887"><ele>82.0</ele><time>2026-04-08T11:54:28.123Z</time></trkpt><trkpt lat="46.0141594" lon="13.6122132"><ele>86.0</ele><time>2026-04-08T11:54:29.125Z</time></trkpt><trkpt lat="46.0139442" lon="13.6123348"><ele>86.0</ele><time>2026-04-08T11:54:30.127Z</time></trkpt><trkpt lat="46.013736" lon="13.6124418"><ele>86.0</ele><time>2026-04-08T11:54:31.127Z</time></trkpt><trkpt lat="46.0135238" lon="13.6125229"><ele>86.0</ele><time>2026-04-08T11:54:32.121Z</time></trkpt><trkpt lat="46.0133129" lon="13.6125988"><ele>84.66666666666667</ele><time>2026-04-08T11:54:33.124Z</time></trkpt><trkpt lat="46.0131017" lon="13.612671"><ele>83.33333333333333</ele><time>2026-04-08T11:54:34.126Z</time></trkpt><trkpt lat="46.0128887" lon="13.6127355"><ele>82.0</ele><time>2026-04-08T11:54:35.121Z</time></trkpt><trkpt lat="46.0126756" lon="13.6127966"><ele>87.33333333333333</ele><time>2026-04-08T11:54:36.129Z</time></trkpt><trkpt lat="46.0124622" lon="13.6128577"><ele>92.66666666666666</ele><time>2026-04-08T11:54:37.128Z</time></trkpt><trkpt lat="46.0122481" lon="13.6129199"><ele>98.0</ele><time>2026-04-08T11:54:38.137Z</time></trkpt><trkpt lat="46.0120404" lon="13.6129836"><ele>98.0</ele><time>2026-04-08T11:54:39.124Z</time></trkpt><trkpt lat="46.0118388" lon="13.6130421"><ele>98.0</ele><time>2026-04-08T11:54:40.118Z</time></trkpt><trkpt lat="46.0116444" lon="13.6131015"><ele>98.0</ele><time>2026-04-08T11:54:41.131Z</time></trkpt><trkpt lat="46.0114542" lon="13.6131649"><ele>93.33333333333333</ele><time>2026-04-08T11:54:42.131Z</time></trkpt><trkpt lat="46.0112623" lon="13.6132514"><ele>88.66666666666666</ele><time>2026-04-08T11:54:43.128Z</time></trkpt><trkpt lat="46.0110779" lon="13.6133665"><ele>84.0</ele><time>2026-04-08T11:54:44.133Z</time></trkpt><trkpt lat="46.0108955" lon="13.6135115"><ele>82.66666666666667</ele><time>2026-04-08T11:54:45.119Z</time></trkpt><trkpt lat="46.0107094" lon="13.6136831"><ele>81.33333333333334</ele><time>2026-04-08T11:54:46.125Z</time></trkpt><trkpt lat="46.0105297" lon="13.6138742"><ele>80.0</ele><time>2026-04-08T11:54:47.127Z</time></trkpt><trkpt lat="46.0103643" lon="13.6140721"><ele>80.0</ele><time>2026-04-08T11:54:48.123Z</time></trkpt><trkpt lat="46.0102102" lon="13.6142775"><ele>80.0</ele><time>2026-04-08T11:54:49.13Z</time></trkpt><trkpt lat="46.0100845" lon="13.6145167"><ele>80.0</ele><time>2026-04-08T11:54:50.122Z</time></trkpt><trkpt lat="46.0099804" lon="13.6147802"><ele>84.66666666666667</ele><time>2026-04-08T11:54:51.126Z</time></trkpt><trkpt lat="46.0099094" lon="13.6150717"><ele>89.33333333333333</ele><time>2026-04-08T11:54:52.125Z</time></trkpt><trkpt lat="46.0098718" lon="13.6153745"><ele>94.0</ele><time>2026-04-08T11:54:53.13Z</time></trkpt><trkpt lat="46.009869" lon="13.6156846"><ele>94.0</ele><time>2026-04-08T11:54:54.127Z</time></trkpt><trkpt lat="46.009903" lon="13.6159945"><ele>94.0</ele><time>2026-04-08T11:54:55.128Z</time></trkpt><trkpt lat="46.0099485" lon="13.6162961"><ele>94.0</ele><time>2026-04-08T11:54:56.122Z</time></trkpt><trkpt lat="46.0099969" lon="13.616618"><ele>93.33333333333333</ele><time>2026-04-08T11:54:57.129Z</time></trkpt><trkpt lat="46.0100418" lon="13.6169336"><ele>92.66666666666667</ele><time>2026-04-08T11:54:58.126Z</time></trkpt><trkpt lat="46.010079" lon="13.6172352"><ele>92.0</ele><time>2026-04-08T11:54:59.113Z</time></trkpt><trkpt lat="46.0101068" lon="13.6175008"><ele>91.5</ele><time>2026-04-08T11:55:00.127Z</time></trkpt><trkpt lat="46.0101262" lon="13.6177183"><ele>91.0</ele><time>2026-04-08T11:55:01.132Z</time></trkpt><trkpt lat="46.0101455" lon="13.6179238"><ele>90.5</ele><time>2026-04-08T11:55:02.126Z</time></trkpt><trkpt lat="46.010143" lon="13.6180922"><ele>90.0</ele><time>2026-04-08T11:55:03.134Z</time></trkpt><trkpt lat="46.0101213" lon="13.6182224"><ele>90.16666666666667</ele><time>2026-04-08T11:55:04.127Z</time></trkpt><trkpt lat="46.0100835" lon="13.6183253"><ele>90.33333333333333</ele><time>2026-04-08T11:55:05.132Z</time></trkpt><trkpt lat="46.0100544" lon="13.6184127"><ele>90.5</ele><time>2026-04-08T11:55:06.126Z</time></trkpt><trkpt lat="46.010015" lon="13.6185504"><ele>90.66666666666666</ele><time>2026-04-08T11:55:08.138Z</time></trkpt><trkpt lat="46.0099976" lon="13.6186703"><ele>90.83333333333333</ele><time>2026-04-08T11:55:10.121Z</time></trkpt><trkpt lat="46.0099885" lon="13.6187652"><ele>91.0</ele><time>2026-04-08T11:55:12.134Z</time></trkpt><trkpt lat="46.010052" lon="13.6188006"><ele>91.0</ele><time>2026-04-08T11:55:20.136Z</time></trkpt></trkseg><trkseg><trkpt lat="46.0100482" lon="13.6185397"><ele>87.0</ele><time>2026-04-08T12:45:34.803Z</time></trkpt><trkpt lat="46.0100708" lon="13.6184058"><ele>87.0</ele><time>2026-04-08T12:45:36.798Z</time></trkpt><trkpt lat="46.0101013" lon="13.6183081"><ele>87.0</ele><time>2026-04-08T12:45:38.787Z</time></trkpt><trkpt lat="46.0101624" lon="13.6183731"><ele>87.0</ele><time>2026-04-08T12:45:42.798Z</time></trkpt><trkpt lat="46.0101573" lon="13.6184899"><ele>87.0</ele><time>2026-04-08T12:45:43.794Z</time></trkpt><trkpt lat="46.0101323" lon="13.618625"><ele>87.0</ele><time>2026-04-08T12:45:44.802Z</time></trkpt><trkpt lat="46.0101075" lon="13.6187811"><ele>88.0</ele><time>2026-04-08T12:45:45.802Z</time></trkpt><trkpt lat="46.0100843" lon="13.6189456"><ele>89.0</ele><time>2026-04-08T12:45:46.818Z</time></trkpt><trkpt lat="46.0100532" lon="13.6191106"><ele>90.0</ele><time>2026-04-08T12:45:47.805Z</time></trkpt><trkpt lat="46.0100115" lon="13.6192738"><ele>91.0</ele><time>2026-04-08T12:45:48.787Z</time></trkpt><trkpt lat="46.0099503" lon="13.6194303"><ele>87.5</ele><time>2026-04-08T12:45:49.79Z</time></trkpt><trkpt lat="46.0098698" lon="13.6195703"><ele>84.0</ele><time>2026-04-08T12:45:50.79Z</time></trkpt><trkpt lat="46.0097684" lon="13.619696"><ele>80.5</ele><time>2026-04-08T12:45:51.792Z</time></trkpt><trkpt lat="46.0096731" lon="13.6198198"><ele>77.0</ele><time>2026-04-08T12:45:52.798Z</time></trkpt><trkpt lat="46.0095614" lon="13.6199531"><ele>77.0</ele><time>2026-04-08T12:45:53.794Z</time></trkpt><trkpt lat="46.0094528" lon="13.6201327"><ele>77.0</ele><time>2026-04-08T12:45:54.792Z</time></trkpt><trkpt lat="46.0093622" lon="13.6203597"><ele>77.0</ele><time>2026-04-08T12:45:55.793Z</time></trkpt><trkpt lat="46.0092754" lon="13.6205968"><ele>78.66666666666667</ele><time>2026-04-08T12:45:56.797Z</time></trkpt><trkpt lat="46.0091821" lon="13.6208362"><ele>80.33333333333333</ele><time>2026-04-08T12:45:57.802Z</time></trkpt><trkpt lat="46.0090739" lon="13.6210603"><ele>82.0</ele><time>2026-04-08T12:45:58.799Z</time></trkpt><trkpt lat="46.0089474" lon="13.6212694"><ele>83.0</ele><time>2026-04-08T12:45:59.808Z</time></trkpt><trkpt lat="46.0088113" lon="13.6214798"><ele>84.0</ele><time>2026-04-08T12:46:00.806Z</time></trkpt><trkpt lat="46.0086802" lon="13.6216939"><ele>85.0</ele><time>2026-04-08T12:46:01.809Z</time></trkpt><trkpt lat="46.0085442" lon="13.6219209"><ele>85.66666666666666</ele><time>2026-04-08T12:46:02.848Z</time></trkpt><trkpt lat="46.0084051" lon="13.6221447"><ele>86.33333333333333</ele><time>2026-04-08T12:46:03.8Z</time></trkpt><trkpt lat="46.0082621" lon="13.622377"><ele>87.0</ele><time>2026-04-08T12:46:04.809Z</time></trkpt><trkpt lat="46.0081277" lon="13.6225991"><ele>87.0</ele><time>2026-04-08T12:46:05.801Z</time></trkpt><trkpt lat="46.007999" lon="13.6228088"><ele>87.0</ele><time>2026-04-08T12:46:06.808Z</time></trkpt><trkpt lat="46.007879" lon="13.623005"><ele>87.0</ele><time>2026-04-08T12:46:07.806Z</time></trkpt><trkpt lat="46.0077667" lon="13.6231905"><ele>86.0</ele><time>2026-04-08T12:46:08.809Z</time></trkpt><trkpt lat="46.0076632" lon="13.6233687"><ele>85.0</ele><time>2026-04-08T12:46:09.798Z</time></trkpt><trkpt lat="46.0075638" lon="13.6235571"><ele>84.0</ele><time>2026-04-08T12:46:10.797Z</time></trkpt><trkpt lat="46.0074623" lon="13.6237555"><ele>82.33333333333333</ele><time>2026-04-08T12:46:11.798Z</time></trkpt><trkpt lat="46.0073497" lon="13.6239732"><ele>80.66666666666666</ele><time>2026-04-08T12:46:12.798Z</time></trkpt><trkpt lat="46.0072417" lon="13.6242082"><ele>79.0</ele><time>2026-04-08T12:46:13.791Z</time></trkpt><trkpt lat="46.0071339" lon="13.6244485"><ele>79.0</ele><time>2026-04-08T12:46:14.811Z</time></trkpt><trkpt lat="46.007026" lon="13.6246988"><ele>79.0</ele><time>2026-04-08T12:46:15.813Z</time></trkpt><trkpt lat="46.0069138" lon="13.6249554"><ele>79.0</ele><time>2026-04-08T12:46:16.796Z</time></trkpt><trkpt lat="46.0068031" lon="13.6252105"><ele>80.66666666666666</ele><time>2026-04-08T12:46:17.798Z</time></trkpt><trkpt lat="46.0066895" lon="13.6254669"><ele>82.33333333333333</ele><time>2026-04-08T12:46:18.806Z</time></trkpt><trkpt lat="46.0065664" lon="13.6257176"><ele>84.0</ele><time>2026-04-08T12:46:19.803Z</time></trkpt><trkpt lat="46.0064349" lon="13.6259606"><ele>84.33333333333333</ele><time>2026-04-08T12:46:20.803Z</time></trkpt><trkpt lat="46.0063069" lon="13.6262007"><ele>84.66666666666666</ele><time>2026-04-08T12:46:21.797Z</time></trkpt><trkpt lat="46.0061826" lon="13.6264382"><ele>85.0</ele><time>2026-04-08T12:46:22.8Z</time></trkpt><trkpt lat="46.0060524" lon="13.6266852"><ele>85.0</ele><time>2026-04-08T12:46:23.798Z</time></trkpt><trkpt lat="46.0059213" lon="13.6269315"><ele>85.0</ele><time>2026-04-08T12:46:24.816Z</time></trkpt><trkpt lat="46.0057872" lon="13.6271775"><ele>85.0</ele><time>2026-04-08T12:46:25.814Z</time></trkpt><trkpt lat="46.0056505" lon="13.6274263"><ele>85.66666666666666</ele><time>2026-04-08T12:46:26.799Z</time></trkpt><trkpt lat="46.0055204" lon="13.6276771"><ele>86.33333333333333</ele><time>2026-04-08T12:46:27.796Z</time></trkpt><trkpt lat="46.0053867" lon="13.6279234"><ele>87.0</ele><time>2026-04-08T12:46:28.806Z</time></trkpt><trkpt lat="46.0052508" lon="13.6281717"><ele>87.0</ele><time>2026-04-08T12:46:29.798Z</time></trkpt><trkpt lat="46.0051131" lon="13.628419"><ele>87.0</ele><time>2026-04-08T12:46:30.799Z</time></trkpt><trkpt lat="46.0049749" lon="13.6286614"><ele>87.0</ele><time>2026-04-08T12:46:31.796Z</time></trkpt><trkpt lat="46.004825" lon="13.6288907"><ele>88.0</ele><time>2026-04-08T12:46:32.813Z</time></trkpt><trkpt lat="46.0046615" lon="13.6291022"><ele>89.0</ele><time>2026-04-08T12:46:33.802Z</time></trkpt><trkpt lat="46.0044903" lon="13.629304"><ele>90.0</ele><time>2026-04-08T12:46:34.804Z</time></trkpt><trkpt lat="46.0043239" lon="13.6295056"><ele>86.33333333333333</ele><time>2026-04-08T12:46:35.796Z</time></trkpt><trkpt lat="46.0041624" lon="13.6297252"><ele>82.66666666666666</ele><time>2026-04-08T12:46:36.827Z</time></trkpt><trkpt lat="46.0040098" lon="13.6299577"><ele>79.0</ele><time>2026-04-08T12:46:37.806Z</time></trkpt><trkpt lat="46.0038647" lon="13.6302"><ele>80.0</ele><time>2026-04-08T12:46:38.801Z</time></trkpt><trkpt lat="46.0037358" lon="13.6304514"><ele>81.0</ele><time>2026-04-08T12:46:39.796Z</time></trkpt><trkpt lat="46.0036125" lon="13.630703"><ele>82.0</ele><time>2026-04-08T12:46:40.815Z</time></trkpt><trkpt lat="46.003497" lon="13.6309472"><ele>84.0</ele><time>2026-04-08T12:46:41.793Z</time></trkpt><trkpt lat="46.0033612" lon="13.6311456"><ele>86.0</ele><time>2026-04-08T12:46:42.802Z</time></trkpt><trkpt lat="46.003183" lon="13.6312854"><ele>88.0</ele><time>2026-04-08T12:46:43.805Z</time></trkpt><trkpt lat="46.0029947" lon="13.6313904"><ele>88.0</ele><time>2026-04-08T12:46:44.813Z</time></trkpt><trkpt lat="46.0028065" lon="13.6315107"><ele>88.0</ele><time>2026-04-08T12:46:45.8Z</time></trkpt><trkpt lat="46.0026175" lon="13.631633"><ele>88.0</ele><time>2026-04-08T12:46:46.808Z</time></trkpt><trkpt lat="46.0024315" lon="13.6317519"><ele>92.0</ele><time>2026-04-08T12:46:47.798Z</time></trkpt><trkpt lat="46.0022417" lon="13.6318532"><ele>96.0</ele><time>2026-04-08T12:46:48.799Z</time></trkpt><trkpt lat="46.0020473" lon="13.6319324"><ele>100.0</ele><time>2026-04-08T12:46:49.797Z</time></trkpt><trkpt lat="46.0018504" lon="13.6319764"><ele>96.66666666666667</ele><time>2026-04-08T12:46:50.799Z</time></trkpt><trkpt lat="46.00165" lon="13.6320235"><ele>93.33333333333334</ele><time>2026-04-08T12:46:51.805Z</time></trkpt><trkpt lat="46.0014544" lon="13.6320606"><ele>90.0</ele><time>2026-04-08T12:46:52.799Z</time></trkpt><trkpt lat="46.001257" lon="13.6320952"><ele>90.0</ele><time>2026-04-08T12:46:53.811Z</time></trkpt><trkpt lat="46.0010552" lon="13.6321419"><ele>90.0</ele><time>2026-04-08T12:46:54.811Z</time></trkpt><trkpt lat="46.0008548" lon="13.6321982"><ele>90.0</ele><time>2026-04-08T12:46:55.807Z</time></trkpt><trkpt lat="46.0006609" lon="13.6322691"><ele>89.0</ele><time>2026-04-08T12:46:56.811Z</time></trkpt><trkpt lat="46.0004676" lon="13.6323754"><ele>88.0</ele><time>2026-04-08T12:46:57.834Z</time></trkpt><trkpt lat="46.0002768" lon="13.6325033"><ele>87.0</ele><time>2026-04-08T12:46:58.807Z</time></trkpt><trkpt lat="46.0000879" lon="13.6326539"><ele>87.0</ele><time>2026-04-08T12:46:59.806Z</time></trkpt><trkpt lat="45.9998973" lon="13.6327989"><ele>87.0</ele><time>2026-04-08T12:47:00.807Z</time></trkpt><trkpt lat="45.9997089" lon="13.63295"><ele>87.0</ele><time>2026-04-08T12:47:01.804Z</time></trkpt><trkpt lat="45.9995261" lon="13.6331091"><ele>91.66666666666666</ele><time>2026-04-08T12:47:02.802Z</time></trkpt><trkpt lat="45.9993529" lon="13.6332808"><ele>96.33333333333333</ele><time>2026-04-08T12:47:03.811Z</time></trkpt><trkpt lat="45.9991943" lon="13.6334857"><ele>101.0</ele><time>2026-04-08T12:47:04.807Z</time></trkpt><trkpt lat="45.9990452" lon="13.6337032"><ele>101.0</ele><time>2026-04-08T12:47:05.825Z</time></trkpt><trkpt lat="45.9988963" lon="13.6339264"><ele>101.0</ele><time>2026-04-08T12:47:06.812Z</time></trkpt><trkpt lat="45.9987559" lon="13.6341692"><ele>101.0</ele><time>2026-04-08T12:47:07.815Z</time></trkpt><trkpt lat="45.998635" lon="13.6344349"><ele>130.0</ele><time>2026-04-08T12:47:08.802Z</time></trkpt><trkpt lat="45.9983897" lon="13.635315"><ele>130.0</ele><time>2026-04-08T12:47:11.824Z</time></trkpt><trkpt lat="45.9983409" lon="13.6356307"><ele>130.0</ele><time>2026-04-08T12:47:12.805Z</time></trkpt><trkpt lat="45.9982882" lon="13.6359473"><ele>114.0</ele><time>2026-04-08T12:47:13.818Z</time></trkpt><trkpt lat="45.9982336" lon="13.6362621"><ele>98.0</ele><time>2026-04-08T12:47:14.813Z</time></trkpt><trkpt lat="45.9981536" lon="13.636569"><ele>98.0</ele><time>2026-04-08T12:47:15.821Z</time></trkpt><trkpt lat="45.9980448" lon="13.6368659"><ele>98.0</ele><time>2026-04-08T12:47:16.807Z</time></trkpt><trkpt lat="45.9979227" lon="13.6371382"><ele>102.0</ele><time>2026-04-08T12:47:17.813Z</time></trkpt><trkpt lat="45.9978051" lon="13.6374168"><ele>106.0</ele><time>2026-04-08T12:47:18.809Z</time></trkpt><trkpt lat="45.997698" lon="13.6377001"><ele>102.33333333333334</ele><time>2026-04-08T12:47:19.821Z</time></trkpt><trkpt lat="45.9975891" lon="13.6379833"><ele>98.66666666666667</ele><time>2026-04-08T12:47:20.827Z</time></trkpt><trkpt lat="45.9974789" lon="13.6382614"><ele>95.0</ele><time>2026-04-08T12:47:21.805Z</time></trkpt><trkpt lat="45.9973646" lon="13.6385263"><ele>98.66666666666667</ele><time>2026-04-08T12:47:22.809Z</time></trkpt><trkpt lat="45.9972286" lon="13.6387608"><ele>102.33333333333334</ele><time>2026-04-08T12:47:23.81Z</time></trkpt><trkpt lat="45.9970705" lon="13.6389492"><ele>106.0</ele><time>2026-04-08T12:47:24.809Z</time></trkpt><trkpt lat="45.9967206" lon="13.639322"><ele>107.66666666666667</ele><time>2026-04-08T12:47:26.808Z</time></trkpt><trkpt lat="45.9965439" lon="13.6394996"><ele>109.33333333333334</ele><time>2026-04-08T12:47:27.812Z</time></trkpt><trkpt lat="45.9963543" lon="13.6396666"><ele>111.0</ele><time>2026-04-08T12:47:28.814Z</time></trkpt><trkpt lat="45.9961657" lon="13.6398327"><ele>111.0</ele><time>2026-04-08T12:47:29.815Z</time></trkpt><trkpt lat="45.9959738" lon="13.6399989"><ele>111.0</ele><time>2026-04-08T12:47:30.808Z</time></trkpt><trkpt lat="45.9957748" lon="13.6401604"><ele>117.0</ele><time>2026-04-08T12:47:31.806Z</time></trkpt><trkpt lat="45.9955694" lon="13.6402979"><ele>123.0</ele><time>2026-04-08T12:47:32.817Z</time></trkpt><trkpt lat="45.9953631" lon="13.6404292"><ele>123.0</ele><time>2026-04-08T12:47:33.821Z</time></trkpt><trkpt lat="45.9951565" lon="13.6405661"><ele>123.0</ele><time>2026-04-08T12:47:34.839Z</time></trkpt><trkpt lat="45.9949547" lon="13.6407191"><ele>127.33333333333334</ele><time>2026-04-08T12:47:35.828Z</time></trkpt><trkpt lat="45.9947716" lon="13.6408913"><ele>131.66666666666669</ele><time>2026-04-08T12:47:36.82Z</time></trkpt><trkpt lat="45.9945849" lon="13.6410729"><ele>136.0</ele><time>2026-04-08T12:47:37.815Z</time></trkpt><trkpt lat="45.9943984" lon="13.6412593"><ele>136.0</ele><time>2026-04-08T12:47:38.814Z</time></trkpt><trkpt lat="45.9942136" lon="13.6414445"><ele>136.0</ele><time>2026-04-08T12:47:39.805Z</time></trkpt><trkpt lat="45.994035" lon="13.641628"><ele>136.0</ele><time>2026-04-08T12:47:40.808Z</time></trkpt><trkpt lat="45.9938561" lon="13.6418"><ele>136.66666666666669</ele><time>2026-04-08T12:47:41.82Z</time></trkpt><trkpt lat="45.9936722" lon="13.6419484"><ele>137.33333333333334</ele><time>2026-04-08T12:47:42.813Z</time></trkpt><trkpt lat="45.9934835" lon="13.6420763"><ele>138.0</ele><time>2026-04-08T12:47:43.805Z</time></trkpt><trkpt lat="45.9932865" lon="13.6421953"><ele>129.33333333333334</ele><time>2026-04-08T12:47:44.837Z</time></trkpt><trkpt lat="45.9930889" lon="13.6423326"><ele>120.66666666666667</ele><time>2026-04-08T12:47:45.811Z</time></trkpt><trkpt lat="45.9929004" lon="13.6424792"><ele>112.0</ele><time>2026-04-08T12:47:46.819Z</time></trkpt><trkpt lat="45.9927112" lon="13.6426363"><ele>113.33333333333334</ele><time>2026-04-08T12:47:47.817Z</time></trkpt><trkpt lat="45.9925186" lon="13.6428016"><ele>114.66666666666666</ele><time>2026-04-08T12:47:48.813Z</time></trkpt><trkpt lat="45.9923286" lon="13.6429738"><ele>116.0</ele><time>2026-04-08T12:47:49.816Z</time></trkpt><trkpt lat="45.9921419" lon="13.6431529"><ele>116.0</ele><time>2026-04-08T12:47:50.806Z</time></trkpt><trkpt lat="45.9919551" lon="13.6433338"><ele>116.0</ele><time>2026-04-08T12:47:51.816Z</time></trkpt><trkpt lat="45.9917762" lon="13.6435196"><ele>116.0</ele><time>2026-04-08T12:47:52.812Z</time></trkpt><trkpt lat="45.991602" lon="13.6437059"><ele>114.0</ele><time>2026-04-08T12:47:53.816Z</time></trkpt><trkpt lat="45.9914403" lon="13.6438943"><ele>112.0</ele><time>2026-04-08T12:47:54.839Z</time></trkpt><trkpt lat="45.9912904" lon="13.6440909"><ele>110.0</ele><time>2026-04-08T12:47:55.809Z</time></trkpt><trkpt lat="45.9911583" lon="13.6443256"><ele>115.66666666666666</ele><time>2026-04-08T12:47:56.824Z</time></trkpt><trkpt lat="45.9910614" lon="13.6445971"><ele>121.33333333333334</ele><time>2026-04-08T12:47:57.807Z</time></trkpt><trkpt lat="45.990979" lon="13.6448983"><ele>127.0</ele><time>2026-04-08T12:47:58.808Z</time></trkpt><trkpt lat="45.9909004" lon="13.6452023"><ele>117.0</ele><time>2026-04-08T12:47:59.818Z</time></trkpt><trkpt lat="45.9908042" lon="13.6454988"><ele>107.0</ele><time>2026-04-08T12:48:00.844Z</time></trkpt><trkpt lat="45.9906839" lon="13.6457697"><ele>107.0</ele><time>2026-04-08T12:48:01.813Z</time></trkpt><trkpt lat="45.9905429" lon="13.6460376"><ele>107.0</ele><time>2026-04-08T12:48:02.811Z</time></trkpt><trkpt lat="45.9903982" lon="13.6463014"><ele>112.0</ele><time>2026-04-08T12:48:03.812Z</time></trkpt><trkpt lat="45.9902487" lon="13.6465665"><ele>117.0</ele><time>2026-04-08T12:48:04.813Z</time></trkpt><trkpt lat="45.9900935" lon="13.6468242"><ele>110.5</ele><time>2026-04-08T12:48:05.838Z</time></trkpt><trkpt lat="45.989946" lon="13.6470846"><ele>104.0</ele><time>2026-04-08T12:48:06.809Z</time></trkpt><trkpt lat="45.9897972" lon="13.6473526"><ele>104.0</ele><time>2026-04-08T12:48:07.809Z</time></trkpt><trkpt lat="45.9896518" lon="13.6476245"><ele>104.0</ele><time>2026-04-08T12:48:08.831Z</time></trkpt><trkpt lat="45.9895189" lon="13.6479088"><ele>110.5</ele><time>2026-04-08T12:48:09.811Z</time></trkpt><trkpt lat="45.9893944" lon="13.6482088"><ele>117.0</ele><time>2026-04-08T12:48:10.831Z</time></trkpt><trkpt lat="45.9892679" lon="13.6484972"><ele>97.0</ele><time>2026-04-08T12:48:11.832Z</time></trkpt><trkpt lat="45.9889822" lon="13.6490465"><ele>115.0</ele><time>2026-04-08T12:48:13.813Z</time></trkpt><trkpt lat="45.9886984" lon="13.6495831"><ele>115.0</ele><time>2026-04-08T12:48:15.81Z</time></trkpt><trkpt lat="45.988574" lon="13.6498721"><ele>115.0</ele><time>2026-04-08T12:48:16.843Z</time></trkpt><trkpt lat="45.9884542" lon="13.6501674"><ele>108.5</ele><time>2026-04-08T12:48:17.825Z</time></trkpt><trkpt lat="45.9883283" lon="13.6504528"><ele>102.0</ele><time>2026-04-08T12:48:18.816Z</time></trkpt><trkpt lat="45.9881788" lon="13.6507305"><ele>102.0</ele><time>2026-04-08T12:48:19.84Z</time></trkpt><trkpt lat="45.9880222" lon="13.6509917"><ele>102.0</ele><time>2026-04-08T12:48:20.813Z</time></trkpt><trkpt lat="45.9878624" lon="13.6512532"><ele>113.0</ele><time>2026-04-08T12:48:21.806Z</time></trkpt><trkpt lat="45.9876958" lon="13.6515133"><ele>124.0</ele><time>2026-04-08T12:48:22.807Z</time></trkpt><trkpt lat="45.987526" lon="13.6517644"><ele>118.5</ele><time>2026-04-08T12:48:23.816Z</time></trkpt><trkpt lat="45.9873525" lon="13.6519937"><ele>113.0</ele><time>2026-04-08T12:48:24.815Z</time></trkpt><trkpt lat="45.9871683" lon="13.6522129"><ele>113.0</ele><time>2026-04-08T12:48:25.846Z</time></trkpt><trkpt lat="45.9869798" lon="13.6524178"><ele>113.0</ele><time>2026-04-08T12:48:26.849Z</time></trkpt><trkpt lat="45.9867926" lon="13.6526293"><ele>109.0</ele><time>2026-04-08T12:48:27.832Z</time></trkpt><trkpt lat="45.98662" lon="13.6528593"><ele>105.0</ele><time>2026-04-08T12:48:28.812Z</time></trkpt><trkpt lat="45.9864602" lon="13.6531069"><ele>105.0</ele><time>2026-04-08T12:48:29.819Z</time></trkpt><trkpt lat="45.9863103" lon="13.6533552"><ele>105.0</ele><time>2026-04-08T12:48:30.81Z</time></trkpt><trkpt lat="45.9861564" lon="13.6535975"><ele>97.0</ele><time>2026-04-08T12:48:31.829Z</time></trkpt><trkpt lat="45.9859948" lon="13.6538281"><ele>89.0</ele><time>2026-04-08T12:48:32.821Z</time></trkpt><trkpt lat="45.985802" lon="13.6540193"><ele>89.0</ele><time>2026-04-08T12:48:33.822Z</time></trkpt><trkpt lat="45.9856065" lon="13.6541947"><ele>89.0</ele><time>2026-04-08T12:48:34.811Z</time></trkpt><trkpt lat="45.9854218" lon="13.6543811"><ele>83.33333333333334</ele><time>2026-04-08T12:48:35.816Z</time></trkpt><trkpt lat="45.9852655" lon="13.6546052"><ele>77.66666666666667</ele><time>2026-04-08T12:48:36.82Z</time></trkpt><trkpt lat="45.9851357" lon="13.6548628"><ele>72.0</ele><time>2026-04-08T12:48:37.803Z</time></trkpt><trkpt lat="45.9850092" lon="13.6551098"><ele>82.66666666666666</ele><time>2026-04-08T12:48:38.829Z</time></trkpt><trkpt lat="45.984872" lon="13.6553449"><ele>93.33333333333333</ele><time>2026-04-08T12:48:39.812Z</time></trkpt><trkpt lat="45.9847107" lon="13.6555495"><ele>104.0</ele><time>2026-04-08T12:48:40.827Z</time></trkpt><trkpt lat="45.9845268" lon="13.6557158"><ele>104.0</ele><time>2026-04-08T12:48:41.818Z</time></trkpt><trkpt lat="45.984334" lon="13.6558829"><ele>104.0</ele><time>2026-04-08T12:48:42.808Z</time></trkpt><trkpt lat="45.9841259" lon="13.6560242"><ele>105.5</ele><time>2026-04-08T12:48:43.823Z</time></trkpt><trkpt lat="45.9839069" lon="13.6561085"><ele>107.0</ele><time>2026-04-08T12:48:44.812Z</time></trkpt><trkpt lat="45.9836785" lon="13.6561613"><ele>107.0</ele><time>2026-04-08T12:48:45.818Z</time></trkpt><trkpt lat="45.9834444" lon="13.6561712"><ele>107.0</ele><time>2026-04-08T12:48:46.83Z</time></trkpt><trkpt lat="45.9832093" lon="13.6561667"><ele>100.5</ele><time>2026-04-08T12:48:47.834Z</time></trkpt><trkpt lat="45.9829745" lon="13.6561397"><ele>94.0</ele><time>2026-04-08T12:48:48.818Z</time></trkpt><trkpt lat="45.9827417" lon="13.6561147"><ele>81.0</ele><time>2026-04-08T12:48:49.81Z</time></trkpt><trkpt lat="45.9825125" lon="13.6560821"><ele>68.0</ele><time>2026-04-08T12:48:50.83Z</time></trkpt><trkpt lat="45.9822834" lon="13.6560676"><ele>68.0</ele><time>2026-04-08T12:48:51.813Z</time></trkpt><trkpt lat="45.9820599" lon="13.6560831"><ele>68.0</ele><time>2026-04-08T12:48:52.826Z</time></trkpt><trkpt lat="45.9818421" lon="13.6561261"><ele>68.0</ele><time>2026-04-08T12:48:53.823Z</time></trkpt><trkpt lat="45.9816298" lon="13.6561939"><ele>74.33333333333334</ele><time>2026-04-08T12:48:54.822Z</time></trkpt><trkpt lat="45.9814235" lon="13.6562704"><ele>80.66666666666667</ele><time>2026-04-08T12:48:55.814Z</time></trkpt><trkpt lat="45.9812131" lon="13.6563043"><ele>87.0</ele><time>2026-04-08T12:48:56.811Z</time></trkpt><trkpt lat="45.9810019" lon="13.6562892"><ele>89.66666666666667</ele><time>2026-04-08T12:48:57.825Z</time></trkpt><trkpt lat="45.9808118" lon="13.656216"><ele>92.33333333333334</ele><time>2026-04-08T12:48:58.818Z</time></trkpt><trkpt lat="45.9806385" lon="13.6560745"><ele>95.0</ele><time>2026-04-08T12:48:59.819Z</time></trkpt><trkpt lat="45.9804859" lon="13.6558982"><ele>95.33333333333334</ele><time>2026-04-08T12:49:00.812Z</time></trkpt><trkpt lat="45.9803256" lon="13.6557236"><ele>95.66666666666667</ele><time>2026-04-08T12:49:01.817Z</time></trkpt><trkpt lat="45.9801433" lon="13.6555586"><ele>96.0</ele><time>2026-04-08T12:49:02.812Z</time></trkpt><trkpt lat="45.9799488" lon="13.6553988"><ele>85.5</ele><time>2026-04-08T12:49:03.821Z</time></trkpt><trkpt lat="45.9797512" lon="13.6552417"><ele>75.0</ele><time>2026-04-08T12:49:04.802Z</time></trkpt><trkpt lat="45.9795618" lon="13.6550664"><ele>75.0</ele><time>2026-04-08T12:49:05.807Z</time></trkpt><trkpt lat="45.9793852" lon="13.6548612"><ele>75.0</ele><time>2026-04-08T12:49:06.813Z</time></trkpt><trkpt lat="45.9792264" lon="13.654642"><ele>75.0</ele><time>2026-04-08T12:49:07.819Z</time></trkpt><trkpt lat="45.9790816" lon="13.6544151"><ele>79.33333333333333</ele><time>2026-04-08T12:49:08.82Z</time></trkpt><trkpt lat="45.9789573" lon="13.6541919"><ele>83.66666666666666</ele><time>2026-04-08T12:49:09.807Z</time></trkpt><trkpt lat="45.9788459" lon="13.6539742"><ele>88.0</ele><time>2026-04-08T12:49:10.82Z</time></trkpt><trkpt lat="45.9787434" lon="13.6537778"><ele>82.66666666666666</ele><time>2026-04-08T12:49:11.821Z</time></trkpt><trkpt lat="45.9786489" lon="13.6535994"><ele>77.33333333333333</ele><time>2026-04-08T12:49:12.809Z</time></trkpt><trkpt lat="45.9785547" lon="13.6534201"><ele>72.0</ele><time>2026-04-08T12:49:13.819Z</time></trkpt><trkpt lat="45.9784576" lon="13.6532366"><ele>72.0</ele><time>2026-04-08T12:49:14.834Z</time></trkpt><trkpt lat="45.9783556" lon="13.6530578"><ele>72.0</ele><time>2026-04-08T12:49:15.814Z</time></trkpt><trkpt lat="45.9782491" lon="13.6528827"><ele>72.0</ele><time>2026-04-08T12:49:16.81Z</time></trkpt><trkpt lat="45.9781494" lon="13.6527157"><ele>78.66666666666667</ele><time>2026-04-08T12:49:17.814Z</time></trkpt><trkpt lat="45.9780404" lon="13.652565"><ele>85.33333333333334</ele><time>2026-04-08T12:49:18.818Z</time></trkpt><trkpt lat="45.9779222" lon="13.6524345"><ele>92.0</ele><time>2026-04-08T12:49:19.815Z</time></trkpt><trkpt lat="45.977796" lon="13.6523064"><ele>92.0</ele><time>2026-04-08T12:49:20.825Z</time></trkpt><trkpt lat="45.977673" lon="13.6521743"><ele>92.0</ele><time>2026-04-08T12:49:21.82Z</time></trkpt><trkpt lat="45.9775447" lon="13.6520512"><ele>92.0</ele><time>2026-04-08T12:49:22.806Z</time></trkpt><trkpt lat="45.9774094" lon="13.6519474"><ele>92.0</ele><time>2026-04-08T12:49:23.807Z</time></trkpt><trkpt lat="45.9772701" lon="13.6518429"><ele>92.0</ele><time>2026-04-08T12:49:24.814Z</time></trkpt><trkpt lat="45.9771316" lon="13.6517341"><ele>92.0</ele><time>2026-04-08T12:49:25.812Z</time></trkpt><trkpt lat="45.9769974" lon="13.6516337"><ele>92.0</ele><time>2026-04-08T12:49:26.808Z</time></trkpt><trkpt lat="45.9768645" lon="13.6515445"><ele>92.0</ele><time>2026-04-08T12:49:27.816Z</time></trkpt><trkpt lat="45.9767322" lon="13.651463"><ele>92.0</ele><time>2026-04-08T12:49:28.813Z</time></trkpt><trkpt lat="45.9766077" lon="13.651374"><ele>92.0</ele><time>2026-04-08T12:49:29.811Z</time></trkpt><trkpt lat="45.9764922" lon="13.6512872"><ele>93.0</ele><time>2026-04-08T12:49:30.833Z</time></trkpt><trkpt lat="45.9763992" lon="13.6512076"><ele>94.0</ele><time>2026-04-08T12:49:31.817Z</time></trkpt><trkpt lat="45.9763238" lon="13.6511517"><ele>95.0</ele><time>2026-04-08T12:49:32.817Z</time></trkpt><trkpt lat="45.9762195" lon="13.6510932"><ele>96.0</ele><time>2026-04-08T12:49:34.807Z</time></trkpt><trkpt lat="45.9761545" lon="13.6510527"><ele>97.0</ele><time>2026-04-08T12:49:36.815Z</time></trkpt><trkpt lat="45.9760745" lon="13.6510183"><ele>97.0</ele><time>2026-04-08T12:49:39.83Z</time></trkpt><trkpt lat="45.9759933" lon="13.6509711"><ele>97.0</ele><time>2026-04-08T12:50:01.827Z</time></trkpt><trkpt lat="45.975915" lon="13.6509262"><ele>97.0</ele><time>2026-04-08T12:50:02.826Z</time></trkpt><trkpt lat="45.975819" lon="13.6508919"><ele>97.0</ele><time>2026-04-08T12:50:03.822Z</time></trkpt><trkpt lat="45.9757255" lon="13.6508522"><ele>97.0</ele><time>2026-04-08T12:50:04.825Z</time></trkpt><trkpt lat="45.9756178" lon="13.6508206"><ele>100.25</ele><time>2026-04-08T12:50:05.821Z</time></trkpt><trkpt lat="45.9755012" lon="13.6507912"><ele>103.5</ele><time>2026-04-08T12:50:06.835Z</time></trkpt><trkpt lat="45.9753748" lon="13.6507586"><ele>106.75</ele><time>2026-04-08T12:50:07.832Z</time></trkpt><trkpt lat="45.975233" lon="13.6507305"><ele>110.0</ele><time>2026-04-08T12:50:08.832Z</time></trkpt><trkpt lat="45.9750862" lon="13.6507036"><ele>114.0</ele><time>2026-04-08T12:50:09.827Z</time></trkpt><trkpt lat="45.9749383" lon="13.6506734"><ele>118.0</ele><time>2026-04-08T12:50:10.809Z</time></trkpt><trkpt lat="45.9747749" lon="13.6506486"><ele>122.0</ele><time>2026-04-08T12:50:11.82Z</time></trkpt><trkpt lat="45.9746039" lon="13.6506217"><ele>122.0</ele><time>2026-04-08T12:50:12.822Z</time></trkpt><trkpt lat="45.974423" lon="13.6505979"><ele>122.0</ele><time>2026-04-08T12:50:13.815Z</time></trkpt><trkpt lat="45.9742397" lon="13.6505725"><ele>122.0</ele><time>2026-04-08T12:50:14.833Z</time></trkpt><trkpt lat="45.9740606" lon="13.6505559"><ele>125.66666666666666</ele><time>2026-04-08T12:50:15.822Z</time></trkpt><trkpt lat="45.9738866" lon="13.6505562"><ele>129.33333333333334</ele><time>2026-04-08T12:50:16.814Z</time></trkpt><trkpt lat="45.9737109" lon="13.6505744"><ele>133.0</ele><time>2026-04-08T12:50:17.844Z</time></trkpt><trkpt lat="45.9735351" lon="13.6506013"><ele>133.0</ele><time>2026-04-08T12:50:18.809Z</time></trkpt><trkpt lat="45.9733567" lon="13.6506378"><ele>133.0</ele><time>2026-04-08T12:50:19.815Z</time></trkpt><trkpt lat="45.9731799" lon="13.6506741"><ele>133.0</ele><time>2026-04-08T12:50:20.819Z</time></trkpt><trkpt lat="45.9730032" lon="13.6507191"><ele>132.66666666666669</ele><time>2026-04-08T12:50:21.836Z</time></trkpt><trkpt lat="45.9728264" lon="13.6507792"><ele>132.33333333333334</ele><time>2026-04-08T12:50:22.821Z</time></trkpt><trkpt lat="45.972649" lon="13.6508495"><ele>132.0</ele><time>2026-04-08T12:50:23.817Z</time></trkpt><trkpt lat="45.9724705" lon="13.6509307"><ele>132.66666666666666</ele><time>2026-04-08T12:50:24.813Z</time></trkpt><trkpt lat="45.9722774" lon="13.651022"><ele>133.33333333333331</ele><time>2026-04-08T12:50:25.822Z</time></trkpt><trkpt lat="45.9720952" lon="13.6511114"><ele>134.0</ele><time>2026-04-08T12:50:26.827Z</time></trkpt><trkpt lat="45.9719074" lon="13.6511941"><ele>134.0</ele><time>2026-04-08T12:50:27.838Z</time></trkpt><trkpt lat="45.9717209" lon="13.6512832"><ele>134.0</ele><time>2026-04-08T12:50:28.816Z</time></trkpt><trkpt lat="45.9696757" lon="13.6521783"><ele>138.0</ele><time>2026-04-08T12:50:39.819Z</time></trkpt><trkpt lat="45.9694609" lon="13.6523823"><ele>142.0</ele><time>2026-04-08T12:50:40.828Z</time></trkpt><trkpt lat="45.9692415" lon="13.6524513"><ele>136.33333333333334</ele><time>2026-04-08T12:50:41.815Z</time></trkpt><trkpt lat="45.969047" lon="13.6525481"><ele>130.66666666666666</ele><time>2026-04-08T12:50:42.824Z</time></trkpt><trkpt lat="45.968852" lon="13.65263"><ele>125.0</ele><time>2026-04-08T12:50:43.818Z</time></trkpt><trkpt lat="45.9686575" lon="13.6527225"><ele>127.33333333333333</ele><time>2026-04-08T12:50:44.814Z</time></trkpt><trkpt lat="45.9684661" lon="13.6528085"><ele>129.66666666666666</ele><time>2026-04-08T12:50:45.816Z</time></trkpt><trkpt lat="45.9682755" lon="13.6528818"><ele>132.0</ele><time>2026-04-08T12:50:46.829Z</time></trkpt><trkpt lat="45.9680879" lon="13.6529699"><ele>132.0</ele><time>2026-04-08T12:50:47.82Z</time></trkpt><trkpt lat="45.967898" lon="13.6530672"><ele>132.0</ele><time>2026-04-08T12:50:48.812Z</time></trkpt><trkpt lat="45.9677027" lon="13.6531564"><ele>132.0</ele><time>2026-04-08T12:50:49.814Z</time></trkpt><trkpt lat="45.9675143" lon="13.6532458"><ele>130.33333333333334</ele><time>2026-04-08T12:50:50.841Z</time></trkpt><trkpt lat="45.9673215" lon="13.6533346"><ele>128.66666666666669</ele><time>2026-04-08T12:50:51.835Z</time></trkpt><trkpt lat="45.9671316" lon="13.6534183"><ele>127.0</ele><time>2026-04-08T12:50:52.82Z</time></trkpt><trkpt lat="45.9669407" lon="13.6535046"><ele>127.0</ele><time>2026-04-08T12:50:53.809Z</time></trkpt><trkpt lat="45.9667552" lon="13.6535837"><ele>127.0</ele><time>2026-04-08T12:50:54.844Z</time></trkpt><trkpt lat="45.9665701" lon="13.6536631"><ele>127.0</ele><time>2026-04-08T12:50:55.844Z</time></trkpt><trkpt lat="45.9663847" lon="13.6537475"><ele>128.66666666666669</ele><time>2026-04-08T12:50:56.846Z</time></trkpt><trkpt lat="45.9661865" lon="13.6538385"><ele>130.33333333333334</ele><time>2026-04-08T12:50:57.828Z</time></trkpt><trkpt lat="45.9659573" lon="13.6539411"><ele>132.0</ele><time>2026-04-08T12:50:58.825Z</time></trkpt><trkpt lat="45.96571" lon="13.6540416"><ele>126.5</ele><time>2026-04-08T12:50:59.831Z</time></trkpt><trkpt lat="45.9654798" lon="13.6541391"><ele>121.0</ele><time>2026-04-08T12:51:00.822Z</time></trkpt><trkpt lat="45.9652598" lon="13.6542255"><ele>121.0</ele><time>2026-04-08T12:51:01.817Z</time></trkpt><trkpt lat="45.965043" lon="13.6543153"><ele>121.0</ele><time>2026-04-08T12:51:02.832Z</time></trkpt><trkpt lat="45.9648428" lon="13.6544034"><ele>121.0</ele><time>2026-04-08T12:51:03.822Z</time></trkpt><trkpt lat="45.9646606" lon="13.6544735"><ele>123.33333333333334</ele><time>2026-04-08T12:51:04.827Z</time></trkpt><trkpt lat="45.9644903" lon="13.6545396"><ele>125.66666666666666</ele><time>2026-04-08T12:51:05.814Z</time></trkpt><trkpt lat="45.9643218" lon="13.6546014"><ele>128.0</ele><time>2026-04-08T12:51:06.905Z</time></trkpt><trkpt lat="45.9641575" lon="13.6546604"><ele>128.0</ele><time>2026-04-08T12:51:07.82Z</time></trkpt><trkpt lat="45.9639982" lon="13.65471"><ele>128.0</ele><time>2026-04-08T12:51:08.821Z</time></trkpt><trkpt lat="45.9638425" lon="13.6547466"><ele>128.0</ele><time>2026-04-08T12:51:09.812Z</time></trkpt><trkpt lat="45.9636845" lon="13.6547791"><ele>128.0</ele><time>2026-04-08T12:51:10.822Z</time></trkpt><trkpt lat="45.9635304" lon="13.6547912"><ele>128.0</ele><time>2026-04-08T12:51:11.83Z</time></trkpt><trkpt lat="45.963397" lon="13.6547874"><ele>128.0</ele><time>2026-04-08T12:51:12.828Z</time></trkpt><trkpt lat="45.9632778" lon="13.6547882"><ele>128.0</ele><time>2026-04-08T12:51:13.816Z</time></trkpt><trkpt lat="45.9631887" lon="13.6547939"><ele>126.85714285714285</ele><time>2026-04-08T12:51:14.832Z</time></trkpt><trkpt lat="45.963119" lon="13.6548003"><ele>125.7142857142857</ele><time>2026-04-08T12:51:15.826Z</time></trkpt><trkpt lat="45.9630147" lon="13.6548019"><ele>124.57142857142857</ele><time>2026-04-08T12:51:17.825Z</time></trkpt><trkpt lat="45.9629497" lon="13.654785"><ele>123.42857142857142</ele><time>2026-04-08T12:51:20.841Z</time></trkpt><trkpt lat="45.9628842" lon="13.654774"><ele>122.28571428571428</ele><time>2026-04-08T12:51:38.816Z</time></trkpt><trkpt lat="45.9628172" lon="13.6547684"><ele>121.14285714285714</ele><time>2026-04-08T12:51:39.808Z</time></trkpt><trkpt lat="45.9627465" lon="13.654756"><ele>120.0</ele><time>2026-04-08T12:51:40.819Z</time></trkpt><trkpt lat="45.9626352" lon="13.6547381"><ele>119.0</ele><time>2026-04-08T12:51:42.838Z</time></trkpt><trkpt lat="45.9625265" lon="13.6547313"><ele>118.0</ele><time>2026-04-08T12:51:44.821Z</time></trkpt><trkpt lat="45.9624202" lon="13.6547083"><ele>117.0</ele><time>2026-04-08T12:51:46.829Z</time></trkpt><trkpt lat="45.962337" lon="13.6546913"><ele>116.0</ele><time>2026-04-08T12:51:48.828Z</time></trkpt><trkpt lat="45.9622485" lon="13.6546722"><ele>115.0</ele><time>2026-04-08T12:51:50.83Z</time></trkpt><trkpt lat="45.96218" lon="13.6546592"><ele>114.99999999999999</ele><time>2026-04-08T12:51:52.831Z</time></trkpt><trkpt lat="45.9621082" lon="13.6546249"><ele>115.0</ele><time>2026-04-08T12:51:55.816Z</time></trkpt><trkpt lat="45.9620314" lon="13.6545879"><ele>114.99999999999999</ele><time>2026-04-08T12:51:59.807Z</time></trkpt><trkpt lat="45.9619593" lon="13.6545696"><ele>114.99999999999999</ele><time>2026-04-08T12:52:11.822Z</time></trkpt><trkpt lat="45.9618933" lon="13.654543"><ele>115.0</ele><time>2026-04-08T12:52:15.82Z</time></trkpt><trkpt lat="45.9618227" lon="13.6545123"><ele>114.99999999999999</ele><time>2026-04-08T12:52:19.814Z</time></trkpt><trkpt lat="45.961757" lon="13.654484"><ele>114.99999999999999</ele><time>2026-04-08T12:52:22.837Z</time></trkpt><trkpt lat="45.9616966" lon="13.6544562"><ele>113.66666666666667</ele><time>2026-04-08T12:52:26.83Z</time></trkpt><trkpt lat="45.9616275" lon="13.6544346"><ele>112.33333333333334</ele><time>2026-04-08T12:52:34.823Z</time></trkpt><trkpt lat="45.9615605" lon="13.6544115"><ele>111.0</ele><time>2026-04-08T12:52:38.825Z</time></trkpt><trkpt lat="45.9614915" lon="13.6543759"><ele>109.66666666666666</ele><time>2026-04-08T12:52:42.815Z</time></trkpt><trkpt lat="45.9614282" lon="13.6543417"><ele>108.33333333333333</ele><time>2026-04-08T12:52:45.813Z</time></trkpt><trkpt lat="45.9613458" lon="13.6542985"><ele>107.0</ele><time>2026-04-08T12:52:48.831Z</time></trkpt><trkpt lat="45.9612592" lon="13.6542494"><ele>107.00000000000001</ele><time>2026-04-08T12:52:51.82Z</time></trkpt><trkpt lat="45.9611834" lon="13.6541985"><ele>107.0</ele><time>2026-04-08T12:52:54.824Z</time></trkpt><trkpt lat="45.9611205" lon="13.6541642"><ele>107.0</ele><time>2026-04-08T12:52:57.803Z</time></trkpt><trkpt lat="45.9610654" lon="13.6541109"><ele>107.0</ele><time>2026-04-08T12:53:01.817Z</time></trkpt><trkpt lat="45.9609993" lon="13.6540696"><ele>107.0</ele><time>2026-04-08T12:53:16.805Z</time></trkpt><trkpt lat="45.9609321" lon="13.6540179"><ele>107.00000000000001</ele><time>2026-04-08T12:53:21.813Z</time></trkpt><trkpt lat="45.9608617" lon="13.6539832"><ele>107.0</ele><time>2026-04-08T12:54:15.809Z</time></trkpt><trkpt lat="45.9607925" lon="13.653937"><ele>106.6</ele><time>2026-04-08T12:54:17.83Z</time></trkpt><trkpt lat="45.960732" lon="13.6538707"><ele>106.19999999999999</ele><time>2026-04-08T12:54:18.809Z</time></trkpt><trkpt lat="45.9606626" lon="13.653794"><ele>105.8</ele><time>2026-04-08T12:54:19.812Z</time></trkpt><trkpt lat="45.9605818" lon="13.6537141"><ele>105.4</ele><time>2026-04-08T12:54:20.817Z</time></trkpt><trkpt lat="45.9604691" lon="13.6536202"><ele>105.0</ele><time>2026-04-08T12:54:21.821Z</time></trkpt><trkpt lat="45.9603373" lon="13.6535026"><ele>105.0</ele><time>2026-04-08T12:54:22.813Z</time></trkpt><trkpt lat="45.9601997" lon="13.6533868"><ele>105.0</ele><time>2026-04-08T12:54:23.817Z</time></trkpt><trkpt lat="45.9600742" lon="13.653264"><ele>105.0</ele><time>2026-04-08T12:54:24.808Z</time></trkpt><trkpt lat="45.9599453" lon="13.6531448"><ele>105.0</ele><time>2026-04-08T12:54:25.798Z</time></trkpt><trkpt lat="45.9598164" lon="13.6530251"><ele>105.0</ele><time>2026-04-08T12:54:26.807Z</time></trkpt><trkpt lat="45.9596861" lon="13.6529144"><ele>105.0</ele><time>2026-04-08T12:54:27.803Z</time></trkpt><trkpt lat="45.9595647" lon="13.6528138"><ele>105.0</ele><time>2026-04-08T12:54:28.807Z</time></trkpt><trkpt lat="45.9594555" lon="13.6527288"><ele>105.0</ele><time>2026-04-08T12:54:29.801Z</time></trkpt><trkpt lat="45.959349" lon="13.65266"><ele>105.0</ele><time>2026-04-08T12:54:30.802Z</time></trkpt><trkpt lat="45.9592339" lon="13.6525905"><ele>105.0</ele><time>2026-04-08T12:54:31.808Z</time></trkpt><trkpt lat="45.9591269" lon="13.6525339"><ele>105.0</ele><time>2026-04-08T12:54:32.801Z</time></trkpt><trkpt lat="45.9590257" lon="13.6524705"><ele>105.16666666666667</ele><time>2026-04-08T12:54:33.814Z</time></trkpt><trkpt lat="45.9589492" lon="13.6524184"><ele>105.33333333333334</ele><time>2026-04-08T12:54:34.823Z</time></trkpt><trkpt lat="45.958881" lon="13.6523595"><ele>105.5</ele><time>2026-04-08T12:54:35.812Z</time></trkpt><trkpt lat="45.958829" lon="13.6522962"><ele>105.66666666666667</ele><time>2026-04-08T12:54:36.816Z</time></trkpt><trkpt lat="45.9587924" lon="13.652205"><ele>105.83333333333334</ele><time>2026-04-08T12:54:37.814Z</time></trkpt><trkpt lat="45.9587434" lon="13.6521135"><ele>106.0</ele><time>2026-04-08T12:54:38.826Z</time></trkpt><trkpt lat="45.9586689" lon="13.6520294"><ele>106.0</ele><time>2026-04-08T12:54:39.811Z</time></trkpt><trkpt lat="45.9585843" lon="13.6520022"><ele>106.0</ele><time>2026-04-08T12:54:40.809Z</time></trkpt><trkpt lat="45.9585001" lon="13.6520152"><ele>106.0</ele><time>2026-04-08T12:54:41.811Z</time></trkpt><trkpt lat="45.9584152" lon="13.6520818"><ele>106.0</ele><time>2026-04-08T12:54:42.815Z</time></trkpt><trkpt lat="45.9583443" lon="13.6521864"><ele>106.0</ele><time>2026-04-08T12:54:43.843Z</time></trkpt><trkpt lat="45.958287" lon="13.6523182"><ele>106.33333333333334</ele><time>2026-04-08T12:54:44.864Z</time></trkpt><trkpt lat="45.9582334" lon="13.652456"><ele>106.66666666666666</ele><time>2026-04-08T12:54:45.805Z</time></trkpt><trkpt lat="45.9581628" lon="13.6525813"><ele>107.0</ele><time>2026-04-08T12:54:46.819Z</time></trkpt><trkpt lat="45.9579457" lon="13.6527249"><ele>107.0</ele><time>2026-04-08T12:54:48.839Z</time></trkpt><trkpt lat="45.9578311" lon="13.6528021"><ele>107.0</ele><time>2026-04-08T12:54:49.815Z</time></trkpt><trkpt lat="45.9577054" lon="13.6528682"><ele>107.0</ele><time>2026-04-08T12:54:50.83Z</time></trkpt><trkpt lat="45.9575837" lon="13.6529291"><ele>107.0</ele><time>2026-04-08T12:54:51.818Z</time></trkpt><trkpt lat="45.9574741" lon="13.6529631"><ele>107.0</ele><time>2026-04-08T12:54:52.841Z</time></trkpt><trkpt lat="45.957365" lon="13.6529759"><ele>106.99999999999999</ele><time>2026-04-08T12:54:53.819Z</time></trkpt><trkpt lat="45.9572559" lon="13.6529845"><ele>106.99999999999999</ele><time>2026-04-08T12:54:54.811Z</time></trkpt><trkpt lat="45.9571475" lon="13.6529857"><ele>107.0</ele><time>2026-04-08T12:54:55.799Z</time></trkpt><trkpt lat="45.9570464" lon="13.6529814"><ele>107.0</ele><time>2026-04-08T12:54:56.804Z</time></trkpt><trkpt lat="45.9569529" lon="13.6529719"><ele>107.0</ele><time>2026-04-08T12:54:57.819Z</time></trkpt><trkpt lat="45.9568623" lon="13.6529648"><ele>106.99999999999999</ele><time>2026-04-08T12:54:58.813Z</time></trkpt><trkpt lat="45.9567783" lon="13.6529491"><ele>106.99999999999999</ele><time>2026-04-08T12:54:59.813Z</time></trkpt><trkpt lat="45.9566847" lon="13.6529341"><ele>107.0</ele><time>2026-04-08T12:55:00.826Z</time></trkpt><trkpt lat="45.9565895" lon="13.6529151"><ele>107.0</ele><time>2026-04-08T12:55:01.806Z</time></trkpt><trkpt lat="45.9564906" lon="13.6528972"><ele>108.0</ele><time>2026-04-08T12:55:02.806Z</time></trkpt><trkpt lat="45.9563915" lon="13.6528807"><ele>108.99999999999999</ele><time>2026-04-08T12:55:03.822Z</time></trkpt><trkpt lat="45.9562907" lon="13.6528647"><ele>109.99999999999999</ele><time>2026-04-08T12:55:04.817Z</time></trkpt><trkpt lat="45.9561888" lon="13.6528474"><ele>111.0</ele><time>2026-04-08T12:55:05.802Z</time></trkpt><trkpt lat="45.9560936" lon="13.6528315"><ele>112.0</ele><time>2026-04-08T12:55:06.807Z</time></trkpt><trkpt lat="45.956006" lon="13.6528173"><ele>112.00000000000001</ele><time>2026-04-08T12:55:07.84Z</time></trkpt><trkpt lat="45.9559218" lon="13.6528026"><ele>112.0</ele><time>2026-04-08T12:55:08.852Z</time></trkpt><trkpt lat="45.9558502" lon="13.652792"><ele>112.0</ele><time>2026-04-08T12:55:09.82Z</time></trkpt><trkpt lat="45.9557531" lon="13.6527878"><ele>112.0</ele><time>2026-04-08T12:55:11.82Z</time></trkpt><trkpt lat="45.9556637" lon="13.6527849"><ele>112.00000000000001</ele><time>2026-04-08T12:55:13.824Z</time></trkpt><trkpt lat="45.9555873" lon="13.6527883"><ele>112.0</ele><time>2026-04-08T12:55:15.803Z</time></trkpt><trkpt lat="45.9555174" lon="13.6527844"><ele>111.83333333333334</ele><time>2026-04-08T12:55:17.805Z</time></trkpt><trkpt lat="45.9554516" lon="13.652787"><ele>111.66666666666667</ele><time>2026-04-08T12:55:20.807Z</time></trkpt><trkpt lat="45.9553347" lon="13.6527721"><ele>111.5</ele><time>2026-04-08T12:55:24.813Z</time></trkpt><trkpt lat="45.9552621" lon="13.6527383"><ele>111.33333333333334</ele><time>2026-04-08T12:55:25.834Z</time></trkpt><trkpt lat="45.9551892" lon="13.6526852"><ele>111.16666666666667</ele><time>2026-04-08T12:55:26.818Z</time></trkpt><trkpt lat="45.9551179" lon="13.6526156"><ele>111.0</ele><time>2026-04-08T12:55:27.808Z</time></trkpt><trkpt lat="45.9550397" lon="13.6525665"><ele>110.5</ele><time>2026-04-08T12:55:28.819Z</time></trkpt><trkpt lat="45.9549545" lon="13.652564"><ele>110.0</ele><time>2026-04-08T12:55:29.818Z</time></trkpt><trkpt lat="45.9548834" lon="13.6525985"><ele>109.5</ele><time>2026-04-08T12:55:30.819Z</time></trkpt><trkpt lat="45.9548276" lon="13.6526687"><ele>109.0</ele><time>2026-04-08T12:55:31.809Z</time></trkpt><trkpt lat="45.9547812" lon="13.6527487"><ele>108.5</ele><time>2026-04-08T12:55:32.817Z</time></trkpt><trkpt lat="45.9547266" lon="13.6528173"><ele>108.0</ele><time>2026-04-08T12:55:33.819Z</time></trkpt><trkpt lat="45.9546569" lon="13.6528687"><ele>107.80000000000001</ele><time>2026-04-08T12:55:34.813Z</time></trkpt><trkpt lat="45.9545733" lon="13.6528937"><ele>107.60000000000001</ele><time>2026-04-08T12:55:35.823Z</time></trkpt><trkpt lat="45.95448" lon="13.652902"><ele>107.39999999999999</ele><time>2026-04-08T12:55:36.829Z</time></trkpt><trkpt lat="45.9543793" lon="13.6529143"><ele>107.19999999999999</ele><time>2026-04-08T12:55:37.826Z</time></trkpt><trkpt lat="45.9542814" lon="13.6529221"><ele>107.0</ele><time>2026-04-08T12:55:38.796Z</time></trkpt><trkpt lat="45.9541814" lon="13.6529201"><ele>105.5</ele><time>2026-04-08T12:55:39.841Z</time></trkpt><trkpt lat="45.954074" lon="13.652909"><ele>104.0</ele><time>2026-04-08T12:55:40.823Z</time></trkpt><trkpt lat="45.9539663" lon="13.6528875"><ele>102.5</ele><time>2026-04-08T12:55:41.807Z</time></trkpt><trkpt lat="45.9538531" lon="13.6528624"><ele>101.0</ele><time>2026-04-08T12:55:42.828Z</time></trkpt><trkpt lat="45.9537346" lon="13.6528361"><ele>101.0</ele><time>2026-04-08T12:55:43.821Z</time></trkpt><trkpt lat="45.9536147" lon="13.6528091"><ele>101.0</ele><time>2026-04-08T12:55:44.827Z</time></trkpt><trkpt lat="45.9534922" lon="13.6527755"><ele>101.0</ele><time>2026-04-08T12:55:45.813Z</time></trkpt><trkpt lat="45.9533655" lon="13.6527385"><ele>101.0</ele><time>2026-04-08T12:55:46.831Z</time></trkpt><trkpt lat="45.9532306" lon="13.6526975"><ele>102.33333333333333</ele><time>2026-04-08T12:55:47.819Z</time></trkpt><trkpt lat="45.9530914" lon="13.6526559"><ele>103.66666666666666</ele><time>2026-04-08T12:55:48.815Z</time></trkpt><trkpt lat="45.9529438" lon="13.652614"><ele>105.0</ele><time>2026-04-08T12:55:49.823Z</time></trkpt><trkpt lat="45.9527897" lon="13.6525643"><ele>105.0</ele><time>2026-04-08T12:55:50.824Z</time></trkpt><trkpt lat="45.9526331" lon="13.6525019"><ele>105.0</ele><time>2026-04-08T12:55:51.816Z</time></trkpt><trkpt lat="45.9524728" lon="13.6524355"><ele>105.0</ele><time>2026-04-08T12:55:52.813Z</time></trkpt><trkpt lat="45.9523103" lon="13.6523604"><ele>104.33333333333334</ele><time>2026-04-08T12:55:53.822Z</time></trkpt><trkpt lat="45.9521447" lon="13.6522794"><ele>103.66666666666667</ele><time>2026-04-08T12:55:54.833Z</time></trkpt><trkpt lat="45.951979" lon="13.6521961"><ele>103.0</ele><time>2026-04-08T12:55:55.817Z</time></trkpt><trkpt lat="45.9518136" lon="13.6521018"><ele>101.66666666666667</ele><time>2026-04-08T12:55:56.827Z</time></trkpt><trkpt lat="45.9516496" lon="13.6519954"><ele>100.33333333333334</ele><time>2026-04-08T12:55:57.845Z</time></trkpt><trkpt lat="45.951491" lon="13.6518864"><ele>99.0</ele><time>2026-04-08T12:55:58.857Z</time></trkpt><trkpt lat="45.9513326" lon="13.6517659"><ele>99.33333333333334</ele><time>2026-04-08T12:55:59.817Z</time></trkpt><trkpt lat="45.9511668" lon="13.6516295"><ele>99.66666666666667</ele><time>2026-04-08T12:56:00.827Z</time></trkpt><trkpt lat="45.9509954" lon="13.6514872"><ele>100.0</ele><time>2026-04-08T12:56:01.818Z</time></trkpt><trkpt lat="45.9508201" lon="13.651342"><ele>101.5</ele><time>2026-04-08T12:56:02.808Z</time></trkpt><trkpt lat="45.950441" lon="13.6510186"><ele>103.0</ele><time>2026-04-08T12:56:04.824Z</time></trkpt><trkpt lat="45.9500474" lon="13.650693"><ele>101.0</ele><time>2026-04-08T12:56:06.821Z</time></trkpt><trkpt lat="45.9498495" lon="13.6505497"><ele>99.0</ele><time>2026-04-08T12:56:07.814Z</time></trkpt><trkpt lat="45.9496464" lon="13.6504211"><ele>97.0</ele><time>2026-04-08T12:56:08.862Z</time></trkpt><trkpt lat="45.9494409" lon="13.6503096"><ele>96.5</ele><time>2026-04-08T12:56:09.832Z</time></trkpt><trkpt lat="45.9492344" lon="13.6502122"><ele>96.0</ele><time>2026-04-08T12:56:10.808Z</time></trkpt><trkpt lat="45.9488065" lon="13.6500582"><ele>99.0</ele><time>2026-04-08T12:56:12.816Z</time></trkpt><trkpt lat="45.9485927" lon="13.6499962"><ele>102.0</ele><time>2026-04-08T12:56:13.811Z</time></trkpt><trkpt lat="45.948377" lon="13.6499424"><ele>105.0</ele><time>2026-04-08T12:56:14.81Z</time></trkpt><trkpt lat="45.9481685" lon="13.6498913"><ele>111.0</ele><time>2026-04-08T12:56:15.797Z</time></trkpt><trkpt lat="45.947966" lon="13.6498388"><ele>117.0</ele><time>2026-04-08T12:56:16.846Z</time></trkpt><trkpt lat="45.9477732" lon="13.6497839"><ele>123.0</ele><time>2026-04-08T12:56:17.816Z</time></trkpt><trkpt lat="45.9475834" lon="13.6497325"><ele>127.33333333333334</ele><time>2026-04-08T12:56:18.822Z</time></trkpt><trkpt lat="45.9474014" lon="13.6496841"><ele>131.66666666666669</ele><time>2026-04-08T12:56:19.806Z</time></trkpt><trkpt lat="45.9472283" lon="13.6496351"><ele>136.0</ele><time>2026-04-08T12:56:20.811Z</time></trkpt><trkpt lat="45.9470626" lon="13.6495838"><ele>136.0</ele><time>2026-04-08T12:56:21.815Z</time></trkpt><trkpt lat="45.9469076" lon="13.6495289"><ele>136.0</ele><time>2026-04-08T12:56:22.817Z</time></trkpt><trkpt lat="45.9467599" lon="13.6494725"><ele>136.0</ele><time>2026-04-08T12:56:23.811Z</time></trkpt><trkpt lat="45.9466217" lon="13.6494063"><ele>136.5</ele><time>2026-04-08T12:56:24.813Z</time></trkpt><trkpt lat="45.9464894" lon="13.6493361"><ele>137.0</ele><time>2026-04-08T12:56:25.822Z</time></trkpt><trkpt lat="45.9463701" lon="13.6492539"><ele>137.5</ele><time>2026-04-08T12:56:26.828Z</time></trkpt><trkpt lat="45.9462615" lon="13.6491606"><ele>138.0</ele><time>2026-04-08T12:56:27.819Z</time></trkpt><trkpt lat="45.9461693" lon="13.6490634"><ele>138.0</ele><time>2026-04-08T12:56:28.858Z</time></trkpt><trkpt lat="45.9460902" lon="13.648953"><ele>138.0</ele><time>2026-04-08T12:56:29.813Z</time></trkpt><trkpt lat="45.946024" lon="13.6488329"><ele>138.0</ele><time>2026-04-08T12:56:30.801Z</time></trkpt><trkpt lat="45.9459672" lon="13.6487016"><ele>138.0</ele><time>2026-04-08T12:56:31.818Z</time></trkpt><trkpt lat="45.9459238" lon="13.6485575"><ele>138.0</ele><time>2026-04-08T12:56:32.819Z</time></trkpt><trkpt lat="45.9458817" lon="13.6484124"><ele>141.0</ele><time>2026-04-08T12:56:33.804Z</time></trkpt><trkpt lat="45.9455434" lon="13.6454064"><ele>138.25</ele><time>2026-04-08T12:56:51.815Z</time></trkpt><trkpt lat="45.9455028" lon="13.6451912"><ele>135.5</ele><time>2026-04-08T12:56:52.81Z</time></trkpt><trkpt lat="45.945492" lon="13.6450458"><ele>132.75</ele><time>2026-04-08T12:56:53.799Z</time></trkpt><trkpt lat="45.9454518" lon="13.6448948"><ele>130.0</ele><time>2026-04-08T12:56:54.807Z</time></trkpt><trkpt lat="45.9454075" lon="13.6447521"><ele>130.0</ele><time>2026-04-08T12:56:55.81Z</time></trkpt><trkpt lat="45.9453566" lon="13.6446264"><ele>130.0</ele><time>2026-04-08T12:56:56.808Z</time></trkpt><trkpt lat="45.9452965" lon="13.6444912"><ele>130.0</ele><time>2026-04-08T12:56:57.815Z</time></trkpt><trkpt lat="45.9452311" lon="13.6443814"><ele>130.0</ele><time>2026-04-08T12:56:58.799Z</time></trkpt><trkpt lat="45.9451587" lon="13.6442708"><ele>130.0</ele><time>2026-04-08T12:56:59.814Z</time></trkpt><trkpt lat="45.9450775" lon="13.6441725"><ele>126.6</ele><time>2026-04-08T12:57:00.816Z</time></trkpt><trkpt lat="45.9449962" lon="13.644075"><ele>123.2</ele><time>2026-04-08T12:57:01.806Z</time></trkpt><trkpt lat="45.9449141" lon="13.6439847"><ele>119.80000000000001</ele><time>2026-04-08T12:57:02.792Z</time></trkpt><trkpt lat="45.9448284" lon="13.6438969"><ele>116.4</ele><time>2026-04-08T12:57:03.798Z</time></trkpt><trkpt lat="45.9447316" lon="13.6438157"><ele>113.0</ele><time>2026-04-08T12:57:04.822Z</time></trkpt><trkpt lat="45.9446252" lon="13.6437486"><ele>113.0</ele><time>2026-04-08T12:57:05.822Z</time></trkpt><trkpt lat="45.9445196" lon="13.6436983"><ele>113.00000000000001</ele><time>2026-04-08T12:57:06.804Z</time></trkpt><trkpt lat="45.9444161" lon="13.6436562"><ele>113.00000000000001</ele><time>2026-04-08T12:57:07.808Z</time></trkpt><trkpt lat="45.9443068" lon="13.6436253"><ele>113.0</ele><time>2026-04-08T12:57:08.802Z</time></trkpt><trkpt lat="45.9441995" lon="13.6435977"><ele>113.0</ele><time>2026-04-08T12:57:09.804Z</time></trkpt><trkpt lat="45.9440926" lon="13.6435706"><ele>113.0</ele><time>2026-04-08T12:57:10.81Z</time></trkpt><trkpt lat="45.9439862" lon="13.6435522"><ele>113.00000000000001</ele><time>2026-04-08T12:57:11.798Z</time></trkpt><trkpt lat="45.9438773" lon="13.6435347"><ele>113.00000000000001</ele><time>2026-04-08T12:57:12.806Z</time></trkpt><trkpt lat="45.9437726" lon="13.6435224"><ele>113.0</ele><time>2026-04-08T12:57:13.846Z</time></trkpt><trkpt lat="45.9436728" lon="13.6435126"><ele>113.0</ele><time>2026-04-08T12:57:14.809Z</time></trkpt><trkpt lat="45.9435796" lon="13.6435014"><ele>113.0</ele><time>2026-04-08T12:57:15.799Z</time></trkpt><trkpt lat="45.9434908" lon="13.6434939"><ele>113.00000000000001</ele><time>2026-04-08T12:57:16.844Z</time></trkpt><trkpt lat="45.9434001" lon="13.6434825"><ele>113.00000000000001</ele><time>2026-04-08T12:57:17.815Z</time></trkpt><trkpt lat="45.9433063" lon="13.6434737"><ele>113.0</ele><time>2026-04-08T12:57:18.824Z</time></trkpt><trkpt lat="45.9432109" lon="13.6434667"><ele>113.0</ele><time>2026-04-08T12:57:19.814Z</time></trkpt><trkpt lat="45.9431071" lon="13.6434551"><ele>109.75</ele><time>2026-04-08T12:57:20.807Z</time></trkpt><trkpt lat="45.9429903" lon="13.6434367"><ele>106.5</ele><time>2026-04-08T12:57:21.807Z</time></trkpt><trkpt lat="45.942865" lon="13.6434126"><ele>103.25</ele><time>2026-04-08T12:57:22.809Z</time></trkpt><trkpt lat="45.9427388" lon="13.6433839"><ele>100.0</ele><time>2026-04-08T12:57:23.812Z</time></trkpt><trkpt lat="45.9426238" lon="13.6433382"><ele>97.2</ele><time>2026-04-08T12:57:24.814Z</time></trkpt><trkpt lat="45.942515" lon="13.6432849"><ele>94.4</ele><time>2026-04-08T12:57:25.804Z</time></trkpt><trkpt lat="45.942411" lon="13.6432291"><ele>91.6</ele><time>2026-04-08T12:57:26.813Z</time></trkpt><trkpt lat="45.9423171" lon="13.6431743"><ele>88.8</ele><time>2026-04-08T12:57:27.81Z</time></trkpt><trkpt lat="45.9422315" lon="13.6431174"><ele>86.0</ele><time>2026-04-08T12:57:28.817Z</time></trkpt><trkpt lat="45.9421397" lon="13.6430546"><ele>86.0</ele><time>2026-04-08T12:57:29.815Z</time></trkpt><trkpt lat="45.942047" lon="13.6429865"><ele>86.0</ele><time>2026-04-08T12:57:30.817Z</time></trkpt><trkpt lat="45.9419627" lon="13.6429111"><ele>86.0</ele><time>2026-04-08T12:57:31.811Z</time></trkpt><trkpt lat="45.9418804" lon="13.6428339"><ele>86.0</ele><time>2026-04-08T12:57:32.814Z</time></trkpt><trkpt lat="45.9417978" lon="13.6427494"><ele>86.0</ele><time>2026-04-08T12:57:33.803Z</time></trkpt><trkpt lat="45.9417147" lon="13.6426517"><ele>85.75</ele><time>2026-04-08T12:57:34.819Z</time></trkpt><trkpt lat="45.9416286" lon="13.6425441"><ele>85.5</ele><time>2026-04-08T12:57:35.806Z</time></trkpt><trkpt lat="45.9415451" lon="13.6424277"><ele>85.25</ele><time>2026-04-08T12:57:36.811Z</time></trkpt><trkpt lat="45.9414673" lon="13.6423126"><ele>85.0</ele><time>2026-04-08T12:57:37.82Z</time></trkpt><trkpt lat="45.941391" lon="13.6421932"><ele>85.0</ele><time>2026-04-08T12:57:38.822Z</time></trkpt><trkpt lat="45.9413183" lon="13.6420719"><ele>85.0</ele><time>2026-04-08T12:57:39.818Z</time></trkpt><trkpt lat="45.941248" lon="13.6419455"><ele>85.0</ele><time>2026-04-08T12:57:40.82Z</time></trkpt><trkpt lat="45.9411807" lon="13.641815"><ele>85.0</ele><time>2026-04-08T12:57:41.807Z</time></trkpt><trkpt lat="45.9411165" lon="13.6416736"><ele>85.0</ele><time>2026-04-08T12:57:42.819Z</time></trkpt><trkpt lat="45.941062" lon="13.6415216"><ele>85.0</ele><time>2026-04-08T12:57:43.811Z</time></trkpt><trkpt lat="45.9410094" lon="13.641369"><ele>85.0</ele><time>2026-04-08T12:57:44.832Z</time></trkpt><trkpt lat="45.9409531" lon="13.6412153"><ele>85.0</ele><time>2026-04-08T12:57:45.815Z</time></trkpt><trkpt lat="45.9409045" lon="13.6410688"><ele>84.8</ele><time>2026-04-08T12:57:46.815Z</time></trkpt><trkpt lat="45.9408625" lon="13.6409234"><ele>84.6</ele><time>2026-04-08T12:57:47.811Z</time></trkpt><trkpt lat="45.9408302" lon="13.6407846"><ele>84.4</ele><time>2026-04-08T12:57:48.806Z</time></trkpt><trkpt lat="45.9408002" lon="13.6406536"><ele>84.2</ele><time>2026-04-08T12:57:49.819Z</time></trkpt><trkpt lat="45.9407753" lon="13.6405272"><ele>84.0</ele><time>2026-04-08T12:57:50.808Z</time></trkpt><trkpt lat="45.9407436" lon="13.6404024"><ele>83.2</ele><time>2026-04-08T12:57:51.817Z</time></trkpt><trkpt lat="45.9407164" lon="13.6402786"><ele>82.4</ele><time>2026-04-08T12:57:52.811Z</time></trkpt><trkpt lat="45.9406836" lon="13.6401559"><ele>81.6</ele><time>2026-04-08T12:57:53.822Z</time></trkpt><trkpt lat="45.9406495" lon="13.6400297"><ele>80.8</ele><time>2026-04-08T12:57:54.812Z</time></trkpt><trkpt lat="45.9406161" lon="13.6398942"><ele>80.0</ele><time>2026-04-08T12:57:55.806Z</time></trkpt><trkpt lat="45.9405812" lon="13.6397596"><ele>80.0</ele><time>2026-04-08T12:57:56.793Z</time></trkpt><trkpt lat="45.9405533" lon="13.6396333"><ele>80.0</ele><time>2026-04-08T12:57:57.813Z</time></trkpt><trkpt lat="45.9405277" lon="13.6395083"><ele>80.0</ele><time>2026-04-08T12:57:58.816Z</time></trkpt><trkpt lat="45.9404996" lon="13.6393808"><ele>80.0</ele><time>2026-04-08T12:57:59.815Z</time></trkpt><trkpt lat="45.9404732" lon="13.6392555"><ele>80.0</ele><time>2026-04-08T12:58:00.812Z</time></trkpt><trkpt lat="45.9404474" lon="13.6391368"><ele>80.0</ele><time>2026-04-08T12:58:01.821Z</time></trkpt><trkpt lat="45.9404227" lon="13.6390183"><ele>80.0</ele><time>2026-04-08T12:58:02.821Z</time></trkpt><trkpt lat="45.9403978" lon="13.638918"><ele>80.0</ele><time>2026-04-08T12:58:03.826Z</time></trkpt><trkpt lat="45.9403719" lon="13.6387839"><ele>80.0</ele><time>2026-04-08T12:58:05.814Z</time></trkpt><trkpt lat="45.9403437" lon="13.6386536"><ele>80.0</ele><time>2026-04-08T12:58:10.822Z</time></trkpt><trkpt lat="45.9403256" lon="13.6385609"><ele>80.0</ele><time>2026-04-08T12:58:11.808Z</time></trkpt><trkpt lat="45.9403306" lon="13.6384389"><ele>80.0</ele><time>2026-04-08T12:58:12.82Z</time></trkpt><trkpt lat="45.9403522" lon="13.6383031"><ele>80.0</ele><time>2026-04-08T12:58:13.804Z</time></trkpt><trkpt lat="45.9403848" lon="13.6381698"><ele>80.0</ele><time>2026-04-08T12:58:14.811Z</time></trkpt><trkpt lat="45.9404179" lon="13.6380535"><ele>80.0</ele><time>2026-04-08T12:58:15.797Z</time></trkpt><trkpt lat="45.9404323" lon="13.6379449"><ele>80.0</ele><time>2026-04-08T12:58:16.804Z</time></trkpt><trkpt lat="45.940414" lon="13.6378271"><ele>80.0</ele><time>2026-04-08T12:58:17.815Z</time></trkpt><trkpt lat="45.9403663" lon="13.6376981"><ele>79.8</ele><time>2026-04-08T12:58:18.805Z</time></trkpt><trkpt lat="45.9403029" lon="13.6375904"><ele>79.6</ele><time>2026-04-08T12:58:19.797Z</time></trkpt><trkpt lat="45.9402305" lon="13.6374978"><ele>79.4</ele><time>2026-04-08T12:58:20.81Z</time></trkpt><trkpt lat="45.9401492" lon="13.637442"><ele>79.2</ele><time>2026-04-08T12:58:21.818Z</time></trkpt><trkpt lat="45.9400531" lon="13.6374368"><ele>79.0</ele><time>2026-04-08T12:58:22.818Z</time></trkpt><trkpt lat="45.9399488" lon="13.6374635"><ele>79.0</ele><time>2026-04-08T12:58:23.808Z</time></trkpt><trkpt lat="45.9398436" lon="13.6375068"><ele>79.0</ele><time>2026-04-08T12:58:24.804Z</time></trkpt><trkpt lat="45.9397055" lon="13.6375439"><ele>79.0</ele><time>2026-04-08T12:58:25.81Z</time></trkpt><trkpt lat="45.9395559" lon="13.6375375"><ele>79.0</ele><time>2026-04-08T12:58:26.808Z</time></trkpt><trkpt lat="45.9393812" lon="13.6375377"><ele>79.33333333333333</ele><time>2026-04-08T12:58:27.819Z</time></trkpt><trkpt lat="45.9391987" lon="13.6375843"><ele>79.66666666666667</ele><time>2026-04-08T12:58:28.812Z</time></trkpt><trkpt lat="45.9390236" lon="13.63765"><ele>80.0</ele><time>2026-04-08T12:58:29.816Z</time></trkpt><trkpt lat="45.938853" lon="13.6377282"><ele>80.33333333333334</ele><time>2026-04-08T12:58:30.797Z</time></trkpt><trkpt lat="45.9386815" lon="13.6378074"><ele>80.66666666666667</ele><time>2026-04-08T12:58:31.797Z</time></trkpt><trkpt lat="45.9385157" lon="13.6378773"><ele>81.0</ele><time>2026-04-08T12:58:32.802Z</time></trkpt><trkpt lat="45.9383663" lon="13.6379434"><ele>81.0</ele><time>2026-04-08T12:58:33.815Z</time></trkpt><trkpt lat="45.9382242" lon="13.6380045"><ele>81.0</ele><time>2026-04-08T12:58:34.806Z</time></trkpt><trkpt lat="45.9380813" lon="13.6380678"><ele>81.0</ele><time>2026-04-08T12:58:35.815Z</time></trkpt><trkpt lat="45.9379302" lon="13.6381373"><ele>81.0</ele><time>2026-04-08T12:58:36.821Z</time></trkpt><trkpt lat="45.9376183" lon="13.6382726"><ele>81.0</ele><time>2026-04-08T12:58:38.795Z</time></trkpt><trkpt lat="45.9374595" lon="13.6383388"><ele>82.33333333333333</ele><time>2026-04-08T12:58:39.8Z</time></trkpt><trkpt lat="45.9372993" lon="13.6384075"><ele>83.66666666666666</ele><time>2026-04-08T12:58:40.796Z</time></trkpt><trkpt lat="45.9371372" lon="13.6384837"><ele>85.0</ele><time>2026-04-08T12:58:41.812Z</time></trkpt><trkpt lat="45.9369722" lon="13.6385712"><ele>85.0</ele><time>2026-04-08T12:58:42.803Z</time></trkpt><trkpt lat="45.9366524" lon="13.638761"><ele>85.0</ele><time>2026-04-08T12:58:44.819Z</time></trkpt><trkpt lat="45.9365001" lon="13.6388753"><ele>85.0</ele><time>2026-04-08T12:58:45.824Z</time></trkpt><trkpt lat="45.936352" lon="13.6390108"><ele>85.0</ele><time>2026-04-08T12:58:46.835Z</time></trkpt><trkpt lat="45.9362028" lon="13.6391684"><ele>85.0</ele><time>2026-04-08T12:58:47.807Z</time></trkpt><trkpt lat="45.936055" lon="13.639331"><ele>85.5</ele><time>2026-04-08T12:58:48.821Z</time></trkpt><trkpt lat="45.9357558" lon="13.6396533"><ele>86.0</ele><time>2026-04-08T12:58:50.816Z</time></trkpt><trkpt lat="45.9356102" lon="13.6398115"><ele>86.0</ele><time>2026-04-08T12:58:51.795Z</time></trkpt><trkpt lat="45.9354669" lon="13.6399751"><ele>86.0</ele><time>2026-04-08T12:58:52.802Z</time></trkpt><trkpt lat="45.9353214" lon="13.6401349"><ele>86.0</ele><time>2026-04-08T12:58:53.811Z</time></trkpt><trkpt lat="45.9351711" lon="13.6402967"><ele>85.0</ele><time>2026-04-08T12:58:54.805Z</time></trkpt><trkpt lat="45.9350172" lon="13.6404626"><ele>84.0</ele><time>2026-04-08T12:58:55.805Z</time></trkpt><trkpt lat="45.9348689" lon="13.6406335"><ele>83.0</ele><time>2026-04-08T12:58:56.812Z</time></trkpt><trkpt lat="45.934726" lon="13.6408012"><ele>83.0</ele><time>2026-04-08T12:58:57.81Z</time></trkpt><trkpt lat="45.9345747" lon="13.6409582"><ele>83.0</ele><time>2026-04-08T12:58:58.793Z</time></trkpt><trkpt lat="45.934427" lon="13.6411235"><ele>83.0</ele><time>2026-04-08T12:58:59.812Z</time></trkpt><trkpt lat="45.9342817" lon="13.6412878"><ele>82.33333333333334</ele><time>2026-04-08T12:59:00.806Z</time></trkpt><trkpt lat="45.9341345" lon="13.6414487"><ele>81.66666666666667</ele><time>2026-04-08T12:59:01.809Z</time></trkpt><trkpt lat="45.9339824" lon="13.6416078"><ele>81.0</ele><time>2026-04-08T12:59:02.804Z</time></trkpt><trkpt lat="45.9338256" lon="13.6417708"><ele>81.0</ele><time>2026-04-08T12:59:03.816Z</time></trkpt><trkpt lat="45.9336728" lon="13.6419331"><ele>81.0</ele><time>2026-04-08T12:59:04.811Z</time></trkpt><trkpt lat="45.9335193" lon="13.6420976"><ele>81.0</ele><time>2026-04-08T12:59:05.801Z</time></trkpt><trkpt lat="45.9333666" lon="13.6422595"><ele>81.33333333333333</ele><time>2026-04-08T12:59:06.807Z</time></trkpt><trkpt lat="45.9332167" lon="13.6424241"><ele>81.66666666666666</ele><time>2026-04-08T12:59:07.793Z</time></trkpt><trkpt lat="45.9330672" lon="13.642594"><ele>82.0</ele><time>2026-04-08T12:59:08.811Z</time></trkpt><trkpt lat="45.9329182" lon="13.6427504"><ele>81.33333333333333</ele><time>2026-04-08T12:59:09.805Z</time></trkpt><trkpt lat="45.9327694" lon="13.6428987"><ele>80.66666666666667</ele><time>2026-04-08T12:59:10.81Z</time></trkpt><trkpt lat="45.9326226" lon="13.6430528"><ele>80.0</ele><time>2026-04-08T12:59:11.8Z</time></trkpt><trkpt lat="45.9324825" lon="13.6432109"><ele>80.0</ele><time>2026-04-08T12:59:12.807Z</time></trkpt><trkpt lat="45.9323387" lon="13.6433691"><ele>80.0</ele><time>2026-04-08T12:59:13.817Z</time></trkpt><trkpt lat="45.9321889" lon="13.6435261"><ele>80.0</ele><time>2026-04-08T12:59:14.823Z</time></trkpt><trkpt lat="45.9320444" lon="13.6436807"><ele>80.33333333333334</ele><time>2026-04-08T12:59:15.798Z</time></trkpt><trkpt lat="45.9319037" lon="13.6438399"><ele>80.66666666666667</ele><time>2026-04-08T12:59:16.794Z</time></trkpt><trkpt lat="45.9317651" lon="13.6440022"><ele>81.0</ele><time>2026-04-08T12:59:17.819Z</time></trkpt><trkpt lat="45.9316275" lon="13.6441611"><ele>81.33333333333333</ele><time>2026-04-08T12:59:18.808Z</time></trkpt><trkpt lat="45.9314893" lon="13.6443182"><ele>81.66666666666666</ele><time>2026-04-08T12:59:19.792Z</time></trkpt><trkpt lat="45.9313499" lon="13.6444787"><ele>82.0</ele><time>2026-04-08T12:59:20.802Z</time></trkpt><trkpt lat="45.9312091" lon="13.6446421"><ele>82.0</ele><time>2026-04-08T12:59:21.807Z</time></trkpt><trkpt lat="45.9310671" lon="13.6448065"><ele>82.0</ele><time>2026-04-08T12:59:22.819Z</time></trkpt><trkpt lat="45.9309239" lon="13.644969"><ele>82.0</ele><time>2026-04-08T12:59:23.807Z</time></trkpt><trkpt lat="45.9307815" lon="13.6451285"><ele>81.66666666666666</ele><time>2026-04-08T12:59:24.806Z</time></trkpt><trkpt lat="45.930636" lon="13.6452817"><ele>81.33333333333333</ele><time>2026-04-08T12:59:25.814Z</time></trkpt><trkpt lat="45.9304919" lon="13.6454362"><ele>81.0</ele><time>2026-04-08T12:59:26.809Z</time></trkpt><trkpt lat="45.9303452" lon="13.6455872"><ele>80.66666666666667</ele><time>2026-04-08T12:59:27.804Z</time></trkpt><trkpt lat="45.9301949" lon="13.6457348"><ele>80.33333333333334</ele><time>2026-04-08T12:59:28.81Z</time></trkpt><trkpt lat="45.9300421" lon="13.6458855"><ele>80.0</ele><time>2026-04-08T12:59:29.807Z</time></trkpt><trkpt lat="45.9298893" lon="13.6460282"><ele>81.0</ele><time>2026-04-08T12:59:30.812Z</time></trkpt><trkpt lat="45.9297348" lon="13.6461622"><ele>82.0</ele><time>2026-04-08T12:59:31.797Z</time></trkpt><trkpt lat="45.9294153" lon="13.6463985"><ele>82.0</ele><time>2026-04-08T12:59:33.807Z</time></trkpt><trkpt lat="45.9292547" lon="13.6465049"><ele>82.0</ele><time>2026-04-08T12:59:34.826Z</time></trkpt><trkpt lat="45.9290927" lon="13.6466056"><ele>82.0</ele><time>2026-04-08T12:59:35.814Z</time></trkpt><trkpt lat="45.9289281" lon="13.6466944"><ele>81.33333333333333</ele><time>2026-04-08T12:59:36.799Z</time></trkpt><trkpt lat="45.9287642" lon="13.6467851"><ele>80.66666666666667</ele><time>2026-04-08T12:59:37.825Z</time></trkpt><trkpt lat="45.9286006" lon="13.6468736"><ele>80.0</ele><time>2026-04-08T12:59:38.821Z</time></trkpt><trkpt lat="45.9284373" lon="13.6469677"><ele>82.66666666666667</ele><time>2026-04-08T12:59:39.808Z</time></trkpt><trkpt lat="45.9282703" lon="13.6470497"><ele>85.33333333333333</ele><time>2026-04-08T12:59:40.807Z</time></trkpt><trkpt lat="45.9280975" lon="13.6471294"><ele>88.0</ele><time>2026-04-08T12:59:41.807Z</time></trkpt><trkpt lat="45.9279225" lon="13.6472171"><ele>88.0</ele><time>2026-04-08T12:59:42.801Z</time></trkpt><trkpt lat="45.9277414" lon="13.6473039"><ele>88.0</ele><time>2026-04-08T12:59:43.812Z</time></trkpt><trkpt lat="45.9275608" lon="13.6473984"><ele>88.0</ele><time>2026-04-08T12:59:44.796Z</time></trkpt><trkpt lat="45.9273777" lon="13.6474982"><ele>89.66666666666666</ele><time>2026-04-08T12:59:45.797Z</time></trkpt><trkpt lat="45.9271968" lon="13.6476064"><ele>91.33333333333333</ele><time>2026-04-08T12:59:46.805Z</time></trkpt><trkpt lat="45.9270188" lon="13.6477239"><ele>93.0</ele><time>2026-04-08T12:59:47.806Z</time></trkpt><trkpt lat="45.9268466" lon="13.6478452"><ele>88.66666666666667</ele><time>2026-04-08T12:59:48.794Z</time></trkpt><trkpt lat="45.9266796" lon="13.6479897"><ele>84.33333333333334</ele><time>2026-04-08T12:59:49.813Z</time></trkpt><trkpt lat="45.9265184" lon="13.6481434"><ele>80.0</ele><time>2026-04-08T12:59:50.816Z</time></trkpt><trkpt lat="45.9263584" lon="13.648304"><ele>80.0</ele><time>2026-04-08T12:59:51.821Z</time></trkpt><trkpt lat="45.9262073" lon="13.6484718"><ele>80.0</ele><time>2026-04-08T12:59:52.806Z</time></trkpt><trkpt lat="45.9260646" lon="13.6486502"><ele>80.0</ele><time>2026-04-08T12:59:53.813Z</time></trkpt><trkpt lat="45.9258119" lon="13.6490299"><ele>80.66666666666667</ele><time>2026-04-08T12:59:55.795Z</time></trkpt><trkpt lat="45.9256986" lon="13.6492319"><ele>81.33333333333333</ele><time>2026-04-08T12:59:56.806Z</time></trkpt><trkpt lat="45.9255969" lon="13.6494405"><ele>82.0</ele><time>2026-04-08T12:59:57.809Z</time></trkpt><trkpt lat="45.9254966" lon="13.6496498"><ele>85.66666666666666</ele><time>2026-04-08T12:59:58.818Z</time></trkpt><trkpt lat="45.9254082" lon="13.649869"><ele>89.33333333333333</ele><time>2026-04-08T12:59:59.807Z</time></trkpt><trkpt lat="45.9253224" lon="13.6500969"><ele>93.0</ele><time>2026-04-08T13:00:00.816Z</time></trkpt><trkpt lat="45.9252468" lon="13.6503339"><ele>93.0</ele><time>2026-04-08T13:00:01.812Z</time></trkpt><trkpt lat="45.9251679" lon="13.6505655"><ele>93.0</ele><time>2026-04-08T13:00:02.81Z</time></trkpt><trkpt lat="45.9250861" lon="13.650785"><ele>93.0</ele><time>2026-04-08T13:00:03.81Z</time></trkpt><trkpt lat="45.9249958" lon="13.6509806"><ele>94.33333333333334</ele><time>2026-04-08T13:00:04.816Z</time></trkpt><trkpt lat="45.9248963" lon="13.6511502"><ele>95.66666666666667</ele><time>2026-04-08T13:00:05.814Z</time></trkpt><trkpt lat="45.9247762" lon="13.6512927"><ele>97.0</ele><time>2026-04-08T13:00:06.814Z</time></trkpt><trkpt lat="45.9246449" lon="13.6514008"><ele>97.0</ele><time>2026-04-08T13:00:07.812Z</time></trkpt><trkpt lat="45.9245116" lon="13.6514778"><ele>97.0</ele><time>2026-04-08T13:00:08.808Z</time></trkpt><trkpt lat="45.9243784" lon="13.6515357"><ele>97.0</ele><time>2026-04-08T13:00:09.81Z</time></trkpt><trkpt lat="45.9242476" lon="13.6515741"><ele>97.0</ele><time>2026-04-08T13:00:10.815Z</time></trkpt><trkpt lat="45.9241125" lon="13.6516177"><ele>95.5</ele><time>2026-04-08T13:00:11.822Z</time></trkpt><trkpt lat="45.9239731" lon="13.6516646"><ele>94.0</ele><time>2026-04-08T13:00:12.802Z</time></trkpt><trkpt lat="45.9238333" lon="13.6517088"><ele>92.5</ele><time>2026-04-08T13:00:13.805Z</time></trkpt><trkpt lat="45.9236943" lon="13.6517561"><ele>91.0</ele><time>2026-04-08T13:00:14.807Z</time></trkpt><trkpt lat="45.9235579" lon="13.65181"><ele>91.0</ele><time>2026-04-08T13:00:15.818Z</time></trkpt><trkpt lat="45.9234233" lon="13.6518779"><ele>91.0</ele><time>2026-04-08T13:00:16.803Z</time></trkpt><trkpt lat="45.9232992" lon="13.6519517"><ele>91.0</ele><time>2026-04-08T13:00:17.81Z</time></trkpt><trkpt lat="45.9231857" lon="13.6520315"><ele>91.0</ele><time>2026-04-08T13:00:18.798Z</time></trkpt><trkpt lat="45.9230867" lon="13.6521115"><ele>90.16666666666666</ele><time>2026-04-08T13:00:19.8Z</time></trkpt><trkpt lat="45.9229971" lon="13.6521891"><ele>89.33333333333333</ele><time>2026-04-08T13:00:20.813Z</time></trkpt><trkpt lat="45.9229177" lon="13.6522617"><ele>88.5</ele><time>2026-04-08T13:00:21.807Z</time></trkpt><trkpt lat="45.9228514" lon="13.6523278"><ele>87.66666666666667</ele><time>2026-04-08T13:00:22.812Z</time></trkpt><trkpt lat="45.9227788" lon="13.652399"><ele>86.83333333333334</ele><time>2026-04-08T13:00:24.801Z</time></trkpt><trkpt lat="45.9227118" lon="13.6524436"><ele>86.0</ele><time>2026-04-08T13:00:27.823Z</time></trkpt><trkpt lat="45.9226127" lon="13.6524213"><ele>86.66666666666667</ele><time>2026-04-08T13:00:30.809Z</time></trkpt><trkpt lat="45.9225418" lon="13.6523949"><ele>87.33333333333334</ele><time>2026-04-08T13:00:31.819Z</time></trkpt><trkpt lat="45.9224674" lon="13.6523477"><ele>88.0</ele><time>2026-04-08T13:00:32.812Z</time></trkpt><trkpt lat="45.9224045" lon="13.65227"><ele>88.66666666666667</ele><time>2026-04-08T13:00:33.818Z</time></trkpt><trkpt lat="45.9223509" lon="13.652174"><ele>89.33333333333333</ele><time>2026-04-08T13:00:34.821Z</time></trkpt><trkpt lat="45.9223111" lon="13.6520867"><ele>90.0</ele><time>2026-04-08T13:00:35.813Z</time></trkpt><trkpt lat="45.9222657" lon="13.6519807"><ele>90.0</ele><time>2026-04-08T13:00:37.808Z</time></trkpt><trkpt lat="45.922245" lon="13.6518726"><ele>90.0</ele><time>2026-04-08T13:00:39.868Z</time></trkpt><trkpt lat="45.9222633" lon="13.6515885"><ele>90.0</ele><time>2026-04-08T13:00:42.816Z</time></trkpt><trkpt lat="45.9222383" lon="13.6514883"><ele>90.0</ele><time>2026-04-08T13:00:43.804Z</time></trkpt><trkpt lat="45.9221914" lon="13.6514103"><ele>90.0</ele><time>2026-04-08T13:00:44.797Z</time></trkpt><trkpt lat="45.9221317" lon="13.6513425"><ele>90.0</ele><time>2026-04-08T13:00:45.797Z</time></trkpt><trkpt lat="45.9220763" lon="13.6512494"><ele>90.0</ele><time>2026-04-08T13:00:46.826Z</time></trkpt><trkpt lat="45.9220246" lon="13.6511053"><ele>90.0</ele><time>2026-04-08T13:00:47.812Z</time></trkpt><trkpt lat="45.9219487" lon="13.650932"><ele>90.0</ele><time>2026-04-08T13:00:48.812Z</time></trkpt><trkpt lat="45.9218485" lon="13.6507445"><ele>86.33333333333333</ele><time>2026-04-08T13:00:49.813Z</time></trkpt><trkpt lat="45.9217237" lon="13.6505644"><ele>82.66666666666666</ele><time>2026-04-08T13:00:50.804Z</time></trkpt><trkpt lat="45.9215825" lon="13.6504195"><ele>79.0</ele><time>2026-04-08T13:00:51.793Z</time></trkpt><trkpt lat="45.9214416" lon="13.6502983"><ele>80.66666666666666</ele><time>2026-04-08T13:00:52.826Z</time></trkpt><trkpt lat="45.9212984" lon="13.6502077"><ele>82.33333333333333</ele><time>2026-04-08T13:00:53.81Z</time></trkpt><trkpt lat="45.9211517" lon="13.6501189"><ele>84.0</ele><time>2026-04-08T13:00:54.825Z</time></trkpt><trkpt lat="45.9210094" lon="13.6500358"><ele>82.0</ele><time>2026-04-08T13:00:55.797Z</time></trkpt><trkpt lat="45.9208728" lon="13.6499499"><ele>80.0</ele><time>2026-04-08T13:00:56.813Z</time></trkpt><trkpt lat="45.9207425" lon="13.6498686"><ele>78.0</ele><time>2026-04-08T13:00:57.807Z</time></trkpt><trkpt lat="45.9206159" lon="13.6497817"><ele>76.0</ele><time>2026-04-08T13:00:58.839Z</time></trkpt><trkpt lat="45.9203584" lon="13.6495906"><ele>76.0</ele><time>2026-04-08T13:01:00.827Z</time></trkpt><trkpt lat="45.9201424" lon="13.6493168"><ele>76.0</ele><time>2026-04-08T13:01:02.816Z</time></trkpt><trkpt lat="45.9200636" lon="13.6491575"><ele>76.0</ele><time>2026-04-08T13:01:03.807Z</time></trkpt><trkpt lat="45.9200019" lon="13.6489897"><ele>76.0</ele><time>2026-04-08T13:01:04.813Z</time></trkpt><trkpt lat="45.9199534" lon="13.6488224"><ele>76.0</ele><time>2026-04-08T13:01:05.804Z</time></trkpt><trkpt lat="45.9199158" lon="13.6486527"><ele>76.0</ele><time>2026-04-08T13:01:06.831Z</time></trkpt><trkpt lat="45.919885" lon="13.6483062"><ele>75.5</ele><time>2026-04-08T13:01:08.802Z</time></trkpt><trkpt lat="45.9198936" lon="13.6481217"><ele>75.0</ele><time>2026-04-08T13:01:09.826Z</time></trkpt><trkpt lat="45.9199177" lon="13.6479391"><ele>74.5</ele><time>2026-04-08T13:01:10.804Z</time></trkpt><trkpt lat="45.9199565" lon="13.6477695"><ele>74.0</ele><time>2026-04-08T13:01:11.808Z</time></trkpt><trkpt lat="45.9200082" lon="13.6476058"><ele>74.5</ele><time>2026-04-08T13:01:12.802Z</time></trkpt><trkpt lat="45.9200714" lon="13.6474494"><ele>75.0</ele><time>2026-04-08T13:01:13.809Z</time></trkpt><trkpt lat="45.9201533" lon="13.6473115"><ele>75.5</ele><time>2026-04-08T13:01:14.804Z</time></trkpt><trkpt lat="45.9202576" lon="13.6472003"><ele>76.0</ele><time>2026-04-08T13:01:15.804Z</time></trkpt><trkpt lat="45.9203777" lon="13.6471347"><ele>76.0</ele><time>2026-04-08T13:01:16.809Z</time></trkpt><trkpt lat="45.9205063" lon="13.6471236"><ele>76.0</ele><time>2026-04-08T13:01:17.804Z</time></trkpt><trkpt lat="45.9206281" lon="13.6471445"><ele>76.0</ele><time>2026-04-08T13:01:18.802Z</time></trkpt><trkpt lat="45.9207398" lon="13.6472062"><ele>76.0</ele><time>2026-04-08T13:01:19.802Z</time></trkpt><trkpt lat="45.9208428" lon="13.6472951"><ele>75.25</ele><time>2026-04-08T13:01:20.817Z</time></trkpt><trkpt lat="45.9209153" lon="13.6474111"><ele>74.5</ele><time>2026-04-08T13:01:21.803Z</time></trkpt><trkpt lat="45.9209757" lon="13.6475503"><ele>73.75</ele><time>2026-04-08T13:01:22.796Z</time></trkpt><trkpt lat="45.9210041" lon="13.6477147"><ele>73.0</ele><time>2026-04-08T13:01:23.805Z</time></trkpt><trkpt lat="45.9210246" lon="13.6478925"><ele>74.5</ele><time>2026-04-08T13:01:24.808Z</time></trkpt><trkpt lat="45.921036" lon="13.6480877"><ele>76.0</ele><time>2026-04-08T13:01:25.803Z</time></trkpt><trkpt lat="45.9210389" lon="13.648297"><ele>77.5</ele><time>2026-04-08T13:01:26.798Z</time></trkpt><trkpt lat="45.9210371" lon="13.648513"><ele>79.0</ele><time>2026-04-08T13:01:27.807Z</time></trkpt><trkpt lat="45.9210313" lon="13.6487306"><ele>80.66666666666666</ele><time>2026-04-08T13:01:28.817Z</time></trkpt><trkpt lat="45.9210236" lon="13.6489481"><ele>82.33333333333333</ele><time>2026-04-08T13:01:29.805Z</time></trkpt><trkpt lat="45.9210211" lon="13.6491664"><ele>84.0</ele><time>2026-04-08T13:01:30.803Z</time></trkpt><trkpt lat="45.9210164" lon="13.6493872"><ele>84.0</ele><time>2026-04-08T13:01:31.809Z</time></trkpt><trkpt lat="45.9210111" lon="13.6496174"><ele>84.0</ele><time>2026-04-08T13:01:32.809Z</time></trkpt><trkpt lat="45.9210062" lon="13.6498457"><ele>84.0</ele><time>2026-04-08T13:01:33.809Z</time></trkpt><trkpt lat="45.9210009" lon="13.6500727"><ele>82.33333333333333</ele><time>2026-04-08T13:01:34.817Z</time></trkpt><trkpt lat="45.9209953" lon="13.6503007"><ele>80.66666666666666</ele><time>2026-04-08T13:01:35.815Z</time></trkpt><trkpt lat="45.9209879" lon="13.6505362"><ele>79.0</ele><time>2026-04-08T13:01:36.86Z</time></trkpt><trkpt lat="45.9209857" lon="13.6507909"><ele>79.0</ele><time>2026-04-08T13:01:37.837Z</time></trkpt><trkpt lat="45.9209933" lon="13.6510967"><ele>79.0</ele><time>2026-04-08T13:01:38.818Z</time></trkpt><trkpt lat="45.9210006" lon="13.6514611"><ele>80.5</ele><time>2026-04-08T13:01:39.807Z</time></trkpt><trkpt lat="45.920989" lon="13.6518564"><ele>82.0</ele><time>2026-04-08T13:01:40.811Z</time></trkpt><trkpt lat="45.9209605" lon="13.6522908"><ele>83.0</ele><time>2026-04-08T13:01:41.813Z</time></trkpt><trkpt lat="45.9209208" lon="13.6527589"><ele>84.0</ele><time>2026-04-08T13:01:42.805Z</time></trkpt><trkpt lat="45.9208366" lon="13.6537394"><ele>84.0</ele><time>2026-04-08T13:01:44.833Z</time></trkpt><trkpt lat="45.9208006" lon="13.6542374"><ele>84.0</ele><time>2026-04-08T13:01:45.813Z</time></trkpt><trkpt lat="45.9207596" lon="13.6547296"><ele>82.5</ele><time>2026-04-08T13:01:46.811Z</time></trkpt><trkpt lat="45.92071" lon="13.6551931"><ele>81.0</ele><time>2026-04-08T13:01:47.818Z</time></trkpt><trkpt lat="45.9206666" lon="13.6556383"><ele>84.5</ele><time>2026-04-08T13:01:48.792Z</time></trkpt><trkpt lat="45.9206171" lon="13.6560701"><ele>88.0</ele><time>2026-04-08T13:01:49.809Z</time></trkpt><trkpt lat="45.9205121" lon="13.6568962"><ele>88.0</ele><time>2026-04-08T13:01:51.803Z</time></trkpt><trkpt lat="45.9204655" lon="13.657279"><ele>88.0</ele><time>2026-04-08T13:01:52.81Z</time></trkpt><trkpt lat="45.92042" lon="13.6576371"><ele>88.5</ele><time>2026-04-08T13:01:53.809Z</time></trkpt><trkpt lat="45.9203717" lon="13.6579699"><ele>89.0</ele><time>2026-04-08T13:01:54.81Z</time></trkpt><trkpt lat="45.9203273" lon="13.658299"><ele>91.0</ele><time>2026-04-08T13:01:55.791Z</time></trkpt><trkpt lat="45.9202831" lon="13.658625"><ele>93.0</ele><time>2026-04-08T13:01:56.802Z</time></trkpt><trkpt lat="45.9202334" lon="13.65895"><ele>93.0</ele><time>2026-04-08T13:01:57.82Z</time></trkpt><trkpt lat="45.9201811" lon="13.6592767"><ele>93.0</ele><time>2026-04-08T13:01:58.809Z</time></trkpt><trkpt lat="45.9201282" lon="13.6596048"><ele>93.0</ele><time>2026-04-08T13:01:59.816Z</time></trkpt><trkpt lat="45.9200764" lon="13.6599381"><ele>93.0</ele><time>2026-04-08T13:02:00.802Z</time></trkpt><trkpt lat="45.9200232" lon="13.660279"><ele>87.0</ele><time>2026-04-08T13:02:01.815Z</time></trkpt><trkpt lat="45.9199681" lon="13.6606191"><ele>81.0</ele><time>2026-04-08T13:02:02.823Z</time></trkpt><trkpt lat="45.9199065" lon="13.6609625"><ele>80.0</ele><time>2026-04-08T13:02:03.82Z</time></trkpt><trkpt lat="45.9198421" lon="13.661302"><ele>79.0</ele><time>2026-04-08T13:02:04.804Z</time></trkpt><trkpt lat="45.9197793" lon="13.661639"><ele>80.5</ele><time>2026-04-08T13:02:05.804Z</time></trkpt><trkpt lat="45.9197149" lon="13.6619816"><ele>82.0</ele><time>2026-04-08T13:02:06.809Z</time></trkpt><trkpt lat="45.9195067" lon="13.6630107"><ele>84.0</ele><time>2026-04-08T13:02:09.822Z</time></trkpt><trkpt lat="45.91943" lon="13.6633516"><ele>86.0</ele><time>2026-04-08T13:02:10.808Z</time></trkpt><trkpt lat="45.9193532" lon="13.6636892"><ele>87.0</ele><time>2026-04-08T13:02:11.81Z</time></trkpt><trkpt lat="45.9192751" lon="13.6640237"><ele>88.0</ele><time>2026-04-08T13:02:12.809Z</time></trkpt><trkpt lat="45.9191949" lon="13.6643557"><ele>88.5</ele><time>2026-04-08T13:02:13.808Z</time></trkpt><trkpt lat="45.9191147" lon="13.6646887"><ele>89.0</ele><time>2026-04-08T13:02:14.799Z</time></trkpt><trkpt lat="45.9190308" lon="13.6650196"><ele>87.5</ele><time>2026-04-08T13:02:15.795Z</time></trkpt><trkpt lat="45.918942" lon="13.6653482"><ele>86.0</ele><time>2026-04-08T13:02:16.806Z</time></trkpt><trkpt lat="45.9188516" lon="13.6656818"><ele>86.0</ele><time>2026-04-08T13:02:17.805Z</time></trkpt><trkpt lat="45.9187582" lon="13.6660142"><ele>86.0</ele><time>2026-04-08T13:02:18.81Z</time></trkpt><trkpt lat="45.9186634" lon="13.6663491"><ele>85.0</ele><time>2026-04-08T13:02:19.81Z</time></trkpt><trkpt lat="45.9185627" lon="13.6666823"><ele>84.0</ele><time>2026-04-08T13:02:20.803Z</time></trkpt><trkpt lat="45.9184555" lon="13.6670186"><ele>83.0</ele><time>2026-04-08T13:02:21.796Z</time></trkpt><trkpt lat="45.9183438" lon="13.667355"><ele>82.0</ele><time>2026-04-08T13:02:22.793Z</time></trkpt><trkpt lat="45.9182318" lon="13.6676912"><ele>81.5</ele><time>2026-04-08T13:02:23.796Z</time></trkpt><trkpt lat="45.9181181" lon="13.668029"><ele>81.0</ele><time>2026-04-08T13:02:24.794Z</time></trkpt><trkpt lat="45.9178796" lon="13.6687192"><ele>80.0</ele><time>2026-04-08T13:02:26.792Z</time></trkpt><trkpt lat="45.9177552" lon="13.6690605"><ele>79.0</ele><time>2026-04-08T13:02:27.796Z</time></trkpt><trkpt lat="45.9176303" lon="13.6693997"><ele>81.0</ele><time>2026-04-08T13:02:28.805Z</time></trkpt><trkpt lat="45.9175049" lon="13.669737"><ele>83.0</ele><time>2026-04-08T13:02:29.808Z</time></trkpt><trkpt lat="45.9173788" lon="13.6700731"><ele>79.0</ele><time>2026-04-08T13:02:30.86Z</time></trkpt><trkpt lat="45.9172516" lon="13.6704073"><ele>75.0</ele><time>2026-04-08T13:02:31.798Z</time></trkpt><trkpt lat="45.91713" lon="13.6707428"><ele>75.0</ele><time>2026-04-08T13:02:32.814Z</time></trkpt><trkpt lat="45.9170098" lon="13.671077"><ele>75.0</ele><time>2026-04-08T13:02:33.807Z</time></trkpt><trkpt lat="45.916889" lon="13.6714259"><ele>74.0</ele><time>2026-04-08T13:02:34.813Z</time></trkpt><trkpt lat="45.9167634" lon="13.6717767"><ele>73.0</ele><time>2026-04-08T13:02:35.805Z</time></trkpt><trkpt lat="45.9166346" lon="13.6721325"><ele>73.0</ele><time>2026-04-08T13:02:36.805Z</time></trkpt><trkpt lat="45.9165043" lon="13.6725008"><ele>73.0</ele><time>2026-04-08T13:02:37.829Z</time></trkpt><trkpt lat="45.9163768" lon="13.6728834"><ele>81.0</ele><time>2026-04-08T13:02:38.791Z</time></trkpt><trkpt lat="45.9161405" lon="13.673646"><ele>81.0</ele><time>2026-04-08T13:02:40.818Z</time></trkpt><trkpt lat="45.9160316" lon="13.6740231"><ele>81.0</ele><time>2026-04-08T13:02:41.795Z</time></trkpt><trkpt lat="45.9159268" lon="13.6743976"><ele>77.0</ele><time>2026-04-08T13:02:42.803Z</time></trkpt><trkpt lat="45.915829" lon="13.6747696"><ele>73.0</ele><time>2026-04-08T13:02:43.806Z</time></trkpt><trkpt lat="45.9157329" lon="13.6751379"><ele>76.5</ele><time>2026-04-08T13:02:44.877Z</time></trkpt><trkpt lat="45.9156423" lon="13.6755074"><ele>80.0</ele><time>2026-04-08T13:02:45.814Z</time></trkpt><trkpt lat="45.9155612" lon="13.6758829"><ele>79.0</ele><time>2026-04-08T13:02:46.866Z</time></trkpt><trkpt lat="45.9154169" lon="13.6766371"><ele>74.5</ele><time>2026-04-08T13:02:48.813Z</time></trkpt><trkpt lat="45.9153516" lon="13.6770176"><ele>70.0</ele><time>2026-04-08T13:02:49.803Z</time></trkpt><trkpt lat="45.9152933" lon="13.6774017"><ele>74.5</ele><time>2026-04-08T13:02:50.808Z</time></trkpt><trkpt lat="45.9152472" lon="13.6777858"><ele>79.0</ele><time>2026-04-08T13:02:51.836Z</time></trkpt><trkpt lat="45.9152073" lon="13.6781713"><ele>79.0</ele><time>2026-04-08T13:02:52.826Z</time></trkpt><trkpt lat="45.915171" lon="13.678557"><ele>79.0</ele><time>2026-04-08T13:02:53.824Z</time></trkpt><trkpt lat="45.9151305" lon="13.6793282"><ele>85.5</ele><time>2026-04-08T13:02:55.828Z</time></trkpt><trkpt lat="45.9151247" lon="13.6797114"><ele>92.0</ele><time>2026-04-08T13:02:56.812Z</time></trkpt><trkpt lat="45.9151302" lon="13.6800942"><ele>91.5</ele><time>2026-04-08T13:02:57.804Z</time></trkpt><trkpt lat="45.9151474" lon="13.6804735"><ele>91.0</ele><time>2026-04-08T13:02:58.793Z</time></trkpt><trkpt lat="45.9152138" lon="13.6812241"><ele>85.0</ele><time>2026-04-08T13:03:00.813Z</time></trkpt><trkpt lat="45.915312" lon="13.6819411"><ele>85.0</ele><time>2026-04-08T13:03:02.79Z</time></trkpt><trkpt lat="45.9153708" lon="13.6822926"><ele>85.0</ele><time>2026-04-08T13:03:03.806Z</time></trkpt><trkpt lat="45.915435" lon="13.6826454"><ele>78.5</ele><time>2026-04-08T13:03:04.861Z</time></trkpt><trkpt lat="45.9155052" lon="13.6829931"><ele>72.0</ele><time>2026-04-08T13:03:05.836Z</time></trkpt><trkpt lat="45.915584" lon="13.6833408"><ele>70.0</ele><time>2026-04-08T13:03:06.835Z</time></trkpt><trkpt lat="45.9156667" lon="13.6836853"><ele>68.0</ele><time>2026-04-08T13:03:07.805Z</time></trkpt><trkpt lat="45.9158422" lon="13.6843826"><ele>79.5</ele><time>2026-04-08T13:03:09.814Z</time></trkpt><trkpt lat="45.9159354" lon="13.6847374"><ele>91.0</ele><time>2026-04-08T13:03:10.818Z</time></trkpt><trkpt lat="45.9160367" lon="13.6850887"><ele>93.0</ele><time>2026-04-08T13:03:11.813Z</time></trkpt><trkpt lat="45.9161386" lon="13.6854415"><ele>95.0</ele><time>2026-04-08T13:03:12.811Z</time></trkpt><trkpt lat="45.9162456" lon="13.6857943"><ele>89.0</ele><time>2026-04-08T13:03:13.8Z</time></trkpt><trkpt lat="45.9164583" lon="13.686494"><ele>89.0</ele><time>2026-04-08T13:03:15.823Z</time></trkpt><trkpt lat="45.9165619" lon="13.6868452"><ele>89.0</ele><time>2026-04-08T13:03:16.815Z</time></trkpt><trkpt lat="45.9166641" lon="13.6871899"><ele>93.0</ele><time>2026-04-08T13:03:17.816Z</time></trkpt><trkpt lat="45.9167683" lon="13.6875336"><ele>97.0</ele><time>2026-04-08T13:03:18.815Z</time></trkpt><trkpt lat="45.9169632" lon="13.6882163"><ele>95.0</ele><time>2026-04-08T13:03:20.816Z</time></trkpt><trkpt lat="45.917136" lon="13.6888671"><ele>95.0</ele><time>2026-04-08T13:03:22.811Z</time></trkpt><trkpt lat="45.9172165" lon="13.6891875"><ele>95.0</ele><time>2026-04-08T13:03:23.802Z</time></trkpt><trkpt lat="45.9173635" lon="13.6898239"><ele>94.5</ele><time>2026-04-08T13:03:25.806Z</time></trkpt><trkpt lat="45.9174299" lon="13.6901395"><ele>94.0</ele><time>2026-04-08T13:03:26.848Z</time></trkpt><trkpt lat="45.9174937" lon="13.6904593"><ele>94.0</ele><time>2026-04-08T13:03:27.82Z</time></trkpt><trkpt lat="45.917554" lon="13.6907794"><ele>94.0</ele><time>2026-04-08T13:03:28.793Z</time></trkpt><trkpt lat="45.9176112" lon="13.6911071"><ele>97.5</ele><time>2026-04-08T13:03:29.806Z</time></trkpt><trkpt lat="45.9176722" lon="13.6914339"><ele>101.0</ele><time>2026-04-08T13:03:30.805Z</time></trkpt><trkpt lat="45.9177403" lon="13.6917708"><ele>98.5</ele><time>2026-04-08T13:03:31.802Z</time></trkpt><trkpt lat="45.9178014" lon="13.6921216"><ele>96.0</ele><time>2026-04-08T13:03:32.822Z</time></trkpt><trkpt lat="45.9178528" lon="13.69249"><ele>93.0</ele><time>2026-04-08T13:03:33.808Z</time></trkpt><trkpt lat="45.9178933" lon="13.692867"><ele>90.0</ele><time>2026-04-08T13:03:34.808Z</time></trkpt><trkpt lat="45.9179313" lon="13.6932472"><ele>87.0</ele><time>2026-04-08T13:03:35.809Z</time></trkpt><trkpt lat="45.9179686" lon="13.693632"><ele>84.0</ele><time>2026-04-08T13:03:36.798Z</time></trkpt><trkpt lat="45.9180017" lon="13.6940179"><ele>84.0</ele><time>2026-04-08T13:03:37.807Z</time></trkpt><trkpt lat="45.9180269" lon="13.6944061"><ele>84.0</ele><time>2026-04-08T13:03:38.8Z</time></trkpt><trkpt lat="45.9180496" lon="13.6947954"><ele>83.5</ele><time>2026-04-08T13:03:39.808Z</time></trkpt><trkpt lat="45.918061" lon="13.6951845"><ele>83.0</ele><time>2026-04-08T13:03:40.81Z</time></trkpt><trkpt lat="45.918067" lon="13.6955732"><ele>83.0</ele><time>2026-04-08T13:03:41.813Z</time></trkpt><trkpt lat="45.9180711" lon="13.6959567"><ele>83.0</ele><time>2026-04-08T13:03:42.81Z</time></trkpt><trkpt lat="45.918073" lon="13.6963484"><ele>84.5</ele><time>2026-04-08T13:03:43.806Z</time></trkpt><trkpt lat="45.9180743" lon="13.6967402"><ele>86.0</ele><time>2026-04-08T13:03:44.802Z</time></trkpt><trkpt lat="45.9180746" lon="13.6971337"><ele>86.0</ele><time>2026-04-08T13:03:45.801Z</time></trkpt><trkpt lat="45.9180747" lon="13.6975248"><ele>86.0</ele><time>2026-04-08T13:03:46.803Z</time></trkpt><trkpt lat="45.9180778" lon="13.6979127"><ele>86.0</ele><time>2026-04-08T13:03:47.803Z</time></trkpt><trkpt lat="45.9180813" lon="13.6982997"><ele>86.0</ele><time>2026-04-08T13:03:48.796Z</time></trkpt><trkpt lat="45.9180857" lon="13.6986846"><ele>86.0</ele><time>2026-04-08T13:03:49.798Z</time></trkpt><trkpt lat="45.9180868" lon="13.6990743"><ele>86.0</ele><time>2026-04-08T13:03:50.793Z</time></trkpt><trkpt lat="45.9180864" lon="13.6994635"><ele>85.5</ele><time>2026-04-08T13:03:51.792Z</time></trkpt><trkpt lat="45.9180852" lon="13.6998534"><ele>85.0</ele><time>2026-04-08T13:03:52.806Z</time></trkpt><trkpt lat="45.9180842" lon="13.7002457"><ele>84.0</ele><time>2026-04-08T13:03:53.823Z</time></trkpt><trkpt lat="45.9180822" lon="13.7006384"><ele>83.0</ele><time>2026-04-08T13:03:54.814Z</time></trkpt><trkpt lat="45.9180863" lon="13.7010353"><ele>76.0</ele><time>2026-04-08T13:03:55.812Z</time></trkpt><trkpt lat="45.9180887" lon="13.7014261"><ele>69.0</ele><time>2026-04-08T13:03:56.806Z</time></trkpt><trkpt lat="45.9180918" lon="13.7018146"><ele>65.5</ele><time>2026-04-08T13:03:57.811Z</time></trkpt><trkpt lat="45.9180949" lon="13.7022029"><ele>62.0</ele><time>2026-04-08T13:03:58.838Z</time></trkpt><trkpt lat="45.9180999" lon="13.7029831"><ele>60.0</ele><time>2026-04-08T13:04:00.808Z</time></trkpt><trkpt lat="45.9181032" lon="13.7037651"><ele>60.0</ele><time>2026-04-08T13:04:02.804Z</time></trkpt><trkpt lat="45.918103" lon="13.7041743"><ele>60.0</ele><time>2026-04-08T13:04:03.821Z</time></trkpt><trkpt lat="45.9181019" lon="13.7045792"><ele>59.5</ele><time>2026-04-08T13:04:04.829Z</time></trkpt><trkpt lat="45.9181007" lon="13.7049834"><ele>59.0</ele><time>2026-04-08T13:04:05.808Z</time></trkpt><trkpt lat="45.9180974" lon="13.7053813"><ele>60.5</ele><time>2026-04-08T13:04:06.812Z</time></trkpt><trkpt lat="45.9180953" lon="13.7057756"><ele>62.0</ele><time>2026-04-08T13:04:07.84Z</time></trkpt><trkpt lat="45.9180938" lon="13.7061643"><ele>67.5</ele><time>2026-04-08T13:04:08.822Z</time></trkpt><trkpt lat="45.9180971" lon="13.7065463"><ele>73.0</ele><time>2026-04-08T13:04:09.808Z</time></trkpt><trkpt lat="45.9180994" lon="13.7069296"><ele>76.5</ele><time>2026-04-08T13:04:10.815Z</time></trkpt><trkpt lat="45.9181007" lon="13.7073102"><ele>80.0</ele><time>2026-04-08T13:04:11.798Z</time></trkpt><trkpt lat="45.918105" lon="13.7076958"><ele>80.5</ele><time>2026-04-08T13:04:12.809Z</time></trkpt><trkpt lat="45.9181087" lon="13.7080804"><ele>81.0</ele><time>2026-04-08T13:04:13.82Z</time></trkpt><trkpt lat="45.9181119" lon="13.7084637"><ele>79.0</ele><time>2026-04-08T13:04:14.814Z</time></trkpt><trkpt lat="45.9181165" lon="13.7088507"><ele>77.0</ele><time>2026-04-08T13:04:15.797Z</time></trkpt><trkpt lat="45.9181189" lon="13.7092366"><ele>76.5</ele><time>2026-04-08T13:04:16.813Z</time></trkpt><trkpt lat="45.9181238" lon="13.709626"><ele>76.0</ele><time>2026-04-08T13:04:17.819Z</time></trkpt><trkpt lat="45.9181248" lon="13.7100147"><ele>78.0</ele><time>2026-04-08T13:04:18.798Z</time></trkpt><trkpt lat="45.9181265" lon="13.7104037"><ele>80.0</ele><time>2026-04-08T13:04:19.796Z</time></trkpt><trkpt lat="45.9181295" lon="13.7107961"><ele>82.0</ele><time>2026-04-08T13:04:20.797Z</time></trkpt><trkpt lat="45.918134" lon="13.7111833"><ele>84.0</ele><time>2026-04-08T13:04:21.8Z</time></trkpt><trkpt lat="45.9181338" lon="13.7115666"><ele>84.5</ele><time>2026-04-08T13:04:22.836Z</time></trkpt><trkpt lat="45.9181322" lon="13.7119474"><ele>85.0</ele><time>2026-04-08T13:04:23.814Z</time></trkpt><trkpt lat="45.9181299" lon="13.7123281"><ele>85.0</ele><time>2026-04-08T13:04:24.811Z</time></trkpt><trkpt lat="45.918128" lon="13.7127052"><ele>85.0</ele><time>2026-04-08T13:04:25.821Z</time></trkpt><trkpt lat="45.9181269" lon="13.7130789"><ele>84.5</ele><time>2026-04-08T13:04:26.801Z</time></trkpt><trkpt lat="45.9181212" lon="13.7134589"><ele>84.0</ele><time>2026-04-08T13:04:27.805Z</time></trkpt><trkpt lat="45.9181129" lon="13.7138386"><ele>85.5</ele><time>2026-04-08T13:04:28.83Z</time></trkpt><trkpt lat="45.9181014" lon="13.7142161"><ele>87.0</ele><time>2026-04-08T13:04:29.818Z</time></trkpt><trkpt lat="45.9180866" lon="13.7145921"><ele>87.0</ele><time>2026-04-08T13:04:30.813Z</time></trkpt><trkpt lat="45.9180686" lon="13.7149699"><ele>87.0</ele><time>2026-04-08T13:04:31.817Z</time></trkpt><trkpt lat="45.9180512" lon="13.7153522"><ele>90.0</ele><time>2026-04-08T13:04:32.816Z</time></trkpt><trkpt lat="45.9180312" lon="13.7157356"><ele>93.0</ele><time>2026-04-08T13:04:33.82Z</time></trkpt><trkpt lat="45.9180093" lon="13.716118"><ele>93.0</ele><time>2026-04-08T13:04:34.825Z</time></trkpt><trkpt lat="45.917981" lon="13.7164991"><ele>93.0</ele><time>2026-04-08T13:04:35.818Z</time></trkpt><trkpt lat="45.9179495" lon="13.7168781"><ele>93.0</ele><time>2026-04-08T13:04:36.822Z</time></trkpt><trkpt lat="45.9179121" lon="13.7172552"><ele>93.0</ele><time>2026-04-08T13:04:37.81Z</time></trkpt><trkpt lat="45.9178676" lon="13.7176328"><ele>93.0</ele><time>2026-04-08T13:04:38.828Z</time></trkpt><trkpt lat="45.9178245" lon="13.7180111"><ele>93.0</ele><time>2026-04-08T13:04:39.812Z</time></trkpt><trkpt lat="45.9177755" lon="13.7183905"><ele>94.5</ele><time>2026-04-08T13:04:40.815Z</time></trkpt><trkpt lat="45.9177222" lon="13.7187687"><ele>96.0</ele><time>2026-04-08T13:04:41.817Z</time></trkpt><trkpt lat="45.9176687" lon="13.7191443"><ele>92.0</ele><time>2026-04-08T13:04:42.823Z</time></trkpt><trkpt lat="45.9175493" lon="13.7198952"><ele>91.5</ele><time>2026-04-08T13:04:44.815Z</time></trkpt><trkpt lat="45.9174847" lon="13.7202707"><ele>91.0</ele><time>2026-04-08T13:04:45.819Z</time></trkpt><trkpt lat="45.9174172" lon="13.7206388"><ele>91.0</ele><time>2026-04-08T13:04:46.819Z</time></trkpt><trkpt lat="45.9173436" lon="13.7210117"><ele>91.0</ele><time>2026-04-08T13:04:47.833Z</time></trkpt><trkpt lat="45.9172692" lon="13.7213809"><ele>92.0</ele><time>2026-04-08T13:04:48.849Z</time></trkpt><trkpt lat="45.9171958" lon="13.7217448"><ele>93.0</ele><time>2026-04-08T13:04:49.833Z</time></trkpt><trkpt lat="45.9171195" lon="13.7221079"><ele>93.0</ele><time>2026-04-08T13:04:50.822Z</time></trkpt><trkpt lat="45.9170404" lon="13.7224717"><ele>93.0</ele><time>2026-04-08T13:04:51.818Z</time></trkpt><trkpt lat="45.9169577" lon="13.7228275"><ele>92.0</ele><time>2026-04-08T13:04:52.817Z</time></trkpt><trkpt lat="45.9167797" lon="13.7235308"><ele>94.0</ele><time>2026-04-08T13:04:54.811Z</time></trkpt><trkpt lat="45.9166852" lon="13.7238829"><ele>96.0</ele><time>2026-04-08T13:04:55.802Z</time></trkpt><trkpt lat="45.9165867" lon="13.7242283"><ele>97.0</ele><time>2026-04-08T13:04:56.815Z</time></trkpt><trkpt lat="45.9164864" lon="13.7245742"><ele>98.0</ele><time>2026-04-08T13:04:57.813Z</time></trkpt><trkpt lat="45.9163857" lon="13.7249229"><ele>101.0</ele><time>2026-04-08T13:04:58.798Z</time></trkpt><trkpt lat="45.9161799" lon="13.7256127"><ele>101.0</ele><time>2026-04-08T13:05:00.8Z</time></trkpt><trkpt lat="45.9160675" lon="13.7259588"><ele>101.0</ele><time>2026-04-08T13:05:01.822Z</time></trkpt><trkpt lat="45.9159519" lon="13.7263055"><ele>100.5</ele><time>2026-04-08T13:05:02.802Z</time></trkpt><trkpt lat="45.9158309" lon="13.7266521"><ele>100.0</ele><time>2026-04-08T13:05:03.895Z</time></trkpt><trkpt lat="45.9157073" lon="13.7269975"><ele>100.0</ele><time>2026-04-08T13:05:04.824Z</time></trkpt><trkpt lat="45.9154482" lon="13.727678"><ele>102.0</ele><time>2026-04-08T13:05:06.807Z</time></trkpt><trkpt lat="45.9151707" lon="13.7283584"><ele>101.0</ele><time>2026-04-08T13:05:08.822Z</time></trkpt><trkpt lat="45.9150276" lon="13.7286998"><ele>100.0</ele><time>2026-04-08T13:05:09.809Z</time></trkpt><trkpt lat="45.9148806" lon="13.7290332"><ele>100.0</ele><time>2026-04-08T13:05:10.865Z</time></trkpt><trkpt lat="45.9147375" lon="13.729367"><ele>100.0</ele><time>2026-04-08T13:05:11.825Z</time></trkpt><trkpt lat="45.9145885" lon="13.7297012"><ele>99.5</ele><time>2026-04-08T13:05:12.824Z</time></trkpt><trkpt lat="45.9144377" lon="13.7300305"><ele>99.0</ele><time>2026-04-08T13:05:13.82Z</time></trkpt><trkpt lat="45.9142849" lon="13.7303584"><ele>103.5</ele><time>2026-04-08T13:05:14.806Z</time></trkpt><trkpt lat="45.9141277" lon="13.730689"><ele>108.0</ele><time>2026-04-08T13:05:15.819Z</time></trkpt><trkpt lat="45.9139694" lon="13.731025"><ele>108.0</ele><time>2026-04-08T13:05:16.822Z</time></trkpt><trkpt lat="45.9138059" lon="13.7313596"><ele>108.0</ele><time>2026-04-08T13:05:17.82Z</time></trkpt><trkpt lat="45.9136453" lon="13.7316939"><ele>108.5</ele><time>2026-04-08T13:05:18.824Z</time></trkpt><trkpt lat="45.9134772" lon="13.732027"><ele>109.0</ele><time>2026-04-08T13:05:19.827Z</time></trkpt><trkpt lat="45.9133124" lon="13.7323616"><ele>109.0</ele><time>2026-04-08T13:05:20.813Z</time></trkpt><trkpt lat="45.9131511" lon="13.7326971"><ele>109.0</ele><time>2026-04-08T13:05:21.809Z</time></trkpt><trkpt lat="45.9129928" lon="13.7330375"><ele>109.0</ele><time>2026-04-08T13:05:22.804Z</time></trkpt><trkpt lat="45.9128345" lon="13.7333754"><ele>109.0</ele><time>2026-04-08T13:05:23.812Z</time></trkpt><trkpt lat="45.9126742" lon="13.7337143"><ele>108.5</ele><time>2026-04-08T13:05:24.815Z</time></trkpt><trkpt lat="45.9125145" lon="13.7340482"><ele>108.0</ele><time>2026-04-08T13:05:25.819Z</time></trkpt><trkpt lat="45.9123508" lon="13.7343741"><ele>109.0</ele><time>2026-04-08T13:05:26.818Z</time></trkpt><trkpt lat="45.9121959" lon="13.7347108"><ele>110.0</ele><time>2026-04-08T13:05:27.802Z</time></trkpt><trkpt lat="45.9120431" lon="13.7350483"><ele>115.0</ele><time>2026-04-08T13:05:28.832Z</time></trkpt><trkpt lat="45.9118916" lon="13.7353935"><ele>120.0</ele><time>2026-04-08T13:05:29.819Z</time></trkpt><trkpt lat="45.911746" lon="13.7357394"><ele>119.0</ele><time>2026-04-08T13:05:30.815Z</time></trkpt><trkpt lat="45.9114616" lon="13.7364409"><ele>119.0</ele><time>2026-04-08T13:05:32.8Z</time></trkpt><trkpt lat="45.9113355" lon="13.7368018"><ele>119.0</ele><time>2026-04-08T13:05:33.822Z</time></trkpt><trkpt lat="45.9112084" lon="13.7371669"><ele>117.5</ele><time>2026-04-08T13:05:34.808Z</time></trkpt><trkpt lat="45.9110822" lon="13.7375366"><ele>116.0</ele><time>2026-04-08T13:05:35.826Z</time></trkpt><trkpt lat="45.9109599" lon="13.7379114"><ele>113.5</ele><time>2026-04-08T13:05:36.82Z</time></trkpt><trkpt lat="45.9108424" lon="13.7382866"><ele>111.0</ele><time>2026-04-08T13:05:37.832Z</time></trkpt><trkpt lat="45.9107244" lon="13.7386654"><ele>110.5</ele><time>2026-04-08T13:05:38.802Z</time></trkpt><trkpt lat="45.910612" lon="13.7390467"><ele>110.0</ele><time>2026-04-08T13:05:39.814Z</time></trkpt><trkpt lat="45.9104993" lon="13.7394262"><ele>108.0</ele><time>2026-04-08T13:05:40.811Z</time></trkpt><trkpt lat="45.9103902" lon="13.7398057"><ele>106.0</ele><time>2026-04-08T13:05:41.824Z</time></trkpt><trkpt lat="45.9102855" lon="13.7401873"><ele>105.0</ele><time>2026-04-08T13:05:42.836Z</time></trkpt><trkpt lat="45.9101813" lon="13.7405659"><ele>104.0</ele><time>2026-04-08T13:05:43.807Z</time></trkpt><trkpt lat="45.9100801" lon="13.7409467"><ele>102.5</ele><time>2026-04-08T13:05:44.82Z</time></trkpt><trkpt lat="45.9099747" lon="13.7413285"><ele>101.0</ele><time>2026-04-08T13:05:45.814Z</time></trkpt><trkpt lat="45.9098679" lon="13.7417059"><ele>100.0</ele><time>2026-04-08T13:05:46.828Z</time></trkpt><trkpt lat="45.9097644" lon="13.7420857"><ele>99.0</ele><time>2026-04-08T13:05:47.818Z</time></trkpt><trkpt lat="45.9096613" lon="13.7424618"><ele>104.5</ele><time>2026-04-08T13:05:48.822Z</time></trkpt><trkpt lat="45.9095581" lon="13.7428353"><ele>110.0</ele><time>2026-04-08T13:05:49.822Z</time></trkpt><trkpt lat="45.9094596" lon="13.7432048"><ele>108.0</ele><time>2026-04-08T13:05:50.821Z</time></trkpt><trkpt lat="45.9093494" lon="13.7435672"><ele>106.0</ele><time>2026-04-08T13:05:51.819Z</time></trkpt><trkpt lat="45.9092254" lon="13.7439171"><ele>106.0</ele><time>2026-04-08T13:05:52.808Z</time></trkpt><trkpt lat="45.9091015" lon="13.7442665"><ele>106.0</ele><time>2026-04-08T13:05:53.832Z</time></trkpt><trkpt lat="45.9089848" lon="13.7446215"><ele>106.0</ele><time>2026-04-08T13:05:54.833Z</time></trkpt><trkpt lat="45.9088722" lon="13.7449805"><ele>106.0</ele><time>2026-04-08T13:05:55.807Z</time></trkpt><trkpt lat="45.9087517" lon="13.7453317"><ele>106.0</ele><time>2026-04-08T13:05:56.819Z</time></trkpt><trkpt lat="45.9086255" lon="13.7456844"><ele>106.0</ele><time>2026-04-08T13:05:57.841Z</time></trkpt><trkpt lat="45.9085003" lon="13.746031"><ele>103.5</ele><time>2026-04-08T13:05:58.821Z</time></trkpt><trkpt lat="45.9083718" lon="13.746374"><ele>101.0</ele><time>2026-04-08T13:05:59.826Z</time></trkpt><trkpt lat="45.908233" lon="13.7467182"><ele>99.5</ele><time>2026-04-08T13:06:00.83Z</time></trkpt><trkpt lat="45.9080982" lon="13.7470551"><ele>98.0</ele><time>2026-04-08T13:06:01.821Z</time></trkpt><trkpt lat="45.9079591" lon="13.7473971"><ele>98.0</ele><time>2026-04-08T13:06:02.81Z</time></trkpt><trkpt lat="45.9078169" lon="13.7477375"><ele>98.0</ele><time>2026-04-08T13:06:03.823Z</time></trkpt><trkpt lat="45.9076713" lon="13.7480788"><ele>98.5</ele><time>2026-04-08T13:06:04.838Z</time></trkpt><trkpt lat="45.9075231" lon="13.748413"><ele>99.0</ele><time>2026-04-08T13:06:05.826Z</time></trkpt><trkpt lat="45.9073743" lon="13.7487457"><ele>100.5</ele><time>2026-04-08T13:06:06.818Z</time></trkpt><trkpt lat="45.9072195" lon="13.7490743"><ele>102.0</ele><time>2026-04-08T13:06:07.816Z</time></trkpt><trkpt lat="45.9070632" lon="13.7493943"><ele>103.5</ele><time>2026-04-08T13:06:08.828Z</time></trkpt><trkpt lat="45.9069056" lon="13.7497111"><ele>105.0</ele><time>2026-04-08T13:06:09.83Z</time></trkpt><trkpt lat="45.9067454" lon="13.750025"><ele>103.5</ele><time>2026-04-08T13:06:10.845Z</time></trkpt><trkpt lat="45.9065851" lon="13.7503321"><ele>102.0</ele><time>2026-04-08T13:06:11.832Z</time></trkpt><trkpt lat="45.9064229" lon="13.7506405"><ele>102.0</ele><time>2026-04-08T13:06:12.826Z</time></trkpt><trkpt lat="45.9062574" lon="13.7509407"><ele>102.0</ele><time>2026-04-08T13:06:13.818Z</time></trkpt><trkpt lat="45.9060892" lon="13.7512363"><ele>102.5</ele><time>2026-04-08T13:06:14.821Z</time></trkpt><trkpt lat="45.9059187" lon="13.7515301"><ele>103.0</ele><time>2026-04-08T13:06:15.807Z</time></trkpt><trkpt lat="45.9057412" lon="13.7518213"><ele>103.0</ele><time>2026-04-08T13:06:16.828Z</time></trkpt><trkpt lat="45.9055638" lon="13.7521122"><ele>103.0</ele><time>2026-04-08T13:06:17.825Z</time></trkpt><trkpt lat="45.9053861" lon="13.7524014"><ele>103.0</ele><time>2026-04-08T13:06:18.826Z</time></trkpt><trkpt lat="45.9052103" lon="13.7526941"><ele>103.0</ele><time>2026-04-08T13:06:19.818Z</time></trkpt><trkpt lat="45.9050341" lon="13.7529927"><ele>104.5</ele><time>2026-04-08T13:06:20.825Z</time></trkpt><trkpt lat="45.9048548" lon="13.7532903"><ele>106.0</ele><time>2026-04-08T13:06:21.818Z</time></trkpt><trkpt lat="45.9046775" lon="13.7535816"><ele>107.0</ele><time>2026-04-08T13:06:22.818Z</time></trkpt><trkpt lat="45.9045019" lon="13.7538772"><ele>108.0</ele><time>2026-04-08T13:06:23.818Z</time></trkpt><trkpt lat="45.9043272" lon="13.7541692"><ele>113.0</ele><time>2026-04-08T13:06:24.825Z</time></trkpt><trkpt lat="45.9039806" lon="13.7547605"><ele>116.0</ele><time>2026-04-08T13:06:26.824Z</time></trkpt><trkpt lat="45.9036396" lon="13.7553613"><ele>116.0</ele><time>2026-04-08T13:06:28.846Z</time></trkpt><trkpt lat="45.9034727" lon="13.7556664"><ele>116.0</ele><time>2026-04-08T13:06:29.827Z</time></trkpt><trkpt lat="45.9033071" lon="13.7559732"><ele>115.0</ele><time>2026-04-08T13:06:30.847Z</time></trkpt><trkpt lat="45.9031452" lon="13.7562805"><ele>114.0</ele><time>2026-04-08T13:06:31.816Z</time></trkpt><trkpt lat="45.9029875" lon="13.7565911"><ele>119.0</ele><time>2026-04-08T13:06:32.824Z</time></trkpt><trkpt lat="45.9026873" lon="13.757224"><ele>120.5</ele><time>2026-04-08T13:06:34.832Z</time></trkpt><trkpt lat="45.9025415" lon="13.7575425"><ele>122.0</ele><time>2026-04-08T13:06:35.836Z</time></trkpt><trkpt lat="45.9024016" lon="13.7578651"><ele>124.0</ele><time>2026-04-08T13:06:36.827Z</time></trkpt><trkpt lat="45.9022659" lon="13.7581917"><ele>126.0</ele><time>2026-04-08T13:06:37.828Z</time></trkpt><trkpt lat="45.9021349" lon="13.7585229"><ele>128.5</ele><time>2026-04-08T13:06:38.827Z</time></trkpt><trkpt lat="45.9020054" lon="13.7588524"><ele>131.0</ele><time>2026-04-08T13:06:39.816Z</time></trkpt><trkpt lat="45.9018867" lon="13.759184"><ele>131.5</ele><time>2026-04-08T13:06:40.814Z</time></trkpt><trkpt lat="45.9017737" lon="13.759518"><ele>132.0</ele><time>2026-04-08T13:06:41.817Z</time></trkpt><trkpt lat="45.9016593" lon="13.7598532"><ele>131.0</ele><time>2026-04-08T13:06:42.836Z</time></trkpt><trkpt lat="45.9015514" lon="13.7601908"><ele>130.0</ele><time>2026-04-08T13:06:43.835Z</time></trkpt><trkpt lat="45.9014467" lon="13.7605358"><ele>133.0</ele><time>2026-04-08T13:06:44.828Z</time></trkpt><trkpt lat="45.9012561" lon="13.7612503"><ele>133.0</ele><time>2026-04-08T13:06:46.835Z</time></trkpt><trkpt lat="45.9011675" lon="13.7616157"><ele>133.0</ele><time>2026-04-08T13:06:47.821Z</time></trkpt><trkpt lat="45.9010815" lon="13.7619835"><ele>130.0</ele><time>2026-04-08T13:06:48.829Z</time></trkpt><trkpt lat="45.9009291" lon="13.7627287"><ele>127.5</ele><time>2026-04-08T13:06:50.836Z</time></trkpt><trkpt lat="45.9008616" lon="13.7631024"><ele>125.0</ele><time>2026-04-08T13:06:51.812Z</time></trkpt><trkpt lat="45.9007904" lon="13.7634805"><ele>124.0</ele><time>2026-04-08T13:06:52.821Z</time></trkpt><trkpt lat="45.9006677" lon="13.7642536"><ele>123.5</ele><time>2026-04-08T13:06:54.833Z</time></trkpt><trkpt lat="45.9006133" lon="13.7646472"><ele>123.0</ele><time>2026-04-08T13:06:55.832Z</time></trkpt><trkpt lat="45.9005615" lon="13.7650415"><ele>122.0</ele><time>2026-04-08T13:06:56.887Z</time></trkpt><trkpt lat="45.9005153" lon="13.7654329"><ele>121.0</ele><time>2026-04-08T13:06:57.831Z</time></trkpt><trkpt lat="45.9004679" lon="13.7658266"><ele>120.5</ele><time>2026-04-08T13:06:58.808Z</time></trkpt><trkpt lat="45.9004226" lon="13.7662222"><ele>120.0</ele><time>2026-04-08T13:06:59.862Z</time></trkpt><trkpt lat="45.9003789" lon="13.7666154"><ele>120.0</ele><time>2026-04-08T13:07:00.83Z</time></trkpt><trkpt lat="45.9003359" lon="13.7670031"><ele>120.0</ele><time>2026-04-08T13:07:01.81Z</time></trkpt><trkpt lat="45.9002998" lon="13.7673896"><ele>120.0</ele><time>2026-04-08T13:07:02.829Z</time></trkpt><trkpt lat="45.90026" lon="13.7677744"><ele>120.0</ele><time>2026-04-08T13:07:03.826Z</time></trkpt><trkpt lat="45.9001845" lon="13.7685409"><ele>120.0</ele><time>2026-04-08T13:07:05.826Z</time></trkpt><trkpt lat="45.900148" lon="13.7689177"><ele>120.0</ele><time>2026-04-08T13:07:06.819Z</time></trkpt><trkpt lat="45.900111" lon="13.7692922"><ele>114.0</ele><time>2026-04-08T13:07:07.821Z</time></trkpt><trkpt lat="45.9000738" lon="13.7696688"><ele>108.0</ele><time>2026-04-08T13:07:08.83Z</time></trkpt><trkpt lat="45.9000291" lon="13.7700453"><ele>108.0</ele><time>2026-04-08T13:07:09.814Z</time></trkpt><trkpt lat="45.8998946" lon="13.7711667"><ele>107.0</ele><time>2026-04-08T13:07:12.819Z</time></trkpt><trkpt lat="45.8997919" lon="13.7719108"><ele>107.0</ele><time>2026-04-08T13:07:14.83Z</time></trkpt><trkpt lat="45.8997365" lon="13.772279"><ele>107.0</ele><time>2026-04-08T13:07:15.806Z</time></trkpt><trkpt lat="45.8996824" lon="13.7726465"><ele>107.0</ele><time>2026-04-08T13:07:16.827Z</time></trkpt><trkpt lat="45.8996272" lon="13.7730144"><ele>107.0</ele><time>2026-04-08T13:07:17.821Z</time></trkpt><trkpt lat="45.8995105" lon="13.7737427"><ele>107.0</ele><time>2026-04-08T13:07:19.866Z</time></trkpt><trkpt lat="45.8994502" lon="13.7741048"><ele>107.0</ele><time>2026-04-08T13:07:20.839Z</time></trkpt><trkpt lat="45.8993894" lon="13.7744637"><ele>108.5</ele><time>2026-04-08T13:07:21.847Z</time></trkpt><trkpt lat="45.899327" lon="13.7748142"><ele>110.0</ele><time>2026-04-08T13:07:22.832Z</time></trkpt><trkpt lat="45.8991996" lon="13.7755071"><ele>113.5</ele><time>2026-04-08T13:07:24.831Z</time></trkpt><trkpt lat="45.8991356" lon="13.7758521"><ele>117.0</ele><time>2026-04-08T13:07:25.814Z</time></trkpt><trkpt lat="45.8990638" lon="13.7761977"><ele>119.5</ele><time>2026-04-08T13:07:26.813Z</time></trkpt><trkpt lat="45.8989921" lon="13.776537"><ele>122.0</ele><time>2026-04-08T13:07:27.825Z</time></trkpt><trkpt lat="45.8989165" lon="13.776878"><ele>122.5</ele><time>2026-04-08T13:07:28.83Z</time></trkpt><trkpt lat="45.8988373" lon="13.7772246"><ele>123.0</ele><time>2026-04-08T13:07:29.815Z</time></trkpt><trkpt lat="45.8987557" lon="13.7775741"><ele>124.5</ele><time>2026-04-08T13:07:30.847Z</time></trkpt><trkpt lat="45.8986724" lon="13.7779245"><ele>126.0</ele><time>2026-04-08T13:07:31.832Z</time></trkpt><trkpt lat="45.8985894" lon="13.778277"><ele>130.0</ele><time>2026-04-08T13:07:32.826Z</time></trkpt><trkpt lat="45.8985058" lon="13.7786313"><ele>134.0</ele><time>2026-04-08T13:07:33.833Z</time></trkpt><trkpt lat="45.8984218" lon="13.7789854"><ele>133.5</ele><time>2026-04-08T13:07:34.835Z</time></trkpt><trkpt lat="45.8983382" lon="13.7793358"><ele>133.0</ele><time>2026-04-08T13:07:35.836Z</time></trkpt><trkpt lat="45.8982531" lon="13.779687"><ele>135.0</ele><time>2026-04-08T13:07:36.815Z</time></trkpt><trkpt lat="45.8981595" lon="13.780034"><ele>137.0</ele><time>2026-04-08T13:07:37.827Z</time></trkpt><trkpt lat="45.8980659" lon="13.7803753"><ele>137.0</ele><time>2026-04-08T13:07:38.817Z</time></trkpt><trkpt lat="45.8979705" lon="13.7807161"><ele>137.0</ele><time>2026-04-08T13:07:39.82Z</time></trkpt><trkpt lat="45.8978747" lon="13.7810588"><ele>137.0</ele><time>2026-04-08T13:07:40.817Z</time></trkpt><trkpt lat="45.8977747" lon="13.7814028"><ele>137.0</ele><time>2026-04-08T13:07:41.817Z</time></trkpt><trkpt lat="45.8975684" lon="13.7820792"><ele>135.5</ele><time>2026-04-08T13:07:43.822Z</time></trkpt><trkpt lat="45.8974624" lon="13.7824141"><ele>134.0</ele><time>2026-04-08T13:07:44.818Z</time></trkpt><trkpt lat="45.8972472" lon="13.7830909"><ele>134.0</ele><time>2026-04-08T13:07:46.827Z</time></trkpt><trkpt lat="45.8971403" lon="13.7834264"><ele>134.0</ele><time>2026-04-08T13:07:47.806Z</time></trkpt><trkpt lat="45.8970339" lon="13.7837617"><ele>135.5</ele><time>2026-04-08T13:07:48.812Z</time></trkpt><trkpt lat="45.8969253" lon="13.7840988"><ele>137.0</ele><time>2026-04-08T13:07:49.825Z</time></trkpt><trkpt lat="45.8968141" lon="13.7844302"><ele>135.0</ele><time>2026-04-08T13:07:50.819Z</time></trkpt><trkpt lat="45.8966947" lon="13.7847651"><ele>133.0</ele><time>2026-04-08T13:07:51.824Z</time></trkpt><trkpt lat="45.8965723" lon="13.7850966"><ele>134.5</ele><time>2026-04-08T13:07:52.849Z</time></trkpt><trkpt lat="45.8964547" lon="13.7854286"><ele>136.0</ele><time>2026-04-08T13:07:53.811Z</time></trkpt><trkpt lat="45.8963352" lon="13.7857597"><ele>136.5</ele><time>2026-04-08T13:07:54.826Z</time></trkpt><trkpt lat="45.8962162" lon="13.7860884"><ele>137.0</ele><time>2026-04-08T13:07:55.81Z</time></trkpt><trkpt lat="45.8961" lon="13.7864134"><ele>137.0</ele><time>2026-04-08T13:07:56.805Z</time></trkpt><trkpt lat="45.895982" lon="13.7867351"><ele>137.0</ele><time>2026-04-08T13:07:57.839Z</time></trkpt><trkpt lat="45.8958649" lon="13.7870587"><ele>137.5</ele><time>2026-04-08T13:07:58.819Z</time></trkpt><trkpt lat="45.8957454" lon="13.7873819"><ele>138.0</ele><time>2026-04-08T13:07:59.818Z</time></trkpt><trkpt lat="45.8956308" lon="13.7876967"><ele>138.0</ele><time>2026-04-08T13:08:00.833Z</time></trkpt><trkpt lat="45.8955166" lon="13.7880135"><ele>138.0</ele><time>2026-04-08T13:08:01.835Z</time></trkpt><trkpt lat="45.8954028" lon="13.7883311"><ele>138.5</ele><time>2026-04-08T13:08:02.835Z</time></trkpt><trkpt lat="45.8952947" lon="13.7886356"><ele>139.0</ele><time>2026-04-08T13:08:03.823Z</time></trkpt><trkpt lat="45.8951932" lon="13.7889151"><ele>139.0</ele><time>2026-04-08T13:08:04.819Z</time></trkpt><trkpt lat="45.8951051" lon="13.7891692"><ele>139.0</ele><time>2026-04-08T13:08:05.827Z</time></trkpt><trkpt lat="45.8950201" lon="13.789377"><ele>139.0</ele><time>2026-04-08T13:08:06.834Z</time></trkpt><trkpt lat="45.8949379" lon="13.7895439"><ele>139.0</ele><time>2026-04-08T13:08:07.822Z</time></trkpt><trkpt lat="45.8948338" lon="13.789677"><ele>139.0</ele><time>2026-04-08T13:08:08.824Z</time></trkpt><trkpt lat="45.8947177" lon="13.7897549"><ele>139.0</ele><time>2026-04-08T13:08:09.832Z</time></trkpt><trkpt lat="45.8945912" lon="13.7897701"><ele>139.0</ele><time>2026-04-08T13:08:10.819Z</time></trkpt><trkpt lat="45.8944859" lon="13.7897359"><ele>139.0</ele><time>2026-04-08T13:08:11.813Z</time></trkpt><trkpt lat="45.8944081" lon="13.7896913"><ele>139.0</ele><time>2026-04-08T13:08:12.842Z</time></trkpt><trkpt lat="45.8943217" lon="13.7896426"><ele>139.0</ele><time>2026-04-08T13:08:14.828Z</time></trkpt><trkpt lat="45.8942582" lon="13.7895999"><ele>139.0</ele><time>2026-04-08T13:08:18.833Z</time></trkpt><trkpt lat="45.8941335" lon="13.7896653"><ele>139.0</ele><time>2026-04-08T13:08:20.83Z</time></trkpt><trkpt lat="45.8940543" lon="13.7897576"><ele>140.25</ele><time>2026-04-08T13:08:21.834Z</time></trkpt><trkpt lat="45.8939725" lon="13.7898612"><ele>141.5</ele><time>2026-04-08T13:08:22.84Z</time></trkpt><trkpt lat="45.8938737" lon="13.7899872"><ele>142.75</ele><time>2026-04-08T13:08:23.808Z</time></trkpt><trkpt lat="45.8937841" lon="13.7901343"><ele>144.0</ele><time>2026-04-08T13:08:24.822Z</time></trkpt><trkpt lat="45.8937058" lon="13.7902855"><ele>144.6</ele><time>2026-04-08T13:08:25.814Z</time></trkpt><trkpt lat="45.8936554" lon="13.7904251"><ele>145.2</ele><time>2026-04-08T13:08:26.829Z</time></trkpt><trkpt lat="45.8936263" lon="13.7905093"><ele>145.79999999999998</ele><time>2026-04-08T13:08:27.803Z</time></trkpt><trkpt lat="45.8935929" lon="13.7906196"><ele>146.4</ele><time>2026-04-08T13:08:30.825Z</time></trkpt><trkpt lat="45.8935712" lon="13.7907483"><ele>147.0</ele><time>2026-04-08T13:08:32.832Z</time></trkpt><trkpt lat="45.8935369" lon="13.7908869"><ele>146.75</ele><time>2026-04-08T13:08:33.82Z</time></trkpt><trkpt lat="45.8935137" lon="13.7910469"><ele>146.5</ele><time>2026-04-08T13:08:34.828Z</time></trkpt><trkpt lat="45.8934995" lon="13.791224"><ele>146.25</ele><time>2026-04-08T13:08:35.807Z</time></trkpt><trkpt lat="45.8934952" lon="13.7914209"><ele>146.0</ele><time>2026-04-08T13:08:36.845Z</time></trkpt><trkpt lat="45.8934937" lon="13.7916298"><ele>145.0</ele><time>2026-04-08T13:08:37.815Z</time></trkpt><trkpt lat="45.8934895" lon="13.7918451"><ele>144.0</ele><time>2026-04-08T13:08:38.808Z</time></trkpt><trkpt lat="45.8934876" lon="13.792074"><ele>143.0</ele><time>2026-04-08T13:08:39.82Z</time></trkpt><trkpt lat="45.8934831" lon="13.7923131"><ele>143.0</ele><time>2026-04-08T13:08:40.809Z</time></trkpt><trkpt lat="45.8934844" lon="13.7925718"><ele>143.0</ele><time>2026-04-08T13:08:41.82Z</time></trkpt><trkpt lat="45.893481" lon="13.792843"><ele>143.0</ele><time>2026-04-08T13:08:42.828Z</time></trkpt><trkpt lat="45.8934762" lon="13.7931064"><ele>143.66666666666666</ele><time>2026-04-08T13:08:43.825Z</time></trkpt><trkpt lat="45.8934673" lon="13.7933715"><ele>144.33333333333334</ele><time>2026-04-08T13:08:44.843Z</time></trkpt><trkpt lat="45.8934601" lon="13.7936446"><ele>145.0</ele><time>2026-04-08T13:08:45.821Z</time></trkpt><trkpt lat="45.8934554" lon="13.7939343"><ele>145.0</ele><time>2026-04-08T13:08:46.814Z</time></trkpt><trkpt lat="45.8934515" lon="13.7942272"><ele>145.0</ele><time>2026-04-08T13:08:47.825Z</time></trkpt><trkpt lat="45.8934394" lon="13.7945283"><ele>145.0</ele><time>2026-04-08T13:08:48.813Z</time></trkpt><trkpt lat="45.8934044" lon="13.7948383"><ele>145.0</ele><time>2026-04-08T13:08:49.822Z</time></trkpt><trkpt lat="45.8933379" lon="13.7951458"><ele>145.0</ele><time>2026-04-08T13:08:50.818Z</time></trkpt><trkpt lat="45.8932385" lon="13.7954572"><ele>144.0</ele><time>2026-04-08T13:08:51.821Z</time></trkpt><trkpt lat="45.8931163" lon="13.7957602"><ele>143.0</ele><time>2026-04-08T13:08:52.825Z</time></trkpt><trkpt lat="45.8929795" lon="13.7960534"><ele>143.0</ele><time>2026-04-08T13:08:53.807Z</time></trkpt><trkpt lat="45.8928492" lon="13.7963375"><ele>143.0</ele><time>2026-04-08T13:08:54.805Z</time></trkpt><trkpt lat="45.892738" lon="13.7966195"><ele>142.0</ele><time>2026-04-08T13:08:55.813Z</time></trkpt><trkpt lat="45.892642" lon="13.796904"><ele>141.0</ele><time>2026-04-08T13:08:56.817Z</time></trkpt><trkpt lat="45.8925831" lon="13.7972004"><ele>140.0</ele><time>2026-04-08T13:08:57.819Z</time></trkpt><trkpt lat="45.8925719" lon="13.797487"><ele>138.66666666666666</ele><time>2026-04-08T13:08:58.815Z</time></trkpt><trkpt lat="45.8926017" lon="13.7977759"><ele>137.33333333333334</ele><time>2026-04-08T13:08:59.822Z</time></trkpt><trkpt lat="45.8926685" lon="13.7980652"><ele>136.0</ele><time>2026-04-08T13:09:00.844Z</time></trkpt><trkpt lat="45.8928824" lon="13.7985699"><ele>135.33333333333334</ele><time>2026-04-08T13:09:02.867Z</time></trkpt><trkpt lat="45.8930482" lon="13.798768"><ele>134.66666666666666</ele><time>2026-04-08T13:09:03.805Z</time></trkpt><trkpt lat="45.8932523" lon="13.7989064"><ele>134.0</ele><time>2026-04-08T13:09:04.818Z</time></trkpt><trkpt lat="45.8934696" lon="13.7989992"><ele>134.0</ele><time>2026-04-08T13:09:05.814Z</time></trkpt><trkpt lat="45.8936845" lon="13.7990532"><ele>134.0</ele><time>2026-04-08T13:09:06.821Z</time></trkpt><trkpt lat="45.8938866" lon="13.7991072"><ele>134.0</ele><time>2026-04-08T13:09:07.829Z</time></trkpt><trkpt lat="45.8940784" lon="13.7991656"><ele>133.66666666666666</ele><time>2026-04-08T13:09:08.808Z</time></trkpt><trkpt lat="45.894259" lon="13.7992253"><ele>133.33333333333334</ele><time>2026-04-08T13:09:09.812Z</time></trkpt><trkpt lat="45.8944289" lon="13.7992913"><ele>133.0</ele><time>2026-04-08T13:09:10.819Z</time></trkpt><trkpt lat="45.8945991" lon="13.7993579"><ele>133.0</ele><time>2026-04-08T13:09:11.821Z</time></trkpt><trkpt lat="45.8947685" lon="13.7994489"><ele>133.0</ele><time>2026-04-08T13:09:12.824Z</time></trkpt><trkpt lat="45.8949373" lon="13.7995694"><ele>133.0</ele><time>2026-04-08T13:09:13.815Z</time></trkpt><trkpt lat="45.8951062" lon="13.7997148"><ele>133.0</ele><time>2026-04-08T13:09:14.812Z</time></trkpt><trkpt lat="45.8952582" lon="13.7998946"><ele>133.0</ele><time>2026-04-08T13:09:15.818Z</time></trkpt><trkpt lat="45.895403" lon="13.8000941"><ele>133.0</ele><time>2026-04-08T13:09:16.825Z</time></trkpt><trkpt lat="45.8955319" lon="13.8003223"><ele>133.0</ele><time>2026-04-08T13:09:17.816Z</time></trkpt><trkpt lat="45.8956413" lon="13.8005729"><ele>133.0</ele><time>2026-04-08T13:09:18.812Z</time></trkpt><trkpt lat="45.8957335" lon="13.8008328"><ele>133.0</ele><time>2026-04-08T13:09:19.821Z</time></trkpt><trkpt lat="45.895816" lon="13.8010881"><ele>132.33333333333334</ele><time>2026-04-08T13:09:20.818Z</time></trkpt><trkpt lat="45.8958879" lon="13.801358"><ele>131.66666666666666</ele><time>2026-04-08T13:09:21.812Z</time></trkpt><trkpt lat="45.8959423" lon="13.8016413"><ele>131.0</ele><time>2026-04-08T13:09:22.819Z</time></trkpt><trkpt lat="45.8959757" lon="13.8019247"><ele>128.33333333333331</ele><time>2026-04-08T13:09:23.819Z</time></trkpt><trkpt lat="45.8959801" lon="13.8021892"><ele>125.66666666666666</ele><time>2026-04-08T13:09:24.818Z</time></trkpt><trkpt lat="45.8959429" lon="13.8024451"><ele>123.0</ele><time>2026-04-08T13:09:25.82Z</time></trkpt><trkpt lat="45.8958752" lon="13.8026846"><ele>120.66666666666666</ele><time>2026-04-08T13:09:26.813Z</time></trkpt><trkpt lat="45.8957743" lon="13.8029047"><ele>118.33333333333333</ele><time>2026-04-08T13:09:27.807Z</time></trkpt><trkpt lat="45.8956637" lon="13.8031114"><ele>116.0</ele><time>2026-04-08T13:09:28.827Z</time></trkpt><trkpt lat="45.8955621" lon="13.8033145"><ele>115.66666666666666</ele><time>2026-04-08T13:09:29.819Z</time></trkpt><trkpt lat="45.8954677" lon="13.8035165"><ele>115.33333333333334</ele><time>2026-04-08T13:09:30.802Z</time></trkpt><trkpt lat="45.8953691" lon="13.8037144"><ele>115.0</ele><time>2026-04-08T13:09:31.808Z</time></trkpt><trkpt lat="45.89527" lon="13.8039108"><ele>115.0</ele><time>2026-04-08T13:09:32.839Z</time></trkpt><trkpt lat="45.8951767" lon="13.8041112"><ele>115.0</ele><time>2026-04-08T13:09:33.828Z</time></trkpt><trkpt lat="45.8950807" lon="13.804308"><ele>115.0</ele><time>2026-04-08T13:09:34.832Z</time></trkpt><trkpt lat="45.8949863" lon="13.8045075"><ele>114.0</ele><time>2026-04-08T13:09:35.816Z</time></trkpt><trkpt lat="45.8948952" lon="13.8047151"><ele>113.0</ele><time>2026-04-08T13:09:36.849Z</time></trkpt><trkpt lat="45.8948014" lon="13.8049138"><ele>112.0</ele><time>2026-04-08T13:09:37.822Z</time></trkpt><trkpt lat="45.8947087" lon="13.8051153"><ele>112.33333333333334</ele><time>2026-04-08T13:09:38.826Z</time></trkpt><trkpt lat="45.8946173" lon="13.8053105"><ele>112.66666666666666</ele><time>2026-04-08T13:09:39.811Z</time></trkpt><trkpt lat="45.8945253" lon="13.8054998"><ele>113.0</ele><time>2026-04-08T13:09:40.829Z</time></trkpt><trkpt lat="45.8944319" lon="13.8056772"><ele>113.0</ele><time>2026-04-08T13:09:41.82Z</time></trkpt><trkpt lat="45.8943434" lon="13.805828"><ele>113.00000000000001</ele><time>2026-04-08T13:09:42.828Z</time></trkpt><trkpt lat="45.8942678" lon="13.805967"><ele>113.00000000000001</ele><time>2026-04-08T13:09:43.815Z</time></trkpt><trkpt lat="45.8942064" lon="13.8060599"><ele>113.0</ele><time>2026-04-08T13:09:44.833Z</time></trkpt><trkpt lat="45.8941506" lon="13.8061463"><ele>113.0</ele><time>2026-04-08T13:09:46.832Z</time></trkpt><trkpt lat="45.8940859" lon="13.8063263"><ele>113.5</ele><time>2026-04-08T13:11:19.818Z</time></trkpt><trkpt lat="45.8940293" lon="13.8064615"><ele>114.0</ele><time>2026-04-08T13:11:20.82Z</time></trkpt><trkpt lat="45.8939553" lon="13.8066292"><ele>114.5</ele><time>2026-04-08T13:11:21.811Z</time></trkpt><trkpt lat="45.8938699" lon="13.8068251"><ele>115.0</ele><time>2026-04-08T13:11:22.834Z</time></trkpt><trkpt lat="45.8937761" lon="13.8070363"><ele>116.0</ele><time>2026-04-08T13:11:23.821Z</time></trkpt><trkpt lat="45.8936741" lon="13.8072654"><ele>117.0</ele><time>2026-04-08T13:11:24.811Z</time></trkpt><trkpt lat="45.8935613" lon="13.8075123"><ele>118.0</ele><time>2026-04-08T13:11:25.818Z</time></trkpt><trkpt lat="45.8934455" lon="13.8077782"><ele>118.0</ele><time>2026-04-08T13:11:26.815Z</time></trkpt><trkpt lat="45.8933357" lon="13.8080317"><ele>118.0</ele><time>2026-04-08T13:11:27.833Z</time></trkpt><trkpt lat="45.8932344" lon="13.8082689"><ele>118.0</ele><time>2026-04-08T13:11:28.831Z</time></trkpt><trkpt lat="45.8931372" lon="13.8084948"><ele>118.66666666666667</ele><time>2026-04-08T13:11:29.813Z</time></trkpt><trkpt lat="45.8930448" lon="13.8087039"><ele>119.33333333333334</ele><time>2026-04-08T13:11:30.83Z</time></trkpt><trkpt lat="45.8929607" lon="13.8088971"><ele>120.0</ele><time>2026-04-08T13:11:31.828Z</time></trkpt><trkpt lat="45.892878" lon="13.8090812"><ele>120.0</ele><time>2026-04-08T13:11:32.814Z</time></trkpt><trkpt lat="45.8927984" lon="13.8092599"><ele>120.0</ele><time>2026-04-08T13:11:33.82Z</time></trkpt><trkpt lat="45.8927243" lon="13.8094276"><ele>120.0</ele><time>2026-04-08T13:11:34.83Z</time></trkpt><trkpt lat="45.892655" lon="13.809589"><ele>120.0</ele><time>2026-04-08T13:11:35.814Z</time></trkpt><trkpt lat="45.8925882" lon="13.8097534"><ele>120.0</ele><time>2026-04-08T13:11:36.812Z</time></trkpt><trkpt lat="45.8925185" lon="13.8099261"><ele>120.0</ele><time>2026-04-08T13:11:37.822Z</time></trkpt><trkpt lat="45.8924508" lon="13.8101036"><ele>120.0</ele><time>2026-04-08T13:11:38.835Z</time></trkpt><trkpt lat="45.8922848" lon="13.8106469"><ele>119.0</ele><time>2026-04-08T13:11:41.825Z</time></trkpt><trkpt lat="45.8922365" lon="13.8108344"><ele>118.0</ele><time>2026-04-08T13:11:42.81Z</time></trkpt><trkpt lat="45.8921918" lon="13.811026"><ele>117.0</ele><time>2026-04-08T13:11:43.813Z</time></trkpt><trkpt lat="45.8921459" lon="13.811216"><ele>116.0</ele><time>2026-04-08T13:11:44.836Z</time></trkpt><trkpt lat="45.8920917" lon="13.8114155"><ele>116.0</ele><time>2026-04-08T13:11:45.828Z</time></trkpt><trkpt lat="45.8920297" lon="13.8116213"><ele>116.0</ele><time>2026-04-08T13:11:46.85Z</time></trkpt><trkpt lat="45.8918923" lon="13.8120613"><ele>116.33333333333333</ele><time>2026-04-08T13:11:48.858Z</time></trkpt><trkpt lat="45.8918109" lon="13.8122959"><ele>116.66666666666666</ele><time>2026-04-08T13:11:49.837Z</time></trkpt><trkpt lat="45.8917203" lon="13.8125429"><ele>117.0</ele><time>2026-04-08T13:11:50.825Z</time></trkpt><trkpt lat="45.8916304" lon="13.8128081"><ele>115.33333333333334</ele><time>2026-04-08T13:11:51.815Z</time></trkpt><trkpt lat="45.8915367" lon="13.8130817"><ele>113.66666666666667</ele><time>2026-04-08T13:11:52.855Z</time></trkpt><trkpt lat="45.8914363" lon="13.8133673"><ele>112.0</ele><time>2026-04-08T13:11:53.84Z</time></trkpt><trkpt lat="45.8913305" lon="13.8136664"><ele>111.5</ele><time>2026-04-08T13:11:54.821Z</time></trkpt><trkpt lat="45.8912261" lon="13.813966"><ele>111.0</ele><time>2026-04-08T13:11:55.821Z</time></trkpt><trkpt lat="45.8911225" lon="13.8142654"><ele>110.0</ele><time>2026-04-08T13:11:56.826Z</time></trkpt><trkpt lat="45.8908068" lon="13.8151463"><ele>110.0</ele><time>2026-04-08T13:11:59.819Z</time></trkpt><trkpt lat="45.8906981" lon="13.8154211"><ele>110.0</ele><time>2026-04-08T13:12:00.824Z</time></trkpt><trkpt lat="45.8905725" lon="13.8156769"><ele>110.0</ele><time>2026-04-08T13:12:01.834Z</time></trkpt><trkpt lat="45.8904378" lon="13.8159209"><ele>110.33333333333333</ele><time>2026-04-08T13:12:02.838Z</time></trkpt><trkpt lat="45.8903033" lon="13.8161496"><ele>110.66666666666666</ele><time>2026-04-08T13:12:03.85Z</time></trkpt><trkpt lat="45.890172" lon="13.8163751"><ele>111.0</ele><time>2026-04-08T13:12:04.844Z</time></trkpt><trkpt lat="45.8900445" lon="13.8165915"><ele>111.0</ele><time>2026-04-08T13:12:05.821Z</time></trkpt><trkpt lat="45.889923" lon="13.8168024"><ele>111.0</ele><time>2026-04-08T13:12:06.851Z</time></trkpt><trkpt lat="45.8898084" lon="13.8169984"><ele>111.0</ele><time>2026-04-08T13:12:07.826Z</time></trkpt><trkpt lat="45.8897003" lon="13.8171868"><ele>112.33333333333334</ele><time>2026-04-08T13:12:08.822Z</time></trkpt><trkpt lat="45.8896008" lon="13.8173681"><ele>113.66666666666667</ele><time>2026-04-08T13:12:09.823Z</time></trkpt><trkpt lat="45.8895" lon="13.8175509"><ele>115.0</ele><time>2026-04-08T13:12:10.826Z</time></trkpt><trkpt lat="45.8894005" lon="13.8177358"><ele>115.66666666666667</ele><time>2026-04-08T13:12:11.822Z</time></trkpt><trkpt lat="45.8893045" lon="13.8179159"><ele>116.33333333333334</ele><time>2026-04-08T13:12:12.839Z</time></trkpt><trkpt lat="45.8892107" lon="13.8180927"><ele>117.0</ele><time>2026-04-08T13:12:13.828Z</time></trkpt><trkpt lat="45.8891276" lon="13.8182637"><ele>117.25</ele><time>2026-04-08T13:12:14.833Z</time></trkpt><trkpt lat="45.8890612" lon="13.8184321"><ele>117.5</ele><time>2026-04-08T13:12:15.82Z</time></trkpt><trkpt lat="45.8890023" lon="13.8186012"><ele>117.75</ele><time>2026-04-08T13:12:16.833Z</time></trkpt><trkpt lat="45.8889487" lon="13.8187673"><ele>118.0</ele><time>2026-04-08T13:12:17.822Z</time></trkpt><trkpt lat="45.8889046" lon="13.8189338"><ele>118.0</ele><time>2026-04-08T13:12:18.82Z</time></trkpt><trkpt lat="45.8888699" lon="13.8190985"><ele>118.0</ele><time>2026-04-08T13:12:19.839Z</time></trkpt><trkpt lat="45.8888391" lon="13.8192625"><ele>118.0</ele><time>2026-04-08T13:12:20.852Z</time></trkpt><trkpt lat="45.8888091" lon="13.8194223"><ele>118.0</ele><time>2026-04-08T13:12:21.828Z</time></trkpt><trkpt lat="45.88878" lon="13.8195746"><ele>118.0</ele><time>2026-04-08T13:12:22.822Z</time></trkpt><trkpt lat="45.8887523" lon="13.8197204"><ele>118.00000000000001</ele><time>2026-04-08T13:12:23.816Z</time></trkpt><trkpt lat="45.8887276" lon="13.8198582"><ele>118.00000000000001</ele><time>2026-04-08T13:12:24.832Z</time></trkpt><trkpt lat="45.8886996" lon="13.8200045"><ele>118.0</ele><time>2026-04-08T13:12:25.827Z</time></trkpt><trkpt lat="45.8886748" lon="13.8201404"><ele>118.0</ele><time>2026-04-08T13:12:26.847Z</time></trkpt><trkpt lat="45.8886492" lon="13.8202618"><ele>118.0</ele><time>2026-04-08T13:12:27.834Z</time></trkpt><trkpt lat="45.8886262" lon="13.820386"><ele>118.00000000000001</ele><time>2026-04-08T13:12:28.829Z</time></trkpt><trkpt lat="45.8886031" lon="13.8205215"><ele>118.00000000000001</ele><time>2026-04-08T13:12:29.831Z</time></trkpt><trkpt lat="45.888574" lon="13.8206644"><ele>118.0</ele><time>2026-04-08T13:12:30.842Z</time></trkpt><trkpt lat="45.8885458" lon="13.8208149"><ele>118.0</ele><time>2026-04-08T13:12:31.829Z</time></trkpt><trkpt lat="45.8885196" lon="13.8209679"><ele>117.4</ele><time>2026-04-08T13:12:32.837Z</time></trkpt><trkpt lat="45.8884917" lon="13.8211109"><ele>116.80000000000001</ele><time>2026-04-08T13:12:33.836Z</time></trkpt><trkpt lat="45.8884573" lon="13.8212148"><ele>116.2</ele><time>2026-04-08T13:12:34.829Z</time></trkpt><trkpt lat="45.8883464" lon="13.8212578"><ele>115.6</ele><time>2026-04-08T13:12:36.828Z</time></trkpt><trkpt lat="45.888273" lon="13.8212006"><ele>115.0</ele><time>2026-04-08T13:12:37.832Z</time></trkpt><trkpt lat="45.8881579" lon="13.8211271"><ele>115.0</ele><time>2026-04-08T13:12:38.875Z</time></trkpt><trkpt lat="45.8880162" lon="13.8210403"><ele>115.0</ele><time>2026-04-08T13:12:39.825Z</time></trkpt><trkpt lat="45.8878569" lon="13.8209399"><ele>115.0</ele><time>2026-04-08T13:12:40.821Z</time></trkpt><trkpt lat="45.8876938" lon="13.820847"><ele>113.75</ele><time>2026-04-08T13:12:41.832Z</time></trkpt><trkpt lat="45.8875417" lon="13.8207582"><ele>112.5</ele><time>2026-04-08T13:12:42.83Z</time></trkpt><trkpt lat="45.8874143" lon="13.8206936"><ele>111.25</ele><time>2026-04-08T13:12:43.841Z</time></trkpt><trkpt lat="45.8872885" lon="13.8206203"><ele>110.0</ele><time>2026-04-08T13:12:44.856Z</time></trkpt><trkpt lat="45.8871587" lon="13.8205444"><ele>110.0</ele><time>2026-04-08T13:12:45.834Z</time></trkpt><trkpt lat="45.8870222" lon="13.8204662"><ele>110.0</ele><time>2026-04-08T13:12:46.834Z</time></trkpt><trkpt lat="45.8868707" lon="13.8203809"><ele>110.0</ele><time>2026-04-08T13:12:47.836Z</time></trkpt><trkpt lat="45.8867189" lon="13.8202944"><ele>108.66666666666666</ele><time>2026-04-08T13:12:48.836Z</time></trkpt><trkpt lat="45.8865749" lon="13.8202027"><ele>107.33333333333334</ele><time>2026-04-08T13:12:49.835Z</time></trkpt><trkpt lat="45.8864384" lon="13.8201108"><ele>106.0</ele><time>2026-04-08T13:12:50.833Z</time></trkpt><trkpt lat="45.8863032" lon="13.820027"><ele>105.5</ele><time>2026-04-08T13:12:51.847Z</time></trkpt><trkpt lat="45.8861758" lon="13.8199544"><ele>105.0</ele><time>2026-04-08T13:12:52.827Z</time></trkpt><trkpt lat="45.8860682" lon="13.8199026"><ele>104.5</ele><time>2026-04-08T13:12:53.828Z</time></trkpt><trkpt lat="45.8859676" lon="13.8198951"><ele>104.0</ele><time>2026-04-08T13:12:54.827Z</time></trkpt><trkpt lat="45.8858649" lon="13.8199568"><ele>103.5</ele><time>2026-04-08T13:12:55.831Z</time></trkpt><trkpt lat="45.8857692" lon="13.8200658"><ele>103.0</ele><time>2026-04-08T13:12:56.829Z</time></trkpt><trkpt lat="45.8855605" lon="13.8205245"><ele>103.33333333333334</ele><time>2026-04-08T13:12:59.822Z</time></trkpt><trkpt lat="45.8855173" lon="13.8207183"><ele>103.66666666666666</ele><time>2026-04-08T13:13:00.824Z</time></trkpt><trkpt lat="45.8854629" lon="13.8211365"><ele>104.0</ele><time>2026-04-08T13:13:02.848Z</time></trkpt><trkpt lat="45.8854594" lon="13.8213405"><ele>104.0</ele><time>2026-04-08T13:13:03.84Z</time></trkpt><trkpt lat="45.8854551" lon="13.821535"><ele>104.0</ele><time>2026-04-08T13:13:04.855Z</time></trkpt><trkpt lat="45.8854492" lon="13.8217225"><ele>104.0</ele><time>2026-04-08T13:13:05.827Z</time></trkpt><trkpt lat="45.8854404" lon="13.8218971"><ele>104.0</ele><time>2026-04-08T13:13:06.852Z</time></trkpt><trkpt lat="45.8854267" lon="13.8220587"><ele>103.75</ele><time>2026-04-08T13:13:07.831Z</time></trkpt><trkpt lat="45.8853965" lon="13.8222063"><ele>103.5</ele><time>2026-04-08T13:13:08.844Z</time></trkpt><trkpt lat="45.8853433" lon="13.8223128"><ele>103.25</ele><time>2026-04-08T13:13:09.906Z</time></trkpt><trkpt lat="45.8852586" lon="13.8223776"><ele>103.0</ele><time>2026-04-08T13:13:10.827Z</time></trkpt><trkpt lat="45.8848789" lon="13.8223575"><ele>102.33333333333334</ele><time>2026-04-08T13:13:13.829Z</time></trkpt><trkpt lat="45.8847101" lon="13.8222877"><ele>101.66666666666666</ele><time>2026-04-08T13:13:14.847Z</time></trkpt><trkpt lat="45.884502" lon="13.8221809"><ele>101.0</ele><time>2026-04-08T13:13:15.826Z</time></trkpt><trkpt lat="45.8842753" lon="13.8220628"><ele>98.0</ele><time>2026-04-08T13:13:16.829Z</time></trkpt><trkpt lat="45.8840306" lon="13.8219502"><ele>95.0</ele><time>2026-04-08T13:13:17.849Z</time></trkpt><trkpt lat="45.8837709" lon="13.8218266"><ele>96.0</ele><time>2026-04-08T13:13:18.828Z</time></trkpt><trkpt lat="45.8835021" lon="13.8217067"><ele>97.0</ele><time>2026-04-08T13:13:19.817Z</time></trkpt><trkpt lat="45.8832424" lon="13.8216093"><ele>97.0</ele><time>2026-04-08T13:13:20.831Z</time></trkpt><trkpt lat="45.8829941" lon="13.8215243"><ele>97.0</ele><time>2026-04-08T13:13:21.832Z</time></trkpt><trkpt lat="45.8827572" lon="13.8214526"><ele>97.0</ele><time>2026-04-08T13:13:22.843Z</time></trkpt><trkpt lat="45.8825209" lon="13.8213838"><ele>97.0</ele><time>2026-04-08T13:13:23.862Z</time></trkpt><trkpt lat="45.8822864" lon="13.8213219"><ele>97.0</ele><time>2026-04-08T13:13:24.838Z</time></trkpt><trkpt lat="45.8818476" lon="13.8212387"><ele>97.0</ele><time>2026-04-08T13:13:26.827Z</time></trkpt><trkpt lat="45.8816432" lon="13.8212009"><ele>97.0</ele><time>2026-04-08T13:13:27.858Z</time></trkpt><trkpt lat="45.8814489" lon="13.8211685"><ele>97.0</ele><time>2026-04-08T13:13:28.826Z</time></trkpt><trkpt lat="45.8812565" lon="13.8211479"><ele>97.0</ele><time>2026-04-08T13:13:29.835Z</time></trkpt><trkpt lat="45.8810558" lon="13.8211633"><ele>97.0</ele><time>2026-04-08T13:13:30.823Z</time></trkpt><trkpt lat="45.8806404" lon="13.8212167"><ele>97.0</ele><time>2026-04-08T13:13:32.836Z</time></trkpt><trkpt lat="45.8804463" lon="13.8212294"><ele>97.0</ele><time>2026-04-08T13:13:33.829Z</time></trkpt><trkpt lat="45.8802603" lon="13.8212374"><ele>97.0</ele><time>2026-04-08T13:13:34.832Z</time></trkpt><trkpt lat="45.88007" lon="13.821245"><ele>97.0</ele><time>2026-04-08T13:13:35.841Z</time></trkpt><trkpt lat="45.8798826" lon="13.8212499"><ele>96.0</ele><time>2026-04-08T13:13:36.828Z</time></trkpt><trkpt lat="45.8797022" lon="13.8212505"><ele>95.0</ele><time>2026-04-08T13:13:37.847Z</time></trkpt><trkpt lat="45.879525" lon="13.8212358"><ele>94.0</ele><time>2026-04-08T13:13:38.829Z</time></trkpt><trkpt lat="45.879348" lon="13.8211939"><ele>94.0</ele><time>2026-04-08T13:13:39.828Z</time></trkpt><trkpt lat="45.8791822" lon="13.8211327"><ele>94.0</ele><time>2026-04-08T13:13:40.827Z</time></trkpt><trkpt lat="45.8790314" lon="13.8210557"><ele>94.0</ele><time>2026-04-08T13:13:41.825Z</time></trkpt><trkpt lat="45.8788858" lon="13.8209724"><ele>94.0</ele><time>2026-04-08T13:13:42.848Z</time></trkpt><trkpt lat="45.8787307" lon="13.8208875"><ele>94.0</ele><time>2026-04-08T13:13:43.824Z</time></trkpt><trkpt lat="45.8785596" lon="13.8208082"><ele>94.0</ele><time>2026-04-08T13:13:44.832Z</time></trkpt><trkpt lat="45.8783847" lon="13.8207348"><ele>92.33333333333333</ele><time>2026-04-08T13:13:45.825Z</time></trkpt><trkpt lat="45.878219" lon="13.8206735"><ele>90.66666666666667</ele><time>2026-04-08T13:13:46.834Z</time></trkpt><trkpt lat="45.8780585" lon="13.8206166"><ele>89.0</ele><time>2026-04-08T13:13:47.843Z</time></trkpt><trkpt lat="45.8779011" lon="13.8205508"><ele>89.0</ele><time>2026-04-08T13:13:48.843Z</time></trkpt><trkpt lat="45.8777489" lon="13.8204578"><ele>89.0</ele><time>2026-04-08T13:13:49.844Z</time></trkpt><trkpt lat="45.8776112" lon="13.8203262"><ele>89.0</ele><time>2026-04-08T13:13:50.82Z</time></trkpt><trkpt lat="45.8774642" lon="13.8201839"><ele>87.33333333333334</ele><time>2026-04-08T13:13:51.834Z</time></trkpt><trkpt lat="45.877312" lon="13.8200734"><ele>85.66666666666667</ele><time>2026-04-08T13:13:52.831Z</time></trkpt><trkpt lat="45.8771539" lon="13.8199939"><ele>84.0</ele><time>2026-04-08T13:13:53.837Z</time></trkpt><trkpt lat="45.8770131" lon="13.819923"><ele>84.0</ele><time>2026-04-08T13:13:54.836Z</time></trkpt><trkpt lat="45.8768859" lon="13.8198419"><ele>84.0</ele><time>2026-04-08T13:13:55.833Z</time></trkpt><trkpt lat="45.8767666" lon="13.8197314"><ele>84.0</ele><time>2026-04-08T13:13:56.832Z</time></trkpt><trkpt lat="45.8766664" lon="13.8196062"><ele>84.0</ele><time>2026-04-08T13:13:57.834Z</time></trkpt><trkpt lat="45.8765672" lon="13.8194828"><ele>83.0</ele><time>2026-04-08T13:13:58.848Z</time></trkpt><trkpt lat="45.8764682" lon="13.8193528"><ele>82.0</ele><time>2026-04-08T13:13:59.827Z</time></trkpt><trkpt lat="45.8763445" lon="13.8192466"><ele>81.0</ele><time>2026-04-08T13:14:00.83Z</time></trkpt><trkpt lat="45.8761912" lon="13.8191837"><ele>80.0</ele><time>2026-04-08T13:14:01.834Z</time></trkpt><trkpt lat="45.876002" lon="13.8191563"><ele>78.0</ele><time>2026-04-08T13:14:02.832Z</time></trkpt><trkpt lat="45.8757765" lon="13.8191418"><ele>76.0</ele><time>2026-04-08T13:14:03.818Z</time></trkpt><trkpt lat="45.8755574" lon="13.8190877"><ele>74.0</ele><time>2026-04-08T13:14:04.837Z</time></trkpt><trkpt lat="45.8753745" lon="13.8189601"><ele>74.0</ele><time>2026-04-08T13:14:05.828Z</time></trkpt><trkpt lat="45.8752054" lon="13.8187627"><ele>74.0</ele><time>2026-04-08T13:14:06.826Z</time></trkpt><trkpt lat="45.8750396" lon="13.8185335"><ele>74.0</ele><time>2026-04-08T13:14:07.815Z</time></trkpt><trkpt lat="45.8748558" lon="13.818286"><ele>73.0</ele><time>2026-04-08T13:14:08.824Z</time></trkpt><trkpt lat="45.8746542" lon="13.8180539"><ele>72.0</ele><time>2026-04-08T13:14:09.828Z</time></trkpt><trkpt lat="45.8744374" lon="13.8178517"><ele>71.5</ele><time>2026-04-08T13:14:10.828Z</time></trkpt><trkpt lat="45.8742226" lon="13.8176706"><ele>71.0</ele><time>2026-04-08T13:14:11.837Z</time></trkpt><trkpt lat="45.8740271" lon="13.8174786"><ele>71.0</ele><time>2026-04-08T13:14:12.839Z</time></trkpt><trkpt lat="45.8738483" lon="13.8172523"><ele>71.0</ele><time>2026-04-08T13:14:13.827Z</time></trkpt><trkpt lat="45.8736864" lon="13.817015"><ele>71.0</ele><time>2026-04-08T13:14:14.826Z</time></trkpt><trkpt lat="45.8735421" lon="13.8167896"><ele>71.0</ele><time>2026-04-08T13:14:15.831Z</time></trkpt><trkpt lat="45.8733962" lon="13.81658"><ele>71.0</ele><time>2026-04-08T13:14:16.844Z</time></trkpt><trkpt lat="45.8732675" lon="13.816397"><ele>70.8</ele><time>2026-04-08T13:14:17.827Z</time></trkpt><trkpt lat="45.8731679" lon="13.816262"><ele>70.6</ele><time>2026-04-08T13:14:18.849Z</time></trkpt><trkpt lat="45.873098" lon="13.8161552"><ele>70.4</ele><time>2026-04-08T13:14:19.819Z</time></trkpt><trkpt lat="45.8730326" lon="13.816086"><ele>70.2</ele><time>2026-04-08T13:14:20.832Z</time></trkpt><trkpt lat="45.8729694" lon="13.8160119"><ele>70.0</ele><time>2026-04-08T13:14:21.831Z</time></trkpt><trkpt lat="45.872903" lon="13.8159174"><ele>70.4</ele><time>2026-04-08T13:14:22.837Z</time></trkpt><trkpt lat="45.8728404" lon="13.8158182"><ele>70.8</ele><time>2026-04-08T13:14:23.822Z</time></trkpt><trkpt lat="45.8727809" lon="13.81574"><ele>71.2</ele><time>2026-04-08T13:14:24.827Z</time></trkpt><trkpt lat="45.8726984" lon="13.815703"><ele>71.6</ele><time>2026-04-08T13:14:26.818Z</time></trkpt><trkpt lat="45.8727297" lon="13.8158107"><ele>72.0</ele><time>2026-04-08T13:14:30.895Z</time></trkpt><trkpt lat="45.8728388" lon="13.8158424"><ele>72.00000000000001</ele><time>2026-04-08T13:14:38.831Z</time></trkpt><trkpt lat="45.8728906" lon="13.8159105"><ele>72.0</ele><time>2026-04-08T13:14:39.824Z</time></trkpt><trkpt lat="45.872933" lon="13.8160091"><ele>72.0</ele><time>2026-04-08T13:14:40.837Z</time></trkpt><trkpt lat="45.8729623" lon="13.8161047"><ele>72.0</ele><time>2026-04-08T13:14:41.839Z</time></trkpt><trkpt lat="45.8729848" lon="13.8162052"><ele>72.0</ele><time>2026-04-08T13:14:42.828Z</time></trkpt><trkpt lat="45.8730114" lon="13.8162978"><ele>72.00000000000001</ele><time>2026-04-08T13:14:43.819Z</time></trkpt><trkpt lat="45.8730422" lon="13.8163878"><ele>72.0</ele><time>2026-04-08T13:14:44.881Z</time></trkpt><trkpt lat="45.8730621" lon="13.8165001"><ele>71.8</ele><time>2026-04-08T13:14:45.83Z</time></trkpt><trkpt lat="45.8730701" lon="13.816633"><ele>71.6</ele><time>2026-04-08T13:14:46.831Z</time></trkpt><trkpt lat="45.8730646" lon="13.8167791"><ele>71.39999999999999</ele><time>2026-04-08T13:14:47.818Z</time></trkpt><trkpt lat="45.8730422" lon="13.816919"><ele>71.2</ele><time>2026-04-08T13:14:48.829Z</time></trkpt><trkpt lat="45.873017" lon="13.8170676"><ele>71.0</ele><time>2026-04-08T13:14:49.83Z</time></trkpt><trkpt lat="45.8729972" lon="13.8172231"><ele>71.0</ele><time>2026-04-08T13:14:50.835Z</time></trkpt><trkpt lat="45.8729833" lon="13.8173929"><ele>71.0</ele><time>2026-04-08T13:14:51.817Z</time></trkpt><trkpt lat="45.8729671" lon="13.8175722"><ele>71.0</ele><time>2026-04-08T13:14:52.83Z</time></trkpt><trkpt lat="45.8729493" lon="13.8177587"><ele>71.0</ele><time>2026-04-08T13:14:53.821Z</time></trkpt><trkpt lat="45.8729349" lon="13.8179418"><ele>71.25</ele><time>2026-04-08T13:14:54.819Z</time></trkpt><trkpt lat="45.8729211" lon="13.8181309"><ele>71.5</ele><time>2026-04-08T13:14:55.82Z</time></trkpt><trkpt lat="45.8729122" lon="13.8183197"><ele>71.75</ele><time>2026-04-08T13:14:56.83Z</time></trkpt><trkpt lat="45.8729047" lon="13.8185004"><ele>72.0</ele><time>2026-04-08T13:14:57.839Z</time></trkpt><trkpt lat="45.8728962" lon="13.8186795"><ele>72.0</ele><time>2026-04-08T13:14:58.816Z</time></trkpt><trkpt lat="45.8728819" lon="13.81885"><ele>72.0</ele><time>2026-04-08T13:14:59.821Z</time></trkpt><trkpt lat="45.8728539" lon="13.8190238"><ele>72.0</ele><time>2026-04-08T13:15:00.823Z</time></trkpt><trkpt lat="45.8727059" lon="13.8195563"><ele>72.0</ele><time>2026-04-08T13:15:03.821Z</time></trkpt><trkpt lat="45.8726376" lon="13.8197238"><ele>72.0</ele><time>2026-04-08T13:15:04.846Z</time></trkpt><trkpt lat="45.8725589" lon="13.8198907"><ele>72.0</ele><time>2026-04-08T13:15:05.829Z</time></trkpt><trkpt lat="45.872472" lon="13.8200555"><ele>72.0</ele><time>2026-04-08T13:15:06.839Z</time></trkpt><trkpt lat="45.8723858" lon="13.8202078"><ele>72.5</ele><time>2026-04-08T13:15:07.843Z</time></trkpt><trkpt lat="45.8722932" lon="13.8203539"><ele>73.0</ele><time>2026-04-08T13:15:08.856Z</time></trkpt><trkpt lat="45.8721947" lon="13.8205014"><ele>73.5</ele><time>2026-04-08T13:15:09.843Z</time></trkpt><trkpt lat="45.8720951" lon="13.8206497"><ele>74.0</ele><time>2026-04-08T13:15:10.83Z</time></trkpt><trkpt lat="45.8720064" lon="13.8208075"><ele>74.0</ele><time>2026-04-08T13:15:11.817Z</time></trkpt><trkpt lat="45.8719181" lon="13.8209698"><ele>74.0</ele><time>2026-04-08T13:15:12.822Z</time></trkpt><trkpt lat="45.8718287" lon="13.8211304"><ele>74.0</ele><time>2026-04-08T13:15:13.822Z</time></trkpt><trkpt lat="45.8717421" lon="13.8212921"><ele>74.0</ele><time>2026-04-08T13:15:14.83Z</time></trkpt><trkpt lat="45.8716554" lon="13.8214488"><ele>73.5</ele><time>2026-04-08T13:15:15.814Z</time></trkpt><trkpt lat="45.8715778" lon="13.8216091"><ele>73.0</ele><time>2026-04-08T13:15:16.83Z</time></trkpt><trkpt lat="45.871505" lon="13.821781"><ele>72.5</ele><time>2026-04-08T13:15:17.832Z</time></trkpt><trkpt lat="45.8714409" lon="13.8219509"><ele>72.0</ele><time>2026-04-08T13:15:18.867Z</time></trkpt><trkpt lat="45.8713905" lon="13.8221313"><ele>72.0</ele><time>2026-04-08T13:15:19.829Z</time></trkpt><trkpt lat="45.8713387" lon="13.8223125"><ele>72.0</ele><time>2026-04-08T13:15:20.828Z</time></trkpt><trkpt lat="45.8712999" lon="13.8224985"><ele>72.0</ele><time>2026-04-08T13:15:21.835Z</time></trkpt><trkpt lat="45.8712692" lon="13.822676"><ele>72.0</ele><time>2026-04-08T13:15:22.84Z</time></trkpt><trkpt lat="45.8712378" lon="13.822856"><ele>71.75</ele><time>2026-04-08T13:15:23.842Z</time></trkpt><trkpt lat="45.871212" lon="13.8230337"><ele>71.5</ele><time>2026-04-08T13:15:24.832Z</time></trkpt><trkpt lat="45.8711917" lon="13.8232118"><ele>71.25</ele><time>2026-04-08T13:15:25.839Z</time></trkpt><trkpt lat="45.87118" lon="13.8233844"><ele>71.0</ele><time>2026-04-08T13:15:26.824Z</time></trkpt><trkpt lat="45.8711797" lon="13.8235542"><ele>71.5</ele><time>2026-04-08T13:15:27.835Z</time></trkpt><trkpt lat="45.8711819" lon="13.8237386"><ele>72.0</ele><time>2026-04-08T13:15:28.819Z</time></trkpt><trkpt lat="45.871182" lon="13.8239498"><ele>72.5</ele><time>2026-04-08T13:15:29.836Z</time></trkpt><trkpt lat="45.8711779" lon="13.8241592"><ele>73.0</ele><time>2026-04-08T13:15:30.819Z</time></trkpt><trkpt lat="45.8711645" lon="13.824376"><ele>71.66666666666666</ele><time>2026-04-08T13:15:31.827Z</time></trkpt><trkpt lat="45.8711396" lon="13.8246006"><ele>70.33333333333333</ele><time>2026-04-08T13:15:32.836Z</time></trkpt><trkpt lat="45.8711067" lon="13.8248368"><ele>69.0</ele><time>2026-04-08T13:15:33.812Z</time></trkpt><trkpt lat="45.8710686" lon="13.8250731"><ele>69.0</ele><time>2026-04-08T13:15:34.829Z</time></trkpt><trkpt lat="45.8710135" lon="13.8253024"><ele>69.0</ele><time>2026-04-08T13:15:35.833Z</time></trkpt><trkpt lat="45.8709447" lon="13.8255399"><ele>69.0</ele><time>2026-04-08T13:15:36.827Z</time></trkpt><trkpt lat="45.8708839" lon="13.8257646"><ele>70.0</ele><time>2026-04-08T13:15:37.833Z</time></trkpt><trkpt lat="45.8708281" lon="13.8259718"><ele>71.0</ele><time>2026-04-08T13:15:38.854Z</time></trkpt><trkpt lat="45.8707675" lon="13.8261668"><ele>72.0</ele><time>2026-04-08T13:15:39.834Z</time></trkpt><trkpt lat="45.8706287" lon="13.8267608"><ele>72.33333333333333</ele><time>2026-04-08T13:15:42.832Z</time></trkpt><trkpt lat="45.8705839" lon="13.8269731"><ele>72.66666666666666</ele><time>2026-04-08T13:15:43.823Z</time></trkpt><trkpt lat="45.8705363" lon="13.827185"><ele>73.0</ele><time>2026-04-08T13:15:44.838Z</time></trkpt><trkpt lat="45.8704214" lon="13.8278052"><ele>73.0</ele><time>2026-04-08T13:15:47.838Z</time></trkpt><trkpt lat="45.8703724" lon="13.827994"><ele>73.0</ele><time>2026-04-08T13:15:48.821Z</time></trkpt><trkpt lat="45.8703181" lon="13.8281774"><ele>73.0</ele><time>2026-04-08T13:15:49.846Z</time></trkpt><trkpt lat="45.8702652" lon="13.8283649"><ele>73.0</ele><time>2026-04-08T13:15:50.822Z</time></trkpt><trkpt lat="45.8701947" lon="13.8287608"><ele>73.0</ele><time>2026-04-08T13:15:52.863Z</time></trkpt><trkpt lat="45.8701689" lon="13.8289648"><ele>73.0</ele><time>2026-04-08T13:15:53.825Z</time></trkpt><trkpt lat="45.8701461" lon="13.8291709"><ele>73.0</ele><time>2026-04-08T13:15:54.834Z</time></trkpt><trkpt lat="45.8701303" lon="13.829375"><ele>73.0</ele><time>2026-04-08T13:15:55.834Z</time></trkpt><trkpt lat="45.8701108" lon="13.8295746"><ele>74.75</ele><time>2026-04-08T13:15:56.819Z</time></trkpt><trkpt lat="45.87008" lon="13.829735"><ele>76.5</ele><time>2026-04-08T13:15:57.83Z</time></trkpt><trkpt lat="45.8700408" lon="13.8298615"><ele>78.25</ele><time>2026-04-08T13:15:58.836Z</time></trkpt><trkpt lat="45.8698736" lon="13.8300832"><ele>80.0</ele><time>2026-04-08T13:16:00.831Z</time></trkpt><trkpt lat="45.8697595" lon="13.830178"><ele>80.0</ele><time>2026-04-08T13:16:01.82Z</time></trkpt><trkpt lat="45.8696313" lon="13.8302896"><ele>80.0</ele><time>2026-04-08T13:16:02.853Z</time></trkpt><trkpt lat="45.8693759" lon="13.8305132"><ele>80.0</ele><time>2026-04-08T13:16:04.835Z</time></trkpt><trkpt lat="45.8692731" lon="13.8306153"><ele>80.6</ele><time>2026-04-08T13:16:05.822Z</time></trkpt><trkpt lat="45.869194" lon="13.8307208"><ele>81.2</ele><time>2026-04-08T13:16:06.845Z</time></trkpt><trkpt lat="45.8691453" lon="13.8308336"><ele>81.80000000000001</ele><time>2026-04-08T13:16:07.839Z</time></trkpt><trkpt lat="45.8691223" lon="13.8309721"><ele>82.4</ele><time>2026-04-08T13:16:08.819Z</time></trkpt><trkpt lat="45.8691202" lon="13.8311452"><ele>83.0</ele><time>2026-04-08T13:16:09.828Z</time></trkpt><trkpt lat="45.8691313" lon="13.8313367"><ele>83.0</ele><time>2026-04-08T13:16:10.826Z</time></trkpt><trkpt lat="45.8691344" lon="13.8315071"><ele>83.0</ele><time>2026-04-08T13:16:11.833Z</time></trkpt><trkpt lat="45.869119" lon="13.8316621"><ele>83.0</ele><time>2026-04-08T13:16:12.824Z</time></trkpt><trkpt lat="45.8690993" lon="13.8318057"><ele>83.0</ele><time>2026-04-08T13:16:13.822Z</time></trkpt><trkpt lat="45.8690821" lon="13.8319462"><ele>83.0</ele><time>2026-04-08T13:16:14.832Z</time></trkpt><trkpt lat="45.8690781" lon="13.8321034"><ele>83.0</ele><time>2026-04-08T13:16:15.821Z</time></trkpt><trkpt lat="45.8690768" lon="13.8322611"><ele>83.0</ele><time>2026-04-08T13:16:16.821Z</time></trkpt><trkpt lat="45.8690638" lon="13.8324075"><ele>83.0</ele><time>2026-04-08T13:16:17.835Z</time></trkpt><trkpt lat="45.8690476" lon="13.8325416"><ele>83.0</ele><time>2026-04-08T13:16:18.834Z</time></trkpt><trkpt lat="45.8690473" lon="13.8326717"><ele>83.0</ele><time>2026-04-08T13:16:19.827Z</time></trkpt><trkpt lat="45.8690736" lon="13.8328186"><ele>83.75</ele><time>2026-04-08T13:16:20.849Z</time></trkpt><trkpt lat="45.8691033" lon="13.8329897"><ele>84.5</ele><time>2026-04-08T13:16:21.82Z</time></trkpt><trkpt lat="45.869115" lon="13.8331632"><ele>85.25</ele><time>2026-04-08T13:16:22.838Z</time></trkpt><trkpt lat="45.8691241" lon="13.833357"><ele>86.0</ele><time>2026-04-08T13:16:23.821Z</time></trkpt><trkpt lat="45.8691576" lon="13.8335504"><ele>86.0</ele><time>2026-04-08T13:16:24.84Z</time></trkpt><trkpt lat="45.8691917" lon="13.8337476"><ele>86.0</ele><time>2026-04-08T13:16:25.829Z</time></trkpt><trkpt lat="45.8692184" lon="13.8339475"><ele>86.0</ele><time>2026-04-08T13:16:26.839Z</time></trkpt><trkpt lat="45.869237" lon="13.8341155"><ele>86.0</ele><time>2026-04-08T13:16:27.822Z</time></trkpt><trkpt lat="45.8692236" lon="13.8342718"><ele>85.5</ele><time>2026-04-08T13:16:28.83Z</time></trkpt><trkpt lat="45.8691998" lon="13.8344273"><ele>85.0</ele><time>2026-04-08T13:16:29.818Z</time></trkpt><trkpt lat="45.8691889" lon="13.834593"><ele>84.5</ele><time>2026-04-08T13:16:30.837Z</time></trkpt><trkpt lat="45.8691966" lon="13.8347616"><ele>84.0</ele><time>2026-04-08T13:16:31.822Z</time></trkpt><trkpt lat="45.8692051" lon="13.834927"><ele>84.0</ele><time>2026-04-08T13:16:32.847Z</time></trkpt><trkpt lat="45.8692041" lon="13.8350802"><ele>84.0</ele><time>2026-04-08T13:16:33.824Z</time></trkpt><trkpt lat="45.8691765" lon="13.8352407"><ele>84.0</ele><time>2026-04-08T13:16:34.845Z</time></trkpt><trkpt lat="45.8691397" lon="13.8354131"><ele>84.0</ele><time>2026-04-08T13:16:35.832Z</time></trkpt><trkpt lat="45.8691024" lon="13.8355828"><ele>83.33333333333333</ele><time>2026-04-08T13:16:36.83Z</time></trkpt><trkpt lat="45.8690478" lon="13.8357637"><ele>82.66666666666666</ele><time>2026-04-08T13:16:37.821Z</time></trkpt><trkpt lat="45.868985" lon="13.8359435"><ele>82.0</ele><time>2026-04-08T13:16:38.827Z</time></trkpt><trkpt lat="45.8688802" lon="13.8361418"><ele>80.33333333333333</ele><time>2026-04-08T13:16:39.834Z</time></trkpt><trkpt lat="45.8687674" lon="13.8363507"><ele>78.66666666666667</ele><time>2026-04-08T13:16:40.82Z</time></trkpt><trkpt lat="45.8686662" lon="13.8365494"><ele>77.0</ele><time>2026-04-08T13:16:41.833Z</time></trkpt><trkpt lat="45.8685849" lon="13.8367209"><ele>76.5</ele><time>2026-04-08T13:16:42.844Z</time></trkpt><trkpt lat="45.8684999" lon="13.8368706"><ele>76.0</ele><time>2026-04-08T13:16:43.832Z</time></trkpt><trkpt lat="45.8683942" lon="13.8370121"><ele>75.5</ele><time>2026-04-08T13:16:44.849Z</time></trkpt><trkpt lat="45.8682771" lon="13.8371404"><ele>75.0</ele><time>2026-04-08T13:16:45.831Z</time></trkpt><trkpt lat="45.8681821" lon="13.837248"><ele>75.6</ele><time>2026-04-08T13:16:46.825Z</time></trkpt><trkpt lat="45.868113" lon="13.8373404"><ele>76.2</ele><time>2026-04-08T13:16:47.839Z</time></trkpt><trkpt lat="45.8680655" lon="13.8374617"><ele>76.8</ele><time>2026-04-08T13:16:48.826Z</time></trkpt><trkpt lat="45.8680381" lon="13.8376119"><ele>77.4</ele><time>2026-04-08T13:16:49.831Z</time></trkpt><trkpt lat="45.8680174" lon="13.8377857"><ele>78.0</ele><time>2026-04-08T13:16:50.829Z</time></trkpt><trkpt lat="45.8680052" lon="13.8379719"><ele>78.0</ele><time>2026-04-08T13:16:51.818Z</time></trkpt><trkpt lat="45.8680066" lon="13.8381671"><ele>78.0</ele><time>2026-04-08T13:16:52.837Z</time></trkpt><trkpt lat="45.8680159" lon="13.8383765"><ele>78.0</ele><time>2026-04-08T13:16:53.838Z</time></trkpt><trkpt lat="45.8680306" lon="13.8385695"><ele>78.0</ele><time>2026-04-08T13:16:54.826Z</time></trkpt><trkpt lat="45.8680626" lon="13.8387499"><ele>78.0</ele><time>2026-04-08T13:16:55.818Z</time></trkpt><trkpt lat="45.8681191" lon="13.8389564"><ele>78.0</ele><time>2026-04-08T13:16:56.834Z</time></trkpt><trkpt lat="45.8681895" lon="13.8391948"><ele>78.0</ele><time>2026-04-08T13:16:57.837Z</time></trkpt><trkpt lat="45.8682538" lon="13.8394455"><ele>79.0</ele><time>2026-04-08T13:16:58.832Z</time></trkpt><trkpt lat="45.8682916" lon="13.8396668"><ele>80.0</ele><time>2026-04-08T13:16:59.828Z</time></trkpt><trkpt lat="45.8683322" lon="13.8398554"><ele>81.0</ele><time>2026-04-08T13:17:00.85Z</time></trkpt><trkpt lat="45.868379" lon="13.8400428"><ele>82.0</ele><time>2026-04-08T13:17:01.843Z</time></trkpt><trkpt lat="45.8684066" lon="13.8402251"><ele>82.5</ele><time>2026-04-08T13:17:02.821Z</time></trkpt><trkpt lat="45.8684237" lon="13.8404025"><ele>83.0</ele><time>2026-04-08T13:17:03.822Z</time></trkpt><trkpt lat="45.8684369" lon="13.8405796"><ele>83.5</ele><time>2026-04-08T13:17:04.823Z</time></trkpt><trkpt lat="45.8684357" lon="13.8407552"><ele>84.0</ele><time>2026-04-08T13:17:05.831Z</time></trkpt><trkpt lat="45.868416" lon="13.8409064"><ele>83.2</ele><time>2026-04-08T13:17:06.834Z</time></trkpt><trkpt lat="45.8683933" lon="13.8410386"><ele>82.4</ele><time>2026-04-08T13:17:07.83Z</time></trkpt><trkpt lat="45.8683604" lon="13.841175"><ele>81.6</ele><time>2026-04-08T13:17:08.837Z</time></trkpt><trkpt lat="45.8683337" lon="13.8413264"><ele>80.8</ele><time>2026-04-08T13:17:09.832Z</time></trkpt><trkpt lat="45.8683211" lon="13.8414961"><ele>80.0</ele><time>2026-04-08T13:17:10.838Z</time></trkpt><trkpt lat="45.8683282" lon="13.8416857"><ele>79.25</ele><time>2026-04-08T13:17:11.831Z</time></trkpt><trkpt lat="45.8683377" lon="13.8418842"><ele>78.5</ele><time>2026-04-08T13:17:12.834Z</time></trkpt><trkpt lat="45.8683411" lon="13.8420839"><ele>77.75</ele><time>2026-04-08T13:17:13.832Z</time></trkpt><trkpt lat="45.8683412" lon="13.8422735"><ele>77.0</ele><time>2026-04-08T13:17:14.837Z</time></trkpt><trkpt lat="45.8683359" lon="13.8424375"><ele>77.0</ele><time>2026-04-08T13:17:15.846Z</time></trkpt><trkpt lat="45.8683213" lon="13.8425802"><ele>77.0</ele><time>2026-04-08T13:17:16.837Z</time></trkpt><trkpt lat="45.8682805" lon="13.8427024"><ele>77.0</ele><time>2026-04-08T13:17:17.836Z</time></trkpt><trkpt lat="45.8682363" lon="13.8428095"><ele>77.0</ele><time>2026-04-08T13:17:18.838Z</time></trkpt><trkpt lat="45.868197" lon="13.8429064"><ele>77.0</ele><time>2026-04-08T13:17:19.837Z</time></trkpt><trkpt lat="45.8681743" lon="13.8430065"><ele>77.0</ele><time>2026-04-08T13:17:20.868Z</time></trkpt><trkpt lat="45.8681689" lon="13.8431023"><ele>77.0</ele><time>2026-04-08T13:17:21.844Z</time></trkpt><trkpt lat="45.8681724" lon="13.8432082"><ele>77.0</ele><time>2026-04-08T13:17:22.832Z</time></trkpt><trkpt lat="45.868173" lon="13.8433342"><ele>77.0</ele><time>2026-04-08T13:17:23.832Z</time></trkpt><trkpt lat="45.8681576" lon="13.8434669"><ele>77.0</ele><time>2026-04-08T13:17:24.843Z</time></trkpt><trkpt lat="45.8681364" lon="13.8436081"><ele>77.0</ele><time>2026-04-08T13:17:25.823Z</time></trkpt><trkpt lat="45.8681103" lon="13.8437428"><ele>77.0</ele><time>2026-04-08T13:17:26.828Z</time></trkpt><trkpt lat="45.8680768" lon="13.8438911"><ele>77.0</ele><time>2026-04-08T13:17:27.844Z</time></trkpt><trkpt lat="45.868034" lon="13.8440465"><ele>77.0</ele><time>2026-04-08T13:17:28.836Z</time></trkpt><trkpt lat="45.8679818" lon="13.8442052"><ele>77.0</ele><time>2026-04-08T13:17:29.849Z</time></trkpt><trkpt lat="45.8679256" lon="13.8443615"><ele>76.75</ele><time>2026-04-08T13:17:30.844Z</time></trkpt><trkpt lat="45.8678694" lon="13.8445165"><ele>76.5</ele><time>2026-04-08T13:17:31.817Z</time></trkpt><trkpt lat="45.8678135" lon="13.8446646"><ele>76.25</ele><time>2026-04-08T13:17:32.825Z</time></trkpt><trkpt lat="45.8677624" lon="13.844806"><ele>76.0</ele><time>2026-04-08T13:17:33.826Z</time></trkpt><trkpt lat="45.8677237" lon="13.8449583"><ele>76.0</ele><time>2026-04-08T13:17:34.835Z</time></trkpt><trkpt lat="45.8676968" lon="13.8451178"><ele>76.0</ele><time>2026-04-08T13:17:35.832Z</time></trkpt><trkpt lat="45.867672" lon="13.8452716"><ele>76.0</ele><time>2026-04-08T13:17:36.834Z</time></trkpt><trkpt lat="45.8676454" lon="13.8454244"><ele>76.0</ele><time>2026-04-08T13:17:37.845Z</time></trkpt><trkpt lat="45.8676134" lon="13.8455793"><ele>76.0</ele><time>2026-04-08T13:17:38.836Z</time></trkpt><trkpt lat="45.8675784" lon="13.8457379"><ele>78.75</ele><time>2026-04-08T13:17:39.83Z</time></trkpt><trkpt lat="45.8675432" lon="13.8458947"><ele>81.5</ele><time>2026-04-08T13:17:40.834Z</time></trkpt><trkpt lat="45.8675028" lon="13.8460546"><ele>84.25</ele><time>2026-04-08T13:17:41.834Z</time></trkpt><trkpt lat="45.8674678" lon="13.8462108"><ele>87.0</ele><time>2026-04-08T13:17:42.834Z</time></trkpt><trkpt lat="45.8674374" lon="13.8463617"><ele>87.0</ele><time>2026-04-08T13:17:43.825Z</time></trkpt><trkpt lat="45.8674016" lon="13.846508"><ele>87.0</ele><time>2026-04-08T13:17:44.835Z</time></trkpt><trkpt lat="45.8673678" lon="13.8466407"><ele>87.0</ele><time>2026-04-08T13:17:45.838Z</time></trkpt><trkpt lat="45.8673228" lon="13.8467679"><ele>87.0</ele><time>2026-04-08T13:17:46.835Z</time></trkpt><trkpt lat="45.8672737" lon="13.8468869"><ele>87.0</ele><time>2026-04-08T13:17:47.821Z</time></trkpt><trkpt lat="45.86723" lon="13.8469879"><ele>86.8</ele><time>2026-04-08T13:17:48.839Z</time></trkpt><trkpt lat="45.8672025" lon="13.8470884"><ele>86.6</ele><time>2026-04-08T13:17:49.831Z</time></trkpt><trkpt lat="45.8671933" lon="13.847221"><ele>86.39999999999999</ele><time>2026-04-08T13:17:50.844Z</time></trkpt><trkpt lat="45.8671895" lon="13.8473655"><ele>86.19999999999999</ele><time>2026-04-08T13:17:51.831Z</time></trkpt><trkpt lat="45.867178" lon="13.8475244"><ele>86.0</ele><time>2026-04-08T13:17:52.819Z</time></trkpt><trkpt lat="45.8671746" lon="13.8476997"><ele>85.25</ele><time>2026-04-08T13:17:53.834Z</time></trkpt><trkpt lat="45.8671759" lon="13.847878"><ele>84.5</ele><time>2026-04-08T13:17:54.829Z</time></trkpt><trkpt lat="45.8671814" lon="13.8480466"><ele>83.75</ele><time>2026-04-08T13:17:55.833Z</time></trkpt><trkpt lat="45.8671887" lon="13.8482061"><ele>83.0</ele><time>2026-04-08T13:17:56.833Z</time></trkpt><trkpt lat="45.8672015" lon="13.8483576"><ele>83.16666666666667</ele><time>2026-04-08T13:17:57.828Z</time></trkpt><trkpt lat="45.8672065" lon="13.8484817"><ele>83.33333333333334</ele><time>2026-04-08T13:17:58.838Z</time></trkpt><trkpt lat="45.8672124" lon="13.848601"><ele>83.5</ele><time>2026-04-08T13:17:59.896Z</time></trkpt><trkpt lat="45.8672155" lon="13.8487204"><ele>83.66666666666667</ele><time>2026-04-08T13:18:00.832Z</time></trkpt><trkpt lat="45.8672036" lon="13.8488375"><ele>83.83333333333333</ele><time>2026-04-08T13:18:01.861Z</time></trkpt><trkpt lat="45.8671798" lon="13.8489644"><ele>84.0</ele><time>2026-04-08T13:18:02.817Z</time></trkpt><trkpt lat="45.867147" lon="13.8490932"><ele>84.0</ele><time>2026-04-08T13:18:03.832Z</time></trkpt><trkpt lat="45.8671194" lon="13.8492235"><ele>84.0</ele><time>2026-04-08T13:18:04.85Z</time></trkpt><trkpt lat="45.8670939" lon="13.8493517"><ele>84.0</ele><time>2026-04-08T13:18:05.833Z</time></trkpt><trkpt lat="45.8670693" lon="13.8494733"><ele>84.0</ele><time>2026-04-08T13:18:06.83Z</time></trkpt><trkpt lat="45.8670435" lon="13.8495685"><ele>84.0</ele><time>2026-04-08T13:18:07.833Z</time></trkpt><trkpt lat="45.8670231" lon="13.8496774"><ele>84.0</ele><time>2026-04-08T13:18:09.826Z</time></trkpt><trkpt lat="45.8670388" lon="13.8498153"><ele>84.33333333333333</ele><time>2026-04-08T13:18:11.833Z</time></trkpt><trkpt lat="45.8670413" lon="13.8499123"><ele>84.66666666666667</ele><time>2026-04-08T13:18:12.843Z</time></trkpt><trkpt lat="45.8670516" lon="13.8500089"><ele>85.0</ele><time>2026-04-08T13:18:13.839Z</time></trkpt><trkpt lat="45.8670587" lon="13.8501887"><ele>85.33333333333334</ele><time>2026-04-08T13:18:15.845Z</time></trkpt><trkpt lat="45.8670746" lon="13.850284"><ele>85.66666666666667</ele><time>2026-04-08T13:18:16.832Z</time></trkpt><trkpt lat="45.8670935" lon="13.8503706"><ele>86.0</ele><time>2026-04-08T13:18:17.851Z</time></trkpt><trkpt lat="45.867111" lon="13.8504943"><ele>86.0</ele><time>2026-04-08T13:18:19.84Z</time></trkpt><trkpt lat="45.8671948" lon="13.8505625"><ele>86.0</ele><time>2026-04-08T13:18:25.837Z</time></trkpt><trkpt lat="45.8672782" lon="13.8505726"><ele>86.0</ele><time>2026-04-08T13:18:26.839Z</time></trkpt><trkpt lat="45.8673696" lon="13.850602"><ele>86.0</ele><time>2026-04-08T13:18:27.829Z</time></trkpt><trkpt lat="45.8674712" lon="13.8506578"><ele>86.0</ele><time>2026-04-08T13:18:28.835Z</time></trkpt><trkpt lat="45.8675835" lon="13.8507159"><ele>85.19999999999999</ele><time>2026-04-08T13:18:29.844Z</time></trkpt><trkpt lat="45.8676946" lon="13.8507662"><ele>84.39999999999999</ele><time>2026-04-08T13:18:30.843Z</time></trkpt><trkpt lat="45.8678053" lon="13.8508207"><ele>83.6</ele><time>2026-04-08T13:18:31.843Z</time></trkpt><trkpt lat="45.8679026" lon="13.8508818"><ele>82.8</ele><time>2026-04-08T13:18:32.834Z</time></trkpt><trkpt lat="45.8679926" lon="13.8509323"><ele>82.0</ele><time>2026-04-08T13:18:33.828Z</time></trkpt><trkpt lat="45.868075" lon="13.8509633"><ele>82.0</ele><time>2026-04-08T13:18:34.844Z</time></trkpt><trkpt lat="45.868142" lon="13.8509781"><ele>82.0</ele><time>2026-04-08T13:18:35.854Z</time></trkpt><trkpt lat="45.8682464" lon="13.8509962"><ele>82.0</ele><time>2026-04-08T13:18:37.845Z</time></trkpt><trkpt lat="45.8682671" lon="13.8511191"><ele>82.0</ele><time>2026-04-08T13:18:39.853Z</time></trkpt><trkpt lat="45.8682611" lon="13.8512162"><ele>82.0</ele><time>2026-04-08T13:18:40.83Z</time></trkpt><trkpt lat="45.8682557" lon="13.8513234"><ele>82.0</ele><time>2026-04-08T13:18:41.856Z</time></trkpt><trkpt lat="45.8682616" lon="13.851421"><ele>82.0</ele><time>2026-04-08T13:18:42.848Z</time></trkpt><trkpt lat="45.8683108" lon="13.8515812"><ele>82.0</ele><time>2026-04-08T13:18:44.844Z</time></trkpt><trkpt lat="45.8683733" lon="13.8516534"><ele>82.0</ele><time>2026-04-08T13:18:46.835Z</time></trkpt><trkpt lat="45.868326" lon="13.8515428"><ele>82.0</ele><time>2026-04-08T13:19:13.835Z</time></trkpt><trkpt lat="45.8682736" lon="13.8513867"><ele>82.0</ele><time>2026-04-08T13:19:15.846Z</time></trkpt><trkpt lat="45.8682849" lon="13.8511487"><ele>82.0</ele><time>2026-04-08T13:19:18.847Z</time></trkpt><trkpt lat="45.8682971" lon="13.8510241"><ele>82.0</ele><time>2026-04-08T13:19:20.838Z</time></trkpt><trkpt lat="45.8682897" lon="13.8509232"><ele>82.0</ele><time>2026-04-08T13:19:23.841Z</time></trkpt><trkpt lat="45.8682091" lon="13.8509315"><ele>82.0</ele><time>2026-04-08T13:19:29.86Z</time></trkpt><trkpt lat="45.8681479" lon="13.8509968"><ele>82.0</ele><time>2026-04-08T13:19:32.859Z</time></trkpt><trkpt lat="45.8681094" lon="13.8511308"><ele>82.0</ele><time>2026-04-08T13:19:34.83Z</time></trkpt><trkpt lat="45.8680932" lon="13.8512217"><ele>82.0</ele><time>2026-04-08T13:19:35.858Z</time></trkpt><trkpt lat="45.8680806" lon="13.8513115"><ele>82.0</ele><time>2026-04-08T13:19:36.846Z</time></trkpt><trkpt lat="45.8680637" lon="13.8514771"><ele>82.0</ele><time>2026-04-08T13:19:38.887Z</time></trkpt><trkpt lat="45.8680523" lon="13.8516246"><ele>82.0</ele><time>2026-04-08T13:19:40.854Z</time></trkpt><trkpt lat="45.867971" lon="13.8517264"><ele>82.0</ele><time>2026-04-08T13:19:42.843Z</time></trkpt><trkpt lat="45.8678973" lon="13.8518394"><ele>82.0</ele><time>2026-04-08T13:19:44.842Z</time></trkpt><trkpt lat="45.8678076" lon="13.8519742"><ele>82.0</ele><time>2026-04-08T13:19:46.84Z</time></trkpt><trkpt lat="45.867773" lon="13.8520657"><ele>82.0</ele><time>2026-04-08T13:19:47.847Z</time></trkpt><trkpt lat="45.8677608" lon="13.8521582"><ele>82.0</ele><time>2026-04-08T13:19:48.841Z</time></trkpt><trkpt lat="45.8677544" lon="13.8522621"><ele>82.0</ele><time>2026-04-08T13:19:49.834Z</time></trkpt><trkpt lat="45.8677477" lon="13.8523779"><ele>82.0</ele><time>2026-04-08T13:19:50.84Z</time></trkpt><trkpt lat="45.8677297" lon="13.8524893"><ele>82.0</ele><time>2026-04-08T13:19:51.824Z</time></trkpt><trkpt lat="45.8677053" lon="13.852596"><ele>82.0</ele><time>2026-04-08T13:19:52.833Z</time></trkpt><trkpt lat="45.8676682" lon="13.8526945"><ele>82.0</ele><time>2026-04-08T13:19:53.846Z</time></trkpt><trkpt lat="45.8676262" lon="13.8527881"><ele>82.0</ele><time>2026-04-08T13:19:54.836Z</time></trkpt><trkpt lat="45.8675669" lon="13.8529"><ele>82.0</ele><time>2026-04-08T13:19:56.849Z</time></trkpt><trkpt lat="45.867544" lon="13.853055"><ele>82.0</ele><time>2026-04-08T13:19:58.848Z</time></trkpt><trkpt lat="45.8675304" lon="13.8531569"><ele>82.0</ele><time>2026-04-08T13:19:59.84Z</time></trkpt><trkpt lat="45.8675126" lon="13.8532901"><ele>82.0</ele><time>2026-04-08T13:20:00.846Z</time></trkpt><trkpt lat="45.8675034" lon="13.8534272"><ele>82.0</ele><time>2026-04-08T13:20:01.829Z</time></trkpt><trkpt lat="45.8675017" lon="13.8535772"><ele>82.0</ele><time>2026-04-08T13:20:02.836Z</time></trkpt><trkpt lat="45.8675027" lon="13.8537419"><ele>82.0</ele><time>2026-04-08T13:20:03.829Z</time></trkpt><trkpt lat="45.8674955" lon="13.8539008"><ele>82.0</ele><time>2026-04-08T13:20:04.837Z</time></trkpt><trkpt lat="45.8674876" lon="13.8540594"><ele>82.0</ele><time>2026-04-08T13:20:05.844Z</time></trkpt><trkpt lat="45.8674653" lon="13.8542115"><ele>82.0</ele><time>2026-04-08T13:20:06.845Z</time></trkpt><trkpt lat="45.8674293" lon="13.8543576"><ele>82.0</ele><time>2026-04-08T13:20:07.834Z</time></trkpt><trkpt lat="45.8673866" lon="13.8544891"><ele>82.0</ele><time>2026-04-08T13:20:08.844Z</time></trkpt><trkpt lat="45.8673334" lon="13.8546002"><ele>80.5</ele><time>2026-04-08T13:20:09.837Z</time></trkpt><trkpt lat="45.8672711" lon="13.8547155"><ele>79.0</ele><time>2026-04-08T13:20:10.842Z</time></trkpt><trkpt lat="45.8671984" lon="13.8548388"><ele>77.5</ele><time>2026-04-08T13:20:11.847Z</time></trkpt><trkpt lat="45.8671157" lon="13.8549627"><ele>76.0</ele><time>2026-04-08T13:20:12.849Z</time></trkpt><trkpt lat="45.8670269" lon="13.8550928"><ele>76.0</ele><time>2026-04-08T13:20:13.844Z</time></trkpt><trkpt lat="45.8669463" lon="13.8552248"><ele>76.0</ele><time>2026-04-08T13:20:14.846Z</time></trkpt><trkpt lat="45.8668746" lon="13.8553453"><ele>76.0</ele><time>2026-04-08T13:20:15.827Z</time></trkpt><trkpt lat="45.8667987" lon="13.8554492"><ele>76.0</ele><time>2026-04-08T13:20:16.85Z</time></trkpt><trkpt lat="45.8667082" lon="13.8555308"><ele>76.0</ele><time>2026-04-08T13:20:17.838Z</time></trkpt><trkpt lat="45.8665991" lon="13.8555985"><ele>77.5</ele><time>2026-04-08T13:20:18.847Z</time></trkpt><trkpt lat="45.8664867" lon="13.8556705"><ele>79.0</ele><time>2026-04-08T13:20:19.838Z</time></trkpt><trkpt lat="45.8663677" lon="13.8557556"><ele>80.5</ele><time>2026-04-08T13:20:20.849Z</time></trkpt><trkpt lat="45.8662408" lon="13.8558483"><ele>82.0</ele><time>2026-04-08T13:20:21.852Z</time></trkpt><trkpt lat="45.8661088" lon="13.8559415"><ele>82.0</ele><time>2026-04-08T13:20:22.864Z</time></trkpt><trkpt lat="45.8659834" lon="13.8560309"><ele>82.0</ele><time>2026-04-08T13:20:23.838Z</time></trkpt><trkpt lat="45.8658679" lon="13.8561209"><ele>82.0</ele><time>2026-04-08T13:20:24.858Z</time></trkpt><trkpt lat="45.8657718" lon="13.8562312"><ele>82.0</ele><time>2026-04-08T13:20:25.84Z</time></trkpt><trkpt lat="45.865689" lon="13.856362"><ele>82.0</ele><time>2026-04-08T13:20:26.841Z</time></trkpt><trkpt lat="45.8656154" lon="13.8564938"><ele>82.0</ele><time>2026-04-08T13:20:27.839Z</time></trkpt><trkpt lat="45.8655485" lon="13.8566168"><ele>82.0</ele><time>2026-04-08T13:20:28.837Z</time></trkpt><trkpt lat="45.8654831" lon="13.8567441"><ele>82.0</ele><time>2026-04-08T13:20:29.826Z</time></trkpt><trkpt lat="45.8654123" lon="13.8568627"><ele>82.0</ele><time>2026-04-08T13:20:30.84Z</time></trkpt><trkpt lat="45.8653414" lon="13.8569601"><ele>81.19999999999999</ele><time>2026-04-08T13:20:31.828Z</time></trkpt><trkpt lat="45.8652656" lon="13.8570246"><ele>80.39999999999999</ele><time>2026-04-08T13:20:32.84Z</time></trkpt><trkpt lat="45.8651876" lon="13.857074"><ele>79.6</ele><time>2026-04-08T13:20:33.839Z</time></trkpt><trkpt lat="45.8651064" lon="13.8570948"><ele>78.8</ele><time>2026-04-08T13:20:34.842Z</time></trkpt><trkpt lat="45.8650022" lon="13.8571228"><ele>78.0</ele><time>2026-04-08T13:20:36.833Z</time></trkpt><trkpt lat="45.8649452" lon="13.8572432"><ele>79.25</ele><time>2026-04-08T13:20:38.844Z</time></trkpt><trkpt lat="45.864902" lon="13.8573844"><ele>80.5</ele><time>2026-04-08T13:20:39.834Z</time></trkpt><trkpt lat="45.8648657" lon="13.8575357"><ele>81.75</ele><time>2026-04-08T13:20:40.843Z</time></trkpt><trkpt lat="45.8648387" lon="13.8576995"><ele>83.0</ele><time>2026-04-08T13:20:41.84Z</time></trkpt><trkpt lat="45.864736" lon="13.8581653"><ele>83.0</ele><time>2026-04-08T13:20:44.861Z</time></trkpt><trkpt lat="45.8646906" lon="13.8582885"><ele>83.0</ele><time>2026-04-08T13:20:45.839Z</time></trkpt><trkpt lat="45.8646545" lon="13.8583836"><ele>83.0</ele><time>2026-04-08T13:20:46.835Z</time></trkpt><trkpt lat="45.8646174" lon="13.8584832"><ele>83.0</ele><time>2026-04-08T13:20:47.842Z</time></trkpt><trkpt lat="45.8645828" lon="13.8585709"><ele>83.0</ele><time>2026-04-08T13:20:48.844Z</time></trkpt><trkpt lat="45.8645499" lon="13.8586537"><ele>83.0</ele><time>2026-04-08T13:20:49.842Z</time></trkpt><trkpt lat="45.8645174" lon="13.8587371"><ele>82.33333333333334</ele><time>2026-04-08T13:20:50.842Z</time></trkpt><trkpt lat="45.8644904" lon="13.8588192"><ele>81.66666666666667</ele><time>2026-04-08T13:20:51.832Z</time></trkpt><trkpt lat="45.8644682" lon="13.8589083"><ele>81.0</ele><time>2026-04-08T13:20:52.846Z</time></trkpt><trkpt lat="45.864461" lon="13.8590134"><ele>80.33333333333333</ele><time>2026-04-08T13:20:53.844Z</time></trkpt><trkpt lat="45.86446" lon="13.859124"><ele>79.66666666666666</ele><time>2026-04-08T13:20:54.849Z</time></trkpt><trkpt lat="45.8644713" lon="13.8592886"><ele>79.0</ele><time>2026-04-08T13:20:55.832Z</time></trkpt><trkpt lat="45.8644872" lon="13.8596224"><ele>78.60000000000001</ele><time>2026-04-08T13:20:57.844Z</time></trkpt><trkpt lat="45.8644813" lon="13.8597953"><ele>78.2</ele><time>2026-04-08T13:20:58.832Z</time></trkpt><trkpt lat="45.8644564" lon="13.8599566"><ele>77.80000000000001</ele><time>2026-04-08T13:20:59.842Z</time></trkpt><trkpt lat="45.8644226" lon="13.8601029"><ele>77.4</ele><time>2026-04-08T13:21:00.841Z</time></trkpt><trkpt lat="45.864397" lon="13.8602365"><ele>77.0</ele><time>2026-04-08T13:21:01.837Z</time></trkpt><trkpt lat="45.8643917" lon="13.8603451"><ele>77.0</ele><time>2026-04-08T13:21:02.842Z</time></trkpt><trkpt lat="45.8644113" lon="13.8605495"><ele>77.0</ele><time>2026-04-08T13:21:04.835Z</time></trkpt><trkpt lat="45.8644602" lon="13.8606759"><ele>77.0</ele><time>2026-04-08T13:21:05.846Z</time></trkpt><trkpt lat="45.8645084" lon="13.8608431"><ele>77.0</ele><time>2026-04-08T13:21:06.84Z</time></trkpt><trkpt lat="45.8645392" lon="13.8610247"><ele>77.0</ele><time>2026-04-08T13:21:07.847Z</time></trkpt><trkpt lat="45.8645481" lon="13.86123"><ele>77.0</ele><time>2026-04-08T13:21:08.853Z</time></trkpt><trkpt lat="45.8645419" lon="13.8614311"><ele>77.0</ele><time>2026-04-08T13:21:09.837Z</time></trkpt><trkpt lat="45.8645412" lon="13.8616172"><ele>77.0</ele><time>2026-04-08T13:21:10.846Z</time></trkpt><trkpt lat="45.8645415" lon="13.8617814"><ele>77.0</ele><time>2026-04-08T13:21:11.84Z</time></trkpt><trkpt lat="45.8645351" lon="13.8619402"><ele>77.0</ele><time>2026-04-08T13:21:12.842Z</time></trkpt><trkpt lat="45.8645151" lon="13.8621159"><ele>77.0</ele><time>2026-04-08T13:21:13.83Z</time></trkpt><trkpt lat="45.8644907" lon="13.8623127"><ele>77.0</ele><time>2026-04-08T13:21:14.848Z</time></trkpt><trkpt lat="45.8644674" lon="13.8625099"><ele>77.5</ele><time>2026-04-08T13:21:15.837Z</time></trkpt><trkpt lat="45.8644392" lon="13.8627116"><ele>78.0</ele><time>2026-04-08T13:21:16.856Z</time></trkpt><trkpt lat="45.8644118" lon="13.8629007"><ele>78.5</ele><time>2026-04-08T13:21:17.845Z</time></trkpt><trkpt lat="45.8643828" lon="13.8630725"><ele>79.0</ele><time>2026-04-08T13:21:18.85Z</time></trkpt><trkpt lat="45.8643699" lon="13.8632315"><ele>79.0</ele><time>2026-04-08T13:21:19.834Z</time></trkpt><trkpt lat="45.8643791" lon="13.863384"><ele>79.0</ele><time>2026-04-08T13:21:20.843Z</time></trkpt><trkpt lat="45.8643913" lon="13.8635513"><ele>79.0</ele><time>2026-04-08T13:21:21.829Z</time></trkpt><trkpt lat="45.8644056" lon="13.8637244"><ele>79.0</ele><time>2026-04-08T13:21:22.836Z</time></trkpt><trkpt lat="45.8644257" lon="13.8638967"><ele>79.5</ele><time>2026-04-08T13:21:23.827Z</time></trkpt><trkpt lat="45.864464" lon="13.8640954"><ele>80.0</ele><time>2026-04-08T13:21:24.835Z</time></trkpt><trkpt lat="45.8645098" lon="13.8643071"><ele>80.5</ele><time>2026-04-08T13:21:25.845Z</time></trkpt><trkpt lat="45.8645549" lon="13.8645131"><ele>81.0</ele><time>2026-04-08T13:21:26.835Z</time></trkpt><trkpt lat="45.8645929" lon="13.8647127"><ele>81.0</ele><time>2026-04-08T13:21:27.828Z</time></trkpt><trkpt lat="45.8646177" lon="13.8649056"><ele>81.0</ele><time>2026-04-08T13:21:28.851Z</time></trkpt><trkpt lat="45.8646351" lon="13.8650821"><ele>81.0</ele><time>2026-04-08T13:21:29.852Z</time></trkpt><trkpt lat="45.8646581" lon="13.8652366"><ele>81.0</ele><time>2026-04-08T13:21:30.841Z</time></trkpt><trkpt lat="45.8646939" lon="13.8653967"><ele>81.0</ele><time>2026-04-08T13:21:31.837Z</time></trkpt><trkpt lat="45.8647233" lon="13.8655608"><ele>81.0</ele><time>2026-04-08T13:21:32.851Z</time></trkpt><trkpt lat="45.8647426" lon="13.8657212"><ele>81.0</ele><time>2026-04-08T13:21:33.839Z</time></trkpt><trkpt lat="45.864755" lon="13.8658951"><ele>81.0</ele><time>2026-04-08T13:21:34.842Z</time></trkpt><trkpt lat="45.8647517" lon="13.8660761"><ele>81.0</ele><time>2026-04-08T13:21:35.835Z</time></trkpt><trkpt lat="45.8647335" lon="13.8662423"><ele>81.0</ele><time>2026-04-08T13:21:36.837Z</time></trkpt><trkpt lat="45.8647061" lon="13.86638"><ele>81.0</ele><time>2026-04-08T13:21:37.893Z</time></trkpt><trkpt lat="45.8646748" lon="13.8665008"><ele>81.0</ele><time>2026-04-08T13:21:38.909Z</time></trkpt><trkpt lat="45.8646498" lon="13.8666956"><ele>81.0</ele><time>2026-04-08T13:21:40.842Z</time></trkpt><trkpt lat="45.8646618" lon="13.8668094"><ele>81.0</ele><time>2026-04-08T13:21:41.845Z</time></trkpt><trkpt lat="45.8646821" lon="13.8669615"><ele>81.0</ele><time>2026-04-08T13:21:42.836Z</time></trkpt><trkpt lat="45.86469" lon="13.8671406"><ele>81.0</ele><time>2026-04-08T13:21:43.849Z</time></trkpt><trkpt lat="45.8646865" lon="13.8673134"><ele>81.0</ele><time>2026-04-08T13:21:44.849Z</time></trkpt><trkpt lat="45.864664" lon="13.8674907"><ele>80.66666666666667</ele><time>2026-04-08T13:21:45.854Z</time></trkpt><trkpt lat="45.8646205" lon="13.8676816"><ele>80.33333333333334</ele><time>2026-04-08T13:21:46.843Z</time></trkpt><trkpt lat="45.8645529" lon="13.8680986"><ele>80.0</ele><time>2026-04-08T13:21:48.833Z</time></trkpt><trkpt lat="45.864533" lon="13.8682971"><ele>80.25</ele><time>2026-04-08T13:21:49.834Z</time></trkpt><trkpt lat="45.8644978" lon="13.8684861"><ele>80.5</ele><time>2026-04-08T13:21:50.846Z</time></trkpt><trkpt lat="45.8644439" lon="13.8686522"><ele>80.75</ele><time>2026-04-08T13:21:51.834Z</time></trkpt><trkpt lat="45.8643912" lon="13.8688194"><ele>81.0</ele><time>2026-04-08T13:21:52.852Z</time></trkpt><trkpt lat="45.864325" lon="13.8689888"><ele>84.25</ele><time>2026-04-08T13:21:53.839Z</time></trkpt><trkpt lat="45.8642534" lon="13.869153"><ele>87.5</ele><time>2026-04-08T13:21:54.851Z</time></trkpt><trkpt lat="45.8641878" lon="13.8693159"><ele>90.75</ele><time>2026-04-08T13:21:55.833Z</time></trkpt><trkpt lat="45.8641319" lon="13.8694645"><ele>94.0</ele><time>2026-04-08T13:21:56.85Z</time></trkpt><trkpt lat="45.8641033" lon="13.8695932"><ele>94.0</ele><time>2026-04-08T13:21:57.836Z</time></trkpt><trkpt lat="45.8640874" lon="13.8697407"><ele>94.0</ele><time>2026-04-08T13:21:58.833Z</time></trkpt><trkpt lat="45.8640775" lon="13.8699022"><ele>94.0</ele><time>2026-04-08T13:21:59.829Z</time></trkpt><trkpt lat="45.8640771" lon="13.8700502"><ele>94.0</ele><time>2026-04-08T13:22:00.839Z</time></trkpt><trkpt lat="45.8640929" lon="13.8701933"><ele>94.0</ele><time>2026-04-08T13:22:01.827Z</time></trkpt><trkpt lat="45.8641025" lon="13.8703615"><ele>93.5</ele><time>2026-04-08T13:22:02.83Z</time></trkpt><trkpt lat="45.8640976" lon="13.8706862"><ele>93.0</ele><time>2026-04-08T13:22:04.843Z</time></trkpt><trkpt lat="45.8640966" lon="13.8708398"><ele>92.5</ele><time>2026-04-08T13:22:05.828Z</time></trkpt><trkpt lat="45.8640769" lon="13.8710023"><ele>92.0</ele><time>2026-04-08T13:22:06.831Z</time></trkpt><trkpt lat="45.8640703" lon="13.8711489"><ele>91.39999999999999</ele><time>2026-04-08T13:22:07.839Z</time></trkpt><trkpt lat="45.8640729" lon="13.8712785"><ele>90.8</ele><time>2026-04-08T13:22:08.835Z</time></trkpt><trkpt lat="45.8640677" lon="13.8714116"><ele>90.2</ele><time>2026-04-08T13:22:09.841Z</time></trkpt><trkpt lat="45.8640488" lon="13.8715442"><ele>89.6</ele><time>2026-04-08T13:22:10.849Z</time></trkpt><trkpt lat="45.8640176" lon="13.8716813"><ele>89.0</ele><time>2026-04-08T13:22:11.836Z</time></trkpt><trkpt lat="45.8639844" lon="13.8718152"><ele>88.6</ele><time>2026-04-08T13:22:12.839Z</time></trkpt><trkpt lat="45.8639552" lon="13.8719465"><ele>88.2</ele><time>2026-04-08T13:22:13.842Z</time></trkpt><trkpt lat="45.8639199" lon="13.8720726"><ele>87.8</ele><time>2026-04-08T13:22:14.833Z</time></trkpt><trkpt lat="45.8638884" lon="13.8722006"><ele>87.39999999999999</ele><time>2026-04-08T13:22:15.831Z</time></trkpt><trkpt lat="45.8638843" lon="13.8723272"><ele>87.0</ele><time>2026-04-08T13:22:16.85Z</time></trkpt><trkpt lat="45.8638931" lon="13.8724747"><ele>87.5</ele><time>2026-04-08T13:22:17.837Z</time></trkpt><trkpt lat="45.8639086" lon="13.8726455"><ele>88.0</ele><time>2026-04-08T13:22:18.83Z</time></trkpt><trkpt lat="45.8639028" lon="13.8728185"><ele>88.5</ele><time>2026-04-08T13:22:19.843Z</time></trkpt><trkpt lat="45.8638854" lon="13.8729924"><ele>89.0</ele><time>2026-04-08T13:22:20.848Z</time></trkpt><trkpt lat="45.8638653" lon="13.8731706"><ele>89.0</ele><time>2026-04-08T13:22:21.841Z</time></trkpt><trkpt lat="45.8638607" lon="13.8733439"><ele>89.0</ele><time>2026-04-08T13:22:22.843Z</time></trkpt><trkpt lat="45.8638628" lon="13.8735205"><ele>89.0</ele><time>2026-04-08T13:22:23.834Z</time></trkpt><trkpt lat="45.8638741" lon="13.8737103"><ele>89.0</ele><time>2026-04-08T13:22:24.839Z</time></trkpt><trkpt lat="45.863883" lon="13.8739017"><ele>88.4</ele><time>2026-04-08T13:22:25.834Z</time></trkpt><trkpt lat="45.8638922" lon="13.8740788"><ele>87.80000000000001</ele><time>2026-04-08T13:22:26.838Z</time></trkpt><trkpt lat="45.8638983" lon="13.874227"><ele>87.19999999999999</ele><time>2026-04-08T13:22:27.877Z</time></trkpt><trkpt lat="45.8638902" lon="13.8743737"><ele>86.6</ele><time>2026-04-08T13:22:28.831Z</time></trkpt><trkpt lat="45.8638625" lon="13.8745154"><ele>86.0</ele><time>2026-04-08T13:22:29.83Z</time></trkpt><trkpt lat="45.8638374" lon="13.8746559"><ele>85.8</ele><time>2026-04-08T13:22:30.833Z</time></trkpt><trkpt lat="45.8638251" lon="13.8747802"><ele>85.6</ele><time>2026-04-08T13:22:31.84Z</time></trkpt><trkpt lat="45.8638126" lon="13.8749031"><ele>85.4</ele><time>2026-04-08T13:22:32.83Z</time></trkpt><trkpt lat="45.8638107" lon="13.875011"><ele>85.2</ele><time>2026-04-08T13:22:33.834Z</time></trkpt><trkpt lat="45.8638288" lon="13.8751775"><ele>85.0</ele><time>2026-04-08T13:22:35.833Z</time></trkpt><trkpt lat="45.8638643" lon="13.8753971"><ele>85.0</ele><time>2026-04-08T13:22:38.836Z</time></trkpt><trkpt lat="45.8639051" lon="13.8755012"><ele>85.0</ele><time>2026-04-08T13:22:40.841Z</time></trkpt><trkpt lat="45.8639057" lon="13.8753729"><ele>85.0</ele><time>2026-04-08T13:23:15.829Z</time></trkpt><trkpt lat="45.8638948" lon="13.8751924"><ele>85.0</ele><time>2026-04-08T13:23:17.842Z</time></trkpt><trkpt lat="45.8638874" lon="13.8750889"><ele>85.0</ele><time>2026-04-08T13:23:18.826Z</time></trkpt><trkpt lat="45.8638755" lon="13.874984"><ele>85.0</ele><time>2026-04-08T13:23:19.834Z</time></trkpt><trkpt lat="45.8638771" lon="13.8748833"><ele>85.0</ele><time>2026-04-08T13:23:20.84Z</time></trkpt><trkpt lat="45.8638806" lon="13.8747907"><ele>85.0</ele><time>2026-04-08T13:23:21.844Z</time></trkpt><trkpt lat="45.8638768" lon="13.8746543"><ele>85.0</ele><time>2026-04-08T13:23:23.869Z</time></trkpt><trkpt lat="45.863888" lon="13.8744976"><ele>85.0</ele><time>2026-04-08T13:23:26.83Z</time></trkpt><trkpt lat="45.8639194" lon="13.8743665"><ele>85.0</ele><time>2026-04-08T13:23:28.838Z</time></trkpt><trkpt lat="45.8639567" lon="13.8741898"><ele>85.16666666666666</ele><time>2026-04-08T13:23:30.84Z</time></trkpt><trkpt lat="45.8639669" lon="13.8740055"><ele>85.33333333333333</ele><time>2026-04-08T13:23:32.845Z</time></trkpt><trkpt lat="45.8639609" lon="13.8739109"><ele>85.5</ele><time>2026-04-08T13:23:33.824Z</time></trkpt><trkpt lat="45.8639567" lon="13.8738186"><ele>85.66666666666667</ele><time>2026-04-08T13:23:34.833Z</time></trkpt><trkpt lat="45.8639427" lon="13.8737262"><ele>85.83333333333334</ele><time>2026-04-08T13:23:35.828Z</time></trkpt><trkpt lat="45.8639368" lon="13.8736286"><ele>86.0</ele><time>2026-04-08T13:23:36.845Z</time></trkpt><trkpt lat="45.8639135" lon="13.8734949"><ele>86.0</ele><time>2026-04-08T13:23:38.83Z</time></trkpt><trkpt lat="45.8639257" lon="13.8736613"><ele>86.0</ele><time>2026-04-08T13:23:53.826Z</time></trkpt><trkpt lat="45.8639458" lon="13.8737939"><ele>86.0</ele><time>2026-04-08T13:23:54.841Z</time></trkpt><trkpt lat="45.8639542" lon="13.8739203"><ele>86.0</ele><time>2026-04-08T13:23:55.83Z</time></trkpt><trkpt lat="45.863963" lon="13.8740457"><ele>86.0</ele><time>2026-04-08T13:23:56.951Z</time></trkpt><trkpt lat="45.8639701" lon="13.8741776"><ele>85.8</ele><time>2026-04-08T13:23:57.868Z</time></trkpt><trkpt lat="45.8639611" lon="13.8743127"><ele>85.6</ele><time>2026-04-08T13:23:58.831Z</time></trkpt><trkpt lat="45.8639493" lon="13.8744449"><ele>85.4</ele><time>2026-04-08T13:23:59.85Z</time></trkpt><trkpt lat="45.8639215" lon="13.8745935"><ele>85.2</ele><time>2026-04-08T13:24:00.828Z</time></trkpt><trkpt lat="45.8638945" lon="13.8747407"><ele>85.0</ele><time>2026-04-08T13:24:01.844Z</time></trkpt><trkpt lat="45.8638747" lon="13.8748985"><ele>85.0</ele><time>2026-04-08T13:24:02.846Z</time></trkpt><trkpt lat="45.8638648" lon="13.8750631"><ele>85.0</ele><time>2026-04-08T13:24:03.83Z</time></trkpt><trkpt lat="45.8638711" lon="13.8752229"><ele>85.0</ele><time>2026-04-08T13:24:04.841Z</time></trkpt><trkpt lat="45.863886" lon="13.8753707"><ele>85.0</ele><time>2026-04-08T13:24:05.834Z</time></trkpt><trkpt lat="45.863922" lon="13.8755024"><ele>85.0</ele><time>2026-04-08T13:24:06.848Z</time></trkpt><trkpt lat="45.8639836" lon="13.8756251"><ele>85.0</ele><time>2026-04-08T13:24:07.826Z</time></trkpt><trkpt lat="45.8640857" lon="13.8757573"><ele>85.0</ele><time>2026-04-08T13:24:08.838Z</time></trkpt><trkpt lat="45.8641896" lon="13.8758759"><ele>85.0</ele><time>2026-04-08T13:24:09.831Z</time></trkpt><trkpt lat="45.8642805" lon="13.8760097"><ele>85.0</ele><time>2026-04-08T13:24:10.833Z</time></trkpt><trkpt lat="45.8643491" lon="13.8761671"><ele>85.0</ele><time>2026-04-08T13:24:11.827Z</time></trkpt><trkpt lat="45.8644236" lon="13.8763395"><ele>85.0</ele><time>2026-04-08T13:24:12.828Z</time></trkpt><trkpt lat="45.8645017" lon="13.8765177"><ele>85.0</ele><time>2026-04-08T13:24:13.829Z</time></trkpt><trkpt lat="45.8645898" lon="13.8767052"><ele>85.0</ele><time>2026-04-08T13:24:14.845Z</time></trkpt><trkpt lat="45.8646825" lon="13.8768882"><ele>87.75</ele><time>2026-04-08T13:24:15.82Z</time></trkpt><trkpt lat="45.8647735" lon="13.8770649"><ele>90.5</ele><time>2026-04-08T13:24:16.823Z</time></trkpt><trkpt lat="45.8648605" lon="13.8772237"><ele>93.25</ele><time>2026-04-08T13:24:17.822Z</time></trkpt><trkpt lat="45.8649501" lon="13.8773708"><ele>96.0</ele><time>2026-04-08T13:24:18.832Z</time></trkpt><trkpt lat="45.8650381" lon="13.8775164"><ele>94.75</ele><time>2026-04-08T13:24:19.841Z</time></trkpt><trkpt lat="45.8651159" lon="13.8776588"><ele>93.5</ele><time>2026-04-08T13:24:20.854Z</time></trkpt><trkpt lat="45.86518" lon="13.8778138"><ele>92.25</ele><time>2026-04-08T13:24:21.83Z</time></trkpt><trkpt lat="45.865253" lon="13.8779785"><ele>91.0</ele><time>2026-04-08T13:24:22.825Z</time></trkpt><trkpt lat="45.8653263" lon="13.8781273"><ele>91.0</ele><time>2026-04-08T13:24:23.837Z</time></trkpt><trkpt lat="45.8653992" lon="13.8782504"><ele>91.0</ele><time>2026-04-08T13:24:24.835Z</time></trkpt><trkpt lat="45.8654793" lon="13.8783579"><ele>91.0</ele><time>2026-04-08T13:24:25.839Z</time></trkpt><trkpt lat="45.8655581" lon="13.8784602"><ele>91.0</ele><time>2026-04-08T13:24:26.829Z</time></trkpt><trkpt lat="45.865658" lon="13.8785548"><ele>91.0</ele><time>2026-04-08T13:24:27.857Z</time></trkpt><trkpt lat="45.8657513" lon="13.8786521"><ele>90.0</ele><time>2026-04-08T13:24:28.84Z</time></trkpt><trkpt lat="45.8658309" lon="13.8787425"><ele>89.0</ele><time>2026-04-08T13:24:29.835Z</time></trkpt><trkpt lat="45.8659173" lon="13.8788201"><ele>88.0</ele><time>2026-04-08T13:24:31.825Z</time></trkpt><trkpt lat="45.8659895" lon="13.8789076"><ele>87.0</ele><time>2026-04-08T13:24:33.833Z</time></trkpt><trkpt lat="45.8660638" lon="13.8790126"><ele>86.0</ele><time>2026-04-08T13:24:34.843Z</time></trkpt><trkpt lat="45.8661348" lon="13.8791171"><ele>86.0</ele><time>2026-04-08T13:24:35.827Z</time></trkpt><trkpt lat="45.8662007" lon="13.8792328"><ele>86.0</ele><time>2026-04-08T13:24:36.829Z</time></trkpt><trkpt lat="45.866274" lon="13.8793509"><ele>86.0</ele><time>2026-04-08T13:24:37.832Z</time></trkpt><trkpt lat="45.8663625" lon="13.8794728"><ele>86.0</ele><time>2026-04-08T13:24:38.83Z</time></trkpt><trkpt lat="45.8664586" lon="13.8795801"><ele>87.8</ele><time>2026-04-08T13:24:39.829Z</time></trkpt><trkpt lat="45.8665398" lon="13.8796998"><ele>89.6</ele><time>2026-04-08T13:24:40.84Z</time></trkpt><trkpt lat="45.8666087" lon="13.8798154"><ele>91.4</ele><time>2026-04-08T13:24:41.837Z</time></trkpt><trkpt lat="45.8666561" lon="13.8799091"><ele>93.2</ele><time>2026-04-08T13:24:42.842Z</time></trkpt><trkpt lat="45.8666982" lon="13.8799967"><ele>95.0</ele><time>2026-04-08T13:24:43.842Z</time></trkpt><trkpt lat="45.8667569" lon="13.8800844"><ele>92.83333333333334</ele><time>2026-04-08T13:24:44.837Z</time></trkpt><trkpt lat="45.8668092" lon="13.8801799"><ele>90.66666666666667</ele><time>2026-04-08T13:24:45.832Z</time></trkpt><trkpt lat="45.8668529" lon="13.8802832"><ele>88.5</ele><time>2026-04-08T13:24:46.851Z</time></trkpt><trkpt lat="45.8668731" lon="13.8803875"><ele>86.33333333333333</ele><time>2026-04-08T13:24:47.856Z</time></trkpt><trkpt lat="45.8668887" lon="13.8805097"><ele>84.16666666666666</ele><time>2026-04-08T13:24:48.834Z</time></trkpt><trkpt lat="45.8668993" lon="13.8806518"><ele>82.0</ele><time>2026-04-08T13:24:49.848Z</time></trkpt><trkpt lat="45.8669033" lon="13.8808038"><ele>82.0</ele><time>2026-04-08T13:24:50.852Z</time></trkpt><trkpt lat="45.8669113" lon="13.8809446"><ele>82.0</ele><time>2026-04-08T13:24:51.848Z</time></trkpt><trkpt lat="45.8669236" lon="13.8810757"><ele>82.0</ele><time>2026-04-08T13:24:52.837Z</time></trkpt><trkpt lat="45.8669373" lon="13.8811913"><ele>82.0</ele><time>2026-04-08T13:24:53.832Z</time></trkpt><trkpt lat="45.866946" lon="13.8813044"><ele>82.0</ele><time>2026-04-08T13:24:54.83Z</time></trkpt><trkpt lat="45.8669452" lon="13.8814185"><ele>82.0</ele><time>2026-04-08T13:24:55.826Z</time></trkpt><trkpt lat="45.8669327" lon="13.8815248"><ele>82.0</ele><time>2026-04-08T13:24:56.844Z</time></trkpt><trkpt lat="45.8669177" lon="13.8816294"><ele>82.0</ele><time>2026-04-08T13:24:57.825Z</time></trkpt><trkpt lat="45.8669008" lon="13.8817266"><ele>82.0</ele><time>2026-04-08T13:24:58.845Z</time></trkpt><trkpt lat="45.866875" lon="13.8818834"><ele>82.0</ele><time>2026-04-08T13:25:00.843Z</time></trkpt><trkpt lat="45.8668628" lon="13.8820006"><ele>82.0</ele><time>2026-04-08T13:25:02.839Z</time></trkpt><trkpt lat="45.8668757" lon="13.8821214"><ele>82.0</ele><time>2026-04-08T13:25:04.85Z</time></trkpt><trkpt lat="45.8668839" lon="13.8822969"><ele>81.99999999999999</ele><time>2026-04-08T13:25:06.845Z</time></trkpt><trkpt lat="45.8668844" lon="13.8823928"><ele>82.0</ele><time>2026-04-08T13:25:07.831Z</time></trkpt><trkpt lat="45.8668825" lon="13.882489"><ele>82.0</ele><time>2026-04-08T13:25:08.847Z</time></trkpt><trkpt lat="45.8668812" lon="13.8825897"><ele>82.0</ele><time>2026-04-08T13:25:09.828Z</time></trkpt><trkpt lat="45.8668807" lon="13.8826926"><ele>82.0</ele><time>2026-04-08T13:25:10.843Z</time></trkpt><trkpt lat="45.8668835" lon="13.8827912"><ele>81.99999999999999</ele><time>2026-04-08T13:25:11.848Z</time></trkpt><trkpt lat="45.8668863" lon="13.8828888"><ele>82.0</ele><time>2026-04-08T13:25:12.84Z</time></trkpt><trkpt lat="45.8668794" lon="13.8829903"><ele>81.66666666666666</ele><time>2026-04-08T13:25:13.824Z</time></trkpt><trkpt lat="45.8668705" lon="13.8830919"><ele>81.33333333333333</ele><time>2026-04-08T13:25:14.842Z</time></trkpt><trkpt lat="45.8668608" lon="13.8831995"><ele>81.0</ele><time>2026-04-08T13:25:15.826Z</time></trkpt><trkpt lat="45.8668437" lon="13.8833107"><ele>80.66666666666667</ele><time>2026-04-08T13:25:16.848Z</time></trkpt><trkpt lat="45.8668259" lon="13.8834323"><ele>80.33333333333334</ele><time>2026-04-08T13:25:17.837Z</time></trkpt><trkpt lat="45.8667985" lon="13.8835626"><ele>80.0</ele><time>2026-04-08T13:25:18.836Z</time></trkpt><trkpt lat="45.8667708" lon="13.8836991"><ele>80.8</ele><time>2026-04-08T13:25:19.849Z</time></trkpt><trkpt lat="45.8667403" lon="13.8838367"><ele>81.6</ele><time>2026-04-08T13:25:20.856Z</time></trkpt><trkpt lat="45.8667005" lon="13.8839749"><ele>82.4</ele><time>2026-04-08T13:25:21.852Z</time></trkpt><trkpt lat="45.8666495" lon="13.8841108"><ele>83.2</ele><time>2026-04-08T13:25:22.838Z</time></trkpt><trkpt lat="45.8665887" lon="13.8842433"><ele>84.0</ele><time>2026-04-08T13:25:23.831Z</time></trkpt><trkpt lat="45.8665328" lon="13.8843853"><ele>84.0</ele><time>2026-04-08T13:25:24.837Z</time></trkpt><trkpt lat="45.8664755" lon="13.8845326"><ele>84.0</ele><time>2026-04-08T13:25:25.838Z</time></trkpt><trkpt lat="45.8664279" lon="13.8846858"><ele>84.0</ele><time>2026-04-08T13:25:26.855Z</time></trkpt><trkpt lat="45.8663836" lon="13.8848421"><ele>84.0</ele><time>2026-04-08T13:25:27.837Z</time></trkpt><trkpt lat="45.8663529" lon="13.885"><ele>84.0</ele><time>2026-04-08T13:25:28.836Z</time></trkpt><trkpt lat="45.8663564" lon="13.8851811"><ele>84.0</ele><time>2026-04-08T13:25:29.83Z</time></trkpt><trkpt lat="45.8663737" lon="13.8853873"><ele>84.0</ele><time>2026-04-08T13:25:30.837Z</time></trkpt><trkpt lat="45.8663925" lon="13.885609"><ele>84.0</ele><time>2026-04-08T13:25:31.83Z</time></trkpt><trkpt lat="45.8664033" lon="13.8858186"><ele>84.33333333333333</ele><time>2026-04-08T13:25:32.829Z</time></trkpt><trkpt lat="45.8664063" lon="13.8860324"><ele>84.66666666666666</ele><time>2026-04-08T13:25:33.834Z</time></trkpt><trkpt lat="45.8663974" lon="13.8862484"><ele>85.0</ele><time>2026-04-08T13:25:34.83Z</time></trkpt><trkpt lat="45.8663797" lon="13.8864624"><ele>85.0</ele><time>2026-04-08T13:25:35.836Z</time></trkpt><trkpt lat="45.8663573" lon="13.8866717"><ele>85.0</ele><time>2026-04-08T13:25:36.841Z</time></trkpt><trkpt lat="45.8663348" lon="13.8868717"><ele>85.0</ele><time>2026-04-08T13:25:37.826Z</time></trkpt><trkpt lat="45.8662953" lon="13.8870628"><ele>85.0</ele><time>2026-04-08T13:25:38.844Z</time></trkpt><trkpt lat="45.8662507" lon="13.887249"><ele>85.0</ele><time>2026-04-08T13:25:39.831Z</time></trkpt><trkpt lat="45.8662121" lon="13.8874291"><ele>85.0</ele><time>2026-04-08T13:25:40.837Z</time></trkpt><trkpt lat="45.8661963" lon="13.887589"><ele>85.0</ele><time>2026-04-08T13:25:41.827Z</time></trkpt><trkpt lat="45.8661922" lon="13.88776"><ele>85.0</ele><time>2026-04-08T13:25:42.824Z</time></trkpt><trkpt lat="45.8662138" lon="13.8881684"><ele>85.25</ele><time>2026-04-08T13:25:44.825Z</time></trkpt><trkpt lat="45.8662274" lon="13.8883775"><ele>85.5</ele><time>2026-04-08T13:25:45.836Z</time></trkpt><trkpt lat="45.8662454" lon="13.8885663"><ele>85.75</ele><time>2026-04-08T13:25:46.834Z</time></trkpt><trkpt lat="45.8662777" lon="13.8887312"><ele>86.0</ele><time>2026-04-08T13:25:47.824Z</time></trkpt><trkpt lat="45.8663184" lon="13.8889016"><ele>86.0</ele><time>2026-04-08T13:25:48.831Z</time></trkpt><trkpt lat="45.8663656" lon="13.8890571"><ele>86.0</ele><time>2026-04-08T13:25:49.838Z</time></trkpt><trkpt lat="45.8664141" lon="13.8891876"><ele>86.0</ele><time>2026-04-08T13:25:50.84Z</time></trkpt><trkpt lat="45.8664546" lon="13.8893082"><ele>86.0</ele><time>2026-04-08T13:25:51.834Z</time></trkpt><trkpt lat="45.8664944" lon="13.8894385"><ele>86.0</ele><time>2026-04-08T13:25:52.825Z</time></trkpt><trkpt lat="45.8665213" lon="13.8895831"><ele>86.19999999999999</ele><time>2026-04-08T13:25:53.839Z</time></trkpt><trkpt lat="45.8665493" lon="13.8897336"><ele>86.39999999999999</ele><time>2026-04-08T13:25:54.833Z</time></trkpt><trkpt lat="45.8665705" lon="13.8898864"><ele>86.6</ele><time>2026-04-08T13:25:55.842Z</time></trkpt><trkpt lat="45.8665871" lon="13.8900325"><ele>86.8</ele><time>2026-04-08T13:25:56.848Z</time></trkpt><trkpt lat="45.8665998" lon="13.8901797"><ele>87.0</ele><time>2026-04-08T13:25:57.839Z</time></trkpt><trkpt lat="45.8666191" lon="13.89034"><ele>88.25</ele><time>2026-04-08T13:25:58.838Z</time></trkpt><trkpt lat="45.8666246" lon="13.8905057"><ele>89.5</ele><time>2026-04-08T13:25:59.838Z</time></trkpt><trkpt lat="45.8666193" lon="13.890665"><ele>90.75</ele><time>2026-04-08T13:26:00.836Z</time></trkpt><trkpt lat="45.8665897" lon="13.8908351"><ele>92.0</ele><time>2026-04-08T13:26:01.844Z</time></trkpt><trkpt lat="45.8665493" lon="13.891011"><ele>92.0</ele><time>2026-04-08T13:26:02.848Z</time></trkpt><trkpt lat="45.8665155" lon="13.8911799"><ele>92.0</ele><time>2026-04-08T13:26:03.832Z</time></trkpt><trkpt lat="45.8664976" lon="13.8913348"><ele>92.0</ele><time>2026-04-08T13:26:04.827Z</time></trkpt><trkpt lat="45.8664865" lon="13.8914677"><ele>92.0</ele><time>2026-04-08T13:26:05.837Z</time></trkpt><trkpt lat="45.866488" lon="13.8915981"><ele>92.0</ele><time>2026-04-08T13:26:06.83Z</time></trkpt><trkpt lat="45.8665115" lon="13.8917566"><ele>91.5</ele><time>2026-04-08T13:26:07.831Z</time></trkpt><trkpt lat="45.866531" lon="13.891912"><ele>91.0</ele><time>2026-04-08T13:26:08.84Z</time></trkpt><trkpt lat="45.8665397" lon="13.892059"><ele>90.5</ele><time>2026-04-08T13:26:09.841Z</time></trkpt><trkpt lat="45.8665479" lon="13.8922259"><ele>90.0</ele><time>2026-04-08T13:26:10.839Z</time></trkpt><trkpt lat="45.8665479" lon="13.8924303"><ele>89.0</ele><time>2026-04-08T13:26:11.843Z</time></trkpt><trkpt lat="45.8665447" lon="13.8926345"><ele>88.0</ele><time>2026-04-08T13:26:12.837Z</time></trkpt><trkpt lat="45.8665517" lon="13.8928168"><ele>87.0</ele><time>2026-04-08T13:26:13.838Z</time></trkpt><trkpt lat="45.8665454" lon="13.8929913"><ele>86.0</ele><time>2026-04-08T13:26:14.831Z</time></trkpt><trkpt lat="45.8665386" lon="13.893159"><ele>86.0</ele><time>2026-04-08T13:26:15.833Z</time></trkpt><trkpt lat="45.8665174" lon="13.893312"><ele>86.0</ele><time>2026-04-08T13:26:16.828Z</time></trkpt><trkpt lat="45.8664798" lon="13.893449"><ele>86.0</ele><time>2026-04-08T13:26:17.836Z</time></trkpt><trkpt lat="45.866439" lon="13.8935517"><ele>86.0</ele><time>2026-04-08T13:26:18.848Z</time></trkpt><trkpt lat="45.8663856" lon="13.8936442"><ele>86.0</ele><time>2026-04-08T13:26:19.834Z</time></trkpt><trkpt lat="45.8663101" lon="13.8937471"><ele>84.75</ele><time>2026-04-08T13:26:20.847Z</time></trkpt><trkpt lat="45.8662019" lon="13.8938536"><ele>83.5</ele><time>2026-04-08T13:26:21.831Z</time></trkpt><trkpt lat="45.8661151" lon="13.8939871"><ele>82.25</ele><time>2026-04-08T13:26:22.841Z</time></trkpt><trkpt lat="45.8660345" lon="13.8941713"><ele>81.0</ele><time>2026-04-08T13:26:23.833Z</time></trkpt><trkpt lat="45.8659599" lon="13.8943656"><ele>84.25</ele><time>2026-04-08T13:26:24.848Z</time></trkpt><trkpt lat="45.8658887" lon="13.8945424"><ele>87.5</ele><time>2026-04-08T13:26:25.839Z</time></trkpt><trkpt lat="45.8657962" lon="13.8947041"><ele>90.75</ele><time>2026-04-08T13:26:26.844Z</time></trkpt><trkpt lat="45.8657055" lon="13.8948753"><ele>94.0</ele><time>2026-04-08T13:26:27.832Z</time></trkpt><trkpt lat="45.8656146" lon="13.8950534"><ele>91.75</ele><time>2026-04-08T13:26:28.831Z</time></trkpt><trkpt lat="45.8655338" lon="13.8952178"><ele>89.5</ele><time>2026-04-08T13:26:29.831Z</time></trkpt><trkpt lat="45.8654671" lon="13.8953787"><ele>87.25</ele><time>2026-04-08T13:26:30.846Z</time></trkpt><trkpt lat="45.865413" lon="13.8955436"><ele>85.0</ele><time>2026-04-08T13:26:31.833Z</time></trkpt><trkpt lat="45.8653634" lon="13.8957049"><ele>85.0</ele><time>2026-04-08T13:26:32.837Z</time></trkpt><trkpt lat="45.8653058" lon="13.8958451"><ele>85.0</ele><time>2026-04-08T13:26:33.836Z</time></trkpt><trkpt lat="45.8652469" lon="13.895957"><ele>85.0</ele><time>2026-04-08T13:26:34.834Z</time></trkpt><trkpt lat="45.8651936" lon="13.8960755"><ele>85.0</ele><time>2026-04-08T13:26:35.834Z</time></trkpt><trkpt lat="45.8651373" lon="13.896178"><ele>85.0</ele><time>2026-04-08T13:26:36.834Z</time></trkpt><trkpt lat="45.8650687" lon="13.8962505"><ele>86.6</ele><time>2026-04-08T13:26:37.84Z</time></trkpt><trkpt lat="45.8649971" lon="13.8963"><ele>88.2</ele><time>2026-04-08T13:26:38.843Z</time></trkpt><trkpt lat="45.8649279" lon="13.8963413"><ele>89.80000000000001</ele><time>2026-04-08T13:26:39.828Z</time></trkpt><trkpt lat="45.8648449" lon="13.8964376"><ele>91.4</ele><time>2026-04-08T13:26:41.838Z</time></trkpt><trkpt lat="45.8647971" lon="13.8965684"><ele>93.0</ele><time>2026-04-08T13:26:43.866Z</time></trkpt><trkpt lat="45.864759" lon="13.8966851"><ele>92.25</ele><time>2026-04-08T13:26:44.842Z</time></trkpt><trkpt lat="45.8647226" lon="13.8968161"><ele>91.5</ele><time>2026-04-08T13:26:45.835Z</time></trkpt><trkpt lat="45.8646946" lon="13.8969772"><ele>90.75</ele><time>2026-04-08T13:26:46.837Z</time></trkpt><trkpt lat="45.8646983" lon="13.8973092"><ele>90.0</ele><time>2026-04-08T13:26:48.845Z</time></trkpt><trkpt lat="45.8646993" lon="13.8974587"><ele>89.8</ele><time>2026-04-08T13:26:49.835Z</time></trkpt><trkpt lat="45.8646885" lon="13.8975967"><ele>89.6</ele><time>2026-04-08T13:26:50.852Z</time></trkpt><trkpt lat="45.8646733" lon="13.8977221"><ele>89.4</ele><time>2026-04-08T13:26:51.85Z</time></trkpt><trkpt lat="45.8646747" lon="13.8978389"><ele>89.2</ele><time>2026-04-08T13:26:52.845Z</time></trkpt><trkpt lat="45.8647079" lon="13.8979657"><ele>89.0</ele><time>2026-04-08T13:26:53.829Z</time></trkpt><trkpt lat="45.8647711" lon="13.8980889"><ele>89.0</ele><time>2026-04-08T13:26:54.842Z</time></trkpt><trkpt lat="45.86484" lon="13.8982163"><ele>89.0</ele><time>2026-04-08T13:26:55.849Z</time></trkpt><trkpt lat="45.8649027" lon="13.8983318"><ele>89.0</ele><time>2026-04-08T13:26:56.832Z</time></trkpt><trkpt lat="45.8649461" lon="13.8984112"><ele>89.0</ele><time>2026-04-08T13:26:57.841Z</time></trkpt><trkpt lat="45.8649932" lon="13.8985548"><ele>89.0</ele><time>2026-04-08T13:26:59.845Z</time></trkpt><trkpt lat="45.8650112" lon="13.8986647"><ele>89.5</ele><time>2026-04-08T13:27:00.852Z</time></trkpt><trkpt lat="45.8650396" lon="13.8988051"><ele>90.0</ele><time>2026-04-08T13:27:01.833Z</time></trkpt><trkpt lat="45.865078" lon="13.8989965"><ele>90.5</ele><time>2026-04-08T13:27:02.848Z</time></trkpt><trkpt lat="45.8651101" lon="13.8992095"><ele>91.0</ele><time>2026-04-08T13:27:03.864Z</time></trkpt><trkpt lat="45.8651224" lon="13.8996542"><ele>91.33333333333333</ele><time>2026-04-08T13:27:05.831Z</time></trkpt><trkpt lat="45.8650443" lon="13.9000008"><ele>91.66666666666667</ele><time>2026-04-08T13:27:07.835Z</time></trkpt><trkpt lat="45.8650167" lon="13.9001462"><ele>92.0</ele><time>2026-04-08T13:27:08.835Z</time></trkpt><trkpt lat="45.86502" lon="13.9003129"><ele>93.0</ele><time>2026-04-08T13:27:09.837Z</time></trkpt><trkpt lat="45.8650376" lon="13.900499"><ele>94.0</ele><time>2026-04-08T13:27:10.834Z</time></trkpt><trkpt lat="45.8650608" lon="13.9006943"><ele>95.0</ele><time>2026-04-08T13:27:11.854Z</time></trkpt><trkpt lat="45.8650796" lon="13.9008848"><ele>96.0</ele><time>2026-04-08T13:27:12.851Z</time></trkpt><trkpt lat="45.8650984" lon="13.9010599"><ele>94.5</ele><time>2026-04-08T13:27:13.852Z</time></trkpt><trkpt lat="45.8651146" lon="13.9012058"><ele>93.0</ele><time>2026-04-08T13:27:14.835Z</time></trkpt><trkpt lat="45.8651321" lon="13.9013243"><ele>91.5</ele><time>2026-04-08T13:27:15.843Z</time></trkpt><trkpt lat="45.8651583" lon="13.9014717"><ele>90.0</ele><time>2026-04-08T13:27:17.833Z</time></trkpt><trkpt lat="45.8651728" lon="13.9015647"><ele>88.5</ele><time>2026-04-08T13:27:23.844Z</time></trkpt><trkpt lat="45.8651776" lon="13.9016765"><ele>87.0</ele><time>2026-04-08T13:27:24.848Z</time></trkpt><trkpt lat="45.8651632" lon="13.9018265"><ele>87.0</ele><time>2026-04-08T13:27:25.838Z</time></trkpt><trkpt lat="45.8651391" lon="13.9020007"><ele>87.0</ele><time>2026-04-08T13:27:26.837Z</time></trkpt><trkpt lat="45.8650905" lon="13.9021959"><ele>87.0</ele><time>2026-04-08T13:27:27.839Z</time></trkpt><trkpt lat="45.8649918" lon="13.902647"><ele>89.66666666666667</ele><time>2026-04-08T13:27:29.848Z</time></trkpt><trkpt lat="45.864945" lon="13.902877"><ele>92.33333333333334</ele><time>2026-04-08T13:27:30.858Z</time></trkpt><trkpt lat="45.864905" lon="13.9030983"><ele>95.0</ele><time>2026-04-08T13:27:31.873Z</time></trkpt><trkpt lat="45.8648685" lon="13.9033048"><ele>94.8</ele><time>2026-04-08T13:27:32.836Z</time></trkpt><trkpt lat="45.8648291" lon="13.9035001"><ele>94.6</ele><time>2026-04-08T13:27:33.877Z</time></trkpt><trkpt lat="45.8647916" lon="13.9036733"><ele>94.4</ele><time>2026-04-08T13:27:34.848Z</time></trkpt><trkpt lat="45.8647599" lon="13.9038053"><ele>94.2</ele><time>2026-04-08T13:27:35.847Z</time></trkpt><trkpt lat="45.8647372" lon="13.9039149"><ele>94.0</ele><time>2026-04-08T13:27:36.83Z</time></trkpt><trkpt lat="45.8647129" lon="13.9040103"><ele>94.0</ele><time>2026-04-08T13:27:37.839Z</time></trkpt><trkpt lat="45.864692" lon="13.9041"><ele>94.0</ele><time>2026-04-08T13:27:38.843Z</time></trkpt><trkpt lat="45.8646703" lon="13.9041897"><ele>94.0</ele><time>2026-04-08T13:27:39.845Z</time></trkpt><trkpt lat="45.8646384" lon="13.9042819"><ele>94.0</ele><time>2026-04-08T13:27:40.852Z</time></trkpt><trkpt lat="45.8646072" lon="13.9043756"><ele>94.0</ele><time>2026-04-08T13:27:41.837Z</time></trkpt><trkpt lat="45.8645667" lon="13.9044578"><ele>94.0</ele><time>2026-04-08T13:27:42.852Z</time></trkpt><trkpt lat="45.864523" lon="13.9045363"><ele>94.0</ele><time>2026-04-08T13:27:43.839Z</time></trkpt><trkpt lat="45.8644864" lon="13.9046365"><ele>93.75</ele><time>2026-04-08T13:27:44.834Z</time></trkpt><trkpt lat="45.8644537" lon="13.9047566"><ele>93.5</ele><time>2026-04-08T13:27:45.836Z</time></trkpt><trkpt lat="45.8644256" lon="13.904915"><ele>93.25</ele><time>2026-04-08T13:27:46.855Z</time></trkpt><trkpt lat="45.8644036" lon="13.905098"><ele>93.0</ele><time>2026-04-08T13:27:47.848Z</time></trkpt><trkpt lat="45.8643666" lon="13.905293"><ele>92.5</ele><time>2026-04-08T13:27:48.827Z</time></trkpt><trkpt lat="45.8643205" lon="13.9054935"><ele>92.0</ele><time>2026-04-08T13:27:49.831Z</time></trkpt><trkpt lat="45.8642616" lon="13.9056905"><ele>91.5</ele><time>2026-04-08T13:27:50.844Z</time></trkpt><trkpt lat="45.8641831" lon="13.9058787"><ele>91.0</ele><time>2026-04-08T13:27:51.846Z</time></trkpt><trkpt lat="45.8640821" lon="13.9060614"><ele>96.25</ele><time>2026-04-08T13:27:52.857Z</time></trkpt><trkpt lat="45.8639722" lon="13.9062351"><ele>101.5</ele><time>2026-04-08T13:27:53.831Z</time></trkpt><trkpt lat="45.8638657" lon="13.9063843"><ele>106.75</ele><time>2026-04-08T13:27:54.838Z</time></trkpt><trkpt lat="45.8637708" lon="13.9065264"><ele>112.0</ele><time>2026-04-08T13:27:55.853Z</time></trkpt><trkpt lat="45.8636978" lon="13.906693"><ele>111.33333333333334</ele><time>2026-04-08T13:27:56.847Z</time></trkpt><trkpt lat="45.8636582" lon="13.9069018"><ele>110.66666666666666</ele><time>2026-04-08T13:27:57.842Z</time></trkpt><trkpt lat="45.8636334" lon="13.9071431"><ele>110.0</ele><time>2026-04-08T13:27:58.841Z</time></trkpt><trkpt lat="45.8635919" lon="13.9073915"><ele>106.33333333333333</ele><time>2026-04-08T13:27:59.827Z</time></trkpt><trkpt lat="45.863532" lon="13.9076489"><ele>102.66666666666666</ele><time>2026-04-08T13:28:00.842Z</time></trkpt><trkpt lat="45.8634701" lon="13.9079134"><ele>99.0</ele><time>2026-04-08T13:28:01.833Z</time></trkpt><trkpt lat="45.8634061" lon="13.9081721"><ele>111.33333333333334</ele><time>2026-04-08T13:28:02.828Z</time></trkpt><trkpt lat="45.8633301" lon="13.9084365"><ele>123.66666666666667</ele><time>2026-04-08T13:28:03.843Z</time></trkpt><trkpt lat="45.8632473" lon="13.9087002"><ele>136.0</ele><time>2026-04-08T13:28:04.829Z</time></trkpt><trkpt lat="45.8631669" lon="13.9089617"><ele>136.0</ele><time>2026-04-08T13:28:05.837Z</time></trkpt><trkpt lat="45.863099" lon="13.9092042"><ele>136.0</ele><time>2026-04-08T13:28:06.84Z</time></trkpt><trkpt lat="45.8630265" lon="13.9094132"><ele>136.0</ele><time>2026-04-08T13:28:07.836Z</time></trkpt><trkpt lat="45.8629495" lon="13.9096012"><ele>134.25</ele><time>2026-04-08T13:28:08.836Z</time></trkpt><trkpt lat="45.8628661" lon="13.909787"><ele>132.5</ele><time>2026-04-08T13:28:09.843Z</time></trkpt><trkpt lat="45.8627821" lon="13.9099474"><ele>130.75</ele><time>2026-04-08T13:28:10.832Z</time></trkpt><trkpt lat="45.8626979" lon="13.9100737"><ele>129.0</ele><time>2026-04-08T13:28:11.832Z</time></trkpt><trkpt lat="45.8626163" lon="13.9101485"><ele>129.0</ele><time>2026-04-08T13:28:12.83Z</time></trkpt><trkpt lat="45.8625197" lon="13.910111"><ele>129.0</ele><time>2026-04-08T13:28:14.843Z</time></trkpt><trkpt lat="45.862559" lon="13.9099634"><ele>129.0</ele><time>2026-04-08T13:28:16.84Z</time></trkpt><trkpt lat="45.8626262" lon="13.9098409"><ele>129.0</ele><time>2026-04-08T13:28:17.832Z</time></trkpt><trkpt lat="45.8626886" lon="13.9096592"><ele>129.0</ele><time>2026-04-08T13:28:18.841Z</time></trkpt><trkpt lat="45.8627199" lon="13.9094175"><ele>129.0</ele><time>2026-04-08T13:28:19.83Z</time></trkpt><trkpt lat="45.8627263" lon="13.9091439"><ele>129.0</ele><time>2026-04-08T13:28:20.83Z</time></trkpt><trkpt lat="45.8627197" lon="13.9088481"><ele>131.33333333333334</ele><time>2026-04-08T13:28:21.826Z</time></trkpt><trkpt lat="45.8627177" lon="13.9085663"><ele>133.66666666666669</ele><time>2026-04-08T13:28:22.831Z</time></trkpt><trkpt lat="45.8627146" lon="13.9083223"><ele>136.0</ele><time>2026-04-08T13:28:23.835Z</time></trkpt><trkpt lat="45.862713" lon="13.9081231"><ele>137.0</ele><time>2026-04-08T13:28:24.826Z</time></trkpt><trkpt lat="45.8627011" lon="13.9079336"><ele>138.0</ele><time>2026-04-08T13:28:25.83Z</time></trkpt><trkpt lat="45.8626867" lon="13.9077453"><ele>139.0</ele><time>2026-04-08T13:28:26.83Z</time></trkpt><trkpt lat="45.8626734" lon="13.907548"><ele>140.0</ele><time>2026-04-08T13:28:27.833Z</time></trkpt><trkpt lat="45.8626485" lon="13.9073282"><ele>155.66666666666666</ele><time>2026-04-08T13:28:28.856Z</time></trkpt><trkpt lat="45.8626122" lon="13.907104"><ele>171.33333333333334</ele><time>2026-04-08T13:28:29.839Z</time></trkpt><trkpt lat="45.8625662" lon="13.9068889"><ele>187.0</ele><time>2026-04-08T13:28:30.841Z</time></trkpt><trkpt lat="45.8625067" lon="13.9066881"><ele>187.0</ele><time>2026-04-08T13:28:31.849Z</time></trkpt><trkpt lat="45.8624237" lon="13.9065047"><ele>187.0</ele><time>2026-04-08T13:28:32.832Z</time></trkpt><trkpt lat="45.8623421" lon="13.9063164"><ele>187.0</ele><time>2026-04-08T13:28:33.854Z</time></trkpt><trkpt lat="45.8622792" lon="13.9061431"><ele>187.0</ele><time>2026-04-08T13:28:34.845Z</time></trkpt><trkpt lat="45.8622382" lon="13.9060131"><ele>187.0</ele><time>2026-04-08T13:28:35.827Z</time></trkpt><trkpt lat="45.8621903" lon="13.9059307"><ele>187.0</ele><time>2026-04-08T13:28:36.837Z</time></trkpt><trkpt lat="45.8620801" lon="13.9059652"><ele>187.0</ele><time>2026-04-08T13:28:38.829Z</time></trkpt><trkpt lat="45.8620651" lon="13.9060686"><ele>187.0</ele><time>2026-04-08T13:28:39.834Z</time></trkpt><trkpt lat="45.8621024" lon="13.9062175"><ele>187.0</ele><time>2026-04-08T13:28:40.828Z</time></trkpt><trkpt lat="45.8621435" lon="13.906424"><ele>187.0</ele><time>2026-04-08T13:28:41.86Z</time></trkpt><trkpt lat="45.8621932" lon="13.9066546"><ele>187.0</ele><time>2026-04-08T13:28:42.848Z</time></trkpt><trkpt lat="45.86223" lon="13.9069025"><ele>187.0</ele><time>2026-04-08T13:28:43.83Z</time></trkpt><trkpt lat="45.8622471" lon="13.9071418"><ele>188.66666666666669</ele><time>2026-04-08T13:28:44.848Z</time></trkpt><trkpt lat="45.8622288" lon="13.9073799"><ele>190.33333333333334</ele><time>2026-04-08T13:28:45.833Z</time></trkpt><trkpt lat="45.8622033" lon="13.9076212"><ele>192.0</ele><time>2026-04-08T13:28:46.841Z</time></trkpt><trkpt lat="45.8621675" lon="13.9078534"><ele>192.0</ele><time>2026-04-08T13:28:47.853Z</time></trkpt><trkpt lat="45.8621098" lon="13.9080861"><ele>192.0</ele><time>2026-04-08T13:28:48.827Z</time></trkpt><trkpt lat="45.8620451" lon="13.9083137"><ele>192.0</ele><time>2026-04-08T13:28:49.833Z</time></trkpt><trkpt lat="45.8619822" lon="13.9085166"><ele>186.66666666666666</ele><time>2026-04-08T13:28:50.952Z</time></trkpt><trkpt lat="45.8618187" lon="13.9087751"><ele>181.33333333333331</ele><time>2026-04-08T13:28:52.83Z</time></trkpt><trkpt lat="45.8616798" lon="13.9088378"><ele>176.0</ele><time>2026-04-08T13:28:53.837Z</time></trkpt><trkpt lat="45.8615178" lon="13.9088871"><ele>180.25</ele><time>2026-04-08T13:28:54.83Z</time></trkpt><trkpt lat="45.861378" lon="13.9089601"><ele>184.5</ele><time>2026-04-08T13:28:55.829Z</time></trkpt><trkpt lat="45.8612745" lon="13.9090758"><ele>188.75</ele><time>2026-04-08T13:28:56.836Z</time></trkpt><trkpt lat="45.8611793" lon="13.909257"><ele>193.0</ele><time>2026-04-08T13:28:57.833Z</time></trkpt><trkpt lat="45.8609212" lon="13.9095805"><ele>205.33333333333331</ele><time>2026-04-08T13:28:59.841Z</time></trkpt><trkpt lat="45.8607511" lon="13.9097168"><ele>217.66666666666669</ele><time>2026-04-08T13:29:00.859Z</time></trkpt><trkpt lat="45.8606034" lon="13.9098151"><ele>230.0</ele><time>2026-04-08T13:29:01.838Z</time></trkpt><trkpt lat="45.8604711" lon="13.9098888"><ele>230.0</ele><time>2026-04-08T13:29:02.83Z</time></trkpt><trkpt lat="45.8603505" lon="13.9099615"><ele>230.0</ele><time>2026-04-08T13:29:03.832Z</time></trkpt><trkpt lat="45.8602759" lon="13.910091"><ele>230.0</ele><time>2026-04-08T13:29:04.84Z</time></trkpt><trkpt lat="45.8602328" lon="13.9102792"><ele>230.0</ele><time>2026-04-08T13:29:05.832Z</time></trkpt><trkpt lat="45.8602183" lon="13.9105002"><ele>225.66666666666669</ele><time>2026-04-08T13:29:06.831Z</time></trkpt><trkpt lat="45.8601836" lon="13.9107099"><ele>221.33333333333331</ele><time>2026-04-08T13:29:07.831Z</time></trkpt><trkpt lat="45.8601382" lon="13.9109013"><ele>217.0</ele><time>2026-04-08T13:29:08.837Z</time></trkpt><trkpt lat="45.8599618" lon="13.9112425"><ele>226.0</ele><time>2026-04-08T13:29:10.833Z</time></trkpt><trkpt lat="45.8598299" lon="13.9113729"><ele>235.0</ele><time>2026-04-08T13:29:11.828Z</time></trkpt><trkpt lat="45.8596868" lon="13.9114785"><ele>244.0</ele><time>2026-04-08T13:29:12.839Z</time></trkpt><trkpt lat="45.8595494" lon="13.9115474"><ele>244.0</ele><time>2026-04-08T13:29:13.831Z</time></trkpt><trkpt lat="45.8594223" lon="13.9115687"><ele>244.0</ele><time>2026-04-08T13:29:14.844Z</time></trkpt><trkpt lat="45.8593018" lon="13.9115302"><ele>244.0</ele><time>2026-04-08T13:29:15.828Z</time></trkpt><trkpt lat="45.8591721" lon="13.9114567"><ele>244.0</ele><time>2026-04-08T13:29:16.829Z</time></trkpt><trkpt lat="45.8590307" lon="13.911413"><ele>247.33333333333331</ele><time>2026-04-08T13:29:17.832Z</time></trkpt><trkpt lat="45.8588741" lon="13.9114079"><ele>250.66666666666669</ele><time>2026-04-08T13:29:18.836Z</time></trkpt><trkpt lat="45.8587177" lon="13.9114429"><ele>254.0</ele><time>2026-04-08T13:29:19.825Z</time></trkpt><trkpt lat="45.858559" lon="13.9115016"><ele>257.0</ele><time>2026-04-08T13:29:20.842Z</time></trkpt><trkpt lat="45.8583883" lon="13.911559"><ele>260.0</ele><time>2026-04-08T13:29:21.849Z</time></trkpt><trkpt lat="45.8582299" lon="13.91158"><ele>263.0</ele><time>2026-04-08T13:29:22.826Z</time></trkpt><trkpt lat="45.8580954" lon="13.9115971"><ele>263.0</ele><time>2026-04-08T13:29:23.843Z</time></trkpt><trkpt lat="45.8579869" lon="13.9115972"><ele>263.0</ele><time>2026-04-08T13:29:24.849Z</time></trkpt><trkpt lat="45.8578929" lon="13.9115903"><ele>263.0</ele><time>2026-04-08T13:29:25.825Z</time></trkpt><trkpt lat="45.8577927" lon="13.9115857"><ele>263.0</ele><time>2026-04-08T13:29:26.838Z</time></trkpt><trkpt lat="45.8576808" lon="13.911593"><ele>263.0</ele><time>2026-04-08T13:29:27.834Z</time></trkpt><trkpt lat="45.8575482" lon="13.9116138"><ele>265.25</ele><time>2026-04-08T13:29:28.831Z</time></trkpt><trkpt lat="45.8573963" lon="13.9116366"><ele>267.5</ele><time>2026-04-08T13:29:29.831Z</time></trkpt><trkpt lat="45.8572646" lon="13.9116513"><ele>269.75</ele><time>2026-04-08T13:29:30.833Z</time></trkpt><trkpt lat="45.8571672" lon="13.9116829"><ele>272.0</ele><time>2026-04-08T13:29:31.829Z</time></trkpt><trkpt lat="45.8570888" lon="13.9117686"><ele>264.0</ele><time>2026-04-08T13:29:32.829Z</time></trkpt><trkpt lat="45.8570117" lon="13.911912"><ele>256.0</ele><time>2026-04-08T13:29:33.831Z</time></trkpt><trkpt lat="45.8569151" lon="13.9120831"><ele>248.0</ele><time>2026-04-08T13:29:34.827Z</time></trkpt><trkpt lat="45.8568096" lon="13.9122823"><ele>251.5</ele><time>2026-04-08T13:29:35.831Z</time></trkpt><trkpt lat="45.8567138" lon="13.9124751"><ele>255.0</ele><time>2026-04-08T13:29:36.835Z</time></trkpt><trkpt lat="45.8566388" lon="13.9126488"><ele>258.5</ele><time>2026-04-08T13:29:37.833Z</time></trkpt><trkpt lat="45.8565592" lon="13.9127836"><ele>262.0</ele><time>2026-04-08T13:29:38.831Z</time></trkpt><trkpt lat="45.856336" lon="13.9129393"><ele>262.0</ele><time>2026-04-08T13:29:40.846Z</time></trkpt><trkpt lat="45.8562082" lon="13.9129749"><ele>262.0</ele><time>2026-04-08T13:29:41.83Z</time></trkpt><trkpt lat="45.856094" lon="13.9129534"><ele>262.0</ele><time>2026-04-08T13:29:42.855Z</time></trkpt><trkpt lat="45.8559928" lon="13.9128779"><ele>262.0</ele><time>2026-04-08T13:29:43.854Z</time></trkpt><trkpt lat="45.8558852" lon="13.9127941"><ele>263.6</ele><time>2026-04-08T13:29:44.843Z</time></trkpt><trkpt lat="45.8557786" lon="13.9127296"><ele>265.2</ele><time>2026-04-08T13:29:45.845Z</time></trkpt><trkpt lat="45.855689" lon="13.9126603"><ele>266.8</ele><time>2026-04-08T13:29:46.844Z</time></trkpt><trkpt lat="45.8555981" lon="13.9126127"><ele>268.4</ele><time>2026-04-08T13:29:47.847Z</time></trkpt><trkpt lat="45.8555105" lon="13.9125874"><ele>270.0</ele><time>2026-04-08T13:29:48.837Z</time></trkpt><trkpt lat="45.8554291" lon="13.9125726"><ele>270.0</ele><time>2026-04-08T13:29:49.853Z</time></trkpt><trkpt lat="45.8553449" lon="13.9125655"><ele>270.0</ele><time>2026-04-08T13:29:50.856Z</time></trkpt><trkpt lat="45.8552655" lon="13.9125659"><ele>270.0</ele><time>2026-04-08T13:29:51.847Z</time></trkpt><trkpt lat="45.8551826" lon="13.9125817"><ele>270.0</ele><time>2026-04-08T13:29:52.856Z</time></trkpt><trkpt lat="45.8550979" lon="13.9126044"><ele>270.0</ele><time>2026-04-08T13:29:53.844Z</time></trkpt><trkpt lat="45.8550112" lon="13.9126244"><ele>270.0</ele><time>2026-04-08T13:29:54.847Z</time></trkpt><trkpt lat="45.8549237" lon="13.9126412"><ele>270.6666666666667</ele><time>2026-04-08T13:29:55.833Z</time></trkpt><trkpt lat="45.8548326" lon="13.9126507"><ele>271.3333333333333</ele><time>2026-04-08T13:29:56.835Z</time></trkpt><trkpt lat="45.8547436" lon="13.9126499"><ele>272.0</ele><time>2026-04-08T13:29:57.834Z</time></trkpt><trkpt lat="45.8546497" lon="13.9126474"><ele>272.66666666666663</ele><time>2026-04-08T13:29:58.846Z</time></trkpt><trkpt lat="45.8545668" lon="13.9126513"><ele>273.3333333333333</ele><time>2026-04-08T13:29:59.853Z</time></trkpt><trkpt lat="45.8544889" lon="13.9126537"><ele>274.0</ele><time>2026-04-08T13:30:01.846Z</time></trkpt><trkpt lat="45.8544198" lon="13.9126154"><ele>274.0</ele><time>2026-04-08T13:30:05.836Z</time></trkpt><trkpt lat="45.8543593" lon="13.912652"><ele>274.0</ele><time>2026-04-08T13:30:07.851Z</time></trkpt><trkpt lat="45.8543004" lon="13.9127177"><ele>274.0</ele><time>2026-04-08T13:30:08.844Z</time></trkpt><trkpt lat="45.8542254" lon="13.9127908"><ele>274.0</ele><time>2026-04-08T13:30:09.846Z</time></trkpt><trkpt lat="45.8541298" lon="13.9128708"><ele>274.0</ele><time>2026-04-08T13:30:10.836Z</time></trkpt><trkpt lat="45.8540164" lon="13.9129453"><ele>277.0</ele><time>2026-04-08T13:30:11.84Z</time></trkpt><trkpt lat="45.8538833" lon="13.9130217"><ele>280.0</ele><time>2026-04-08T13:30:12.832Z</time></trkpt><trkpt lat="45.8537495" lon="13.9130958"><ele>283.0</ele><time>2026-04-08T13:30:13.832Z</time></trkpt><trkpt lat="45.8536268" lon="13.9131523"><ele>286.0</ele><time>2026-04-08T13:30:14.837Z</time></trkpt><trkpt lat="45.8535116" lon="13.9131866"><ele>290.25</ele><time>2026-04-08T13:30:15.851Z</time></trkpt><trkpt lat="45.8533979" lon="13.9131958"><ele>294.5</ele><time>2026-04-08T13:30:16.829Z</time></trkpt><trkpt lat="45.8533004" lon="13.9131483"><ele>298.75</ele><time>2026-04-08T13:30:17.83Z</time></trkpt><trkpt lat="45.8532047" lon="13.9130581"><ele>303.0</ele><time>2026-04-08T13:30:18.829Z</time></trkpt><trkpt lat="45.8531013" lon="13.9129722"><ele>303.0</ele><time>2026-04-08T13:30:19.842Z</time></trkpt><trkpt lat="45.8529734" lon="13.9128945"><ele>303.0</ele><time>2026-04-08T13:30:20.856Z</time></trkpt><trkpt lat="45.8528548" lon="13.9128041"><ele>303.0</ele><time>2026-04-08T13:30:21.842Z</time></trkpt><trkpt lat="45.852743" lon="13.9126965"><ele>303.0</ele><time>2026-04-08T13:30:22.833Z</time></trkpt><trkpt lat="45.852632" lon="13.9126059"><ele>304.75</ele><time>2026-04-08T13:30:23.838Z</time></trkpt><trkpt lat="45.8525167" lon="13.9125334"><ele>306.5</ele><time>2026-04-08T13:30:24.843Z</time></trkpt><trkpt lat="45.8523949" lon="13.9124933"><ele>308.25</ele><time>2026-04-08T13:30:25.845Z</time></trkpt><trkpt lat="45.8522766" lon="13.912476"><ele>310.0</ele><time>2026-04-08T13:30:26.834Z</time></trkpt><trkpt lat="45.8521658" lon="13.9124253"><ele>310.0</ele><time>2026-04-08T13:30:27.843Z</time></trkpt><trkpt lat="45.8520505" lon="13.9123444"><ele>310.0</ele><time>2026-04-08T13:30:28.848Z</time></trkpt><trkpt lat="45.8519318" lon="13.9122573"><ele>310.0</ele><time>2026-04-08T13:30:29.844Z</time></trkpt><trkpt lat="45.8518055" lon="13.9121805"><ele>310.0</ele><time>2026-04-08T13:30:30.852Z</time></trkpt><trkpt lat="45.8516764" lon="13.9121036"><ele>312.25</ele><time>2026-04-08T13:30:31.836Z</time></trkpt><trkpt lat="45.8515484" lon="13.9120255"><ele>314.5</ele><time>2026-04-08T13:30:32.837Z</time></trkpt><trkpt lat="45.8514202" lon="13.9119293"><ele>316.75</ele><time>2026-04-08T13:30:33.847Z</time></trkpt><trkpt lat="45.851298" lon="13.9118118"><ele>319.0</ele><time>2026-04-08T13:30:34.847Z</time></trkpt><trkpt lat="45.8511708" lon="13.9116956"><ele>319.0</ele><time>2026-04-08T13:30:35.837Z</time></trkpt><trkpt lat="45.8510397" lon="13.9115767"><ele>319.0</ele><time>2026-04-08T13:30:36.851Z</time></trkpt><trkpt lat="45.8509092" lon="13.9114597"><ele>319.0</ele><time>2026-04-08T13:30:37.841Z</time></trkpt><trkpt lat="45.8507905" lon="13.9113262"><ele>320.0</ele><time>2026-04-08T13:30:38.832Z</time></trkpt><trkpt lat="45.8506819" lon="13.911175"><ele>321.0</ele><time>2026-04-08T13:30:39.833Z</time></trkpt><trkpt lat="45.8505693" lon="13.9110232"><ele>322.0</ele><time>2026-04-08T13:30:40.853Z</time></trkpt><trkpt lat="45.8504533" lon="13.9108875"><ele>322.0</ele><time>2026-04-08T13:30:41.828Z</time></trkpt><trkpt lat="45.8503525" lon="13.9107689"><ele>322.0</ele><time>2026-04-08T13:30:42.846Z</time></trkpt><trkpt lat="45.8502571" lon="13.9106715"><ele>322.0</ele><time>2026-04-08T13:30:43.854Z</time></trkpt><trkpt lat="45.850169" lon="13.9105726"><ele>322.0</ele><time>2026-04-08T13:30:44.849Z</time></trkpt><trkpt lat="45.8500948" lon="13.9104849"><ele>323.5</ele><time>2026-04-08T13:30:45.841Z</time></trkpt><trkpt lat="45.8500308" lon="13.9104459"><ele>325.0</ele><time>2026-04-08T13:30:46.847Z</time></trkpt><trkpt lat="45.8499679" lon="13.9104315"><ele>326.5</ele><time>2026-04-08T13:30:47.851Z</time></trkpt><trkpt lat="45.8498456" lon="13.9104023"><ele>328.0</ele><time>2026-04-08T13:30:49.848Z</time></trkpt><trkpt lat="45.8497671" lon="13.910379"><ele>329.5</ele><time>2026-04-08T13:30:50.853Z</time></trkpt><trkpt lat="45.8496716" lon="13.9103531"><ele>331.0</ele><time>2026-04-08T13:30:51.836Z</time></trkpt><trkpt lat="45.8495708" lon="13.9103124"><ele>331.0</ele><time>2026-04-08T13:30:52.846Z</time></trkpt><trkpt lat="45.8494805" lon="13.910246"><ele>331.0</ele><time>2026-04-08T13:30:53.84Z</time></trkpt><trkpt lat="45.8494323" lon="13.9101519"><ele>331.0</ele><time>2026-04-08T13:30:54.832Z</time></trkpt><trkpt lat="45.849346" lon="13.9100577"><ele>331.0</ele><time>2026-04-08T13:30:56.833Z</time></trkpt><trkpt lat="45.8492583" lon="13.9101499"><ele>331.0</ele><time>2026-04-08T13:30:58.84Z</time></trkpt><trkpt lat="45.8492266" lon="13.9102322"><ele>333.5</ele><time>2026-04-08T13:30:59.847Z</time></trkpt><trkpt lat="45.8491947" lon="13.9103454"><ele>336.0</ele><time>2026-04-08T13:31:00.837Z</time></trkpt><trkpt lat="45.8491498" lon="13.9104944"><ele>338.5</ele><time>2026-04-08T13:31:01.84Z</time></trkpt><trkpt lat="45.8491071" lon="13.9106605"><ele>341.0</ele><time>2026-04-08T13:31:02.837Z</time></trkpt><trkpt lat="45.8490207" lon="13.9110473"><ele>341.5</ele><time>2026-04-08T13:31:04.865Z</time></trkpt><trkpt lat="45.8489665" lon="13.9112222"><ele>342.0</ele><time>2026-04-08T13:31:05.834Z</time></trkpt><trkpt lat="45.8489038" lon="13.911346"><ele>342.5</ele><time>2026-04-08T13:31:06.854Z</time></trkpt><trkpt lat="45.848727" lon="13.911452"><ele>343.0</ele><time>2026-04-08T13:31:08.841Z</time></trkpt><trkpt lat="45.8486217" lon="13.9114533"><ele>343.0</ele><time>2026-04-08T13:31:09.85Z</time></trkpt><trkpt lat="45.8485105" lon="13.9114327"><ele>343.0</ele><time>2026-04-08T13:31:10.831Z</time></trkpt><trkpt lat="45.8484038" lon="13.9113653"><ele>343.0</ele><time>2026-04-08T13:31:11.836Z</time></trkpt><trkpt lat="45.8481798" lon="13.9111911"><ele>343.4</ele><time>2026-04-08T13:31:13.852Z</time></trkpt><trkpt lat="45.848089" lon="13.9111175"><ele>343.79999999999995</ele><time>2026-04-08T13:31:14.839Z</time></trkpt><trkpt lat="45.8480088" lon="13.9110467"><ele>344.2</ele><time>2026-04-08T13:31:15.836Z</time></trkpt><trkpt lat="45.8479212" lon="13.9109637"><ele>344.6</ele><time>2026-04-08T13:31:16.839Z</time></trkpt><trkpt lat="45.8478167" lon="13.9108801"><ele>345.0</ele><time>2026-04-08T13:31:17.829Z</time></trkpt><trkpt lat="45.8477023" lon="13.9108032"><ele>347.25</ele><time>2026-04-08T13:31:18.837Z</time></trkpt><trkpt lat="45.8475856" lon="13.9107414"><ele>349.5</ele><time>2026-04-08T13:31:19.835Z</time></trkpt><trkpt lat="45.8474661" lon="13.9106902"><ele>351.75</ele><time>2026-04-08T13:31:20.839Z</time></trkpt><trkpt lat="45.8473499" lon="13.9106489"><ele>354.0</ele><time>2026-04-08T13:31:21.843Z</time></trkpt><trkpt lat="45.8472424" lon="13.9106205"><ele>354.0</ele><time>2026-04-08T13:31:22.835Z</time></trkpt><trkpt lat="45.8471389" lon="13.9105997"><ele>354.0</ele><time>2026-04-08T13:31:23.841Z</time></trkpt><trkpt lat="45.8470516" lon="13.9105826"><ele>354.0</ele><time>2026-04-08T13:31:24.844Z</time></trkpt><trkpt lat="45.846979" lon="13.9105728"><ele>354.0</ele><time>2026-04-08T13:31:25.836Z</time></trkpt><trkpt lat="45.8468588" lon="13.9105516"><ele>354.0</ele><time>2026-04-08T13:31:27.836Z</time></trkpt><trkpt lat="45.8467437" lon="13.9105268"><ele>353.79999999999995</ele><time>2026-04-08T13:31:29.832Z</time></trkpt><trkpt lat="45.8466347" lon="13.9104983"><ele>353.59999999999997</ele><time>2026-04-08T13:31:31.827Z</time></trkpt><trkpt lat="45.8465583" lon="13.9104743"><ele>353.4</ele><time>2026-04-08T13:31:33.836Z</time></trkpt><trkpt lat="45.8464564" lon="13.9104466"><ele>353.2</ele><time>2026-04-08T13:31:44.829Z</time></trkpt><trkpt lat="45.8463716" lon="13.9104192"><ele>353.0</ele><time>2026-04-08T13:31:45.847Z</time></trkpt><trkpt lat="45.8462554" lon="13.910398"><ele>353.0</ele><time>2026-04-08T13:31:46.822Z</time></trkpt><trkpt lat="45.8461218" lon="13.9103766"><ele>353.0</ele><time>2026-04-08T13:31:47.826Z</time></trkpt><trkpt lat="45.8459934" lon="13.9103415"><ele>353.0</ele><time>2026-04-08T13:31:48.85Z</time></trkpt><trkpt lat="45.845883" lon="13.9102768"><ele>353.0</ele><time>2026-04-08T13:31:49.851Z</time></trkpt><trkpt lat="45.8457847" lon="13.9101804"><ele>354.2</ele><time>2026-04-08T13:31:50.836Z</time></trkpt><trkpt lat="45.8457005" lon="13.9100702"><ele>355.4</ele><time>2026-04-08T13:31:51.832Z</time></trkpt><trkpt lat="45.8456526" lon="13.909956"><ele>356.59999999999997</ele><time>2026-04-08T13:31:52.827Z</time></trkpt><trkpt lat="45.8456482" lon="13.9098422"><ele>357.79999999999995</ele><time>2026-04-08T13:31:53.843Z</time></trkpt><trkpt lat="45.8456744" lon="13.9097184"><ele>359.0</ele><time>2026-04-08T13:31:54.836Z</time></trkpt><trkpt lat="45.8457053" lon="13.9095853"><ele>359.0</ele><time>2026-04-08T13:31:55.832Z</time></trkpt><trkpt lat="45.8457452" lon="13.9094318"><ele>359.0</ele><time>2026-04-08T13:31:56.829Z</time></trkpt><trkpt lat="45.8457947" lon="13.9092474"><ele>359.0</ele><time>2026-04-08T13:31:57.831Z</time></trkpt><trkpt lat="45.8458394" lon="13.909058"><ele>359.0</ele><time>2026-04-08T13:31:58.838Z</time></trkpt><trkpt lat="45.8458642" lon="13.9088637"><ele>357.75</ele><time>2026-04-08T13:31:59.838Z</time></trkpt><trkpt lat="45.8458834" lon="13.90867"><ele>356.5</ele><time>2026-04-08T13:32:00.827Z</time></trkpt><trkpt lat="45.8459082" lon="13.9084739"><ele>355.25</ele><time>2026-04-08T13:32:01.83Z</time></trkpt><trkpt lat="45.845945" lon="13.9082768"><ele>354.0</ele><time>2026-04-08T13:32:02.836Z</time></trkpt><trkpt lat="45.8459835" lon="13.9080804"><ele>360.25</ele><time>2026-04-08T13:32:03.834Z</time></trkpt><trkpt lat="45.8460123" lon="13.9078862"><ele>366.5</ele><time>2026-04-08T13:32:04.855Z</time></trkpt><trkpt lat="45.8460244" lon="13.9077167"><ele>372.75</ele><time>2026-04-08T13:32:05.839Z</time></trkpt><trkpt lat="45.8460347" lon="13.907547"><ele>379.0</ele><time>2026-04-08T13:32:06.831Z</time></trkpt><trkpt lat="45.8460291" lon="13.9073627"><ele>379.0</ele><time>2026-04-08T13:32:07.826Z</time></trkpt><trkpt lat="45.8460092" lon="13.9071684"><ele>379.0</ele><time>2026-04-08T13:32:08.824Z</time></trkpt><trkpt lat="45.8459564" lon="13.9069535"><ele>379.0</ele><time>2026-04-08T13:32:09.831Z</time></trkpt><trkpt lat="45.8458613" lon="13.906729"><ele>361.5</ele><time>2026-04-08T13:32:10.85Z</time></trkpt><trkpt lat="45.8456047" lon="13.9063508"><ele>344.0</ele><time>2026-04-08T13:32:12.848Z</time></trkpt><trkpt lat="45.8454752" lon="13.906185"><ele>344.0</ele><time>2026-04-08T13:32:13.831Z</time></trkpt><trkpt lat="45.8453511" lon="13.9060245"><ele>344.0</ele><time>2026-04-08T13:32:14.843Z</time></trkpt><trkpt lat="45.8452527" lon="13.9058489"><ele>344.0</ele><time>2026-04-08T13:32:15.824Z</time></trkpt><trkpt lat="45.8451874" lon="13.9056461"><ele>342.33333333333337</ele><time>2026-04-08T13:32:16.832Z</time></trkpt><trkpt lat="45.8451393" lon="13.9054257"><ele>340.6666666666667</ele><time>2026-04-08T13:32:17.828Z</time></trkpt><trkpt lat="45.8450919" lon="13.9052021"><ele>339.0</ele><time>2026-04-08T13:32:18.857Z</time></trkpt><trkpt lat="45.8449782" lon="13.9047884"><ele>339.0</ele><time>2026-04-08T13:32:20.834Z</time></trkpt><trkpt lat="45.8449222" lon="13.9046193"><ele>339.0</ele><time>2026-04-08T13:32:21.84Z</time></trkpt><trkpt lat="45.8448729" lon="13.9044864"><ele>339.0</ele><time>2026-04-08T13:32:22.83Z</time></trkpt><trkpt lat="45.8447058" lon="13.9042373"><ele>343.3333333333333</ele><time>2026-04-08T13:32:24.839Z</time></trkpt><trkpt lat="45.8445794" lon="13.9040938"><ele>347.66666666666663</ele><time>2026-04-08T13:32:25.834Z</time></trkpt><trkpt lat="45.84444" lon="13.9039669"><ele>352.0</ele><time>2026-04-08T13:32:26.834Z</time></trkpt><trkpt lat="45.844304" lon="13.9038765"><ele>346.6</ele><time>2026-04-08T13:32:27.825Z</time></trkpt><trkpt lat="45.8441794" lon="13.9038322"><ele>341.20000000000005</ele><time>2026-04-08T13:32:28.835Z</time></trkpt><trkpt lat="45.8440744" lon="13.9038444"><ele>335.8</ele><time>2026-04-08T13:32:29.829Z</time></trkpt><trkpt lat="45.8440001" lon="13.9039148"><ele>330.4</ele><time>2026-04-08T13:32:30.823Z</time></trkpt><trkpt lat="45.8439574" lon="13.9040247"><ele>325.0</ele><time>2026-04-08T13:32:31.83Z</time></trkpt><trkpt lat="45.8439241" lon="13.9041464"><ele>321.8</ele><time>2026-04-08T13:32:32.84Z</time></trkpt><trkpt lat="45.8438696" lon="13.9042695"><ele>318.6</ele><time>2026-04-08T13:32:33.833Z</time></trkpt><trkpt lat="45.8438094" lon="13.9043844"><ele>315.4</ele><time>2026-04-08T13:32:34.826Z</time></trkpt><trkpt lat="45.8437515" lon="13.9044969"><ele>312.2</ele><time>2026-04-08T13:32:35.827Z</time></trkpt><trkpt lat="45.8436925" lon="13.904619"><ele>309.0</ele><time>2026-04-08T13:32:36.843Z</time></trkpt><trkpt lat="45.8436238" lon="13.9047508"><ele>309.0</ele><time>2026-04-08T13:32:37.831Z</time></trkpt><trkpt lat="45.8435563" lon="13.9049043"><ele>309.0</ele><time>2026-04-08T13:32:38.829Z</time></trkpt><trkpt lat="45.843486" lon="13.9050675"><ele>309.0</ele><time>2026-04-08T13:32:39.824Z</time></trkpt><trkpt lat="45.8434128" lon="13.9051765"><ele>309.0</ele><time>2026-04-08T13:32:40.841Z</time></trkpt><trkpt lat="45.8433417" lon="13.9052034"><ele>309.0</ele><time>2026-04-08T13:32:41.836Z</time></trkpt><trkpt lat="45.8432558" lon="13.905184"><ele>309.59999999999997</ele><time>2026-04-08T13:32:42.838Z</time></trkpt><trkpt lat="45.8431701" lon="13.9051407"><ele>310.2</ele><time>2026-04-08T13:32:43.845Z</time></trkpt><trkpt lat="45.8430726" lon="13.9051009"><ele>310.79999999999995</ele><time>2026-04-08T13:32:44.837Z</time></trkpt><trkpt lat="45.8429582" lon="13.9050603"><ele>311.4</ele><time>2026-04-08T13:32:45.834Z</time></trkpt><trkpt lat="45.8428354" lon="13.9050345"><ele>312.0</ele><time>2026-04-08T13:32:46.845Z</time></trkpt><trkpt lat="45.8427056" lon="13.9049964"><ele>308.25</ele><time>2026-04-08T13:32:47.826Z</time></trkpt><trkpt lat="45.8425842" lon="13.9049205"><ele>304.5</ele><time>2026-04-08T13:32:48.838Z</time></trkpt><trkpt lat="45.8424702" lon="13.9047875"><ele>300.75</ele><time>2026-04-08T13:32:49.847Z</time></trkpt><trkpt lat="45.8423434" lon="13.9046419"><ele>297.0</ele><time>2026-04-08T13:32:50.843Z</time></trkpt><trkpt lat="45.8422032" lon="13.9044841"><ele>297.0</ele><time>2026-04-08T13:32:51.84Z</time></trkpt><trkpt lat="45.8420612" lon="13.9043305"><ele>297.0</ele><time>2026-04-08T13:32:52.851Z</time></trkpt><trkpt lat="45.8419202" lon="13.9041767"><ele>297.0</ele><time>2026-04-08T13:32:53.847Z</time></trkpt><trkpt lat="45.8417829" lon="13.9040167"><ele>292.0</ele><time>2026-04-08T13:32:54.837Z</time></trkpt><trkpt lat="45.8416644" lon="13.9038431"><ele>287.0</ele><time>2026-04-08T13:32:55.854Z</time></trkpt><trkpt lat="45.8415696" lon="13.9036533"><ele>282.0</ele><time>2026-04-08T13:32:56.84Z</time></trkpt><trkpt lat="45.841481" lon="13.903484"><ele>281.8333333333333</ele><time>2026-04-08T13:32:57.867Z</time></trkpt><trkpt lat="45.8414034" lon="13.9033542"><ele>281.6666666666667</ele><time>2026-04-08T13:32:58.86Z</time></trkpt><trkpt lat="45.841341" lon="13.903242"><ele>281.5</ele><time>2026-04-08T13:32:59.829Z</time></trkpt><trkpt lat="45.8413032" lon="13.9031295"><ele>281.33333333333337</ele><time>2026-04-08T13:33:00.848Z</time></trkpt><trkpt lat="45.8413074" lon="13.9030376"><ele>281.1666666666667</ele><time>2026-04-08T13:33:01.839Z</time></trkpt><trkpt lat="45.8413569" lon="13.9029563"><ele>281.0</ele><time>2026-04-08T13:33:02.831Z</time></trkpt><trkpt lat="45.8414179" lon="13.9028389"><ele>281.0</ele><time>2026-04-08T13:33:03.836Z</time></trkpt><trkpt lat="45.8414619" lon="13.9026925"><ele>281.0</ele><time>2026-04-08T13:33:04.857Z</time></trkpt><trkpt lat="45.8414803" lon="13.9025198"><ele>281.0</ele><time>2026-04-08T13:33:05.837Z</time></trkpt><trkpt lat="45.8414752" lon="13.9023346"><ele>281.0</ele><time>2026-04-08T13:33:06.837Z</time></trkpt><trkpt lat="45.8414407" lon="13.9021114"><ele>281.33333333333337</ele><time>2026-04-08T13:33:07.846Z</time></trkpt><trkpt lat="45.8413884" lon="13.9018714"><ele>281.6666666666667</ele><time>2026-04-08T13:33:08.838Z</time></trkpt><trkpt lat="45.8413279" lon="13.9016254"><ele>282.0</ele><time>2026-04-08T13:33:09.831Z</time></trkpt><trkpt lat="45.8412672" lon="13.901386"><ele>280.6666666666667</ele><time>2026-04-08T13:33:10.838Z</time></trkpt><trkpt lat="45.841213" lon="13.9011453"><ele>279.33333333333337</ele><time>2026-04-08T13:33:11.835Z</time></trkpt><trkpt lat="45.8411819" lon="13.9008992"><ele>278.0</ele><time>2026-04-08T13:33:12.837Z</time></trkpt><trkpt lat="45.8411893" lon="13.9006504"><ele>275.6666666666667</ele><time>2026-04-08T13:33:13.833Z</time></trkpt><trkpt lat="45.8412112" lon="13.9004007"><ele>273.3333333333333</ele><time>2026-04-08T13:33:14.838Z</time></trkpt><trkpt lat="45.8412189" lon="13.9001595"><ele>271.0</ele><time>2026-04-08T13:33:15.82Z</time></trkpt><trkpt lat="45.8411998" lon="13.8999277"><ele>270.0</ele><time>2026-04-08T13:33:16.85Z</time></trkpt><trkpt lat="45.8411694" lon="13.8996962"><ele>269.0</ele><time>2026-04-08T13:33:17.854Z</time></trkpt><trkpt lat="45.8411673" lon="13.8994789"><ele>268.0</ele><time>2026-04-08T13:33:18.851Z</time></trkpt><trkpt lat="45.8411996" lon="13.8992616"><ele>268.3333333333333</ele><time>2026-04-08T13:33:19.823Z</time></trkpt><trkpt lat="45.8412244" lon="13.899036"><ele>268.6666666666667</ele><time>2026-04-08T13:33:20.841Z</time></trkpt><trkpt lat="45.8412226" lon="13.8987972"><ele>269.0</ele><time>2026-04-08T13:33:21.827Z</time></trkpt><trkpt lat="45.8412088" lon="13.8985562"><ele>269.5</ele><time>2026-04-08T13:33:22.835Z</time></trkpt><trkpt lat="45.8411899" lon="13.8983307"><ele>270.0</ele><time>2026-04-08T13:33:23.834Z</time></trkpt><trkpt lat="45.8411582" lon="13.8981319"><ele>270.5</ele><time>2026-04-08T13:33:24.831Z</time></trkpt><trkpt lat="45.8411143" lon="13.8979436"><ele>271.0</ele><time>2026-04-08T13:33:25.825Z</time></trkpt><trkpt lat="45.8410636" lon="13.8977482"><ele>269.66666666666663</ele><time>2026-04-08T13:33:26.826Z</time></trkpt><trkpt lat="45.8410299" lon="13.8975321"><ele>268.3333333333333</ele><time>2026-04-08T13:33:27.832Z</time></trkpt><trkpt lat="45.8410193" lon="13.8973039"><ele>267.0</ele><time>2026-04-08T13:33:28.832Z</time></trkpt><trkpt lat="45.8410269" lon="13.8970841"><ele>267.0</ele><time>2026-04-08T13:33:29.852Z</time></trkpt><trkpt lat="45.8410458" lon="13.8968769"><ele>267.0</ele><time>2026-04-08T13:33:30.837Z</time></trkpt><trkpt lat="45.8410781" lon="13.8967191"><ele>267.0</ele><time>2026-04-08T13:33:31.821Z</time></trkpt><trkpt lat="45.8411234" lon="13.8965962"><ele>267.0</ele><time>2026-04-08T13:33:32.846Z</time></trkpt><trkpt lat="45.8412879" lon="13.8964568"><ele>265.6</ele><time>2026-04-08T13:33:34.854Z</time></trkpt><trkpt lat="45.8413964" lon="13.896429"><ele>264.2</ele><time>2026-04-08T13:33:35.829Z</time></trkpt><trkpt lat="45.8414933" lon="13.8963985"><ele>262.8</ele><time>2026-04-08T13:33:36.832Z</time></trkpt><trkpt lat="45.8415681" lon="13.8963253"><ele>261.4</ele><time>2026-04-08T13:33:37.824Z</time></trkpt><trkpt lat="45.8416287" lon="13.8962201"><ele>260.0</ele><time>2026-04-08T13:33:38.822Z</time></trkpt><trkpt lat="45.8416693" lon="13.8961063"><ele>260.0</ele><time>2026-04-08T13:33:39.848Z</time></trkpt><trkpt lat="45.841689" lon="13.8959531"><ele>260.0</ele><time>2026-04-08T13:33:40.837Z</time></trkpt><trkpt lat="45.8416788" lon="13.895786"><ele>260.0</ele><time>2026-04-08T13:33:41.827Z</time></trkpt><trkpt lat="45.8416112" lon="13.8956133"><ele>260.0</ele><time>2026-04-08T13:33:42.825Z</time></trkpt><trkpt lat="45.8414742" lon="13.8954464"><ele>256.6666666666667</ele><time>2026-04-08T13:33:43.829Z</time></trkpt><trkpt lat="45.8413344" lon="13.8952869"><ele>253.33333333333331</ele><time>2026-04-08T13:33:44.827Z</time></trkpt><trkpt lat="45.8412273" lon="13.8950906"><ele>250.0</ele><time>2026-04-08T13:33:45.835Z</time></trkpt><trkpt lat="45.8411548" lon="13.8948646"><ele>248.66666666666666</ele><time>2026-04-08T13:33:46.821Z</time></trkpt><trkpt lat="45.8410908" lon="13.8946137"><ele>247.33333333333331</ele><time>2026-04-08T13:33:47.825Z</time></trkpt><trkpt lat="45.8410326" lon="13.8943677"><ele>246.0</ele><time>2026-04-08T13:33:48.826Z</time></trkpt><trkpt lat="45.8409986" lon="13.8941329"><ele>245.0</ele><time>2026-04-08T13:33:49.822Z</time></trkpt><trkpt lat="45.840989" lon="13.8939104"><ele>244.0</ele><time>2026-04-08T13:33:50.85Z</time></trkpt><trkpt lat="45.8409918" lon="13.8936832"><ele>243.0</ele><time>2026-04-08T13:33:51.826Z</time></trkpt><trkpt lat="45.8410218" lon="13.8934746"><ele>241.0</ele><time>2026-04-08T13:33:52.831Z</time></trkpt><trkpt lat="45.8411405" lon="13.8931063"><ele>239.0</ele><time>2026-04-08T13:33:54.834Z</time></trkpt><trkpt lat="45.8411663" lon="13.89295"><ele>237.0</ele><time>2026-04-08T13:33:55.856Z</time></trkpt><trkpt lat="45.8411775" lon="13.8928154"><ele>233.66666666666669</ele><time>2026-04-08T13:33:56.832Z</time></trkpt><trkpt lat="45.8410557" lon="13.8925264"><ele>230.33333333333334</ele><time>2026-04-08T13:33:58.834Z</time></trkpt><trkpt lat="45.8409554" lon="13.8923407"><ele>227.0</ele><time>2026-04-08T13:33:59.841Z</time></trkpt><trkpt lat="45.8408684" lon="13.8921379"><ele>224.0</ele><time>2026-04-08T13:34:00.84Z</time></trkpt><trkpt lat="45.8407799" lon="13.8919532"><ele>221.0</ele><time>2026-04-08T13:34:01.824Z</time></trkpt><trkpt lat="45.8407014" lon="13.8918052"><ele>218.0</ele><time>2026-04-08T13:34:02.838Z</time></trkpt><trkpt lat="45.8406212" lon="13.8916872"><ele>215.0</ele><time>2026-04-08T13:34:03.849Z</time></trkpt><trkpt lat="45.840527" lon="13.8916078"><ele>213.6</ele><time>2026-04-08T13:34:04.842Z</time></trkpt><trkpt lat="45.8404118" lon="13.8915792"><ele>212.2</ele><time>2026-04-08T13:34:05.841Z</time></trkpt><trkpt lat="45.8403121" lon="13.8915746"><ele>210.8</ele><time>2026-04-08T13:34:06.841Z</time></trkpt><trkpt lat="45.8402313" lon="13.8915248"><ele>209.4</ele><time>2026-04-08T13:34:07.832Z</time></trkpt><trkpt lat="45.8401796" lon="13.8913939"><ele>208.0</ele><time>2026-04-08T13:34:08.831Z</time></trkpt><trkpt lat="45.8401741" lon="13.8912482"><ele>208.0</ele><time>2026-04-08T13:34:09.829Z</time></trkpt><trkpt lat="45.8402045" lon="13.8911133"><ele>208.0</ele><time>2026-04-08T13:34:10.835Z</time></trkpt><trkpt lat="45.8402381" lon="13.8909561"><ele>208.0</ele><time>2026-04-08T13:34:11.828Z</time></trkpt><trkpt lat="45.8402429" lon="13.8907734"><ele>208.0</ele><time>2026-04-08T13:34:12.824Z</time></trkpt><trkpt lat="45.8402186" lon="13.8905504"><ele>206.33333333333331</ele><time>2026-04-08T13:34:13.818Z</time></trkpt><trkpt lat="45.8401883" lon="13.8903023"><ele>204.66666666666669</ele><time>2026-04-08T13:34:14.836Z</time></trkpt><trkpt lat="45.8401586" lon="13.8900495"><ele>203.0</ele><time>2026-04-08T13:34:15.829Z</time></trkpt><trkpt lat="45.8401224" lon="13.8898054"><ele>204.25</ele><time>2026-04-08T13:34:16.837Z</time></trkpt><trkpt lat="45.8400936" lon="13.889582"><ele>205.5</ele><time>2026-04-08T13:34:17.822Z</time></trkpt><trkpt lat="45.8400621" lon="13.8893677"><ele>206.75</ele><time>2026-04-08T13:34:18.83Z</time></trkpt><trkpt lat="45.8400226" lon="13.8891808"><ele>208.0</ele><time>2026-04-08T13:34:19.818Z</time></trkpt><trkpt lat="45.8399765" lon="13.8890121"><ele>208.0</ele><time>2026-04-08T13:34:20.829Z</time></trkpt><trkpt lat="45.8399288" lon="13.8888457"><ele>208.0</ele><time>2026-04-08T13:34:21.816Z</time></trkpt><trkpt lat="45.8398918" lon="13.8886699"><ele>208.0</ele><time>2026-04-08T13:34:22.839Z</time></trkpt><trkpt lat="45.8398479" lon="13.8884945"><ele>208.0</ele><time>2026-04-08T13:34:23.826Z</time></trkpt><trkpt lat="45.8398012" lon="13.8883139"><ele>205.5</ele><time>2026-04-08T13:34:24.824Z</time></trkpt><trkpt lat="45.8397686" lon="13.8881412"><ele>203.0</ele><time>2026-04-08T13:34:25.817Z</time></trkpt><trkpt lat="45.8397317" lon="13.8879608"><ele>200.5</ele><time>2026-04-08T13:34:26.821Z</time></trkpt><trkpt lat="45.839698" lon="13.8877921"><ele>198.0</ele><time>2026-04-08T13:34:27.83Z</time></trkpt><trkpt lat="45.8396631" lon="13.8876377"><ele>196.8</ele><time>2026-04-08T13:34:28.824Z</time></trkpt><trkpt lat="45.8396336" lon="13.8874891"><ele>195.60000000000002</ele><time>2026-04-08T13:34:29.82Z</time></trkpt><trkpt lat="45.8395968" lon="13.8873445"><ele>194.39999999999998</ele><time>2026-04-08T13:34:30.84Z</time></trkpt><trkpt lat="45.8395546" lon="13.8872151"><ele>193.2</ele><time>2026-04-08T13:34:31.816Z</time></trkpt><trkpt lat="45.8395006" lon="13.8871021"><ele>192.0</ele><time>2026-04-08T13:34:32.836Z</time></trkpt><trkpt lat="45.8394406" lon="13.8869989"><ele>192.0</ele><time>2026-04-08T13:34:33.828Z</time></trkpt><trkpt lat="45.8393858" lon="13.8868837"><ele>192.0</ele><time>2026-04-08T13:34:34.843Z</time></trkpt><trkpt lat="45.8393395" lon="13.8867702"><ele>192.0</ele><time>2026-04-08T13:34:35.838Z</time></trkpt><trkpt lat="45.8393006" lon="13.8866564"><ele>192.0</ele><time>2026-04-08T13:34:36.835Z</time></trkpt><trkpt lat="45.8392721" lon="13.8865433"><ele>192.0</ele><time>2026-04-08T13:34:37.822Z</time></trkpt><trkpt lat="45.8392487" lon="13.8864261"><ele>192.0</ele><time>2026-04-08T13:34:38.819Z</time></trkpt><trkpt lat="45.8392189" lon="13.8863147"><ele>191.5</ele><time>2026-04-08T13:34:39.824Z</time></trkpt><trkpt lat="45.8391829" lon="13.8862055"><ele>191.0</ele><time>2026-04-08T13:34:40.833Z</time></trkpt><trkpt lat="45.8391425" lon="13.8861002"><ele>190.5</ele><time>2026-04-08T13:34:41.825Z</time></trkpt><trkpt lat="45.8390991" lon="13.8859872"><ele>190.0</ele><time>2026-04-08T13:34:42.825Z</time></trkpt><trkpt lat="45.8390503" lon="13.8858904"><ele>189.5</ele><time>2026-04-08T13:34:43.831Z</time></trkpt><trkpt lat="45.8390024" lon="13.8858043"><ele>189.0</ele><time>2026-04-08T13:34:44.835Z</time></trkpt><trkpt lat="45.8389348" lon="13.88568"><ele>189.0</ele><time>2026-04-08T13:34:46.838Z</time></trkpt><trkpt lat="45.838864" lon="13.8856628"><ele>189.0</ele><time>2026-04-08T13:34:47.824Z</time></trkpt><trkpt lat="45.8387926" lon="13.8856771"><ele>189.0</ele><time>2026-04-08T13:34:48.846Z</time></trkpt><trkpt lat="45.8386703" lon="13.8857402"><ele>189.0</ele><time>2026-04-08T13:34:50.835Z</time></trkpt><trkpt lat="45.8386077" lon="13.8858156"><ele>189.0</ele><time>2026-04-08T13:34:51.82Z</time></trkpt><trkpt lat="45.8384854" lon="13.8858464"><ele>188.83333333333334</ele><time>2026-04-08T13:34:53.837Z</time></trkpt><trkpt lat="45.8384157" lon="13.8858187"><ele>188.66666666666666</ele><time>2026-04-08T13:34:54.84Z</time></trkpt><trkpt lat="45.8383504" lon="13.8857823"><ele>188.5</ele><time>2026-04-08T13:34:55.829Z</time></trkpt><trkpt lat="45.8382952" lon="13.8857386"><ele>188.33333333333331</ele><time>2026-04-08T13:34:56.838Z</time></trkpt><trkpt lat="45.8382173" lon="13.8856047"><ele>188.16666666666666</ele><time>2026-04-08T13:34:58.838Z</time></trkpt><trkpt lat="45.8382094" lon="13.8854931"><ele>188.0</ele><time>2026-04-08T13:34:59.838Z</time></trkpt><trkpt lat="45.8382191" lon="13.8853563"><ele>188.0</ele><time>2026-04-08T13:35:00.836Z</time></trkpt><trkpt lat="45.8382313" lon="13.8852139"><ele>188.0</ele><time>2026-04-08T13:35:01.827Z</time></trkpt><trkpt lat="45.838249" lon="13.8850808"><ele>188.0</ele><time>2026-04-08T13:35:02.836Z</time></trkpt><trkpt lat="45.8382756" lon="13.8849523"><ele>188.0</ele><time>2026-04-08T13:35:03.824Z</time></trkpt><trkpt lat="45.8382966" lon="13.8848315"><ele>188.0</ele><time>2026-04-08T13:35:04.834Z</time></trkpt><trkpt lat="45.838316" lon="13.8847118"><ele>187.0</ele><time>2026-04-08T13:35:05.817Z</time></trkpt><trkpt lat="45.8383332" lon="13.8845969"><ele>186.0</ele><time>2026-04-08T13:35:06.834Z</time></trkpt><trkpt lat="45.8383507" lon="13.8844948"><ele>185.0</ele><time>2026-04-08T13:35:07.836Z</time></trkpt><trkpt lat="45.8383562" lon="13.8843918"><ele>184.0</ele><time>2026-04-08T13:35:08.828Z</time></trkpt><trkpt lat="45.8383575" lon="13.8842857"><ele>183.0</ele><time>2026-04-08T13:35:09.815Z</time></trkpt><trkpt lat="45.8383421" lon="13.8841759"><ele>182.0</ele><time>2026-04-08T13:35:10.838Z</time></trkpt><trkpt lat="45.8382994" lon="13.8840785"><ele>181.0</ele><time>2026-04-08T13:35:11.839Z</time></trkpt><trkpt lat="45.8382281" lon="13.8839816"><ele>180.0</ele><time>2026-04-08T13:35:12.836Z</time></trkpt><trkpt lat="45.838139" lon="13.8838744"><ele>179.0</ele><time>2026-04-08T13:35:13.819Z</time></trkpt><trkpt lat="45.8380524" lon="13.8837601"><ele>178.0</ele><time>2026-04-08T13:35:14.839Z</time></trkpt><trkpt lat="45.8379767" lon="13.8836338"><ele>177.0</ele><time>2026-04-08T13:35:15.841Z</time></trkpt><trkpt lat="45.837906" lon="13.8835072"><ele>177.0</ele><time>2026-04-08T13:35:16.839Z</time></trkpt><trkpt lat="45.8378498" lon="13.883386"><ele>177.0</ele><time>2026-04-08T13:35:17.827Z</time></trkpt><trkpt lat="45.8378057" lon="13.8832548"><ele>177.0</ele><time>2026-04-08T13:35:18.841Z</time></trkpt><trkpt lat="45.8377559" lon="13.8831263"><ele>177.0</ele><time>2026-04-08T13:35:19.833Z</time></trkpt><trkpt lat="45.8376871" lon="13.8829883"><ele>177.0</ele><time>2026-04-08T13:35:20.833Z</time></trkpt><trkpt lat="45.8376168" lon="13.8828454"><ele>177.0</ele><time>2026-04-08T13:35:21.828Z</time></trkpt><trkpt lat="45.8375404" lon="13.8827042"><ele>177.0</ele><time>2026-04-08T13:35:22.834Z</time></trkpt><trkpt lat="45.8374657" lon="13.8825727"><ele>177.0</ele><time>2026-04-08T13:35:23.83Z</time></trkpt><trkpt lat="45.8373953" lon="13.8824555"><ele>177.0</ele><time>2026-04-08T13:35:24.832Z</time></trkpt><trkpt lat="45.8373432" lon="13.8823225"><ele>175.0</ele><time>2026-04-08T13:35:25.831Z</time></trkpt><trkpt lat="45.8373133" lon="13.8821649"><ele>173.0</ele><time>2026-04-08T13:35:26.829Z</time></trkpt><trkpt lat="45.8372834" lon="13.8818189"><ele>171.0</ele><time>2026-04-08T13:35:28.828Z</time></trkpt><trkpt lat="45.8372417" lon="13.8816526"><ele>170.25</ele><time>2026-04-08T13:35:29.822Z</time></trkpt><trkpt lat="45.8371842" lon="13.8814887"><ele>169.5</ele><time>2026-04-08T13:35:30.838Z</time></trkpt><trkpt lat="45.837108" lon="13.8813153"><ele>168.75</ele><time>2026-04-08T13:35:31.818Z</time></trkpt><trkpt lat="45.8370252" lon="13.881136"><ele>168.0</ele><time>2026-04-08T13:35:32.826Z</time></trkpt><trkpt lat="45.8369312" lon="13.880958"><ele>168.33333333333334</ele><time>2026-04-08T13:35:33.829Z</time></trkpt><trkpt lat="45.836837" lon="13.8807792"><ele>168.66666666666669</ele><time>2026-04-08T13:35:34.861Z</time></trkpt><trkpt lat="45.8367444" lon="13.8805936"><ele>169.0</ele><time>2026-04-08T13:35:35.82Z</time></trkpt><trkpt lat="45.8366587" lon="13.8804051"><ele>169.66666666666669</ele><time>2026-04-08T13:35:36.83Z</time></trkpt><trkpt lat="45.8365733" lon="13.8802183"><ele>170.33333333333334</ele><time>2026-04-08T13:35:37.815Z</time></trkpt><trkpt lat="45.8364766" lon="13.8800355"><ele>171.0</ele><time>2026-04-08T13:35:38.84Z</time></trkpt><trkpt lat="45.8363736" lon="13.8798629"><ele>168.66666666666666</ele><time>2026-04-08T13:35:39.831Z</time></trkpt><trkpt lat="45.836274" lon="13.8796952"><ele>166.33333333333331</ele><time>2026-04-08T13:35:40.829Z</time></trkpt><trkpt lat="45.8361772" lon="13.8795231"><ele>164.0</ele><time>2026-04-08T13:35:41.82Z</time></trkpt><trkpt lat="45.8360842" lon="13.8793485"><ele>163.66666666666666</ele><time>2026-04-08T13:35:42.823Z</time></trkpt><trkpt lat="45.8360018" lon="13.8791601"><ele>163.33333333333334</ele><time>2026-04-08T13:35:43.828Z</time></trkpt><trkpt lat="45.8359295" lon="13.8789687"><ele>163.0</ele><time>2026-04-08T13:35:44.835Z</time></trkpt><trkpt lat="45.8358564" lon="13.8787848"><ele>163.0</ele><time>2026-04-08T13:35:45.815Z</time></trkpt><trkpt lat="45.8357783" lon="13.8786062"><ele>163.0</ele><time>2026-04-08T13:35:46.822Z</time></trkpt><trkpt lat="45.8356855" lon="13.8784389"><ele>163.0</ele><time>2026-04-08T13:35:47.822Z</time></trkpt><trkpt lat="45.8355692" lon="13.8782889"><ele>162.0</ele><time>2026-04-08T13:35:48.825Z</time></trkpt><trkpt lat="45.835434" lon="13.8781405"><ele>161.0</ele><time>2026-04-08T13:35:49.83Z</time></trkpt><trkpt lat="45.8352958" lon="13.8779773"><ele>160.0</ele><time>2026-04-08T13:35:50.84Z</time></trkpt><trkpt lat="45.8351585" lon="13.8778012"><ele>160.33333333333334</ele><time>2026-04-08T13:35:51.832Z</time></trkpt><trkpt lat="45.8350275" lon="13.8776121"><ele>160.66666666666666</ele><time>2026-04-08T13:35:52.831Z</time></trkpt><trkpt lat="45.8348966" lon="13.8774164"><ele>161.0</ele><time>2026-04-08T13:35:53.822Z</time></trkpt><trkpt lat="45.8347721" lon="13.8772258"><ele>159.66666666666666</ele><time>2026-04-08T13:35:54.827Z</time></trkpt><trkpt lat="45.8346447" lon="13.8770424"><ele>158.33333333333334</ele><time>2026-04-08T13:35:55.818Z</time></trkpt><trkpt lat="45.8345169" lon="13.8768621"><ele>157.0</ele><time>2026-04-08T13:35:56.826Z</time></trkpt><trkpt lat="45.834265" lon="13.8764973"><ele>156.66666666666669</ele><time>2026-04-08T13:35:58.836Z</time></trkpt><trkpt lat="45.8341398" lon="13.8763149"><ele>156.33333333333334</ele><time>2026-04-08T13:35:59.84Z</time></trkpt><trkpt lat="45.8340096" lon="13.8761482"><ele>156.0</ele><time>2026-04-08T13:36:00.826Z</time></trkpt><trkpt lat="45.833865" lon="13.876004"><ele>157.33333333333334</ele><time>2026-04-08T13:36:01.819Z</time></trkpt><trkpt lat="45.8337101" lon="13.8758845"><ele>158.66666666666669</ele><time>2026-04-08T13:36:02.844Z</time></trkpt><trkpt lat="45.8335454" lon="13.875783"><ele>160.0</ele><time>2026-04-08T13:36:03.826Z</time></trkpt><trkpt lat="45.8333735" lon="13.8756888"><ele>157.33333333333334</ele><time>2026-04-08T13:36:04.829Z</time></trkpt><trkpt lat="45.8331955" lon="13.8755937"><ele>154.66666666666666</ele><time>2026-04-08T13:36:05.813Z</time></trkpt><trkpt lat="45.8330262" lon="13.8754687"><ele>152.0</ele><time>2026-04-08T13:36:06.836Z</time></trkpt><trkpt lat="45.8328647" lon="13.8753044"><ele>152.0</ele><time>2026-04-08T13:36:07.826Z</time></trkpt><trkpt lat="45.8327095" lon="13.8751323"><ele>152.0</ele><time>2026-04-08T13:36:08.84Z</time></trkpt><trkpt lat="45.8325618" lon="13.874961"><ele>152.0</ele><time>2026-04-08T13:36:09.825Z</time></trkpt><trkpt lat="45.832415" lon="13.8748062"><ele>153.33333333333331</ele><time>2026-04-08T13:36:10.817Z</time></trkpt><trkpt lat="45.8322587" lon="13.8746724"><ele>154.66666666666666</ele><time>2026-04-08T13:36:11.821Z</time></trkpt><trkpt lat="45.832075" lon="13.8745727"><ele>156.0</ele><time>2026-04-08T13:36:12.832Z</time></trkpt><trkpt lat="45.8318789" lon="13.8744761"><ele>157.0</ele><time>2026-04-08T13:36:13.814Z</time></trkpt><trkpt lat="45.8316922" lon="13.8743831"><ele>158.0</ele><time>2026-04-08T13:36:14.825Z</time></trkpt><trkpt lat="45.8315156" lon="13.8742889"><ele>159.0</ele><time>2026-04-08T13:36:15.83Z</time></trkpt><trkpt lat="45.8313568" lon="13.8741607"><ele>159.0</ele><time>2026-04-08T13:36:16.828Z</time></trkpt><trkpt lat="45.831212" lon="13.8739941"><ele>159.0</ele><time>2026-04-08T13:36:17.827Z</time></trkpt><trkpt lat="45.8310706" lon="13.8738025"><ele>159.0</ele><time>2026-04-08T13:36:18.823Z</time></trkpt><trkpt lat="45.8309256" lon="13.8736048"><ele>157.33333333333334</ele><time>2026-04-08T13:36:19.842Z</time></trkpt><trkpt lat="45.8307779" lon="13.8734267"><ele>155.66666666666669</ele><time>2026-04-08T13:36:20.808Z</time></trkpt><trkpt lat="45.8306384" lon="13.8732639"><ele>154.0</ele><time>2026-04-08T13:36:21.821Z</time></trkpt><trkpt lat="45.8305006" lon="13.873136"><ele>154.0</ele><time>2026-04-08T13:36:22.814Z</time></trkpt><trkpt lat="45.8303472" lon="13.8730539"><ele>154.0</ele><time>2026-04-08T13:36:23.812Z</time></trkpt><trkpt lat="45.8301874" lon="13.8729951"><ele>154.0</ele><time>2026-04-08T13:36:24.813Z</time></trkpt><trkpt lat="45.8300464" lon="13.8729314"><ele>154.33333333333334</ele><time>2026-04-08T13:36:25.82Z</time></trkpt><trkpt lat="45.8299186" lon="13.8728361"><ele>154.66666666666666</ele><time>2026-04-08T13:36:26.822Z</time></trkpt><trkpt lat="45.8297915" lon="13.8727065"><ele>155.0</ele><time>2026-04-08T13:36:27.824Z</time></trkpt><trkpt lat="45.8296583" lon="13.8725591"><ele>155.0</ele><time>2026-04-08T13:36:28.824Z</time></trkpt><trkpt lat="45.8295145" lon="13.8724072"><ele>155.0</ele><time>2026-04-08T13:36:29.817Z</time></trkpt><trkpt lat="45.8293677" lon="13.8722713"><ele>155.0</ele><time>2026-04-08T13:36:30.816Z</time></trkpt><trkpt lat="45.829234" lon="13.872129"><ele>154.25</ele><time>2026-04-08T13:36:31.814Z</time></trkpt><trkpt lat="45.8291322" lon="13.8719759"><ele>153.5</ele><time>2026-04-08T13:36:32.821Z</time></trkpt><trkpt lat="45.8290567" lon="13.8718109"><ele>152.75</ele><time>2026-04-08T13:36:33.807Z</time></trkpt><trkpt lat="45.8289862" lon="13.8716105"><ele>152.0</ele><time>2026-04-08T13:36:34.823Z</time></trkpt><trkpt lat="45.8289161" lon="13.8713975"><ele>152.0</ele><time>2026-04-08T13:36:35.811Z</time></trkpt><trkpt lat="45.8288216" lon="13.8711764"><ele>152.0</ele><time>2026-04-08T13:36:36.82Z</time></trkpt><trkpt lat="45.8287164" lon="13.870947"><ele>152.0</ele><time>2026-04-08T13:36:37.81Z</time></trkpt><trkpt lat="45.82862" lon="13.8707317"><ele>151.33333333333331</ele><time>2026-04-08T13:36:38.819Z</time></trkpt><trkpt lat="45.8285312" lon="13.870523"><ele>150.66666666666666</ele><time>2026-04-08T13:36:39.819Z</time></trkpt><trkpt lat="45.8284312" lon="13.870345"><ele>150.0</ele><time>2026-04-08T13:36:40.837Z</time></trkpt><trkpt lat="45.8283257" lon="13.8701953"><ele>150.75</ele><time>2026-04-08T13:36:41.82Z</time></trkpt><trkpt lat="45.8282074" lon="13.8700906"><ele>151.5</ele><time>2026-04-08T13:36:42.809Z</time></trkpt><trkpt lat="45.8280755" lon="13.8700004"><ele>152.25</ele><time>2026-04-08T13:36:43.814Z</time></trkpt><trkpt lat="45.8279544" lon="13.869938"><ele>153.0</ele><time>2026-04-08T13:36:44.817Z</time></trkpt><trkpt lat="45.8278583" lon="13.8698926"><ele>153.0</ele><time>2026-04-08T13:36:45.822Z</time></trkpt><trkpt lat="45.8277941" lon="13.8698704"><ele>153.0</ele><time>2026-04-08T13:36:46.824Z</time></trkpt><trkpt lat="45.8276426" lon="13.8698902"><ele>153.0</ele><time>2026-04-08T13:36:48.819Z</time></trkpt><trkpt lat="45.8275393" lon="13.8699222"><ele>153.0</ele><time>2026-04-08T13:36:49.829Z</time></trkpt><trkpt lat="45.8274326" lon="13.8699091"><ele>153.0</ele><time>2026-04-08T13:36:50.829Z</time></trkpt><trkpt lat="45.8273275" lon="13.8698632"><ele>152.0</ele><time>2026-04-08T13:36:51.819Z</time></trkpt><trkpt lat="45.8272059" lon="13.869828"><ele>151.0</ele><time>2026-04-08T13:36:52.823Z</time></trkpt><trkpt lat="45.8270686" lon="13.8697823"><ele>150.0</ele><time>2026-04-08T13:36:53.818Z</time></trkpt><trkpt lat="45.8269299" lon="13.8697648"><ele>149.0</ele><time>2026-04-08T13:36:54.83Z</time></trkpt><trkpt lat="45.8268085" lon="13.8697829"><ele>148.75</ele><time>2026-04-08T13:36:55.811Z</time></trkpt><trkpt lat="45.8266921" lon="13.8698728"><ele>148.5</ele><time>2026-04-08T13:36:56.821Z</time></trkpt><trkpt lat="45.8265833" lon="13.8699959"><ele>148.25</ele><time>2026-04-08T13:36:57.814Z</time></trkpt><trkpt lat="45.8264952" lon="13.8701358"><ele>148.0</ele><time>2026-04-08T13:36:58.826Z</time></trkpt><trkpt lat="45.826413" lon="13.8703021"><ele>151.0</ele><time>2026-04-08T13:36:59.821Z</time></trkpt><trkpt lat="45.8262977" lon="13.8704947"><ele>154.0</ele><time>2026-04-08T13:37:00.855Z</time></trkpt><trkpt lat="45.8261594" lon="13.8706848"><ele>157.0</ele><time>2026-04-08T13:37:01.818Z</time></trkpt><trkpt lat="45.8260226" lon="13.8708713"><ele>156.0</ele><time>2026-04-08T13:37:02.82Z</time></trkpt><trkpt lat="45.8258829" lon="13.8710625"><ele>155.0</ele><time>2026-04-08T13:37:03.824Z</time></trkpt><trkpt lat="45.8257457" lon="13.8712508"><ele>154.0</ele><time>2026-04-08T13:37:04.851Z</time></trkpt><trkpt lat="45.8256243" lon="13.8714318"><ele>154.0</ele><time>2026-04-08T13:37:05.814Z</time></trkpt><trkpt lat="45.8255176" lon="13.8716121"><ele>154.0</ele><time>2026-04-08T13:37:06.829Z</time></trkpt><trkpt lat="45.8254364" lon="13.8718291"><ele>154.0</ele><time>2026-04-08T13:37:07.835Z</time></trkpt><trkpt lat="45.8253752" lon="13.8720759"><ele>154.33333333333334</ele><time>2026-04-08T13:37:08.822Z</time></trkpt><trkpt lat="45.8253288" lon="13.8723369"><ele>154.66666666666666</ele><time>2026-04-08T13:37:09.826Z</time></trkpt><trkpt lat="45.8253049" lon="13.8725986"><ele>155.0</ele><time>2026-04-08T13:37:10.813Z</time></trkpt><trkpt lat="45.8253128" lon="13.8728792"><ele>155.0</ele><time>2026-04-08T13:37:11.81Z</time></trkpt><trkpt lat="45.8253243" lon="13.8731754"><ele>155.0</ele><time>2026-04-08T13:37:12.82Z</time></trkpt><trkpt lat="45.8253238" lon="13.8734734"><ele>155.0</ele><time>2026-04-08T13:37:13.821Z</time></trkpt><trkpt lat="45.8253254" lon="13.8737691"><ele>155.0</ele><time>2026-04-08T13:37:14.823Z</time></trkpt><trkpt lat="45.8253289" lon="13.8740658"><ele>155.0</ele><time>2026-04-08T13:37:15.827Z</time></trkpt><trkpt lat="45.8253142" lon="13.8743688"><ele>155.0</ele><time>2026-04-08T13:37:16.822Z</time></trkpt><trkpt lat="45.8252777" lon="13.8746834"><ele>155.0</ele><time>2026-04-08T13:37:17.822Z</time></trkpt><trkpt lat="45.8252328" lon="13.8749919"><ele>155.0</ele><time>2026-04-08T13:37:18.825Z</time></trkpt><trkpt lat="45.8251803" lon="13.8752788"><ele>155.0</ele><time>2026-04-08T13:37:19.81Z</time></trkpt><trkpt lat="45.8251207" lon="13.8755499"><ele>152.0</ele><time>2026-04-08T13:37:20.825Z</time></trkpt><trkpt lat="45.8250557" lon="13.8758088"><ele>149.0</ele><time>2026-04-08T13:37:21.834Z</time></trkpt><trkpt lat="45.825007" lon="13.8760725"><ele>146.0</ele><time>2026-04-08T13:37:22.828Z</time></trkpt><trkpt lat="45.8249626" lon="13.8763352"><ele>146.0</ele><time>2026-04-08T13:37:23.82Z</time></trkpt><trkpt lat="45.8249121" lon="13.8765933"><ele>146.0</ele><time>2026-04-08T13:37:24.834Z</time></trkpt><trkpt lat="45.8248691" lon="13.8768153"><ele>146.0</ele><time>2026-04-08T13:37:25.814Z</time></trkpt><trkpt lat="45.8247941" lon="13.8769894"><ele>147.5</ele><time>2026-04-08T13:37:26.831Z</time></trkpt><trkpt lat="45.8245566" lon="13.8772956"><ele>149.0</ele><time>2026-04-08T13:37:28.82Z</time></trkpt><trkpt lat="45.8244344" lon="13.8774643"><ele>149.33333333333331</ele><time>2026-04-08T13:37:29.812Z</time></trkpt><trkpt lat="45.8243321" lon="13.8776645"><ele>149.66666666666666</ele><time>2026-04-08T13:37:30.824Z</time></trkpt><trkpt lat="45.8242427" lon="13.877911"><ele>150.0</ele><time>2026-04-08T13:37:31.809Z</time></trkpt><trkpt lat="45.8241478" lon="13.8781597"><ele>150.0</ele><time>2026-04-08T13:37:32.826Z</time></trkpt><trkpt lat="45.8240454" lon="13.8783993"><ele>150.0</ele><time>2026-04-08T13:37:33.816Z</time></trkpt><trkpt lat="45.8239301" lon="13.8786294"><ele>150.0</ele><time>2026-04-08T13:37:34.822Z</time></trkpt><trkpt lat="45.8238174" lon="13.8788682"><ele>154.0</ele><time>2026-04-08T13:37:35.826Z</time></trkpt><trkpt lat="45.8237168" lon="13.8791275"><ele>158.0</ele><time>2026-04-08T13:37:36.823Z</time></trkpt><trkpt lat="45.8236236" lon="13.8793666"><ele>162.0</ele><time>2026-04-08T13:37:37.822Z</time></trkpt><trkpt lat="45.8235217" lon="13.8795602"><ele>159.0</ele><time>2026-04-08T13:37:38.819Z</time></trkpt><trkpt lat="45.8233898" lon="13.8797137"><ele>156.0</ele><time>2026-04-08T13:37:39.813Z</time></trkpt><trkpt lat="45.8232391" lon="13.8798515"><ele>153.0</ele><time>2026-04-08T13:37:40.817Z</time></trkpt><trkpt lat="45.823082" lon="13.8799924"><ele>155.0</ele><time>2026-04-08T13:37:41.835Z</time></trkpt><trkpt lat="45.8229395" lon="13.8801315"><ele>157.0</ele><time>2026-04-08T13:37:42.825Z</time></trkpt><trkpt lat="45.822805" lon="13.8803001"><ele>159.0</ele><time>2026-04-08T13:37:43.816Z</time></trkpt><trkpt lat="45.8226632" lon="13.8805007"><ele>155.66666666666666</ele><time>2026-04-08T13:37:44.837Z</time></trkpt><trkpt lat="45.8225183" lon="13.880711"><ele>152.33333333333331</ele><time>2026-04-08T13:37:45.816Z</time></trkpt><trkpt lat="45.8223761" lon="13.8809306"><ele>149.0</ele><time>2026-04-08T13:37:46.826Z</time></trkpt><trkpt lat="45.8222333" lon="13.8811469"><ele>149.0</ele><time>2026-04-08T13:37:47.82Z</time></trkpt><trkpt lat="45.8220888" lon="13.8813583"><ele>149.0</ele><time>2026-04-08T13:37:48.821Z</time></trkpt><trkpt lat="45.8219383" lon="13.8815629"><ele>149.0</ele><time>2026-04-08T13:37:49.811Z</time></trkpt><trkpt lat="45.8217906" lon="13.881766"><ele>149.33333333333331</ele><time>2026-04-08T13:37:50.826Z</time></trkpt><trkpt lat="45.8216498" lon="13.8819815"><ele>149.66666666666666</ele><time>2026-04-08T13:37:51.816Z</time></trkpt><trkpt lat="45.8215183" lon="13.8821957"><ele>150.0</ele><time>2026-04-08T13:37:52.825Z</time></trkpt><trkpt lat="45.8213924" lon="13.8824074"><ele>150.33333333333334</ele><time>2026-04-08T13:37:53.824Z</time></trkpt><trkpt lat="45.8212684" lon="13.8826145"><ele>150.66666666666669</ele><time>2026-04-08T13:37:54.824Z</time></trkpt><trkpt lat="45.8211372" lon="13.8828216"><ele>151.0</ele><time>2026-04-08T13:37:55.828Z</time></trkpt><trkpt lat="45.8209941" lon="13.8830242"><ele>150.66666666666669</ele><time>2026-04-08T13:37:56.826Z</time></trkpt><trkpt lat="45.8208425" lon="13.8832139"><ele>150.33333333333334</ele><time>2026-04-08T13:37:57.817Z</time></trkpt><trkpt lat="45.820684" lon="13.8834086"><ele>150.0</ele><time>2026-04-08T13:37:58.823Z</time></trkpt><trkpt lat="45.8205213" lon="13.8836071"><ele>150.0</ele><time>2026-04-08T13:37:59.815Z</time></trkpt><trkpt lat="45.8203571" lon="13.8838172"><ele>150.0</ele><time>2026-04-08T13:38:00.832Z</time></trkpt><trkpt lat="45.820191" lon="13.8840171"><ele>150.0</ele><time>2026-04-08T13:38:01.809Z</time></trkpt><trkpt lat="45.8200414" lon="13.8842003"><ele>151.66666666666666</ele><time>2026-04-08T13:38:02.827Z</time></trkpt><trkpt lat="45.8199148" lon="13.8843764"><ele>153.33333333333331</ele><time>2026-04-08T13:38:03.811Z</time></trkpt><trkpt lat="45.8198107" lon="13.8845495"><ele>155.0</ele><time>2026-04-08T13:38:04.824Z</time></trkpt><trkpt lat="45.8197297" lon="13.8847076"><ele>155.0</ele><time>2026-04-08T13:38:05.81Z</time></trkpt><trkpt lat="45.8196595" lon="13.8848728"><ele>155.0</ele><time>2026-04-08T13:38:06.83Z</time></trkpt><trkpt lat="45.8195736" lon="13.885037"><ele>155.0</ele><time>2026-04-08T13:38:07.809Z</time></trkpt><trkpt lat="45.819469" lon="13.8851972"><ele>155.0</ele><time>2026-04-08T13:38:08.83Z</time></trkpt><trkpt lat="45.8193552" lon="13.8853545"><ele>154.0</ele><time>2026-04-08T13:38:09.825Z</time></trkpt><trkpt lat="45.8192362" lon="13.8855131"><ele>153.0</ele><time>2026-04-08T13:38:10.816Z</time></trkpt><trkpt lat="45.8191119" lon="13.8856692"><ele>152.0</ele><time>2026-04-08T13:38:11.809Z</time></trkpt><trkpt lat="45.8189886" lon="13.8858039"><ele>152.0</ele><time>2026-04-08T13:38:12.819Z</time></trkpt><trkpt lat="45.8188685" lon="13.8859125"><ele>152.0</ele><time>2026-04-08T13:38:13.832Z</time></trkpt><trkpt lat="45.8187455" lon="13.8860084"><ele>152.0</ele><time>2026-04-08T13:38:14.817Z</time></trkpt><trkpt lat="45.8186226" lon="13.8861067"><ele>152.0</ele><time>2026-04-08T13:38:15.815Z</time></trkpt><trkpt lat="45.8185088" lon="13.8861979"><ele>152.4</ele><time>2026-04-08T13:38:16.829Z</time></trkpt><trkpt lat="45.8184312" lon="13.8862658"><ele>152.79999999999998</ele><time>2026-04-08T13:38:17.819Z</time></trkpt><trkpt lat="45.8183675" lon="13.8863236"><ele>153.2</ele><time>2026-04-08T13:38:20.819Z</time></trkpt><trkpt lat="45.8182844" lon="13.8864059"><ele>153.6</ele><time>2026-04-08T13:39:19.826Z</time></trkpt><trkpt lat="45.8181962" lon="13.8864916"><ele>154.0</ele><time>2026-04-08T13:39:20.807Z</time></trkpt><trkpt lat="45.8180725" lon="13.8865974"><ele>154.0</ele><time>2026-04-08T13:39:21.824Z</time></trkpt><trkpt lat="45.817925" lon="13.8867047"><ele>154.0</ele><time>2026-04-08T13:39:22.819Z</time></trkpt><trkpt lat="45.817768" lon="13.8868092"><ele>154.0</ele><time>2026-04-08T13:39:23.811Z</time></trkpt><trkpt lat="45.8176171" lon="13.8869187"><ele>155.25</ele><time>2026-04-08T13:39:24.819Z</time></trkpt><trkpt lat="45.8174817" lon="13.8870332"><ele>156.5</ele><time>2026-04-08T13:39:25.806Z</time></trkpt><trkpt lat="45.8173748" lon="13.8871379"><ele>157.75</ele><time>2026-04-08T13:39:26.82Z</time></trkpt><trkpt lat="45.8172919" lon="13.8872564"><ele>159.0</ele><time>2026-04-08T13:39:27.811Z</time></trkpt><trkpt lat="45.8172271" lon="13.8873765"><ele>159.0</ele><time>2026-04-08T13:39:28.815Z</time></trkpt><trkpt lat="45.817173" lon="13.887488"><ele>159.0</ele><time>2026-04-08T13:39:29.823Z</time></trkpt><trkpt lat="45.8171088" lon="13.8875749"><ele>159.0</ele><time>2026-04-08T13:39:30.814Z</time></trkpt><trkpt lat="45.817019" lon="13.8876323"><ele>159.0</ele><time>2026-04-08T13:39:31.814Z</time></trkpt><trkpt lat="45.816912" lon="13.8876731"><ele>159.0</ele><time>2026-04-08T13:39:32.819Z</time></trkpt><trkpt lat="45.8167937" lon="13.8877195"><ele>161.66666666666666</ele><time>2026-04-08T13:39:33.805Z</time></trkpt><trkpt lat="45.8166683" lon="13.8877942"><ele>164.33333333333331</ele><time>2026-04-08T13:39:34.815Z</time></trkpt><trkpt lat="45.8165272" lon="13.887892"><ele>167.0</ele><time>2026-04-08T13:39:35.81Z</time></trkpt><trkpt lat="45.8163829" lon="13.8879931"><ele>167.0</ele><time>2026-04-08T13:39:36.813Z</time></trkpt><trkpt lat="45.8162311" lon="13.8881011"><ele>167.0</ele><time>2026-04-08T13:39:37.807Z</time></trkpt><trkpt lat="45.8160732" lon="13.8882098"><ele>167.0</ele><time>2026-04-08T13:39:38.82Z</time></trkpt><trkpt lat="45.8159114" lon="13.8883179"><ele>168.33333333333331</ele><time>2026-04-08T13:39:39.825Z</time></trkpt><trkpt lat="45.8157461" lon="13.8884303"><ele>169.66666666666666</ele><time>2026-04-08T13:39:40.826Z</time></trkpt><trkpt lat="45.8155814" lon="13.8885421"><ele>171.0</ele><time>2026-04-08T13:39:41.817Z</time></trkpt><trkpt lat="45.8154226" lon="13.8886626"><ele>171.0</ele><time>2026-04-08T13:39:42.82Z</time></trkpt><trkpt lat="45.8152692" lon="13.8887949"><ele>171.0</ele><time>2026-04-08T13:39:43.827Z</time></trkpt><trkpt lat="45.8151225" lon="13.8889271"><ele>171.0</ele><time>2026-04-08T13:39:44.82Z</time></trkpt><trkpt lat="45.8149895" lon="13.8890574"><ele>172.0</ele><time>2026-04-08T13:39:45.806Z</time></trkpt><trkpt lat="45.8148656" lon="13.8891897"><ele>173.0</ele><time>2026-04-08T13:39:46.839Z</time></trkpt><trkpt lat="45.8147536" lon="13.8893246"><ele>174.0</ele><time>2026-04-08T13:39:47.803Z</time></trkpt><trkpt lat="45.8146464" lon="13.8894755"><ele>174.0</ele><time>2026-04-08T13:39:48.82Z</time></trkpt><trkpt lat="45.8145548" lon="13.8896278"><ele>174.0</ele><time>2026-04-08T13:39:49.821Z</time></trkpt><trkpt lat="45.8144886" lon="13.8897838"><ele>174.0</ele><time>2026-04-08T13:39:50.824Z</time></trkpt><trkpt lat="45.8144476" lon="13.8899496"><ele>174.0</ele><time>2026-04-08T13:39:51.823Z</time></trkpt><trkpt lat="45.8144503" lon="13.8901298"><ele>173.5</ele><time>2026-04-08T13:39:52.823Z</time></trkpt><trkpt lat="45.8144538" lon="13.8903115"><ele>173.0</ele><time>2026-04-08T13:39:53.825Z</time></trkpt><trkpt lat="45.8144293" lon="13.8904458"><ele>172.5</ele><time>2026-04-08T13:39:54.819Z</time></trkpt><trkpt lat="45.8143629" lon="13.8905612"><ele>172.0</ele><time>2026-04-08T13:39:55.823Z</time></trkpt><trkpt lat="45.8142748" lon="13.8906902"><ele>172.0</ele><time>2026-04-08T13:39:56.818Z</time></trkpt><trkpt lat="45.8141787" lon="13.8908275"><ele>172.0</ele><time>2026-04-08T13:39:57.811Z</time></trkpt><trkpt lat="45.8140828" lon="13.8909788"><ele>172.0</ele><time>2026-04-08T13:39:58.817Z</time></trkpt><trkpt lat="45.8139981" lon="13.8911248"><ele>172.0</ele><time>2026-04-08T13:39:59.805Z</time></trkpt><trkpt lat="45.8139309" lon="13.891292"><ele>175.0</ele><time>2026-04-08T13:40:00.818Z</time></trkpt><trkpt lat="45.8138657" lon="13.8914591"><ele>178.0</ele><time>2026-04-08T13:40:01.809Z</time></trkpt><trkpt lat="45.8138101" lon="13.8915946"><ele>181.0</ele><time>2026-04-08T13:40:02.817Z</time></trkpt><trkpt lat="45.8137595" lon="13.891704"><ele>184.0</ele><time>2026-04-08T13:40:03.815Z</time></trkpt><trkpt lat="45.813709" lon="13.8917662"><ele>187.0</ele><time>2026-04-08T13:40:04.832Z</time></trkpt><trkpt lat="45.813638" lon="13.8917709"><ele>187.0</ele><time>2026-04-08T13:40:06.84Z</time></trkpt><trkpt lat="45.8135707" lon="13.8915996"><ele>187.0</ele><time>2026-04-08T13:40:08.813Z</time></trkpt><trkpt lat="45.8135123" lon="13.8914132"><ele>187.0</ele><time>2026-04-08T13:40:09.82Z</time></trkpt><trkpt lat="45.8134398" lon="13.8912135"><ele>187.0</ele><time>2026-04-08T13:40:10.828Z</time></trkpt><trkpt lat="45.8133547" lon="13.8909882"><ele>179.0</ele><time>2026-04-08T13:40:11.813Z</time></trkpt><trkpt lat="45.8132672" lon="13.8907328"><ele>171.0</ele><time>2026-04-08T13:40:12.813Z</time></trkpt><trkpt lat="45.8131956" lon="13.8905035"><ele>163.0</ele><time>2026-04-08T13:40:13.818Z</time></trkpt><trkpt lat="45.8131455" lon="13.8902762"><ele>164.33333333333334</ele><time>2026-04-08T13:40:14.823Z</time></trkpt><trkpt lat="45.8131152" lon="13.8900424"><ele>165.66666666666666</ele><time>2026-04-08T13:40:15.815Z</time></trkpt><trkpt lat="45.8131042" lon="13.8898051"><ele>167.0</ele><time>2026-04-08T13:40:16.812Z</time></trkpt><trkpt lat="45.8131208" lon="13.8895481"><ele>167.0</ele><time>2026-04-08T13:40:17.819Z</time></trkpt><trkpt lat="45.8131624" lon="13.8892894"><ele>167.0</ele><time>2026-04-08T13:40:18.835Z</time></trkpt><trkpt lat="45.8132099" lon="13.8890328"><ele>167.0</ele><time>2026-04-08T13:40:19.831Z</time></trkpt><trkpt lat="45.8132713" lon="13.8888021"><ele>163.0</ele><time>2026-04-08T13:40:20.832Z</time></trkpt><trkpt lat="45.8134675" lon="13.888414"><ele>159.0</ele><time>2026-04-08T13:40:22.826Z</time></trkpt><trkpt lat="45.8135741" lon="13.8882139"><ele>159.0</ele><time>2026-04-08T13:40:23.819Z</time></trkpt><trkpt lat="45.8136593" lon="13.8880148"><ele>159.0</ele><time>2026-04-08T13:40:24.814Z</time></trkpt><trkpt lat="45.8137013" lon="13.8878331"><ele>159.0</ele><time>2026-04-08T13:40:25.803Z</time></trkpt><trkpt lat="45.8137103" lon="13.8876774"><ele>159.0</ele><time>2026-04-08T13:40:26.822Z</time></trkpt><trkpt lat="45.8136681" lon="13.887515"><ele>159.0</ele><time>2026-04-08T13:40:27.824Z</time></trkpt><trkpt lat="45.8135751" lon="13.8873331"><ele>159.0</ele><time>2026-04-08T13:40:28.826Z</time></trkpt><trkpt lat="45.8134801" lon="13.8871638"><ele>159.0</ele><time>2026-04-08T13:40:29.82Z</time></trkpt><trkpt lat="45.813392" lon="13.8870227"><ele>159.0</ele><time>2026-04-08T13:40:30.818Z</time></trkpt><trkpt lat="45.8133154" lon="13.8869043"><ele>160.5</ele><time>2026-04-08T13:40:31.817Z</time></trkpt><trkpt lat="45.8132513" lon="13.8868108"><ele>162.0</ele><time>2026-04-08T13:40:32.811Z</time></trkpt><trkpt lat="45.8131939" lon="13.8867234"><ele>163.5</ele><time>2026-04-08T13:40:33.827Z</time></trkpt><trkpt lat="45.8131361" lon="13.8866371"><ele>165.0</ele><time>2026-04-08T13:40:34.827Z</time></trkpt><trkpt lat="45.8130762" lon="13.886554"><ele>166.5</ele><time>2026-04-08T13:40:35.844Z</time></trkpt><trkpt lat="45.8130118" lon="13.8864671"><ele>168.0</ele><time>2026-04-08T13:40:36.829Z</time></trkpt><trkpt lat="45.8129454" lon="13.8863723"><ele>168.0</ele><time>2026-04-08T13:40:37.805Z</time></trkpt><trkpt lat="45.8128741" lon="13.8862796"><ele>168.0</ele><time>2026-04-08T13:40:38.817Z</time></trkpt><trkpt lat="45.8128074" lon="13.8861857"><ele>168.0</ele><time>2026-04-08T13:40:39.814Z</time></trkpt><trkpt lat="45.8127464" lon="13.8860779"><ele>168.0</ele><time>2026-04-08T13:40:40.83Z</time></trkpt><trkpt lat="45.8126955" lon="13.8859523"><ele>168.0</ele><time>2026-04-08T13:40:41.825Z</time></trkpt><trkpt lat="45.8126496" lon="13.8858226"><ele>169.0</ele><time>2026-04-08T13:40:42.82Z</time></trkpt><trkpt lat="45.8126086" lon="13.8856883"><ele>170.0</ele><time>2026-04-08T13:40:43.825Z</time></trkpt><trkpt lat="45.8125682" lon="13.8855569"><ele>171.0</ele><time>2026-04-08T13:40:44.819Z</time></trkpt><trkpt lat="45.8125189" lon="13.8854352"><ele>172.0</ele><time>2026-04-08T13:40:45.805Z</time></trkpt><trkpt lat="45.8124631" lon="13.8853173"><ele>173.0</ele><time>2026-04-08T13:40:46.825Z</time></trkpt><trkpt lat="45.8123184" lon="13.885117"><ele>171.5</ele><time>2026-04-08T13:40:48.828Z</time></trkpt><trkpt lat="45.8122391" lon="13.8850201"><ele>170.0</ele><time>2026-04-08T13:40:49.804Z</time></trkpt><trkpt lat="45.8121896" lon="13.8849101"><ele>168.5</ele><time>2026-04-08T13:40:50.813Z</time></trkpt><trkpt lat="45.8121419" lon="13.8846622"><ele>167.0</ele><time>2026-04-08T13:40:52.823Z</time></trkpt><trkpt lat="45.8121483" lon="13.8845399"><ele>167.0</ele><time>2026-04-08T13:40:53.805Z</time></trkpt><trkpt lat="45.8121558" lon="13.8844136"><ele>167.0</ele><time>2026-04-08T13:40:54.813Z</time></trkpt><trkpt lat="45.8121527" lon="13.8842928"><ele>167.0</ele><time>2026-04-08T13:40:55.808Z</time></trkpt><trkpt lat="45.812125" lon="13.8841681"><ele>167.0</ele><time>2026-04-08T13:40:56.82Z</time></trkpt><trkpt lat="45.8120911" lon="13.8840422"><ele>167.0</ele><time>2026-04-08T13:40:57.809Z</time></trkpt><trkpt lat="45.8120492" lon="13.8838918"><ele>166.39999999999998</ele><time>2026-04-08T13:40:58.81Z</time></trkpt><trkpt lat="45.8119982" lon="13.8837526"><ele>165.79999999999998</ele><time>2026-04-08T13:40:59.808Z</time></trkpt><trkpt lat="45.8119493" lon="13.8836212"><ele>165.2</ele><time>2026-04-08T13:41:00.809Z</time></trkpt><trkpt lat="45.8119259" lon="13.8834722"><ele>164.6</ele><time>2026-04-08T13:41:01.814Z</time></trkpt><trkpt lat="45.8119231" lon="13.8833146"><ele>164.0</ele><time>2026-04-08T13:41:02.807Z</time></trkpt><trkpt lat="45.8119478" lon="13.8831438"><ele>163.75</ele><time>2026-04-08T13:41:03.821Z</time></trkpt><trkpt lat="45.811979" lon="13.8829544"><ele>163.5</ele><time>2026-04-08T13:41:04.821Z</time></trkpt><trkpt lat="45.8119899" lon="13.8827492"><ele>163.25</ele><time>2026-04-08T13:41:05.806Z</time></trkpt><trkpt lat="45.8119755" lon="13.8825306"><ele>163.0</ele><time>2026-04-08T13:41:06.838Z</time></trkpt><trkpt lat="45.8119445" lon="13.8823048"><ele>162.66666666666669</ele><time>2026-04-08T13:41:07.815Z</time></trkpt><trkpt lat="45.8119265" lon="13.8820662"><ele>162.33333333333334</ele><time>2026-04-08T13:41:08.82Z</time></trkpt><trkpt lat="45.8119217" lon="13.8818237"><ele>162.0</ele><time>2026-04-08T13:41:09.813Z</time></trkpt><trkpt lat="45.8119344" lon="13.8815797"><ele>162.0</ele><time>2026-04-08T13:41:10.819Z</time></trkpt><trkpt lat="45.8119612" lon="13.8813408"><ele>162.0</ele><time>2026-04-08T13:41:11.809Z</time></trkpt><trkpt lat="45.8119928" lon="13.8811083"><ele>162.0</ele><time>2026-04-08T13:41:12.816Z</time></trkpt><trkpt lat="45.8120113" lon="13.8808709"><ele>161.66666666666666</ele><time>2026-04-08T13:41:13.802Z</time></trkpt><trkpt lat="45.812" lon="13.8806347"><ele>161.33333333333331</ele><time>2026-04-08T13:41:14.817Z</time></trkpt><trkpt lat="45.8119668" lon="13.8803961"><ele>161.0</ele><time>2026-04-08T13:41:15.805Z</time></trkpt><trkpt lat="45.8119345" lon="13.8801555"><ele>161.0</ele><time>2026-04-08T13:41:16.823Z</time></trkpt><trkpt lat="45.8119094" lon="13.8799171"><ele>161.0</ele><time>2026-04-08T13:41:17.82Z</time></trkpt><trkpt lat="45.8119009" lon="13.8796942"><ele>161.0</ele><time>2026-04-08T13:41:18.814Z</time></trkpt><trkpt lat="45.8118944" lon="13.8794772"><ele>164.33333333333331</ele><time>2026-04-08T13:41:19.81Z</time></trkpt><trkpt lat="45.8118704" lon="13.8792547"><ele>167.66666666666666</ele><time>2026-04-08T13:41:20.812Z</time></trkpt><trkpt lat="45.8118317" lon="13.8790247"><ele>171.0</ele><time>2026-04-08T13:41:21.81Z</time></trkpt><trkpt lat="45.8117728" lon="13.878823"><ele>171.0</ele><time>2026-04-08T13:41:22.812Z</time></trkpt><trkpt lat="45.811687" lon="13.8786761"><ele>171.0</ele><time>2026-04-08T13:41:23.815Z</time></trkpt><trkpt lat="45.8115807" lon="13.878555"><ele>171.0</ele><time>2026-04-08T13:41:24.827Z</time></trkpt><trkpt lat="45.8114459" lon="13.8784564"><ele>171.0</ele><time>2026-04-08T13:41:25.815Z</time></trkpt><trkpt lat="45.8112835" lon="13.878342"><ele>171.0</ele><time>2026-04-08T13:41:26.828Z</time></trkpt><trkpt lat="45.8111189" lon="13.8781726"><ele>171.0</ele><time>2026-04-08T13:41:27.807Z</time></trkpt><trkpt lat="45.8109766" lon="13.8779659"><ele>171.0</ele><time>2026-04-08T13:41:28.818Z</time></trkpt><trkpt lat="45.8108397" lon="13.8777224"><ele>175.0</ele><time>2026-04-08T13:41:29.811Z</time></trkpt><trkpt lat="45.8107258" lon="13.8774751"><ele>179.0</ele><time>2026-04-08T13:41:30.814Z</time></trkpt><trkpt lat="45.8106292" lon="13.8772357"><ele>183.0</ele><time>2026-04-08T13:41:31.811Z</time></trkpt><trkpt lat="45.8105209" lon="13.8770288"><ele>183.0</ele><time>2026-04-08T13:41:32.813Z</time></trkpt><trkpt lat="45.8103775" lon="13.8768565"><ele>183.0</ele><time>2026-04-08T13:41:33.812Z</time></trkpt><trkpt lat="45.8102209" lon="13.8767118"><ele>183.0</ele><time>2026-04-08T13:41:34.811Z</time></trkpt><trkpt lat="45.8100445" lon="13.8765743"><ele>184.66666666666666</ele><time>2026-04-08T13:41:35.806Z</time></trkpt><trkpt lat="45.8098796" lon="13.8764117"><ele>186.33333333333331</ele><time>2026-04-08T13:41:36.803Z</time></trkpt><trkpt lat="45.8097307" lon="13.8761977"><ele>188.0</ele><time>2026-04-08T13:41:37.81Z</time></trkpt><trkpt lat="45.8096271" lon="13.8759871"><ele>189.33333333333331</ele><time>2026-04-08T13:41:38.804Z</time></trkpt><trkpt lat="45.80956" lon="13.8757691"><ele>190.66666666666666</ele><time>2026-04-08T13:41:39.811Z</time></trkpt><trkpt lat="45.8095608" lon="13.8755526"><ele>192.0</ele><time>2026-04-08T13:41:40.805Z</time></trkpt><trkpt lat="45.8095983" lon="13.8753175"><ele>193.0</ele><time>2026-04-08T13:41:41.811Z</time></trkpt><trkpt lat="45.8096574" lon="13.8750603"><ele>194.0</ele><time>2026-04-08T13:41:42.811Z</time></trkpt><trkpt lat="45.8097317" lon="13.8747821"><ele>195.0</ele><time>2026-04-08T13:41:43.802Z</time></trkpt><trkpt lat="45.8098158" lon="13.874505"><ele>189.5</ele><time>2026-04-08T13:41:44.807Z</time></trkpt><trkpt lat="45.8099605" lon="13.8740611"><ele>184.0</ele><time>2026-04-08T13:41:46.82Z</time></trkpt><trkpt lat="45.8100098" lon="13.8738769"><ele>184.0</ele><time>2026-04-08T13:41:47.816Z</time></trkpt><trkpt lat="45.8100192" lon="13.8736936"><ele>184.0</ele><time>2026-04-08T13:41:48.82Z</time></trkpt><trkpt lat="45.8099729" lon="13.8735199"><ele>184.0</ele><time>2026-04-08T13:41:49.8Z</time></trkpt><trkpt lat="45.8098797" lon="13.873388"><ele>184.0</ele><time>2026-04-08T13:41:50.805Z</time></trkpt><trkpt lat="45.8095671" lon="13.8731756"><ele>183.66666666666669</ele><time>2026-04-08T13:41:52.816Z</time></trkpt><trkpt lat="45.8094068" lon="13.8730226"><ele>183.33333333333334</ele><time>2026-04-08T13:41:53.817Z</time></trkpt><trkpt lat="45.8092873" lon="13.8728508"><ele>183.0</ele><time>2026-04-08T13:41:54.813Z</time></trkpt><trkpt lat="45.8092212" lon="13.8726375"><ele>188.33333333333331</ele><time>2026-04-08T13:41:55.814Z</time></trkpt><trkpt lat="45.8092163" lon="13.8724057"><ele>193.66666666666666</ele><time>2026-04-08T13:41:56.801Z</time></trkpt><trkpt lat="45.8092558" lon="13.8721586"><ele>199.0</ele><time>2026-04-08T13:41:57.805Z</time></trkpt><trkpt lat="45.8093043" lon="13.8718891"><ele>197.0</ele><time>2026-04-08T13:41:58.803Z</time></trkpt><trkpt lat="45.8093359" lon="13.8716"><ele>195.0</ele><time>2026-04-08T13:41:59.807Z</time></trkpt><trkpt lat="45.8093393" lon="13.8713095"><ele>193.0</ele><time>2026-04-08T13:42:00.81Z</time></trkpt><trkpt lat="45.8093099" lon="13.8710367"><ele>194.0</ele><time>2026-04-08T13:42:01.826Z</time></trkpt><trkpt lat="45.8092444" lon="13.8707788"><ele>195.0</ele><time>2026-04-08T13:42:02.815Z</time></trkpt><trkpt lat="45.8091388" lon="13.8705169"><ele>196.0</ele><time>2026-04-08T13:42:03.808Z</time></trkpt><trkpt lat="45.809028" lon="13.8702357"><ele>196.0</ele><time>2026-04-08T13:42:04.813Z</time></trkpt><trkpt lat="45.8088175" lon="13.8695865"><ele>198.5</ele><time>2026-04-08T13:42:06.811Z</time></trkpt><trkpt lat="45.8087192" lon="13.8692592"><ele>201.0</ele><time>2026-04-08T13:42:07.805Z</time></trkpt><trkpt lat="45.8086229" lon="13.8689715"><ele>196.0</ele><time>2026-04-08T13:42:08.799Z</time></trkpt><trkpt lat="45.8084318" lon="13.8684443"><ele>191.0</ele><time>2026-04-08T13:42:10.8Z</time></trkpt><trkpt lat="45.8081623" lon="13.8680046"><ele>191.0</ele><time>2026-04-08T13:42:12.812Z</time></trkpt><trkpt lat="45.8080277" lon="13.8678036"><ele>191.0</ele><time>2026-04-08T13:42:13.805Z</time></trkpt><trkpt lat="45.8079393" lon="13.867571"><ele>191.0</ele><time>2026-04-08T13:42:14.846Z</time></trkpt><trkpt lat="45.8078977" lon="13.8673113"><ele>188.66666666666666</ele><time>2026-04-08T13:42:15.81Z</time></trkpt><trkpt lat="45.8078558" lon="13.8670384"><ele>186.33333333333334</ele><time>2026-04-08T13:42:16.803Z</time></trkpt><trkpt lat="45.8078078" lon="13.8667715"><ele>184.0</ele><time>2026-04-08T13:42:17.815Z</time></trkpt><trkpt lat="45.8077384" lon="13.8665308"><ele>189.66666666666669</ele><time>2026-04-08T13:42:18.819Z</time></trkpt><trkpt lat="45.8076094" lon="13.8663317"><ele>195.33333333333334</ele><time>2026-04-08T13:42:19.809Z</time></trkpt><trkpt lat="45.8074561" lon="13.8662031"><ele>201.0</ele><time>2026-04-08T13:42:20.811Z</time></trkpt><trkpt lat="45.8073016" lon="13.8661502"><ele>201.0</ele><time>2026-04-08T13:42:21.8Z</time></trkpt><trkpt lat="45.80712" lon="13.8661201"><ele>201.0</ele><time>2026-04-08T13:42:22.806Z</time></trkpt><trkpt lat="45.8067142" lon="13.8660555"><ele>207.33333333333331</ele><time>2026-04-08T13:42:24.833Z</time></trkpt><trkpt lat="45.8064991" lon="13.8660342"><ele>213.66666666666666</ele><time>2026-04-08T13:42:25.811Z</time></trkpt><trkpt lat="45.8062797" lon="13.8660336"><ele>220.0</ele><time>2026-04-08T13:42:26.807Z</time></trkpt><trkpt lat="45.8060794" lon="13.866033"><ele>223.66666666666666</ele><time>2026-04-08T13:42:27.803Z</time></trkpt><trkpt lat="45.805886" lon="13.8660299"><ele>227.33333333333331</ele><time>2026-04-08T13:42:28.815Z</time></trkpt><trkpt lat="45.8057155" lon="13.86601"><ele>231.0</ele><time>2026-04-08T13:42:29.806Z</time></trkpt><trkpt lat="45.8055304" lon="13.8659496"><ele>220.33333333333331</ele><time>2026-04-08T13:42:30.807Z</time></trkpt><trkpt lat="45.8053475" lon="13.8658476"><ele>209.66666666666666</ele><time>2026-04-08T13:42:31.814Z</time></trkpt><trkpt lat="45.805182" lon="13.8657363"><ele>199.0</ele><time>2026-04-08T13:42:32.811Z</time></trkpt><trkpt lat="45.8050411" lon="13.8656564"><ele>199.0</ele><time>2026-04-08T13:42:33.8Z</time></trkpt><trkpt lat="45.8049155" lon="13.8656497"><ele>199.0</ele><time>2026-04-08T13:42:34.811Z</time></trkpt><trkpt lat="45.8047869" lon="13.8657083"><ele>199.0</ele><time>2026-04-08T13:42:35.804Z</time></trkpt><trkpt lat="45.8046495" lon="13.8658264"><ele>199.0</ele><time>2026-04-08T13:42:36.8Z</time></trkpt><trkpt lat="45.80449" lon="13.8659841"><ele>203.0</ele><time>2026-04-08T13:42:37.808Z</time></trkpt><trkpt lat="45.8043217" lon="13.8661564"><ele>207.0</ele><time>2026-04-08T13:42:38.884Z</time></trkpt><trkpt lat="45.8041458" lon="13.8663351"><ele>211.0</ele><time>2026-04-08T13:42:39.803Z</time></trkpt><trkpt lat="45.8039789" lon="13.8665135"><ele>211.0</ele><time>2026-04-08T13:42:40.843Z</time></trkpt><trkpt lat="45.803829" lon="13.8667193"><ele>211.0</ele><time>2026-04-08T13:42:41.811Z</time></trkpt><trkpt lat="45.80371" lon="13.8669235"><ele>211.0</ele><time>2026-04-08T13:42:42.808Z</time></trkpt><trkpt lat="45.803625" lon="13.8671171"><ele>207.0</ele><time>2026-04-08T13:42:43.808Z</time></trkpt><trkpt lat="45.8035475" lon="13.8672658"><ele>203.0</ele><time>2026-04-08T13:42:44.813Z</time></trkpt><trkpt lat="45.8034424" lon="13.8673255"><ele>199.0</ele><time>2026-04-08T13:42:45.807Z</time></trkpt><trkpt lat="45.8033348" lon="13.8673164"><ele>195.0</ele><time>2026-04-08T13:42:46.803Z</time></trkpt><trkpt lat="45.8032288" lon="13.8672307"><ele>195.0</ele><time>2026-04-08T13:42:47.831Z</time></trkpt><trkpt lat="45.8031577" lon="13.8670919"><ele>195.0</ele><time>2026-04-08T13:42:48.862Z</time></trkpt><trkpt lat="45.8031387" lon="13.8668981"><ele>195.0</ele><time>2026-04-08T13:42:49.814Z</time></trkpt><trkpt lat="45.803158" lon="13.8666756"><ele>195.0</ele><time>2026-04-08T13:42:50.815Z</time></trkpt><trkpt lat="45.8032109" lon="13.8664129"><ele>194.5</ele><time>2026-04-08T13:42:51.809Z</time></trkpt><trkpt lat="45.8032795" lon="13.8660907"><ele>194.0</ele><time>2026-04-08T13:42:52.801Z</time></trkpt><trkpt lat="45.8033562" lon="13.8657305"><ele>196.5</ele><time>2026-04-08T13:42:53.808Z</time></trkpt><trkpt lat="45.803415" lon="13.8653427"><ele>199.0</ele><time>2026-04-08T13:42:54.822Z</time></trkpt><trkpt lat="45.8034801" lon="13.8649637"><ele>192.5</ele><time>2026-04-08T13:42:55.813Z</time></trkpt><trkpt lat="45.8035325" lon="13.8646058"><ele>186.0</ele><time>2026-04-08T13:42:56.809Z</time></trkpt><trkpt lat="45.8036231" lon="13.8642545"><ele>186.0</ele><time>2026-04-08T13:42:57.81Z</time></trkpt><trkpt lat="45.8037283" lon="13.8638857"><ele>186.0</ele><time>2026-04-08T13:42:58.818Z</time></trkpt><trkpt lat="45.803828" lon="13.8635085"><ele>192.0</ele><time>2026-04-08T13:42:59.806Z</time></trkpt><trkpt lat="45.8039493" lon="13.8631414"><ele>198.0</ele><time>2026-04-08T13:43:00.827Z</time></trkpt><trkpt lat="45.8040761" lon="13.8627881"><ele>191.5</ele><time>2026-04-08T13:43:01.816Z</time></trkpt><trkpt lat="45.8042066" lon="13.8624453"><ele>185.0</ele><time>2026-04-08T13:43:02.806Z</time></trkpt><trkpt lat="45.8044697" lon="13.8617828"><ele>195.0</ele><time>2026-04-08T13:43:04.813Z</time></trkpt><trkpt lat="45.8047469" lon="13.8611462"><ele>216.0</ele><time>2026-04-08T13:43:06.819Z</time></trkpt><trkpt lat="45.8050536" lon="13.8605709"><ele>220.5</ele><time>2026-04-08T13:43:08.808Z</time></trkpt><trkpt lat="45.8053258" lon="13.8601522"><ele>225.0</ele><time>2026-04-08T13:43:10.821Z</time></trkpt><trkpt lat="45.8054385" lon="13.86004"><ele>225.0</ele><time>2026-04-08T13:43:11.831Z</time></trkpt><trkpt lat="45.8057098" lon="13.8599598"><ele>225.0</ele><time>2026-04-08T13:43:13.817Z</time></trkpt><trkpt lat="45.8058746" lon="13.8599867"><ele>225.0</ele><time>2026-04-08T13:43:14.805Z</time></trkpt><trkpt lat="45.8060376" lon="13.8599994"><ele>222.66666666666669</ele><time>2026-04-08T13:43:15.817Z</time></trkpt><trkpt lat="45.806221" lon="13.8599436"><ele>220.33333333333334</ele><time>2026-04-08T13:43:16.823Z</time></trkpt><trkpt lat="45.8064197" lon="13.8598365"><ele>218.0</ele><time>2026-04-08T13:43:17.806Z</time></trkpt><trkpt lat="45.8066184" lon="13.8597364"><ele>218.0</ele><time>2026-04-08T13:43:18.802Z</time></trkpt><trkpt lat="45.8067875" lon="13.8596355"><ele>218.0</ele><time>2026-04-08T13:43:19.804Z</time></trkpt><trkpt lat="45.8069213" lon="13.8595273"><ele>218.0</ele><time>2026-04-08T13:43:20.814Z</time></trkpt><trkpt lat="45.8070163" lon="13.8594205"><ele>216.5</ele><time>2026-04-08T13:43:21.799Z</time></trkpt><trkpt lat="45.8071387" lon="13.8593877"><ele>215.0</ele><time>2026-04-08T13:43:22.801Z</time></trkpt><trkpt lat="45.8072671" lon="13.8594373"><ele>213.5</ele><time>2026-04-08T13:43:23.8Z</time></trkpt><trkpt lat="45.8073851" lon="13.8594946"><ele>212.0</ele><time>2026-04-08T13:43:24.81Z</time></trkpt><trkpt lat="45.80751" lon="13.8594846"><ele>215.0</ele><time>2026-04-08T13:43:25.809Z</time></trkpt><trkpt lat="45.8076723" lon="13.859379"><ele>218.0</ele><time>2026-04-08T13:43:26.812Z</time></trkpt><trkpt lat="45.8078611" lon="13.8592043"><ele>221.0</ele><time>2026-04-08T13:43:27.803Z</time></trkpt><trkpt lat="45.8080602" lon="13.8590111"><ele>221.0</ele><time>2026-04-08T13:43:28.8Z</time></trkpt><trkpt lat="45.8082617" lon="13.858826"><ele>221.0</ele><time>2026-04-08T13:43:29.803Z</time></trkpt><trkpt lat="45.8084509" lon="13.8586513"><ele>221.66666666666669</ele><time>2026-04-08T13:43:30.803Z</time></trkpt><trkpt lat="45.8086217" lon="13.8584701"><ele>222.33333333333331</ele><time>2026-04-08T13:43:31.805Z</time></trkpt><trkpt lat="45.8087623" lon="13.8582612"><ele>223.0</ele><time>2026-04-08T13:43:32.801Z</time></trkpt><trkpt lat="45.8088771" lon="13.8580603"><ele>223.0</ele><time>2026-04-08T13:43:33.803Z</time></trkpt><trkpt lat="45.8089739" lon="13.857845"><ele>223.0</ele><time>2026-04-08T13:43:34.807Z</time></trkpt><trkpt lat="45.8090431" lon="13.857639"><ele>223.0</ele><time>2026-04-08T13:43:35.821Z</time></trkpt><trkpt lat="45.8090968" lon="13.857487"><ele>224.5</ele><time>2026-04-08T13:43:36.814Z</time></trkpt><trkpt lat="45.8091614" lon="13.8573649"><ele>226.0</ele><time>2026-04-08T13:43:37.804Z</time></trkpt><trkpt lat="45.809279" lon="13.8572865"><ele>227.5</ele><time>2026-04-08T13:43:38.801Z</time></trkpt><trkpt lat="45.8094414" lon="13.8572432"><ele>229.0</ele><time>2026-04-08T13:43:39.807Z</time></trkpt><trkpt lat="45.8096165" lon="13.8571949"><ele>229.0</ele><time>2026-04-08T13:43:40.811Z</time></trkpt><trkpt lat="45.8098062" lon="13.8571156"><ele>229.0</ele><time>2026-04-08T13:43:41.801Z</time></trkpt><trkpt lat="45.8100032" lon="13.856986"><ele>229.0</ele><time>2026-04-08T13:43:42.801Z</time></trkpt><trkpt lat="45.8101845" lon="13.8568327"><ele>231.33333333333331</ele><time>2026-04-08T13:43:43.8Z</time></trkpt><trkpt lat="45.8103479" lon="13.8566355"><ele>233.66666666666669</ele><time>2026-04-08T13:43:44.812Z</time></trkpt><trkpt lat="45.8104993" lon="13.8564"><ele>236.0</ele><time>2026-04-08T13:43:45.793Z</time></trkpt><trkpt lat="45.8106432" lon="13.8561769"><ele>236.0</ele><time>2026-04-08T13:43:46.799Z</time></trkpt><trkpt lat="45.8107896" lon="13.856008"><ele>236.0</ele><time>2026-04-08T13:43:47.806Z</time></trkpt><trkpt lat="45.810934" lon="13.8558981"><ele>236.0</ele><time>2026-04-08T13:43:48.824Z</time></trkpt><trkpt lat="45.8111078" lon="13.8558261"><ele>237.66666666666669</ele><time>2026-04-08T13:43:49.806Z</time></trkpt><trkpt lat="45.811281" lon="13.8557951"><ele>239.33333333333331</ele><time>2026-04-08T13:43:50.817Z</time></trkpt><trkpt lat="45.811422" lon="13.8557311"><ele>241.0</ele><time>2026-04-08T13:43:51.828Z</time></trkpt><trkpt lat="45.8115366" lon="13.8555801"><ele>241.0</ele><time>2026-04-08T13:43:52.815Z</time></trkpt><trkpt lat="45.8116337" lon="13.8553659"><ele>241.0</ele><time>2026-04-08T13:43:53.804Z</time></trkpt><trkpt lat="45.8117527" lon="13.8551322"><ele>241.0</ele><time>2026-04-08T13:43:54.83Z</time></trkpt><trkpt lat="45.811907" lon="13.8548943"><ele>242.66666666666666</ele><time>2026-04-08T13:43:55.804Z</time></trkpt><trkpt lat="45.8120757" lon="13.8546705"><ele>244.33333333333331</ele><time>2026-04-08T13:43:56.802Z</time></trkpt><trkpt lat="45.812237" lon="13.8544795"><ele>246.0</ele><time>2026-04-08T13:43:57.81Z</time></trkpt><trkpt lat="45.8123855" lon="13.8543457"><ele>249.5</ele><time>2026-04-08T13:43:58.809Z</time></trkpt><trkpt lat="45.8125488" lon="13.8542572"><ele>253.0</ele><time>2026-04-08T13:43:59.824Z</time></trkpt><trkpt lat="45.8128549" lon="13.8541696"><ele>253.0</ele><time>2026-04-08T13:44:01.799Z</time></trkpt><trkpt lat="45.8129848" lon="13.8540478"><ele>253.0</ele><time>2026-04-08T13:44:02.801Z</time></trkpt><trkpt lat="45.8131066" lon="13.8538367"><ele>253.0</ele><time>2026-04-08T13:44:03.802Z</time></trkpt><trkpt lat="45.8132384" lon="13.8536332"><ele>253.0</ele><time>2026-04-08T13:44:04.813Z</time></trkpt><trkpt lat="45.813374" lon="13.8534717"><ele>253.0</ele><time>2026-04-08T13:44:05.804Z</time></trkpt><trkpt lat="45.813494" lon="13.8533429"><ele>253.0</ele><time>2026-04-08T13:44:06.825Z</time></trkpt><trkpt lat="45.8135964" lon="13.8532077"><ele>255.0</ele><time>2026-04-08T13:44:07.819Z</time></trkpt><trkpt lat="45.8136595" lon="13.8530497"><ele>257.0</ele><time>2026-04-08T13:44:08.824Z</time></trkpt><trkpt lat="45.8137154" lon="13.8528951"><ele>259.0</ele><time>2026-04-08T13:44:09.809Z</time></trkpt><trkpt lat="45.8137819" lon="13.852794"><ele>261.0</ele><time>2026-04-08T13:44:10.809Z</time></trkpt><trkpt lat="45.8138731" lon="13.8527726"><ele>263.0</ele><time>2026-04-08T13:44:11.819Z</time></trkpt><trkpt lat="45.8139807" lon="13.8527798"><ele>263.0</ele><time>2026-04-08T13:44:12.827Z</time></trkpt><trkpt lat="45.8140899" lon="13.8528088"><ele>263.0</ele><time>2026-04-08T13:44:13.817Z</time></trkpt><trkpt lat="45.8142073" lon="13.8528524"><ele>263.0</ele><time>2026-04-08T13:44:14.806Z</time></trkpt><trkpt lat="45.8143253" lon="13.8529018"><ele>263.0</ele><time>2026-04-08T13:44:15.821Z</time></trkpt><trkpt lat="45.8144397" lon="13.8529533"><ele>264.5</ele><time>2026-04-08T13:44:16.802Z</time></trkpt><trkpt lat="45.8145571" lon="13.8529971"><ele>266.0</ele><time>2026-04-08T13:44:17.83Z</time></trkpt><trkpt lat="45.8146699" lon="13.8530353"><ele>267.5</ele><time>2026-04-08T13:44:18.808Z</time></trkpt><trkpt lat="45.8147823" lon="13.8530694"><ele>269.0</ele><time>2026-04-08T13:44:19.801Z</time></trkpt><trkpt lat="45.8148903" lon="13.8531116"><ele>269.0</ele><time>2026-04-08T13:44:20.809Z</time></trkpt><trkpt lat="45.8149966" lon="13.8531522"><ele>269.0</ele><time>2026-04-08T13:44:21.804Z</time></trkpt><trkpt lat="45.8151044" lon="13.8531783"><ele>269.0</ele><time>2026-04-08T13:44:22.804Z</time></trkpt><trkpt lat="45.815212" lon="13.8531676"><ele>269.0</ele><time>2026-04-08T13:44:23.797Z</time></trkpt><trkpt lat="45.815312" lon="13.8531097"><ele>269.0</ele><time>2026-04-08T13:44:24.813Z</time></trkpt><trkpt lat="45.8153993" lon="13.8530403"><ele>272.8</ele><time>2026-04-08T13:44:25.819Z</time></trkpt><trkpt lat="45.8154899" lon="13.8529713"><ele>276.59999999999997</ele><time>2026-04-08T13:44:26.808Z</time></trkpt><trkpt lat="45.8155792" lon="13.8529106"><ele>280.4</ele><time>2026-04-08T13:44:27.802Z</time></trkpt><trkpt lat="45.8156655" lon="13.852864"><ele>284.2</ele><time>2026-04-08T13:44:28.815Z</time></trkpt><trkpt lat="45.8157492" lon="13.8528045"><ele>288.0</ele><time>2026-04-08T13:44:29.806Z</time></trkpt><trkpt lat="45.8158186" lon="13.8527197"><ele>287.4</ele><time>2026-04-08T13:44:30.819Z</time></trkpt><trkpt lat="45.8158735" lon="13.852613"><ele>286.8</ele><time>2026-04-08T13:44:31.795Z</time></trkpt><trkpt lat="45.8159178" lon="13.8524953"><ele>286.2</ele><time>2026-04-08T13:44:32.813Z</time></trkpt><trkpt lat="45.8159462" lon="13.8523857"><ele>285.6</ele><time>2026-04-08T13:44:33.814Z</time></trkpt><trkpt lat="45.8159644" lon="13.8522356"><ele>285.0</ele><time>2026-04-08T13:44:35.805Z</time></trkpt><trkpt lat="45.8160074" lon="13.8521255"><ele>285.0</ele><time>2026-04-08T13:44:37.8Z</time></trkpt><trkpt lat="45.8160527" lon="13.8520569"><ele>285.0</ele><time>2026-04-08T13:44:38.895Z</time></trkpt><trkpt lat="45.8160922" lon="13.8519753"><ele>285.0</ele><time>2026-04-08T13:44:39.805Z</time></trkpt><trkpt lat="45.8160985" lon="13.8518774"><ele>285.0</ele><time>2026-04-08T13:44:40.812Z</time></trkpt><trkpt lat="45.8160843" lon="13.8517645"><ele>285.0</ele><time>2026-04-08T13:44:41.823Z</time></trkpt><trkpt lat="45.8160434" lon="13.8516471"><ele>285.0</ele><time>2026-04-08T13:44:42.823Z</time></trkpt><trkpt lat="45.8159801" lon="13.851536"><ele>283.2</ele><time>2026-04-08T13:44:43.803Z</time></trkpt><trkpt lat="45.8159157" lon="13.8514153"><ele>281.4</ele><time>2026-04-08T13:44:44.802Z</time></trkpt><trkpt lat="45.8158512" lon="13.8512843"><ele>279.6</ele><time>2026-04-08T13:44:45.808Z</time></trkpt><trkpt lat="45.8157979" lon="13.8511592"><ele>277.8</ele><time>2026-04-08T13:44:46.82Z</time></trkpt><trkpt lat="45.8157424" lon="13.8510452"><ele>276.0</ele><time>2026-04-08T13:44:47.809Z</time></trkpt><trkpt lat="45.8156524" lon="13.8509621"><ele>276.0</ele><time>2026-04-08T13:44:48.832Z</time></trkpt><trkpt lat="45.8155341" lon="13.8509051"><ele>276.0</ele><time>2026-04-08T13:44:49.823Z</time></trkpt><trkpt lat="45.8154093" lon="13.8508515"><ele>276.0</ele><time>2026-04-08T13:44:50.816Z</time></trkpt><trkpt lat="45.8152946" lon="13.8507759"><ele>276.0</ele><time>2026-04-08T13:44:51.822Z</time></trkpt><trkpt lat="45.8151978" lon="13.8506901"><ele>276.3333333333333</ele><time>2026-04-08T13:44:52.815Z</time></trkpt><trkpt lat="45.8151346" lon="13.8505857"><ele>276.6666666666667</ele><time>2026-04-08T13:44:53.812Z</time></trkpt><trkpt lat="45.8150917" lon="13.8504738"><ele>277.0</ele><time>2026-04-08T13:44:54.823Z</time></trkpt><trkpt lat="45.8150514" lon="13.8503659"><ele>277.33333333333337</ele><time>2026-04-08T13:44:55.825Z</time></trkpt><trkpt lat="45.8150159" lon="13.8502529"><ele>277.6666666666667</ele><time>2026-04-08T13:44:56.82Z</time></trkpt><trkpt lat="45.8150021" lon="13.8501311"><ele>278.0</ele><time>2026-04-08T13:44:57.811Z</time></trkpt><trkpt lat="45.8150131" lon="13.8500177"><ele>279.0</ele><time>2026-04-08T13:44:58.816Z</time></trkpt><trkpt lat="45.81501" lon="13.8499001"><ele>280.0</ele><time>2026-04-08T13:45:00.821Z</time></trkpt><trkpt lat="45.8149505" lon="13.8498266"><ele>281.0</ele><time>2026-04-08T13:45:02.808Z</time></trkpt><trkpt lat="45.8148709" lon="13.8498083"><ele>282.0</ele><time>2026-04-08T13:45:03.81Z</time></trkpt><trkpt lat="45.81476" lon="13.849807"><ele>283.0</ele><time>2026-04-08T13:45:04.808Z</time></trkpt><trkpt lat="45.8146153" lon="13.8498218"><ele>285.5</ele><time>2026-04-08T13:45:05.813Z</time></trkpt><trkpt lat="45.8142582" lon="13.8498545"><ele>288.0</ele><time>2026-04-08T13:45:07.805Z</time></trkpt><trkpt lat="45.8140515" lon="13.8498452"><ele>288.0</ele><time>2026-04-08T13:45:08.809Z</time></trkpt><trkpt lat="45.8138324" lon="13.8498236"><ele>288.0</ele><time>2026-04-08T13:45:09.818Z</time></trkpt><trkpt lat="45.8136097" lon="13.8497996"><ele>288.0</ele><time>2026-04-08T13:45:10.816Z</time></trkpt><trkpt lat="45.8133899" lon="13.8497616"><ele>287.0</ele><time>2026-04-08T13:45:11.811Z</time></trkpt><trkpt lat="45.8131656" lon="13.8497173"><ele>286.0</ele><time>2026-04-08T13:45:12.812Z</time></trkpt><trkpt lat="45.8129379" lon="13.8496619"><ele>286.0</ele><time>2026-04-08T13:45:13.806Z</time></trkpt><trkpt lat="45.8127094" lon="13.8496"><ele>286.0</ele><time>2026-04-08T13:45:14.804Z</time></trkpt><trkpt lat="45.8124754" lon="13.8495269"><ele>285.5</ele><time>2026-04-08T13:45:15.811Z</time></trkpt><trkpt lat="45.8122389" lon="13.849441"><ele>285.0</ele><time>2026-04-08T13:45:16.834Z</time></trkpt><trkpt lat="45.8120061" lon="13.8493445"><ele>290.0</ele><time>2026-04-08T13:45:17.812Z</time></trkpt><trkpt lat="45.8115459" lon="13.8491111"><ele>290.0</ele><time>2026-04-08T13:45:19.804Z</time></trkpt><trkpt lat="45.8113123" lon="13.8489784"><ele>290.0</ele><time>2026-04-08T13:45:20.8Z</time></trkpt><trkpt lat="45.8110773" lon="13.8488388"><ele>283.0</ele><time>2026-04-08T13:45:21.794Z</time></trkpt><trkpt lat="45.8106126" lon="13.848564"><ele>281.5</ele><time>2026-04-08T13:45:23.808Z</time></trkpt><trkpt lat="45.8103758" lon="13.848424"><ele>280.0</ele><time>2026-04-08T13:45:24.835Z</time></trkpt><trkpt lat="45.8101417" lon="13.8482861"><ele>280.0</ele><time>2026-04-08T13:45:25.797Z</time></trkpt><trkpt lat="45.8099086" lon="13.8481434"><ele>280.0</ele><time>2026-04-08T13:45:26.818Z</time></trkpt><trkpt lat="45.8096791" lon="13.8479909"><ele>280.0</ele><time>2026-04-08T13:45:27.807Z</time></trkpt><trkpt lat="45.8094564" lon="13.8478175"><ele>280.0</ele><time>2026-04-08T13:45:28.798Z</time></trkpt><trkpt lat="45.8092394" lon="13.847624"><ele>279.0</ele><time>2026-04-08T13:45:29.808Z</time></trkpt><trkpt lat="45.8090227" lon="13.847415"><ele>278.0</ele><time>2026-04-08T13:45:30.815Z</time></trkpt><trkpt lat="45.8088064" lon="13.8472"><ele>278.0</ele><time>2026-04-08T13:45:31.815Z</time></trkpt><trkpt lat="45.8085916" lon="13.8469859"><ele>278.0</ele><time>2026-04-08T13:45:32.811Z</time></trkpt><trkpt lat="45.8083827" lon="13.8467716"><ele>278.5</ele><time>2026-04-08T13:45:33.8Z</time></trkpt><trkpt lat="45.808183" lon="13.8465404"><ele>279.0</ele><time>2026-04-08T13:45:34.809Z</time></trkpt><trkpt lat="45.8079902" lon="13.8462945"><ele>279.0</ele><time>2026-04-08T13:45:35.822Z</time></trkpt><trkpt lat="45.8078007" lon="13.8460441"><ele>279.0</ele><time>2026-04-08T13:45:36.802Z</time></trkpt><trkpt lat="45.807619" lon="13.8457904"><ele>281.0</ele><time>2026-04-08T13:45:37.811Z</time></trkpt><trkpt lat="45.8072601" lon="13.8452921"><ele>282.0</ele><time>2026-04-08T13:45:39.805Z</time></trkpt><trkpt lat="45.8070805" lon="13.8450466"><ele>283.0</ele><time>2026-04-08T13:45:40.806Z</time></trkpt><trkpt lat="45.8069148" lon="13.844811"><ele>283.0</ele><time>2026-04-08T13:45:41.8Z</time></trkpt><trkpt lat="45.8067661" lon="13.8446038"><ele>283.0</ele><time>2026-04-08T13:45:42.804Z</time></trkpt><trkpt lat="45.8066336" lon="13.844441"><ele>283.0</ele><time>2026-04-08T13:45:43.809Z</time></trkpt><trkpt lat="45.8064937" lon="13.8443319"><ele>283.0</ele><time>2026-04-08T13:45:44.801Z</time></trkpt><trkpt lat="45.8063471" lon="13.8442927"><ele>283.0</ele><time>2026-04-08T13:45:45.816Z</time></trkpt><trkpt lat="45.8061881" lon="13.8443124"><ele>283.0</ele><time>2026-04-08T13:45:46.817Z</time></trkpt><trkpt lat="45.8060465" lon="13.8444209"><ele>284.0</ele><time>2026-04-08T13:45:47.804Z</time></trkpt><trkpt lat="45.8059288" lon="13.8445989"><ele>285.0</ele><time>2026-04-08T13:45:48.804Z</time></trkpt><trkpt lat="45.80583" lon="13.8448042"><ele>286.0</ele><time>2026-04-08T13:45:49.813Z</time></trkpt><trkpt lat="45.8057427" lon="13.8449927"><ele>287.0</ele><time>2026-04-08T13:45:50.816Z</time></trkpt><trkpt lat="45.8056353" lon="13.8451314"><ele>288.0</ele><time>2026-04-08T13:45:51.794Z</time></trkpt><trkpt lat="45.8054991" lon="13.8452223"><ele>289.0</ele><time>2026-04-08T13:45:52.803Z</time></trkpt><trkpt lat="45.8053435" lon="13.8452505"><ele>289.0</ele><time>2026-04-08T13:45:53.806Z</time></trkpt><trkpt lat="45.8051768" lon="13.8452111"><ele>289.0</ele><time>2026-04-08T13:45:54.802Z</time></trkpt><trkpt lat="45.8049852" lon="13.8451419"><ele>289.0</ele><time>2026-04-08T13:45:55.803Z</time></trkpt><trkpt lat="45.8047778" lon="13.8450576"><ele>289.0</ele><time>2026-04-08T13:45:56.82Z</time></trkpt><trkpt lat="45.8045492" lon="13.8449736"><ele>289.0</ele><time>2026-04-08T13:45:57.797Z</time></trkpt><trkpt lat="45.8043031" lon="13.8448907"><ele>290.0</ele><time>2026-04-08T13:45:58.819Z</time></trkpt><trkpt lat="45.8040538" lon="13.8448048"><ele>291.0</ele><time>2026-04-08T13:45:59.811Z</time></trkpt><trkpt lat="45.8038179" lon="13.8447283"><ele>291.0</ele><time>2026-04-08T13:46:00.797Z</time></trkpt><trkpt lat="45.8036032" lon="13.8446649"><ele>291.0</ele><time>2026-04-08T13:46:01.796Z</time></trkpt><trkpt lat="45.8033936" lon="13.8446382"><ele>291.0</ele><time>2026-04-08T13:46:02.808Z</time></trkpt><trkpt lat="45.8031833" lon="13.8446563"><ele>290.6666666666667</ele><time>2026-04-08T13:46:03.806Z</time></trkpt><trkpt lat="45.8029765" lon="13.8446773"><ele>290.33333333333337</ele><time>2026-04-08T13:46:04.814Z</time></trkpt><trkpt lat="45.802772" lon="13.8446491"><ele>290.0</ele><time>2026-04-08T13:46:05.798Z</time></trkpt><trkpt lat="45.8025752" lon="13.8445408"><ele>290.0</ele><time>2026-04-08T13:46:06.8Z</time></trkpt><trkpt lat="45.8023802" lon="13.8443848"><ele>290.0</ele><time>2026-04-08T13:46:07.803Z</time></trkpt><trkpt lat="45.8021723" lon="13.8441756"><ele>288.5</ele><time>2026-04-08T13:46:08.808Z</time></trkpt><trkpt lat="45.8019487" lon="13.8439555"><ele>287.0</ele><time>2026-04-08T13:46:09.806Z</time></trkpt><trkpt lat="45.801722" lon="13.8436987"><ele>287.5</ele><time>2026-04-08T13:46:10.814Z</time></trkpt><trkpt lat="45.8015036" lon="13.8434259"><ele>288.0</ele><time>2026-04-08T13:46:11.806Z</time></trkpt><trkpt lat="45.8012857" lon="13.8431546"><ele>288.0</ele><time>2026-04-08T13:46:12.805Z</time></trkpt><trkpt lat="45.8010836" lon="13.8428776"><ele>288.0</ele><time>2026-04-08T13:46:13.789Z</time></trkpt><trkpt lat="45.8009111" lon="13.8425936"><ele>286.5</ele><time>2026-04-08T13:46:14.798Z</time></trkpt><trkpt lat="45.8007647" lon="13.8423115"><ele>285.0</ele><time>2026-04-08T13:46:15.801Z</time></trkpt><trkpt lat="45.8006302" lon="13.8420443"><ele>284.6666666666667</ele><time>2026-04-08T13:46:16.797Z</time></trkpt><trkpt lat="45.8004989" lon="13.841789"><ele>284.33333333333337</ele><time>2026-04-08T13:46:17.801Z</time></trkpt><trkpt lat="45.8003539" lon="13.8415558"><ele>284.0</ele><time>2026-04-08T13:46:18.797Z</time></trkpt><trkpt lat="45.8001714" lon="13.8413671"><ele>282.0</ele><time>2026-04-08T13:46:19.803Z</time></trkpt><trkpt lat="45.7999595" lon="13.8412185"><ele>280.0</ele><time>2026-04-08T13:46:20.794Z</time></trkpt><trkpt lat="45.79971" lon="13.841115"><ele>280.0</ele><time>2026-04-08T13:46:21.805Z</time></trkpt><trkpt lat="45.7994341" lon="13.841042"><ele>280.0</ele><time>2026-04-08T13:46:22.799Z</time></trkpt><trkpt lat="45.799139" lon="13.8410033"><ele>280.0</ele><time>2026-04-08T13:46:23.809Z</time></trkpt><trkpt lat="45.7988464" lon="13.8409772"><ele>280.0</ele><time>2026-04-08T13:46:24.803Z</time></trkpt><trkpt lat="45.7985726" lon="13.8409339"><ele>279.0</ele><time>2026-04-08T13:46:25.791Z</time></trkpt><trkpt lat="45.7983174" lon="13.8408652"><ele>278.0</ele><time>2026-04-08T13:46:26.794Z</time></trkpt><trkpt lat="45.7980734" lon="13.8407719"><ele>278.0</ele><time>2026-04-08T13:46:27.805Z</time></trkpt><trkpt lat="45.7978466" lon="13.840645"><ele>278.0</ele><time>2026-04-08T13:46:28.801Z</time></trkpt><trkpt lat="45.797622" lon="13.840502"><ele>279.0</ele><time>2026-04-08T13:46:29.787Z</time></trkpt><trkpt lat="45.7973951" lon="13.8403522"><ele>280.0</ele><time>2026-04-08T13:46:30.793Z</time></trkpt><trkpt lat="45.7971647" lon="13.8401871"><ele>280.5</ele><time>2026-04-08T13:46:31.816Z</time></trkpt><trkpt lat="45.7969507" lon="13.8399824"><ele>281.0</ele><time>2026-04-08T13:46:32.814Z</time></trkpt><trkpt lat="45.7967537" lon="13.8397464"><ele>281.0</ele><time>2026-04-08T13:46:33.803Z</time></trkpt><trkpt lat="45.7965687" lon="13.8394767"><ele>281.0</ele><time>2026-04-08T13:46:34.81Z</time></trkpt><trkpt lat="45.7964007" lon="13.8392032"><ele>281.5</ele><time>2026-04-08T13:46:35.799Z</time></trkpt><trkpt lat="45.7962431" lon="13.8389531"><ele>282.0</ele><time>2026-04-08T13:46:36.801Z</time></trkpt><trkpt lat="45.7960744" lon="13.8387217"><ele>282.5</ele><time>2026-04-08T13:46:37.806Z</time></trkpt><trkpt lat="45.7958671" lon="13.8385232"><ele>283.0</ele><time>2026-04-08T13:46:38.807Z</time></trkpt><trkpt lat="45.7956348" lon="13.8383378"><ele>283.0</ele><time>2026-04-08T13:46:39.795Z</time></trkpt><trkpt lat="45.7954079" lon="13.838165"><ele>283.0</ele><time>2026-04-08T13:46:40.805Z</time></trkpt><trkpt lat="45.7951975" lon="13.8380095"><ele>286.5</ele><time>2026-04-08T13:46:41.816Z</time></trkpt><trkpt lat="45.7949935" lon="13.8378462"><ele>290.0</ele><time>2026-04-08T13:46:42.804Z</time></trkpt><trkpt lat="45.794812" lon="13.837675"><ele>289.5</ele><time>2026-04-08T13:46:43.809Z</time></trkpt><trkpt lat="45.794641" lon="13.8375068"><ele>289.0</ele><time>2026-04-08T13:46:44.871Z</time></trkpt><trkpt lat="45.7942806" lon="13.8372652"><ele>289.0</ele><time>2026-04-08T13:46:46.803Z</time></trkpt><trkpt lat="45.7940801" lon="13.8372256"><ele>289.0</ele><time>2026-04-08T13:46:47.801Z</time></trkpt><trkpt lat="45.7938837" lon="13.8371802"><ele>289.0</ele><time>2026-04-08T13:46:48.824Z</time></trkpt><trkpt lat="45.7936877" lon="13.8371289"><ele>287.66666666666663</ele><time>2026-04-08T13:46:49.788Z</time></trkpt><trkpt lat="45.7934867" lon="13.8370742"><ele>286.3333333333333</ele><time>2026-04-08T13:46:50.794Z</time></trkpt><trkpt lat="45.7932901" lon="13.8370255"><ele>285.0</ele><time>2026-04-08T13:46:51.806Z</time></trkpt><trkpt lat="45.7930918" lon="13.8369845"><ele>285.0</ele><time>2026-04-08T13:46:52.799Z</time></trkpt><trkpt lat="45.7928959" lon="13.8369359"><ele>285.0</ele><time>2026-04-08T13:46:53.793Z</time></trkpt><trkpt lat="45.7926967" lon="13.8368642"><ele>285.0</ele><time>2026-04-08T13:46:54.809Z</time></trkpt><trkpt lat="45.7925096" lon="13.8367283"><ele>284.6666666666667</ele><time>2026-04-08T13:46:55.811Z</time></trkpt><trkpt lat="45.792323" lon="13.836574"><ele>284.33333333333337</ele><time>2026-04-08T13:46:56.798Z</time></trkpt><trkpt lat="45.7921278" lon="13.8364635"><ele>284.0</ele><time>2026-04-08T13:46:57.79Z</time></trkpt><trkpt lat="45.7919207" lon="13.8364323"><ele>281.33333333333337</ele><time>2026-04-08T13:46:58.804Z</time></trkpt><trkpt lat="45.7917181" lon="13.8364456"><ele>278.6666666666667</ele><time>2026-04-08T13:46:59.79Z</time></trkpt><trkpt lat="45.7915203" lon="13.8364813"><ele>276.0</ele><time>2026-04-08T13:47:00.851Z</time></trkpt><trkpt lat="45.791311" lon="13.8365556"><ele>276.0</ele><time>2026-04-08T13:47:01.802Z</time></trkpt><trkpt lat="45.7911061" lon="13.836698"><ele>276.0</ele><time>2026-04-08T13:47:02.801Z</time></trkpt><trkpt lat="45.7909206" lon="13.8368359"><ele>276.0</ele><time>2026-04-08T13:47:03.792Z</time></trkpt><trkpt lat="45.7905653" lon="13.8370231"><ele>275.0</ele><time>2026-04-08T13:47:05.797Z</time></trkpt><trkpt lat="45.7903788" lon="13.8370472"><ele>274.0</ele><time>2026-04-08T13:47:06.79Z</time></trkpt><trkpt lat="45.7901848" lon="13.8370338"><ele>273.0</ele><time>2026-04-08T13:47:07.8Z</time></trkpt><trkpt lat="45.7899909" lon="13.8370046"><ele>273.0</ele><time>2026-04-08T13:47:08.812Z</time></trkpt><trkpt lat="45.7897951" lon="13.8369614"><ele>273.0</ele><time>2026-04-08T13:47:09.801Z</time></trkpt><trkpt lat="45.7895914" lon="13.8368977"><ele>273.0</ele><time>2026-04-08T13:47:10.796Z</time></trkpt><trkpt lat="45.7893689" lon="13.8368075"><ele>272.0</ele><time>2026-04-08T13:47:11.813Z</time></trkpt><trkpt lat="45.7891311" lon="13.8367181"><ele>271.0</ele><time>2026-04-08T13:47:12.797Z</time></trkpt><trkpt lat="45.7888906" lon="13.8366356"><ele>271.0</ele><time>2026-04-08T13:47:13.786Z</time></trkpt><trkpt lat="45.7886673" lon="13.8365661"><ele>271.0</ele><time>2026-04-08T13:47:14.803Z</time></trkpt><trkpt lat="45.7884617" lon="13.8365021"><ele>271.0</ele><time>2026-04-08T13:47:15.808Z</time></trkpt><trkpt lat="45.788282" lon="13.8364445"><ele>269.75</ele><time>2026-04-08T13:47:16.802Z</time></trkpt><trkpt lat="45.788122" lon="13.8364016"><ele>268.5</ele><time>2026-04-08T13:47:17.804Z</time></trkpt><trkpt lat="45.787983" lon="13.8363607"><ele>267.25</ele><time>2026-04-08T13:47:18.788Z</time></trkpt><trkpt lat="45.7878536" lon="13.8363217"><ele>266.0</ele><time>2026-04-08T13:47:19.786Z</time></trkpt><trkpt lat="45.7877281" lon="13.8362631"><ele>266.0</ele><time>2026-04-08T13:47:20.82Z</time></trkpt><trkpt lat="45.7876097" lon="13.8361778"><ele>266.0</ele><time>2026-04-08T13:47:21.792Z</time></trkpt><trkpt lat="45.7874967" lon="13.8360655"><ele>266.0</ele><time>2026-04-08T13:47:22.846Z</time></trkpt><trkpt lat="45.7873919" lon="13.8359321"><ele>266.0</ele><time>2026-04-08T13:47:23.797Z</time></trkpt><trkpt lat="45.7873023" lon="13.8357641"><ele>265.75</ele><time>2026-04-08T13:47:24.796Z</time></trkpt><trkpt lat="45.787227" lon="13.8355789"><ele>265.5</ele><time>2026-04-08T13:47:25.8Z</time></trkpt><trkpt lat="45.7871538" lon="13.8353912"><ele>265.25</ele><time>2026-04-08T13:47:26.814Z</time></trkpt><trkpt lat="45.7870813" lon="13.8352068"><ele>265.0</ele><time>2026-04-08T13:47:27.803Z</time></trkpt><trkpt lat="45.7870129" lon="13.835036"><ele>264.75</ele><time>2026-04-08T13:47:28.805Z</time></trkpt><trkpt lat="45.7869368" lon="13.8348923"><ele>264.5</ele><time>2026-04-08T13:47:29.802Z</time></trkpt><trkpt lat="45.7868569" lon="13.8347659"><ele>264.25</ele><time>2026-04-08T13:47:30.789Z</time></trkpt><trkpt lat="45.7867757" lon="13.8346512"><ele>264.0</ele><time>2026-04-08T13:47:31.803Z</time></trkpt><trkpt lat="45.7866719" lon="13.8345541"><ele>263.5</ele><time>2026-04-08T13:47:32.799Z</time></trkpt><trkpt lat="45.7865414" lon="13.834474"><ele>263.0</ele><time>2026-04-08T13:47:33.802Z</time></trkpt><trkpt lat="45.7863964" lon="13.8344167"><ele>262.5</ele><time>2026-04-08T13:47:34.804Z</time></trkpt><trkpt lat="45.7862563" lon="13.8343672"><ele>262.0</ele><time>2026-04-08T13:47:35.795Z</time></trkpt><trkpt lat="45.7861204" lon="13.8343167"><ele>264.0</ele><time>2026-04-08T13:47:36.792Z</time></trkpt><trkpt lat="45.7859855" lon="13.8342648"><ele>266.0</ele><time>2026-04-08T13:47:37.807Z</time></trkpt><trkpt lat="45.7858476" lon="13.8342164"><ele>268.0</ele><time>2026-04-08T13:47:38.796Z</time></trkpt><trkpt lat="45.7857154" lon="13.8341672"><ele>270.0</ele><time>2026-04-08T13:47:39.783Z</time></trkpt><trkpt lat="45.7855904" lon="13.8341178"><ele>270.0</ele><time>2026-04-08T13:47:40.808Z</time></trkpt><trkpt lat="45.7854784" lon="13.8340898"><ele>270.0</ele><time>2026-04-08T13:47:41.788Z</time></trkpt><trkpt lat="45.7853844" lon="13.8340809"><ele>270.0</ele><time>2026-04-08T13:47:42.79Z</time></trkpt><trkpt lat="45.7852844" lon="13.8340889"><ele>270.0</ele><time>2026-04-08T13:47:43.8Z</time></trkpt><trkpt lat="45.7851912" lon="13.8341389"><ele>270.0</ele><time>2026-04-08T13:47:44.818Z</time></trkpt><trkpt lat="45.7851039" lon="13.8342315"><ele>271.4</ele><time>2026-04-08T13:47:45.791Z</time></trkpt><trkpt lat="45.7850287" lon="13.834321"><ele>272.8</ele><time>2026-04-08T13:47:46.784Z</time></trkpt><trkpt lat="45.7849699" lon="13.8344424"><ele>274.2</ele><time>2026-04-08T13:47:47.79Z</time></trkpt><trkpt lat="45.784916" lon="13.8345818"><ele>275.6</ele><time>2026-04-08T13:47:48.804Z</time></trkpt><trkpt lat="45.7848567" lon="13.8347216"><ele>277.0</ele><time>2026-04-08T13:47:49.791Z</time></trkpt><trkpt lat="45.7847902" lon="13.8348582"><ele>277.0</ele><time>2026-04-08T13:47:50.788Z</time></trkpt><trkpt lat="45.7847135" lon="13.834966"><ele>277.0</ele><time>2026-04-08T13:47:51.8Z</time></trkpt><trkpt lat="45.7846291" lon="13.8350525"><ele>277.0</ele><time>2026-04-08T13:47:52.793Z</time></trkpt><trkpt lat="45.784529" lon="13.8351265"><ele>277.0</ele><time>2026-04-08T13:47:53.797Z</time></trkpt><trkpt lat="45.7844155" lon="13.8351794"><ele>277.0</ele><time>2026-04-08T13:47:54.789Z</time></trkpt><trkpt lat="45.7842876" lon="13.8352035"><ele>277.5</ele><time>2026-04-08T13:47:55.792Z</time></trkpt><trkpt lat="45.7841643" lon="13.8352006"><ele>278.0</ele><time>2026-04-08T13:47:56.798Z</time></trkpt><trkpt lat="45.7840369" lon="13.8351711"><ele>278.5</ele><time>2026-04-08T13:47:57.781Z</time></trkpt><trkpt lat="45.7839104" lon="13.8351254"><ele>279.0</ele><time>2026-04-08T13:47:58.784Z</time></trkpt><trkpt lat="45.783782" lon="13.8350773"><ele>279.0</ele><time>2026-04-08T13:47:59.784Z</time></trkpt><trkpt lat="45.7836562" lon="13.8350255"><ele>279.0</ele><time>2026-04-08T13:48:00.791Z</time></trkpt><trkpt lat="45.7835367" lon="13.8349908"><ele>279.0</ele><time>2026-04-08T13:48:01.793Z</time></trkpt><trkpt lat="45.7834289" lon="13.8349585"><ele>279.0</ele><time>2026-04-08T13:48:02.796Z</time></trkpt><trkpt lat="45.7833304" lon="13.8349328"><ele>279.2</ele><time>2026-04-08T13:48:03.782Z</time></trkpt><trkpt lat="45.7832322" lon="13.8349024"><ele>279.4</ele><time>2026-04-08T13:48:04.801Z</time></trkpt><trkpt lat="45.7831323" lon="13.8348715"><ele>279.6</ele><time>2026-04-08T13:48:05.783Z</time></trkpt><trkpt lat="45.7830294" lon="13.8348393"><ele>279.8</ele><time>2026-04-08T13:48:06.785Z</time></trkpt><trkpt lat="45.7829297" lon="13.8347975"><ele>280.0</ele><time>2026-04-08T13:48:07.797Z</time></trkpt><trkpt lat="45.7828343" lon="13.8347491"><ele>280.0</ele><time>2026-04-08T13:48:08.791Z</time></trkpt><trkpt lat="45.7827419" lon="13.8346902"><ele>280.0</ele><time>2026-04-08T13:48:09.806Z</time></trkpt><trkpt lat="45.782655" lon="13.8346119"><ele>280.0</ele><time>2026-04-08T13:48:10.782Z</time></trkpt><trkpt lat="45.7825761" lon="13.8345166"><ele>280.0</ele><time>2026-04-08T13:48:11.788Z</time></trkpt><trkpt lat="45.7825015" lon="13.8344097"><ele>280.0</ele><time>2026-04-08T13:48:12.798Z</time></trkpt><trkpt lat="45.7824284" lon="13.834306"><ele>280.4</ele><time>2026-04-08T13:48:13.79Z</time></trkpt><trkpt lat="45.7823588" lon="13.8342013"><ele>280.8</ele><time>2026-04-08T13:48:14.793Z</time></trkpt><trkpt lat="45.7822881" lon="13.8340988"><ele>281.2</ele><time>2026-04-08T13:48:15.788Z</time></trkpt><trkpt lat="45.7822168" lon="13.8340119"><ele>281.6</ele><time>2026-04-08T13:48:16.801Z</time></trkpt><trkpt lat="45.7821446" lon="13.8339442"><ele>282.0</ele><time>2026-04-08T13:48:17.789Z</time></trkpt><trkpt lat="45.7820718" lon="13.8338978"><ele>282.0</ele><time>2026-04-08T13:48:18.801Z</time></trkpt><trkpt lat="45.7819928" lon="13.8338703"><ele>282.0</ele><time>2026-04-08T13:48:19.792Z</time></trkpt><trkpt lat="45.7819055" lon="13.8338531"><ele>282.0</ele><time>2026-04-08T13:48:20.811Z</time></trkpt><trkpt lat="45.7818168" lon="13.8338444"><ele>282.0</ele><time>2026-04-08T13:48:21.8Z</time></trkpt><trkpt lat="45.7817384" lon="13.8338377"><ele>282.0</ele><time>2026-04-08T13:48:22.782Z</time></trkpt><trkpt lat="45.7816652" lon="13.8338253"><ele>282.0</ele><time>2026-04-08T13:48:23.786Z</time></trkpt><trkpt lat="45.781597" lon="13.8337995"><ele>281.8333333333333</ele><time>2026-04-08T13:48:24.789Z</time></trkpt><trkpt lat="45.7815302" lon="13.8337571"><ele>281.6666666666667</ele><time>2026-04-08T13:48:25.788Z</time></trkpt><trkpt lat="45.7814601" lon="13.8336877"><ele>281.5</ele><time>2026-04-08T13:48:26.784Z</time></trkpt><trkpt lat="45.7814008" lon="13.8336057"><ele>281.33333333333337</ele><time>2026-04-08T13:48:27.786Z</time></trkpt><trkpt lat="45.7813607" lon="13.8335043"><ele>281.1666666666667</ele><time>2026-04-08T13:48:28.785Z</time></trkpt><trkpt lat="45.7813374" lon="13.833371"><ele>281.0</ele><time>2026-04-08T13:48:29.806Z</time></trkpt><trkpt lat="45.7813162" lon="13.8332512"><ele>281.0</ele><time>2026-04-08T13:48:30.798Z</time></trkpt><trkpt lat="45.7812848" lon="13.8331372"><ele>281.0</ele><time>2026-04-08T13:48:31.785Z</time></trkpt><trkpt lat="45.781245" lon="13.8330339"><ele>281.0</ele><time>2026-04-08T13:48:32.814Z</time></trkpt><trkpt lat="45.7811948" lon="13.83295"><ele>281.0</ele><time>2026-04-08T13:48:33.78Z</time></trkpt><trkpt lat="45.7811409" lon="13.8328799"><ele>281.0</ele><time>2026-04-08T13:48:34.781Z</time></trkpt><trkpt lat="45.7810815" lon="13.8328123"><ele>281.0</ele><time>2026-04-08T13:48:35.793Z</time></trkpt><trkpt lat="45.7810161" lon="13.8327468"><ele>281.2</ele><time>2026-04-08T13:48:36.811Z</time></trkpt><trkpt lat="45.7809404" lon="13.8327043"><ele>281.40000000000003</ele><time>2026-04-08T13:48:37.786Z</time></trkpt><trkpt lat="45.7808426" lon="13.8326858"><ele>281.6</ele><time>2026-04-08T13:48:38.788Z</time></trkpt><trkpt lat="45.7807427" lon="13.8326727"><ele>281.8</ele><time>2026-04-08T13:48:39.778Z</time></trkpt><trkpt lat="45.780645" lon="13.8326578"><ele>282.0</ele><time>2026-04-08T13:48:40.797Z</time></trkpt><trkpt lat="45.7805387" lon="13.8326429"><ele>282.0</ele><time>2026-04-08T13:48:41.789Z</time></trkpt><trkpt lat="45.7804268" lon="13.8326408"><ele>282.0</ele><time>2026-04-08T13:48:42.794Z</time></trkpt><trkpt lat="45.780309" lon="13.8326441"><ele>282.0</ele><time>2026-04-08T13:48:43.777Z</time></trkpt><trkpt lat="45.7801823" lon="13.8326509"><ele>282.0</ele><time>2026-04-08T13:48:44.789Z</time></trkpt><trkpt lat="45.7800496" lon="13.8326509"><ele>281.25</ele><time>2026-04-08T13:48:45.789Z</time></trkpt><trkpt lat="45.7799161" lon="13.8326441"><ele>280.5</ele><time>2026-04-08T13:48:46.793Z</time></trkpt><trkpt lat="45.779787" lon="13.8326323"><ele>279.75</ele><time>2026-04-08T13:48:47.79Z</time></trkpt><trkpt lat="45.7796557" lon="13.8326155"><ele>279.0</ele><time>2026-04-08T13:48:48.79Z</time></trkpt><trkpt lat="45.7795242" lon="13.8325914"><ele>279.0</ele><time>2026-04-08T13:48:49.792Z</time></trkpt><trkpt lat="45.7793879" lon="13.8325506"><ele>279.0</ele><time>2026-04-08T13:48:50.785Z</time></trkpt><trkpt lat="45.7792546" lon="13.8324937"><ele>279.0</ele><time>2026-04-08T13:48:51.79Z</time></trkpt><trkpt lat="45.7791169" lon="13.8324271"><ele>279.0</ele><time>2026-04-08T13:48:52.79Z</time></trkpt><trkpt lat="45.778983" lon="13.8323591"><ele>278.0</ele><time>2026-04-08T13:48:53.788Z</time></trkpt><trkpt lat="45.7788648" lon="13.8322831"><ele>277.0</ele><time>2026-04-08T13:48:54.797Z</time></trkpt><trkpt lat="45.7787556" lon="13.8321917"><ele>276.0</ele><time>2026-04-08T13:48:55.786Z</time></trkpt><trkpt lat="45.7786521" lon="13.8320831"><ele>275.0</ele><time>2026-04-08T13:48:56.787Z</time></trkpt><trkpt lat="45.7785476" lon="13.8319668"><ele>274.75</ele><time>2026-04-08T13:48:57.793Z</time></trkpt><trkpt lat="45.778446" lon="13.8318469"><ele>274.5</ele><time>2026-04-08T13:48:58.805Z</time></trkpt><trkpt lat="45.7783429" lon="13.8317303"><ele>274.25</ele><time>2026-04-08T13:48:59.789Z</time></trkpt><trkpt lat="45.7782401" lon="13.831611"><ele>274.0</ele><time>2026-04-08T13:49:00.797Z</time></trkpt><trkpt lat="45.7781437" lon="13.8314854"><ele>274.0</ele><time>2026-04-08T13:49:01.799Z</time></trkpt><trkpt lat="45.7780488" lon="13.8313562"><ele>274.0</ele><time>2026-04-08T13:49:02.787Z</time></trkpt><trkpt lat="45.7779563" lon="13.8312148"><ele>274.0</ele><time>2026-04-08T13:49:03.788Z</time></trkpt><trkpt lat="45.7778688" lon="13.831048"><ele>274.0</ele><time>2026-04-08T13:49:04.802Z</time></trkpt><trkpt lat="45.7777886" lon="13.8308724"><ele>275.0</ele><time>2026-04-08T13:49:05.785Z</time></trkpt><trkpt lat="45.7777074" lon="13.8306893"><ele>276.0</ele><time>2026-04-08T13:49:06.807Z</time></trkpt><trkpt lat="45.7776198" lon="13.8305209"><ele>277.0</ele><time>2026-04-08T13:49:07.794Z</time></trkpt><trkpt lat="45.7775141" lon="13.8303593"><ele>274.66666666666663</ele><time>2026-04-08T13:49:08.783Z</time></trkpt><trkpt lat="45.7773837" lon="13.8301968"><ele>272.3333333333333</ele><time>2026-04-08T13:49:09.788Z</time></trkpt><trkpt lat="45.7772176" lon="13.8300295"><ele>270.0</ele><time>2026-04-08T13:49:10.8Z</time></trkpt><trkpt lat="45.7770134" lon="13.8298423"><ele>270.0</ele><time>2026-04-08T13:49:11.801Z</time></trkpt><trkpt lat="45.776796" lon="13.8296356"><ele>270.0</ele><time>2026-04-08T13:49:12.787Z</time></trkpt><trkpt lat="45.7765824" lon="13.8294215"><ele>272.5</ele><time>2026-04-08T13:49:13.805Z</time></trkpt><trkpt lat="45.7763649" lon="13.8291961"><ele>275.0</ele><time>2026-04-08T13:49:14.792Z</time></trkpt><trkpt lat="45.7761588" lon="13.8289732"><ele>277.5</ele><time>2026-04-08T13:49:15.793Z</time></trkpt><trkpt lat="45.7759673" lon="13.8287548"><ele>280.0</ele><time>2026-04-08T13:49:16.795Z</time></trkpt><trkpt lat="45.7757945" lon="13.8285214"><ele>279.0</ele><time>2026-04-08T13:49:17.799Z</time></trkpt><trkpt lat="45.7756451" lon="13.8282756"><ele>278.0</ele><time>2026-04-08T13:49:18.792Z</time></trkpt><trkpt lat="45.7755023" lon="13.8280441"><ele>277.0</ele><time>2026-04-08T13:49:19.785Z</time></trkpt><trkpt lat="45.7753593" lon="13.8278581"><ele>277.0</ele><time>2026-04-08T13:49:20.781Z</time></trkpt><trkpt lat="45.7752162" lon="13.827714"><ele>277.0</ele><time>2026-04-08T13:49:21.784Z</time></trkpt><trkpt lat="45.7750805" lon="13.827577"><ele>277.0</ele><time>2026-04-08T13:49:22.802Z</time></trkpt><trkpt lat="45.7749573" lon="13.8274526"><ele>278.5</ele><time>2026-04-08T13:49:23.789Z</time></trkpt><trkpt lat="45.7748425" lon="13.8273486"><ele>280.0</ele><time>2026-04-08T13:49:24.793Z</time></trkpt><trkpt lat="45.7747137" lon="13.8272886"><ele>281.5</ele><time>2026-04-08T13:49:25.794Z</time></trkpt><trkpt lat="45.7745667" lon="13.82728"><ele>283.0</ele><time>2026-04-08T13:49:26.8Z</time></trkpt><trkpt lat="45.7744029" lon="13.827277"><ele>284.0</ele><time>2026-04-08T13:49:27.799Z</time></trkpt><trkpt lat="45.7742421" lon="13.8272491"><ele>285.0</ele><time>2026-04-08T13:49:28.803Z</time></trkpt><trkpt lat="45.774088" lon="13.827201"><ele>286.0</ele><time>2026-04-08T13:49:29.781Z</time></trkpt><trkpt lat="45.7739455" lon="13.8271187"><ele>286.0</ele><time>2026-04-08T13:49:30.796Z</time></trkpt><trkpt lat="45.7738233" lon="13.8270094"><ele>286.0</ele><time>2026-04-08T13:49:31.795Z</time></trkpt><trkpt lat="45.7737055" lon="13.8269024"><ele>286.0</ele><time>2026-04-08T13:49:32.791Z</time></trkpt><trkpt lat="45.7735837" lon="13.8268204"><ele>286.0</ele><time>2026-04-08T13:49:33.792Z</time></trkpt><trkpt lat="45.7734598" lon="13.8267696"><ele>286.75</ele><time>2026-04-08T13:49:34.774Z</time></trkpt><trkpt lat="45.7733387" lon="13.8267161"><ele>287.5</ele><time>2026-04-08T13:49:35.785Z</time></trkpt><trkpt lat="45.7732071" lon="13.8266741"><ele>288.25</ele><time>2026-04-08T13:49:36.786Z</time></trkpt><trkpt lat="45.7730709" lon="13.8266463"><ele>289.0</ele><time>2026-04-08T13:49:37.789Z</time></trkpt><trkpt lat="45.7729274" lon="13.826628"><ele>289.0</ele><time>2026-04-08T13:49:38.829Z</time></trkpt><trkpt lat="45.7727849" lon="13.8266294"><ele>289.0</ele><time>2026-04-08T13:49:39.785Z</time></trkpt><trkpt lat="45.7726362" lon="13.8266393"><ele>289.0</ele><time>2026-04-08T13:49:40.791Z</time></trkpt><trkpt lat="45.7724877" lon="13.8266534"><ele>289.0</ele><time>2026-04-08T13:49:41.786Z</time></trkpt><trkpt lat="45.7723394" lon="13.8266659"><ele>287.75</ele><time>2026-04-08T13:49:42.801Z</time></trkpt><trkpt lat="45.7721895" lon="13.8266692"><ele>286.5</ele><time>2026-04-08T13:49:43.784Z</time></trkpt><trkpt lat="45.7720411" lon="13.8266693"><ele>285.25</ele><time>2026-04-08T13:49:44.801Z</time></trkpt><trkpt lat="45.7718941" lon="13.8266537"><ele>284.0</ele><time>2026-04-08T13:49:45.793Z</time></trkpt><trkpt lat="45.7717535" lon="13.8266208"><ele>283.75</ele><time>2026-04-08T13:49:46.805Z</time></trkpt><trkpt lat="45.771623" lon="13.8265697"><ele>283.5</ele><time>2026-04-08T13:49:47.792Z</time></trkpt><trkpt lat="45.7714955" lon="13.8265016"><ele>283.25</ele><time>2026-04-08T13:49:48.792Z</time></trkpt><trkpt lat="45.7713684" lon="13.8264229"><ele>283.0</ele><time>2026-04-08T13:49:49.776Z</time></trkpt><trkpt lat="45.7711161" lon="13.8262709"><ele>283.5</ele><time>2026-04-08T13:49:51.789Z</time></trkpt><trkpt lat="45.770991" lon="13.8262113"><ele>284.0</ele><time>2026-04-08T13:49:52.792Z</time></trkpt><trkpt lat="45.7708678" lon="13.8261914"><ele>284.5</ele><time>2026-04-08T13:49:53.777Z</time></trkpt><trkpt lat="45.7707558" lon="13.8262246"><ele>285.0</ele><time>2026-04-08T13:49:54.8Z</time></trkpt><trkpt lat="45.7706514" lon="13.8263194"><ele>285.0</ele><time>2026-04-08T13:49:55.789Z</time></trkpt><trkpt lat="45.7705493" lon="13.8264319"><ele>285.0</ele><time>2026-04-08T13:49:56.779Z</time></trkpt><trkpt lat="45.7704497" lon="13.8265397"><ele>285.0</ele><time>2026-04-08T13:49:57.779Z</time></trkpt><trkpt lat="45.7703415" lon="13.8266425"><ele>285.0</ele><time>2026-04-08T13:49:58.769Z</time></trkpt><trkpt lat="45.7702194" lon="13.8267457"><ele>284.0</ele><time>2026-04-08T13:49:59.79Z</time></trkpt><trkpt lat="45.7700833" lon="13.8268574"><ele>283.0</ele><time>2026-04-08T13:50:00.79Z</time></trkpt><trkpt lat="45.7699327" lon="13.8269663"><ele>282.0</ele><time>2026-04-08T13:50:01.774Z</time></trkpt><trkpt lat="45.7697767" lon="13.827072"><ele>282.0</ele><time>2026-04-08T13:50:02.788Z</time></trkpt><trkpt lat="45.7696092" lon="13.8271825"><ele>282.0</ele><time>2026-04-08T13:50:03.787Z</time></trkpt><trkpt lat="45.7694234" lon="13.8273185"><ele>282.0</ele><time>2026-04-08T13:50:04.789Z</time></trkpt><trkpt lat="45.7692343" lon="13.8274914"><ele>280.0</ele><time>2026-04-08T13:50:05.779Z</time></trkpt><trkpt lat="45.7690532" lon="13.8277143"><ele>278.0</ele><time>2026-04-08T13:50:06.803Z</time></trkpt><trkpt lat="45.7688873" lon="13.8279592"><ele>278.0</ele><time>2026-04-08T13:50:07.781Z</time></trkpt><trkpt lat="45.7687319" lon="13.828203"><ele>278.0</ele><time>2026-04-08T13:50:08.784Z</time></trkpt><trkpt lat="45.7685934" lon="13.8284374"><ele>278.0</ele><time>2026-04-08T13:50:09.785Z</time></trkpt><trkpt lat="45.7684788" lon="13.8286721"><ele>278.6666666666667</ele><time>2026-04-08T13:50:10.793Z</time></trkpt><trkpt lat="45.7683938" lon="13.8289574"><ele>279.3333333333333</ele><time>2026-04-08T13:50:11.79Z</time></trkpt><trkpt lat="45.7683226" lon="13.8292616"><ele>280.0</ele><time>2026-04-08T13:50:12.778Z</time></trkpt><trkpt lat="45.7681966" lon="13.8298167"><ele>281.3333333333333</ele><time>2026-04-08T13:50:14.783Z</time></trkpt><trkpt lat="45.7681154" lon="13.8300488"><ele>282.6666666666667</ele><time>2026-04-08T13:50:15.772Z</time></trkpt><trkpt lat="45.7679972" lon="13.8302358"><ele>284.0</ele><time>2026-04-08T13:50:16.781Z</time></trkpt><trkpt lat="45.76785" lon="13.8303697"><ele>283.33333333333337</ele><time>2026-04-08T13:50:17.786Z</time></trkpt><trkpt lat="45.7676669" lon="13.8304584"><ele>282.6666666666667</ele><time>2026-04-08T13:50:18.784Z</time></trkpt><trkpt lat="45.7674727" lon="13.8304879"><ele>282.0</ele><time>2026-04-08T13:50:19.8Z</time></trkpt><trkpt lat="45.7672937" lon="13.830444"><ele>282.0</ele><time>2026-04-08T13:50:20.785Z</time></trkpt><trkpt lat="45.7671249" lon="13.8303164"><ele>282.0</ele><time>2026-04-08T13:50:21.771Z</time></trkpt><trkpt lat="45.7669646" lon="13.8301417"><ele>282.0</ele><time>2026-04-08T13:50:22.777Z</time></trkpt><trkpt lat="45.7668181" lon="13.8299593"><ele>281.6666666666667</ele><time>2026-04-08T13:50:23.778Z</time></trkpt><trkpt lat="45.7666669" lon="13.8298065"><ele>281.33333333333337</ele><time>2026-04-08T13:50:24.788Z</time></trkpt><trkpt lat="45.7665057" lon="13.8296825"><ele>281.0</ele><time>2026-04-08T13:50:25.769Z</time></trkpt><trkpt lat="45.7663431" lon="13.8295872"><ele>281.0</ele><time>2026-04-08T13:50:26.787Z</time></trkpt><trkpt lat="45.7661882" lon="13.8295324"><ele>281.0</ele><time>2026-04-08T13:50:27.786Z</time></trkpt><trkpt lat="45.766036" lon="13.8295139"><ele>281.0</ele><time>2026-04-08T13:50:28.786Z</time></trkpt><trkpt lat="45.7658916" lon="13.8294942"><ele>280.75</ele><time>2026-04-08T13:50:29.784Z</time></trkpt><trkpt lat="45.7657541" lon="13.829459"><ele>280.5</ele><time>2026-04-08T13:50:30.788Z</time></trkpt><trkpt lat="45.7656286" lon="13.82943"><ele>280.25</ele><time>2026-04-08T13:50:31.787Z</time></trkpt><trkpt lat="45.7655079" lon="13.8293999"><ele>280.0</ele><time>2026-04-08T13:50:32.785Z</time></trkpt><trkpt lat="45.7653924" lon="13.8293755"><ele>280.0</ele><time>2026-04-08T13:50:33.769Z</time></trkpt><trkpt lat="45.7652804" lon="13.8293454"><ele>280.0</ele><time>2026-04-08T13:50:34.812Z</time></trkpt><trkpt lat="45.7651735" lon="13.8293118"><ele>280.0</ele><time>2026-04-08T13:50:35.782Z</time></trkpt><trkpt lat="45.7650654" lon="13.8292832"><ele>280.0</ele><time>2026-04-08T13:50:36.771Z</time></trkpt><trkpt lat="45.7649555" lon="13.8292543"><ele>280.0</ele><time>2026-04-08T13:50:37.782Z</time></trkpt><trkpt lat="45.7648447" lon="13.8292267"><ele>280.0</ele><time>2026-04-08T13:50:38.784Z</time></trkpt><trkpt lat="45.7647352" lon="13.8291948"><ele>280.0</ele><time>2026-04-08T13:50:39.784Z</time></trkpt><trkpt lat="45.7646225" lon="13.8291643"><ele>280.0</ele><time>2026-04-08T13:50:40.789Z</time></trkpt><trkpt lat="45.7645097" lon="13.8291366"><ele>280.0</ele><time>2026-04-08T13:50:41.771Z</time></trkpt><trkpt lat="45.7643991" lon="13.8291022"><ele>279.25</ele><time>2026-04-08T13:50:42.775Z</time></trkpt><trkpt lat="45.7642838" lon="13.8290671"><ele>278.5</ele><time>2026-04-08T13:50:43.783Z</time></trkpt><trkpt lat="45.7641673" lon="13.8290358"><ele>277.75</ele><time>2026-04-08T13:50:44.792Z</time></trkpt><trkpt lat="45.7640478" lon="13.8289948"><ele>277.0</ele><time>2026-04-08T13:50:45.779Z</time></trkpt><trkpt lat="45.763923" lon="13.8289548"><ele>277.0</ele><time>2026-04-08T13:50:46.787Z</time></trkpt><trkpt lat="45.7637951" lon="13.8289121"><ele>277.0</ele><time>2026-04-08T13:50:47.781Z</time></trkpt><trkpt lat="45.7636682" lon="13.8288841"><ele>277.0</ele><time>2026-04-08T13:50:48.772Z</time></trkpt><trkpt lat="45.7635395" lon="13.8288688"><ele>277.0</ele><time>2026-04-08T13:50:49.786Z</time></trkpt><trkpt lat="45.7634104" lon="13.8288715"><ele>277.0</ele><time>2026-04-08T13:50:50.79Z</time></trkpt><trkpt lat="45.7632811" lon="13.8289003"><ele>277.0</ele><time>2026-04-08T13:50:51.785Z</time></trkpt><trkpt lat="45.7631429" lon="13.8289534"><ele>277.0</ele><time>2026-04-08T13:50:52.783Z</time></trkpt><trkpt lat="45.7630098" lon="13.8290253"><ele>277.0</ele><time>2026-04-08T13:50:53.776Z</time></trkpt><trkpt lat="45.7628754" lon="13.8291144"><ele>277.0</ele><time>2026-04-08T13:50:54.778Z</time></trkpt><trkpt lat="45.7627524" lon="13.8292147"><ele>277.0</ele><time>2026-04-08T13:50:55.772Z</time></trkpt><trkpt lat="45.7626402" lon="13.8293355"><ele>277.0</ele><time>2026-04-08T13:50:56.772Z</time></trkpt><trkpt lat="45.7625342" lon="13.829471"><ele>277.0</ele><time>2026-04-08T13:50:57.775Z</time></trkpt><trkpt lat="45.7624436" lon="13.8296111"><ele>278.0</ele><time>2026-04-08T13:50:58.777Z</time></trkpt><trkpt lat="45.7623536" lon="13.8297485"><ele>279.0</ele><time>2026-04-08T13:50:59.77Z</time></trkpt><trkpt lat="45.7622378" lon="13.8298609"><ele>280.0</ele><time>2026-04-08T13:51:00.781Z</time></trkpt><trkpt lat="45.7621022" lon="13.8299228"><ele>281.0</ele><time>2026-04-08T13:51:01.788Z</time></trkpt><trkpt lat="45.7619498" lon="13.8299337"><ele>281.5</ele><time>2026-04-08T13:51:02.801Z</time></trkpt><trkpt lat="45.7618054" lon="13.8299262"><ele>282.0</ele><time>2026-04-08T13:51:03.783Z</time></trkpt><trkpt lat="45.7616648" lon="13.8299396"><ele>282.5</ele><time>2026-04-08T13:51:04.794Z</time></trkpt><trkpt lat="45.7615311" lon="13.8300039"><ele>283.0</ele><time>2026-04-08T13:51:05.789Z</time></trkpt><trkpt lat="45.7614201" lon="13.830087"><ele>282.8</ele><time>2026-04-08T13:51:06.782Z</time></trkpt><trkpt lat="45.7613289" lon="13.8301826"><ele>282.6</ele><time>2026-04-08T13:51:07.783Z</time></trkpt><trkpt lat="45.7612449" lon="13.83028"><ele>282.4</ele><time>2026-04-08T13:51:08.785Z</time></trkpt><trkpt lat="45.7611588" lon="13.8303569"><ele>282.2</ele><time>2026-04-08T13:51:09.795Z</time></trkpt><trkpt lat="45.7610713" lon="13.8304246"><ele>282.0</ele><time>2026-04-08T13:51:10.784Z</time></trkpt><trkpt lat="45.7609774" lon="13.8304967"><ele>282.0</ele><time>2026-04-08T13:51:11.786Z</time></trkpt><trkpt lat="45.7608835" lon="13.8305782"><ele>282.0</ele><time>2026-04-08T13:51:12.792Z</time></trkpt><trkpt lat="45.7607974" lon="13.8306693"><ele>282.0</ele><time>2026-04-08T13:51:13.778Z</time></trkpt><trkpt lat="45.7607109" lon="13.8307673"><ele>282.0</ele><time>2026-04-08T13:51:14.791Z</time></trkpt><trkpt lat="45.7606291" lon="13.8308728"><ele>282.0</ele><time>2026-04-08T13:51:15.806Z</time></trkpt><trkpt lat="45.7605447" lon="13.8309753"><ele>282.0</ele><time>2026-04-08T13:51:16.786Z</time></trkpt><trkpt lat="45.7604574" lon="13.8310654"><ele>282.0</ele><time>2026-04-08T13:51:17.78Z</time></trkpt><trkpt lat="45.7603653" lon="13.8311492"><ele>282.0</ele><time>2026-04-08T13:51:18.787Z</time></trkpt><trkpt lat="45.7602693" lon="13.8312262"><ele>282.0</ele><time>2026-04-08T13:51:19.787Z</time></trkpt><trkpt lat="45.7601623" lon="13.8312718"><ele>282.0</ele><time>2026-04-08T13:51:20.787Z</time></trkpt><trkpt lat="45.7600505" lon="13.8312957"><ele>282.75</ele><time>2026-04-08T13:51:21.772Z</time></trkpt><trkpt lat="45.759933" lon="13.8313195"><ele>283.5</ele><time>2026-04-08T13:51:22.795Z</time></trkpt><trkpt lat="45.7598154" lon="13.8313378"><ele>284.25</ele><time>2026-04-08T13:51:23.782Z</time></trkpt><trkpt lat="45.7596957" lon="13.831358"><ele>285.0</ele><time>2026-04-08T13:51:24.779Z</time></trkpt><trkpt lat="45.7595795" lon="13.8313742"><ele>285.0</ele><time>2026-04-08T13:51:25.798Z</time></trkpt><trkpt lat="45.7594619" lon="13.831387"><ele>285.0</ele><time>2026-04-08T13:51:26.772Z</time></trkpt><trkpt lat="45.7593441" lon="13.8313823"><ele>285.0</ele><time>2026-04-08T13:51:27.788Z</time></trkpt><trkpt lat="45.7592291" lon="13.8313756"><ele>285.0</ele><time>2026-04-08T13:51:28.771Z</time></trkpt><trkpt lat="45.7591166" lon="13.8313717"><ele>285.6</ele><time>2026-04-08T13:51:29.791Z</time></trkpt><trkpt lat="45.7590038" lon="13.8313659"><ele>286.2</ele><time>2026-04-08T13:51:30.793Z</time></trkpt><trkpt lat="45.7588961" lon="13.8313532"><ele>286.8</ele><time>2026-04-08T13:51:31.776Z</time></trkpt><trkpt lat="45.7587901" lon="13.8313217"><ele>287.4</ele><time>2026-04-08T13:51:32.772Z</time></trkpt><trkpt lat="45.7586837" lon="13.8312856"><ele>288.0</ele><time>2026-04-08T13:51:33.766Z</time></trkpt><trkpt lat="45.7585769" lon="13.8312564"><ele>288.8</ele><time>2026-04-08T13:51:34.773Z</time></trkpt><trkpt lat="45.7584688" lon="13.8312418"><ele>289.6</ele><time>2026-04-08T13:51:35.78Z</time></trkpt><trkpt lat="45.758361" lon="13.8312609"><ele>290.4</ele><time>2026-04-08T13:51:36.78Z</time></trkpt><trkpt lat="45.758268" lon="13.8313275"><ele>291.2</ele><time>2026-04-08T13:51:37.771Z</time></trkpt><trkpt lat="45.7581881" lon="13.831417"><ele>292.0</ele><time>2026-04-08T13:51:38.809Z</time></trkpt><trkpt lat="45.7580297" lon="13.8316"><ele>292.0</ele><time>2026-04-08T13:51:40.769Z</time></trkpt><trkpt lat="45.7578622" lon="13.8317685"><ele>292.0</ele><time>2026-04-08T13:51:42.793Z</time></trkpt><trkpt lat="45.7577677" lon="13.8318424"><ele>292.0</ele><time>2026-04-08T13:51:43.781Z</time></trkpt><trkpt lat="45.7576706" lon="13.8319004"><ele>292.0</ele><time>2026-04-08T13:51:44.775Z</time></trkpt><trkpt lat="45.7574784" lon="13.831965"><ele>292.8</ele><time>2026-04-08T13:51:46.807Z</time></trkpt><trkpt lat="45.7573779" lon="13.8319944"><ele>293.6</ele><time>2026-04-08T13:51:47.773Z</time></trkpt><trkpt lat="45.7572749" lon="13.8320107"><ele>294.40000000000003</ele><time>2026-04-08T13:51:48.777Z</time></trkpt><trkpt lat="45.7571708" lon="13.8320252"><ele>295.2</ele><time>2026-04-08T13:51:49.781Z</time></trkpt><trkpt lat="45.757062" lon="13.8320366"><ele>296.0</ele><time>2026-04-08T13:51:50.774Z</time></trkpt><trkpt lat="45.7569582" lon="13.8320617"><ele>296.0</ele><time>2026-04-08T13:51:51.772Z</time></trkpt><trkpt lat="45.7568748" lon="13.8321293"><ele>296.0</ele><time>2026-04-08T13:51:52.775Z</time></trkpt><trkpt lat="45.7568208" lon="13.8322459"><ele>296.0</ele><time>2026-04-08T13:51:53.777Z</time></trkpt><trkpt lat="45.7567937" lon="13.8323761"><ele>296.0</ele><time>2026-04-08T13:51:54.767Z</time></trkpt><trkpt lat="45.7567752" lon="13.8324966"><ele>296.0</ele><time>2026-04-08T13:51:55.784Z</time></trkpt><trkpt lat="45.7566797" lon="13.832508"><ele>298.1666666666667</ele><time>2026-04-08T13:51:57.775Z</time></trkpt><trkpt lat="45.7566794" lon="13.8323549"><ele>300.33333333333337</ele><time>2026-04-08T13:51:59.774Z</time></trkpt><trkpt lat="45.7567107" lon="13.8322588"><ele>302.5</ele><time>2026-04-08T13:52:00.761Z</time></trkpt><trkpt lat="45.7567345" lon="13.8321476"><ele>304.6666666666667</ele><time>2026-04-08T13:52:01.777Z</time></trkpt><trkpt lat="45.7567616" lon="13.8320261"><ele>306.8333333333333</ele><time>2026-04-08T13:52:02.772Z</time></trkpt><trkpt lat="45.7567772" lon="13.8319118"><ele>309.0</ele><time>2026-04-08T13:52:03.771Z</time></trkpt><trkpt lat="45.7567918" lon="13.8317985"><ele>309.8</ele><time>2026-04-08T13:52:04.787Z</time></trkpt><trkpt lat="45.7567966" lon="13.8316968"><ele>310.59999999999997</ele><time>2026-04-08T13:52:05.766Z</time></trkpt><trkpt lat="45.7567647" lon="13.8315419"><ele>311.4</ele><time>2026-04-08T13:52:07.767Z</time></trkpt><trkpt lat="45.7566647" lon="13.8314559"><ele>312.2</ele><time>2026-04-08T13:52:09.789Z</time></trkpt><trkpt lat="45.7565953" lon="13.8314559"><ele>313.0</ele><time>2026-04-08T13:52:10.765Z</time></trkpt><trkpt lat="45.7564736" lon="13.8314935"><ele>313.0</ele><time>2026-04-08T13:52:12.764Z</time></trkpt><trkpt lat="45.7563556" lon="13.8315457"><ele>313.0</ele><time>2026-04-08T13:52:14.768Z</time></trkpt><trkpt lat="45.7562919" lon="13.8316082"><ele>313.0</ele><time>2026-04-08T13:52:15.762Z</time></trkpt><trkpt lat="45.7562459" lon="13.8316784"><ele>313.0</ele><time>2026-04-08T13:52:16.776Z</time></trkpt><trkpt lat="45.7561632" lon="13.8318031"><ele>313.0</ele><time>2026-04-08T13:52:18.76Z</time></trkpt><trkpt lat="45.7561175" lon="13.8318794"><ele>313.5</ele><time>2026-04-08T13:52:19.764Z</time></trkpt><trkpt lat="45.7560711" lon="13.8319558"><ele>314.0</ele><time>2026-04-08T13:52:20.772Z</time></trkpt><trkpt lat="45.7560238" lon="13.8320402"><ele>314.5</ele><time>2026-04-08T13:52:21.781Z</time></trkpt><trkpt lat="45.7559838" lon="13.8321309"><ele>315.0</ele><time>2026-04-08T13:52:22.767Z</time></trkpt><trkpt lat="45.7559361" lon="13.8322344"><ele>315.5</ele><time>2026-04-08T13:52:23.778Z</time></trkpt><trkpt lat="45.7558898" lon="13.8323228"><ele>316.0</ele><time>2026-04-08T13:52:24.772Z</time></trkpt><trkpt lat="45.7558416" lon="13.8324125"><ele>316.00000000000006</ele><time>2026-04-08T13:52:25.773Z</time></trkpt><trkpt lat="45.7557992" lon="13.8325018"><ele>316.0</ele><time>2026-04-08T13:52:26.772Z</time></trkpt><trkpt lat="45.7557516" lon="13.8325911"><ele>316.0</ele><time>2026-04-08T13:52:27.784Z</time></trkpt><trkpt lat="45.755701" lon="13.8326581"><ele>316.0</ele><time>2026-04-08T13:52:28.778Z</time></trkpt><trkpt lat="45.7556457" lon="13.8327075"><ele>316.0</ele><time>2026-04-08T13:52:29.773Z</time></trkpt><trkpt lat="45.7555759" lon="13.8327509"><ele>316.00000000000006</ele><time>2026-04-08T13:52:30.771Z</time></trkpt><trkpt lat="45.7555002" lon="13.8328006"><ele>316.0</ele><time>2026-04-08T13:52:31.77Z</time></trkpt><trkpt lat="45.7554123" lon="13.8328469"><ele>314.5</ele><time>2026-04-08T13:52:32.755Z</time></trkpt><trkpt lat="45.7551574" lon="13.832969"><ele>313.0</ele><time>2026-04-08T13:52:35.756Z</time></trkpt><trkpt lat="45.7550931" lon="13.8330161"><ele>311.5</ele><time>2026-04-08T13:52:36.782Z</time></trkpt><trkpt lat="45.7550204" lon="13.8331006"><ele>310.0</ele><time>2026-04-08T13:52:37.764Z</time></trkpt><trkpt lat="45.7549532" lon="13.8332368"><ele>310.0</ele><time>2026-04-08T13:52:38.777Z</time></trkpt><trkpt lat="45.7549151" lon="13.8333902"><ele>310.0</ele><time>2026-04-08T13:52:39.781Z</time></trkpt><trkpt lat="45.7548985" lon="13.8335275"><ele>310.0</ele><time>2026-04-08T13:52:40.789Z</time></trkpt><trkpt lat="45.7548854" lon="13.833645"><ele>310.0</ele><time>2026-04-08T13:52:41.76Z</time></trkpt><trkpt lat="45.7548654" lon="13.8337631"><ele>310.0</ele><time>2026-04-08T13:52:42.759Z</time></trkpt><trkpt lat="45.7548295" lon="13.8338789"><ele>310.5</ele><time>2026-04-08T13:52:43.77Z</time></trkpt><trkpt lat="45.7547899" lon="13.8339925"><ele>311.0</ele><time>2026-04-08T13:52:44.758Z</time></trkpt><trkpt lat="45.7547462" lon="13.8341118"><ele>311.5</ele><time>2026-04-08T13:52:45.767Z</time></trkpt><trkpt lat="45.7547056" lon="13.834221"><ele>312.0</ele><time>2026-04-08T13:52:46.787Z</time></trkpt><trkpt lat="45.754645" lon="13.8343121"><ele>312.5</ele><time>2026-04-08T13:52:47.767Z</time></trkpt><trkpt lat="45.7545747" lon="13.8343238"><ele>313.0</ele><time>2026-04-08T13:52:48.784Z</time></trkpt><trkpt lat="45.7544689" lon="13.8341972"><ele>313.0</ele><time>2026-04-08T13:52:50.769Z</time></trkpt><trkpt lat="45.7544228" lon="13.8340925"><ele>313.0</ele><time>2026-04-08T13:52:51.778Z</time></trkpt><trkpt lat="45.7543703" lon="13.8339748"><ele>313.0</ele><time>2026-04-08T13:52:52.789Z</time></trkpt><trkpt lat="45.7543095" lon="13.8338429"><ele>313.0</ele><time>2026-04-08T13:52:53.765Z</time></trkpt><trkpt lat="45.7542435" lon="13.8337043"><ele>313.0</ele><time>2026-04-08T13:52:54.763Z</time></trkpt><trkpt lat="45.7541777" lon="13.8335756"><ele>310.4</ele><time>2026-04-08T13:52:55.771Z</time></trkpt><trkpt lat="45.7541027" lon="13.8334802"><ele>307.8</ele><time>2026-04-08T13:52:56.776Z</time></trkpt><trkpt lat="45.7540197" lon="13.8334495"><ele>305.2</ele><time>2026-04-08T13:52:57.767Z</time></trkpt><trkpt lat="45.753915" lon="13.833474"><ele>302.6</ele><time>2026-04-08T13:52:58.77Z</time></trkpt><trkpt lat="45.7538034" lon="13.8335153"><ele>300.0</ele><time>2026-04-08T13:52:59.772Z</time></trkpt><trkpt lat="45.7536805" lon="13.8335547"><ele>300.0</ele><time>2026-04-08T13:53:00.781Z</time></trkpt><trkpt lat="45.753558" lon="13.8335923"><ele>300.0</ele><time>2026-04-08T13:53:01.785Z</time></trkpt><trkpt lat="45.7534267" lon="13.8336265"><ele>300.0</ele><time>2026-04-08T13:53:02.781Z</time></trkpt><trkpt lat="45.7532832" lon="13.8336692"><ele>300.0</ele><time>2026-04-08T13:53:03.777Z</time></trkpt><trkpt lat="45.7531365" lon="13.8337202"><ele>298.6666666666667</ele><time>2026-04-08T13:53:04.767Z</time></trkpt><trkpt lat="45.752984" lon="13.8337791"><ele>297.33333333333337</ele><time>2026-04-08T13:53:05.76Z</time></trkpt><trkpt lat="45.7528309" lon="13.833842"><ele>296.0</ele><time>2026-04-08T13:53:06.76Z</time></trkpt><trkpt lat="45.7526802" lon="13.8339092"><ele>294.33333333333337</ele><time>2026-04-08T13:53:07.775Z</time></trkpt><trkpt lat="45.7525273" lon="13.8339743"><ele>292.6666666666667</ele><time>2026-04-08T13:53:08.781Z</time></trkpt><trkpt lat="45.7523715" lon="13.8340407"><ele>291.0</ele><time>2026-04-08T13:53:09.771Z</time></trkpt><trkpt lat="45.7522086" lon="13.8341029"><ele>291.0</ele><time>2026-04-08T13:53:10.793Z</time></trkpt><trkpt lat="45.7520407" lon="13.8341419"><ele>291.0</ele><time>2026-04-08T13:53:11.772Z</time></trkpt><trkpt lat="45.7518721" lon="13.834122"><ele>291.0</ele><time>2026-04-08T13:53:12.768Z</time></trkpt><trkpt lat="45.7516975" lon="13.8340579"><ele>292.0</ele><time>2026-04-08T13:53:13.781Z</time></trkpt><trkpt lat="45.7515314" lon="13.8339538"><ele>293.0</ele><time>2026-04-08T13:53:14.783Z</time></trkpt><trkpt lat="45.7512309" lon="13.8337362"><ele>295.0</ele><time>2026-04-08T13:53:16.769Z</time></trkpt><trkpt lat="45.7509011" lon="13.8336174"><ele>297.0</ele><time>2026-04-08T13:53:18.765Z</time></trkpt><trkpt lat="45.7507179" lon="13.8336163"><ele>297.0</ele><time>2026-04-08T13:53:19.77Z</time></trkpt><trkpt lat="45.7505377" lon="13.8336716"><ele>297.0</ele><time>2026-04-08T13:53:20.792Z</time></trkpt><trkpt lat="45.7503497" lon="13.8337482"><ele>297.0</ele><time>2026-04-08T13:53:21.779Z</time></trkpt><trkpt lat="45.7501414" lon="13.8338429"><ele>294.5</ele><time>2026-04-08T13:53:22.772Z</time></trkpt><trkpt lat="45.7499077" lon="13.8339377"><ele>292.0</ele><time>2026-04-08T13:53:23.778Z</time></trkpt><trkpt lat="45.749673" lon="13.8340221"><ele>292.0</ele><time>2026-04-08T13:53:24.768Z</time></trkpt><trkpt lat="45.74944" lon="13.8341125"><ele>292.0</ele><time>2026-04-08T13:53:25.776Z</time></trkpt><trkpt lat="45.7491959" lon="13.8342161"><ele>294.0</ele><time>2026-04-08T13:53:26.768Z</time></trkpt><trkpt lat="45.7489572" lon="13.8343223"><ele>296.0</ele><time>2026-04-08T13:53:27.765Z</time></trkpt><trkpt lat="45.7487325" lon="13.8344215"><ele>297.33333333333337</ele><time>2026-04-08T13:53:28.759Z</time></trkpt><trkpt lat="45.7485197" lon="13.834507"><ele>298.6666666666667</ele><time>2026-04-08T13:53:29.764Z</time></trkpt><trkpt lat="45.7483147" lon="13.834566"><ele>300.0</ele><time>2026-04-08T13:53:30.756Z</time></trkpt><trkpt lat="45.7481092" lon="13.8346098"><ele>300.0</ele><time>2026-04-08T13:53:31.766Z</time></trkpt><trkpt lat="45.7478951" lon="13.8346275"><ele>300.0</ele><time>2026-04-08T13:53:32.777Z</time></trkpt><trkpt lat="45.747672" lon="13.8346118"><ele>300.0</ele><time>2026-04-08T13:53:33.776Z</time></trkpt><trkpt lat="45.7474503" lon="13.8345677"><ele>297.5</ele><time>2026-04-08T13:53:34.77Z</time></trkpt><trkpt lat="45.7472343" lon="13.8345027"><ele>295.0</ele><time>2026-04-08T13:53:35.758Z</time></trkpt><trkpt lat="45.7470069" lon="13.8344147"><ele>294.66666666666663</ele><time>2026-04-08T13:53:36.777Z</time></trkpt><trkpt lat="45.7467897" lon="13.8343176"><ele>294.3333333333333</ele><time>2026-04-08T13:53:37.787Z</time></trkpt><trkpt lat="45.7465858" lon="13.8342272"><ele>294.0</ele><time>2026-04-08T13:53:38.773Z</time></trkpt><trkpt lat="45.7463999" lon="13.8341584"><ele>294.6666666666667</ele><time>2026-04-08T13:53:39.788Z</time></trkpt><trkpt lat="45.7462299" lon="13.8341108"><ele>295.33333333333337</ele><time>2026-04-08T13:53:40.781Z</time></trkpt><trkpt lat="45.7460753" lon="13.8340881"><ele>296.0</ele><time>2026-04-08T13:53:41.773Z</time></trkpt><trkpt lat="45.7459281" lon="13.8340956"><ele>296.0</ele><time>2026-04-08T13:53:42.758Z</time></trkpt><trkpt lat="45.7457893" lon="13.8341424"><ele>296.0</ele><time>2026-04-08T13:53:43.779Z</time></trkpt><trkpt lat="45.7456442" lon="13.834201"><ele>296.0</ele><time>2026-04-08T13:53:44.787Z</time></trkpt><trkpt lat="45.7455068" lon="13.8342511"><ele>296.0</ele><time>2026-04-08T13:53:45.772Z</time></trkpt><trkpt lat="45.7453681" lon="13.8343066"><ele>296.25</ele><time>2026-04-08T13:53:46.782Z</time></trkpt><trkpt lat="45.7452278" lon="13.8343544"><ele>296.5</ele><time>2026-04-08T13:53:47.759Z</time></trkpt><trkpt lat="45.7450809" lon="13.83437"><ele>296.75</ele><time>2026-04-08T13:53:48.76Z</time></trkpt><trkpt lat="45.7449359" lon="13.8343454"><ele>297.0</ele><time>2026-04-08T13:53:49.781Z</time></trkpt><trkpt lat="45.7447922" lon="13.8342921"><ele>296.0</ele><time>2026-04-08T13:53:50.787Z</time></trkpt><trkpt lat="45.7446537" lon="13.8342128"><ele>295.0</ele><time>2026-04-08T13:53:51.773Z</time></trkpt><trkpt lat="45.7445271" lon="13.8341231"><ele>294.0</ele><time>2026-04-08T13:53:52.779Z</time></trkpt><trkpt lat="45.7444057" lon="13.8340287"><ele>293.0</ele><time>2026-04-08T13:53:53.772Z</time></trkpt><trkpt lat="45.7442799" lon="13.8339297"><ele>291.6666666666667</ele><time>2026-04-08T13:53:54.763Z</time></trkpt><trkpt lat="45.7441568" lon="13.8338032"><ele>290.3333333333333</ele><time>2026-04-08T13:53:55.766Z</time></trkpt><trkpt lat="45.7440385" lon="13.8336544"><ele>289.0</ele><time>2026-04-08T13:53:56.783Z</time></trkpt><trkpt lat="45.7439215" lon="13.8335049"><ele>288.0</ele><time>2026-04-08T13:53:57.767Z</time></trkpt><trkpt lat="45.7438036" lon="13.8333556"><ele>287.0</ele><time>2026-04-08T13:53:58.773Z</time></trkpt><trkpt lat="45.7436881" lon="13.8332038"><ele>286.0</ele><time>2026-04-08T13:53:59.767Z</time></trkpt><trkpt lat="45.743572" lon="13.8330338"><ele>284.66666666666663</ele><time>2026-04-08T13:54:00.785Z</time></trkpt><trkpt lat="45.743475" lon="13.8328526"><ele>283.3333333333333</ele><time>2026-04-08T13:54:01.775Z</time></trkpt><trkpt lat="45.7433885" lon="13.8326464"><ele>282.0</ele><time>2026-04-08T13:54:02.779Z</time></trkpt><trkpt lat="45.7433015" lon="13.8324384"><ele>281.3333333333333</ele><time>2026-04-08T13:54:03.772Z</time></trkpt><trkpt lat="45.7432177" lon="13.8322335"><ele>280.66666666666663</ele><time>2026-04-08T13:54:04.785Z</time></trkpt><trkpt lat="45.7431318" lon="13.8320365"><ele>280.0</ele><time>2026-04-08T13:54:05.767Z</time></trkpt><trkpt lat="45.7430457" lon="13.8318454"><ele>279.66666666666663</ele><time>2026-04-08T13:54:06.77Z</time></trkpt><trkpt lat="45.7429702" lon="13.8316537"><ele>279.3333333333333</ele><time>2026-04-08T13:54:07.762Z</time></trkpt><trkpt lat="45.7429088" lon="13.8314483"><ele>279.0</ele><time>2026-04-08T13:54:08.769Z</time></trkpt><trkpt lat="45.7428725" lon="13.8312077"><ele>278.6666666666667</ele><time>2026-04-08T13:54:09.774Z</time></trkpt><trkpt lat="45.7428615" lon="13.8309486"><ele>278.33333333333337</ele><time>2026-04-08T13:54:10.771Z</time></trkpt><trkpt lat="45.742882" lon="13.8306838"><ele>278.0</ele><time>2026-04-08T13:54:11.767Z</time></trkpt><trkpt lat="45.7429405" lon="13.8304105"><ele>278.0</ele><time>2026-04-08T13:54:12.784Z</time></trkpt><trkpt lat="45.7430118" lon="13.8301096"><ele>278.0</ele><time>2026-04-08T13:54:13.771Z</time></trkpt><trkpt lat="45.743083" lon="13.829804"><ele>278.0</ele><time>2026-04-08T13:54:14.766Z</time></trkpt><trkpt lat="45.7431458" lon="13.8295078"><ele>277.33333333333337</ele><time>2026-04-08T13:54:15.768Z</time></trkpt><trkpt lat="45.7431941" lon="13.829231"><ele>276.6666666666667</ele><time>2026-04-08T13:54:16.772Z</time></trkpt><trkpt lat="45.7432272" lon="13.8289545"><ele>276.0</ele><time>2026-04-08T13:54:17.772Z</time></trkpt><trkpt lat="45.7432288" lon="13.8286775"><ele>276.0</ele><time>2026-04-08T13:54:18.765Z</time></trkpt><trkpt lat="45.7431747" lon="13.8284067"><ele>276.0</ele><time>2026-04-08T13:54:19.768Z</time></trkpt><trkpt lat="45.7430918" lon="13.8281474"><ele>276.0</ele><time>2026-04-08T13:54:20.759Z</time></trkpt><trkpt lat="45.7430328" lon="13.8278771"><ele>275.6666666666667</ele><time>2026-04-08T13:54:21.756Z</time></trkpt><trkpt lat="45.742982" lon="13.8276113"><ele>275.33333333333337</ele><time>2026-04-08T13:54:22.765Z</time></trkpt><trkpt lat="45.7429354" lon="13.8273148"><ele>275.0</ele><time>2026-04-08T13:54:23.766Z</time></trkpt><trkpt lat="45.7428911" lon="13.8270018"><ele>273.5</ele><time>2026-04-08T13:54:24.764Z</time></trkpt><trkpt lat="45.7428431" lon="13.826669"><ele>272.0</ele><time>2026-04-08T13:54:25.769Z</time></trkpt><trkpt lat="45.7427763" lon="13.8263545"><ele>275.5</ele><time>2026-04-08T13:54:26.767Z</time></trkpt><trkpt lat="45.7426984" lon="13.8260508"><ele>279.0</ele><time>2026-04-08T13:54:27.758Z</time></trkpt><trkpt lat="45.7425916" lon="13.8257604"><ele>279.5</ele><time>2026-04-08T13:54:28.758Z</time></trkpt><trkpt lat="45.7424515" lon="13.8254878"><ele>280.0</ele><time>2026-04-08T13:54:29.776Z</time></trkpt><trkpt lat="45.7422934" lon="13.8252253"><ele>279.5</ele><time>2026-04-08T13:54:30.76Z</time></trkpt><trkpt lat="45.7421262" lon="13.8249483"><ele>279.0</ele><time>2026-04-08T13:54:31.769Z</time></trkpt><trkpt lat="45.7419543" lon="13.8246925"><ele>280.0</ele><time>2026-04-08T13:54:32.771Z</time></trkpt><trkpt lat="45.7418003" lon="13.8244525"><ele>281.0</ele><time>2026-04-08T13:54:33.782Z</time></trkpt><trkpt lat="45.7416598" lon="13.8242263"><ele>282.0</ele><time>2026-04-08T13:54:34.759Z</time></trkpt><trkpt lat="45.7415232" lon="13.824039"><ele>282.0</ele><time>2026-04-08T13:54:35.773Z</time></trkpt><trkpt lat="45.7413694" lon="13.8238893"><ele>282.0</ele><time>2026-04-08T13:54:36.77Z</time></trkpt><trkpt lat="45.7411988" lon="13.8237967"><ele>282.0</ele><time>2026-04-08T13:54:37.778Z</time></trkpt><trkpt lat="45.7410433" lon="13.8237159"><ele>282.0</ele><time>2026-04-08T13:54:38.787Z</time></trkpt><trkpt lat="45.7409019" lon="13.8236466"><ele>282.0</ele><time>2026-04-08T13:54:39.757Z</time></trkpt><trkpt lat="45.7407617" lon="13.8235745"><ele>282.0</ele><time>2026-04-08T13:54:40.757Z</time></trkpt><trkpt lat="45.740621" lon="13.8235167"><ele>282.0</ele><time>2026-04-08T13:54:41.76Z</time></trkpt><trkpt lat="45.7404725" lon="13.8234618"><ele>282.0</ele><time>2026-04-08T13:54:42.768Z</time></trkpt><trkpt lat="45.740307" lon="13.8234102"><ele>282.0</ele><time>2026-04-08T13:54:43.755Z</time></trkpt><trkpt lat="45.7401232" lon="13.8233549"><ele>282.0</ele><time>2026-04-08T13:54:44.846Z</time></trkpt><trkpt lat="45.7399131" lon="13.8233117"><ele>282.0</ele><time>2026-04-08T13:54:45.779Z</time></trkpt><trkpt lat="45.7396951" lon="13.8232551"><ele>282.0</ele><time>2026-04-08T13:54:46.754Z</time></trkpt><trkpt lat="45.7392554" lon="13.8230191"><ele>282.5</ele><time>2026-04-08T13:54:48.77Z</time></trkpt><trkpt lat="45.7390308" lon="13.8228383"><ele>283.0</ele><time>2026-04-08T13:54:49.762Z</time></trkpt><trkpt lat="45.7388033" lon="13.8226338"><ele>283.5</ele><time>2026-04-08T13:54:50.782Z</time></trkpt><trkpt lat="45.7385773" lon="13.8224262"><ele>284.0</ele><time>2026-04-08T13:54:51.777Z</time></trkpt><trkpt lat="45.738348" lon="13.8222159"><ele>286.0</ele><time>2026-04-08T13:54:52.756Z</time></trkpt><trkpt lat="45.7381208" lon="13.8220088"><ele>288.0</ele><time>2026-04-08T13:54:53.773Z</time></trkpt><trkpt lat="45.7379184" lon="13.821794"><ele>288.0</ele><time>2026-04-08T13:54:54.755Z</time></trkpt><trkpt lat="45.7377441" lon="13.8215505"><ele>288.0</ele><time>2026-04-08T13:54:55.777Z</time></trkpt><trkpt lat="45.7376018" lon="13.8213054"><ele>289.6666666666667</ele><time>2026-04-08T13:54:56.776Z</time></trkpt><trkpt lat="45.7374761" lon="13.8211028"><ele>291.33333333333337</ele><time>2026-04-08T13:54:57.765Z</time></trkpt><trkpt lat="45.7373243" lon="13.8209588"><ele>293.0</ele><time>2026-04-08T13:54:58.772Z</time></trkpt><trkpt lat="45.7371282" lon="13.8208499"><ele>294.0</ele><time>2026-04-08T13:54:59.767Z</time></trkpt><trkpt lat="45.7369204" lon="13.8208196"><ele>295.0</ele><time>2026-04-08T13:55:00.76Z</time></trkpt><trkpt lat="45.7367011" lon="13.8208548"><ele>296.0</ele><time>2026-04-08T13:55:01.774Z</time></trkpt><trkpt lat="45.7364838" lon="13.8209031"><ele>298.0</ele><time>2026-04-08T13:55:02.779Z</time></trkpt><trkpt lat="45.7362555" lon="13.8209381"><ele>300.0</ele><time>2026-04-08T13:55:03.774Z</time></trkpt><trkpt lat="45.73604" lon="13.8209807"><ele>302.0</ele><time>2026-04-08T13:55:04.768Z</time></trkpt><trkpt lat="45.7358694" lon="13.8210267"><ele>302.0</ele><time>2026-04-08T13:55:05.756Z</time></trkpt><trkpt lat="45.7357364" lon="13.8210694"><ele>302.0</ele><time>2026-04-08T13:55:06.756Z</time></trkpt><trkpt lat="45.7356311" lon="13.8211574"><ele>302.0</ele><time>2026-04-08T13:55:07.759Z</time></trkpt><trkpt lat="45.7354659" lon="13.8214991"><ele>302.0</ele><time>2026-04-08T13:55:09.754Z</time></trkpt><trkpt lat="45.735385" lon="13.8216873"><ele>302.0</ele><time>2026-04-08T13:55:10.794Z</time></trkpt><trkpt lat="45.7352513" lon="13.8218263"><ele>302.0</ele><time>2026-04-08T13:55:11.763Z</time></trkpt><trkpt lat="45.7350768" lon="13.821889"><ele>303.6666666666667</ele><time>2026-04-08T13:55:12.763Z</time></trkpt><trkpt lat="45.7348933" lon="13.8219446"><ele>305.3333333333333</ele><time>2026-04-08T13:55:13.764Z</time></trkpt><trkpt lat="45.734704" lon="13.8220083"><ele>307.0</ele><time>2026-04-08T13:55:14.767Z</time></trkpt><trkpt lat="45.7345195" lon="13.8220955"><ele>313.5</ele><time>2026-04-08T13:55:15.765Z</time></trkpt><trkpt lat="45.7343559" lon="13.8222225"><ele>320.0</ele><time>2026-04-08T13:55:16.763Z</time></trkpt><trkpt lat="45.7340896" lon="13.822627"><ele>317.33333333333337</ele><time>2026-04-08T13:55:18.749Z</time></trkpt><trkpt lat="45.7339683" lon="13.8228714"><ele>314.6666666666667</ele><time>2026-04-08T13:55:19.81Z</time></trkpt><trkpt lat="45.7338498" lon="13.8231092"><ele>312.0</ele><time>2026-04-08T13:55:20.759Z</time></trkpt><trkpt lat="45.7337316" lon="13.8233147"><ele>311.6666666666667</ele><time>2026-04-08T13:55:21.748Z</time></trkpt><trkpt lat="45.733627" lon="13.8235024"><ele>311.33333333333337</ele><time>2026-04-08T13:55:22.754Z</time></trkpt><trkpt lat="45.7334887" lon="13.8238333"><ele>311.0</ele><time>2026-04-08T13:55:24.748Z</time></trkpt><trkpt lat="45.7334426" lon="13.8239696"><ele>313.0</ele><time>2026-04-08T13:55:25.766Z</time></trkpt><trkpt lat="45.7333965" lon="13.8240656"><ele>315.0</ele><time>2026-04-08T13:55:26.793Z</time></trkpt><trkpt lat="45.7333496" lon="13.8241429"><ele>317.0</ele><time>2026-04-08T13:55:27.768Z</time></trkpt><trkpt lat="45.7332881" lon="13.8241762"><ele>319.0</ele><time>2026-04-08T13:55:28.755Z</time></trkpt><trkpt lat="45.733225" lon="13.8241661"><ele>321.0</ele><time>2026-04-08T13:55:29.758Z</time></trkpt><trkpt lat="45.7331613" lon="13.8241398"><ele>323.0</ele><time>2026-04-08T13:55:30.758Z</time></trkpt><trkpt lat="45.7331186" lon="13.8240726"><ele>325.0</ele><time>2026-04-08T13:55:31.758Z</time></trkpt><trkpt lat="45.7331032" lon="13.823972"><ele>325.0</ele><time>2026-04-08T13:55:32.757Z</time></trkpt><trkpt lat="45.7331213" lon="13.82388"><ele>325.0</ele><time>2026-04-08T13:55:33.759Z</time></trkpt><trkpt lat="45.7331728" lon="13.8237993"><ele>325.0</ele><time>2026-04-08T13:55:34.759Z</time></trkpt><trkpt lat="45.7332329" lon="13.8237256"><ele>325.0</ele><time>2026-04-08T13:55:35.77Z</time></trkpt><trkpt lat="45.7332931" lon="13.8236657"><ele>325.0</ele><time>2026-04-08T13:55:36.753Z</time></trkpt><trkpt lat="45.7333472" lon="13.8236008"><ele>325.0</ele><time>2026-04-08T13:55:37.761Z</time></trkpt><trkpt lat="45.7334024" lon="13.8235386"><ele>325.0</ele><time>2026-04-08T13:55:38.762Z</time></trkpt><trkpt lat="45.7335045" lon="13.8234256"><ele>323.1428571428571</ele><time>2026-04-08T13:55:40.771Z</time></trkpt><trkpt lat="45.733556" lon="13.823344"><ele>321.28571428571433</ele><time>2026-04-08T13:55:41.769Z</time></trkpt><trkpt lat="45.7335967" lon="13.8232598"><ele>319.42857142857144</ele><time>2026-04-08T13:55:42.755Z</time></trkpt><trkpt lat="45.7336291" lon="13.8231651"><ele>317.57142857142856</ele><time>2026-04-08T13:55:43.757Z</time></trkpt><trkpt lat="45.7336632" lon="13.8230671"><ele>315.71428571428567</ele><time>2026-04-08T13:55:44.76Z</time></trkpt><trkpt lat="45.7336988" lon="13.8229784"><ele>313.8571428571429</ele><time>2026-04-08T13:55:45.772Z</time></trkpt><trkpt lat="45.7337246" lon="13.822888"><ele>312.0</ele><time>2026-04-08T13:55:46.753Z</time></trkpt><trkpt lat="45.7337477" lon="13.8227995"><ele>312.0</ele><time>2026-04-08T13:55:47.764Z</time></trkpt><trkpt lat="45.7337936" lon="13.8226855"><ele>312.0</ele><time>2026-04-08T13:55:48.747Z</time></trkpt><trkpt lat="45.7338704" lon="13.8225213"><ele>312.0</ele><time>2026-04-08T13:55:49.765Z</time></trkpt><trkpt lat="45.7339225" lon="13.8223368"><ele>312.0</ele><time>2026-04-08T13:55:50.761Z</time></trkpt><trkpt lat="45.7339025" lon="13.8221129"><ele>314.6666666666667</ele><time>2026-04-08T13:55:51.764Z</time></trkpt><trkpt lat="45.7339175" lon="13.8219189"><ele>317.33333333333337</ele><time>2026-04-08T13:55:52.766Z</time></trkpt><trkpt lat="45.7339303" lon="13.8217018"><ele>320.0</ele><time>2026-04-08T13:55:53.764Z</time></trkpt><trkpt lat="45.7338838" lon="13.821444"><ele>322.5</ele><time>2026-04-08T13:55:54.757Z</time></trkpt><trkpt lat="45.7337595" lon="13.8211372"><ele>325.0</ele><time>2026-04-08T13:55:55.756Z</time></trkpt><trkpt lat="45.7335116" lon="13.8207124"><ele>331.0</ele><time>2026-04-08T13:55:56.753Z</time></trkpt><trkpt lat="45.7333323" lon="13.8203674"><ele>337.0</ele><time>2026-04-08T13:55:57.755Z</time></trkpt><trkpt lat="45.7331856" lon="13.8201097"><ele>337.3333333333333</ele><time>2026-04-08T13:55:58.758Z</time></trkpt><trkpt lat="45.733029" lon="13.819904"><ele>337.6666666666667</ele><time>2026-04-08T13:55:59.762Z</time></trkpt><trkpt lat="45.7328814" lon="13.8197107"><ele>338.0</ele><time>2026-04-08T13:56:00.819Z</time></trkpt><trkpt lat="45.7327464" lon="13.8194828"><ele>337.6666666666667</ele><time>2026-04-08T13:56:01.779Z</time></trkpt><trkpt lat="45.7326348" lon="13.81926"><ele>337.3333333333333</ele><time>2026-04-08T13:56:02.84Z</time></trkpt><trkpt lat="45.7325444" lon="13.8190201"><ele>337.0</ele><time>2026-04-08T13:56:03.752Z</time></trkpt><trkpt lat="45.7324218" lon="13.8185119"><ele>338.3333333333333</ele><time>2026-04-08T13:56:05.778Z</time></trkpt><trkpt lat="45.7323651" lon="13.8182486"><ele>339.6666666666667</ele><time>2026-04-08T13:56:06.764Z</time></trkpt><trkpt lat="45.7323132" lon="13.8179993"><ele>341.0</ele><time>2026-04-08T13:56:07.76Z</time></trkpt><trkpt lat="45.7322555" lon="13.8177568"><ele>341.6666666666667</ele><time>2026-04-08T13:56:08.749Z</time></trkpt><trkpt lat="45.7321884" lon="13.8175112"><ele>342.3333333333333</ele><time>2026-04-08T13:56:09.753Z</time></trkpt><trkpt lat="45.7320937" lon="13.8172589"><ele>343.0</ele><time>2026-04-08T13:56:10.747Z</time></trkpt><trkpt lat="45.7319822" lon="13.8170058"><ele>335.0</ele><time>2026-04-08T13:56:11.768Z</time></trkpt><trkpt lat="45.7318275" lon="13.8167631"><ele>327.0</ele><time>2026-04-08T13:56:12.763Z</time></trkpt><trkpt lat="45.731638" lon="13.8165281"><ele>327.0</ele><time>2026-04-08T13:56:13.763Z</time></trkpt><trkpt lat="45.7314405" lon="13.816291"><ele>327.0</ele><time>2026-04-08T13:56:14.76Z</time></trkpt><trkpt lat="45.731234" lon="13.8160596"><ele>325.0</ele><time>2026-04-08T13:56:15.758Z</time></trkpt><trkpt lat="45.7310317" lon="13.8158363"><ele>323.0</ele><time>2026-04-08T13:56:16.769Z</time></trkpt><trkpt lat="45.7308355" lon="13.8156141"><ele>323.0</ele><time>2026-04-08T13:56:17.761Z</time></trkpt><trkpt lat="45.7306531" lon="13.8154048"><ele>323.0</ele><time>2026-04-08T13:56:18.759Z</time></trkpt><trkpt lat="45.7304685" lon="13.8152006"><ele>325.5</ele><time>2026-04-08T13:56:19.772Z</time></trkpt><trkpt lat="45.7302788" lon="13.8150032"><ele>328.0</ele><time>2026-04-08T13:56:20.759Z</time></trkpt><trkpt lat="45.7300847" lon="13.8148346"><ele>322.0</ele><time>2026-04-08T13:56:21.752Z</time></trkpt><trkpt lat="45.7298945" lon="13.8147004"><ele>316.0</ele><time>2026-04-08T13:56:22.75Z</time></trkpt><trkpt lat="45.7294981" lon="13.8145219"><ele>314.5</ele><time>2026-04-08T13:56:24.758Z</time></trkpt><trkpt lat="45.7291433" lon="13.8144052"><ele>313.0</ele><time>2026-04-08T13:56:26.757Z</time></trkpt><trkpt lat="45.7289875" lon="13.8143486"><ele>313.25</ele><time>2026-04-08T13:56:27.767Z</time></trkpt><trkpt lat="45.7288412" lon="13.8142916"><ele>313.5</ele><time>2026-04-08T13:56:28.759Z</time></trkpt><trkpt lat="45.7287044" lon="13.8142439"><ele>313.75</ele><time>2026-04-08T13:56:29.772Z</time></trkpt><trkpt lat="45.728573" lon="13.8141942"><ele>314.0</ele><time>2026-04-08T13:56:30.756Z</time></trkpt><trkpt lat="45.728451" lon="13.8141442"><ele>314.4</ele><time>2026-04-08T13:56:31.769Z</time></trkpt><trkpt lat="45.7283385" lon="13.8140941"><ele>314.79999999999995</ele><time>2026-04-08T13:56:32.749Z</time></trkpt><trkpt lat="45.7282367" lon="13.81404"><ele>315.20000000000005</ele><time>2026-04-08T13:56:33.774Z</time></trkpt><trkpt lat="45.7281337" lon="13.8139874"><ele>315.6</ele><time>2026-04-08T13:56:34.768Z</time></trkpt><trkpt lat="45.7280294" lon="13.8139401"><ele>316.0</ele><time>2026-04-08T13:56:35.768Z</time></trkpt><trkpt lat="45.7279251" lon="13.8138921"><ele>316.0</ele><time>2026-04-08T13:56:36.766Z</time></trkpt><trkpt lat="45.7278245" lon="13.8138358"><ele>316.0</ele><time>2026-04-08T13:56:37.759Z</time></trkpt><trkpt lat="45.7277225" lon="13.813787"><ele>316.0</ele><time>2026-04-08T13:56:38.766Z</time></trkpt><trkpt lat="45.7276216" lon="13.8137295"><ele>316.0</ele><time>2026-04-08T13:56:39.767Z</time></trkpt><trkpt lat="45.7275238" lon="13.813679"><ele>316.0</ele><time>2026-04-08T13:56:40.757Z</time></trkpt><trkpt lat="45.7274238" lon="13.8136259"><ele>315.6</ele><time>2026-04-08T13:56:41.749Z</time></trkpt><trkpt lat="45.7273244" lon="13.8135811"><ele>315.20000000000005</ele><time>2026-04-08T13:56:42.75Z</time></trkpt><trkpt lat="45.7272225" lon="13.8135352"><ele>314.79999999999995</ele><time>2026-04-08T13:56:43.765Z</time></trkpt><trkpt lat="45.7271205" lon="13.8134944"><ele>314.4</ele><time>2026-04-08T13:56:44.779Z</time></trkpt><trkpt lat="45.7270159" lon="13.8134514"><ele>314.0</ele><time>2026-04-08T13:56:45.754Z</time></trkpt><trkpt lat="45.7269101" lon="13.8134038"><ele>316.0</ele><time>2026-04-08T13:56:46.769Z</time></trkpt><trkpt lat="45.7268027" lon="13.8133602"><ele>318.0</ele><time>2026-04-08T13:56:47.76Z</time></trkpt><trkpt lat="45.7266918" lon="13.8133143"><ele>320.0</ele><time>2026-04-08T13:56:48.773Z</time></trkpt><trkpt lat="45.7265778" lon="13.8132695"><ele>322.0</ele><time>2026-04-08T13:56:49.763Z</time></trkpt><trkpt lat="45.7264573" lon="13.8132327"><ele>322.0</ele><time>2026-04-08T13:56:50.748Z</time></trkpt><trkpt lat="45.7263358" lon="13.8132035"><ele>322.0</ele><time>2026-04-08T13:56:51.766Z</time></trkpt><trkpt lat="45.7262135" lon="13.8131836"><ele>322.0</ele><time>2026-04-08T13:56:52.773Z</time></trkpt><trkpt lat="45.726085" lon="13.8131874"><ele>322.0</ele><time>2026-04-08T13:56:53.755Z</time></trkpt><trkpt lat="45.7259512" lon="13.8132221"><ele>321.25</ele><time>2026-04-08T13:56:54.761Z</time></trkpt><trkpt lat="45.725815" lon="13.813284"><ele>320.5</ele><time>2026-04-08T13:56:55.78Z</time></trkpt><trkpt lat="45.7256752" lon="13.8133525"><ele>319.75</ele><time>2026-04-08T13:56:56.76Z</time></trkpt><trkpt lat="45.7255288" lon="13.8134214"><ele>319.0</ele><time>2026-04-08T13:56:57.756Z</time></trkpt><trkpt lat="45.7253793" lon="13.8134906"><ele>318.25</ele><time>2026-04-08T13:56:58.758Z</time></trkpt><trkpt lat="45.7252385" lon="13.8135628"><ele>317.5</ele><time>2026-04-08T13:56:59.755Z</time></trkpt><trkpt lat="45.7251149" lon="13.8136555"><ele>316.75</ele><time>2026-04-08T13:57:00.769Z</time></trkpt><trkpt lat="45.7250199" lon="13.8137911"><ele>316.0</ele><time>2026-04-08T13:57:01.752Z</time></trkpt><trkpt lat="45.7249452" lon="13.8139492"><ele>316.0</ele><time>2026-04-08T13:57:02.753Z</time></trkpt><trkpt lat="45.7248804" lon="13.8140903"><ele>316.0</ele><time>2026-04-08T13:57:03.78Z</time></trkpt><trkpt lat="45.7248083" lon="13.8141989"><ele>316.0</ele><time>2026-04-08T13:57:04.777Z</time></trkpt><trkpt lat="45.7247145" lon="13.814265"><ele>316.0</ele><time>2026-04-08T13:57:05.754Z</time></trkpt><trkpt lat="45.7245956" lon="13.8142593"><ele>316.0</ele><time>2026-04-08T13:57:06.746Z</time></trkpt><trkpt lat="45.7244462" lon="13.8142258"><ele>316.3333333333333</ele><time>2026-04-08T13:57:07.767Z</time></trkpt><trkpt lat="45.7242713" lon="13.8141703"><ele>316.6666666666667</ele><time>2026-04-08T13:57:08.749Z</time></trkpt><trkpt lat="45.7240862" lon="13.8141465"><ele>317.0</ele><time>2026-04-08T13:57:09.764Z</time></trkpt><trkpt lat="45.7238773" lon="13.8142045"><ele>317.0</ele><time>2026-04-08T13:57:10.761Z</time></trkpt><trkpt lat="45.7236735" lon="13.8143158"><ele>317.0</ele><time>2026-04-08T13:57:11.749Z</time></trkpt><trkpt lat="45.7234635" lon="13.8144304"><ele>317.0</ele><time>2026-04-08T13:57:12.776Z</time></trkpt><trkpt lat="45.7232461" lon="13.8145601"><ele>318.0</ele><time>2026-04-08T13:57:13.749Z</time></trkpt><trkpt lat="45.7230294" lon="13.8146784"><ele>319.0</ele><time>2026-04-08T13:57:14.754Z</time></trkpt><trkpt lat="45.7228123" lon="13.8147816"><ele>321.66666666666663</ele><time>2026-04-08T13:57:15.748Z</time></trkpt><trkpt lat="45.7225947" lon="13.8148699"><ele>324.3333333333333</ele><time>2026-04-08T13:57:16.752Z</time></trkpt><trkpt lat="45.7223818" lon="13.8149277"><ele>327.0</ele><time>2026-04-08T13:57:17.775Z</time></trkpt><trkpt lat="45.7221863" lon="13.814934"><ele>327.0</ele><time>2026-04-08T13:57:18.746Z</time></trkpt><trkpt lat="45.7220136" lon="13.814892"><ele>327.0</ele><time>2026-04-08T13:57:19.754Z</time></trkpt><trkpt lat="45.7218621" lon="13.8147931"><ele>327.0</ele><time>2026-04-08T13:57:20.782Z</time></trkpt><trkpt lat="45.7217241" lon="13.8146391"><ele>328.0</ele><time>2026-04-08T13:57:21.763Z</time></trkpt><trkpt lat="45.7216024" lon="13.8144455"><ele>329.0</ele><time>2026-04-08T13:57:22.755Z</time></trkpt><trkpt lat="45.7214896" lon="13.814254"><ele>330.0</ele><time>2026-04-08T13:57:23.749Z</time></trkpt><trkpt lat="45.7213842" lon="13.8140621"><ele>330.0</ele><time>2026-04-08T13:57:24.755Z</time></trkpt><trkpt lat="45.7212893" lon="13.8138592"><ele>330.0</ele><time>2026-04-08T13:57:25.747Z</time></trkpt><trkpt lat="45.7212314" lon="13.8136334"><ele>330.0</ele><time>2026-04-08T13:57:26.752Z</time></trkpt><trkpt lat="45.7212135" lon="13.8133823"><ele>330.0</ele><time>2026-04-08T13:57:27.752Z</time></trkpt><trkpt lat="45.7212431" lon="13.8131164"><ele>330.0</ele><time>2026-04-08T13:57:28.755Z</time></trkpt><trkpt lat="45.7212781" lon="13.8128329"><ele>330.0</ele><time>2026-04-08T13:57:29.758Z</time></trkpt><trkpt lat="45.7212912" lon="13.8125799"><ele>330.6666666666667</ele><time>2026-04-08T13:57:30.757Z</time></trkpt><trkpt lat="45.7213007" lon="13.8123421"><ele>331.33333333333337</ele><time>2026-04-08T13:57:31.766Z</time></trkpt><trkpt lat="45.7212819" lon="13.8121019"><ele>332.0</ele><time>2026-04-08T13:57:32.757Z</time></trkpt><trkpt lat="45.7212136" lon="13.8118642"><ele>332.33333333333337</ele><time>2026-04-08T13:57:33.743Z</time></trkpt><trkpt lat="45.7210984" lon="13.8116568"><ele>332.6666666666667</ele><time>2026-04-08T13:57:34.755Z</time></trkpt><trkpt lat="45.7209334" lon="13.8114765"><ele>333.0</ele><time>2026-04-08T13:57:35.751Z</time></trkpt><trkpt lat="45.7207354" lon="13.8113166"><ele>339.5</ele><time>2026-04-08T13:57:36.756Z</time></trkpt><trkpt lat="45.7205096" lon="13.8111742"><ele>346.0</ele><time>2026-04-08T13:57:37.757Z</time></trkpt><trkpt lat="45.7202857" lon="13.811067"><ele>347.3333333333333</ele><time>2026-04-08T13:57:38.763Z</time></trkpt><trkpt lat="45.7200729" lon="13.810993"><ele>348.6666666666667</ele><time>2026-04-08T13:57:39.753Z</time></trkpt><trkpt lat="45.7198771" lon="13.8109709"><ele>350.0</ele><time>2026-04-08T13:57:40.758Z</time></trkpt><trkpt lat="45.7196765" lon="13.8109753"><ele>357.0</ele><time>2026-04-08T13:57:41.75Z</time></trkpt><trkpt lat="45.7194874" lon="13.8109917"><ele>364.0</ele><time>2026-04-08T13:57:42.752Z</time></trkpt><trkpt lat="45.719318" lon="13.8110047"><ele>371.0</ele><time>2026-04-08T13:57:43.739Z</time></trkpt><trkpt lat="45.7191644" lon="13.811009"><ele>371.5</ele><time>2026-04-08T13:57:44.755Z</time></trkpt><trkpt lat="45.7190167" lon="13.8110116"><ele>372.0</ele><time>2026-04-08T13:57:45.756Z</time></trkpt><trkpt lat="45.7188724" lon="13.8110014"><ele>372.5</ele><time>2026-04-08T13:57:46.756Z</time></trkpt><trkpt lat="45.7187263" lon="13.8109969"><ele>373.0</ele><time>2026-04-08T13:57:47.754Z</time></trkpt><trkpt lat="45.7185874" lon="13.8110014"><ele>374.25</ele><time>2026-04-08T13:57:48.738Z</time></trkpt><trkpt lat="45.7184578" lon="13.8109997"><ele>375.5</ele><time>2026-04-08T13:57:49.76Z</time></trkpt><trkpt lat="45.7183281" lon="13.8110017"><ele>376.75</ele><time>2026-04-08T13:57:50.755Z</time></trkpt><trkpt lat="45.7182" lon="13.8110075"><ele>378.0</ele><time>2026-04-08T13:57:51.738Z</time></trkpt><trkpt lat="45.7180719" lon="13.8110147"><ele>378.0</ele><time>2026-04-08T13:57:52.741Z</time></trkpt><trkpt lat="45.7179464" lon="13.8110241"><ele>378.0</ele><time>2026-04-08T13:57:53.744Z</time></trkpt><trkpt lat="45.7178187" lon="13.811031"><ele>378.0</ele><time>2026-04-08T13:57:54.74Z</time></trkpt><trkpt lat="45.7176906" lon="13.8110339"><ele>378.0</ele><time>2026-04-08T13:57:55.751Z</time></trkpt><trkpt lat="45.7175621" lon="13.8110332"><ele>376.4</ele><time>2026-04-08T13:57:56.738Z</time></trkpt><trkpt lat="45.717444" lon="13.8110103"><ele>374.79999999999995</ele><time>2026-04-08T13:57:57.744Z</time></trkpt><trkpt lat="45.7173316" lon="13.8109823"><ele>373.2</ele><time>2026-04-08T13:57:58.768Z</time></trkpt><trkpt lat="45.7172279" lon="13.8109406"><ele>371.6</ele><time>2026-04-08T13:57:59.783Z</time></trkpt><trkpt lat="45.7171322" lon="13.8108899"><ele>370.0</ele><time>2026-04-08T13:58:00.764Z</time></trkpt><trkpt lat="45.71704" lon="13.8108271"><ele>370.0</ele><time>2026-04-08T13:58:01.743Z</time></trkpt><trkpt lat="45.7169529" lon="13.8107594"><ele>370.0</ele><time>2026-04-08T13:58:02.738Z</time></trkpt><trkpt lat="45.7168645" lon="13.8106935"><ele>370.0</ele><time>2026-04-08T13:58:03.756Z</time></trkpt><trkpt lat="45.7167684" lon="13.810614"><ele>370.0</ele><time>2026-04-08T13:58:04.752Z</time></trkpt><trkpt lat="45.7166713" lon="13.8105162"><ele>370.0</ele><time>2026-04-08T13:58:05.757Z</time></trkpt><trkpt lat="45.7165717" lon="13.8104139"><ele>368.5</ele><time>2026-04-08T13:58:06.762Z</time></trkpt><trkpt lat="45.7164801" lon="13.8103103"><ele>367.0</ele><time>2026-04-08T13:58:07.743Z</time></trkpt><trkpt lat="45.7163938" lon="13.8101967"><ele>365.5</ele><time>2026-04-08T13:58:08.749Z</time></trkpt><trkpt lat="45.7163095" lon="13.810077"><ele>364.0</ele><time>2026-04-08T13:58:09.743Z</time></trkpt><trkpt lat="45.716228" lon="13.8099509"><ele>364.0</ele><time>2026-04-08T13:58:10.765Z</time></trkpt><trkpt lat="45.7161514" lon="13.80982"><ele>364.0</ele><time>2026-04-08T13:58:11.748Z</time></trkpt><trkpt lat="45.7160798" lon="13.8096855"><ele>364.0</ele><time>2026-04-08T13:58:12.751Z</time></trkpt><trkpt lat="45.7160106" lon="13.8095467"><ele>364.0</ele><time>2026-04-08T13:58:13.755Z</time></trkpt><trkpt lat="45.7159384" lon="13.809414"><ele>362.25</ele><time>2026-04-08T13:58:14.749Z</time></trkpt><trkpt lat="45.7158615" lon="13.8092914"><ele>360.5</ele><time>2026-04-08T13:58:15.756Z</time></trkpt><trkpt lat="45.7157963" lon="13.8091602"><ele>358.75</ele><time>2026-04-08T13:58:16.753Z</time></trkpt><trkpt lat="45.7157241" lon="13.8090354"><ele>357.0</ele><time>2026-04-08T13:58:17.741Z</time></trkpt><trkpt lat="45.7156409" lon="13.8089109"><ele>357.0</ele><time>2026-04-08T13:58:18.754Z</time></trkpt><trkpt lat="45.7155597" lon="13.8087921"><ele>357.0</ele><time>2026-04-08T13:58:19.752Z</time></trkpt><trkpt lat="45.715475" lon="13.8086863"><ele>357.0</ele><time>2026-04-08T13:58:20.746Z</time></trkpt><trkpt lat="45.7153877" lon="13.8085806"><ele>357.0</ele><time>2026-04-08T13:58:21.743Z</time></trkpt><trkpt lat="45.7152948" lon="13.8085096"><ele>357.0</ele><time>2026-04-08T13:58:22.752Z</time></trkpt><trkpt lat="45.7151867" lon="13.8084507"><ele>356.0</ele><time>2026-04-08T13:58:23.741Z</time></trkpt><trkpt lat="45.7150872" lon="13.8083884"><ele>355.0</ele><time>2026-04-08T13:58:24.741Z</time></trkpt><trkpt lat="45.7149873" lon="13.8083503"><ele>354.0</ele><time>2026-04-08T13:58:25.747Z</time></trkpt><trkpt lat="45.7148902" lon="13.8082929"><ele>353.0</ele><time>2026-04-08T13:58:26.754Z</time></trkpt><trkpt lat="45.7148136" lon="13.8082535"><ele>352.0</ele><time>2026-04-08T13:58:27.748Z</time></trkpt><trkpt lat="45.7147256" lon="13.8082292"><ele>352.0</ele><time>2026-04-08T13:58:29.749Z</time></trkpt><trkpt lat="45.7146489" lon="13.8082196"><ele>352.0</ele><time>2026-04-08T13:58:49.744Z</time></trkpt><trkpt lat="45.7145638" lon="13.8082098"><ele>352.0</ele><time>2026-04-08T13:58:50.757Z</time></trkpt><trkpt lat="45.7144432" lon="13.8082012"><ele>352.0</ele><time>2026-04-08T13:58:51.736Z</time></trkpt><trkpt lat="45.7143112" lon="13.8081971"><ele>352.0</ele><time>2026-04-08T13:58:52.741Z</time></trkpt><trkpt lat="45.714181" lon="13.8081839"><ele>350.25</ele><time>2026-04-08T13:58:53.739Z</time></trkpt><trkpt lat="45.7140433" lon="13.8081624"><ele>348.5</ele><time>2026-04-08T13:58:54.733Z</time></trkpt><trkpt lat="45.7139002" lon="13.8081423"><ele>346.75</ele><time>2026-04-08T13:58:55.75Z</time></trkpt><trkpt lat="45.7137504" lon="13.8081256"><ele>345.0</ele><time>2026-04-08T13:58:56.738Z</time></trkpt><trkpt lat="45.7136053" lon="13.8080891"><ele>342.75</ele><time>2026-04-08T13:58:57.744Z</time></trkpt><trkpt lat="45.7134665" lon="13.8080483"><ele>340.5</ele><time>2026-04-08T13:58:58.737Z</time></trkpt><trkpt lat="45.7133359" lon="13.8080053"><ele>338.25</ele><time>2026-04-08T13:58:59.739Z</time></trkpt><trkpt lat="45.7132088" lon="13.8079571"><ele>336.0</ele><time>2026-04-08T13:59:00.742Z</time></trkpt><trkpt lat="45.7130818" lon="13.8079065"><ele>336.0</ele><time>2026-04-08T13:59:01.731Z</time></trkpt><trkpt lat="45.7129621" lon="13.8078419"><ele>336.0</ele><time>2026-04-08T13:59:02.752Z</time></trkpt><trkpt lat="45.7128515" lon="13.8077699"><ele>336.0</ele><time>2026-04-08T13:59:03.738Z</time></trkpt><trkpt lat="45.7127496" lon="13.8076771"><ele>336.0</ele><time>2026-04-08T13:59:04.767Z</time></trkpt><trkpt lat="45.7126571" lon="13.8075732"><ele>336.5</ele><time>2026-04-08T13:59:05.758Z</time></trkpt><trkpt lat="45.7125669" lon="13.8074536"><ele>337.0</ele><time>2026-04-08T13:59:06.746Z</time></trkpt><trkpt lat="45.7124689" lon="13.8073432"><ele>337.5</ele><time>2026-04-08T13:59:07.748Z</time></trkpt><trkpt lat="45.7123658" lon="13.8072284"><ele>338.0</ele><time>2026-04-08T13:59:08.741Z</time></trkpt><trkpt lat="45.7122569" lon="13.807111"><ele>338.0</ele><time>2026-04-08T13:59:09.757Z</time></trkpt><trkpt lat="45.7121473" lon="13.806985"><ele>338.0</ele><time>2026-04-08T13:59:10.734Z</time></trkpt><trkpt lat="45.7120341" lon="13.8068664"><ele>338.0</ele><time>2026-04-08T13:59:11.735Z</time></trkpt><trkpt lat="45.7119205" lon="13.8067674"><ele>338.0</ele><time>2026-04-08T13:59:12.736Z</time></trkpt><trkpt lat="45.7118058" lon="13.8066772"><ele>335.0</ele><time>2026-04-08T13:59:13.748Z</time></trkpt><trkpt lat="45.7116919" lon="13.8065976"><ele>332.0</ele><time>2026-04-08T13:59:14.733Z</time></trkpt><trkpt lat="45.7115733" lon="13.8065286"><ele>329.0</ele><time>2026-04-08T13:59:15.779Z</time></trkpt><trkpt lat="45.7114507" lon="13.80646"><ele>326.0</ele><time>2026-04-08T13:59:16.751Z</time></trkpt><trkpt lat="45.7113263" lon="13.806381"><ele>326.0</ele><time>2026-04-08T13:59:17.734Z</time></trkpt><trkpt lat="45.7111995" lon="13.8062969"><ele>326.0</ele><time>2026-04-08T13:59:18.744Z</time></trkpt><trkpt lat="45.7110728" lon="13.8062113"><ele>326.0</ele><time>2026-04-08T13:59:19.753Z</time></trkpt><trkpt lat="45.7109431" lon="13.8061167"><ele>326.0</ele><time>2026-04-08T13:59:20.744Z</time></trkpt><trkpt lat="45.7108152" lon="13.8060219"><ele>325.0</ele><time>2026-04-08T13:59:21.747Z</time></trkpt><trkpt lat="45.7106821" lon="13.805937"><ele>324.0</ele><time>2026-04-08T13:59:22.757Z</time></trkpt><trkpt lat="45.7105465" lon="13.8058552"><ele>323.0</ele><time>2026-04-08T13:59:23.739Z</time></trkpt><trkpt lat="45.7104103" lon="13.8057664"><ele>322.0</ele><time>2026-04-08T13:59:24.742Z</time></trkpt><trkpt lat="45.7102738" lon="13.8056779"><ele>320.66666666666663</ele><time>2026-04-08T13:59:25.74Z</time></trkpt><trkpt lat="45.7101367" lon="13.8055918"><ele>319.3333333333333</ele><time>2026-04-08T13:59:26.741Z</time></trkpt><trkpt lat="45.7099977" lon="13.8054992"><ele>318.0</ele><time>2026-04-08T13:59:27.748Z</time></trkpt><trkpt lat="45.709857" lon="13.8054098"><ele>318.0</ele><time>2026-04-08T13:59:28.782Z</time></trkpt><trkpt lat="45.7097133" lon="13.8053151"><ele>318.0</ele><time>2026-04-08T13:59:29.758Z</time></trkpt><trkpt lat="45.7095774" lon="13.8052073"><ele>318.0</ele><time>2026-04-08T13:59:30.747Z</time></trkpt><trkpt lat="45.7094333" lon="13.8050782"><ele>316.6666666666667</ele><time>2026-04-08T13:59:31.744Z</time></trkpt><trkpt lat="45.7092808" lon="13.8049299"><ele>315.33333333333337</ele><time>2026-04-08T13:59:32.753Z</time></trkpt><trkpt lat="45.7091287" lon="13.8047706"><ele>314.0</ele><time>2026-04-08T13:59:33.73Z</time></trkpt><trkpt lat="45.7089757" lon="13.8045966"><ele>314.0</ele><time>2026-04-08T13:59:34.747Z</time></trkpt><trkpt lat="45.7088223" lon="13.8044116"><ele>314.0</ele><time>2026-04-08T13:59:35.761Z</time></trkpt><trkpt lat="45.708675" lon="13.8042088"><ele>314.0</ele><time>2026-04-08T13:59:36.728Z</time></trkpt><trkpt lat="45.708535" lon="13.8039933"><ele>312.5</ele><time>2026-04-08T13:59:37.73Z</time></trkpt><trkpt lat="45.7082556" lon="13.8035625"><ele>311.0</ele><time>2026-04-08T13:59:39.76Z</time></trkpt><trkpt lat="45.7081017" lon="13.8033392"><ele>311.0</ele><time>2026-04-08T13:59:40.744Z</time></trkpt><trkpt lat="45.707946" lon="13.8031036"><ele>311.0</ele><time>2026-04-08T13:59:41.748Z</time></trkpt><trkpt lat="45.7077859" lon="13.8028714"><ele>309.0</ele><time>2026-04-08T13:59:42.74Z</time></trkpt><trkpt lat="45.7076132" lon="13.8026489"><ele>307.0</ele><time>2026-04-08T13:59:43.761Z</time></trkpt><trkpt lat="45.7074095" lon="13.8024418"><ele>307.0</ele><time>2026-04-08T13:59:44.749Z</time></trkpt><trkpt lat="45.7071823" lon="13.8022502"><ele>307.0</ele><time>2026-04-08T13:59:45.744Z</time></trkpt><trkpt lat="45.7069396" lon="13.8020806"><ele>307.0</ele><time>2026-04-08T13:59:46.765Z</time></trkpt><trkpt lat="45.7066817" lon="13.8019294"><ele>307.0</ele><time>2026-04-08T13:59:47.747Z</time></trkpt><trkpt lat="45.706419" lon="13.80179"><ele>307.0</ele><time>2026-04-08T13:59:48.736Z</time></trkpt><trkpt lat="45.7061514" lon="13.8016443"><ele>307.0</ele><time>2026-04-08T13:59:49.727Z</time></trkpt><trkpt lat="45.7058882" lon="13.8015031"><ele>306.0</ele><time>2026-04-08T13:59:50.747Z</time></trkpt><trkpt lat="45.7056377" lon="13.8013605"><ele>305.0</ele><time>2026-04-08T13:59:51.827Z</time></trkpt><trkpt lat="45.7053939" lon="13.8012248"><ele>305.0</ele><time>2026-04-08T13:59:52.749Z</time></trkpt><trkpt lat="45.7051434" lon="13.8011102"><ele>305.0</ele><time>2026-04-08T13:59:53.738Z</time></trkpt><trkpt lat="45.7046182" lon="13.8009352"><ele>305.0</ele><time>2026-04-08T13:59:55.745Z</time></trkpt><trkpt lat="45.704339" lon="13.8008846"><ele>305.0</ele><time>2026-04-08T13:59:56.84Z</time></trkpt><trkpt lat="45.7040658" lon="13.8008373"><ele>305.0</ele><time>2026-04-08T13:59:57.856Z</time></trkpt><trkpt lat="45.7038023" lon="13.800783"><ele>305.0</ele><time>2026-04-08T13:59:58.83Z</time></trkpt><trkpt lat="45.7035504" lon="13.8007452"><ele>305.5</ele><time>2026-04-08T13:59:59.745Z</time></trkpt><trkpt lat="45.7033042" lon="13.800702"><ele>306.0</ele><time>2026-04-08T14:00:00.744Z</time></trkpt><trkpt lat="45.703067" lon="13.8006474"><ele>306.0</ele><time>2026-04-08T14:00:01.736Z</time></trkpt><trkpt lat="45.7028341" lon="13.8005623"><ele>306.0</ele><time>2026-04-08T14:00:02.835Z</time></trkpt><trkpt lat="45.7026008" lon="13.8004468"><ele>306.5</ele><time>2026-04-08T14:00:03.839Z</time></trkpt><trkpt lat="45.7023809" lon="13.8003082"><ele>307.0</ele><time>2026-04-08T14:00:04.838Z</time></trkpt><trkpt lat="45.7021668" lon="13.8001488"><ele>306.5</ele><time>2026-04-08T14:00:05.839Z</time></trkpt><trkpt lat="45.7017881" lon="13.7998203"><ele>306.0</ele><time>2026-04-08T14:00:07.732Z</time></trkpt><trkpt lat="45.7016188" lon="13.7996684"><ele>306.0</ele><time>2026-04-08T14:00:08.753Z</time></trkpt><trkpt lat="45.7014547" lon="13.799524"><ele>306.0</ele><time>2026-04-08T14:00:09.841Z</time></trkpt><trkpt lat="45.7012929" lon="13.7993926"><ele>306.0</ele><time>2026-04-08T14:00:10.843Z</time></trkpt><trkpt lat="45.7011394" lon="13.7992641"><ele>306.0</ele><time>2026-04-08T14:00:11.844Z</time></trkpt><trkpt lat="45.7009866" lon="13.799144"><ele>306.0</ele><time>2026-04-08T14:00:12.836Z</time></trkpt><trkpt lat="45.7008241" lon="13.7990449"><ele>306.0</ele><time>2026-04-08T14:00:13.834Z</time></trkpt><trkpt lat="45.7004739" lon="13.7989189"><ele>306.0</ele><time>2026-04-08T14:00:15.833Z</time></trkpt><trkpt lat="45.7003073" lon="13.7988912"><ele>306.0</ele><time>2026-04-08T14:00:16.825Z</time></trkpt><trkpt lat="45.7001446" lon="13.7988845"><ele>306.0</ele><time>2026-04-08T14:00:17.833Z</time></trkpt><trkpt lat="45.6999925" lon="13.7989098"><ele>306.3333333333333</ele><time>2026-04-08T14:00:18.829Z</time></trkpt><trkpt lat="45.6998488" lon="13.7989632"><ele>306.66666666666663</ele><time>2026-04-08T14:00:19.838Z</time></trkpt><trkpt lat="45.6995623" lon="13.7990928"><ele>307.0</ele><time>2026-04-08T14:00:21.843Z</time></trkpt><trkpt lat="45.6994186" lon="13.7991574"><ele>307.3333333333333</ele><time>2026-04-08T14:00:22.844Z</time></trkpt><trkpt lat="45.6992756" lon="13.7992154"><ele>307.6666666666667</ele><time>2026-04-08T14:00:23.836Z</time></trkpt><trkpt lat="45.6991265" lon="13.7992805"><ele>308.0</ele><time>2026-04-08T14:00:24.835Z</time></trkpt><trkpt lat="45.6989708" lon="13.799362"><ele>308.0</ele><time>2026-04-08T14:00:25.824Z</time></trkpt><trkpt lat="45.698817" lon="13.7994424"><ele>308.0</ele><time>2026-04-08T14:00:26.821Z</time></trkpt><trkpt lat="45.6986691" lon="13.7994397"><ele>308.0</ele><time>2026-04-08T14:00:27.822Z</time></trkpt><trkpt lat="45.698525" lon="13.7993317"><ele>308.0</ele><time>2026-04-08T14:00:28.821Z</time></trkpt><trkpt lat="45.6983843" lon="13.7991715"><ele>308.0</ele><time>2026-04-08T14:00:29.823Z</time></trkpt><trkpt lat="45.698259" lon="13.7989798"><ele>308.0</ele><time>2026-04-08T14:00:30.826Z</time></trkpt><trkpt lat="45.6981298" lon="13.7988191"><ele>308.0</ele><time>2026-04-08T14:00:31.828Z</time></trkpt><trkpt lat="45.697992" lon="13.7987008"><ele>308.0</ele><time>2026-04-08T14:00:32.818Z</time></trkpt><trkpt lat="45.6978413" lon="13.7986618"><ele>308.0</ele><time>2026-04-08T14:00:33.818Z</time></trkpt><trkpt lat="45.6976782" lon="13.7986762"><ele>307.6666666666667</ele><time>2026-04-08T14:00:34.825Z</time></trkpt><trkpt lat="45.6975216" lon="13.7986759"><ele>307.3333333333333</ele><time>2026-04-08T14:00:35.815Z</time></trkpt><trkpt lat="45.6973607" lon="13.7986932"><ele>307.0</ele><time>2026-04-08T14:00:36.835Z</time></trkpt><trkpt lat="45.697178" lon="13.7987218"><ele>307.0</ele><time>2026-04-08T14:00:37.821Z</time></trkpt><trkpt lat="45.6969788" lon="13.798674"><ele>307.0</ele><time>2026-04-08T14:00:38.823Z</time></trkpt><trkpt lat="45.6968002" lon="13.798584"><ele>307.0</ele><time>2026-04-08T14:00:39.819Z</time></trkpt><trkpt lat="45.6966436" lon="13.7984517"><ele>307.66666666666663</ele><time>2026-04-08T14:00:40.836Z</time></trkpt><trkpt lat="45.6964858" lon="13.7982913"><ele>308.3333333333333</ele><time>2026-04-08T14:00:41.826Z</time></trkpt><trkpt lat="45.6963319" lon="13.7981198"><ele>309.0</ele><time>2026-04-08T14:00:42.82Z</time></trkpt><trkpt lat="45.6961706" lon="13.7979438"><ele>309.3333333333333</ele><time>2026-04-08T14:00:43.818Z</time></trkpt><trkpt lat="45.6960001" lon="13.7977609"><ele>309.66666666666663</ele><time>2026-04-08T14:00:44.824Z</time></trkpt><trkpt lat="45.6958238" lon="13.7975725"><ele>310.0</ele><time>2026-04-08T14:00:45.824Z</time></trkpt><trkpt lat="45.6956527" lon="13.7973883"><ele>311.0</ele><time>2026-04-08T14:00:46.835Z</time></trkpt><trkpt lat="45.6954838" lon="13.7972037"><ele>312.0</ele><time>2026-04-08T14:00:47.828Z</time></trkpt><trkpt lat="45.69532" lon="13.7970151"><ele>313.0</ele><time>2026-04-08T14:00:48.82Z</time></trkpt><trkpt lat="45.6951603" lon="13.7968354"><ele>317.5</ele><time>2026-04-08T14:00:49.844Z</time></trkpt><trkpt lat="45.6949021" lon="13.796558"><ele>322.0</ele><time>2026-04-08T14:00:51.829Z</time></trkpt><trkpt lat="45.6947919" lon="13.7964311"><ele>322.0</ele><time>2026-04-08T14:00:52.821Z</time></trkpt><trkpt lat="45.6946874" lon="13.7963164"><ele>322.0</ele><time>2026-04-08T14:00:53.833Z</time></trkpt><trkpt lat="45.6945838" lon="13.7962095"><ele>322.0</ele><time>2026-04-08T14:00:54.829Z</time></trkpt><trkpt lat="45.6944803" lon="13.7960984"><ele>322.0</ele><time>2026-04-08T14:00:55.835Z</time></trkpt><trkpt lat="45.694375" lon="13.7959896"><ele>321.5</ele><time>2026-04-08T14:00:56.822Z</time></trkpt><trkpt lat="45.6942644" lon="13.7958777"><ele>321.0</ele><time>2026-04-08T14:00:57.826Z</time></trkpt><trkpt lat="45.6941518" lon="13.795772"><ele>320.5</ele><time>2026-04-08T14:00:58.816Z</time></trkpt><trkpt lat="45.6940339" lon="13.7956701"><ele>320.0</ele><time>2026-04-08T14:00:59.823Z</time></trkpt><trkpt lat="45.6939105" lon="13.7955794"><ele>320.0</ele><time>2026-04-08T14:01:00.847Z</time></trkpt><trkpt lat="45.6937875" lon="13.7955001"><ele>320.0</ele><time>2026-04-08T14:01:01.835Z</time></trkpt><trkpt lat="45.6936625" lon="13.7954369"><ele>320.0</ele><time>2026-04-08T14:01:02.828Z</time></trkpt><trkpt lat="45.6935377" lon="13.7953842"><ele>320.0</ele><time>2026-04-08T14:01:03.828Z</time></trkpt><trkpt lat="45.6934107" lon="13.7953415"><ele>320.75</ele><time>2026-04-08T14:01:04.819Z</time></trkpt><trkpt lat="45.6932813" lon="13.7953036"><ele>321.5</ele><time>2026-04-08T14:01:05.838Z</time></trkpt><trkpt lat="45.6931514" lon="13.7952695"><ele>322.25</ele><time>2026-04-08T14:01:06.822Z</time></trkpt><trkpt lat="45.6930212" lon="13.7952341"><ele>323.0</ele><time>2026-04-08T14:01:07.825Z</time></trkpt><trkpt lat="45.6928911" lon="13.7952092"><ele>323.0</ele><time>2026-04-08T14:01:08.821Z</time></trkpt><trkpt lat="45.6927632" lon="13.7951856"><ele>323.0</ele><time>2026-04-08T14:01:09.822Z</time></trkpt><trkpt lat="45.6926327" lon="13.7951619"><ele>323.0</ele><time>2026-04-08T14:01:10.816Z</time></trkpt><trkpt lat="45.6925025" lon="13.7951341"><ele>323.0</ele><time>2026-04-08T14:01:11.828Z</time></trkpt><trkpt lat="45.6923734" lon="13.7951111"><ele>323.0</ele><time>2026-04-08T14:01:12.85Z</time></trkpt><trkpt lat="45.6922461" lon="13.7950905"><ele>323.0</ele><time>2026-04-08T14:01:13.821Z</time></trkpt><trkpt lat="45.6921225" lon="13.7950741"><ele>323.0</ele><time>2026-04-08T14:01:14.822Z</time></trkpt><trkpt lat="45.6919984" lon="13.7950577"><ele>323.0</ele><time>2026-04-08T14:01:15.824Z</time></trkpt><trkpt lat="45.6918767" lon="13.7950388"><ele>322.75</ele><time>2026-04-08T14:01:16.812Z</time></trkpt><trkpt lat="45.6917501" lon="13.7950196"><ele>322.5</ele><time>2026-04-08T14:01:17.815Z</time></trkpt><trkpt lat="45.6916246" lon="13.7949994"><ele>322.25</ele><time>2026-04-08T14:01:18.831Z</time></trkpt><trkpt lat="45.6914996" lon="13.7949779"><ele>322.0</ele><time>2026-04-08T14:01:19.821Z</time></trkpt><trkpt lat="45.6913726" lon="13.7949608"><ele>322.0</ele><time>2026-04-08T14:01:20.831Z</time></trkpt><trkpt lat="45.6912494" lon="13.7949442"><ele>322.0</ele><time>2026-04-08T14:01:21.827Z</time></trkpt><trkpt lat="45.6911262" lon="13.794928"><ele>322.0</ele><time>2026-04-08T14:01:22.817Z</time></trkpt><trkpt lat="45.6910031" lon="13.7949193"><ele>322.0</ele><time>2026-04-08T14:01:23.826Z</time></trkpt><trkpt lat="45.6908812" lon="13.794917"><ele>322.0</ele><time>2026-04-08T14:01:24.828Z</time></trkpt><trkpt lat="45.6907588" lon="13.7949264"><ele>322.0</ele><time>2026-04-08T14:01:25.828Z</time></trkpt><trkpt lat="45.6906393" lon="13.7949371"><ele>322.0</ele><time>2026-04-08T14:01:26.817Z</time></trkpt><trkpt lat="45.6905224" lon="13.7949541"><ele>322.0</ele><time>2026-04-08T14:01:27.827Z</time></trkpt><trkpt lat="45.6904056" lon="13.7949661"><ele>322.0</ele><time>2026-04-08T14:01:28.82Z</time></trkpt><trkpt lat="45.6902905" lon="13.7949788"><ele>322.0</ele><time>2026-04-08T14:01:29.826Z</time></trkpt><trkpt lat="45.6901722" lon="13.7949987"><ele>322.0</ele><time>2026-04-08T14:01:30.846Z</time></trkpt><trkpt lat="45.6900536" lon="13.7950179"><ele>322.0</ele><time>2026-04-08T14:01:31.823Z</time></trkpt><trkpt lat="45.6899329" lon="13.7950369"><ele>321.40000000000003</ele><time>2026-04-08T14:01:32.818Z</time></trkpt><trkpt lat="45.6898181" lon="13.7950531"><ele>320.8</ele><time>2026-04-08T14:01:33.833Z</time></trkpt><trkpt lat="45.6897072" lon="13.7950678"><ele>320.2</ele><time>2026-04-08T14:01:34.817Z</time></trkpt><trkpt lat="45.6896078" lon="13.7950811"><ele>319.6</ele><time>2026-04-08T14:01:35.814Z</time></trkpt><trkpt lat="45.6895164" lon="13.7950855"><ele>319.0</ele><time>2026-04-08T14:01:36.825Z</time></trkpt><trkpt lat="45.6894321" lon="13.7950818"><ele>319.2</ele><time>2026-04-08T14:01:37.82Z</time></trkpt><trkpt lat="45.689363" lon="13.7950691"><ele>319.4</ele><time>2026-04-08T14:01:38.826Z</time></trkpt><trkpt lat="45.6892982" lon="13.7950338"><ele>319.6</ele><time>2026-04-08T14:01:40.809Z</time></trkpt><trkpt lat="45.6892784" lon="13.7949293"><ele>319.8</ele><time>2026-04-08T14:01:49.82Z</time></trkpt><trkpt lat="45.6892833" lon="13.7947388"><ele>320.0</ele><time>2026-04-08T14:01:51.816Z</time></trkpt><trkpt lat="45.689266" lon="13.7945772"><ele>320.0</ele><time>2026-04-08T14:01:52.815Z</time></trkpt><trkpt lat="45.6892247" lon="13.7943881"><ele>320.0</ele><time>2026-04-08T14:01:53.821Z</time></trkpt><trkpt lat="45.6891794" lon="13.7941919"><ele>320.0</ele><time>2026-04-08T14:01:54.827Z</time></trkpt><trkpt lat="45.6891424" lon="13.7940113"><ele>320.0</ele><time>2026-04-08T14:01:55.827Z</time></trkpt><trkpt lat="45.6891021" lon="13.7938433"><ele>319.8</ele><time>2026-04-08T14:01:56.826Z</time></trkpt><trkpt lat="45.689064" lon="13.7936964"><ele>319.6</ele><time>2026-04-08T14:01:57.819Z</time></trkpt><trkpt lat="45.6890343" lon="13.7935638"><ele>319.4</ele><time>2026-04-08T14:01:58.826Z</time></trkpt><trkpt lat="45.6890064" lon="13.7934465"><ele>319.2</ele><time>2026-04-08T14:01:59.826Z</time></trkpt><trkpt lat="45.6889762" lon="13.7933323"><ele>319.0</ele><time>2026-04-08T14:02:00.822Z</time></trkpt><trkpt lat="45.6889545" lon="13.7932285"><ele>318.66666666666663</ele><time>2026-04-08T14:02:01.839Z</time></trkpt><trkpt lat="45.6889346" lon="13.7931413"><ele>318.3333333333333</ele><time>2026-04-08T14:02:02.817Z</time></trkpt><trkpt lat="45.6888987" lon="13.7929678"><ele>318.0</ele><time>2026-04-08T14:02:04.82Z</time></trkpt><trkpt lat="45.6888671" lon="13.7928617"><ele>317.6666666666667</ele><time>2026-04-08T14:02:05.823Z</time></trkpt><trkpt lat="45.688838" lon="13.7927597"><ele>317.33333333333337</ele><time>2026-04-08T14:02:06.823Z</time></trkpt><trkpt lat="45.6888097" lon="13.7926727"><ele>317.0</ele><time>2026-04-08T14:02:07.823Z</time></trkpt><trkpt lat="45.6887689" lon="13.7925224"><ele>317.0</ele><time>2026-04-08T14:02:09.818Z</time></trkpt><trkpt lat="45.6887237" lon="13.7923897"><ele>317.0</ele><time>2026-04-08T14:02:11.817Z</time></trkpt><trkpt lat="45.6886642" lon="13.7922109"><ele>317.0</ele><time>2026-04-08T14:02:13.829Z</time></trkpt><trkpt lat="45.6886249" lon="13.7920572"><ele>317.0</ele><time>2026-04-08T14:02:14.814Z</time></trkpt><trkpt lat="45.6885932" lon="13.7918981"><ele>318.0</ele><time>2026-04-08T14:02:15.828Z</time></trkpt><trkpt lat="45.6885518" lon="13.7917531"><ele>319.0</ele><time>2026-04-08T14:02:16.841Z</time></trkpt><trkpt lat="45.6885221" lon="13.7916476"><ele>320.0</ele><time>2026-04-08T14:02:17.813Z</time></trkpt><trkpt lat="45.6884893" lon="13.7914628"><ele>321.0</ele><time>2026-04-08T14:02:19.809Z</time></trkpt><trkpt lat="45.6884703" lon="13.7913526"><ele>322.0</ele><time>2026-04-08T14:02:20.815Z</time></trkpt><trkpt lat="45.6884578" lon="13.7912324"><ele>322.0</ele><time>2026-04-08T14:02:21.82Z</time></trkpt><trkpt lat="45.6884378" lon="13.791119"><ele>322.0</ele><time>2026-04-08T14:02:22.816Z</time></trkpt><trkpt lat="45.688422" lon="13.7909948"><ele>322.0</ele><time>2026-04-08T14:02:23.814Z</time></trkpt><trkpt lat="45.6884008" lon="13.790862"><ele>322.0</ele><time>2026-04-08T14:02:24.813Z</time></trkpt><trkpt lat="45.6883703" lon="13.7907498"><ele>322.0</ele><time>2026-04-08T14:02:25.818Z</time></trkpt><trkpt lat="45.6883546" lon="13.7906564"><ele>322.0</ele><time>2026-04-08T14:02:26.812Z</time></trkpt><trkpt lat="45.6883357" lon="13.790567"><ele>321.8333333333333</ele><time>2026-04-08T14:02:27.811Z</time></trkpt><trkpt lat="45.6883135" lon="13.7904627"><ele>321.66666666666663</ele><time>2026-04-08T14:02:28.811Z</time></trkpt><trkpt lat="45.6882926" lon="13.7903558"><ele>321.5</ele><time>2026-04-08T14:02:29.814Z</time></trkpt><trkpt lat="45.6882769" lon="13.7902461"><ele>321.3333333333333</ele><time>2026-04-08T14:02:30.808Z</time></trkpt><trkpt lat="45.6882599" lon="13.790129"><ele>321.1666666666667</ele><time>2026-04-08T14:02:31.815Z</time></trkpt><trkpt lat="45.688245" lon="13.7900335"><ele>321.0</ele><time>2026-04-08T14:02:32.808Z</time></trkpt><trkpt lat="45.6882035" lon="13.7899176"><ele>321.20000000000005</ele><time>2026-04-08T14:02:34.82Z</time></trkpt><trkpt lat="45.6881849" lon="13.7898291"><ele>321.40000000000003</ele><time>2026-04-08T14:02:36.814Z</time></trkpt><trkpt lat="45.6881468" lon="13.7896841"><ele>321.6</ele><time>2026-04-08T14:02:38.819Z</time></trkpt><trkpt lat="45.6881105" lon="13.7895083"><ele>321.8</ele><time>2026-04-08T14:02:40.808Z</time></trkpt><trkpt lat="45.6880927" lon="13.7894075"><ele>322.0</ele><time>2026-04-08T14:02:41.809Z</time></trkpt><trkpt lat="45.6880707" lon="13.7893013"><ele>322.0</ele><time>2026-04-08T14:02:42.811Z</time></trkpt><trkpt lat="45.6880442" lon="13.7892018"><ele>322.0</ele><time>2026-04-08T14:02:43.819Z</time></trkpt><trkpt lat="45.6880141" lon="13.7891143"><ele>322.0</ele><time>2026-04-08T14:02:44.822Z</time></trkpt><trkpt lat="45.6879774" lon="13.7890314"><ele>322.0</ele><time>2026-04-08T14:02:45.806Z</time></trkpt><trkpt lat="45.6879188" lon="13.7889024"><ele>322.0</ele><time>2026-04-08T14:02:47.817Z</time></trkpt><trkpt lat="45.6879036" lon="13.7887577"><ele>322.0</ele><time>2026-04-08T14:02:49.802Z</time></trkpt><trkpt lat="45.6878548" lon="13.7886195"><ele>322.0</ele><time>2026-04-08T14:02:51.83Z</time></trkpt><trkpt lat="45.6877834" lon="13.7885698"><ele>322.0</ele><time>2026-04-08T14:02:52.818Z</time></trkpt><trkpt lat="45.6876876" lon="13.7885294"><ele>322.0</ele><time>2026-04-08T14:02:53.82Z</time></trkpt><trkpt lat="45.6875947" lon="13.7884834"><ele>322.0</ele><time>2026-04-08T14:02:54.825Z</time></trkpt><trkpt lat="45.6875109" lon="13.7884175"><ele>322.0</ele><time>2026-04-08T14:02:55.806Z</time></trkpt><trkpt lat="45.6874269" lon="13.7883467"><ele>322.6</ele><time>2026-04-08T14:02:56.813Z</time></trkpt><trkpt lat="45.6873511" lon="13.7882771"><ele>323.20000000000005</ele><time>2026-04-08T14:02:57.809Z</time></trkpt><trkpt lat="45.6872747" lon="13.7882093"><ele>323.8</ele><time>2026-04-08T14:02:58.827Z</time></trkpt><trkpt lat="45.6871928" lon="13.7881401"><ele>324.4</ele><time>2026-04-08T14:02:59.811Z</time></trkpt><trkpt lat="45.6871097" lon="13.7880792"><ele>325.0</ele><time>2026-04-08T14:03:00.816Z</time></trkpt><trkpt lat="45.6869585" lon="13.787946"><ele>325.5</ele><time>2026-04-08T14:03:02.821Z</time></trkpt><trkpt lat="45.6868833" lon="13.7878758"><ele>326.0</ele><time>2026-04-08T14:03:03.807Z</time></trkpt><trkpt lat="45.6868098" lon="13.7877989"><ele>326.5</ele><time>2026-04-08T14:03:04.804Z</time></trkpt><trkpt lat="45.6867448" lon="13.7877185"><ele>327.0</ele><time>2026-04-08T14:03:05.804Z</time></trkpt><trkpt lat="45.6866993" lon="13.7876462"><ele>327.5</ele><time>2026-04-08T14:03:06.82Z</time></trkpt><trkpt lat="45.6866484" lon="13.7875571"><ele>328.0</ele><time>2026-04-08T14:03:08.816Z</time></trkpt><trkpt lat="45.6865889" lon="13.7874821"><ele>328.0</ele><time>2026-04-08T14:03:11.807Z</time></trkpt><trkpt lat="45.6865506" lon="13.7873928"><ele>328.0</ele><time>2026-04-08T14:03:13.814Z</time></trkpt><trkpt lat="45.6864637" lon="13.787269"><ele>328.0</ele><time>2026-04-08T14:03:15.8Z</time></trkpt><trkpt lat="45.686407" lon="13.7871984"><ele>328.0</ele><time>2026-04-08T14:03:16.815Z</time></trkpt><trkpt lat="45.6863418" lon="13.7871153"><ele>328.0</ele><time>2026-04-08T14:03:17.804Z</time></trkpt><trkpt lat="45.6862843" lon="13.7870328"><ele>328.0</ele><time>2026-04-08T14:03:18.814Z</time></trkpt><trkpt lat="45.6862287" lon="13.7869497"><ele>328.0</ele><time>2026-04-08T14:03:19.805Z</time></trkpt><trkpt lat="45.6861714" lon="13.7868633"><ele>328.0</ele><time>2026-04-08T14:03:20.812Z</time></trkpt><trkpt lat="45.6861109" lon="13.7867723"><ele>328.0</ele><time>2026-04-08T14:03:21.814Z</time></trkpt><trkpt lat="45.6860454" lon="13.7866713"><ele>328.0</ele><time>2026-04-08T14:03:22.825Z</time></trkpt><trkpt lat="45.6859716" lon="13.7865621"><ele>328.0</ele><time>2026-04-08T14:03:23.814Z</time></trkpt><trkpt lat="45.6858961" lon="13.7864494"><ele>328.59999999999997</ele><time>2026-04-08T14:03:24.824Z</time></trkpt><trkpt lat="45.6858226" lon="13.7863427"><ele>329.2</ele><time>2026-04-08T14:03:25.816Z</time></trkpt><trkpt lat="45.6857446" lon="13.7862344"><ele>329.8</ele><time>2026-04-08T14:03:26.813Z</time></trkpt><trkpt lat="45.685667" lon="13.7861246"><ele>330.4</ele><time>2026-04-08T14:03:27.804Z</time></trkpt><trkpt lat="45.6855865" lon="13.7860124"><ele>331.0</ele><time>2026-04-08T14:03:28.818Z</time></trkpt><trkpt lat="45.685511" lon="13.7859004"><ele>331.4</ele><time>2026-04-08T14:03:29.824Z</time></trkpt><trkpt lat="45.6854343" lon="13.7857869"><ele>331.8</ele><time>2026-04-08T14:03:30.811Z</time></trkpt><trkpt lat="45.6853605" lon="13.7856777"><ele>332.2</ele><time>2026-04-08T14:03:31.805Z</time></trkpt><trkpt lat="45.6852902" lon="13.7855758"><ele>332.59999999999997</ele><time>2026-04-08T14:03:32.816Z</time></trkpt><trkpt lat="45.685223" lon="13.7854786"><ele>333.0</ele><time>2026-04-08T14:03:33.801Z</time></trkpt><trkpt lat="45.6851542" lon="13.7853779"><ele>333.4</ele><time>2026-04-08T14:03:34.816Z</time></trkpt><trkpt lat="45.685087" lon="13.7852835"><ele>333.79999999999995</ele><time>2026-04-08T14:03:35.802Z</time></trkpt><trkpt lat="45.6850145" lon="13.7851821"><ele>334.2</ele><time>2026-04-08T14:03:36.809Z</time></trkpt><trkpt lat="45.6849366" lon="13.7850799"><ele>334.6</ele><time>2026-04-08T14:03:37.823Z</time></trkpt><trkpt lat="45.684858" lon="13.7849855"><ele>335.0</ele><time>2026-04-08T14:03:38.815Z</time></trkpt><trkpt lat="45.6847727" lon="13.7848858"><ele>335.0</ele><time>2026-04-08T14:03:39.815Z</time></trkpt><trkpt lat="45.6846859" lon="13.7847873"><ele>335.0</ele><time>2026-04-08T14:03:40.81Z</time></trkpt><trkpt lat="45.6845985" lon="13.7846868"><ele>335.0</ele><time>2026-04-08T14:03:41.803Z</time></trkpt><trkpt lat="45.6845054" lon="13.7845882"><ele>335.0</ele><time>2026-04-08T14:03:42.811Z</time></trkpt><trkpt lat="45.6844064" lon="13.7844884"><ele>335.5</ele><time>2026-04-08T14:03:43.816Z</time></trkpt><trkpt lat="45.6843067" lon="13.78439"><ele>336.0</ele><time>2026-04-08T14:03:44.821Z</time></trkpt><trkpt lat="45.6842086" lon="13.7842921"><ele>336.5</ele><time>2026-04-08T14:03:45.818Z</time></trkpt><trkpt lat="45.6841116" lon="13.7842004"><ele>337.0</ele><time>2026-04-08T14:03:46.83Z</time></trkpt><trkpt lat="45.6840181" lon="13.784114"><ele>337.0</ele><time>2026-04-08T14:03:47.812Z</time></trkpt><trkpt lat="45.6839289" lon="13.7840371"><ele>337.0</ele><time>2026-04-08T14:03:48.829Z</time></trkpt><trkpt lat="45.6838424" lon="13.7839655"><ele>337.0</ele><time>2026-04-08T14:03:49.824Z</time></trkpt><trkpt lat="45.6837588" lon="13.7838947"><ele>337.0</ele><time>2026-04-08T14:03:50.817Z</time></trkpt><trkpt lat="45.6836747" lon="13.7838259"><ele>337.0</ele><time>2026-04-08T14:03:51.809Z</time></trkpt><trkpt lat="45.6835929" lon="13.7837627"><ele>337.0</ele><time>2026-04-08T14:03:52.806Z</time></trkpt><trkpt lat="45.6835185" lon="13.7837037"><ele>337.0</ele><time>2026-04-08T14:03:53.823Z</time></trkpt><trkpt lat="45.6834582" lon="13.7836581"><ele>337.0</ele><time>2026-04-08T14:03:54.816Z</time></trkpt><trkpt lat="45.6834013" lon="13.7836111"><ele>337.0</ele><time>2026-04-08T14:03:55.803Z</time></trkpt><trkpt lat="45.6833553" lon="13.783549"><ele>337.0</ele><time>2026-04-08T14:03:56.811Z</time></trkpt><trkpt lat="45.6833223" lon="13.783471"><ele>337.0</ele><time>2026-04-08T14:03:58.82Z</time></trkpt><trkpt lat="45.7051434" lon="13.8011102"><ele>305.0</ele><time>2026-04-08T13:59:53.738Z</time></trkpt><trkpt lat="45.7046182" lon="13.8009352"><ele>305.0</ele><time>2026-04-08T13:59:55.745Z</time></trkpt><trkpt lat="45.704339" lon="13.8008846"><ele>305.0</ele><time>2026-04-08T13:59:56.84Z</time></trkpt><trkpt lat="45.7040658" lon="13.8008373"><ele>305.0</ele><time>2026-04-08T13:59:57.856Z</time></trkpt><trkpt lat="45.7038023" lon="13.800783"><ele>305.0</ele><time>2026-04-08T13:59:58.83Z</time></trkpt><trkpt lat="45.7035504" lon="13.8007452"><ele>305.5</ele><time>2026-04-08T13:59:59.745Z</time></trkpt><trkpt lat="45.7033042" lon="13.800702"><ele>306.0</ele><time>2026-04-08T14:00:00.744Z</time></trkpt><trkpt lat="45.703067" lon="13.8006474"><ele>306.0</ele><time>2026-04-08T14:00:01.736Z</time></trkpt><trkpt lat="45.7028341" lon="13.8005623"><ele>306.0</ele><time>2026-04-08T14:00:02.835Z</time></trkpt><trkpt lat="45.7026008" lon="13.8004468"><ele>306.5</ele><time>2026-04-08T14:00:03.839Z</time></trkpt><trkpt lat="45.7023809" lon="13.8003082"><ele>307.0</ele><time>2026-04-08T14:00:04.838Z</time></trkpt><trkpt lat="45.7021668" lon="13.8001488"><ele>306.5</ele><time>2026-04-08T14:00:05.839Z</time></trkpt><trkpt lat="45.7017881" lon="13.7998203"><ele>306.0</ele><time>2026-04-08T14:00:07.732Z</time></trkpt><trkpt lat="45.7016188" lon="13.7996684"><ele>306.0</ele><time>2026-04-08T14:00:08.753Z</time></trkpt><trkpt lat="45.7014547" lon="13.799524"><ele>306.0</ele><time>2026-04-08T14:00:09.841Z</time></trkpt><trkpt lat="45.7012929" lon="13.7993926"><ele>306.0</ele><time>2026-04-08T14:00:10.843Z</time></trkpt><trkpt lat="45.7011394" lon="13.7992641"><ele>306.0</ele><time>2026-04-08T14:00:11.844Z</time></trkpt><trkpt lat="45.7009866" lon="13.799144"><ele>306.0</ele><time>2026-04-08T14:00:12.836Z</time></trkpt><trkpt lat="45.7008241" lon="13.7990449"><ele>306.0</ele><time>2026-04-08T14:00:13.834Z</time></trkpt><trkpt lat="45.7004739" lon="13.7989189"><ele>306.0</ele><time>2026-04-08T14:00:15.833Z</time></trkpt><trkpt lat="45.7003073" lon="13.7988912"><ele>306.0</ele><time>2026-04-08T14:00:16.825Z</time></trkpt><trkpt lat="45.7001446" lon="13.7988845"><ele>306.0</ele><time>2026-04-08T14:00:17.833Z</time></trkpt><trkpt lat="45.6999925" lon="13.7989098"><ele>306.3333333333333</ele><time>2026-04-08T14:00:18.829Z</time></trkpt><trkpt lat="45.6998488" lon="13.7989632"><ele>306.66666666666663</ele><time>2026-04-08T14:00:19.838Z</time></trkpt><trkpt lat="45.6995623" lon="13.7990928"><ele>307.0</ele><time>2026-04-08T14:00:21.843Z</time></trkpt><trkpt lat="45.6994186" lon="13.7991574"><ele>307.3333333333333</ele><time>2026-04-08T14:00:22.844Z</time></trkpt><trkpt lat="45.6992756" lon="13.7992154"><ele>307.6666666666667</ele><time>2026-04-08T14:00:23.836Z</time></trkpt><trkpt lat="45.6991265" lon="13.7992805"><ele>308.0</ele><time>2026-04-08T14:00:24.835Z</time></trkpt><trkpt lat="45.6989708" lon="13.799362"><ele>308.0</ele><time>2026-04-08T14:00:25.824Z</time></trkpt><trkpt lat="45.698817" lon="13.7994424"><ele>308.0</ele><time>2026-04-08T14:00:26.821Z</time></trkpt><trkpt lat="45.6986691" lon="13.7994397"><ele>308.0</ele><time>2026-04-08T14:00:27.822Z</time></trkpt><trkpt lat="45.698525" lon="13.7993317"><ele>308.0</ele><time>2026-04-08T14:00:28.821Z</time></trkpt><trkpt lat="45.6983843" lon="13.7991715"><ele>308.0</ele><time>2026-04-08T14:00:29.823Z</time></trkpt><trkpt lat="45.698259" lon="13.7989798"><ele>308.0</ele><time>2026-04-08T14:00:30.826Z</time></trkpt><trkpt lat="45.6981298" lon="13.7988191"><ele>308.0</ele><time>2026-04-08T14:00:31.828Z</time></trkpt><trkpt lat="45.697992" lon="13.7987008"><ele>308.0</ele><time>2026-04-08T14:00:32.818Z</time></trkpt><trkpt lat="45.6978413" lon="13.7986618"><ele>308.0</ele><time>2026-04-08T14:00:33.818Z</time></trkpt><trkpt lat="45.6976782" lon="13.7986762"><ele>307.6666666666667</ele><time>2026-04-08T14:00:34.825Z</time></trkpt><trkpt lat="45.6975216" lon="13.7986759"><ele>307.3333333333333</ele><time>2026-04-08T14:00:35.815Z</time></trkpt><trkpt lat="45.6973607" lon="13.7986932"><ele>307.0</ele><time>2026-04-08T14:00:36.835Z</time></trkpt><trkpt lat="45.697178" lon="13.7987218"><ele>307.0</ele><time>2026-04-08T14:00:37.821Z</time></trkpt><trkpt lat="45.6969788" lon="13.798674"><ele>307.0</ele><time>2026-04-08T14:00:38.823Z</time></trkpt><trkpt lat="45.6968002" lon="13.798584"><ele>307.0</ele><time>2026-04-08T14:00:39.819Z</time></trkpt><trkpt lat="45.6966436" lon="13.7984517"><ele>307.66666666666663</ele><time>2026-04-08T14:00:40.836Z</time></trkpt><trkpt lat="45.6964858" lon="13.7982913"><ele>308.3333333333333</ele><time>2026-04-08T14:00:41.826Z</time></trkpt><trkpt lat="45.6963319" lon="13.7981198"><ele>309.0</ele><time>2026-04-08T14:00:42.82Z</time></trkpt><trkpt lat="45.6961706" lon="13.7979438"><ele>309.3333333333333</ele><time>2026-04-08T14:00:43.818Z</time></trkpt><trkpt lat="45.6960001" lon="13.7977609"><ele>309.66666666666663</ele><time>2026-04-08T14:00:44.824Z</time></trkpt><trkpt lat="45.6958238" lon="13.7975725"><ele>310.0</ele><time>2026-04-08T14:00:45.824Z</time></trkpt><trkpt lat="45.6956527" lon="13.7973883"><ele>311.0</ele><time>2026-04-08T14:00:46.835Z</time></trkpt><trkpt lat="45.6954838" lon="13.7972037"><ele>312.0</ele><time>2026-04-08T14:00:47.828Z</time></trkpt><trkpt lat="45.69532" lon="13.7970151"><ele>313.0</ele><time>2026-04-08T14:00:48.82Z</time></trkpt><trkpt lat="45.6951603" lon="13.7968354"><ele>317.5</ele><time>2026-04-08T14:00:49.844Z</time></trkpt><trkpt lat="45.6949021" lon="13.796558"><ele>322.0</ele><time>2026-04-08T14:00:51.829Z</time></trkpt><trkpt lat="45.6947919" lon="13.7964311"><ele>322.0</ele><time>2026-04-08T14:00:52.821Z</time></trkpt><trkpt lat="45.6946874" lon="13.7963164"><ele>322.0</ele><time>2026-04-08T14:00:53.833Z</time></trkpt><trkpt lat="45.6945838" lon="13.7962095"><ele>322.0</ele><time>2026-04-08T14:00:54.829Z</time></trkpt><trkpt lat="45.6944803" lon="13.7960984"><ele>322.0</ele><time>2026-04-08T14:00:55.835Z</time></trkpt><trkpt lat="45.694375" lon="13.7959896"><ele>321.5</ele><time>2026-04-08T14:00:56.822Z</time></trkpt><trkpt lat="45.6942644" lon="13.7958777"><ele>321.0</ele><time>2026-04-08T14:00:57.826Z</time></trkpt><trkpt lat="45.6941518" lon="13.795772"><ele>320.5</ele><time>2026-04-08T14:00:58.816Z</time></trkpt><trkpt lat="45.6940339" lon="13.7956701"><ele>320.0</ele><time>2026-04-08T14:00:59.823Z</time></trkpt><trkpt lat="45.6939105" lon="13.7955794"><ele>320.0</ele><time>2026-04-08T14:01:00.847Z</time></trkpt><trkpt lat="45.6937875" lon="13.7955001"><ele>320.0</ele><time>2026-04-08T14:01:01.835Z</time></trkpt><trkpt lat="45.6936625" lon="13.7954369"><ele>320.0</ele><time>2026-04-08T14:01:02.828Z</time></trkpt><trkpt lat="45.6935377" lon="13.7953842"><ele>320.0</ele><time>2026-04-08T14:01:03.828Z</time></trkpt><trkpt lat="45.6934107" lon="13.7953415"><ele>320.75</ele><time>2026-04-08T14:01:04.819Z</time></trkpt><trkpt lat="45.6932813" lon="13.7953036"><ele>321.5</ele><time>2026-04-08T14:01:05.838Z</time></trkpt><trkpt lat="45.6931514" lon="13.7952695"><ele>322.25</ele><time>2026-04-08T14:01:06.822Z</time></trkpt><trkpt lat="45.6930212" lon="13.7952341"><ele>323.0</ele><time>2026-04-08T14:01:07.825Z</time></trkpt><trkpt lat="45.6928911" lon="13.7952092"><ele>323.0</ele><time>2026-04-08T14:01:08.821Z</time></trkpt><trkpt lat="45.6927632" lon="13.7951856"><ele>323.0</ele><time>2026-04-08T14:01:09.822Z</time></trkpt><trkpt lat="45.6926327" lon="13.7951619"><ele>323.0</ele><time>2026-04-08T14:01:10.816Z</time></trkpt><trkpt lat="45.6925025" lon="13.7951341"><ele>323.0</ele><time>2026-04-08T14:01:11.828Z</time></trkpt><trkpt lat="45.6923734" lon="13.7951111"><ele>323.0</ele><time>2026-04-08T14:01:12.85Z</time></trkpt><trkpt lat="45.6922461" lon="13.7950905"><ele>323.0</ele><time>2026-04-08T14:01:13.821Z</time></trkpt><trkpt lat="45.6921225" lon="13.7950741"><ele>323.0</ele><time>2026-04-08T14:01:14.822Z</time></trkpt><trkpt lat="45.6919984" lon="13.7950577"><ele>323.0</ele><time>2026-04-08T14:01:15.824Z</time></trkpt><trkpt lat="45.6918767" lon="13.7950388"><ele>322.75</ele><time>2026-04-08T14:01:16.812Z</time></trkpt><trkpt lat="45.6917501" lon="13.7950196"><ele>322.5</ele><time>2026-04-08T14:01:17.815Z</time></trkpt><trkpt lat="45.6916246" lon="13.7949994"><ele>322.25</ele><time>2026-04-08T14:01:18.831Z</time></trkpt><trkpt lat="45.6914996" lon="13.7949779"><ele>322.0</ele><time>2026-04-08T14:01:19.821Z</time></trkpt><trkpt lat="45.6913726" lon="13.7949608"><ele>322.0</ele><time>2026-04-08T14:01:20.831Z</time></trkpt><trkpt lat="45.6912494" lon="13.7949442"><ele>322.0</ele><time>2026-04-08T14:01:21.827Z</time></trkpt><trkpt lat="45.6911262" lon="13.794928"><ele>322.0</ele><time>2026-04-08T14:01:22.817Z</time></trkpt><trkpt lat="45.6910031" lon="13.7949193"><ele>322.0</ele><time>2026-04-08T14:01:23.826Z</time></trkpt><trkpt lat="45.6908812" lon="13.794917"><ele>322.0</ele><time>2026-04-08T14:01:24.828Z</time></trkpt><trkpt lat="45.6907588" lon="13.7949264"><ele>322.0</ele><time>2026-04-08T14:01:25.828Z</time></trkpt><trkpt lat="45.6906393" lon="13.7949371"><ele>322.0</ele><time>2026-04-08T14:01:26.817Z</time></trkpt><trkpt lat="45.6905224" lon="13.7949541"><ele>322.0</ele><time>2026-04-08T14:01:27.827Z</time></trkpt><trkpt lat="45.6904056" lon="13.7949661"><ele>322.0</ele><time>2026-04-08T14:01:28.82Z</time></trkpt><trkpt lat="45.6902905" lon="13.7949788"><ele>322.0</ele><time>2026-04-08T14:01:29.826Z</time></trkpt><trkpt lat="45.6901722" lon="13.7949987"><ele>322.0</ele><time>2026-04-08T14:01:30.846Z</time></trkpt><trkpt lat="45.6900536" lon="13.7950179"><ele>322.0</ele><time>2026-04-08T14:01:31.823Z</time></trkpt><trkpt lat="45.6899329" lon="13.7950369"><ele>321.40000000000003</ele><time>2026-04-08T14:01:32.818Z</time></trkpt><trkpt lat="45.6898181" lon="13.7950531"><ele>320.8</ele><time>2026-04-08T14:01:33.833Z</time></trkpt><trkpt lat="45.6897072" lon="13.7950678"><ele>320.2</ele><time>2026-04-08T14:01:34.817Z</time></trkpt><trkpt lat="45.6896078" lon="13.7950811"><ele>319.6</ele><time>2026-04-08T14:01:35.814Z</time></trkpt><trkpt lat="45.6895164" lon="13.7950855"><ele>319.0</ele><time>2026-04-08T14:01:36.825Z</time></trkpt><trkpt lat="45.6894321" lon="13.7950818"><ele>319.2</ele><time>2026-04-08T14:01:37.82Z</time></trkpt><trkpt lat="45.689363" lon="13.7950691"><ele>319.4</ele><time>2026-04-08T14:01:38.826Z</time></trkpt><trkpt lat="45.6892982" lon="13.7950338"><ele>319.6</ele><time>2026-04-08T14:01:40.809Z</time></trkpt><trkpt lat="45.6892784" lon="13.7949293"><ele>319.8</ele><time>2026-04-08T14:01:49.82Z</time></trkpt><trkpt lat="45.6892833" lon="13.7947388"><ele>320.0</ele><time>2026-04-08T14:01:51.816Z</time></trkpt><trkpt lat="45.689266" lon="13.7945772"><ele>320.0</ele><time>2026-04-08T14:01:52.815Z</time></trkpt><trkpt lat="45.6892247" lon="13.7943881"><ele>320.0</ele><time>2026-04-08T14:01:53.821Z</time></trkpt><trkpt lat="45.6891794" lon="13.7941919"><ele>320.0</ele><time>2026-04-08T14:01:54.827Z</time></trkpt><trkpt lat="45.6891424" lon="13.7940113"><ele>320.0</ele><time>2026-04-08T14:01:55.827Z</time></trkpt><trkpt lat="45.6891021" lon="13.7938433"><ele>319.8</ele><time>2026-04-08T14:01:56.826Z</time></trkpt><trkpt lat="45.689064" lon="13.7936964"><ele>319.6</ele><time>2026-04-08T14:01:57.819Z</time></trkpt><trkpt lat="45.6890343" lon="13.7935638"><ele>319.4</ele><time>2026-04-08T14:01:58.826Z</time></trkpt><trkpt lat="45.6890064" lon="13.7934465"><ele>319.2</ele><time>2026-04-08T14:01:59.826Z</time></trkpt><trkpt lat="45.6889762" lon="13.7933323"><ele>319.0</ele><time>2026-04-08T14:02:00.822Z</time></trkpt><trkpt lat="45.6889545" lon="13.7932285"><ele>318.66666666666663</ele><time>2026-04-08T14:02:01.839Z</time></trkpt><trkpt lat="45.6889346" lon="13.7931413"><ele>318.3333333333333</ele><time>2026-04-08T14:02:02.817Z</time></trkpt><trkpt lat="45.6888987" lon="13.7929678"><ele>318.0</ele><time>2026-04-08T14:02:04.82Z</time></trkpt><trkpt lat="45.6888671" lon="13.7928617"><ele>317.6666666666667</ele><time>2026-04-08T14:02:05.823Z</time></trkpt><trkpt lat="45.688838" lon="13.7927597"><ele>317.33333333333337</ele><time>2026-04-08T14:02:06.823Z</time></trkpt><trkpt lat="45.6888097" lon="13.7926727"><ele>317.0</ele><time>2026-04-08T14:02:07.823Z</time></trkpt><trkpt lat="45.6887689" lon="13.7925224"><ele>317.0</ele><time>2026-04-08T14:02:09.818Z</time></trkpt><trkpt lat="45.6887237" lon="13.7923897"><ele>317.0</ele><time>2026-04-08T14:02:11.817Z</time></trkpt><trkpt lat="45.6886642" lon="13.7922109"><ele>317.0</ele><time>2026-04-08T14:02:13.829Z</time></trkpt><trkpt lat="45.6886249" lon="13.7920572"><ele>317.0</ele><time>2026-04-08T14:02:14.814Z</time></trkpt><trkpt lat="45.6885932" lon="13.7918981"><ele>318.0</ele><time>2026-04-08T14:02:15.828Z</time></trkpt><trkpt lat="45.6885518" lon="13.7917531"><ele>319.0</ele><time>2026-04-08T14:02:16.841Z</time></trkpt><trkpt lat="45.6885221" lon="13.7916476"><ele>320.0</ele><time>2026-04-08T14:02:17.813Z</time></trkpt><trkpt lat="45.6884893" lon="13.7914628"><ele>321.0</ele><time>2026-04-08T14:02:19.809Z</time></trkpt><trkpt lat="45.6884703" lon="13.7913526"><ele>322.0</ele><time>2026-04-08T14:02:20.815Z</time></trkpt><trkpt lat="45.6884578" lon="13.7912324"><ele>322.0</ele><time>2026-04-08T14:02:21.82Z</time></trkpt><trkpt lat="45.6884378" lon="13.791119"><ele>322.0</ele><time>2026-04-08T14:02:22.816Z</time></trkpt><trkpt lat="45.688422" lon="13.7909948"><ele>322.0</ele><time>2026-04-08T14:02:23.814Z</time></trkpt><trkpt lat="45.6884008" lon="13.790862"><ele>322.0</ele><time>2026-04-08T14:02:24.813Z</time></trkpt><trkpt lat="45.6883703" lon="13.7907498"><ele>322.0</ele><time>2026-04-08T14:02:25.818Z</time></trkpt><trkpt lat="45.6883546" lon="13.7906564"><ele>322.0</ele><time>2026-04-08T14:02:26.812Z</time></trkpt><trkpt lat="45.6883357" lon="13.790567"><ele>321.8333333333333</ele><time>2026-04-08T14:02:27.811Z</time></trkpt><trkpt lat="45.6883135" lon="13.7904627"><ele>321.66666666666663</ele><time>2026-04-08T14:02:28.811Z</time></trkpt><trkpt lat="45.6882926" lon="13.7903558"><ele>321.5</ele><time>2026-04-08T14:02:29.814Z</time></trkpt><trkpt lat="45.6882769" lon="13.7902461"><ele>321.3333333333333</ele><time>2026-04-08T14:02:30.808Z</time></trkpt><trkpt lat="45.6882599" lon="13.790129"><ele>321.1666666666667</ele><time>2026-04-08T14:02:31.815Z</time></trkpt><trkpt lat="45.688245" lon="13.7900335"><ele>321.0</ele><time>2026-04-08T14:02:32.808Z</time></trkpt><trkpt lat="45.6882035" lon="13.7899176"><ele>321.20000000000005</ele><time>2026-04-08T14:02:34.82Z</time></trkpt><trkpt lat="45.6881849" lon="13.7898291"><ele>321.40000000000003</ele><time>2026-04-08T14:02:36.814Z</time></trkpt><trkpt lat="45.6881468" lon="13.7896841"><ele>321.6</ele><time>2026-04-08T14:02:38.819Z</time></trkpt><trkpt lat="45.6881105" lon="13.7895083"><ele>321.8</ele><time>2026-04-08T14:02:40.808Z</time></trkpt><trkpt lat="45.6880927" lon="13.7894075"><ele>322.0</ele><time>2026-04-08T14:02:41.809Z</time></trkpt><trkpt lat="45.6880707" lon="13.7893013"><ele>322.0</ele><time>2026-04-08T14:02:42.811Z</time></trkpt><trkpt lat="45.6880442" lon="13.7892018"><ele>322.0</ele><time>2026-04-08T14:02:43.819Z</time></trkpt><trkpt lat="45.6880141" lon="13.7891143"><ele>322.0</ele><time>2026-04-08T14:02:44.822Z</time></trkpt><trkpt lat="45.6879774" lon="13.7890314"><ele>322.0</ele><time>2026-04-08T14:02:45.806Z</time></trkpt><trkpt lat="45.6879188" lon="13.7889024"><ele>322.0</ele><time>2026-04-08T14:02:47.817Z</time></trkpt><trkpt lat="45.6879036" lon="13.7887577"><ele>322.0</ele><time>2026-04-08T14:02:49.802Z</time></trkpt><trkpt lat="45.6878548" lon="13.7886195"><ele>322.0</ele><time>2026-04-08T14:02:51.83Z</time></trkpt><trkpt lat="45.6877834" lon="13.7885698"><ele>322.0</ele><time>2026-04-08T14:02:52.818Z</time></trkpt><trkpt lat="45.6876876" lon="13.7885294"><ele>322.0</ele><time>2026-04-08T14:02:53.82Z</time></trkpt><trkpt lat="45.6875947" lon="13.7884834"><ele>322.0</ele><time>2026-04-08T14:02:54.825Z</time></trkpt><trkpt lat="45.6875109" lon="13.7884175"><ele>322.0</ele><time>2026-04-08T14:02:55.806Z</time></trkpt><trkpt lat="45.6874269" lon="13.7883467"><ele>322.6</ele><time>2026-04-08T14:02:56.813Z</time></trkpt><trkpt lat="45.6873511" lon="13.7882771"><ele>323.20000000000005</ele><time>2026-04-08T14:02:57.809Z</time></trkpt><trkpt lat="45.6872747" lon="13.7882093"><ele>323.8</ele><time>2026-04-08T14:02:58.827Z</time></trkpt><trkpt lat="45.6871928" lon="13.7881401"><ele>324.4</ele><time>2026-04-08T14:02:59.811Z</time></trkpt><trkpt lat="45.6871097" lon="13.7880792"><ele>325.0</ele><time>2026-04-08T14:03:00.816Z</time></trkpt><trkpt lat="45.6869585" lon="13.787946"><ele>325.5</ele><time>2026-04-08T14:03:02.821Z</time></trkpt><trkpt lat="45.6868833" lon="13.7878758"><ele>326.0</ele><time>2026-04-08T14:03:03.807Z</time></trkpt><trkpt lat="45.6868098" lon="13.7877989"><ele>326.5</ele><time>2026-04-08T14:03:04.804Z</time></trkpt><trkpt lat="45.6867448" lon="13.7877185"><ele>327.0</ele><time>2026-04-08T14:03:05.804Z</time></trkpt><trkpt lat="45.6866993" lon="13.7876462"><ele>327.5</ele><time>2026-04-08T14:03:06.82Z</time></trkpt><trkpt lat="45.6866484" lon="13.7875571"><ele>328.0</ele><time>2026-04-08T14:03:08.816Z</time></trkpt><trkpt lat="45.6865889" lon="13.7874821"><ele>328.0</ele><time>2026-04-08T14:03:11.807Z</time></trkpt><trkpt lat="45.6865506" lon="13.7873928"><ele>328.0</ele><time>2026-04-08T14:03:13.814Z</time></trkpt><trkpt lat="45.6864637" lon="13.787269"><ele>328.0</ele><time>2026-04-08T14:03:15.8Z</time></trkpt><trkpt lat="45.686407" lon="13.7871984"><ele>328.0</ele><time>2026-04-08T14:03:16.815Z</time></trkpt><trkpt lat="45.6863418" lon="13.7871153"><ele>328.0</ele><time>2026-04-08T14:03:17.804Z</time></trkpt><trkpt lat="45.6862843" lon="13.7870328"><ele>328.0</ele><time>2026-04-08T14:03:18.814Z</time></trkpt><trkpt lat="45.6862287" lon="13.7869497"><ele>328.0</ele><time>2026-04-08T14:03:19.805Z</time></trkpt><trkpt lat="45.6861714" lon="13.7868633"><ele>328.0</ele><time>2026-04-08T14:03:20.812Z</time></trkpt><trkpt lat="45.6861109" lon="13.7867723"><ele>328.0</ele><time>2026-04-08T14:03:21.814Z</time></trkpt><trkpt lat="45.6860454" lon="13.7866713"><ele>328.0</ele><time>2026-04-08T14:03:22.825Z</time></trkpt><trkpt lat="45.6859716" lon="13.7865621"><ele>328.0</ele><time>2026-04-08T14:03:23.814Z</time></trkpt><trkpt lat="45.6858961" lon="13.7864494"><ele>328.59999999999997</ele><time>2026-04-08T14:03:24.824Z</time></trkpt><trkpt lat="45.6858226" lon="13.7863427"><ele>329.2</ele><time>2026-04-08T14:03:25.816Z</time></trkpt><trkpt lat="45.6857446" lon="13.7862344"><ele>329.8</ele><time>2026-04-08T14:03:26.813Z</time></trkpt><trkpt lat="45.685667" lon="13.7861246"><ele>330.4</ele><time>2026-04-08T14:03:27.804Z</time></trkpt><trkpt lat="45.6855865" lon="13.7860124"><ele>331.0</ele><time>2026-04-08T14:03:28.818Z</time></trkpt><trkpt lat="45.685511" lon="13.7859004"><ele>331.4</ele><time>2026-04-08T14:03:29.824Z</time></trkpt><trkpt lat="45.6854343" lon="13.7857869"><ele>331.8</ele><time>2026-04-08T14:03:30.811Z</time></trkpt><trkpt lat="45.6853605" lon="13.7856777"><ele>332.2</ele><time>2026-04-08T14:03:31.805Z</time></trkpt><trkpt lat="45.6852902" lon="13.7855758"><ele>332.59999999999997</ele><time>2026-04-08T14:03:32.816Z</time></trkpt><trkpt lat="45.685223" lon="13.7854786"><ele>333.0</ele><time>2026-04-08T14:03:33.801Z</time></trkpt><trkpt lat="45.6851542" lon="13.7853779"><ele>333.4</ele><time>2026-04-08T14:03:34.816Z</time></trkpt><trkpt lat="45.685087" lon="13.7852835"><ele>333.79999999999995</ele><time>2026-04-08T14:03:35.802Z</time></trkpt><trkpt lat="45.6850145" lon="13.7851821"><ele>334.2</ele><time>2026-04-08T14:03:36.809Z</time></trkpt><trkpt lat="45.6849366" lon="13.7850799"><ele>334.6</ele><time>2026-04-08T14:03:37.823Z</time></trkpt><trkpt lat="45.684858" lon="13.7849855"><ele>335.0</ele><time>2026-04-08T14:03:38.815Z</time></trkpt><trkpt lat="45.6847727" lon="13.7848858"><ele>335.0</ele><time>2026-04-08T14:03:39.815Z</time></trkpt><trkpt lat="45.6846859" lon="13.7847873"><ele>335.0</ele><time>2026-04-08T14:03:40.81Z</time></trkpt><trkpt lat="45.6845985" lon="13.7846868"><ele>335.0</ele><time>2026-04-08T14:03:41.803Z</time></trkpt><trkpt lat="45.6845054" lon="13.7845882"><ele>335.0</ele><time>2026-04-08T14:03:42.811Z</time></trkpt><trkpt lat="45.6844064" lon="13.7844884"><ele>335.5</ele><time>2026-04-08T14:03:43.816Z</time></trkpt><trkpt lat="45.6843067" lon="13.78439"><ele>336.0</ele><time>2026-04-08T14:03:44.821Z</time></trkpt><trkpt lat="45.6842086" lon="13.7842921"><ele>336.5</ele><time>2026-04-08T14:03:45.818Z</time></trkpt><trkpt lat="45.6841116" lon="13.7842004"><ele>337.0</ele><time>2026-04-08T14:03:46.83Z</time></trkpt><trkpt lat="45.6840181" lon="13.784114"><ele>337.0</ele><time>2026-04-08T14:03:47.812Z</time></trkpt><trkpt lat="45.6839289" lon="13.7840371"><ele>337.0</ele><time>2026-04-08T14:03:48.829Z</time></trkpt><trkpt lat="45.6838424" lon="13.7839655"><ele>337.0</ele><time>2026-04-08T14:03:49.824Z</time></trkpt><trkpt lat="45.6837588" lon="13.7838947"><ele>337.0</ele><time>2026-04-08T14:03:50.817Z</time></trkpt><trkpt lat="45.6836747" lon="13.7838259"><ele>337.0</ele><time>2026-04-08T14:03:51.809Z</time></trkpt><trkpt lat="45.6835929" lon="13.7837627"><ele>337.00000000000006</ele><time>2026-04-08T14:03:52.806Z</time></trkpt><trkpt lat="45.6835185" lon="13.7837037"><ele>337.0</ele><time>2026-04-08T14:03:53.823Z</time></trkpt><trkpt lat="45.6834582" lon="13.7836581"><ele>337.0</ele><time>2026-04-08T14:03:54.816Z</time></trkpt><trkpt lat="45.6834013" lon="13.7836111"><ele>337.0</ele><time>2026-04-08T14:03:55.803Z</time></trkpt><trkpt lat="45.6833553" lon="13.783549"><ele>337.0</ele><time>2026-04-08T14:03:56.811Z</time></trkpt><trkpt lat="45.6833223" lon="13.783471"><ele>337.00000000000006</ele><time>2026-04-08T14:03:58.82Z</time></trkpt><trkpt lat="45.6833194" lon="13.7833664"><ele>337.0</ele><time>2026-04-08T14:04:03.807Z</time></trkpt><trkpt lat="45.6832291" lon="13.7832837"><ele>336.75</ele><time>2026-04-08T14:04:04.812Z</time></trkpt><trkpt lat="45.6830812" lon="13.7832173"><ele>336.5</ele><time>2026-04-08T14:04:05.805Z</time></trkpt><trkpt lat="45.6829373" lon="13.7831943"><ele>336.25</ele><time>2026-04-08T14:04:06.817Z</time></trkpt><trkpt lat="45.6827991" lon="13.7831278"><ele>336.0</ele><time>2026-04-08T14:04:07.801Z</time></trkpt><trkpt lat="45.6826486" lon="13.7830234"><ele>336.3333333333333</ele><time>2026-04-08T14:04:08.801Z</time></trkpt><trkpt lat="45.6824949" lon="13.782892"><ele>336.66666666666663</ele><time>2026-04-08T14:04:09.802Z</time></trkpt><trkpt lat="45.6823475" lon="13.7827641"><ele>337.0</ele><time>2026-04-08T14:04:10.805Z</time></trkpt><trkpt lat="45.6821913" lon="13.7826395"><ele>337.0</ele><time>2026-04-08T14:04:11.807Z</time></trkpt><trkpt lat="45.6820273" lon="13.7824977"><ele>337.0</ele><time>2026-04-08T14:04:12.806Z</time></trkpt><trkpt lat="45.6818592" lon="13.7823537"><ele>337.0</ele><time>2026-04-08T14:04:13.797Z</time></trkpt><trkpt lat="45.6816848" lon="13.7822137"><ele>336.66666666666663</ele><time>2026-04-08T14:04:14.806Z</time></trkpt><trkpt lat="45.6815255" lon="13.7820735"><ele>336.3333333333333</ele><time>2026-04-08T14:04:15.799Z</time></trkpt><trkpt lat="45.6813711" lon="13.7819449"><ele>336.0</ele><time>2026-04-08T14:04:16.803Z</time></trkpt><trkpt lat="45.6812145" lon="13.7818235"><ele>340.5</ele><time>2026-04-08T14:04:17.822Z</time></trkpt><trkpt lat="45.6810542" lon="13.7817047"><ele>345.0</ele><time>2026-04-08T14:04:18.814Z</time></trkpt><trkpt lat="45.6807366" lon="13.7814737"><ele>345.0</ele><time>2026-04-08T14:04:20.822Z</time></trkpt><trkpt lat="45.6805806" lon="13.7813789"><ele>345.0</ele><time>2026-04-08T14:04:21.793Z</time></trkpt><trkpt lat="45.6804258" lon="13.7812808"><ele>345.0</ele><time>2026-04-08T14:04:22.81Z</time></trkpt><trkpt lat="45.6802712" lon="13.7812186"><ele>345.3333333333333</ele><time>2026-04-08T14:04:23.79Z</time></trkpt><trkpt lat="45.6801307" lon="13.7811828"><ele>345.66666666666663</ele><time>2026-04-08T14:04:24.811Z</time></trkpt><trkpt lat="45.679894" lon="13.7811502"><ele>346.0</ele><time>2026-04-08T14:04:26.817Z</time></trkpt><trkpt lat="45.679779" lon="13.7811793"><ele>346.0</ele><time>2026-04-08T14:04:27.801Z</time></trkpt><trkpt lat="45.6796712" lon="13.7812515"><ele>346.0</ele><time>2026-04-08T14:04:28.828Z</time></trkpt><trkpt lat="45.679575" lon="13.7813693"><ele>346.0</ele><time>2026-04-08T14:04:29.798Z</time></trkpt><trkpt lat="45.6794941" lon="13.7815269"><ele>346.0</ele><time>2026-04-08T14:04:30.798Z</time></trkpt><trkpt lat="45.6794288" lon="13.7817276"><ele>341.66666666666663</ele><time>2026-04-08T14:04:31.807Z</time></trkpt><trkpt lat="45.6793767" lon="13.7819513"><ele>337.3333333333333</ele><time>2026-04-08T14:04:32.799Z</time></trkpt><trkpt lat="45.6793261" lon="13.7821864"><ele>333.0</ele><time>2026-04-08T14:04:33.801Z</time></trkpt><trkpt lat="45.6792776" lon="13.7824237"><ele>333.0</ele><time>2026-04-08T14:04:34.814Z</time></trkpt><trkpt lat="45.6792259" lon="13.7826494"><ele>333.0</ele><time>2026-04-08T14:04:35.795Z</time></trkpt><trkpt lat="45.6791724" lon="13.7828675"><ele>333.0</ele><time>2026-04-08T14:04:36.801Z</time></trkpt><trkpt lat="45.6791146" lon="13.7830833"><ele>335.6666666666667</ele><time>2026-04-08T14:04:37.796Z</time></trkpt><trkpt lat="45.6790488" lon="13.783304"><ele>338.33333333333337</ele><time>2026-04-08T14:04:38.801Z</time></trkpt><trkpt lat="45.6789727" lon="13.783515"><ele>341.0</ele><time>2026-04-08T14:04:39.803Z</time></trkpt><trkpt lat="45.678884" lon="13.7837067"><ele>348.5</ele><time>2026-04-08T14:04:40.793Z</time></trkpt><trkpt lat="45.6786732" lon="13.7840616"><ele>356.0</ele><time>2026-04-08T14:04:42.799Z</time></trkpt><trkpt lat="45.6785648" lon="13.78423"><ele>350.6666666666667</ele><time>2026-04-08T14:04:43.795Z</time></trkpt><trkpt lat="45.6784638" lon="13.7844007"><ele>345.3333333333333</ele><time>2026-04-08T14:04:44.792Z</time></trkpt><trkpt lat="45.6783635" lon="13.7846095"><ele>340.0</ele><time>2026-04-08T14:04:45.796Z</time></trkpt><trkpt lat="45.6782439" lon="13.784849"><ele>340.0</ele><time>2026-04-08T14:04:46.794Z</time></trkpt><trkpt lat="45.6781243" lon="13.7850849"><ele>340.0</ele><time>2026-04-08T14:04:47.793Z</time></trkpt><trkpt lat="45.6780214" lon="13.7853102"><ele>340.0</ele><time>2026-04-08T14:04:48.793Z</time></trkpt><trkpt lat="45.6779348" lon="13.7855263"><ele>338.3333333333333</ele><time>2026-04-08T14:04:49.809Z</time></trkpt><trkpt lat="45.6778448" lon="13.7857168"><ele>336.6666666666667</ele><time>2026-04-08T14:04:50.798Z</time></trkpt><trkpt lat="45.6777536" lon="13.7858898"><ele>335.0</ele><time>2026-04-08T14:04:51.791Z</time></trkpt><trkpt lat="45.6776496" lon="13.7860714"><ele>335.0</ele><time>2026-04-08T14:04:52.8Z</time></trkpt><trkpt lat="45.6775258" lon="13.7862799"><ele>335.0</ele><time>2026-04-08T14:04:53.805Z</time></trkpt><trkpt lat="45.6773785" lon="13.7864904"><ele>335.0</ele><time>2026-04-08T14:04:54.791Z</time></trkpt><trkpt lat="45.6772213" lon="13.7866864"><ele>332.33333333333337</ele><time>2026-04-08T14:04:55.799Z</time></trkpt><trkpt lat="45.6770806" lon="13.786849"><ele>329.6666666666667</ele><time>2026-04-08T14:04:56.802Z</time></trkpt><trkpt lat="45.6769502" lon="13.7870066"><ele>327.0</ele><time>2026-04-08T14:04:57.794Z</time></trkpt><trkpt lat="45.6768246" lon="13.7871652"><ele>327.0</ele><time>2026-04-08T14:04:58.805Z</time></trkpt><trkpt lat="45.6767061" lon="13.7873058"><ele>327.0</ele><time>2026-04-08T14:04:59.791Z</time></trkpt><trkpt lat="45.6765887" lon="13.7874178"><ele>327.0</ele><time>2026-04-08T14:05:00.799Z</time></trkpt><trkpt lat="45.6764665" lon="13.7875406"><ele>327.0</ele><time>2026-04-08T14:05:01.791Z</time></trkpt><trkpt lat="45.6763384" lon="13.7876736"><ele>323.3333333333333</ele><time>2026-04-08T14:05:02.816Z</time></trkpt><trkpt lat="45.6761985" lon="13.7878305"><ele>319.66666666666663</ele><time>2026-04-08T14:05:03.793Z</time></trkpt><trkpt lat="45.6760416" lon="13.7880231"><ele>316.0</ele><time>2026-04-08T14:05:04.792Z</time></trkpt><trkpt lat="45.6758695" lon="13.7882187"><ele>316.0</ele><time>2026-04-08T14:05:05.801Z</time></trkpt><trkpt lat="45.6757067" lon="13.7884231"><ele>316.0</ele><time>2026-04-08T14:05:06.803Z</time></trkpt><trkpt lat="45.6755557" lon="13.7886386"><ele>316.0</ele><time>2026-04-08T14:05:07.795Z</time></trkpt><trkpt lat="45.6754138" lon="13.7888335"><ele>314.0</ele><time>2026-04-08T14:05:08.796Z</time></trkpt><trkpt lat="45.6752846" lon="13.7889916"><ele>312.0</ele><time>2026-04-08T14:05:09.793Z</time></trkpt><trkpt lat="45.6751743" lon="13.7891397"><ele>310.0</ele><time>2026-04-08T14:05:10.802Z</time></trkpt><trkpt lat="45.675067" lon="13.7892826"><ele>315.0</ele><time>2026-04-08T14:05:11.79Z</time></trkpt><trkpt lat="45.6749605" lon="13.7894162"><ele>320.0</ele><time>2026-04-08T14:05:12.791Z</time></trkpt><trkpt lat="45.6747665" lon="13.7896878"><ele>325.0</ele><time>2026-04-08T14:05:14.795Z</time></trkpt><trkpt lat="45.6746847" lon="13.7898382"><ele>325.0</ele><time>2026-04-08T14:05:15.799Z</time></trkpt><trkpt lat="45.674619" lon="13.7899932"><ele>325.0</ele><time>2026-04-08T14:05:16.784Z</time></trkpt><trkpt lat="45.6745495" lon="13.7901544"><ele>325.0</ele><time>2026-04-08T14:05:17.801Z</time></trkpt><trkpt lat="45.6744912" lon="13.79033"><ele>325.0</ele><time>2026-04-08T14:05:18.81Z</time></trkpt><trkpt lat="45.6744382" lon="13.7905113"><ele>321.75</ele><time>2026-04-08T14:05:19.8Z</time></trkpt><trkpt lat="45.6743881" lon="13.7906947"><ele>318.5</ele><time>2026-04-08T14:05:20.801Z</time></trkpt><trkpt lat="45.6743379" lon="13.7908867"><ele>315.25</ele><time>2026-04-08T14:05:21.789Z</time></trkpt><trkpt lat="45.6742824" lon="13.7910743"><ele>312.0</ele><time>2026-04-08T14:05:22.79Z</time></trkpt><trkpt lat="45.6742321" lon="13.7912671"><ele>312.0</ele><time>2026-04-08T14:05:23.796Z</time></trkpt><trkpt lat="45.6741763" lon="13.7914593"><ele>312.0</ele><time>2026-04-08T14:05:24.8Z</time></trkpt><trkpt lat="45.6740973" lon="13.7916268"><ele>312.0</ele><time>2026-04-08T14:05:25.802Z</time></trkpt><trkpt lat="45.6740281" lon="13.7917784"><ele>312.0</ele><time>2026-04-08T14:05:26.792Z</time></trkpt><trkpt lat="45.6739527" lon="13.7919219"><ele>312.75</ele><time>2026-04-08T14:05:27.788Z</time></trkpt><trkpt lat="45.6738683" lon="13.7920552"><ele>313.5</ele><time>2026-04-08T14:05:28.8Z</time></trkpt><trkpt lat="45.6737654" lon="13.7921642"><ele>314.25</ele><time>2026-04-08T14:05:29.792Z</time></trkpt><trkpt lat="45.6736447" lon="13.7922337"><ele>315.0</ele><time>2026-04-08T14:05:30.79Z</time></trkpt><trkpt lat="45.673512" lon="13.7922589"><ele>315.0</ele><time>2026-04-08T14:05:31.786Z</time></trkpt><trkpt lat="45.6733821" lon="13.7922345"><ele>315.0</ele><time>2026-04-08T14:05:32.805Z</time></trkpt><trkpt lat="45.6732471" lon="13.7921775"><ele>315.0</ele><time>2026-04-08T14:05:33.79Z</time></trkpt><trkpt lat="45.6731255" lon="13.7921056"><ele>315.0</ele><time>2026-04-08T14:05:34.798Z</time></trkpt><trkpt lat="45.6729892" lon="13.7920343"><ele>315.0</ele><time>2026-04-08T14:05:35.809Z</time></trkpt><trkpt lat="45.6728245" lon="13.7919631"><ele>315.0</ele><time>2026-04-08T14:05:36.797Z</time></trkpt><trkpt lat="45.672649" lon="13.7918559"><ele>315.0</ele><time>2026-04-08T14:05:37.787Z</time></trkpt><trkpt lat="45.6724761" lon="13.7917361"><ele>310.3333333333333</ele><time>2026-04-08T14:05:38.799Z</time></trkpt><trkpt lat="45.6723118" lon="13.7916268"><ele>305.66666666666663</ele><time>2026-04-08T14:05:39.786Z</time></trkpt><trkpt lat="45.6721558" lon="13.7915261"><ele>301.0</ele><time>2026-04-08T14:05:40.791Z</time></trkpt><trkpt lat="45.6719999" lon="13.7914207"><ele>300.0</ele><time>2026-04-08T14:05:41.794Z</time></trkpt><trkpt lat="45.6718527" lon="13.7912801"><ele>299.0</ele><time>2026-04-08T14:05:42.793Z</time></trkpt><trkpt lat="45.6717211" lon="13.7911003"><ele>298.0</ele><time>2026-04-08T14:05:43.805Z</time></trkpt><trkpt lat="45.6715839" lon="13.7908966"><ele>298.0</ele><time>2026-04-08T14:05:44.805Z</time></trkpt><trkpt lat="45.6714414" lon="13.7906895"><ele>298.0</ele><time>2026-04-08T14:05:45.786Z</time></trkpt><trkpt lat="45.6711831" lon="13.7903295"><ele>298.25</ele><time>2026-04-08T14:05:47.788Z</time></trkpt><trkpt lat="45.6710541" lon="13.7902238"><ele>298.5</ele><time>2026-04-08T14:05:48.79Z</time></trkpt><trkpt lat="45.6709161" lon="13.7901824"><ele>298.75</ele><time>2026-04-08T14:05:49.787Z</time></trkpt><trkpt lat="45.6707777" lon="13.7902145"><ele>299.0</ele><time>2026-04-08T14:05:50.805Z</time></trkpt><trkpt lat="45.6706543" lon="13.790285"><ele>299.0</ele><time>2026-04-08T14:05:51.791Z</time></trkpt><trkpt lat="45.6705421" lon="13.7903981"><ele>299.0</ele><time>2026-04-08T14:05:52.799Z</time></trkpt><trkpt lat="45.6704513" lon="13.7907258"><ele>299.0</ele><time>2026-04-08T14:05:54.806Z</time></trkpt><trkpt lat="45.6703824" lon="13.79105"><ele>299.59999999999997</ele><time>2026-04-08T14:05:56.801Z</time></trkpt><trkpt lat="45.670348" lon="13.7912057"><ele>300.2</ele><time>2026-04-08T14:05:57.822Z</time></trkpt><trkpt lat="45.6702943" lon="13.7913504"><ele>300.79999999999995</ele><time>2026-04-08T14:05:58.822Z</time></trkpt><trkpt lat="45.6702276" lon="13.7914629"><ele>301.4</ele><time>2026-04-08T14:05:59.792Z</time></trkpt><trkpt lat="45.6701486" lon="13.7915347"><ele>302.0</ele><time>2026-04-08T14:06:00.782Z</time></trkpt><trkpt lat="45.6700554" lon="13.7915649"><ele>302.0</ele><time>2026-04-08T14:06:01.809Z</time></trkpt><trkpt lat="45.6699561" lon="13.7915512"><ele>302.0</ele><time>2026-04-08T14:06:02.796Z</time></trkpt><trkpt lat="45.6698368" lon="13.791481"><ele>302.0</ele><time>2026-04-08T14:06:03.79Z</time></trkpt><trkpt lat="45.6697142" lon="13.7913939"><ele>302.0</ele><time>2026-04-08T14:06:04.807Z</time></trkpt><trkpt lat="45.6695733" lon="13.7912981"><ele>300.33333333333337</ele><time>2026-04-08T14:06:05.801Z</time></trkpt><trkpt lat="45.6694164" lon="13.7911803"><ele>298.6666666666667</ele><time>2026-04-08T14:06:06.794Z</time></trkpt><trkpt lat="45.6692692" lon="13.7910717"><ele>297.0</ele><time>2026-04-08T14:06:07.787Z</time></trkpt><trkpt lat="45.6691365" lon="13.7909906"><ele>293.0</ele><time>2026-04-08T14:06:08.799Z</time></trkpt><trkpt lat="45.6690122" lon="13.7909258"><ele>289.0</ele><time>2026-04-08T14:06:09.803Z</time></trkpt><trkpt lat="45.668903" lon="13.7908951"><ele>285.0</ele><time>2026-04-08T14:06:10.784Z</time></trkpt><trkpt lat="45.6688115" lon="13.7908735"><ele>281.0</ele><time>2026-04-08T14:06:11.787Z</time></trkpt><trkpt lat="45.6687378" lon="13.790864"><ele>277.0</ele><time>2026-04-08T14:06:12.798Z</time></trkpt><trkpt lat="45.6686733" lon="13.7908518"><ele>277.2</ele><time>2026-04-08T14:06:13.79Z</time></trkpt><trkpt lat="45.6685526" lon="13.7908196"><ele>277.4</ele><time>2026-04-08T14:06:15.794Z</time></trkpt><trkpt lat="45.6684871" lon="13.7908132"><ele>277.6</ele><time>2026-04-08T14:06:16.796Z</time></trkpt><trkpt lat="45.6684132" lon="13.7908119"><ele>277.8</ele><time>2026-04-08T14:06:17.793Z</time></trkpt><trkpt lat="45.6683141" lon="13.7908063"><ele>278.0</ele><time>2026-04-08T14:06:18.818Z</time></trkpt><trkpt lat="45.6681865" lon="13.7907759"><ele>278.0</ele><time>2026-04-08T14:06:19.797Z</time></trkpt><trkpt lat="45.6680451" lon="13.7907244"><ele>278.0</ele><time>2026-04-08T14:06:20.781Z</time></trkpt><trkpt lat="45.6678959" lon="13.7906926"><ele>278.0</ele><time>2026-04-08T14:06:21.802Z</time></trkpt><trkpt lat="45.667746" lon="13.7906683"><ele>278.0</ele><time>2026-04-08T14:06:22.801Z</time></trkpt><trkpt lat="45.6676083" lon="13.7906713"><ele>277.0</ele><time>2026-04-08T14:06:23.796Z</time></trkpt><trkpt lat="45.6674769" lon="13.7907095"><ele>276.0</ele><time>2026-04-08T14:06:24.8Z</time></trkpt><trkpt lat="45.6673567" lon="13.7907932"><ele>275.0</ele><time>2026-04-08T14:06:25.803Z</time></trkpt><trkpt lat="45.6672607" lon="13.7909185"><ele>274.0</ele><time>2026-04-08T14:06:26.811Z</time></trkpt><trkpt lat="45.6671837" lon="13.7910744"><ele>274.0</ele><time>2026-04-08T14:06:27.802Z</time></trkpt><trkpt lat="45.6671308" lon="13.7912409"><ele>274.0</ele><time>2026-04-08T14:06:28.811Z</time></trkpt><trkpt lat="45.6671092" lon="13.7913997"><ele>274.0</ele><time>2026-04-08T14:06:29.79Z</time></trkpt><trkpt lat="45.6671008" lon="13.7915541"><ele>274.0</ele><time>2026-04-08T14:06:30.811Z</time></trkpt><trkpt lat="45.6671202" lon="13.7917294"><ele>271.0</ele><time>2026-04-08T14:06:31.787Z</time></trkpt><trkpt lat="45.6671695" lon="13.7918903"><ele>268.0</ele><time>2026-04-08T14:06:32.797Z</time></trkpt><trkpt lat="45.667257" lon="13.792039"><ele>265.0</ele><time>2026-04-08T14:06:33.802Z</time></trkpt><trkpt lat="45.6673945" lon="13.7922031"><ele>262.0</ele><time>2026-04-08T14:06:34.8Z</time></trkpt><trkpt lat="45.6675544" lon="13.7923784"><ele>262.0</ele><time>2026-04-08T14:06:35.799Z</time></trkpt><trkpt lat="45.6677227" lon="13.7925839"><ele>262.0</ele><time>2026-04-08T14:06:36.798Z</time></trkpt><trkpt lat="45.6678818" lon="13.7927829"><ele>262.0</ele><time>2026-04-08T14:06:37.811Z</time></trkpt><trkpt lat="45.6680249" lon="13.7929722"><ele>264.0</ele><time>2026-04-08T14:06:38.792Z</time></trkpt><trkpt lat="45.6681347" lon="13.7931621"><ele>266.0</ele><time>2026-04-08T14:06:39.792Z</time></trkpt><trkpt lat="45.6682181" lon="13.7933713"><ele>268.0</ele><time>2026-04-08T14:06:40.784Z</time></trkpt><trkpt lat="45.6682745" lon="13.7936065"><ele>268.0</ele><time>2026-04-08T14:06:41.787Z</time></trkpt><trkpt lat="45.6683011" lon="13.7938583"><ele>268.0</ele><time>2026-04-08T14:06:42.786Z</time></trkpt><trkpt lat="45.6683194" lon="13.7941151"><ele>268.0</ele><time>2026-04-08T14:06:43.798Z</time></trkpt><trkpt lat="45.6683248" lon="13.7943783"><ele>263.66666666666663</ele><time>2026-04-08T14:06:44.784Z</time></trkpt><trkpt lat="45.6683323" lon="13.7946383"><ele>259.3333333333333</ele><time>2026-04-08T14:06:45.786Z</time></trkpt><trkpt lat="45.6683295" lon="13.7949104"><ele>255.0</ele><time>2026-04-08T14:06:46.797Z</time></trkpt><trkpt lat="45.6683276" lon="13.7951835"><ele>252.33333333333331</ele><time>2026-04-08T14:06:47.79Z</time></trkpt><trkpt lat="45.6683411" lon="13.7954506"><ele>249.66666666666666</ele><time>2026-04-08T14:06:48.803Z</time></trkpt><trkpt lat="45.6683779" lon="13.7957134"><ele>247.0</ele><time>2026-04-08T14:06:49.791Z</time></trkpt><trkpt lat="45.6684277" lon="13.7959666"><ele>244.33333333333331</ele><time>2026-04-08T14:06:50.797Z</time></trkpt><trkpt lat="45.6684916" lon="13.7961865"><ele>241.66666666666669</ele><time>2026-04-08T14:06:51.789Z</time></trkpt><trkpt lat="45.6685755" lon="13.7963782"><ele>239.0</ele><time>2026-04-08T14:06:52.778Z</time></trkpt><trkpt lat="45.6686602" lon="13.7965539"><ele>248.25</ele><time>2026-04-08T14:06:53.797Z</time></trkpt><trkpt lat="45.6687423" lon="13.7967212"><ele>257.5</ele><time>2026-04-08T14:06:54.813Z</time></trkpt><trkpt lat="45.6688227" lon="13.7968834"><ele>266.75</ele><time>2026-04-08T14:06:55.785Z</time></trkpt><trkpt lat="45.6688885" lon="13.7970481"><ele>276.0</ele><time>2026-04-08T14:06:56.792Z</time></trkpt><trkpt lat="45.6689081" lon="13.7972176"><ele>276.0</ele><time>2026-04-08T14:06:57.788Z</time></trkpt><trkpt lat="45.6688936" lon="13.7973747"><ele>276.0</ele><time>2026-04-08T14:06:58.78Z</time></trkpt><trkpt lat="45.6688505" lon="13.7975273"><ele>276.0</ele><time>2026-04-08T14:06:59.79Z</time></trkpt><trkpt lat="45.6687864" lon="13.7976651"><ele>276.0</ele><time>2026-04-08T14:07:00.786Z</time></trkpt><trkpt lat="45.6687155" lon="13.797796"><ele>277.0</ele><time>2026-04-08T14:07:01.784Z</time></trkpt><trkpt lat="45.6686307" lon="13.7979243"><ele>278.0</ele><time>2026-04-08T14:07:02.784Z</time></trkpt><trkpt lat="45.668525" lon="13.7980436"><ele>279.0</ele><time>2026-04-08T14:07:03.785Z</time></trkpt><trkpt lat="45.6684096" lon="13.7981635"><ele>280.0</ele><time>2026-04-08T14:07:04.795Z</time></trkpt><trkpt lat="45.6682904" lon="13.7982846"><ele>278.75</ele><time>2026-04-08T14:07:05.792Z</time></trkpt><trkpt lat="45.6681637" lon="13.7983917"><ele>277.5</ele><time>2026-04-08T14:07:06.793Z</time></trkpt><trkpt lat="45.6680323" lon="13.7984971"><ele>276.25</ele><time>2026-04-08T14:07:07.784Z</time></trkpt><trkpt lat="45.6678967" lon="13.7985772"><ele>275.0</ele><time>2026-04-08T14:07:08.792Z</time></trkpt><trkpt lat="45.6677584" lon="13.7986432"><ele>270.0</ele><time>2026-04-08T14:07:09.783Z</time></trkpt><trkpt lat="45.6676134" lon="13.7987031"><ele>265.0</ele><time>2026-04-08T14:07:10.796Z</time></trkpt><trkpt lat="45.6674694" lon="13.798753"><ele>260.0</ele><time>2026-04-08T14:07:11.789Z</time></trkpt><trkpt lat="45.6673289" lon="13.7988039"><ele>255.0</ele><time>2026-04-08T14:07:12.806Z</time></trkpt><trkpt lat="45.6671922" lon="13.7988438"><ele>255.0</ele><time>2026-04-08T14:07:13.786Z</time></trkpt><trkpt lat="45.6670451" lon="13.7988948"><ele>255.0</ele><time>2026-04-08T14:07:14.804Z</time></trkpt><trkpt lat="45.6668913" lon="13.7989623"><ele>255.0</ele><time>2026-04-08T14:07:15.784Z</time></trkpt><trkpt lat="45.6667392" lon="13.7990225"><ele>256.75</ele><time>2026-04-08T14:07:16.777Z</time></trkpt><trkpt lat="45.6665924" lon="13.7990847"><ele>258.5</ele><time>2026-04-08T14:07:17.807Z</time></trkpt><trkpt lat="45.6664636" lon="13.7991573"><ele>260.25</ele><time>2026-04-08T14:07:18.806Z</time></trkpt><trkpt lat="45.6663411" lon="13.7992446"><ele>262.0</ele><time>2026-04-08T14:07:19.79Z</time></trkpt><trkpt lat="45.6662265" lon="13.7993483"><ele>262.0</ele><time>2026-04-08T14:07:20.789Z</time></trkpt><trkpt lat="45.6661265" lon="13.7994676"><ele>262.0</ele><time>2026-04-08T14:07:21.783Z</time></trkpt><trkpt lat="45.6660331" lon="13.7995996"><ele>262.0</ele><time>2026-04-08T14:07:22.796Z</time></trkpt><trkpt lat="45.665943" lon="13.7997435"><ele>262.0</ele><time>2026-04-08T14:07:23.783Z</time></trkpt><trkpt lat="45.6658618" lon="13.7999075"><ele>257.5</ele><time>2026-04-08T14:07:24.783Z</time></trkpt><trkpt lat="45.6657906" lon="13.800083"><ele>253.0</ele><time>2026-04-08T14:07:25.785Z</time></trkpt><trkpt lat="45.6657245" lon="13.80026"><ele>248.5</ele><time>2026-04-08T14:07:26.827Z</time></trkpt><trkpt lat="45.6656605" lon="13.8004445"><ele>244.0</ele><time>2026-04-08T14:07:27.783Z</time></trkpt><trkpt lat="45.665604" lon="13.8006389"><ele>244.0</ele><time>2026-04-08T14:07:28.789Z</time></trkpt><trkpt lat="45.6655545" lon="13.8008311"><ele>244.0</ele><time>2026-04-08T14:07:29.81Z</time></trkpt><trkpt lat="45.6655117" lon="13.8010206"><ele>244.0</ele><time>2026-04-08T14:07:30.791Z</time></trkpt><trkpt lat="45.6654821" lon="13.801206"><ele>244.0</ele><time>2026-04-08T14:07:31.784Z</time></trkpt><trkpt lat="45.6654648" lon="13.8013968"><ele>243.75</ele><time>2026-04-08T14:07:32.789Z</time></trkpt><trkpt lat="45.6654482" lon="13.801582"><ele>243.5</ele><time>2026-04-08T14:07:33.791Z</time></trkpt><trkpt lat="45.66545" lon="13.8017699"><ele>243.25</ele><time>2026-04-08T14:07:34.782Z</time></trkpt><trkpt lat="45.6654666" lon="13.8019479"><ele>243.0</ele><time>2026-04-08T14:07:35.791Z</time></trkpt><trkpt lat="45.6654883" lon="13.8021013"><ele>240.75</ele><time>2026-04-08T14:07:36.803Z</time></trkpt><trkpt lat="45.6655303" lon="13.8022545"><ele>238.5</ele><time>2026-04-08T14:07:37.782Z</time></trkpt><trkpt lat="45.6655983" lon="13.8024245"><ele>236.25</ele><time>2026-04-08T14:07:38.791Z</time></trkpt><trkpt lat="45.6656897" lon="13.8026359"><ele>234.0</ele><time>2026-04-08T14:07:39.788Z</time></trkpt><trkpt lat="45.6658162" lon="13.8028693"><ele>230.33333333333331</ele><time>2026-04-08T14:07:40.789Z</time></trkpt><trkpt lat="45.6659325" lon="13.8030801"><ele>226.66666666666666</ele><time>2026-04-08T14:07:41.792Z</time></trkpt><trkpt lat="45.6660228" lon="13.8032828"><ele>223.0</ele><time>2026-04-08T14:07:42.779Z</time></trkpt><trkpt lat="45.666078" lon="13.8034965"><ele>223.33333333333331</ele><time>2026-04-08T14:07:43.779Z</time></trkpt><trkpt lat="45.6660967" lon="13.803734"><ele>223.66666666666669</ele><time>2026-04-08T14:07:44.782Z</time></trkpt><trkpt lat="45.6660759" lon="13.8039661"><ele>224.0</ele><time>2026-04-08T14:07:45.795Z</time></trkpt><trkpt lat="45.6660205" lon="13.804186"><ele>228.66666666666669</ele><time>2026-04-08T14:07:46.786Z</time></trkpt><trkpt lat="45.665922" lon="13.8044011"><ele>233.33333333333331</ele><time>2026-04-08T14:07:47.785Z</time></trkpt><trkpt lat="45.6657905" lon="13.804575"><ele>238.0</ele><time>2026-04-08T14:07:48.778Z</time></trkpt><trkpt lat="45.6656542" lon="13.8047214"><ele>238.0</ele><time>2026-04-08T14:07:49.79Z</time></trkpt><trkpt lat="45.6654883" lon="13.8048323"><ele>238.0</ele><time>2026-04-08T14:07:50.786Z</time></trkpt><trkpt lat="45.6652974" lon="13.804897"><ele>238.0</ele><time>2026-04-08T14:07:51.795Z</time></trkpt><trkpt lat="45.6650839" lon="13.8049163"><ele>231.66666666666666</ele><time>2026-04-08T14:07:52.791Z</time></trkpt><trkpt lat="45.6648648" lon="13.8049245"><ele>225.33333333333331</ele><time>2026-04-08T14:07:53.787Z</time></trkpt><trkpt lat="45.6646423" lon="13.8049155"><ele>219.0</ele><time>2026-04-08T14:07:54.787Z</time></trkpt><trkpt lat="45.6644356" lon="13.8048877"><ele>216.33333333333331</ele><time>2026-04-08T14:07:55.827Z</time></trkpt><trkpt lat="45.6642506" lon="13.8048597"><ele>213.66666666666666</ele><time>2026-04-08T14:07:56.794Z</time></trkpt><trkpt lat="45.6640753" lon="13.8048826"><ele>211.0</ele><time>2026-04-08T14:07:57.787Z</time></trkpt><trkpt lat="45.6638959" lon="13.8049983"><ele>207.66666666666666</ele><time>2026-04-08T14:07:58.798Z</time></trkpt><trkpt lat="45.6637243" lon="13.8051749"><ele>204.33333333333331</ele><time>2026-04-08T14:07:59.786Z</time></trkpt><trkpt lat="45.6635499" lon="13.8053882"><ele>201.0</ele><time>2026-04-08T14:08:00.78Z</time></trkpt><trkpt lat="45.6631828" lon="13.8058714"><ele>206.5</ele><time>2026-04-08T14:08:02.778Z</time></trkpt><trkpt lat="45.6630039" lon="13.8061187"><ele>212.0</ele><time>2026-04-08T14:08:03.793Z</time></trkpt><trkpt lat="45.6628347" lon="13.806361"><ele>208.5</ele><time>2026-04-08T14:08:04.804Z</time></trkpt><trkpt lat="45.6626816" lon="13.8066199"><ele>205.0</ele><time>2026-04-08T14:08:05.807Z</time></trkpt><trkpt lat="45.6625407" lon="13.8069199"><ele>205.0</ele><time>2026-04-08T14:08:06.802Z</time></trkpt><trkpt lat="45.6624128" lon="13.8072289"><ele>205.0</ele><time>2026-04-08T14:08:07.797Z</time></trkpt><trkpt lat="45.6622845" lon="13.8075213"><ele>202.0</ele><time>2026-04-08T14:08:08.788Z</time></trkpt><trkpt lat="45.6621605" lon="13.8077999"><ele>199.0</ele><time>2026-04-08T14:08:09.781Z</time></trkpt><trkpt lat="45.662042" lon="13.8080596"><ele>196.0</ele><time>2026-04-08T14:08:10.795Z</time></trkpt><trkpt lat="45.661809" lon="13.8085387"><ele>196.0</ele><time>2026-04-08T14:08:12.785Z</time></trkpt><trkpt lat="45.6616812" lon="13.8087841"><ele>196.0</ele><time>2026-04-08T14:08:13.785Z</time></trkpt><trkpt lat="45.6613602" lon="13.8093295"><ele>189.0</ele><time>2026-04-08T14:08:15.788Z</time></trkpt><trkpt lat="45.6611874" lon="13.8096026"><ele>182.0</ele><time>2026-04-08T14:08:16.799Z</time></trkpt><trkpt lat="45.6610293" lon="13.809874"><ele>182.0</ele><time>2026-04-08T14:08:17.786Z</time></trkpt><trkpt lat="45.6608842" lon="13.8101452"><ele>182.0</ele><time>2026-04-08T14:08:18.861Z</time></trkpt><trkpt lat="45.6607578" lon="13.8104112"><ele>188.5</ele><time>2026-04-08T14:08:19.806Z</time></trkpt><trkpt lat="45.6606416" lon="13.8106713"><ele>195.0</ele><time>2026-04-08T14:08:20.783Z</time></trkpt><trkpt lat="45.6604288" lon="13.8111433"><ele>197.0</ele><time>2026-04-08T14:08:22.792Z</time></trkpt><trkpt lat="45.6603254" lon="13.8113645"><ele>199.0</ele><time>2026-04-08T14:08:23.804Z</time></trkpt><trkpt lat="45.6602219" lon="13.8115697"><ele>201.0</ele><time>2026-04-08T14:08:24.791Z</time></trkpt><trkpt lat="45.6600987" lon="13.8117408"><ele>198.0</ele><time>2026-04-08T14:08:25.786Z</time></trkpt><trkpt lat="45.6599639" lon="13.8118947"><ele>195.0</ele><time>2026-04-08T14:08:26.8Z</time></trkpt><trkpt lat="45.6598049" lon="13.8120288"><ele>192.0</ele><time>2026-04-08T14:08:27.785Z</time></trkpt><trkpt lat="45.6596315" lon="13.8121415"><ele>192.0</ele><time>2026-04-08T14:08:28.791Z</time></trkpt><trkpt lat="45.6594645" lon="13.8122423"><ele>192.0</ele><time>2026-04-08T14:08:29.785Z</time></trkpt><trkpt lat="45.659304" lon="13.8123511"><ele>192.0</ele><time>2026-04-08T14:08:30.79Z</time></trkpt><trkpt lat="45.6591505" lon="13.8124584"><ele>194.33333333333331</ele><time>2026-04-08T14:08:31.791Z</time></trkpt><trkpt lat="45.659005" lon="13.8125667"><ele>196.66666666666666</ele><time>2026-04-08T14:08:32.797Z</time></trkpt><trkpt lat="45.658876" lon="13.8126967"><ele>199.0</ele><time>2026-04-08T14:08:33.783Z</time></trkpt><trkpt lat="45.6587529" lon="13.8128477"><ele>199.0</ele><time>2026-04-08T14:08:34.783Z</time></trkpt><trkpt lat="45.6586379" lon="13.813016"><ele>199.0</ele><time>2026-04-08T14:08:35.789Z</time></trkpt><trkpt lat="45.6585329" lon="13.8131893"><ele>199.0</ele><time>2026-04-08T14:08:36.78Z</time></trkpt><trkpt lat="45.6584375" lon="13.8133619"><ele>197.2</ele><time>2026-04-08T14:08:37.789Z</time></trkpt><trkpt lat="45.658356" lon="13.8135083"><ele>195.39999999999998</ele><time>2026-04-08T14:08:38.785Z</time></trkpt><trkpt lat="45.6582847" lon="13.8136453"><ele>193.6</ele><time>2026-04-08T14:08:39.778Z</time></trkpt><trkpt lat="45.6582262" lon="13.8137686"><ele>191.8</ele><time>2026-04-08T14:08:40.792Z</time></trkpt><trkpt lat="45.6581678" lon="13.8138653"><ele>190.0</ele><time>2026-04-08T14:08:41.783Z</time></trkpt><trkpt lat="45.6581071" lon="13.813942"><ele>190.0</ele><time>2026-04-08T14:08:42.802Z</time></trkpt><trkpt lat="45.6579878" lon="13.8138814"><ele>190.0</ele><time>2026-04-08T14:08:44.794Z</time></trkpt><trkpt lat="45.6579695" lon="13.8137437"><ele>190.0</ele><time>2026-04-08T14:08:45.797Z</time></trkpt><trkpt lat="45.6579974" lon="13.8136145"><ele>190.0</ele><time>2026-04-08T14:08:46.787Z</time></trkpt><trkpt lat="45.6580928" lon="13.8135116"><ele>190.0</ele><time>2026-04-08T14:08:47.784Z</time></trkpt><trkpt lat="45.6582201" lon="13.8134017"><ele>194.5</ele><time>2026-04-08T14:08:48.789Z</time></trkpt><trkpt lat="45.6585107" lon="13.8130508"><ele>199.0</ele><time>2026-04-08T14:08:50.778Z</time></trkpt><trkpt lat="45.658672" lon="13.8128325"><ele>189.5</ele><time>2026-04-08T14:08:51.778Z</time></trkpt><trkpt lat="45.6588364" lon="13.8126094"><ele>180.0</ele><time>2026-04-08T14:08:52.782Z</time></trkpt><trkpt lat="45.6589898" lon="13.812377"><ele>180.0</ele><time>2026-04-08T14:08:53.785Z</time></trkpt><trkpt lat="45.6591302" lon="13.8121491"><ele>180.0</ele><time>2026-04-08T14:08:54.781Z</time></trkpt><trkpt lat="45.6592644" lon="13.8119196"><ele>180.0</ele><time>2026-04-08T14:08:55.791Z</time></trkpt><trkpt lat="45.6593647" lon="13.8116865"><ele>181.0</ele><time>2026-04-08T14:08:56.78Z</time></trkpt><trkpt lat="45.6594668" lon="13.811457"><ele>182.0</ele><time>2026-04-08T14:08:57.79Z</time></trkpt><trkpt lat="45.6595721" lon="13.8112222"><ele>183.0</ele><time>2026-04-08T14:08:58.82Z</time></trkpt><trkpt lat="45.6596963" lon="13.8110305"><ele>178.0</ele><time>2026-04-08T14:08:59.794Z</time></trkpt><trkpt lat="45.6598402" lon="13.810846"><ele>173.0</ele><time>2026-04-08T14:09:00.795Z</time></trkpt><trkpt lat="45.6599687" lon="13.81063"><ele>168.0</ele><time>2026-04-08T14:09:01.788Z</time></trkpt><trkpt lat="45.6600804" lon="13.8103873"><ele>182.0</ele><time>2026-04-08T14:09:02.787Z</time></trkpt><trkpt lat="45.6602971" lon="13.8095829"><ele>182.0</ele><time>2026-04-08T14:09:05.783Z</time></trkpt><trkpt lat="45.6603603" lon="13.8093398"><ele>182.0</ele><time>2026-04-08T14:09:06.798Z</time></trkpt><trkpt lat="45.6604308" lon="13.8091083"><ele>182.0</ele><time>2026-04-08T14:09:07.782Z</time></trkpt><trkpt lat="45.6605174" lon="13.808906"><ele>178.0</ele><time>2026-04-08T14:09:08.785Z</time></trkpt><trkpt lat="45.6606086" lon="13.8087207"><ele>174.0</ele><time>2026-04-08T14:09:09.783Z</time></trkpt><trkpt lat="45.6606968" lon="13.8085588"><ele>170.0</ele><time>2026-04-08T14:09:10.79Z</time></trkpt><trkpt lat="45.6607886" lon="13.8084184"><ele>166.0</ele><time>2026-04-08T14:09:11.786Z</time></trkpt><trkpt lat="45.6608774" lon="13.808273"><ele>163.0</ele><time>2026-04-08T14:09:12.782Z</time></trkpt><trkpt lat="45.6609668" lon="13.8081442"><ele>160.0</ele><time>2026-04-08T14:09:13.783Z</time></trkpt><trkpt lat="45.6610566" lon="13.8080154"><ele>157.0</ele><time>2026-04-08T14:09:14.791Z</time></trkpt><trkpt lat="45.661146" lon="13.807889"><ele>154.0</ele><time>2026-04-08T14:09:15.793Z</time></trkpt><trkpt lat="45.6612229" lon="13.807763"><ele>157.25</ele><time>2026-04-08T14:09:16.787Z</time></trkpt><trkpt lat="45.6612941" lon="13.8076176"><ele>160.5</ele><time>2026-04-08T14:09:17.788Z</time></trkpt><trkpt lat="45.6613752" lon="13.8074719"><ele>163.75</ele><time>2026-04-08T14:09:18.78Z</time></trkpt><trkpt lat="45.6614547" lon="13.8073148"><ele>167.0</ele><time>2026-04-08T14:09:19.787Z</time></trkpt><trkpt lat="45.6615297" lon="13.8071578"><ele>167.0</ele><time>2026-04-08T14:09:20.799Z</time></trkpt><trkpt lat="45.6615899" lon="13.8069951"><ele>167.0</ele><time>2026-04-08T14:09:21.778Z</time></trkpt><trkpt lat="45.6616487" lon="13.8068172"><ele>167.0</ele><time>2026-04-08T14:09:22.787Z</time></trkpt><trkpt lat="45.6616981" lon="13.8066353"><ele>167.0</ele><time>2026-04-08T14:09:23.779Z</time></trkpt><trkpt lat="45.6617337" lon="13.8064541"><ele>163.5</ele><time>2026-04-08T14:09:24.803Z</time></trkpt><trkpt lat="45.6617636" lon="13.8062711"><ele>160.0</ele><time>2026-04-08T14:09:25.796Z</time></trkpt><trkpt lat="45.6617901" lon="13.806084"><ele>156.5</ele><time>2026-04-08T14:09:26.778Z</time></trkpt><trkpt lat="45.6618194" lon="13.8058921"><ele>153.0</ele><time>2026-04-08T14:09:27.784Z</time></trkpt><trkpt lat="45.6618524" lon="13.8056999"><ele>154.5</ele><time>2026-04-08T14:09:28.789Z</time></trkpt><trkpt lat="45.6618861" lon="13.8055119"><ele>156.0</ele><time>2026-04-08T14:09:29.778Z</time></trkpt><trkpt lat="45.6619271" lon="13.805329"><ele>157.5</ele><time>2026-04-08T14:09:30.788Z</time></trkpt><trkpt lat="45.6619876" lon="13.8051572"><ele>159.0</ele><time>2026-04-08T14:09:31.8Z</time></trkpt><trkpt lat="45.6620604" lon="13.8050022"><ele>159.0</ele><time>2026-04-08T14:09:32.791Z</time></trkpt><trkpt lat="45.6621497" lon="13.8048539"><ele>159.0</ele><time>2026-04-08T14:09:33.796Z</time></trkpt><trkpt lat="45.6622406" lon="13.8047011"><ele>159.0</ele><time>2026-04-08T14:09:34.795Z</time></trkpt><trkpt lat="45.6623285" lon="13.8045434"><ele>159.0</ele><time>2026-04-08T14:09:35.787Z</time></trkpt><trkpt lat="45.6624123" lon="13.8043909"><ele>155.0</ele><time>2026-04-08T14:09:36.778Z</time></trkpt><trkpt lat="45.6624863" lon="13.8042511"><ele>151.0</ele><time>2026-04-08T14:09:37.781Z</time></trkpt><trkpt lat="45.6625538" lon="13.8041238"><ele>147.0</ele><time>2026-04-08T14:09:38.779Z</time></trkpt><trkpt lat="45.6626225" lon="13.8040023"><ele>143.0</ele><time>2026-04-08T14:09:39.78Z</time></trkpt><trkpt lat="45.6626822" lon="13.8038951"><ele>139.0</ele><time>2026-04-08T14:09:40.798Z</time></trkpt><trkpt lat="45.6627532" lon="13.8037957"><ele>144.0</ele><time>2026-04-08T14:09:41.785Z</time></trkpt><trkpt lat="45.6628333" lon="13.8037213"><ele>149.0</ele><time>2026-04-08T14:09:42.805Z</time></trkpt><trkpt lat="45.6629253" lon="13.8036807"><ele>154.0</ele><time>2026-04-08T14:09:43.786Z</time></trkpt><trkpt lat="45.6630241" lon="13.8036345"><ele>159.0</ele><time>2026-04-08T14:09:44.776Z</time></trkpt><trkpt lat="45.6631242" lon="13.8035818"><ele>164.0</ele><time>2026-04-08T14:09:45.784Z</time></trkpt><trkpt lat="45.6632084" lon="13.8035133"><ele>160.33333333333331</ele><time>2026-04-08T14:09:46.778Z</time></trkpt><trkpt lat="45.6632803" lon="13.803444"><ele>156.66666666666666</ele><time>2026-04-08T14:09:47.779Z</time></trkpt><trkpt lat="45.6633216" lon="13.803373"><ele>153.0</ele><time>2026-04-08T14:09:48.811Z</time></trkpt><trkpt lat="45.6633702" lon="13.8032124"><ele>149.33333333333334</ele><time>2026-04-08T14:09:50.794Z</time></trkpt><trkpt lat="45.6634303" lon="13.8030851"><ele>145.66666666666669</ele><time>2026-04-08T14:09:52.786Z</time></trkpt><trkpt lat="45.6634635" lon="13.8029999"><ele>142.0</ele><time>2026-04-08T14:09:54.778Z</time></trkpt><trkpt lat="45.663477" lon="13.8028623"><ele>142.0</ele><time>2026-04-08T14:10:09.773Z</time></trkpt><trkpt lat="45.6634474" lon="13.8027708"><ele>142.0</ele><time>2026-04-08T14:10:10.78Z</time></trkpt><trkpt lat="45.6633876" lon="13.8026749"><ele>142.0</ele><time>2026-04-08T14:10:11.796Z</time></trkpt><trkpt lat="45.663295" lon="13.8025452"><ele>142.0</ele><time>2026-04-08T14:10:12.779Z</time></trkpt><trkpt lat="45.6631905" lon="13.8023914"><ele>142.0</ele><time>2026-04-08T14:10:13.791Z</time></trkpt><trkpt lat="45.6631119" lon="13.8022244"><ele>141.33333333333334</ele><time>2026-04-08T14:10:14.784Z</time></trkpt><trkpt lat="45.6630657" lon="13.8020077"><ele>140.66666666666666</ele><time>2026-04-08T14:10:15.788Z</time></trkpt><trkpt lat="45.6630489" lon="13.8017706"><ele>140.0</ele><time>2026-04-08T14:10:16.787Z</time></trkpt><trkpt lat="45.663046" lon="13.8015142"><ele>140.0</ele><time>2026-04-08T14:10:17.778Z</time></trkpt><trkpt lat="45.6630262" lon="13.8012679"><ele>140.0</ele><time>2026-04-08T14:10:18.793Z</time></trkpt><trkpt lat="45.6629979" lon="13.8010494"><ele>140.0</ele><time>2026-04-08T14:10:19.774Z</time></trkpt><trkpt lat="45.662954" lon="13.8008587"><ele>139.0</ele><time>2026-04-08T14:10:20.829Z</time></trkpt><trkpt lat="45.6628919" lon="13.8007052"><ele>138.0</ele><time>2026-04-08T14:10:21.792Z</time></trkpt><trkpt lat="45.6628092" lon="13.8005986"><ele>137.0</ele><time>2026-04-08T14:10:22.785Z</time></trkpt><trkpt lat="45.6625926" lon="13.8005109"><ele>134.33333333333331</ele><time>2026-04-08T14:10:24.81Z</time></trkpt><trkpt lat="45.6623302" lon="13.8005702"><ele>131.66666666666666</ele><time>2026-04-08T14:10:26.784Z</time></trkpt><trkpt lat="45.6621886" lon="13.800591"><ele>129.0</ele><time>2026-04-08T14:10:27.783Z</time></trkpt><trkpt lat="45.6620517" lon="13.8006136"><ele>126.25</ele><time>2026-04-08T14:10:28.79Z</time></trkpt><trkpt lat="45.6619129" lon="13.8006041"><ele>123.5</ele><time>2026-04-08T14:10:29.778Z</time></trkpt><trkpt lat="45.6617819" lon="13.8005495"><ele>120.75</ele><time>2026-04-08T14:10:30.786Z</time></trkpt><trkpt lat="45.6616602" lon="13.8004771"><ele>118.0</ele><time>2026-04-08T14:10:31.775Z</time></trkpt><trkpt lat="45.6615459" lon="13.8003825"><ele>118.0</ele><time>2026-04-08T14:10:32.772Z</time></trkpt><trkpt lat="45.6614382" lon="13.8002781"><ele>118.0</ele><time>2026-04-08T14:10:33.778Z</time></trkpt><trkpt lat="45.6613357" lon="13.8001547"><ele>118.0</ele><time>2026-04-08T14:10:34.772Z</time></trkpt><trkpt lat="45.6612394" lon="13.8000209"><ele>118.0</ele><time>2026-04-08T14:10:35.776Z</time></trkpt><trkpt lat="45.6611501" lon="13.7998882"><ele>118.60000000000001</ele><time>2026-04-08T14:10:36.78Z</time></trkpt><trkpt lat="45.6610662" lon="13.7997612"><ele>119.20000000000002</ele><time>2026-04-08T14:10:37.787Z</time></trkpt><trkpt lat="45.6609868" lon="13.799643"><ele>119.8</ele><time>2026-04-08T14:10:38.791Z</time></trkpt><trkpt lat="45.6609113" lon="13.799531"><ele>120.4</ele><time>2026-04-08T14:10:39.802Z</time></trkpt><trkpt lat="45.6608379" lon="13.7994266"><ele>121.0</ele><time>2026-04-08T14:10:40.782Z</time></trkpt><trkpt lat="45.6607673" lon="13.7993259"><ele>121.0</ele><time>2026-04-08T14:10:41.773Z</time></trkpt><trkpt lat="45.6606934" lon="13.7992268"><ele>121.0</ele><time>2026-04-08T14:10:42.789Z</time></trkpt><trkpt lat="45.6605323" lon="13.7989856"><ele>121.0</ele><time>2026-04-08T14:10:44.791Z</time></trkpt><trkpt lat="45.6604525" lon="13.7988508"><ele>121.0</ele><time>2026-04-08T14:10:45.789Z</time></trkpt><trkpt lat="45.6603837" lon="13.7987196"><ele>121.0</ele><time>2026-04-08T14:10:46.777Z</time></trkpt><trkpt lat="45.6603204" lon="13.7985976"><ele>121.0</ele><time>2026-04-08T14:10:47.786Z</time></trkpt><trkpt lat="45.6602582" lon="13.7984804"><ele>121.0</ele><time>2026-04-08T14:10:48.775Z</time></trkpt><trkpt lat="45.6601949" lon="13.7983631"><ele>121.0</ele><time>2026-04-08T14:10:49.775Z</time></trkpt><trkpt lat="45.6601261" lon="13.7982401"><ele>117.5</ele><time>2026-04-08T14:10:50.777Z</time></trkpt><trkpt lat="45.6600544" lon="13.7981127"><ele>114.0</ele><time>2026-04-08T14:10:51.774Z</time></trkpt><trkpt lat="45.6599809" lon="13.7979836"><ele>110.5</ele><time>2026-04-08T14:10:52.785Z</time></trkpt><trkpt lat="45.659904" lon="13.7978554"><ele>107.0</ele><time>2026-04-08T14:10:53.779Z</time></trkpt><trkpt lat="45.6598256" lon="13.7977226"><ele>109.66666666666666</ele><time>2026-04-08T14:10:54.774Z</time></trkpt><trkpt lat="45.6597426" lon="13.7975852"><ele>112.33333333333334</ele><time>2026-04-08T14:10:55.784Z</time></trkpt><trkpt lat="45.6595681" lon="13.7973153"><ele>115.0</ele><time>2026-04-08T14:10:57.776Z</time></trkpt><trkpt lat="45.6594788" lon="13.7971838"><ele>112.0</ele><time>2026-04-08T14:10:58.788Z</time></trkpt><trkpt lat="45.659389" lon="13.7970552"><ele>109.0</ele><time>2026-04-08T14:10:59.83Z</time></trkpt><trkpt lat="45.6592115" lon="13.796786"><ele>106.0</ele><time>2026-04-08T14:11:01.803Z</time></trkpt><trkpt lat="45.6591224" lon="13.7966506"><ele>106.0</ele><time>2026-04-08T14:11:02.774Z</time></trkpt><trkpt lat="45.6590304" lon="13.796514"><ele>106.0</ele><time>2026-04-08T14:11:03.789Z</time></trkpt><trkpt lat="45.6589395" lon="13.7963769"><ele>106.0</ele><time>2026-04-08T14:11:04.78Z</time></trkpt><trkpt lat="45.6588475" lon="13.7962466"><ele>106.0</ele><time>2026-04-08T14:11:05.785Z</time></trkpt><trkpt lat="45.6587548" lon="13.796115"><ele>106.25</ele><time>2026-04-08T14:11:06.784Z</time></trkpt><trkpt lat="45.6586681" lon="13.7959776"><ele>106.5</ele><time>2026-04-08T14:11:07.771Z</time></trkpt><trkpt lat="45.6585916" lon="13.795836"><ele>106.75</ele><time>2026-04-08T14:11:08.78Z</time></trkpt><trkpt lat="45.6585247" lon="13.7956882"><ele>107.0</ele><time>2026-04-08T14:11:09.787Z</time></trkpt><trkpt lat="45.6584744" lon="13.7955295"><ele>104.5</ele><time>2026-04-08T14:11:10.776Z</time></trkpt><trkpt lat="45.6584371" lon="13.7953711"><ele>102.0</ele><time>2026-04-08T14:11:11.775Z</time></trkpt><trkpt lat="45.6584046" lon="13.7952165"><ele>99.5</ele><time>2026-04-08T14:11:12.784Z</time></trkpt><trkpt lat="45.658375" lon="13.7950579"><ele>97.0</ele><time>2026-04-08T14:11:13.783Z</time></trkpt><trkpt lat="45.6583434" lon="13.7949024"><ele>97.0</ele><time>2026-04-08T14:11:14.782Z</time></trkpt><trkpt lat="45.6583088" lon="13.7947429"><ele>97.0</ele><time>2026-04-08T14:11:15.78Z</time></trkpt><trkpt lat="45.6582715" lon="13.7945845"><ele>97.0</ele><time>2026-04-08T14:11:16.776Z</time></trkpt><trkpt lat="45.6582357" lon="13.7944224"><ele>97.0</ele><time>2026-04-08T14:11:17.777Z</time></trkpt><trkpt lat="45.6581987" lon="13.7942621"><ele>97.75</ele><time>2026-04-08T14:11:18.783Z</time></trkpt><trkpt lat="45.6581594" lon="13.7941008"><ele>98.5</ele><time>2026-04-08T14:11:19.773Z</time></trkpt><trkpt lat="45.6581214" lon="13.7939379"><ele>99.25</ele><time>2026-04-08T14:11:20.773Z</time></trkpt><trkpt lat="45.6580773" lon="13.7937703"><ele>100.0</ele><time>2026-04-08T14:11:21.786Z</time></trkpt><trkpt lat="45.6580333" lon="13.7936096"><ele>99.75</ele><time>2026-04-08T14:11:22.775Z</time></trkpt><trkpt lat="45.6579876" lon="13.7934434"><ele>99.5</ele><time>2026-04-08T14:11:23.785Z</time></trkpt><trkpt lat="45.6579364" lon="13.7932795"><ele>99.25</ele><time>2026-04-08T14:11:24.783Z</time></trkpt><trkpt lat="45.657883" lon="13.7931172"><ele>99.0</ele><time>2026-04-08T14:11:25.78Z</time></trkpt><trkpt lat="45.6578336" lon="13.7929523"><ele>99.0</ele><time>2026-04-08T14:11:26.784Z</time></trkpt><trkpt lat="45.6577861" lon="13.7927869"><ele>99.0</ele><time>2026-04-08T14:11:27.779Z</time></trkpt><trkpt lat="45.657749" lon="13.7926139"><ele>99.0</ele><time>2026-04-08T14:11:28.787Z</time></trkpt><trkpt lat="45.6577294" lon="13.7924438"><ele>99.0</ele><time>2026-04-08T14:11:29.783Z</time></trkpt><trkpt lat="45.6577285" lon="13.7922775"><ele>97.25</ele><time>2026-04-08T14:11:30.792Z</time></trkpt><trkpt lat="45.6577685" lon="13.7921362"><ele>95.5</ele><time>2026-04-08T14:11:31.793Z</time></trkpt><trkpt lat="45.6578338" lon="13.7920106"><ele>93.75</ele><time>2026-04-08T14:11:32.776Z</time></trkpt><trkpt lat="45.6579395" lon="13.7919392"><ele>92.0</ele><time>2026-04-08T14:11:33.781Z</time></trkpt><trkpt lat="45.6580574" lon="13.7919265"><ele>92.0</ele><time>2026-04-08T14:11:34.786Z</time></trkpt><trkpt lat="45.6581799" lon="13.7919627"><ele>92.0</ele><time>2026-04-08T14:11:35.784Z</time></trkpt><trkpt lat="45.6582921" lon="13.7920247"><ele>92.0</ele><time>2026-04-08T14:11:36.778Z</time></trkpt><trkpt lat="45.6583987" lon="13.7921012"><ele>92.0</ele><time>2026-04-08T14:11:37.784Z</time></trkpt><trkpt lat="45.6585172" lon="13.7921814"><ele>90.25</ele><time>2026-04-08T14:11:38.79Z</time></trkpt><trkpt lat="45.6586401" lon="13.7922531"><ele>88.5</ele><time>2026-04-08T14:11:39.78Z</time></trkpt><trkpt lat="45.6587539" lon="13.7923217"><ele>86.75</ele><time>2026-04-08T14:11:40.785Z</time></trkpt><trkpt lat="45.6588635" lon="13.79239"><ele>85.0</ele><time>2026-04-08T14:11:41.788Z</time></trkpt><trkpt lat="45.6589614" lon="13.7924595"><ele>85.0</ele><time>2026-04-08T14:11:42.779Z</time></trkpt><trkpt lat="45.6590552" lon="13.7925307"><ele>85.0</ele><time>2026-04-08T14:11:43.787Z</time></trkpt><trkpt lat="45.659143" lon="13.7926075"><ele>85.0</ele><time>2026-04-08T14:11:44.793Z</time></trkpt><trkpt lat="45.659229" lon="13.7926834"><ele>85.0</ele><time>2026-04-08T14:11:45.784Z</time></trkpt><trkpt lat="45.6593161" lon="13.7927673"><ele>85.0</ele><time>2026-04-08T14:11:46.816Z</time></trkpt><trkpt lat="45.6594084" lon="13.7928498"><ele>85.4</ele><time>2026-04-08T14:11:47.775Z</time></trkpt><trkpt lat="45.6595021" lon="13.7929345"><ele>85.8</ele><time>2026-04-08T14:11:48.791Z</time></trkpt><trkpt lat="45.659601" lon="13.7930131"><ele>86.19999999999999</ele><time>2026-04-08T14:11:49.783Z</time></trkpt><trkpt lat="45.6597022" lon="13.7930837"><ele>86.6</ele><time>2026-04-08T14:11:50.778Z</time></trkpt><trkpt lat="45.6598093" lon="13.7931227"><ele>87.0</ele><time>2026-04-08T14:11:51.774Z</time></trkpt><trkpt lat="45.6599235" lon="13.7931275"><ele>87.0</ele><time>2026-04-08T14:11:52.793Z</time></trkpt><trkpt lat="45.6600278" lon="13.7931071"><ele>87.0</ele><time>2026-04-08T14:11:53.785Z</time></trkpt><trkpt lat="45.6601367" lon="13.7930519"><ele>87.0</ele><time>2026-04-08T14:11:54.788Z</time></trkpt><trkpt lat="45.6602395" lon="13.7929873"><ele>87.0</ele><time>2026-04-08T14:11:55.791Z</time></trkpt><trkpt lat="45.660337" lon="13.7929222"><ele>87.0</ele><time>2026-04-08T14:11:56.783Z</time></trkpt><trkpt lat="45.6604412" lon="13.7928605"><ele>88.0</ele><time>2026-04-08T14:11:57.782Z</time></trkpt><trkpt lat="45.6605364" lon="13.7928102"><ele>89.0</ele><time>2026-04-08T14:11:58.786Z</time></trkpt><trkpt lat="45.6606214" lon="13.7927716"><ele>90.0</ele><time>2026-04-08T14:11:59.781Z</time></trkpt><trkpt lat="45.6606899" lon="13.7927309"><ele>91.0</ele><time>2026-04-08T14:12:00.788Z</time></trkpt><trkpt lat="45.6607921" lon="13.7926694"><ele>92.0</ele><time>2026-04-08T14:12:02.79Z</time></trkpt><trkpt lat="45.6608572" lon="13.7926279"><ele>93.0</ele><time>2026-04-08T14:12:05.78Z</time></trkpt><trkpt lat="45.6609145" lon="13.7925851"><ele>90.60000000000001</ele><time>2026-04-08T14:12:09.782Z</time></trkpt><trkpt lat="45.6609713" lon="13.7924996"><ele>88.2</ele><time>2026-04-08T14:12:14.779Z</time></trkpt><trkpt lat="45.6609345" lon="13.7923303"><ele>85.8</ele><time>2026-04-08T14:12:16.788Z</time></trkpt><trkpt lat="45.6608837" lon="13.7922305"><ele>83.4</ele><time>2026-04-08T14:12:17.776Z</time></trkpt><trkpt lat="45.6608267" lon="13.792142"><ele>81.0</ele><time>2026-04-08T14:12:18.802Z</time></trkpt><trkpt lat="45.6607576" lon="13.7920991"><ele>81.0</ele><time>2026-04-08T14:12:19.78Z</time></trkpt><trkpt lat="45.6606763" lon="13.7920809"><ele>81.0</ele><time>2026-04-08T14:12:20.783Z</time></trkpt><trkpt lat="45.6605751" lon="13.7920649"><ele>81.0</ele><time>2026-04-08T14:12:21.778Z</time></trkpt><trkpt lat="45.6604726" lon="13.79207"><ele>81.0</ele><time>2026-04-08T14:12:22.803Z</time></trkpt><trkpt lat="45.6603891" lon="13.7920939"><ele>81.0</ele><time>2026-04-08T14:12:23.779Z</time></trkpt><trkpt lat="45.6603277" lon="13.7921315"><ele>81.0</ele><time>2026-04-08T14:12:24.777Z</time></trkpt><trkpt lat="45.6602626" lon="13.7921617"><ele>80.0</ele><time>2026-04-08T14:12:25.791Z</time></trkpt><trkpt lat="45.6601982" lon="13.7921688"><ele>79.0</ele><time>2026-04-08T14:12:26.787Z</time></trkpt><trkpt lat="45.6601203" lon="13.7921529"><ele>78.0</ele><time>2026-04-08T14:12:27.781Z</time></trkpt><trkpt lat="45.660045" lon="13.7921109"><ele>77.0</ele><time>2026-04-08T14:12:28.782Z</time></trkpt><trkpt lat="45.6599684" lon="13.7920462"><ele>76.0</ele><time>2026-04-08T14:12:29.78Z</time></trkpt><trkpt lat="45.6599016" lon="13.7919905"><ele>75.0</ele><time>2026-04-08T14:12:30.794Z</time></trkpt><trkpt lat="45.6598266" lon="13.7919434"><ele>75.0</ele><time>2026-04-08T14:12:31.777Z</time></trkpt><trkpt lat="45.6597475" lon="13.7918558"><ele>75.0</ele><time>2026-04-08T14:12:32.796Z</time></trkpt><trkpt lat="45.6596532" lon="13.7917411"><ele>75.0</ele><time>2026-04-08T14:12:33.775Z</time></trkpt><trkpt lat="45.6595592" lon="13.7916265"><ele>75.0</ele><time>2026-04-08T14:12:34.805Z</time></trkpt><trkpt lat="45.6594469" lon="13.7915396"><ele>74.25</ele><time>2026-04-08T14:12:35.774Z</time></trkpt><trkpt lat="45.6593199" lon="13.7915015"><ele>73.5</ele><time>2026-04-08T14:12:36.789Z</time></trkpt><trkpt lat="45.659199" lon="13.7914975"><ele>72.75</ele><time>2026-04-08T14:12:37.794Z</time></trkpt><trkpt lat="45.6590835" lon="13.7914864"><ele>72.0</ele><time>2026-04-08T14:12:38.791Z</time></trkpt><trkpt lat="45.6589857" lon="13.7914529"><ele>72.0</ele><time>2026-04-08T14:12:39.772Z</time></trkpt><trkpt lat="45.6588988" lon="13.7913991"><ele>72.0</ele><time>2026-04-08T14:12:40.774Z</time></trkpt><trkpt lat="45.6588115" lon="13.7913424"><ele>72.0</ele><time>2026-04-08T14:12:41.776Z</time></trkpt><trkpt lat="45.6587183" lon="13.7912715"><ele>72.0</ele><time>2026-04-08T14:12:42.778Z</time></trkpt><trkpt lat="45.6586326" lon="13.7911955"><ele>72.0</ele><time>2026-04-08T14:12:43.774Z</time></trkpt><trkpt lat="45.6585512" lon="13.7911055"><ele>73.33333333333333</ele><time>2026-04-08T14:12:44.776Z</time></trkpt><trkpt lat="45.6584711" lon="13.7910221"><ele>74.66666666666667</ele><time>2026-04-08T14:12:45.779Z</time></trkpt><trkpt lat="45.6583974" lon="13.7909587"><ele>76.0</ele><time>2026-04-08T14:12:46.773Z</time></trkpt><trkpt lat="45.6583281" lon="13.7908937"><ele>77.33333333333334</ele><time>2026-04-08T14:12:47.789Z</time></trkpt><trkpt lat="45.6582546" lon="13.7908211"><ele>78.66666666666667</ele><time>2026-04-08T14:12:48.789Z</time></trkpt><trkpt lat="45.658183" lon="13.7907424"><ele>80.0</ele><time>2026-04-08T14:12:49.787Z</time></trkpt><trkpt lat="45.6581236" lon="13.7906625"><ele>78.16666666666667</ele><time>2026-04-08T14:12:50.803Z</time></trkpt><trkpt lat="45.6580613" lon="13.7905979"><ele>76.33333333333334</ele><time>2026-04-08T14:12:51.78Z</time></trkpt><trkpt lat="45.6579971" lon="13.7905298"><ele>74.5</ele><time>2026-04-08T14:12:52.779Z</time></trkpt><trkpt lat="45.657938" lon="13.7904629"><ele>72.66666666666667</ele><time>2026-04-08T14:12:53.778Z</time></trkpt><trkpt lat="45.6578812" lon="13.7904001"><ele>70.83333333333333</ele><time>2026-04-08T14:12:54.797Z</time></trkpt><trkpt lat="45.6577798" lon="13.790253"><ele>69.0</ele><time>2026-04-08T14:12:56.8Z</time></trkpt><trkpt lat="45.6577346" lon="13.7901695"><ele>67.83333333333333</ele><time>2026-04-08T14:12:57.775Z</time></trkpt><trkpt lat="45.6576979" lon="13.7900961"><ele>66.66666666666667</ele><time>2026-04-08T14:12:58.807Z</time></trkpt><trkpt lat="45.657658" lon="13.7900251"><ele>65.5</ele><time>2026-04-08T14:12:59.779Z</time></trkpt><trkpt lat="45.6575776" lon="13.7899127"><ele>64.33333333333334</ele><time>2026-04-08T14:13:01.785Z</time></trkpt><trkpt lat="45.6574943" lon="13.7898219"><ele>63.16666666666667</ele><time>2026-04-08T14:13:03.802Z</time></trkpt><trkpt lat="45.6574157" lon="13.7897328"><ele>62.0</ele><time>2026-04-08T14:13:05.782Z</time></trkpt><trkpt lat="45.6573459" lon="13.7896325"><ele>62.0</ele><time>2026-04-08T14:13:07.776Z</time></trkpt><trkpt lat="45.6572765" lon="13.7895287"><ele>62.0</ele><time>2026-04-08T14:13:09.784Z</time></trkpt><trkpt lat="45.6571973" lon="13.7894194"><ele>62.0</ele><time>2026-04-08T14:13:11.774Z</time></trkpt><trkpt lat="45.6571367" lon="13.789372"><ele>62.0</ele><time>2026-04-08T14:13:12.789Z</time></trkpt><trkpt lat="45.6570243" lon="13.789284"><ele>62.0</ele><time>2026-04-08T14:13:14.796Z</time></trkpt><trkpt lat="45.6569692" lon="13.7892305"><ele>59.400000000000006</ele><time>2026-04-08T14:13:15.777Z</time></trkpt><trkpt lat="45.6568863" lon="13.7891525"><ele>56.800000000000004</ele><time>2026-04-08T14:13:17.783Z</time></trkpt><trkpt lat="45.6567934" lon="13.7890777"><ele>54.2</ele><time>2026-04-08T14:13:19.776Z</time></trkpt><trkpt lat="45.6567272" lon="13.7890604"><ele>51.6</ele><time>2026-04-08T14:13:20.781Z</time></trkpt><trkpt lat="45.6566158" lon="13.7890117"><ele>49.0</ele><time>2026-04-08T14:13:22.785Z</time></trkpt><trkpt lat="45.6565559" lon="13.788978"><ele>49.0</ele><time>2026-04-08T14:13:23.779Z</time></trkpt><trkpt lat="45.6564834" lon="13.7889407"><ele>49.0</ele><time>2026-04-08T14:13:24.784Z</time></trkpt><trkpt lat="45.6563765" lon="13.7889063"><ele>49.0</ele><time>2026-04-08T14:13:26.778Z</time></trkpt><trkpt lat="45.6562691" lon="13.7888485"><ele>49.0</ele><time>2026-04-08T14:13:28.78Z</time></trkpt><trkpt lat="45.6561702" lon="13.7888094"><ele>49.0</ele><time>2026-04-08T14:13:30.784Z</time></trkpt><trkpt lat="45.6560689" lon="13.7887884"><ele>47.166666666666664</ele><time>2026-04-08T14:13:32.809Z</time></trkpt><trkpt lat="45.655983" lon="13.7887606"><ele>45.33333333333333</ele><time>2026-04-08T14:13:34.778Z</time></trkpt><trkpt lat="45.6559225" lon="13.7887283"><ele>43.5</ele><time>2026-04-08T14:13:35.78Z</time></trkpt><trkpt lat="45.6558666" lon="13.7886645"><ele>41.666666666666664</ele><time>2026-04-08T14:13:36.782Z</time></trkpt><trkpt lat="45.65579" lon="13.788571"><ele>39.83333333333333</ele><time>2026-04-08T14:13:38.787Z</time></trkpt><trkpt lat="45.6557215" lon="13.7884818"><ele>38.0</ele><time>2026-04-08T14:13:40.778Z</time></trkpt><trkpt lat="45.6556439" lon="13.7883505"><ele>38.0</ele><time>2026-04-08T14:13:42.798Z</time></trkpt><trkpt lat="45.6555961" lon="13.788221"><ele>38.0</ele><time>2026-04-08T14:13:43.775Z</time></trkpt><trkpt lat="45.6555345" lon="13.7880998"><ele>38.0</ele><time>2026-04-08T14:13:44.786Z</time></trkpt><trkpt lat="45.6554743" lon="13.7879991"><ele>38.0</ele><time>2026-04-08T14:13:45.779Z</time></trkpt><trkpt lat="45.6554172" lon="13.7879012"><ele>38.0</ele><time>2026-04-08T14:13:46.774Z</time></trkpt><trkpt lat="45.655374" lon="13.7878213"><ele>38.0</ele><time>2026-04-08T14:13:47.773Z</time></trkpt><trkpt lat="45.6553282" lon="13.7877508"><ele>38.0</ele><time>2026-04-08T14:13:48.784Z</time></trkpt><trkpt lat="45.6552865" lon="13.7876822"><ele>38.0</ele><time>2026-04-08T14:13:49.778Z</time></trkpt><trkpt lat="45.6552296" lon="13.787574"><ele>38.0</ele><time>2026-04-08T14:13:51.784Z</time></trkpt><trkpt lat="45.6551881" lon="13.7874888"><ele>38.0</ele><time>2026-04-08T14:13:53.786Z</time></trkpt><trkpt lat="45.6551319" lon="13.7873857"><ele>38.0</ele><time>2026-04-08T14:13:55.774Z</time></trkpt><trkpt lat="45.655079" lon="13.78732"><ele>37.8</ele><time>2026-04-08T14:13:56.776Z</time></trkpt><trkpt lat="45.6550107" lon="13.7871844"><ele>37.599999999999994</ele><time>2026-04-08T14:13:58.779Z</time></trkpt><trkpt lat="45.6549593" lon="13.7870497"><ele>37.400000000000006</ele><time>2026-04-08T14:14:00.782Z</time></trkpt><trkpt lat="45.6549023" lon="13.7869443"><ele>37.2</ele><time>2026-04-08T14:14:02.78Z</time></trkpt><trkpt lat="45.6548463" lon="13.7868205"><ele>37.0</ele><time>2026-04-08T14:14:04.781Z</time></trkpt><trkpt lat="45.6547868" lon="13.7866653"><ele>36.4</ele><time>2026-04-08T14:14:06.785Z</time></trkpt><trkpt lat="45.654714" lon="13.7865126"><ele>35.800000000000004</ele><time>2026-04-08T14:14:08.791Z</time></trkpt><trkpt lat="45.6546579" lon="13.7863634"><ele>35.2</ele><time>2026-04-08T14:14:10.779Z</time></trkpt><trkpt lat="45.6546069" lon="13.7862951"><ele>34.6</ele><time>2026-04-08T14:14:11.79Z</time></trkpt><trkpt lat="45.6545162" lon="13.7861777"><ele>34.0</ele><time>2026-04-08T14:14:13.78Z</time></trkpt><trkpt lat="45.6544347" lon="13.7860498"><ele>33.0</ele><time>2026-04-08T14:14:15.772Z</time></trkpt><trkpt lat="45.6543643" lon="13.7859518"><ele>32.0</ele><time>2026-04-08T14:14:17.788Z</time></trkpt><trkpt lat="45.6543" lon="13.7858883"><ele>31.0</ele><time>2026-04-08T14:14:19.78Z</time></trkpt><trkpt lat="45.6542264" lon="13.785848"><ele>30.0</ele><time>2026-04-08T14:14:22.779Z</time></trkpt><trkpt lat="45.6541668" lon="13.7857845"><ele>29.000000000000004</ele><time>2026-04-08T14:14:27.777Z</time></trkpt><trkpt lat="45.654122" lon="13.7856975"><ele>28.0</ele><time>2026-04-08T14:14:29.775Z</time></trkpt><trkpt lat="45.6540599" lon="13.785632"><ele>28.0</ele><time>2026-04-08T14:14:32.778Z</time></trkpt><trkpt lat="45.6540068" lon="13.7855654"><ele>27.999999999999996</ele><time>2026-04-08T14:14:34.794Z</time></trkpt><trkpt lat="45.6539572" lon="13.7854028"><ele>27.999999999999996</ele><time>2026-04-08T14:14:36.775Z</time></trkpt><trkpt lat="45.6539378" lon="13.7852317"><ele>28.0</ele><time>2026-04-08T14:14:37.782Z</time></trkpt><trkpt lat="45.653922" lon="13.7850579"><ele>28.0</ele><time>2026-04-08T14:14:38.783Z</time></trkpt><trkpt lat="45.6539014" lon="13.7849229"><ele>27.833333333333336</ele><time>2026-04-08T14:14:39.768Z</time></trkpt><trkpt lat="45.6538669" lon="13.7848135"><ele>27.666666666666668</ele><time>2026-04-08T14:14:40.782Z</time></trkpt><trkpt lat="45.6538405" lon="13.7847151"><ele>27.5</ele><time>2026-04-08T14:14:41.774Z</time></trkpt><trkpt lat="45.653821" lon="13.7846239"><ele>27.333333333333336</ele><time>2026-04-08T14:14:42.786Z</time></trkpt><trkpt lat="45.6538102" lon="13.784475"><ele>27.166666666666668</ele><time>2026-04-08T14:14:44.776Z</time></trkpt><trkpt lat="45.653789" lon="13.7843097"><ele>27.0</ele><time>2026-04-08T14:14:46.772Z</time></trkpt><trkpt lat="45.6537664" lon="13.7841507"><ele>27.0</ele><time>2026-04-08T14:14:48.798Z</time></trkpt><trkpt lat="45.6537477" lon="13.7840587"><ele>27.0</ele><time>2026-04-08T14:14:49.778Z</time></trkpt><trkpt lat="45.6537348" lon="13.7839533"><ele>27.0</ele><time>2026-04-08T14:14:50.791Z</time></trkpt><trkpt lat="45.6537165" lon="13.7838554"><ele>27.0</ele><time>2026-04-08T14:14:51.783Z</time></trkpt><trkpt lat="45.6536932" lon="13.7837395"><ele>27.0</ele><time>2026-04-08T14:14:52.78Z</time></trkpt><trkpt lat="45.6536728" lon="13.7836119"><ele>27.0</ele><time>2026-04-08T14:14:53.779Z</time></trkpt><trkpt lat="45.6536574" lon="13.7834918"><ele>26.857142857142858</ele><time>2026-04-08T14:14:54.782Z</time></trkpt><trkpt lat="45.6536455" lon="13.7833773"><ele>26.714285714285715</ele><time>2026-04-08T14:14:55.776Z</time></trkpt><trkpt lat="45.6536289" lon="13.7832691"><ele>26.57142857142857</ele><time>2026-04-08T14:14:56.785Z</time></trkpt><trkpt lat="45.6536184" lon="13.7831688"><ele>26.42857142857143</ele><time>2026-04-08T14:14:57.777Z</time></trkpt><trkpt lat="45.6536102" lon="13.7830695"><ele>26.28571428571429</ele><time>2026-04-08T14:14:58.785Z</time></trkpt><trkpt lat="45.6536018" lon="13.7829689"><ele>26.142857142857142</ele><time>2026-04-08T14:14:59.777Z</time></trkpt><trkpt lat="45.6535934" lon="13.7828606"><ele>26.0</ele><time>2026-04-08T14:15:00.783Z</time></trkpt><trkpt lat="45.6535787" lon="13.7827525"><ele>25.499999999999996</ele><time>2026-04-08T14:15:01.78Z</time></trkpt><trkpt lat="45.6535622" lon="13.7826453"><ele>25.0</ele><time>2026-04-08T14:15:02.784Z</time></trkpt><trkpt lat="45.6535489" lon="13.7825451"><ele>24.5</ele><time>2026-04-08T14:15:03.776Z</time></trkpt><trkpt lat="45.6535024" lon="13.7824063"><ele>24.0</ele><time>2026-04-08T14:15:05.777Z</time></trkpt><trkpt lat="45.6534912" lon="13.7822996"><ele>23.5</ele><time>2026-04-08T14:15:11.776Z</time></trkpt><trkpt lat="45.6534147" lon="13.7822749"><ele>23.0</ele><time>2026-04-08T14:15:14.77Z</time></trkpt><trkpt lat="45.653291" lon="13.7823243"><ele>23.0</ele><time>2026-04-08T14:15:16.781Z</time></trkpt><trkpt lat="45.6532071" lon="13.7823455"><ele>23.0</ele><time>2026-04-08T14:15:17.771Z</time></trkpt><trkpt lat="45.6531243" lon="13.7823684"><ele>23.0</ele><time>2026-04-08T14:15:18.787Z</time></trkpt><trkpt lat="45.652988" lon="13.7824444"><ele>23.0</ele><time>2026-04-08T14:15:20.775Z</time></trkpt><trkpt lat="45.652889" lon="13.7825541"><ele>23.0</ele><time>2026-04-08T14:15:22.785Z</time></trkpt><trkpt lat="45.6528165" lon="13.7826646"><ele>23.833333333333336</ele><time>2026-04-08T14:15:24.776Z</time></trkpt><trkpt lat="45.6527845" lon="13.7827475"><ele>24.666666666666668</ele><time>2026-04-08T14:15:28.773Z</time></trkpt><trkpt lat="45.6527105" lon="13.7828223"><ele>25.5</ele><time>2026-04-08T14:15:32.777Z</time></trkpt><trkpt lat="45.6526219" lon="13.7828708"><ele>26.333333333333336</ele><time>2026-04-08T14:15:34.783Z</time></trkpt><trkpt lat="45.6525218" lon="13.7829553"><ele>27.166666666666668</ele><time>2026-04-08T14:15:36.782Z</time></trkpt><trkpt lat="45.652468" lon="13.7830258"><ele>28.0</ele><time>2026-04-08T14:15:37.783Z</time></trkpt><trkpt lat="45.6524038" lon="13.7830763"><ele>28.0</ele><time>2026-04-08T14:15:38.781Z</time></trkpt><trkpt lat="45.6523283" lon="13.7831133"><ele>28.0</ele><time>2026-04-08T14:15:39.79Z</time></trkpt><trkpt lat="45.6522507" lon="13.7831525"><ele>28.0</ele><time>2026-04-08T14:15:40.777Z</time></trkpt><trkpt lat="45.6521776" lon="13.7831876"><ele>28.0</ele><time>2026-04-08T14:15:41.782Z</time></trkpt><trkpt lat="45.6521109" lon="13.7832168"><ele>28.0</ele><time>2026-04-08T14:15:42.779Z</time></trkpt><trkpt lat="45.6520486" lon="13.7832542"><ele>28.0</ele><time>2026-04-08T14:15:43.78Z</time></trkpt><trkpt lat="45.6519904" lon="13.7832922"><ele>28.0</ele><time>2026-04-08T14:15:44.77Z</time></trkpt><trkpt lat="45.6518822" lon="13.7833793"><ele>29.0</ele><time>2026-04-08T14:15:46.787Z</time></trkpt><trkpt lat="45.6518267" lon="13.783427"><ele>30.0</ele><time>2026-04-08T14:15:47.778Z</time></trkpt><trkpt lat="45.6517659" lon="13.7834887"><ele>31.0</ele><time>2026-04-08T14:15:48.778Z</time></trkpt><trkpt lat="45.6516927" lon="13.7835375"><ele>32.0</ele><time>2026-04-08T14:15:49.776Z</time></trkpt><trkpt lat="45.6516273" lon="13.7835799"><ele>33.0</ele><time>2026-04-08T14:15:50.778Z</time></trkpt><trkpt lat="45.6515713" lon="13.7836325"><ele>34.0</ele><time>2026-04-08T14:15:51.782Z</time></trkpt><trkpt lat="45.6515081" lon="13.7836818"><ele>35.0</ele><time>2026-04-08T14:15:52.78Z</time></trkpt><trkpt lat="45.6514001" lon="13.783769"><ele>35.6</ele><time>2026-04-08T14:15:54.788Z</time></trkpt><trkpt lat="45.6513056" lon="13.7838722"><ele>36.2</ele><time>2026-04-08T14:15:56.778Z</time></trkpt><trkpt lat="45.6512065" lon="13.7840029"><ele>36.8</ele><time>2026-04-08T14:15:58.777Z</time></trkpt><trkpt lat="45.6511448" lon="13.7840763"><ele>37.4</ele><time>2026-04-08T14:15:59.776Z</time></trkpt><trkpt lat="45.651079" lon="13.7841345"><ele>38.0</ele><time>2026-04-08T14:16:00.778Z</time></trkpt><trkpt lat="45.6510231" lon="13.7841842"><ele>38.5</ele><time>2026-04-08T14:16:01.782Z</time></trkpt><trkpt lat="45.6509185" lon="13.7842814"><ele>39.0</ele><time>2026-04-08T14:16:03.773Z</time></trkpt><trkpt lat="45.6508552" lon="13.7843301"><ele>39.5</ele><time>2026-04-08T14:16:04.771Z</time></trkpt><trkpt lat="45.6507939" lon="13.7843722"><ele>40.0</ele><time>2026-04-08T14:16:05.773Z</time></trkpt><trkpt lat="45.6507357" lon="13.7844428"><ele>40.5</ele><time>2026-04-08T14:16:06.776Z</time></trkpt><trkpt lat="45.6506741" lon="13.7845061"><ele>41.0</ele><time>2026-04-08T14:16:07.768Z</time></trkpt><trkpt lat="45.6506121" lon="13.7845698"><ele>41.285714285714285</ele><time>2026-04-08T14:16:08.773Z</time></trkpt><trkpt lat="45.6505527" lon="13.7846238"><ele>41.57142857142857</ele><time>2026-04-08T14:16:09.776Z</time></trkpt><trkpt lat="45.6504945" lon="13.7846738"><ele>41.85714285714286</ele><time>2026-04-08T14:16:10.774Z</time></trkpt><trkpt lat="45.6504359" lon="13.7847164"><ele>42.14285714285714</ele><time>2026-04-08T14:16:11.773Z</time></trkpt><trkpt lat="45.6503673" lon="13.7847583"><ele>42.42857142857143</ele><time>2026-04-08T14:16:12.794Z</time></trkpt><trkpt lat="45.6502947" lon="13.7848086"><ele>42.714285714285715</ele><time>2026-04-08T14:16:13.777Z</time></trkpt><trkpt lat="45.6502209" lon="13.7848623"><ele>43.0</ele><time>2026-04-08T14:16:14.783Z</time></trkpt><trkpt lat="45.6501496" lon="13.7849193"><ele>43.00000000000001</ele><time>2026-04-08T14:16:15.774Z</time></trkpt><trkpt lat="45.6500854" lon="13.7849799"><ele>43.0</ele><time>2026-04-08T14:16:16.788Z</time></trkpt><trkpt lat="45.65003" lon="13.7850649"><ele>43.0</ele><time>2026-04-08T14:16:17.778Z</time></trkpt><trkpt lat="45.6499756" lon="13.7851372"><ele>43.0</ele><time>2026-04-08T14:16:18.775Z</time></trkpt><trkpt lat="45.6499176" lon="13.7852036"><ele>43.0</ele><time>2026-04-08T14:16:19.778Z</time></trkpt><trkpt lat="45.6498556" lon="13.7852488"><ele>43.00000000000001</ele><time>2026-04-08T14:16:20.781Z</time></trkpt><trkpt lat="45.6497932" lon="13.7852774"><ele>43.0</ele><time>2026-04-08T14:16:21.778Z</time></trkpt><trkpt lat="45.6497217" lon="13.7853438"><ele>43.2</ele><time>2026-04-08T14:16:22.776Z</time></trkpt><trkpt lat="45.6496494" lon="13.7854344"><ele>43.4</ele><time>2026-04-08T14:16:23.785Z</time></trkpt><trkpt lat="45.6495804" lon="13.7855226"><ele>43.6</ele><time>2026-04-08T14:16:24.772Z</time></trkpt><trkpt lat="45.6495051" lon="13.7856052"><ele>43.800000000000004</ele><time>2026-04-08T14:16:25.781Z</time></trkpt><trkpt lat="45.6494264" lon="13.78568"><ele>44.0</ele><time>2026-04-08T14:16:26.773Z</time></trkpt><trkpt lat="45.6493551" lon="13.7857571"><ele>44.0</ele><time>2026-04-08T14:16:27.777Z</time></trkpt><trkpt lat="45.6492832" lon="13.7858236"><ele>44.0</ele><time>2026-04-08T14:16:28.787Z</time></trkpt><trkpt lat="45.6492103" lon="13.7858767"><ele>44.0</ele><time>2026-04-08T14:16:29.781Z</time></trkpt><trkpt lat="45.6491491" lon="13.7859406"><ele>44.0</ele><time>2026-04-08T14:16:30.776Z</time></trkpt><trkpt lat="45.6490903" lon="13.7860041"><ele>44.0</ele><time>2026-04-08T14:16:31.792Z</time></trkpt><trkpt lat="45.6490263" lon="13.786071"><ele>44.0</ele><time>2026-04-08T14:16:32.778Z</time></trkpt><trkpt lat="45.6489607" lon="13.7861481"><ele>44.0</ele><time>2026-04-08T14:16:33.777Z</time></trkpt><trkpt lat="45.6488911" lon="13.786223"><ele>44.0</ele><time>2026-04-08T14:16:34.768Z</time></trkpt><trkpt lat="45.6488199" lon="13.7863033"><ele>44.0</ele><time>2026-04-08T14:16:35.768Z</time></trkpt><trkpt lat="45.6487538" lon="13.7863807"><ele>44.0</ele><time>2026-04-08T14:16:36.783Z</time></trkpt><trkpt lat="45.6486892" lon="13.7864571"><ele>44.0</ele><time>2026-04-08T14:16:37.786Z</time></trkpt><trkpt lat="45.6486242" lon="13.7865242"><ele>44.0</ele><time>2026-04-08T14:16:38.78Z</time></trkpt><trkpt lat="45.6485599" lon="13.7866014"><ele>44.0</ele><time>2026-04-08T14:16:39.767Z</time></trkpt><trkpt lat="45.6484939" lon="13.7866792"><ele>44.0</ele><time>2026-04-08T14:16:40.773Z</time></trkpt><trkpt lat="45.6484187" lon="13.7867619"><ele>44.0</ele><time>2026-04-08T14:16:41.781Z</time></trkpt><trkpt lat="45.6483455" lon="13.786854"><ele>44.0</ele><time>2026-04-08T14:16:42.78Z</time></trkpt><trkpt lat="45.6482708" lon="13.7869253"><ele>44.0</ele><time>2026-04-08T14:16:43.78Z</time></trkpt><trkpt lat="45.6482058" lon="13.787"><ele>44.0</ele><time>2026-04-08T14:16:44.78Z</time></trkpt><trkpt lat="45.6481491" lon="13.7870422"><ele>44.0</ele><time>2026-04-08T14:16:45.782Z</time></trkpt><trkpt lat="45.6480804" lon="13.7870201"><ele>44.0</ele><time>2026-04-08T14:16:47.777Z</time></trkpt><trkpt lat="45.6480331" lon="13.7868716"><ele>44.0</ele><time>2026-04-08T14:16:49.786Z</time></trkpt><trkpt lat="45.6479841" lon="13.7867159"><ele>44.0</ele><time>2026-04-08T14:16:51.776Z</time></trkpt><trkpt lat="45.6479282" lon="13.786576"><ele>44.0</ele><time>2026-04-08T14:16:53.769Z</time></trkpt><trkpt lat="45.6478881" lon="13.7864797"><ele>44.0</ele><time>2026-04-08T14:16:56.776Z</time></trkpt><trkpt lat="45.647836" lon="13.7864291"><ele>44.0</ele><time>2026-04-08T14:16:58.795Z</time></trkpt><trkpt lat="45.6477566" lon="13.7863091"><ele>44.0</ele><time>2026-04-08T14:17:00.772Z</time></trkpt><trkpt lat="45.6477109" lon="13.7862021"><ele>44.0</ele><time>2026-04-08T14:17:01.771Z</time></trkpt><trkpt lat="45.6476675" lon="13.7860725"><ele>44.0</ele><time>2026-04-08T14:17:02.79Z</time></trkpt><trkpt lat="45.647623" lon="13.7859501"><ele>43.5</ele><time>2026-04-08T14:17:03.766Z</time></trkpt><trkpt lat="45.6475801" lon="13.785838"><ele>43.0</ele><time>2026-04-08T14:17:04.772Z</time></trkpt><trkpt lat="45.6475388" lon="13.7857358"><ele>42.5</ele><time>2026-04-08T14:17:05.774Z</time></trkpt><trkpt lat="45.647492" lon="13.7856329"><ele>42.0</ele><time>2026-04-08T14:17:06.792Z</time></trkpt><trkpt lat="45.6474571" lon="13.7855401"><ele>41.5</ele><time>2026-04-08T14:17:07.769Z</time></trkpt><trkpt lat="45.6474167" lon="13.7854447"><ele>41.0</ele><time>2026-04-08T14:17:09.788Z</time></trkpt><trkpt lat="45.6473737" lon="13.7853635"><ele>40.99999999999999</ele><time>2026-04-08T14:17:11.769Z</time></trkpt><trkpt lat="45.6473299" lon="13.7852476"><ele>41.0</ele><time>2026-04-08T14:17:14.767Z</time></trkpt><trkpt lat="45.6473509" lon="13.7851476"><ele>41.0</ele><time>2026-04-08T14:17:16.77Z</time></trkpt><trkpt lat="45.6474008" lon="13.7850906"><ele>41.0</ele><time>2026-04-08T14:17:17.767Z</time></trkpt><trkpt lat="45.6474661" lon="13.7850093"><ele>41.0</ele><time>2026-04-08T14:17:18.776Z</time></trkpt><trkpt lat="45.6475182" lon="13.7849494"><ele>40.99999999999999</ele><time>2026-04-08T14:17:19.771Z</time></trkpt><trkpt lat="45.6475704" lon="13.7848894"><ele>41.0</ele><time>2026-04-08T14:17:20.773Z</time></trkpt><trkpt lat="45.6476362" lon="13.7847817"><ele>40.33333333333333</ele><time>2026-04-08T14:17:22.784Z</time></trkpt><trkpt lat="45.6475756" lon="13.7846619"><ele>39.666666666666664</ele><time>2026-04-08T14:17:24.774Z</time></trkpt><trkpt lat="45.6475385" lon="13.7845884"><ele>39.0</ele><time>2026-04-08T14:17:25.763Z</time></trkpt><trkpt lat="45.647498" lon="13.7845094"><ele>38.333333333333336</ele><time>2026-04-08T14:17:26.771Z</time></trkpt><trkpt lat="45.6474501" lon="13.7844068"><ele>37.66666666666667</ele><time>2026-04-08T14:17:27.766Z</time></trkpt><trkpt lat="45.6474029" lon="13.7842942"><ele>37.0</ele><time>2026-04-08T14:17:28.795Z</time></trkpt><trkpt lat="45.647361" lon="13.7842086"><ele>36.0</ele><time>2026-04-08T14:17:29.772Z</time></trkpt><trkpt lat="45.647315" lon="13.7840908"><ele>35.0</ele><time>2026-04-08T14:17:31.775Z</time></trkpt><trkpt lat="45.6472968" lon="13.7839118"><ele>34.0</ele><time>2026-04-08T14:17:33.789Z</time></trkpt><trkpt lat="45.6472869" lon="13.7837861"><ele>33.0</ele><time>2026-04-08T14:17:34.772Z</time></trkpt><trkpt lat="45.6472902" lon="13.7836295"><ele>32.0</ele><time>2026-04-08T14:17:35.769Z</time></trkpt><trkpt lat="45.6472973" lon="13.7834843"><ele>31.833333333333332</ele><time>2026-04-08T14:17:36.772Z</time></trkpt><trkpt lat="45.6473126" lon="13.7833539"><ele>31.666666666666664</ele><time>2026-04-08T14:17:37.776Z</time></trkpt><trkpt lat="45.6473431" lon="13.7832426"><ele>31.5</ele><time>2026-04-08T14:17:38.777Z</time></trkpt><trkpt lat="45.6473842" lon="13.7831575"><ele>31.333333333333336</ele><time>2026-04-08T14:17:39.764Z</time></trkpt><trkpt lat="45.6474462" lon="13.7830629"><ele>31.166666666666668</ele><time>2026-04-08T14:17:41.781Z</time></trkpt><trkpt lat="45.6474477" lon="13.7829505"><ele>31.0</ele><time>2026-04-08T14:17:43.804Z</time></trkpt><trkpt lat="45.6474042" lon="13.782866"><ele>31.0</ele><time>2026-04-08T14:17:45.786Z</time></trkpt><trkpt lat="45.647354" lon="13.782731"><ele>31.0</ele><time>2026-04-08T14:17:48.781Z</time></trkpt><trkpt lat="45.6473259" lon="13.7826044"><ele>31.0</ele><time>2026-04-08T14:17:49.781Z</time></trkpt><trkpt lat="45.6472748" lon="13.7824791"><ele>31.0</ele><time>2026-04-08T14:17:50.787Z</time></trkpt><trkpt lat="45.6472216" lon="13.7823854"><ele>31.0</ele><time>2026-04-08T14:17:51.803Z</time></trkpt><trkpt lat="45.6471711" lon="13.782307"><ele>30.500000000000004</ele><time>2026-04-08T14:17:52.778Z</time></trkpt><trkpt lat="45.6471124" lon="13.7822109"><ele>30.0</ele><time>2026-04-08T14:17:54.771Z</time></trkpt><trkpt lat="45.647075" lon="13.7821369"><ele>29.5</ele><time>2026-04-08T14:17:59.788Z</time></trkpt><trkpt lat="45.6470302" lon="13.7820339"><ele>29.0</ele><time>2026-04-08T14:18:03.777Z</time></trkpt><trkpt lat="45.6469805" lon="13.7819191"><ele>28.500000000000004</ele><time>2026-04-08T14:18:05.775Z</time></trkpt><trkpt lat="45.6469579" lon="13.7818341"><ele>28.0</ele><time>2026-04-08T14:18:07.774Z</time></trkpt><trkpt lat="45.6469161" lon="13.7817518"><ele>28.000000000000004</ele><time>2026-04-08T14:18:10.769Z</time></trkpt><trkpt lat="45.646884" lon="13.7816696"><ele>28.0</ele><time>2026-04-08T14:18:30.809Z</time></trkpt><trkpt lat="45.646842" lon="13.7815773"><ele>28.0</ele><time>2026-04-08T14:18:34.769Z</time></trkpt><trkpt lat="45.6468042" lon="13.7814356"><ele>28.0</ele><time>2026-04-08T14:19:09.784Z</time></trkpt><trkpt lat="45.6467659" lon="13.7813467"><ele>28.000000000000004</ele><time>2026-04-08T14:19:11.772Z</time></trkpt><trkpt lat="45.6467011" lon="13.781218"><ele>28.0</ele><time>2026-04-08T14:19:13.796Z</time></trkpt><trkpt lat="45.6466551" lon="13.7811286"><ele>28.000000000000004</ele><time>2026-04-08T14:19:15.767Z</time></trkpt><trkpt lat="45.6465953" lon="13.7810385"><ele>28.0</ele><time>2026-04-08T14:19:18.791Z</time></trkpt><trkpt lat="45.6465492" lon="13.7809489"><ele>28.0</ele><time>2026-04-08T14:19:24.769Z</time></trkpt><trkpt lat="45.6465109" lon="13.7808767"><ele>28.0</ele><time>2026-04-08T14:19:27.771Z</time></trkpt><trkpt lat="45.646535" lon="13.7807824"><ele>28.000000000000004</ele><time>2026-04-08T14:20:20.85Z</time></trkpt><trkpt lat="45.6465838" lon="13.7807033"><ele>28.0</ele><time>2026-04-08T14:20:23.782Z</time></trkpt><trkpt lat="45.6466453" lon="13.7806312"><ele>28.2</ele><time>2026-04-08T14:20:24.784Z</time></trkpt><trkpt lat="45.6467312" lon="13.780536"><ele>28.4</ele><time>2026-04-08T14:20:25.786Z</time></trkpt><trkpt lat="45.6468204" lon="13.7804354"><ele>28.599999999999998</ele><time>2026-04-08T14:20:26.781Z</time></trkpt><trkpt lat="45.6469089" lon="13.780362"><ele>28.799999999999997</ele><time>2026-04-08T14:20:27.78Z</time></trkpt><trkpt lat="45.6469859" lon="13.7802879"><ele>29.0</ele><time>2026-04-08T14:20:28.783Z</time></trkpt><trkpt lat="45.6470517" lon="13.7802169"><ele>29.0</ele><time>2026-04-08T14:20:29.777Z</time></trkpt><trkpt lat="45.6471131" lon="13.7801382"><ele>29.0</ele><time>2026-04-08T14:20:31.776Z</time></trkpt><trkpt lat="45.64717" lon="13.780046"><ele>29.0</ele><time>2026-04-08T14:20:33.809Z</time></trkpt><trkpt lat="45.6472552" lon="13.7799686"><ele>29.0</ele><time>2026-04-08T14:20:35.773Z</time></trkpt><trkpt lat="45.647314" lon="13.7799206"><ele>29.0</ele><time>2026-04-08T14:20:37.771Z</time></trkpt><trkpt lat="45.6473623" lon="13.779772"><ele>28.999999999999996</ele><time>2026-04-08T14:20:54.773Z</time></trkpt><trkpt lat="45.6474629" lon="13.7796734"><ele>29.0</ele><time>2026-04-08T14:20:56.783Z</time></trkpt><trkpt lat="45.6475241" lon="13.7795792"><ele>29.0</ele><time>2026-04-08T14:20:58.785Z</time></trkpt><trkpt lat="45.6475501" lon="13.7794821"><ele>29.0</ele><time>2026-04-08T14:21:03.773Z</time></trkpt><trkpt lat="45.6476036" lon="13.7794306"><ele>28.999999999999996</ele><time>2026-04-08T14:21:05.808Z</time></trkpt><trkpt lat="45.6476795" lon="13.7793514"><ele>29.0</ele><time>2026-04-08T14:21:07.774Z</time></trkpt><trkpt lat="45.6478111" lon="13.7792106"><ele>27.6</ele><time>2026-04-08T14:21:10.779Z</time></trkpt><trkpt lat="45.6478873" lon="13.779127"><ele>26.2</ele><time>2026-04-08T14:21:12.777Z</time></trkpt><trkpt lat="45.6480192" lon="13.7790188"><ele>24.8</ele><time>2026-04-08T14:21:14.778Z</time></trkpt><trkpt lat="45.6481037" lon="13.7789394"><ele>23.400000000000002</ele><time>2026-04-08T14:21:15.779Z</time></trkpt><trkpt lat="45.6481825" lon="13.7788894"><ele>22.0</ele><time>2026-04-08T14:21:16.802Z</time></trkpt><trkpt lat="45.6482596" lon="13.7787985"><ele>22.0</ele><time>2026-04-08T14:21:18.778Z</time></trkpt><trkpt lat="45.6483328" lon="13.7787028"><ele>22.0</ele><time>2026-04-08T14:21:20.781Z</time></trkpt><trkpt lat="45.6484164" lon="13.7786193"><ele>22.0</ele><time>2026-04-08T14:21:22.784Z</time></trkpt><trkpt lat="45.6485122" lon="13.7785709"><ele>22.0</ele><time>2026-04-08T14:21:24.782Z</time></trkpt><trkpt lat="45.6485811" lon="13.7785799"><ele>22.0</ele><time>2026-04-08T14:21:26.775Z</time></trkpt><trkpt lat="45.6486568" lon="13.7786364"><ele>21.0</ele><time>2026-04-08T14:21:28.777Z</time></trkpt><trkpt lat="45.6487106" lon="13.7787126"><ele>21.0</ele><time>2026-04-08T14:21:31.802Z</time></trkpt><trkpt lat="45.6487186" lon="13.7788057"><ele>21.0</ele><time>2026-04-08T14:21:47.785Z</time></trkpt></trkseg></trk></gpx>